<?xml version="1.0" encoding="UTF-8" standalone="no" ?>
<gpx xmlns="http://www.topografix.com/GPX/1/1" xmlns:xsi="http://www.w3.org/2001/XMLSchema-instance" xsi:schemaLocation="http://www.topografix.com/GPX/1/1 http://www.topografix.com/GPX/1/1/gpx.xsd" version="1.1" creator="VisuGPX - https://www.visugpx.com">
  <metadata>
    <name>2016-11-28 Bike ride-Amberieux en Dombes O via Monthieux</name>
    <desc><![CDATA[2016-11-28 Bike ride-Amberieux en Dombes O via Monthieux]]></desc>
  </metadata>
  <wpt lat="45.92482" lon="4.73682">
    <ele>175</ele>
    <name><![CDATA[2016-11-28 10:23 (Start)]]></name>
  </wpt>
  <wpt lat="45.92463" lon="4.73708">
    <ele>174</ele>
    <name><![CDATA[2016-11-28 10:23 (End)]]></name>
    <desc><![CDATA[Created by Google My Tracks on Android  Name: 2016-11-28 10:23 Activity type: biking Description: - Total distance: 46.16 km (28.7 mi) Total time: 2:25:33 Moving time: 2:17:03 Average speed: 19.03 km/h (11.8 mi/h) Average moving speed: 20.21 km/h (12.6 mi/h) Max speed: 41.45 km/h (25.8 mi/h) Average pace: 3:09 min/km (5:05 min/mi) Average moving pace: 2:58 min/km (4:47 min/mi) Fastest pace: 1:27 min/km (2:20 min/mi) Max elevation: 311 m (1021 ft) Min elevation: 11 m (35 ft) Elevation gain: 609 m (1999 ft) Max grade: 64 % Min grade: -12 % Recorded: 28/11/2016 10:23]]></desc>
  </wpt>
  <trk>
    <name><![CDATA[2016-11-28 10:23]]></name>
    <trkseg>
      <trkpt lat="45.92482" lon="4.73682">
        <ele>175</ele>
        <time>2016-11-28T09:23:26.329Z</time>
      </trkpt>
      <trkpt lat="45.92482" lon="4.73679">
        <ele>175</ele>
        <time>2016-11-28T09:23:44Z</time>
      </trkpt>
      <trkpt lat="45.92462" lon="4.73722">
        <ele>174</ele>
        <time>2016-11-28T09:23:45Z</time>
      </trkpt>
      <trkpt lat="45.92462" lon="4.73722">
        <ele>174</ele>
        <time>2016-11-28T09:23:47Z</time>
      </trkpt>
      <trkpt lat="45.92465" lon="4.73692">
        <ele>174</ele>
        <time>2016-11-28T09:23:48Z</time>
      </trkpt>
      <trkpt lat="45.9247" lon="4.73692">
        <ele>174</ele>
        <time>2016-11-28T09:23:52Z</time>
      </trkpt>
      <trkpt lat="45.92473" lon="4.73681">
        <ele>174</ele>
        <time>2016-11-28T09:23:53Z</time>
      </trkpt>
      <trkpt lat="45.92465" lon="4.73678">
        <ele>174</ele>
        <time>2016-11-28T09:24:11Z</time>
      </trkpt>
      <trkpt lat="45.92462" lon="4.73678">
        <ele>174</ele>
        <time>2016-11-28T09:24:12Z</time>
      </trkpt>
      <trkpt lat="45.92462" lon="4.73665">
        <ele>174</ele>
        <time>2016-11-28T09:24:33Z</time>
      </trkpt>
      <trkpt lat="45.92462" lon="4.73661">
        <ele>174</ele>
        <time>2016-11-28T09:24:34Z</time>
      </trkpt>
      <trkpt lat="45.92463" lon="4.73651">
        <ele>174</ele>
        <time>2016-11-28T09:24:36Z</time>
      </trkpt>
      <trkpt lat="45.92465" lon="4.73647">
        <ele>174</ele>
        <time>2016-11-28T09:24:37Z</time>
      </trkpt>
      <trkpt lat="45.92467" lon="4.73638">
        <ele>174</ele>
        <time>2016-11-28T09:24:39Z</time>
      </trkpt>
      <trkpt lat="45.92468" lon="4.73634">
        <ele>174</ele>
        <time>2016-11-28T09:24:40Z</time>
      </trkpt>
      <trkpt lat="45.9247" lon="4.73625">
        <ele>174</ele>
        <time>2016-11-28T09:24:42Z</time>
      </trkpt>
      <trkpt lat="45.92472" lon="4.73621">
        <ele>174</ele>
        <time>2016-11-28T09:24:43Z</time>
      </trkpt>
      <trkpt lat="45.9248" lon="4.73616">
        <ele>174</ele>
        <time>2016-11-28T09:24:46Z</time>
      </trkpt>
      <trkpt lat="45.92481" lon="4.73613">
        <ele>174</ele>
        <time>2016-11-28T09:24:47Z</time>
      </trkpt>
      <trkpt lat="45.92488" lon="4.73615">
        <ele>174</ele>
        <time>2016-11-28T09:24:49Z</time>
      </trkpt>
      <trkpt lat="45.92492" lon="4.73615">
        <ele>174</ele>
        <time>2016-11-28T09:24:50Z</time>
      </trkpt>
      <trkpt lat="45.925" lon="4.73616">
        <ele>173</ele>
        <time>2016-11-28T09:24:52Z</time>
      </trkpt>
      <trkpt lat="45.92505" lon="4.73617">
        <ele>173</ele>
        <time>2016-11-28T09:24:53Z</time>
      </trkpt>
      <trkpt lat="45.9251" lon="4.73617">
        <ele>173</ele>
        <time>2016-11-28T09:24:54Z</time>
      </trkpt>
      <trkpt lat="45.92514" lon="4.73617">
        <ele>173</ele>
        <time>2016-11-28T09:24:55Z</time>
      </trkpt>
      <trkpt lat="45.92522" lon="4.73622">
        <ele>173</ele>
        <time>2016-11-28T09:24:56Z</time>
      </trkpt>
      <trkpt lat="45.92529" lon="4.7362">
        <ele>173</ele>
        <time>2016-11-28T09:24:57Z</time>
      </trkpt>
      <trkpt lat="45.92537" lon="4.73617">
        <ele>173</ele>
        <time>2016-11-28T09:24:58Z</time>
      </trkpt>
      <trkpt lat="45.92545" lon="4.73615">
        <ele>173</ele>
        <time>2016-11-28T09:24:59Z</time>
      </trkpt>
      <trkpt lat="45.9255" lon="4.73613">
        <ele>173</ele>
        <time>2016-11-28T09:25:00Z</time>
      </trkpt>
      <trkpt lat="45.92555" lon="4.73611">
        <ele>173</ele>
        <time>2016-11-28T09:25:01Z</time>
      </trkpt>
      <trkpt lat="45.92559" lon="4.73611">
        <ele>173</ele>
        <time>2016-11-28T09:25:02Z</time>
      </trkpt>
      <trkpt lat="45.92564" lon="4.7361">
        <ele>173</ele>
        <time>2016-11-28T09:25:03Z</time>
      </trkpt>
      <trkpt lat="45.92569" lon="4.73609">
        <ele>173</ele>
        <time>2016-11-28T09:25:04Z</time>
      </trkpt>
      <trkpt lat="45.92574" lon="4.73609">
        <ele>173</ele>
        <time>2016-11-28T09:25:05Z</time>
      </trkpt>
      <trkpt lat="45.9258" lon="4.73606">
        <ele>173</ele>
        <time>2016-11-28T09:25:06Z</time>
      </trkpt>
      <trkpt lat="45.92585" lon="4.73603">
        <ele>173</ele>
        <time>2016-11-28T09:25:07Z</time>
      </trkpt>
      <trkpt lat="45.9259" lon="4.73602">
        <ele>173</ele>
        <time>2016-11-28T09:25:08Z</time>
      </trkpt>
      <trkpt lat="45.92595" lon="4.73602">
        <ele>173</ele>
        <time>2016-11-28T09:25:09Z</time>
      </trkpt>
      <trkpt lat="45.926" lon="4.73602">
        <ele>173</ele>
        <time>2016-11-28T09:25:10Z</time>
      </trkpt>
      <trkpt lat="45.92605" lon="4.73602">
        <ele>173</ele>
        <time>2016-11-28T09:25:11Z</time>
      </trkpt>
      <trkpt lat="45.9261" lon="4.73602">
        <ele>173</ele>
        <time>2016-11-28T09:25:12Z</time>
      </trkpt>
      <trkpt lat="45.92614" lon="4.73603">
        <ele>173</ele>
        <time>2016-11-28T09:25:13Z</time>
      </trkpt>
      <trkpt lat="45.92618" lon="4.73608">
        <ele>173</ele>
        <time>2016-11-28T09:25:14Z</time>
      </trkpt>
      <trkpt lat="45.92622" lon="4.73613">
        <ele>173</ele>
        <time>2016-11-28T09:25:15Z</time>
      </trkpt>
      <trkpt lat="45.92625" lon="4.7362">
        <ele>173</ele>
        <time>2016-11-28T09:25:16Z</time>
      </trkpt>
      <trkpt lat="45.92628" lon="4.73627">
        <ele>173</ele>
        <time>2016-11-28T09:25:17Z</time>
      </trkpt>
      <trkpt lat="45.92631" lon="4.73633">
        <ele>173</ele>
        <time>2016-11-28T09:25:18Z</time>
      </trkpt>
      <trkpt lat="45.92633" lon="4.7364">
        <ele>173</ele>
        <time>2016-11-28T09:25:19Z</time>
      </trkpt>
      <trkpt lat="45.92636" lon="4.73646">
        <ele>173</ele>
        <time>2016-11-28T09:25:20Z</time>
      </trkpt>
      <trkpt lat="45.92639" lon="4.73652">
        <ele>173</ele>
        <time>2016-11-28T09:25:21Z</time>
      </trkpt>
      <trkpt lat="45.92643" lon="4.73658">
        <ele>173</ele>
        <time>2016-11-28T09:25:22Z</time>
      </trkpt>
      <trkpt lat="45.92647" lon="4.73663">
        <ele>173</ele>
        <time>2016-11-28T09:25:23Z</time>
      </trkpt>
      <trkpt lat="45.92651" lon="4.73668">
        <ele>173</ele>
        <time>2016-11-28T09:25:24Z</time>
      </trkpt>
      <trkpt lat="45.92656" lon="4.73672">
        <ele>173</ele>
        <time>2016-11-28T09:25:25Z</time>
      </trkpt>
      <trkpt lat="45.92661" lon="4.73676">
        <ele>173</ele>
        <time>2016-11-28T09:25:26Z</time>
      </trkpt>
      <trkpt lat="45.92666" lon="4.73679">
        <ele>173</ele>
        <time>2016-11-28T09:25:27Z</time>
      </trkpt>
      <trkpt lat="45.9267" lon="4.73682">
        <ele>174</ele>
        <time>2016-11-28T09:25:28Z</time>
      </trkpt>
      <trkpt lat="45.92675" lon="4.73684">
        <ele>174</ele>
        <time>2016-11-28T09:25:29Z</time>
      </trkpt>
      <trkpt lat="45.92678" lon="4.73687">
        <ele>174</ele>
        <time>2016-11-28T09:25:30Z</time>
      </trkpt>
      <trkpt lat="45.92683" lon="4.73689">
        <ele>173</ele>
        <time>2016-11-28T09:25:31Z</time>
      </trkpt>
      <trkpt lat="45.9269" lon="4.73692">
        <ele>173</ele>
        <time>2016-11-28T09:25:32Z</time>
      </trkpt>
      <trkpt lat="45.92696" lon="4.73695">
        <ele>173</ele>
        <time>2016-11-28T09:25:33Z</time>
      </trkpt>
      <trkpt lat="45.92702" lon="4.73697">
        <ele>173</ele>
        <time>2016-11-28T09:25:34Z</time>
      </trkpt>
      <trkpt lat="45.92707" lon="4.73699">
        <ele>173</ele>
        <time>2016-11-28T09:25:35Z</time>
      </trkpt>
      <trkpt lat="45.92713" lon="4.73702">
        <ele>173</ele>
        <time>2016-11-28T09:25:36Z</time>
      </trkpt>
      <trkpt lat="45.92718" lon="4.73704">
        <ele>173</ele>
        <time>2016-11-28T09:25:37Z</time>
      </trkpt>
      <trkpt lat="45.92723" lon="4.73705">
        <ele>173</ele>
        <time>2016-11-28T09:25:38Z</time>
      </trkpt>
      <trkpt lat="45.92728" lon="4.73706">
        <ele>173</ele>
        <time>2016-11-28T09:25:39Z</time>
      </trkpt>
      <trkpt lat="45.92733" lon="4.73708">
        <ele>173</ele>
        <time>2016-11-28T09:25:40Z</time>
      </trkpt>
      <trkpt lat="45.92739" lon="4.73709">
        <ele>173</ele>
        <time>2016-11-28T09:25:41Z</time>
      </trkpt>
      <trkpt lat="45.92744" lon="4.73711">
        <ele>173</ele>
        <time>2016-11-28T09:25:42Z</time>
      </trkpt>
      <trkpt lat="45.92749" lon="4.73712">
        <ele>173</ele>
        <time>2016-11-28T09:25:43Z</time>
      </trkpt>
      <trkpt lat="45.92754" lon="4.73714">
        <ele>172</ele>
        <time>2016-11-28T09:25:44Z</time>
      </trkpt>
      <trkpt lat="45.92759" lon="4.73716">
        <ele>172</ele>
        <time>2016-11-28T09:25:45Z</time>
      </trkpt>
      <trkpt lat="45.92763" lon="4.73718">
        <ele>172</ele>
        <time>2016-11-28T09:25:46Z</time>
      </trkpt>
      <trkpt lat="45.92768" lon="4.7372">
        <ele>172</ele>
        <time>2016-11-28T09:25:47Z</time>
      </trkpt>
      <trkpt lat="45.92776" lon="4.73723">
        <ele>172</ele>
        <time>2016-11-28T09:25:49Z</time>
      </trkpt>
      <trkpt lat="45.9278" lon="4.73725">
        <ele>172</ele>
        <time>2016-11-28T09:25:50Z</time>
      </trkpt>
      <trkpt lat="45.92785" lon="4.73733">
        <ele>172</ele>
        <time>2016-11-28T09:25:52Z</time>
      </trkpt>
      <trkpt lat="45.92786" lon="4.73738">
        <ele>172</ele>
        <time>2016-11-28T09:25:53Z</time>
      </trkpt>
      <trkpt lat="45.92791" lon="4.73749">
        <ele>172</ele>
        <time>2016-11-28T09:25:55Z</time>
      </trkpt>
      <trkpt lat="45.92795" lon="4.73753">
        <ele>173</ele>
        <time>2016-11-28T09:25:56Z</time>
      </trkpt>
      <trkpt lat="45.92799" lon="4.73756">
        <ele>173</ele>
        <time>2016-11-28T09:25:57Z</time>
      </trkpt>
      <trkpt lat="45.92803" lon="4.73759">
        <ele>173</ele>
        <time>2016-11-28T09:25:58Z</time>
      </trkpt>
      <trkpt lat="45.92808" lon="4.73762">
        <ele>173</ele>
        <time>2016-11-28T09:25:59Z</time>
      </trkpt>
      <trkpt lat="45.92812" lon="4.73765">
        <ele>173</ele>
        <time>2016-11-28T09:26:00Z</time>
      </trkpt>
      <trkpt lat="45.92816" lon="4.73769">
        <ele>173</ele>
        <time>2016-11-28T09:26:01Z</time>
      </trkpt>
      <trkpt lat="45.92821" lon="4.73773">
        <ele>173</ele>
        <time>2016-11-28T09:26:02Z</time>
      </trkpt>
      <trkpt lat="45.92826" lon="4.73777">
        <ele>173</ele>
        <time>2016-11-28T09:26:03Z</time>
      </trkpt>
      <trkpt lat="45.92831" lon="4.73782">
        <ele>173</ele>
        <time>2016-11-28T09:26:04Z</time>
      </trkpt>
      <trkpt lat="45.92836" lon="4.73786">
        <ele>173</ele>
        <time>2016-11-28T09:26:05Z</time>
      </trkpt>
      <trkpt lat="45.92841" lon="4.73789">
        <ele>173</ele>
        <time>2016-11-28T09:26:06Z</time>
      </trkpt>
      <trkpt lat="45.92846" lon="4.73793">
        <ele>173</ele>
        <time>2016-11-28T09:26:07Z</time>
      </trkpt>
      <trkpt lat="45.92851" lon="4.73798">
        <ele>173</ele>
        <time>2016-11-28T09:26:08Z</time>
      </trkpt>
      <trkpt lat="45.92855" lon="4.73803">
        <ele>173</ele>
        <time>2016-11-28T09:26:09Z</time>
      </trkpt>
      <trkpt lat="45.92858" lon="4.7381">
        <ele>173</ele>
        <time>2016-11-28T09:26:10Z</time>
      </trkpt>
      <trkpt lat="45.92861" lon="4.73818">
        <ele>173</ele>
        <time>2016-11-28T09:26:11Z</time>
      </trkpt>
      <trkpt lat="45.92863" lon="4.73825">
        <ele>173</ele>
        <time>2016-11-28T09:26:12Z</time>
      </trkpt>
      <trkpt lat="45.92865" lon="4.73832">
        <ele>173</ele>
        <time>2016-11-28T09:26:13Z</time>
      </trkpt>
      <trkpt lat="45.92866" lon="4.73839">
        <ele>173</ele>
        <time>2016-11-28T09:26:14Z</time>
      </trkpt>
      <trkpt lat="45.92868" lon="4.73846">
        <ele>173</ele>
        <time>2016-11-28T09:26:15Z</time>
      </trkpt>
      <trkpt lat="45.9287" lon="4.73853">
        <ele>173</ele>
        <time>2016-11-28T09:26:16Z</time>
      </trkpt>
      <trkpt lat="45.92872" lon="4.7386">
        <ele>173</ele>
        <time>2016-11-28T09:26:17Z</time>
      </trkpt>
      <trkpt lat="45.92873" lon="4.73867">
        <ele>173</ele>
        <time>2016-11-28T09:26:18Z</time>
      </trkpt>
      <trkpt lat="45.92875" lon="4.73874">
        <ele>173</ele>
        <time>2016-11-28T09:26:19Z</time>
      </trkpt>
      <trkpt lat="45.92878" lon="4.73881">
        <ele>173</ele>
        <time>2016-11-28T09:26:20Z</time>
      </trkpt>
      <trkpt lat="45.92879" lon="4.73889">
        <ele>173</ele>
        <time>2016-11-28T09:26:21Z</time>
      </trkpt>
      <trkpt lat="45.92881" lon="4.73897">
        <ele>173</ele>
        <time>2016-11-28T09:26:22Z</time>
      </trkpt>
      <trkpt lat="45.92882" lon="4.73904">
        <ele>173</ele>
        <time>2016-11-28T09:26:23Z</time>
      </trkpt>
      <trkpt lat="45.92884" lon="4.73912">
        <ele>173</ele>
        <time>2016-11-28T09:26:24Z</time>
      </trkpt>
      <trkpt lat="45.92885" lon="4.73921">
        <ele>172</ele>
        <time>2016-11-28T09:26:25Z</time>
      </trkpt>
      <trkpt lat="45.92885" lon="4.73929">
        <ele>172</ele>
        <time>2016-11-28T09:26:26Z</time>
      </trkpt>
      <trkpt lat="45.92886" lon="4.73938">
        <ele>172</ele>
        <time>2016-11-28T09:26:27Z</time>
      </trkpt>
      <trkpt lat="45.92886" lon="4.73946">
        <ele>172</ele>
        <time>2016-11-28T09:26:28Z</time>
      </trkpt>
      <trkpt lat="45.92886" lon="4.73953">
        <ele>172</ele>
        <time>2016-11-28T09:26:29Z</time>
      </trkpt>
      <trkpt lat="45.92886" lon="4.73961">
        <ele>172</ele>
        <time>2016-11-28T09:26:30Z</time>
      </trkpt>
      <trkpt lat="45.92886" lon="4.73968">
        <ele>172</ele>
        <time>2016-11-28T09:26:31Z</time>
      </trkpt>
      <trkpt lat="45.92886" lon="4.73975">
        <ele>172</ele>
        <time>2016-11-28T09:26:32Z</time>
      </trkpt>
      <trkpt lat="45.92885" lon="4.73982">
        <ele>172</ele>
        <time>2016-11-28T09:26:33Z</time>
      </trkpt>
      <trkpt lat="45.92883" lon="4.73989">
        <ele>172</ele>
        <time>2016-11-28T09:26:34Z</time>
      </trkpt>
      <trkpt lat="45.92881" lon="4.73996">
        <ele>172</ele>
        <time>2016-11-28T09:26:35Z</time>
      </trkpt>
      <trkpt lat="45.92879" lon="4.74002">
        <ele>172</ele>
        <time>2016-11-28T09:26:36Z</time>
      </trkpt>
      <trkpt lat="45.92878" lon="4.74009">
        <ele>172</ele>
        <time>2016-11-28T09:26:37Z</time>
      </trkpt>
      <trkpt lat="45.92876" lon="4.74016">
        <ele>172</ele>
        <time>2016-11-28T09:26:38Z</time>
      </trkpt>
      <trkpt lat="45.92876" lon="4.74024">
        <ele>172</ele>
        <time>2016-11-28T09:26:39Z</time>
      </trkpt>
      <trkpt lat="45.92874" lon="4.74031">
        <ele>172</ele>
        <time>2016-11-28T09:26:40Z</time>
      </trkpt>
      <trkpt lat="45.92872" lon="4.74038">
        <ele>172</ele>
        <time>2016-11-28T09:26:41Z</time>
      </trkpt>
      <trkpt lat="45.92869" lon="4.74044">
        <ele>172</ele>
        <time>2016-11-28T09:26:42Z</time>
      </trkpt>
      <trkpt lat="45.92865" lon="4.74049">
        <ele>172</ele>
        <time>2016-11-28T09:26:43Z</time>
      </trkpt>
      <trkpt lat="45.9286" lon="4.74055">
        <ele>172</ele>
        <time>2016-11-28T09:26:44Z</time>
      </trkpt>
      <trkpt lat="45.92856" lon="4.74061">
        <ele>172</ele>
        <time>2016-11-28T09:26:45Z</time>
      </trkpt>
      <trkpt lat="45.92852" lon="4.74067">
        <ele>172</ele>
        <time>2016-11-28T09:26:46Z</time>
      </trkpt>
      <trkpt lat="45.92847" lon="4.74073">
        <ele>172</ele>
        <time>2016-11-28T09:26:47Z</time>
      </trkpt>
      <trkpt lat="45.92842" lon="4.74079">
        <ele>171</ele>
        <time>2016-11-28T09:26:48Z</time>
      </trkpt>
      <trkpt lat="45.92837" lon="4.74084">
        <ele>171</ele>
        <time>2016-11-28T09:26:49Z</time>
      </trkpt>
      <trkpt lat="45.92832" lon="4.7409">
        <ele>171</ele>
        <time>2016-11-28T09:26:50Z</time>
      </trkpt>
      <trkpt lat="45.92827" lon="4.74095">
        <ele>171</ele>
        <time>2016-11-28T09:26:51Z</time>
      </trkpt>
      <trkpt lat="45.92822" lon="4.741">
        <ele>171</ele>
        <time>2016-11-28T09:26:52Z</time>
      </trkpt>
      <trkpt lat="45.92817" lon="4.74105">
        <ele>172</ele>
        <time>2016-11-28T09:26:53Z</time>
      </trkpt>
      <trkpt lat="45.92812" lon="4.74111">
        <ele>172</ele>
        <time>2016-11-28T09:26:54Z</time>
      </trkpt>
      <trkpt lat="45.92807" lon="4.74116">
        <ele>172</ele>
        <time>2016-11-28T09:26:55Z</time>
      </trkpt>
      <trkpt lat="45.92802" lon="4.74122">
        <ele>172</ele>
        <time>2016-11-28T09:26:56Z</time>
      </trkpt>
      <trkpt lat="45.92797" lon="4.74127">
        <ele>172</ele>
        <time>2016-11-28T09:26:57Z</time>
      </trkpt>
      <trkpt lat="45.92792" lon="4.74132">
        <ele>172</ele>
        <time>2016-11-28T09:26:58Z</time>
      </trkpt>
      <trkpt lat="45.92787" lon="4.74137">
        <ele>172</ele>
        <time>2016-11-28T09:26:59Z</time>
      </trkpt>
      <trkpt lat="45.92782" lon="4.74142">
        <ele>172</ele>
        <time>2016-11-28T09:27:00Z</time>
      </trkpt>
      <trkpt lat="45.92777" lon="4.74147">
        <ele>172</ele>
        <time>2016-11-28T09:27:01Z</time>
      </trkpt>
      <trkpt lat="45.92773" lon="4.74151">
        <ele>172</ele>
        <time>2016-11-28T09:27:02Z</time>
      </trkpt>
      <trkpt lat="45.92769" lon="4.74155">
        <ele>172</ele>
        <time>2016-11-28T09:27:03Z</time>
      </trkpt>
      <trkpt lat="45.92765" lon="4.74159">
        <ele>172</ele>
        <time>2016-11-28T09:27:04Z</time>
      </trkpt>
      <trkpt lat="45.92761" lon="4.74165">
        <ele>172</ele>
        <time>2016-11-28T09:27:05Z</time>
      </trkpt>
      <trkpt lat="45.92756" lon="4.7417">
        <ele>172</ele>
        <time>2016-11-28T09:27:06Z</time>
      </trkpt>
      <trkpt lat="45.92752" lon="4.74176">
        <ele>172</ele>
        <time>2016-11-28T09:27:07Z</time>
      </trkpt>
      <trkpt lat="45.92747" lon="4.74181">
        <ele>172</ele>
        <time>2016-11-28T09:27:08Z</time>
      </trkpt>
      <trkpt lat="45.92743" lon="4.74186">
        <ele>172</ele>
        <time>2016-11-28T09:27:09Z</time>
      </trkpt>
      <trkpt lat="45.92738" lon="4.74192">
        <ele>171</ele>
        <time>2016-11-28T09:27:10Z</time>
      </trkpt>
      <trkpt lat="45.92734" lon="4.74198">
        <ele>171</ele>
        <time>2016-11-28T09:27:11Z</time>
      </trkpt>
      <trkpt lat="45.9273" lon="4.74204">
        <ele>171</ele>
        <time>2016-11-28T09:27:12Z</time>
      </trkpt>
      <trkpt lat="45.92726" lon="4.7421">
        <ele>171</ele>
        <time>2016-11-28T09:27:13Z</time>
      </trkpt>
      <trkpt lat="45.92722" lon="4.74216">
        <ele>171</ele>
        <time>2016-11-28T09:27:14Z</time>
      </trkpt>
      <trkpt lat="45.92718" lon="4.74222">
        <ele>171</ele>
        <time>2016-11-28T09:27:15Z</time>
      </trkpt>
      <trkpt lat="45.92714" lon="4.74228">
        <ele>171</ele>
        <time>2016-11-28T09:27:16Z</time>
      </trkpt>
      <trkpt lat="45.9271" lon="4.74234">
        <ele>171</ele>
        <time>2016-11-28T09:27:17Z</time>
      </trkpt>
      <trkpt lat="45.92706" lon="4.7424">
        <ele>171</ele>
        <time>2016-11-28T09:27:18Z</time>
      </trkpt>
      <trkpt lat="45.92702" lon="4.74247">
        <ele>171</ele>
        <time>2016-11-28T09:27:19Z</time>
      </trkpt>
      <trkpt lat="45.92698" lon="4.74254">
        <ele>171</ele>
        <time>2016-11-28T09:27:20Z</time>
      </trkpt>
      <trkpt lat="45.92694" lon="4.7426">
        <ele>171</ele>
        <time>2016-11-28T09:27:21Z</time>
      </trkpt>
      <trkpt lat="45.9269" lon="4.74267">
        <ele>171</ele>
        <time>2016-11-28T09:27:22Z</time>
      </trkpt>
      <trkpt lat="45.92686" lon="4.74275">
        <ele>171</ele>
        <time>2016-11-28T09:27:23Z</time>
      </trkpt>
      <trkpt lat="45.92682" lon="4.74282">
        <ele>171</ele>
        <time>2016-11-28T09:27:24Z</time>
      </trkpt>
      <trkpt lat="45.92678" lon="4.74289">
        <ele>171</ele>
        <time>2016-11-28T09:27:25Z</time>
      </trkpt>
      <trkpt lat="45.92674" lon="4.74296">
        <ele>171</ele>
        <time>2016-11-28T09:27:26Z</time>
      </trkpt>
      <trkpt lat="45.9267" lon="4.74304">
        <ele>171</ele>
        <time>2016-11-28T09:27:27Z</time>
      </trkpt>
      <trkpt lat="45.92666" lon="4.74311">
        <ele>171</ele>
        <time>2016-11-28T09:27:28Z</time>
      </trkpt>
      <trkpt lat="45.92662" lon="4.74319">
        <ele>171</ele>
        <time>2016-11-28T09:27:29Z</time>
      </trkpt>
      <trkpt lat="45.92658" lon="4.74326">
        <ele>171</ele>
        <time>2016-11-28T09:27:30Z</time>
      </trkpt>
      <trkpt lat="45.92654" lon="4.74334">
        <ele>171</ele>
        <time>2016-11-28T09:27:31Z</time>
      </trkpt>
      <trkpt lat="45.9265" lon="4.74341">
        <ele>171</ele>
        <time>2016-11-28T09:27:32Z</time>
      </trkpt>
      <trkpt lat="45.92646" lon="4.74349">
        <ele>171</ele>
        <time>2016-11-28T09:27:33Z</time>
      </trkpt>
      <trkpt lat="45.92641" lon="4.74356">
        <ele>171</ele>
        <time>2016-11-28T09:27:34Z</time>
      </trkpt>
      <trkpt lat="45.92637" lon="4.74364">
        <ele>171</ele>
        <time>2016-11-28T09:27:35Z</time>
      </trkpt>
      <trkpt lat="45.92633" lon="4.74372">
        <ele>171</ele>
        <time>2016-11-28T09:27:36Z</time>
      </trkpt>
      <trkpt lat="45.92629" lon="4.74379">
        <ele>170</ele>
        <time>2016-11-28T09:27:37Z</time>
      </trkpt>
      <trkpt lat="45.92625" lon="4.74387">
        <ele>170</ele>
        <time>2016-11-28T09:27:38Z</time>
      </trkpt>
      <trkpt lat="45.92621" lon="4.74395">
        <ele>170</ele>
        <time>2016-11-28T09:27:39Z</time>
      </trkpt>
      <trkpt lat="45.92616" lon="4.74402">
        <ele>170</ele>
        <time>2016-11-28T09:27:40Z</time>
      </trkpt>
      <trkpt lat="45.92612" lon="4.7441">
        <ele>170</ele>
        <time>2016-11-28T09:27:41Z</time>
      </trkpt>
      <trkpt lat="45.92608" lon="4.74418">
        <ele>170</ele>
        <time>2016-11-28T09:27:42Z</time>
      </trkpt>
      <trkpt lat="45.92604" lon="4.74426">
        <ele>170</ele>
        <time>2016-11-28T09:27:43Z</time>
      </trkpt>
      <trkpt lat="45.92599" lon="4.74434">
        <ele>170</ele>
        <time>2016-11-28T09:27:44Z</time>
      </trkpt>
      <trkpt lat="45.92595" lon="4.74442">
        <ele>170</ele>
        <time>2016-11-28T09:27:45Z</time>
      </trkpt>
      <trkpt lat="45.92591" lon="4.7445">
        <ele>170</ele>
        <time>2016-11-28T09:27:46Z</time>
      </trkpt>
      <trkpt lat="45.92586" lon="4.74458">
        <ele>170</ele>
        <time>2016-11-28T09:27:47Z</time>
      </trkpt>
      <trkpt lat="45.92582" lon="4.74466">
        <ele>170</ele>
        <time>2016-11-28T09:27:48Z</time>
      </trkpt>
      <trkpt lat="45.92578" lon="4.74473">
        <ele>170</ele>
        <time>2016-11-28T09:27:49Z</time>
      </trkpt>
      <trkpt lat="45.92574" lon="4.74481">
        <ele>170</ele>
        <time>2016-11-28T09:27:50Z</time>
      </trkpt>
      <trkpt lat="45.9257" lon="4.74488">
        <ele>170</ele>
        <time>2016-11-28T09:27:51Z</time>
      </trkpt>
      <trkpt lat="45.92566" lon="4.74496">
        <ele>170</ele>
        <time>2016-11-28T09:27:52Z</time>
      </trkpt>
      <trkpt lat="45.92562" lon="4.74503">
        <ele>170</ele>
        <time>2016-11-28T09:27:53Z</time>
      </trkpt>
      <trkpt lat="45.92558" lon="4.7451">
        <ele>170</ele>
        <time>2016-11-28T09:27:54Z</time>
      </trkpt>
      <trkpt lat="45.92554" lon="4.74518">
        <ele>170</ele>
        <time>2016-11-28T09:27:55Z</time>
      </trkpt>
      <trkpt lat="45.9255" lon="4.74525">
        <ele>170</ele>
        <time>2016-11-28T09:27:56Z</time>
      </trkpt>
      <trkpt lat="45.92546" lon="4.74532">
        <ele>170</ele>
        <time>2016-11-28T09:27:57Z</time>
      </trkpt>
      <trkpt lat="45.92541" lon="4.74539">
        <ele>171</ele>
        <time>2016-11-28T09:27:58Z</time>
      </trkpt>
      <trkpt lat="45.92537" lon="4.74546">
        <ele>171</ele>
        <time>2016-11-28T09:27:59Z</time>
      </trkpt>
      <trkpt lat="45.92533" lon="4.74552">
        <ele>171</ele>
        <time>2016-11-28T09:28:00Z</time>
      </trkpt>
      <trkpt lat="45.92529" lon="4.74558">
        <ele>171</ele>
        <time>2016-11-28T09:28:01Z</time>
      </trkpt>
      <trkpt lat="45.92524" lon="4.74564">
        <ele>171</ele>
        <time>2016-11-28T09:28:02Z</time>
      </trkpt>
      <trkpt lat="45.92519" lon="4.7457">
        <ele>171</ele>
        <time>2016-11-28T09:28:03Z</time>
      </trkpt>
      <trkpt lat="45.92514" lon="4.74575">
        <ele>171</ele>
        <time>2016-11-28T09:28:04Z</time>
      </trkpt>
      <trkpt lat="45.9251" lon="4.74581">
        <ele>171</ele>
        <time>2016-11-28T09:28:05Z</time>
      </trkpt>
      <trkpt lat="45.92505" lon="4.74586">
        <ele>171</ele>
        <time>2016-11-28T09:28:06Z</time>
      </trkpt>
      <trkpt lat="45.925" lon="4.74592">
        <ele>171</ele>
        <time>2016-11-28T09:28:07Z</time>
      </trkpt>
      <trkpt lat="45.92496" lon="4.74597">
        <ele>171</ele>
        <time>2016-11-28T09:28:08Z</time>
      </trkpt>
      <trkpt lat="45.92491" lon="4.74603">
        <ele>171</ele>
        <time>2016-11-28T09:28:09Z</time>
      </trkpt>
      <trkpt lat="45.92487" lon="4.74608">
        <ele>171</ele>
        <time>2016-11-28T09:28:10Z</time>
      </trkpt>
      <trkpt lat="45.92483" lon="4.74614">
        <ele>171</ele>
        <time>2016-11-28T09:28:11Z</time>
      </trkpt>
      <trkpt lat="45.92478" lon="4.74619">
        <ele>171</ele>
        <time>2016-11-28T09:28:12Z</time>
      </trkpt>
      <trkpt lat="45.92474" lon="4.74625">
        <ele>171</ele>
        <time>2016-11-28T09:28:13Z</time>
      </trkpt>
      <trkpt lat="45.9247" lon="4.74632">
        <ele>171</ele>
        <time>2016-11-28T09:28:14Z</time>
      </trkpt>
      <trkpt lat="45.92466" lon="4.74638">
        <ele>171</ele>
        <time>2016-11-28T09:28:15Z</time>
      </trkpt>
      <trkpt lat="45.92462" lon="4.74644">
        <ele>171</ele>
        <time>2016-11-28T09:28:16Z</time>
      </trkpt>
      <trkpt lat="45.92459" lon="4.74651">
        <ele>171</ele>
        <time>2016-11-28T09:28:17Z</time>
      </trkpt>
      <trkpt lat="45.92455" lon="4.74657">
        <ele>171</ele>
        <time>2016-11-28T09:28:18Z</time>
      </trkpt>
      <trkpt lat="45.92452" lon="4.74663">
        <ele>171</ele>
        <time>2016-11-28T09:28:19Z</time>
      </trkpt>
      <trkpt lat="45.92449" lon="4.7467">
        <ele>171</ele>
        <time>2016-11-28T09:28:20Z</time>
      </trkpt>
      <trkpt lat="45.92445" lon="4.74678">
        <ele>171</ele>
        <time>2016-11-28T09:28:21Z</time>
      </trkpt>
      <trkpt lat="45.92442" lon="4.74685">
        <ele>171</ele>
        <time>2016-11-28T09:28:22Z</time>
      </trkpt>
      <trkpt lat="45.92439" lon="4.74692">
        <ele>171</ele>
        <time>2016-11-28T09:28:23Z</time>
      </trkpt>
      <trkpt lat="45.92435" lon="4.74699">
        <ele>171</ele>
        <time>2016-11-28T09:28:24Z</time>
      </trkpt>
      <trkpt lat="45.92432" lon="4.74707">
        <ele>171</ele>
        <time>2016-11-28T09:28:25Z</time>
      </trkpt>
      <trkpt lat="45.92429" lon="4.74715">
        <ele>171</ele>
        <time>2016-11-28T09:28:26Z</time>
      </trkpt>
      <trkpt lat="45.92427" lon="4.74724">
        <ele>171</ele>
        <time>2016-11-28T09:28:27Z</time>
      </trkpt>
      <trkpt lat="45.92424" lon="4.74732">
        <ele>171</ele>
        <time>2016-11-28T09:28:28Z</time>
      </trkpt>
      <trkpt lat="45.92421" lon="4.74741">
        <ele>172</ele>
        <time>2016-11-28T09:28:29Z</time>
      </trkpt>
      <trkpt lat="45.92419" lon="4.74749">
        <ele>172</ele>
        <time>2016-11-28T09:28:30Z</time>
      </trkpt>
      <trkpt lat="45.92417" lon="4.74757">
        <ele>172</ele>
        <time>2016-11-28T09:28:31Z</time>
      </trkpt>
      <trkpt lat="45.92415" lon="4.74765">
        <ele>172</ele>
        <time>2016-11-28T09:28:32Z</time>
      </trkpt>
      <trkpt lat="45.92413" lon="4.74774">
        <ele>171</ele>
        <time>2016-11-28T09:28:33Z</time>
      </trkpt>
      <trkpt lat="45.92411" lon="4.74784">
        <ele>171</ele>
        <time>2016-11-28T09:28:34Z</time>
      </trkpt>
      <trkpt lat="45.9241" lon="4.74793">
        <ele>171</ele>
        <time>2016-11-28T09:28:35Z</time>
      </trkpt>
      <trkpt lat="45.92408" lon="4.74801">
        <ele>171</ele>
        <time>2016-11-28T09:28:36Z</time>
      </trkpt>
      <trkpt lat="45.92406" lon="4.7481">
        <ele>171</ele>
        <time>2016-11-28T09:28:37Z</time>
      </trkpt>
      <trkpt lat="45.92404" lon="4.74818">
        <ele>171</ele>
        <time>2016-11-28T09:28:38Z</time>
      </trkpt>
      <trkpt lat="45.92402" lon="4.74827">
        <ele>171</ele>
        <time>2016-11-28T09:28:39Z</time>
      </trkpt>
      <trkpt lat="45.924" lon="4.74836">
        <ele>171</ele>
        <time>2016-11-28T09:28:40Z</time>
      </trkpt>
      <trkpt lat="45.92398" lon="4.74844">
        <ele>171</ele>
        <time>2016-11-28T09:28:41Z</time>
      </trkpt>
      <trkpt lat="45.92395" lon="4.74853">
        <ele>171</ele>
        <time>2016-11-28T09:28:42Z</time>
      </trkpt>
      <trkpt lat="45.92392" lon="4.74861">
        <ele>171</ele>
        <time>2016-11-28T09:28:43Z</time>
      </trkpt>
      <trkpt lat="45.92389" lon="4.7487">
        <ele>171</ele>
        <time>2016-11-28T09:28:44Z</time>
      </trkpt>
      <trkpt lat="45.92386" lon="4.74878">
        <ele>171</ele>
        <time>2016-11-28T09:28:45Z</time>
      </trkpt>
      <trkpt lat="45.92383" lon="4.74886">
        <ele>171</ele>
        <time>2016-11-28T09:28:46Z</time>
      </trkpt>
      <trkpt lat="45.92379" lon="4.74895">
        <ele>171</ele>
        <time>2016-11-28T09:28:47Z</time>
      </trkpt>
      <trkpt lat="45.92376" lon="4.74903">
        <ele>171</ele>
        <time>2016-11-28T09:28:48Z</time>
      </trkpt>
      <trkpt lat="45.92372" lon="4.74911">
        <ele>171</ele>
        <time>2016-11-28T09:28:49Z</time>
      </trkpt>
      <trkpt lat="45.92369" lon="4.7492">
        <ele>170</ele>
        <time>2016-11-28T09:28:50Z</time>
      </trkpt>
      <trkpt lat="45.92366" lon="4.74928">
        <ele>170</ele>
        <time>2016-11-28T09:28:51Z</time>
      </trkpt>
      <trkpt lat="45.92363" lon="4.74936">
        <ele>170</ele>
        <time>2016-11-28T09:28:52Z</time>
      </trkpt>
      <trkpt lat="45.9236" lon="4.74944">
        <ele>170</ele>
        <time>2016-11-28T09:28:53Z</time>
      </trkpt>
      <trkpt lat="45.92356" lon="4.74952">
        <ele>170</ele>
        <time>2016-11-28T09:28:54Z</time>
      </trkpt>
      <trkpt lat="45.92353" lon="4.74959">
        <ele>170</ele>
        <time>2016-11-28T09:28:55Z</time>
      </trkpt>
      <trkpt lat="45.9235" lon="4.74967">
        <ele>170</ele>
        <time>2016-11-28T09:28:56Z</time>
      </trkpt>
      <trkpt lat="45.92347" lon="4.74974">
        <ele>170</ele>
        <time>2016-11-28T09:28:57Z</time>
      </trkpt>
      <trkpt lat="45.92344" lon="4.74982">
        <ele>170</ele>
        <time>2016-11-28T09:28:58Z</time>
      </trkpt>
      <trkpt lat="45.92341" lon="4.7499">
        <ele>170</ele>
        <time>2016-11-28T09:28:59Z</time>
      </trkpt>
      <trkpt lat="45.92338" lon="4.74998">
        <ele>170</ele>
        <time>2016-11-28T09:29:00Z</time>
      </trkpt>
      <trkpt lat="45.92335" lon="4.75006">
        <ele>170</ele>
        <time>2016-11-28T09:29:01Z</time>
      </trkpt>
      <trkpt lat="45.92331" lon="4.75014">
        <ele>171</ele>
        <time>2016-11-28T09:29:02Z</time>
      </trkpt>
      <trkpt lat="45.92328" lon="4.75021">
        <ele>171</ele>
        <time>2016-11-28T09:29:03Z</time>
      </trkpt>
      <trkpt lat="45.92324" lon="4.75028">
        <ele>171</ele>
        <time>2016-11-28T09:29:04Z</time>
      </trkpt>
      <trkpt lat="45.9232" lon="4.75034">
        <ele>171</ele>
        <time>2016-11-28T09:29:05Z</time>
      </trkpt>
      <trkpt lat="45.92317" lon="4.7504">
        <ele>172</ele>
        <time>2016-11-28T09:29:06Z</time>
      </trkpt>
      <trkpt lat="45.92313" lon="4.75046">
        <ele>172</ele>
        <time>2016-11-28T09:29:07Z</time>
      </trkpt>
      <trkpt lat="45.92309" lon="4.75052">
        <ele>172</ele>
        <time>2016-11-28T09:29:08Z</time>
      </trkpt>
      <trkpt lat="45.92304" lon="4.75058">
        <ele>172</ele>
        <time>2016-11-28T09:29:09Z</time>
      </trkpt>
      <trkpt lat="45.92299" lon="4.75064">
        <ele>172</ele>
        <time>2016-11-28T09:29:10Z</time>
      </trkpt>
      <trkpt lat="45.92295" lon="4.75068">
        <ele>172</ele>
        <time>2016-11-28T09:29:11Z</time>
      </trkpt>
      <trkpt lat="45.9229" lon="4.75073">
        <ele>172</ele>
        <time>2016-11-28T09:29:12Z</time>
      </trkpt>
      <trkpt lat="45.92286" lon="4.75078">
        <ele>172</ele>
        <time>2016-11-28T09:29:13Z</time>
      </trkpt>
      <trkpt lat="45.92281" lon="4.75083">
        <ele>172</ele>
        <time>2016-11-28T09:29:14Z</time>
      </trkpt>
      <trkpt lat="45.92277" lon="4.75088">
        <ele>173</ele>
        <time>2016-11-28T09:29:15Z</time>
      </trkpt>
      <trkpt lat="45.92272" lon="4.75094">
        <ele>173</ele>
        <time>2016-11-28T09:29:16Z</time>
      </trkpt>
      <trkpt lat="45.92267" lon="4.75099">
        <ele>173</ele>
        <time>2016-11-28T09:29:17Z</time>
      </trkpt>
      <trkpt lat="45.92262" lon="4.75104">
        <ele>173</ele>
        <time>2016-11-28T09:29:18Z</time>
      </trkpt>
      <trkpt lat="45.92257" lon="4.75109">
        <ele>174</ele>
        <time>2016-11-28T09:29:19Z</time>
      </trkpt>
      <trkpt lat="45.92253" lon="4.75115">
        <ele>174</ele>
        <time>2016-11-28T09:29:20Z</time>
      </trkpt>
      <trkpt lat="45.92248" lon="4.7512">
        <ele>174</ele>
        <time>2016-11-28T09:29:21Z</time>
      </trkpt>
      <trkpt lat="45.92244" lon="4.75127">
        <ele>174</ele>
        <time>2016-11-28T09:29:22Z</time>
      </trkpt>
      <trkpt lat="45.9224" lon="4.75133">
        <ele>174</ele>
        <time>2016-11-28T09:29:23Z</time>
      </trkpt>
      <trkpt lat="45.92236" lon="4.75139">
        <ele>174</ele>
        <time>2016-11-28T09:29:24Z</time>
      </trkpt>
      <trkpt lat="45.92232" lon="4.75146">
        <ele>174</ele>
        <time>2016-11-28T09:29:25Z</time>
      </trkpt>
      <trkpt lat="45.92229" lon="4.75153">
        <ele>174</ele>
        <time>2016-11-28T09:29:26Z</time>
      </trkpt>
      <trkpt lat="45.92226" lon="4.7516">
        <ele>174</ele>
        <time>2016-11-28T09:29:27Z</time>
      </trkpt>
      <trkpt lat="45.92223" lon="4.75167">
        <ele>175</ele>
        <time>2016-11-28T09:29:28Z</time>
      </trkpt>
      <trkpt lat="45.92221" lon="4.75175">
        <ele>175</ele>
        <time>2016-11-28T09:29:29Z</time>
      </trkpt>
      <trkpt lat="45.92219" lon="4.75182">
        <ele>175</ele>
        <time>2016-11-28T09:29:30Z</time>
      </trkpt>
      <trkpt lat="45.92216" lon="4.75189">
        <ele>175</ele>
        <time>2016-11-28T09:29:31Z</time>
      </trkpt>
      <trkpt lat="45.92215" lon="4.75196">
        <ele>175</ele>
        <time>2016-11-28T09:29:32Z</time>
      </trkpt>
      <trkpt lat="45.92214" lon="4.75204">
        <ele>175</ele>
        <time>2016-11-28T09:29:33Z</time>
      </trkpt>
      <trkpt lat="45.92213" lon="4.75211">
        <ele>175</ele>
        <time>2016-11-28T09:29:34Z</time>
      </trkpt>
      <trkpt lat="45.92212" lon="4.75219">
        <ele>175</ele>
        <time>2016-11-28T09:29:35Z</time>
      </trkpt>
      <trkpt lat="45.92211" lon="4.75227">
        <ele>175</ele>
        <time>2016-11-28T09:29:36Z</time>
      </trkpt>
      <trkpt lat="45.92211" lon="4.75234">
        <ele>175</ele>
        <time>2016-11-28T09:29:37Z</time>
      </trkpt>
      <trkpt lat="45.9221" lon="4.75242">
        <ele>175</ele>
        <time>2016-11-28T09:29:38Z</time>
      </trkpt>
      <trkpt lat="45.9221" lon="4.75249">
        <ele>175</ele>
        <time>2016-11-28T09:29:39Z</time>
      </trkpt>
      <trkpt lat="45.92209" lon="4.75257">
        <ele>175</ele>
        <time>2016-11-28T09:29:40Z</time>
      </trkpt>
      <trkpt lat="45.92209" lon="4.75264">
        <ele>176</ele>
        <time>2016-11-28T09:29:41Z</time>
      </trkpt>
      <trkpt lat="45.92209" lon="4.75272">
        <ele>176</ele>
        <time>2016-11-28T09:29:42Z</time>
      </trkpt>
      <trkpt lat="45.92209" lon="4.75281">
        <ele>176</ele>
        <time>2016-11-28T09:29:43Z</time>
      </trkpt>
      <trkpt lat="45.92208" lon="4.75289">
        <ele>176</ele>
        <time>2016-11-28T09:29:44Z</time>
      </trkpt>
      <trkpt lat="45.92208" lon="4.75298">
        <ele>176</ele>
        <time>2016-11-28T09:29:45Z</time>
      </trkpt>
      <trkpt lat="45.92208" lon="4.75306">
        <ele>176</ele>
        <time>2016-11-28T09:29:46Z</time>
      </trkpt>
      <trkpt lat="45.92207" lon="4.75314">
        <ele>176</ele>
        <time>2016-11-28T09:29:47Z</time>
      </trkpt>
      <trkpt lat="45.92207" lon="4.75322">
        <ele>176</ele>
        <time>2016-11-28T09:29:48Z</time>
      </trkpt>
      <trkpt lat="45.92205" lon="4.7533">
        <ele>176</ele>
        <time>2016-11-28T09:29:49Z</time>
      </trkpt>
      <trkpt lat="45.92204" lon="4.75337">
        <ele>177</ele>
        <time>2016-11-28T09:29:50Z</time>
      </trkpt>
      <trkpt lat="45.92202" lon="4.75345">
        <ele>177</ele>
        <time>2016-11-28T09:29:51Z</time>
      </trkpt>
      <trkpt lat="45.922" lon="4.75353">
        <ele>177</ele>
        <time>2016-11-28T09:29:52Z</time>
      </trkpt>
      <trkpt lat="45.92198" lon="4.7536">
        <ele>177</ele>
        <time>2016-11-28T09:29:53Z</time>
      </trkpt>
      <trkpt lat="45.92196" lon="4.75367">
        <ele>177</ele>
        <time>2016-11-28T09:29:54Z</time>
      </trkpt>
      <trkpt lat="45.92194" lon="4.75373">
        <ele>177</ele>
        <time>2016-11-28T09:29:55Z</time>
      </trkpt>
      <trkpt lat="45.92191" lon="4.7538">
        <ele>177</ele>
        <time>2016-11-28T09:29:56Z</time>
      </trkpt>
      <trkpt lat="45.92189" lon="4.75387">
        <ele>177</ele>
        <time>2016-11-28T09:29:57Z</time>
      </trkpt>
      <trkpt lat="45.92186" lon="4.75394">
        <ele>177</ele>
        <time>2016-11-28T09:29:58Z</time>
      </trkpt>
      <trkpt lat="45.92183" lon="4.754">
        <ele>177</ele>
        <time>2016-11-28T09:29:59Z</time>
      </trkpt>
      <trkpt lat="45.92181" lon="4.75408">
        <ele>177</ele>
        <time>2016-11-28T09:30:00Z</time>
      </trkpt>
      <trkpt lat="45.92178" lon="4.75415">
        <ele>178</ele>
        <time>2016-11-28T09:30:01Z</time>
      </trkpt>
      <trkpt lat="45.92175" lon="4.75422">
        <ele>177</ele>
        <time>2016-11-28T09:30:02Z</time>
      </trkpt>
      <trkpt lat="45.92171" lon="4.75429">
        <ele>177</ele>
        <time>2016-11-28T09:30:03Z</time>
      </trkpt>
      <trkpt lat="45.92168" lon="4.75436">
        <ele>177</ele>
        <time>2016-11-28T09:30:04Z</time>
      </trkpt>
      <trkpt lat="45.92165" lon="4.75444">
        <ele>177</ele>
        <time>2016-11-28T09:30:05Z</time>
      </trkpt>
      <trkpt lat="45.92162" lon="4.75451">
        <ele>176</ele>
        <time>2016-11-28T09:30:06Z</time>
      </trkpt>
      <trkpt lat="45.92159" lon="4.75459">
        <ele>176</ele>
        <time>2016-11-28T09:30:07Z</time>
      </trkpt>
      <trkpt lat="45.92156" lon="4.75468">
        <ele>176</ele>
        <time>2016-11-28T09:30:08Z</time>
      </trkpt>
      <trkpt lat="45.92152" lon="4.75476">
        <ele>176</ele>
        <time>2016-11-28T09:30:09Z</time>
      </trkpt>
      <trkpt lat="45.92149" lon="4.75484">
        <ele>176</ele>
        <time>2016-11-28T09:30:10Z</time>
      </trkpt>
      <trkpt lat="45.92145" lon="4.75492">
        <ele>176</ele>
        <time>2016-11-28T09:30:11Z</time>
      </trkpt>
      <trkpt lat="45.92141" lon="4.755">
        <ele>175</ele>
        <time>2016-11-28T09:30:12Z</time>
      </trkpt>
      <trkpt lat="45.92138" lon="4.75508">
        <ele>174</ele>
        <time>2016-11-28T09:30:13Z</time>
      </trkpt>
      <trkpt lat="45.92135" lon="4.75516">
        <ele>174</ele>
        <time>2016-11-28T09:30:14Z</time>
      </trkpt>
      <trkpt lat="45.92131" lon="4.75523">
        <ele>174</ele>
        <time>2016-11-28T09:30:15Z</time>
      </trkpt>
      <trkpt lat="45.92128" lon="4.7553">
        <ele>174</ele>
        <time>2016-11-28T09:30:16Z</time>
      </trkpt>
      <trkpt lat="45.92125" lon="4.75537">
        <ele>174</ele>
        <time>2016-11-28T09:30:17Z</time>
      </trkpt>
      <trkpt lat="45.92122" lon="4.75544">
        <ele>174</ele>
        <time>2016-11-28T09:30:18Z</time>
      </trkpt>
      <trkpt lat="45.92119" lon="4.75551">
        <ele>174</ele>
        <time>2016-11-28T09:30:19Z</time>
      </trkpt>
      <trkpt lat="45.92116" lon="4.75558">
        <ele>174</ele>
        <time>2016-11-28T09:30:20Z</time>
      </trkpt>
      <trkpt lat="45.92113" lon="4.75565">
        <ele>174</ele>
        <time>2016-11-28T09:30:21Z</time>
      </trkpt>
      <trkpt lat="45.92111" lon="4.75572">
        <ele>174</ele>
        <time>2016-11-28T09:30:22Z</time>
      </trkpt>
      <trkpt lat="45.9211" lon="4.7558">
        <ele>174</ele>
        <time>2016-11-28T09:30:23Z</time>
      </trkpt>
      <trkpt lat="45.92111" lon="4.75588">
        <ele>174</ele>
        <time>2016-11-28T09:30:24Z</time>
      </trkpt>
      <trkpt lat="45.92114" lon="4.75594">
        <ele>174</ele>
        <time>2016-11-28T09:30:25Z</time>
      </trkpt>
      <trkpt lat="45.92118" lon="4.75599">
        <ele>174</ele>
        <time>2016-11-28T09:30:26Z</time>
      </trkpt>
      <trkpt lat="45.92123" lon="4.75604">
        <ele>174</ele>
        <time>2016-11-28T09:30:27Z</time>
      </trkpt>
      <trkpt lat="45.92127" lon="4.75607">
        <ele>174</ele>
        <time>2016-11-28T09:30:28Z</time>
      </trkpt>
      <trkpt lat="45.92132" lon="4.75611">
        <ele>174</ele>
        <time>2016-11-28T09:30:29Z</time>
      </trkpt>
      <trkpt lat="45.92136" lon="4.75615">
        <ele>174</ele>
        <time>2016-11-28T09:30:30Z</time>
      </trkpt>
      <trkpt lat="45.92141" lon="4.75619">
        <ele>174</ele>
        <time>2016-11-28T09:30:31Z</time>
      </trkpt>
      <trkpt lat="45.92146" lon="4.75624">
        <ele>174</ele>
        <time>2016-11-28T09:30:32Z</time>
      </trkpt>
      <trkpt lat="45.92151" lon="4.75628">
        <ele>174</ele>
        <time>2016-11-28T09:30:33Z</time>
      </trkpt>
      <trkpt lat="45.92156" lon="4.75633">
        <ele>174</ele>
        <time>2016-11-28T09:30:34Z</time>
      </trkpt>
      <trkpt lat="45.92161" lon="4.75638">
        <ele>174</ele>
        <time>2016-11-28T09:30:35Z</time>
      </trkpt>
      <trkpt lat="45.92166" lon="4.75643">
        <ele>174</ele>
        <time>2016-11-28T09:30:36Z</time>
      </trkpt>
      <trkpt lat="45.92171" lon="4.75648">
        <ele>174</ele>
        <time>2016-11-28T09:30:37Z</time>
      </trkpt>
      <trkpt lat="45.92176" lon="4.75653">
        <ele>174</ele>
        <time>2016-11-28T09:30:38Z</time>
      </trkpt>
      <trkpt lat="45.92181" lon="4.75657">
        <ele>174</ele>
        <time>2016-11-28T09:30:39Z</time>
      </trkpt>
      <trkpt lat="45.92185" lon="4.75661">
        <ele>174</ele>
        <time>2016-11-28T09:30:40Z</time>
      </trkpt>
      <trkpt lat="45.92189" lon="4.75664">
        <ele>174</ele>
        <time>2016-11-28T09:30:41Z</time>
      </trkpt>
      <trkpt lat="45.92193" lon="4.75668">
        <ele>174</ele>
        <time>2016-11-28T09:30:42Z</time>
      </trkpt>
      <trkpt lat="45.92198" lon="4.75673">
        <ele>174</ele>
        <time>2016-11-28T09:30:43Z</time>
      </trkpt>
      <trkpt lat="45.92202" lon="4.75677">
        <ele>174</ele>
        <time>2016-11-28T09:30:44Z</time>
      </trkpt>
      <trkpt lat="45.92207" lon="4.7568">
        <ele>174</ele>
        <time>2016-11-28T09:30:45Z</time>
      </trkpt>
      <trkpt lat="45.92211" lon="4.75684">
        <ele>174</ele>
        <time>2016-11-28T09:30:46Z</time>
      </trkpt>
      <trkpt lat="45.92215" lon="4.75688">
        <ele>174</ele>
        <time>2016-11-28T09:30:47Z</time>
      </trkpt>
      <trkpt lat="45.9222" lon="4.75692">
        <ele>174</ele>
        <time>2016-11-28T09:30:48Z</time>
      </trkpt>
      <trkpt lat="45.92224" lon="4.75696">
        <ele>174</ele>
        <time>2016-11-28T09:30:49Z</time>
      </trkpt>
      <trkpt lat="45.92228" lon="4.757">
        <ele>174</ele>
        <time>2016-11-28T09:30:50Z</time>
      </trkpt>
      <trkpt lat="45.92232" lon="4.75704">
        <ele>174</ele>
        <time>2016-11-28T09:30:51Z</time>
      </trkpt>
      <trkpt lat="45.92236" lon="4.75709">
        <ele>174</ele>
        <time>2016-11-28T09:30:52Z</time>
      </trkpt>
      <trkpt lat="45.92239" lon="4.75715">
        <ele>174</ele>
        <time>2016-11-28T09:30:53Z</time>
      </trkpt>
      <trkpt lat="45.92242" lon="4.75722">
        <ele>174</ele>
        <time>2016-11-28T09:30:54Z</time>
      </trkpt>
      <trkpt lat="45.92245" lon="4.75729">
        <ele>174</ele>
        <time>2016-11-28T09:30:55Z</time>
      </trkpt>
      <trkpt lat="45.92248" lon="4.75736">
        <ele>174</ele>
        <time>2016-11-28T09:30:56Z</time>
      </trkpt>
      <trkpt lat="45.9225" lon="4.75743">
        <ele>174</ele>
        <time>2016-11-28T09:30:57Z</time>
      </trkpt>
      <trkpt lat="45.92252" lon="4.7575">
        <ele>174</ele>
        <time>2016-11-28T09:30:58Z</time>
      </trkpt>
      <trkpt lat="45.92253" lon="4.75757">
        <ele>174</ele>
        <time>2016-11-28T09:30:59Z</time>
      </trkpt>
      <trkpt lat="45.92254" lon="4.75764">
        <ele>174</ele>
        <time>2016-11-28T09:31:00Z</time>
      </trkpt>
      <trkpt lat="45.92255" lon="4.75771">
        <ele>174</ele>
        <time>2016-11-28T09:31:01Z</time>
      </trkpt>
      <trkpt lat="45.92256" lon="4.75778">
        <ele>174</ele>
        <time>2016-11-28T09:31:02Z</time>
      </trkpt>
      <trkpt lat="45.92257" lon="4.75784">
        <ele>174</ele>
        <time>2016-11-28T09:31:03Z</time>
      </trkpt>
      <trkpt lat="45.92258" lon="4.75791">
        <ele>174</ele>
        <time>2016-11-28T09:31:04Z</time>
      </trkpt>
      <trkpt lat="45.9226" lon="4.75798">
        <ele>174</ele>
        <time>2016-11-28T09:31:05Z</time>
      </trkpt>
      <trkpt lat="45.92262" lon="4.75804">
        <ele>174</ele>
        <time>2016-11-28T09:31:06Z</time>
      </trkpt>
      <trkpt lat="45.92265" lon="4.7581">
        <ele>174</ele>
        <time>2016-11-28T09:31:07Z</time>
      </trkpt>
      <trkpt lat="45.92268" lon="4.75816">
        <ele>174</ele>
        <time>2016-11-28T09:31:08Z</time>
      </trkpt>
      <trkpt lat="45.92272" lon="4.75822">
        <ele>174</ele>
        <time>2016-11-28T09:31:09Z</time>
      </trkpt>
      <trkpt lat="45.92276" lon="4.75827">
        <ele>174</ele>
        <time>2016-11-28T09:31:10Z</time>
      </trkpt>
      <trkpt lat="45.92281" lon="4.75832">
        <ele>174</ele>
        <time>2016-11-28T09:31:11Z</time>
      </trkpt>
      <trkpt lat="45.92286" lon="4.75836">
        <ele>173</ele>
        <time>2016-11-28T09:31:12Z</time>
      </trkpt>
      <trkpt lat="45.92292" lon="4.7584">
        <ele>173</ele>
        <time>2016-11-28T09:31:13Z</time>
      </trkpt>
      <trkpt lat="45.92298" lon="4.75843">
        <ele>173</ele>
        <time>2016-11-28T09:31:14Z</time>
      </trkpt>
      <trkpt lat="45.92303" lon="4.75846">
        <ele>173</ele>
        <time>2016-11-28T09:31:15Z</time>
      </trkpt>
      <trkpt lat="45.92308" lon="4.75849">
        <ele>173</ele>
        <time>2016-11-28T09:31:16Z</time>
      </trkpt>
      <trkpt lat="45.92313" lon="4.75852">
        <ele>173</ele>
        <time>2016-11-28T09:31:17Z</time>
      </trkpt>
      <trkpt lat="45.92318" lon="4.75856">
        <ele>173</ele>
        <time>2016-11-28T09:31:18Z</time>
      </trkpt>
      <trkpt lat="45.92324" lon="4.75859">
        <ele>173</ele>
        <time>2016-11-28T09:31:19Z</time>
      </trkpt>
      <trkpt lat="45.92329" lon="4.75863">
        <ele>173</ele>
        <time>2016-11-28T09:31:20Z</time>
      </trkpt>
      <trkpt lat="45.92334" lon="4.75866">
        <ele>173</ele>
        <time>2016-11-28T09:31:21Z</time>
      </trkpt>
      <trkpt lat="45.92339" lon="4.75869">
        <ele>173</ele>
        <time>2016-11-28T09:31:22Z</time>
      </trkpt>
      <trkpt lat="45.92344" lon="4.75872">
        <ele>173</ele>
        <time>2016-11-28T09:31:23Z</time>
      </trkpt>
      <trkpt lat="45.92349" lon="4.75875">
        <ele>173</ele>
        <time>2016-11-28T09:31:24Z</time>
      </trkpt>
      <trkpt lat="45.92354" lon="4.75879">
        <ele>173</ele>
        <time>2016-11-28T09:31:25Z</time>
      </trkpt>
      <trkpt lat="45.92359" lon="4.75882">
        <ele>173</ele>
        <time>2016-11-28T09:31:26Z</time>
      </trkpt>
      <trkpt lat="45.92363" lon="4.75885">
        <ele>173</ele>
        <time>2016-11-28T09:31:27Z</time>
      </trkpt>
      <trkpt lat="45.92368" lon="4.75889">
        <ele>173</ele>
        <time>2016-11-28T09:31:28Z</time>
      </trkpt>
      <trkpt lat="45.92373" lon="4.75892">
        <ele>173</ele>
        <time>2016-11-28T09:31:29Z</time>
      </trkpt>
      <trkpt lat="45.92378" lon="4.75896">
        <ele>173</ele>
        <time>2016-11-28T09:31:30Z</time>
      </trkpt>
      <trkpt lat="45.92383" lon="4.759">
        <ele>173</ele>
        <time>2016-11-28T09:31:31Z</time>
      </trkpt>
      <trkpt lat="45.92388" lon="4.75903">
        <ele>173</ele>
        <time>2016-11-28T09:31:32Z</time>
      </trkpt>
      <trkpt lat="45.92393" lon="4.75907">
        <ele>173</ele>
        <time>2016-11-28T09:31:33Z</time>
      </trkpt>
      <trkpt lat="45.92398" lon="4.75911">
        <ele>173</ele>
        <time>2016-11-28T09:31:34Z</time>
      </trkpt>
      <trkpt lat="45.92403" lon="4.75915">
        <ele>172</ele>
        <time>2016-11-28T09:31:35Z</time>
      </trkpt>
      <trkpt lat="45.92407" lon="4.75919">
        <ele>172</ele>
        <time>2016-11-28T09:31:36Z</time>
      </trkpt>
      <trkpt lat="45.92412" lon="4.75922">
        <ele>172</ele>
        <time>2016-11-28T09:31:37Z</time>
      </trkpt>
      <trkpt lat="45.92417" lon="4.75926">
        <ele>172</ele>
        <time>2016-11-28T09:31:38Z</time>
      </trkpt>
      <trkpt lat="45.92422" lon="4.75929">
        <ele>172</ele>
        <time>2016-11-28T09:31:39Z</time>
      </trkpt>
      <trkpt lat="45.92427" lon="4.75933">
        <ele>172</ele>
        <time>2016-11-28T09:31:40Z</time>
      </trkpt>
      <trkpt lat="45.92432" lon="4.75937">
        <ele>172</ele>
        <time>2016-11-28T09:31:41Z</time>
      </trkpt>
      <trkpt lat="45.92437" lon="4.7594">
        <ele>172</ele>
        <time>2016-11-28T09:31:42Z</time>
      </trkpt>
      <trkpt lat="45.92441" lon="4.75943">
        <ele>172</ele>
        <time>2016-11-28T09:31:43Z</time>
      </trkpt>
      <trkpt lat="45.92446" lon="4.75946">
        <ele>172</ele>
        <time>2016-11-28T09:31:44Z</time>
      </trkpt>
      <trkpt lat="45.9245" lon="4.7595">
        <ele>172</ele>
        <time>2016-11-28T09:31:45Z</time>
      </trkpt>
      <trkpt lat="45.92454" lon="4.75953">
        <ele>172</ele>
        <time>2016-11-28T09:31:46Z</time>
      </trkpt>
      <trkpt lat="45.92458" lon="4.75956">
        <ele>172</ele>
        <time>2016-11-28T09:31:47Z</time>
      </trkpt>
      <trkpt lat="45.92462" lon="4.7596">
        <ele>172</ele>
        <time>2016-11-28T09:31:48Z</time>
      </trkpt>
      <trkpt lat="45.9247" lon="4.75965">
        <ele>172</ele>
        <time>2016-11-28T09:31:50Z</time>
      </trkpt>
      <trkpt lat="45.92474" lon="4.75967">
        <ele>172</ele>
        <time>2016-11-28T09:31:51Z</time>
      </trkpt>
      <trkpt lat="45.92481" lon="4.75973">
        <ele>172</ele>
        <time>2016-11-28T09:31:53Z</time>
      </trkpt>
      <trkpt lat="45.92485" lon="4.75976">
        <ele>172</ele>
        <time>2016-11-28T09:31:54Z</time>
      </trkpt>
      <trkpt lat="45.92491" lon="4.75983">
        <ele>172</ele>
        <time>2016-11-28T09:31:56Z</time>
      </trkpt>
      <trkpt lat="45.92495" lon="4.75985">
        <ele>172</ele>
        <time>2016-11-28T09:31:57Z</time>
      </trkpt>
      <trkpt lat="45.92503" lon="4.75989">
        <ele>172</ele>
        <time>2016-11-28T09:31:59Z</time>
      </trkpt>
      <trkpt lat="45.92506" lon="4.75991">
        <ele>172</ele>
        <time>2016-11-28T09:32:00Z</time>
      </trkpt>
      <trkpt lat="45.92514" lon="4.75997">
        <ele>172</ele>
        <time>2016-11-28T09:32:02Z</time>
      </trkpt>
      <trkpt lat="45.92518" lon="4.76001">
        <ele>172</ele>
        <time>2016-11-28T09:32:03Z</time>
      </trkpt>
      <trkpt lat="45.92522" lon="4.76005">
        <ele>172</ele>
        <time>2016-11-28T09:32:04Z</time>
      </trkpt>
      <trkpt lat="45.92526" lon="4.76009">
        <ele>172</ele>
        <time>2016-11-28T09:32:05Z</time>
      </trkpt>
      <trkpt lat="45.9253" lon="4.76013">
        <ele>172</ele>
        <time>2016-11-28T09:32:06Z</time>
      </trkpt>
      <trkpt lat="45.92535" lon="4.76016">
        <ele>172</ele>
        <time>2016-11-28T09:32:07Z</time>
      </trkpt>
      <trkpt lat="45.92539" lon="4.76019">
        <ele>172</ele>
        <time>2016-11-28T09:32:08Z</time>
      </trkpt>
      <trkpt lat="45.92544" lon="4.76022">
        <ele>172</ele>
        <time>2016-11-28T09:32:09Z</time>
      </trkpt>
      <trkpt lat="45.92548" lon="4.76025">
        <ele>172</ele>
        <time>2016-11-28T09:32:10Z</time>
      </trkpt>
      <trkpt lat="45.92553" lon="4.76028">
        <ele>172</ele>
        <time>2016-11-28T09:32:11Z</time>
      </trkpt>
      <trkpt lat="45.92558" lon="4.76031">
        <ele>172</ele>
        <time>2016-11-28T09:32:12Z</time>
      </trkpt>
      <trkpt lat="45.92562" lon="4.76034">
        <ele>172</ele>
        <time>2016-11-28T09:32:13Z</time>
      </trkpt>
      <trkpt lat="45.92567" lon="4.76038">
        <ele>172</ele>
        <time>2016-11-28T09:32:14Z</time>
      </trkpt>
      <trkpt lat="45.92572" lon="4.76041">
        <ele>172</ele>
        <time>2016-11-28T09:32:15Z</time>
      </trkpt>
      <trkpt lat="45.92576" lon="4.76045">
        <ele>171</ele>
        <time>2016-11-28T09:32:16Z</time>
      </trkpt>
      <trkpt lat="45.92581" lon="4.76048">
        <ele>171</ele>
        <time>2016-11-28T09:32:17Z</time>
      </trkpt>
      <trkpt lat="45.92586" lon="4.76052">
        <ele>171</ele>
        <time>2016-11-28T09:32:18Z</time>
      </trkpt>
      <trkpt lat="45.92591" lon="4.76056">
        <ele>171</ele>
        <time>2016-11-28T09:32:19Z</time>
      </trkpt>
      <trkpt lat="45.92596" lon="4.76059">
        <ele>171</ele>
        <time>2016-11-28T09:32:20Z</time>
      </trkpt>
      <trkpt lat="45.92601" lon="4.76063">
        <ele>171</ele>
        <time>2016-11-28T09:32:21Z</time>
      </trkpt>
      <trkpt lat="45.92607" lon="4.76067">
        <ele>171</ele>
        <time>2016-11-28T09:32:22Z</time>
      </trkpt>
      <trkpt lat="45.92612" lon="4.7607">
        <ele>171</ele>
        <time>2016-11-28T09:32:23Z</time>
      </trkpt>
      <trkpt lat="45.92617" lon="4.76074">
        <ele>171</ele>
        <time>2016-11-28T09:32:24Z</time>
      </trkpt>
      <trkpt lat="45.92623" lon="4.76078">
        <ele>171</ele>
        <time>2016-11-28T09:32:25Z</time>
      </trkpt>
      <trkpt lat="45.92628" lon="4.76082">
        <ele>170</ele>
        <time>2016-11-28T09:32:26Z</time>
      </trkpt>
      <trkpt lat="45.92633" lon="4.76086">
        <ele>170</ele>
        <time>2016-11-28T09:32:27Z</time>
      </trkpt>
      <trkpt lat="45.92639" lon="4.7609">
        <ele>170</ele>
        <time>2016-11-28T09:32:28Z</time>
      </trkpt>
      <trkpt lat="45.92645" lon="4.76094">
        <ele>170</ele>
        <time>2016-11-28T09:32:29Z</time>
      </trkpt>
      <trkpt lat="45.9265" lon="4.76097">
        <ele>170</ele>
        <time>2016-11-28T09:32:30Z</time>
      </trkpt>
      <trkpt lat="45.92656" lon="4.76101">
        <ele>170</ele>
        <time>2016-11-28T09:32:31Z</time>
      </trkpt>
      <trkpt lat="45.92662" lon="4.76105">
        <ele>170</ele>
        <time>2016-11-28T09:32:32Z</time>
      </trkpt>
      <trkpt lat="45.92667" lon="4.76109">
        <ele>169</ele>
        <time>2016-11-28T09:32:33Z</time>
      </trkpt>
      <trkpt lat="45.92673" lon="4.76113">
        <ele>169</ele>
        <time>2016-11-28T09:32:34Z</time>
      </trkpt>
      <trkpt lat="45.9268" lon="4.76117">
        <ele>169</ele>
        <time>2016-11-28T09:32:35Z</time>
      </trkpt>
      <trkpt lat="45.92686" lon="4.76121">
        <ele>169</ele>
        <time>2016-11-28T09:32:36Z</time>
      </trkpt>
      <trkpt lat="45.92692" lon="4.76126">
        <ele>169</ele>
        <time>2016-11-28T09:32:37Z</time>
      </trkpt>
      <trkpt lat="45.92698" lon="4.7613">
        <ele>169</ele>
        <time>2016-11-28T09:32:38Z</time>
      </trkpt>
      <trkpt lat="45.92705" lon="4.76134">
        <ele>169</ele>
        <time>2016-11-28T09:32:39Z</time>
      </trkpt>
      <trkpt lat="45.92711" lon="4.76139">
        <ele>168</ele>
        <time>2016-11-28T09:32:40Z</time>
      </trkpt>
      <trkpt lat="45.92718" lon="4.76143">
        <ele>168</ele>
        <time>2016-11-28T09:32:41Z</time>
      </trkpt>
      <trkpt lat="45.92724" lon="4.76148">
        <ele>168</ele>
        <time>2016-11-28T09:32:42Z</time>
      </trkpt>
      <trkpt lat="45.9273" lon="4.76153">
        <ele>168</ele>
        <time>2016-11-28T09:32:43Z</time>
      </trkpt>
      <trkpt lat="45.92736" lon="4.76158">
        <ele>168</ele>
        <time>2016-11-28T09:32:44Z</time>
      </trkpt>
      <trkpt lat="45.92742" lon="4.76162">
        <ele>167</ele>
        <time>2016-11-28T09:32:45Z</time>
      </trkpt>
      <trkpt lat="45.92748" lon="4.76167">
        <ele>167</ele>
        <time>2016-11-28T09:32:46Z</time>
      </trkpt>
      <trkpt lat="45.92753" lon="4.76172">
        <ele>167</ele>
        <time>2016-11-28T09:32:47Z</time>
      </trkpt>
      <trkpt lat="45.92759" lon="4.76176">
        <ele>167</ele>
        <time>2016-11-28T09:32:48Z</time>
      </trkpt>
      <trkpt lat="45.92764" lon="4.7618">
        <ele>167</ele>
        <time>2016-11-28T09:32:49Z</time>
      </trkpt>
      <trkpt lat="45.9277" lon="4.76185">
        <ele>167</ele>
        <time>2016-11-28T09:32:50Z</time>
      </trkpt>
      <trkpt lat="45.92775" lon="4.76189">
        <ele>168</ele>
        <time>2016-11-28T09:32:51Z</time>
      </trkpt>
      <trkpt lat="45.9278" lon="4.76194">
        <ele>168</ele>
        <time>2016-11-28T09:32:52Z</time>
      </trkpt>
      <trkpt lat="45.92785" lon="4.76198">
        <ele>168</ele>
        <time>2016-11-28T09:32:53Z</time>
      </trkpt>
      <trkpt lat="45.9279" lon="4.76203">
        <ele>168</ele>
        <time>2016-11-28T09:32:54Z</time>
      </trkpt>
      <trkpt lat="45.92795" lon="4.76208">
        <ele>168</ele>
        <time>2016-11-28T09:32:55Z</time>
      </trkpt>
      <trkpt lat="45.928" lon="4.76213">
        <ele>168</ele>
        <time>2016-11-28T09:32:56Z</time>
      </trkpt>
      <trkpt lat="45.92805" lon="4.76218">
        <ele>168</ele>
        <time>2016-11-28T09:32:57Z</time>
      </trkpt>
      <trkpt lat="45.9281" lon="4.76223">
        <ele>168</ele>
        <time>2016-11-28T09:32:58Z</time>
      </trkpt>
      <trkpt lat="45.92814" lon="4.76227">
        <ele>168</ele>
        <time>2016-11-28T09:32:59Z</time>
      </trkpt>
      <trkpt lat="45.92819" lon="4.76232">
        <ele>168</ele>
        <time>2016-11-28T09:33:00Z</time>
      </trkpt>
      <trkpt lat="45.92824" lon="4.76238">
        <ele>168</ele>
        <time>2016-11-28T09:33:01Z</time>
      </trkpt>
      <trkpt lat="45.92829" lon="4.76243">
        <ele>169</ele>
        <time>2016-11-28T09:33:02Z</time>
      </trkpt>
      <trkpt lat="45.92834" lon="4.76248">
        <ele>169</ele>
        <time>2016-11-28T09:33:03Z</time>
      </trkpt>
      <trkpt lat="45.92839" lon="4.76253">
        <ele>169</ele>
        <time>2016-11-28T09:33:04Z</time>
      </trkpt>
      <trkpt lat="45.92844" lon="4.76258">
        <ele>169</ele>
        <time>2016-11-28T09:33:05Z</time>
      </trkpt>
      <trkpt lat="45.92849" lon="4.76263">
        <ele>169</ele>
        <time>2016-11-28T09:33:06Z</time>
      </trkpt>
      <trkpt lat="45.92854" lon="4.76268">
        <ele>169</ele>
        <time>2016-11-28T09:33:07Z</time>
      </trkpt>
      <trkpt lat="45.92858" lon="4.76273">
        <ele>169</ele>
        <time>2016-11-28T09:33:08Z</time>
      </trkpt>
      <trkpt lat="45.92863" lon="4.76279">
        <ele>169</ele>
        <time>2016-11-28T09:33:09Z</time>
      </trkpt>
      <trkpt lat="45.92867" lon="4.76284">
        <ele>169</ele>
        <time>2016-11-28T09:33:10Z</time>
      </trkpt>
      <trkpt lat="45.92872" lon="4.76289">
        <ele>169</ele>
        <time>2016-11-28T09:33:11Z</time>
      </trkpt>
      <trkpt lat="45.92876" lon="4.76294">
        <ele>169</ele>
        <time>2016-11-28T09:33:12Z</time>
      </trkpt>
      <trkpt lat="45.9288" lon="4.76298">
        <ele>169</ele>
        <time>2016-11-28T09:33:13Z</time>
      </trkpt>
      <trkpt lat="45.92884" lon="4.76302">
        <ele>169</ele>
        <time>2016-11-28T09:33:14Z</time>
      </trkpt>
      <trkpt lat="45.92889" lon="4.76306">
        <ele>169</ele>
        <time>2016-11-28T09:33:15Z</time>
      </trkpt>
      <trkpt lat="45.92893" lon="4.7631">
        <ele>169</ele>
        <time>2016-11-28T09:33:16Z</time>
      </trkpt>
      <trkpt lat="45.92897" lon="4.76314">
        <ele>169</ele>
        <time>2016-11-28T09:33:17Z</time>
      </trkpt>
      <trkpt lat="45.92902" lon="4.76319">
        <ele>169</ele>
        <time>2016-11-28T09:33:18Z</time>
      </trkpt>
      <trkpt lat="45.92906" lon="4.76324">
        <ele>169</ele>
        <time>2016-11-28T09:33:19Z</time>
      </trkpt>
      <trkpt lat="45.92911" lon="4.76329">
        <ele>169</ele>
        <time>2016-11-28T09:33:20Z</time>
      </trkpt>
      <trkpt lat="45.92915" lon="4.76334">
        <ele>169</ele>
        <time>2016-11-28T09:33:21Z</time>
      </trkpt>
      <trkpt lat="45.9292" lon="4.76339">
        <ele>169</ele>
        <time>2016-11-28T09:33:22Z</time>
      </trkpt>
      <trkpt lat="45.92925" lon="4.76343">
        <ele>169</ele>
        <time>2016-11-28T09:33:23Z</time>
      </trkpt>
      <trkpt lat="45.92929" lon="4.76348">
        <ele>169</ele>
        <time>2016-11-28T09:33:24Z</time>
      </trkpt>
      <trkpt lat="45.92934" lon="4.76353">
        <ele>169</ele>
        <time>2016-11-28T09:33:25Z</time>
      </trkpt>
      <trkpt lat="45.92939" lon="4.76358">
        <ele>169</ele>
        <time>2016-11-28T09:33:26Z</time>
      </trkpt>
      <trkpt lat="45.92943" lon="4.76363">
        <ele>169</ele>
        <time>2016-11-28T09:33:27Z</time>
      </trkpt>
      <trkpt lat="45.92948" lon="4.76367">
        <ele>169</ele>
        <time>2016-11-28T09:33:28Z</time>
      </trkpt>
      <trkpt lat="45.92952" lon="4.76372">
        <ele>169</ele>
        <time>2016-11-28T09:33:29Z</time>
      </trkpt>
      <trkpt lat="45.92956" lon="4.76376">
        <ele>169</ele>
        <time>2016-11-28T09:33:30Z</time>
      </trkpt>
      <trkpt lat="45.92961" lon="4.7638">
        <ele>169</ele>
        <time>2016-11-28T09:33:31Z</time>
      </trkpt>
      <trkpt lat="45.92965" lon="4.76385">
        <ele>169</ele>
        <time>2016-11-28T09:33:32Z</time>
      </trkpt>
      <trkpt lat="45.9297" lon="4.76389">
        <ele>169</ele>
        <time>2016-11-28T09:33:33Z</time>
      </trkpt>
      <trkpt lat="45.92974" lon="4.76394">
        <ele>169</ele>
        <time>2016-11-28T09:33:34Z</time>
      </trkpt>
      <trkpt lat="45.92978" lon="4.76398">
        <ele>169</ele>
        <time>2016-11-28T09:33:35Z</time>
      </trkpt>
      <trkpt lat="45.92983" lon="4.76402">
        <ele>169</ele>
        <time>2016-11-28T09:33:36Z</time>
      </trkpt>
      <trkpt lat="45.92987" lon="4.76406">
        <ele>169</ele>
        <time>2016-11-28T09:33:37Z</time>
      </trkpt>
      <trkpt lat="45.92991" lon="4.7641">
        <ele>169</ele>
        <time>2016-11-28T09:33:38Z</time>
      </trkpt>
      <trkpt lat="45.92996" lon="4.76414">
        <ele>169</ele>
        <time>2016-11-28T09:33:39Z</time>
      </trkpt>
      <trkpt lat="45.93" lon="4.76419">
        <ele>169</ele>
        <time>2016-11-28T09:33:40Z</time>
      </trkpt>
      <trkpt lat="45.93005" lon="4.76423">
        <ele>169</ele>
        <time>2016-11-28T09:33:41Z</time>
      </trkpt>
      <trkpt lat="45.93009" lon="4.76428">
        <ele>169</ele>
        <time>2016-11-28T09:33:42Z</time>
      </trkpt>
      <trkpt lat="45.93014" lon="4.76432">
        <ele>169</ele>
        <time>2016-11-28T09:33:43Z</time>
      </trkpt>
      <trkpt lat="45.93018" lon="4.76437">
        <ele>169</ele>
        <time>2016-11-28T09:33:44Z</time>
      </trkpt>
      <trkpt lat="45.93023" lon="4.76442">
        <ele>169</ele>
        <time>2016-11-28T09:33:45Z</time>
      </trkpt>
      <trkpt lat="45.93028" lon="4.76446">
        <ele>169</ele>
        <time>2016-11-28T09:33:46Z</time>
      </trkpt>
      <trkpt lat="45.93034" lon="4.76452">
        <ele>169</ele>
        <time>2016-11-28T09:33:47Z</time>
      </trkpt>
      <trkpt lat="45.93039" lon="4.76457">
        <ele>169</ele>
        <time>2016-11-28T09:33:48Z</time>
      </trkpt>
      <trkpt lat="45.93044" lon="4.76461">
        <ele>169</ele>
        <time>2016-11-28T09:33:49Z</time>
      </trkpt>
      <trkpt lat="45.93049" lon="4.76465">
        <ele>169</ele>
        <time>2016-11-28T09:33:50Z</time>
      </trkpt>
      <trkpt lat="45.93054" lon="4.76469">
        <ele>169</ele>
        <time>2016-11-28T09:33:51Z</time>
      </trkpt>
      <trkpt lat="45.93058" lon="4.76474">
        <ele>169</ele>
        <time>2016-11-28T09:33:52Z</time>
      </trkpt>
      <trkpt lat="45.93063" lon="4.76478">
        <ele>169</ele>
        <time>2016-11-28T09:33:53Z</time>
      </trkpt>
      <trkpt lat="45.93068" lon="4.76483">
        <ele>169</ele>
        <time>2016-11-28T09:33:54Z</time>
      </trkpt>
      <trkpt lat="45.93073" lon="4.76488">
        <ele>169</ele>
        <time>2016-11-28T09:33:55Z</time>
      </trkpt>
      <trkpt lat="45.93078" lon="4.76493">
        <ele>170</ele>
        <time>2016-11-28T09:33:56Z</time>
      </trkpt>
      <trkpt lat="45.93083" lon="4.76497">
        <ele>170</ele>
        <time>2016-11-28T09:33:57Z</time>
      </trkpt>
      <trkpt lat="45.93087" lon="4.76501">
        <ele>170</ele>
        <time>2016-11-28T09:33:58Z</time>
      </trkpt>
      <trkpt lat="45.93092" lon="4.76506">
        <ele>170</ele>
        <time>2016-11-28T09:33:59Z</time>
      </trkpt>
      <trkpt lat="45.93097" lon="4.7651">
        <ele>170</ele>
        <time>2016-11-28T09:34:00Z</time>
      </trkpt>
      <trkpt lat="45.93101" lon="4.76514">
        <ele>170</ele>
        <time>2016-11-28T09:34:01Z</time>
      </trkpt>
      <trkpt lat="45.93106" lon="4.76519">
        <ele>170</ele>
        <time>2016-11-28T09:34:02Z</time>
      </trkpt>
      <trkpt lat="45.9311" lon="4.76524">
        <ele>170</ele>
        <time>2016-11-28T09:34:03Z</time>
      </trkpt>
      <trkpt lat="45.93115" lon="4.76529">
        <ele>170</ele>
        <time>2016-11-28T09:34:04Z</time>
      </trkpt>
      <trkpt lat="45.9312" lon="4.76533">
        <ele>170</ele>
        <time>2016-11-28T09:34:05Z</time>
      </trkpt>
      <trkpt lat="45.93124" lon="4.76538">
        <ele>170</ele>
        <time>2016-11-28T09:34:06Z</time>
      </trkpt>
      <trkpt lat="45.93129" lon="4.76542">
        <ele>170</ele>
        <time>2016-11-28T09:34:07Z</time>
      </trkpt>
      <trkpt lat="45.93134" lon="4.76547">
        <ele>170</ele>
        <time>2016-11-28T09:34:08Z</time>
      </trkpt>
      <trkpt lat="45.93138" lon="4.76552">
        <ele>170</ele>
        <time>2016-11-28T09:34:09Z</time>
      </trkpt>
      <trkpt lat="45.93143" lon="4.76556">
        <ele>170</ele>
        <time>2016-11-28T09:34:10Z</time>
      </trkpt>
      <trkpt lat="45.93148" lon="4.76561">
        <ele>170</ele>
        <time>2016-11-28T09:34:11Z</time>
      </trkpt>
      <trkpt lat="45.93152" lon="4.76566">
        <ele>170</ele>
        <time>2016-11-28T09:34:12Z</time>
      </trkpt>
      <trkpt lat="45.93156" lon="4.7657">
        <ele>170</ele>
        <time>2016-11-28T09:34:13Z</time>
      </trkpt>
      <trkpt lat="45.93161" lon="4.76575">
        <ele>171</ele>
        <time>2016-11-28T09:34:14Z</time>
      </trkpt>
      <trkpt lat="45.93165" lon="4.76579">
        <ele>171</ele>
        <time>2016-11-28T09:34:15Z</time>
      </trkpt>
      <trkpt lat="45.93169" lon="4.76584">
        <ele>171</ele>
        <time>2016-11-28T09:34:16Z</time>
      </trkpt>
      <trkpt lat="45.93174" lon="4.76589">
        <ele>171</ele>
        <time>2016-11-28T09:34:17Z</time>
      </trkpt>
      <trkpt lat="45.93179" lon="4.76594">
        <ele>171</ele>
        <time>2016-11-28T09:34:18Z</time>
      </trkpt>
      <trkpt lat="45.93184" lon="4.76599">
        <ele>171</ele>
        <time>2016-11-28T09:34:19Z</time>
      </trkpt>
      <trkpt lat="45.93189" lon="4.76603">
        <ele>171</ele>
        <time>2016-11-28T09:34:20Z</time>
      </trkpt>
      <trkpt lat="45.93194" lon="4.76608">
        <ele>170</ele>
        <time>2016-11-28T09:34:21Z</time>
      </trkpt>
      <trkpt lat="45.93198" lon="4.76613">
        <ele>170</ele>
        <time>2016-11-28T09:34:22Z</time>
      </trkpt>
      <trkpt lat="45.93203" lon="4.76617">
        <ele>170</ele>
        <time>2016-11-28T09:34:23Z</time>
      </trkpt>
      <trkpt lat="45.93207" lon="4.76622">
        <ele>170</ele>
        <time>2016-11-28T09:34:24Z</time>
      </trkpt>
      <trkpt lat="45.93211" lon="4.76627">
        <ele>171</ele>
        <time>2016-11-28T09:34:25Z</time>
      </trkpt>
      <trkpt lat="45.93215" lon="4.76632">
        <ele>171</ele>
        <time>2016-11-28T09:34:26Z</time>
      </trkpt>
      <trkpt lat="45.93219" lon="4.76637">
        <ele>171</ele>
        <time>2016-11-28T09:34:27Z</time>
      </trkpt>
      <trkpt lat="45.93223" lon="4.76642">
        <ele>171</ele>
        <time>2016-11-28T09:34:28Z</time>
      </trkpt>
      <trkpt lat="45.93228" lon="4.76646">
        <ele>171</ele>
        <time>2016-11-28T09:34:29Z</time>
      </trkpt>
      <trkpt lat="45.93233" lon="4.76649">
        <ele>171</ele>
        <time>2016-11-28T09:34:30Z</time>
      </trkpt>
      <trkpt lat="45.93237" lon="4.76653">
        <ele>171</ele>
        <time>2016-11-28T09:34:31Z</time>
      </trkpt>
      <trkpt lat="45.93241" lon="4.76658">
        <ele>171</ele>
        <time>2016-11-28T09:34:32Z</time>
      </trkpt>
      <trkpt lat="45.93245" lon="4.76663">
        <ele>172</ele>
        <time>2016-11-28T09:34:33Z</time>
      </trkpt>
      <trkpt lat="45.9325" lon="4.76668">
        <ele>172</ele>
        <time>2016-11-28T09:34:34Z</time>
      </trkpt>
      <trkpt lat="45.93254" lon="4.76672">
        <ele>172</ele>
        <time>2016-11-28T09:34:35Z</time>
      </trkpt>
      <trkpt lat="45.93258" lon="4.76677">
        <ele>172</ele>
        <time>2016-11-28T09:34:36Z</time>
      </trkpt>
      <trkpt lat="45.93263" lon="4.76681">
        <ele>172</ele>
        <time>2016-11-28T09:34:37Z</time>
      </trkpt>
      <trkpt lat="45.93267" lon="4.76685">
        <ele>172</ele>
        <time>2016-11-28T09:34:38Z</time>
      </trkpt>
      <trkpt lat="45.93271" lon="4.76689">
        <ele>172</ele>
        <time>2016-11-28T09:34:39Z</time>
      </trkpt>
      <trkpt lat="45.93276" lon="4.76694">
        <ele>172</ele>
        <time>2016-11-28T09:34:40Z</time>
      </trkpt>
      <trkpt lat="45.9328" lon="4.76699">
        <ele>172</ele>
        <time>2016-11-28T09:34:41Z</time>
      </trkpt>
      <trkpt lat="45.93284" lon="4.76704">
        <ele>172</ele>
        <time>2016-11-28T09:34:42Z</time>
      </trkpt>
      <trkpt lat="45.93288" lon="4.76708">
        <ele>172</ele>
        <time>2016-11-28T09:34:43Z</time>
      </trkpt>
      <trkpt lat="45.93293" lon="4.76713">
        <ele>172</ele>
        <time>2016-11-28T09:34:44Z</time>
      </trkpt>
      <trkpt lat="45.93297" lon="4.76717">
        <ele>172</ele>
        <time>2016-11-28T09:34:45Z</time>
      </trkpt>
      <trkpt lat="45.93302" lon="4.76723">
        <ele>172</ele>
        <time>2016-11-28T09:34:46Z</time>
      </trkpt>
      <trkpt lat="45.93307" lon="4.76727">
        <ele>172</ele>
        <time>2016-11-28T09:34:47Z</time>
      </trkpt>
      <trkpt lat="45.93311" lon="4.76731">
        <ele>172</ele>
        <time>2016-11-28T09:34:48Z</time>
      </trkpt>
      <trkpt lat="45.93315" lon="4.76735">
        <ele>172</ele>
        <time>2016-11-28T09:34:49Z</time>
      </trkpt>
      <trkpt lat="45.93319" lon="4.76738">
        <ele>172</ele>
        <time>2016-11-28T09:34:50Z</time>
      </trkpt>
      <trkpt lat="45.93324" lon="4.76743">
        <ele>172</ele>
        <time>2016-11-28T09:34:51Z</time>
      </trkpt>
      <trkpt lat="45.93328" lon="4.76747">
        <ele>173</ele>
        <time>2016-11-28T09:34:52Z</time>
      </trkpt>
      <trkpt lat="45.93333" lon="4.76751">
        <ele>173</ele>
        <time>2016-11-28T09:34:53Z</time>
      </trkpt>
      <trkpt lat="45.93337" lon="4.76756">
        <ele>173</ele>
        <time>2016-11-28T09:34:54Z</time>
      </trkpt>
      <trkpt lat="45.93342" lon="4.7676">
        <ele>172</ele>
        <time>2016-11-28T09:34:55Z</time>
      </trkpt>
      <trkpt lat="45.93346" lon="4.76764">
        <ele>172</ele>
        <time>2016-11-28T09:34:56Z</time>
      </trkpt>
      <trkpt lat="45.93351" lon="4.76768">
        <ele>172</ele>
        <time>2016-11-28T09:34:57Z</time>
      </trkpt>
      <trkpt lat="45.93356" lon="4.76771">
        <ele>172</ele>
        <time>2016-11-28T09:34:58Z</time>
      </trkpt>
      <trkpt lat="45.9336" lon="4.76776">
        <ele>172</ele>
        <time>2016-11-28T09:34:59Z</time>
      </trkpt>
      <trkpt lat="45.93365" lon="4.7678">
        <ele>172</ele>
        <time>2016-11-28T09:35:00Z</time>
      </trkpt>
      <trkpt lat="45.9337" lon="4.76784">
        <ele>172</ele>
        <time>2016-11-28T09:35:01Z</time>
      </trkpt>
      <trkpt lat="45.93374" lon="4.76788">
        <ele>172</ele>
        <time>2016-11-28T09:35:02Z</time>
      </trkpt>
      <trkpt lat="45.93379" lon="4.76792">
        <ele>172</ele>
        <time>2016-11-28T09:35:03Z</time>
      </trkpt>
      <trkpt lat="45.93383" lon="4.76797">
        <ele>172</ele>
        <time>2016-11-28T09:35:04Z</time>
      </trkpt>
      <trkpt lat="45.93388" lon="4.76801">
        <ele>172</ele>
        <time>2016-11-28T09:35:05Z</time>
      </trkpt>
      <trkpt lat="45.93392" lon="4.76807">
        <ele>172</ele>
        <time>2016-11-28T09:35:06Z</time>
      </trkpt>
      <trkpt lat="45.93396" lon="4.76812">
        <ele>172</ele>
        <time>2016-11-28T09:35:07Z</time>
      </trkpt>
      <trkpt lat="45.934" lon="4.76817">
        <ele>172</ele>
        <time>2016-11-28T09:35:08Z</time>
      </trkpt>
      <trkpt lat="45.93403" lon="4.76823">
        <ele>172</ele>
        <time>2016-11-28T09:35:09Z</time>
      </trkpt>
      <trkpt lat="45.93407" lon="4.76829">
        <ele>172</ele>
        <time>2016-11-28T09:35:10Z</time>
      </trkpt>
      <trkpt lat="45.93411" lon="4.76835">
        <ele>172</ele>
        <time>2016-11-28T09:35:11Z</time>
      </trkpt>
      <trkpt lat="45.93415" lon="4.76841">
        <ele>172</ele>
        <time>2016-11-28T09:35:12Z</time>
      </trkpt>
      <trkpt lat="45.93418" lon="4.76847">
        <ele>171</ele>
        <time>2016-11-28T09:35:13Z</time>
      </trkpt>
      <trkpt lat="45.93421" lon="4.76854">
        <ele>171</ele>
        <time>2016-11-28T09:35:14Z</time>
      </trkpt>
      <trkpt lat="45.93425" lon="4.7686">
        <ele>171</ele>
        <time>2016-11-28T09:35:15Z</time>
      </trkpt>
      <trkpt lat="45.93428" lon="4.76866">
        <ele>171</ele>
        <time>2016-11-28T09:35:16Z</time>
      </trkpt>
      <trkpt lat="45.93431" lon="4.76872">
        <ele>171</ele>
        <time>2016-11-28T09:35:17Z</time>
      </trkpt>
      <trkpt lat="45.93434" lon="4.76878">
        <ele>171</ele>
        <time>2016-11-28T09:35:18Z</time>
      </trkpt>
      <trkpt lat="45.93436" lon="4.76885">
        <ele>171</ele>
        <time>2016-11-28T09:35:19Z</time>
      </trkpt>
      <trkpt lat="45.93439" lon="4.76892">
        <ele>170</ele>
        <time>2016-11-28T09:35:20Z</time>
      </trkpt>
      <trkpt lat="45.93441" lon="4.769">
        <ele>170</ele>
        <time>2016-11-28T09:35:21Z</time>
      </trkpt>
      <trkpt lat="45.93443" lon="4.76907">
        <ele>170</ele>
        <time>2016-11-28T09:35:22Z</time>
      </trkpt>
      <trkpt lat="45.93445" lon="4.76915">
        <ele>170</ele>
        <time>2016-11-28T09:35:23Z</time>
      </trkpt>
      <trkpt lat="45.93447" lon="4.76922">
        <ele>170</ele>
        <time>2016-11-28T09:35:24Z</time>
      </trkpt>
      <trkpt lat="45.93449" lon="4.7693">
        <ele>170</ele>
        <time>2016-11-28T09:35:25Z</time>
      </trkpt>
      <trkpt lat="45.9345" lon="4.76938">
        <ele>170</ele>
        <time>2016-11-28T09:35:26Z</time>
      </trkpt>
      <trkpt lat="45.93451" lon="4.76946">
        <ele>170</ele>
        <time>2016-11-28T09:35:27Z</time>
      </trkpt>
      <trkpt lat="45.93452" lon="4.76954">
        <ele>170</ele>
        <time>2016-11-28T09:35:28Z</time>
      </trkpt>
      <trkpt lat="45.93454" lon="4.76961">
        <ele>170</ele>
        <time>2016-11-28T09:35:29Z</time>
      </trkpt>
      <trkpt lat="45.93455" lon="4.76969">
        <ele>170</ele>
        <time>2016-11-28T09:35:30Z</time>
      </trkpt>
      <trkpt lat="45.93456" lon="4.76976">
        <ele>170</ele>
        <time>2016-11-28T09:35:31Z</time>
      </trkpt>
      <trkpt lat="45.93457" lon="4.76984">
        <ele>170</ele>
        <time>2016-11-28T09:35:32Z</time>
      </trkpt>
      <trkpt lat="45.93458" lon="4.76991">
        <ele>170</ele>
        <time>2016-11-28T09:35:33Z</time>
      </trkpt>
      <trkpt lat="45.93459" lon="4.76998">
        <ele>170</ele>
        <time>2016-11-28T09:35:34Z</time>
      </trkpt>
      <trkpt lat="45.9346" lon="4.77005">
        <ele>170</ele>
        <time>2016-11-28T09:35:35Z</time>
      </trkpt>
      <trkpt lat="45.93462" lon="4.77013">
        <ele>170</ele>
        <time>2016-11-28T09:35:36Z</time>
      </trkpt>
      <trkpt lat="45.93463" lon="4.7702">
        <ele>170</ele>
        <time>2016-11-28T09:35:37Z</time>
      </trkpt>
      <trkpt lat="45.93464" lon="4.77028">
        <ele>170</ele>
        <time>2016-11-28T09:35:38Z</time>
      </trkpt>
      <trkpt lat="45.93466" lon="4.77035">
        <ele>170</ele>
        <time>2016-11-28T09:35:39Z</time>
      </trkpt>
      <trkpt lat="45.93467" lon="4.77042">
        <ele>170</ele>
        <time>2016-11-28T09:35:40Z</time>
      </trkpt>
      <trkpt lat="45.93468" lon="4.7705">
        <ele>170</ele>
        <time>2016-11-28T09:35:41Z</time>
      </trkpt>
      <trkpt lat="45.9347" lon="4.77057">
        <ele>170</ele>
        <time>2016-11-28T09:35:42Z</time>
      </trkpt>
      <trkpt lat="45.93471" lon="4.77064">
        <ele>170</ele>
        <time>2016-11-28T09:35:43Z</time>
      </trkpt>
      <trkpt lat="45.93472" lon="4.77071">
        <ele>170</ele>
        <time>2016-11-28T09:35:44Z</time>
      </trkpt>
      <trkpt lat="45.93473" lon="4.77079">
        <ele>170</ele>
        <time>2016-11-28T09:35:45Z</time>
      </trkpt>
      <trkpt lat="45.93474" lon="4.77086">
        <ele>169</ele>
        <time>2016-11-28T09:35:46Z</time>
      </trkpt>
      <trkpt lat="45.93475" lon="4.77094">
        <ele>169</ele>
        <time>2016-11-28T09:35:47Z</time>
      </trkpt>
      <trkpt lat="45.93476" lon="4.77101">
        <ele>169</ele>
        <time>2016-11-28T09:35:48Z</time>
      </trkpt>
      <trkpt lat="45.93477" lon="4.77109">
        <ele>169</ele>
        <time>2016-11-28T09:35:49Z</time>
      </trkpt>
      <trkpt lat="45.93478" lon="4.77116">
        <ele>169</ele>
        <time>2016-11-28T09:35:50Z</time>
      </trkpt>
      <trkpt lat="45.9348" lon="4.77123">
        <ele>169</ele>
        <time>2016-11-28T09:35:51Z</time>
      </trkpt>
      <trkpt lat="45.93482" lon="4.77131">
        <ele>169</ele>
        <time>2016-11-28T09:35:52Z</time>
      </trkpt>
      <trkpt lat="45.93483" lon="4.77138">
        <ele>169</ele>
        <time>2016-11-28T09:35:53Z</time>
      </trkpt>
      <trkpt lat="45.93485" lon="4.77146">
        <ele>169</ele>
        <time>2016-11-28T09:35:54Z</time>
      </trkpt>
      <trkpt lat="45.93487" lon="4.77153">
        <ele>169</ele>
        <time>2016-11-28T09:35:55Z</time>
      </trkpt>
      <trkpt lat="45.93488" lon="4.77161">
        <ele>169</ele>
        <time>2016-11-28T09:35:56Z</time>
      </trkpt>
      <trkpt lat="45.9349" lon="4.77168">
        <ele>169</ele>
        <time>2016-11-28T09:35:57Z</time>
      </trkpt>
      <trkpt lat="45.93491" lon="4.77176">
        <ele>169</ele>
        <time>2016-11-28T09:35:58Z</time>
      </trkpt>
      <trkpt lat="45.93493" lon="4.77183">
        <ele>169</ele>
        <time>2016-11-28T09:35:59Z</time>
      </trkpt>
      <trkpt lat="45.93494" lon="4.7719">
        <ele>169</ele>
        <time>2016-11-28T09:36:00Z</time>
      </trkpt>
      <trkpt lat="45.93496" lon="4.77197">
        <ele>169</ele>
        <time>2016-11-28T09:36:01Z</time>
      </trkpt>
      <trkpt lat="45.93498" lon="4.77204">
        <ele>169</ele>
        <time>2016-11-28T09:36:02Z</time>
      </trkpt>
      <trkpt lat="45.935" lon="4.77212">
        <ele>169</ele>
        <time>2016-11-28T09:36:03Z</time>
      </trkpt>
      <trkpt lat="45.93502" lon="4.7722">
        <ele>169</ele>
        <time>2016-11-28T09:36:04Z</time>
      </trkpt>
      <trkpt lat="45.93504" lon="4.77228">
        <ele>169</ele>
        <time>2016-11-28T09:36:05Z</time>
      </trkpt>
      <trkpt lat="45.93505" lon="4.77237">
        <ele>169</ele>
        <time>2016-11-28T09:36:06Z</time>
      </trkpt>
      <trkpt lat="45.93507" lon="4.77244">
        <ele>170</ele>
        <time>2016-11-28T09:36:07Z</time>
      </trkpt>
      <trkpt lat="45.93509" lon="4.77252">
        <ele>170</ele>
        <time>2016-11-28T09:36:08Z</time>
      </trkpt>
      <trkpt lat="45.9351" lon="4.77259">
        <ele>170</ele>
        <time>2016-11-28T09:36:09Z</time>
      </trkpt>
      <trkpt lat="45.93512" lon="4.77266">
        <ele>170</ele>
        <time>2016-11-28T09:36:10Z</time>
      </trkpt>
      <trkpt lat="45.93513" lon="4.77273">
        <ele>170</ele>
        <time>2016-11-28T09:36:11Z</time>
      </trkpt>
      <trkpt lat="45.93514" lon="4.7728">
        <ele>170</ele>
        <time>2016-11-28T09:36:12Z</time>
      </trkpt>
      <trkpt lat="45.93516" lon="4.77287">
        <ele>170</ele>
        <time>2016-11-28T09:36:13Z</time>
      </trkpt>
      <trkpt lat="45.93517" lon="4.77293">
        <ele>170</ele>
        <time>2016-11-28T09:36:14Z</time>
      </trkpt>
      <trkpt lat="45.93519" lon="4.773">
        <ele>170</ele>
        <time>2016-11-28T09:36:15Z</time>
      </trkpt>
      <trkpt lat="45.9352" lon="4.77307">
        <ele>170</ele>
        <time>2016-11-28T09:36:16Z</time>
      </trkpt>
      <trkpt lat="45.93522" lon="4.77314">
        <ele>170</ele>
        <time>2016-11-28T09:36:17Z</time>
      </trkpt>
      <trkpt lat="45.93524" lon="4.77321">
        <ele>170</ele>
        <time>2016-11-28T09:36:18Z</time>
      </trkpt>
      <trkpt lat="45.93525" lon="4.77329">
        <ele>170</ele>
        <time>2016-11-28T09:36:19Z</time>
      </trkpt>
      <trkpt lat="45.93527" lon="4.77336">
        <ele>170</ele>
        <time>2016-11-28T09:36:20Z</time>
      </trkpt>
      <trkpt lat="45.93529" lon="4.77343">
        <ele>170</ele>
        <time>2016-11-28T09:36:21Z</time>
      </trkpt>
      <trkpt lat="45.93531" lon="4.77351">
        <ele>170</ele>
        <time>2016-11-28T09:36:22Z</time>
      </trkpt>
      <trkpt lat="45.93533" lon="4.77359">
        <ele>170</ele>
        <time>2016-11-28T09:36:23Z</time>
      </trkpt>
      <trkpt lat="45.93535" lon="4.77366">
        <ele>170</ele>
        <time>2016-11-28T09:36:24Z</time>
      </trkpt>
      <trkpt lat="45.93536" lon="4.77374">
        <ele>170</ele>
        <time>2016-11-28T09:36:25Z</time>
      </trkpt>
      <trkpt lat="45.93538" lon="4.77381">
        <ele>170</ele>
        <time>2016-11-28T09:36:26Z</time>
      </trkpt>
      <trkpt lat="45.9354" lon="4.77389">
        <ele>170</ele>
        <time>2016-11-28T09:36:27Z</time>
      </trkpt>
      <trkpt lat="45.93542" lon="4.77396">
        <ele>170</ele>
        <time>2016-11-28T09:36:28Z</time>
      </trkpt>
      <trkpt lat="45.93543" lon="4.77404">
        <ele>170</ele>
        <time>2016-11-28T09:36:29Z</time>
      </trkpt>
      <trkpt lat="45.93545" lon="4.77411">
        <ele>170</ele>
        <time>2016-11-28T09:36:30Z</time>
      </trkpt>
      <trkpt lat="45.93547" lon="4.77418">
        <ele>170</ele>
        <time>2016-11-28T09:36:31Z</time>
      </trkpt>
      <trkpt lat="45.93549" lon="4.77426">
        <ele>170</ele>
        <time>2016-11-28T09:36:32Z</time>
      </trkpt>
      <trkpt lat="45.9355" lon="4.77433">
        <ele>169</ele>
        <time>2016-11-28T09:36:33Z</time>
      </trkpt>
      <trkpt lat="45.93552" lon="4.7744">
        <ele>169</ele>
        <time>2016-11-28T09:36:34Z</time>
      </trkpt>
      <trkpt lat="45.93553" lon="4.77448">
        <ele>169</ele>
        <time>2016-11-28T09:36:35Z</time>
      </trkpt>
      <trkpt lat="45.93554" lon="4.77456">
        <ele>169</ele>
        <time>2016-11-28T09:36:36Z</time>
      </trkpt>
      <trkpt lat="45.93556" lon="4.77463">
        <ele>169</ele>
        <time>2016-11-28T09:36:37Z</time>
      </trkpt>
      <trkpt lat="45.93557" lon="4.77471">
        <ele>169</ele>
        <time>2016-11-28T09:36:38Z</time>
      </trkpt>
      <trkpt lat="45.93559" lon="4.77478">
        <ele>169</ele>
        <time>2016-11-28T09:36:39Z</time>
      </trkpt>
      <trkpt lat="45.93561" lon="4.77486">
        <ele>169</ele>
        <time>2016-11-28T09:36:40Z</time>
      </trkpt>
      <trkpt lat="45.93563" lon="4.77493">
        <ele>169</ele>
        <time>2016-11-28T09:36:41Z</time>
      </trkpt>
      <trkpt lat="45.93564" lon="4.775">
        <ele>169</ele>
        <time>2016-11-28T09:36:42Z</time>
      </trkpt>
      <trkpt lat="45.93566" lon="4.77507">
        <ele>169</ele>
        <time>2016-11-28T09:36:43Z</time>
      </trkpt>
      <trkpt lat="45.93567" lon="4.77514">
        <ele>169</ele>
        <time>2016-11-28T09:36:44Z</time>
      </trkpt>
      <trkpt lat="45.93569" lon="4.77521">
        <ele>169</ele>
        <time>2016-11-28T09:36:45Z</time>
      </trkpt>
      <trkpt lat="45.93571" lon="4.77528">
        <ele>169</ele>
        <time>2016-11-28T09:36:46Z</time>
      </trkpt>
      <trkpt lat="45.93572" lon="4.77535">
        <ele>169</ele>
        <time>2016-11-28T09:36:47Z</time>
      </trkpt>
      <trkpt lat="45.93573" lon="4.77542">
        <ele>169</ele>
        <time>2016-11-28T09:36:48Z</time>
      </trkpt>
      <trkpt lat="45.93575" lon="4.77549">
        <ele>169</ele>
        <time>2016-11-28T09:36:49Z</time>
      </trkpt>
      <trkpt lat="45.93577" lon="4.77557">
        <ele>169</ele>
        <time>2016-11-28T09:36:50Z</time>
      </trkpt>
      <trkpt lat="45.93579" lon="4.77563">
        <ele>169</ele>
        <time>2016-11-28T09:36:51Z</time>
      </trkpt>
      <trkpt lat="45.93581" lon="4.7757">
        <ele>170</ele>
        <time>2016-11-28T09:36:52Z</time>
      </trkpt>
      <trkpt lat="45.93583" lon="4.77577">
        <ele>170</ele>
        <time>2016-11-28T09:36:53Z</time>
      </trkpt>
      <trkpt lat="45.93585" lon="4.77584">
        <ele>170</ele>
        <time>2016-11-28T09:36:54Z</time>
      </trkpt>
      <trkpt lat="45.93587" lon="4.77591">
        <ele>170</ele>
        <time>2016-11-28T09:36:55Z</time>
      </trkpt>
      <trkpt lat="45.93589" lon="4.77598">
        <ele>170</ele>
        <time>2016-11-28T09:36:56Z</time>
      </trkpt>
      <trkpt lat="45.93591" lon="4.77604">
        <ele>170</ele>
        <time>2016-11-28T09:36:57Z</time>
      </trkpt>
      <trkpt lat="45.93593" lon="4.77611">
        <ele>170</ele>
        <time>2016-11-28T09:36:58Z</time>
      </trkpt>
      <trkpt lat="45.93596" lon="4.77618">
        <ele>170</ele>
        <time>2016-11-28T09:36:59Z</time>
      </trkpt>
      <trkpt lat="45.93598" lon="4.77624">
        <ele>170</ele>
        <time>2016-11-28T09:37:00Z</time>
      </trkpt>
      <trkpt lat="45.93601" lon="4.77631">
        <ele>169</ele>
        <time>2016-11-28T09:37:01Z</time>
      </trkpt>
      <trkpt lat="45.93604" lon="4.77638">
        <ele>169</ele>
        <time>2016-11-28T09:37:02Z</time>
      </trkpt>
      <trkpt lat="45.93606" lon="4.77644">
        <ele>169</ele>
        <time>2016-11-28T09:37:03Z</time>
      </trkpt>
      <trkpt lat="45.93609" lon="4.77651">
        <ele>169</ele>
        <time>2016-11-28T09:37:04Z</time>
      </trkpt>
      <trkpt lat="45.93612" lon="4.77658">
        <ele>169</ele>
        <time>2016-11-28T09:37:05Z</time>
      </trkpt>
      <trkpt lat="45.93615" lon="4.77664">
        <ele>169</ele>
        <time>2016-11-28T09:37:06Z</time>
      </trkpt>
      <trkpt lat="45.93618" lon="4.7767">
        <ele>169</ele>
        <time>2016-11-28T09:37:07Z</time>
      </trkpt>
      <trkpt lat="45.93621" lon="4.77676">
        <ele>169</ele>
        <time>2016-11-28T09:37:08Z</time>
      </trkpt>
      <trkpt lat="45.93623" lon="4.77682">
        <ele>169</ele>
        <time>2016-11-28T09:37:09Z</time>
      </trkpt>
      <trkpt lat="45.93626" lon="4.77689">
        <ele>169</ele>
        <time>2016-11-28T09:37:10Z</time>
      </trkpt>
      <trkpt lat="45.93629" lon="4.77695">
        <ele>169</ele>
        <time>2016-11-28T09:37:11Z</time>
      </trkpt>
      <trkpt lat="45.93632" lon="4.77701">
        <ele>169</ele>
        <time>2016-11-28T09:37:12Z</time>
      </trkpt>
      <trkpt lat="45.93634" lon="4.77707">
        <ele>170</ele>
        <time>2016-11-28T09:37:13Z</time>
      </trkpt>
      <trkpt lat="45.93637" lon="4.77713">
        <ele>170</ele>
        <time>2016-11-28T09:37:14Z</time>
      </trkpt>
      <trkpt lat="45.9364" lon="4.77719">
        <ele>170</ele>
        <time>2016-11-28T09:37:15Z</time>
      </trkpt>
      <trkpt lat="45.93643" lon="4.77724">
        <ele>170</ele>
        <time>2016-11-28T09:37:16Z</time>
      </trkpt>
      <trkpt lat="45.93646" lon="4.77729">
        <ele>170</ele>
        <time>2016-11-28T09:37:17Z</time>
      </trkpt>
      <trkpt lat="45.93652" lon="4.77739">
        <ele>170</ele>
        <time>2016-11-28T09:37:19Z</time>
      </trkpt>
      <trkpt lat="45.93655" lon="4.77743">
        <ele>170</ele>
        <time>2016-11-28T09:37:20Z</time>
      </trkpt>
      <trkpt lat="45.93661" lon="4.77752">
        <ele>171</ele>
        <time>2016-11-28T09:37:22Z</time>
      </trkpt>
      <trkpt lat="45.93664" lon="4.77756">
        <ele>171</ele>
        <time>2016-11-28T09:37:23Z</time>
      </trkpt>
      <trkpt lat="45.9367" lon="4.77765">
        <ele>170</ele>
        <time>2016-11-28T09:37:25Z</time>
      </trkpt>
      <trkpt lat="45.93673" lon="4.7777">
        <ele>170</ele>
        <time>2016-11-28T09:37:26Z</time>
      </trkpt>
      <trkpt lat="45.93679" lon="4.77779">
        <ele>170</ele>
        <time>2016-11-28T09:37:28Z</time>
      </trkpt>
      <trkpt lat="45.93682" lon="4.77783">
        <ele>170</ele>
        <time>2016-11-28T09:37:29Z</time>
      </trkpt>
      <trkpt lat="45.93685" lon="4.77788">
        <ele>170</ele>
        <time>2016-11-28T09:37:30Z</time>
      </trkpt>
      <trkpt lat="45.93688" lon="4.77793">
        <ele>170</ele>
        <time>2016-11-28T09:37:31Z</time>
      </trkpt>
      <trkpt lat="45.93692" lon="4.77797">
        <ele>169</ele>
        <time>2016-11-28T09:37:32Z</time>
      </trkpt>
      <trkpt lat="45.93695" lon="4.77801">
        <ele>169</ele>
        <time>2016-11-28T09:37:33Z</time>
      </trkpt>
      <trkpt lat="45.93701" lon="4.7781">
        <ele>169</ele>
        <time>2016-11-28T09:37:35Z</time>
      </trkpt>
      <trkpt lat="45.93704" lon="4.77814">
        <ele>169</ele>
        <time>2016-11-28T09:37:36Z</time>
      </trkpt>
      <trkpt lat="45.9371" lon="4.77823">
        <ele>169</ele>
        <time>2016-11-28T09:37:38Z</time>
      </trkpt>
      <trkpt lat="45.93713" lon="4.77826">
        <ele>169</ele>
        <time>2016-11-28T09:37:39Z</time>
      </trkpt>
      <trkpt lat="45.93719" lon="4.77834">
        <ele>167</ele>
        <time>2016-11-28T09:37:41Z</time>
      </trkpt>
      <trkpt lat="45.93722" lon="4.77838">
        <ele>167</ele>
        <time>2016-11-28T09:37:42Z</time>
      </trkpt>
      <trkpt lat="45.93728" lon="4.77845">
        <ele>167</ele>
        <time>2016-11-28T09:37:44Z</time>
      </trkpt>
      <trkpt lat="45.93731" lon="4.77849">
        <ele>167</ele>
        <time>2016-11-28T09:37:45Z</time>
      </trkpt>
      <trkpt lat="45.93737" lon="4.77858">
        <ele>167</ele>
        <time>2016-11-28T09:37:47Z</time>
      </trkpt>
      <trkpt lat="45.9374" lon="4.77863">
        <ele>167</ele>
        <time>2016-11-28T09:37:48Z</time>
      </trkpt>
      <trkpt lat="45.93743" lon="4.77868">
        <ele>167</ele>
        <time>2016-11-28T09:37:49Z</time>
      </trkpt>
      <trkpt lat="45.93746" lon="4.77873">
        <ele>167</ele>
        <time>2016-11-28T09:37:50Z</time>
      </trkpt>
      <trkpt lat="45.9375" lon="4.77877">
        <ele>167</ele>
        <time>2016-11-28T09:37:51Z</time>
      </trkpt>
      <trkpt lat="45.93753" lon="4.77882">
        <ele>166</ele>
        <time>2016-11-28T09:37:52Z</time>
      </trkpt>
      <trkpt lat="45.93757" lon="4.77886">
        <ele>166</ele>
        <time>2016-11-28T09:37:53Z</time>
      </trkpt>
      <trkpt lat="45.9376" lon="4.7789">
        <ele>166</ele>
        <time>2016-11-28T09:37:54Z</time>
      </trkpt>
      <trkpt lat="45.93767" lon="4.77899">
        <ele>166</ele>
        <time>2016-11-28T09:37:56Z</time>
      </trkpt>
      <trkpt lat="45.93771" lon="4.77903">
        <ele>166</ele>
        <time>2016-11-28T09:37:57Z</time>
      </trkpt>
      <trkpt lat="45.93774" lon="4.77908">
        <ele>166</ele>
        <time>2016-11-28T09:37:58Z</time>
      </trkpt>
      <trkpt lat="45.93778" lon="4.77912">
        <ele>166</ele>
        <time>2016-11-28T09:37:59Z</time>
      </trkpt>
      <trkpt lat="45.93785" lon="4.7792">
        <ele>168</ele>
        <time>2016-11-28T09:38:01Z</time>
      </trkpt>
      <trkpt lat="45.93788" lon="4.77924">
        <ele>168</ele>
        <time>2016-11-28T09:38:02Z</time>
      </trkpt>
      <trkpt lat="45.93791" lon="4.77929">
        <ele>168</ele>
        <time>2016-11-28T09:38:03Z</time>
      </trkpt>
      <trkpt lat="45.93795" lon="4.77933">
        <ele>168</ele>
        <time>2016-11-28T09:38:04Z</time>
      </trkpt>
      <trkpt lat="45.93799" lon="4.77938">
        <ele>169</ele>
        <time>2016-11-28T09:38:05Z</time>
      </trkpt>
      <trkpt lat="45.93802" lon="4.77943">
        <ele>169</ele>
        <time>2016-11-28T09:38:06Z</time>
      </trkpt>
      <trkpt lat="45.93806" lon="4.77948">
        <ele>169</ele>
        <time>2016-11-28T09:38:07Z</time>
      </trkpt>
      <trkpt lat="45.9381" lon="4.77953">
        <ele>170</ele>
        <time>2016-11-28T09:38:08Z</time>
      </trkpt>
      <trkpt lat="45.93814" lon="4.77958">
        <ele>170</ele>
        <time>2016-11-28T09:38:09Z</time>
      </trkpt>
      <trkpt lat="45.93819" lon="4.77963">
        <ele>171</ele>
        <time>2016-11-28T09:38:10Z</time>
      </trkpt>
      <trkpt lat="45.93823" lon="4.77968">
        <ele>171</ele>
        <time>2016-11-28T09:38:11Z</time>
      </trkpt>
      <trkpt lat="45.93827" lon="4.77974">
        <ele>172</ele>
        <time>2016-11-28T09:38:12Z</time>
      </trkpt>
      <trkpt lat="45.93831" lon="4.77979">
        <ele>173</ele>
        <time>2016-11-28T09:38:13Z</time>
      </trkpt>
      <trkpt lat="45.93836" lon="4.77985">
        <ele>178</ele>
        <time>2016-11-28T09:38:14Z</time>
      </trkpt>
      <trkpt lat="45.93839" lon="4.77992">
        <ele>179</ele>
        <time>2016-11-28T09:38:15Z</time>
      </trkpt>
      <trkpt lat="45.93842" lon="4.78">
        <ele>179</ele>
        <time>2016-11-28T09:38:16Z</time>
      </trkpt>
      <trkpt lat="45.93844" lon="4.78008">
        <ele>181</ele>
        <time>2016-11-28T09:38:17Z</time>
      </trkpt>
      <trkpt lat="45.93845" lon="4.78016">
        <ele>181</ele>
        <time>2016-11-28T09:38:18Z</time>
      </trkpt>
      <trkpt lat="45.93846" lon="4.78025">
        <ele>182</ele>
        <time>2016-11-28T09:38:19Z</time>
      </trkpt>
      <trkpt lat="45.93847" lon="4.78032">
        <ele>182</ele>
        <time>2016-11-28T09:38:20Z</time>
      </trkpt>
      <trkpt lat="45.93848" lon="4.7804">
        <ele>182</ele>
        <time>2016-11-28T09:38:21Z</time>
      </trkpt>
      <trkpt lat="45.93849" lon="4.78047">
        <ele>183</ele>
        <time>2016-11-28T09:38:22Z</time>
      </trkpt>
      <trkpt lat="45.93848" lon="4.78054">
        <ele>183</ele>
        <time>2016-11-28T09:38:23Z</time>
      </trkpt>
      <trkpt lat="45.93847" lon="4.7806">
        <ele>182</ele>
        <time>2016-11-28T09:38:24Z</time>
      </trkpt>
      <trkpt lat="45.93845" lon="4.78066">
        <ele>182</ele>
        <time>2016-11-28T09:38:25Z</time>
      </trkpt>
      <trkpt lat="45.93844" lon="4.78073">
        <ele>182</ele>
        <time>2016-11-28T09:38:26Z</time>
      </trkpt>
      <trkpt lat="45.93842" lon="4.7808">
        <ele>181</ele>
        <time>2016-11-28T09:38:27Z</time>
      </trkpt>
      <trkpt lat="45.93841" lon="4.78087">
        <ele>182</ele>
        <time>2016-11-28T09:38:28Z</time>
      </trkpt>
      <trkpt lat="45.9384" lon="4.78094">
        <ele>182</ele>
        <time>2016-11-28T09:38:29Z</time>
      </trkpt>
      <trkpt lat="45.93838" lon="4.78101">
        <ele>183</ele>
        <time>2016-11-28T09:38:30Z</time>
      </trkpt>
      <trkpt lat="45.93837" lon="4.78109">
        <ele>184</ele>
        <time>2016-11-28T09:38:31Z</time>
      </trkpt>
      <trkpt lat="45.93835" lon="4.78116">
        <ele>184</ele>
        <time>2016-11-28T09:38:32Z</time>
      </trkpt>
      <trkpt lat="45.93833" lon="4.78124">
        <ele>180</ele>
        <time>2016-11-28T09:38:33Z</time>
      </trkpt>
      <trkpt lat="45.93831" lon="4.78131">
        <ele>180</ele>
        <time>2016-11-28T09:38:34Z</time>
      </trkpt>
      <trkpt lat="45.93829" lon="4.78137">
        <ele>180</ele>
        <time>2016-11-28T09:38:35Z</time>
      </trkpt>
      <trkpt lat="45.93827" lon="4.78144">
        <ele>180</ele>
        <time>2016-11-28T09:38:36Z</time>
      </trkpt>
      <trkpt lat="45.93826" lon="4.78151">
        <ele>180</ele>
        <time>2016-11-28T09:38:37Z</time>
      </trkpt>
      <trkpt lat="45.93824" lon="4.78158">
        <ele>181</ele>
        <time>2016-11-28T09:38:38Z</time>
      </trkpt>
      <trkpt lat="45.93823" lon="4.78165">
        <ele>181</ele>
        <time>2016-11-28T09:38:39Z</time>
      </trkpt>
      <trkpt lat="45.93821" lon="4.78172">
        <ele>182</ele>
        <time>2016-11-28T09:38:40Z</time>
      </trkpt>
      <trkpt lat="45.93819" lon="4.78179">
        <ele>182</ele>
        <time>2016-11-28T09:38:41Z</time>
      </trkpt>
      <trkpt lat="45.93818" lon="4.78185">
        <ele>182</ele>
        <time>2016-11-28T09:38:42Z</time>
      </trkpt>
      <trkpt lat="45.93816" lon="4.78191">
        <ele>182</ele>
        <time>2016-11-28T09:38:43Z</time>
      </trkpt>
      <trkpt lat="45.93815" lon="4.78198">
        <ele>182</ele>
        <time>2016-11-28T09:38:44Z</time>
      </trkpt>
      <trkpt lat="45.93813" lon="4.78204">
        <ele>182</ele>
        <time>2016-11-28T09:38:45Z</time>
      </trkpt>
      <trkpt lat="45.93812" lon="4.7821">
        <ele>182</ele>
        <time>2016-11-28T09:38:46Z</time>
      </trkpt>
      <trkpt lat="45.93809" lon="4.78222">
        <ele>182</ele>
        <time>2016-11-28T09:38:48Z</time>
      </trkpt>
      <trkpt lat="45.93806" lon="4.78227">
        <ele>182</ele>
        <time>2016-11-28T09:38:49Z</time>
      </trkpt>
      <trkpt lat="45.93804" lon="4.78233">
        <ele>182</ele>
        <time>2016-11-28T09:38:50Z</time>
      </trkpt>
      <trkpt lat="45.93801" lon="4.78239">
        <ele>182</ele>
        <time>2016-11-28T09:38:51Z</time>
      </trkpt>
      <trkpt lat="45.93799" lon="4.78245">
        <ele>182</ele>
        <time>2016-11-28T09:38:52Z</time>
      </trkpt>
      <trkpt lat="45.93797" lon="4.78251">
        <ele>183</ele>
        <time>2016-11-28T09:38:53Z</time>
      </trkpt>
      <trkpt lat="45.93794" lon="4.78263">
        <ele>183</ele>
        <time>2016-11-28T09:38:55Z</time>
      </trkpt>
      <trkpt lat="45.93793" lon="4.7827">
        <ele>183</ele>
        <time>2016-11-28T09:38:56Z</time>
      </trkpt>
      <trkpt lat="45.93791" lon="4.78277">
        <ele>183</ele>
        <time>2016-11-28T09:38:57Z</time>
      </trkpt>
      <trkpt lat="45.93789" lon="4.78284">
        <ele>183</ele>
        <time>2016-11-28T09:38:58Z</time>
      </trkpt>
      <trkpt lat="45.93787" lon="4.78291">
        <ele>183</ele>
        <time>2016-11-28T09:38:59Z</time>
      </trkpt>
      <trkpt lat="45.93785" lon="4.78298">
        <ele>183</ele>
        <time>2016-11-28T09:39:00Z</time>
      </trkpt>
      <trkpt lat="45.93783" lon="4.78305">
        <ele>183</ele>
        <time>2016-11-28T09:39:01Z</time>
      </trkpt>
      <trkpt lat="45.93781" lon="4.78312">
        <ele>183</ele>
        <time>2016-11-28T09:39:02Z</time>
      </trkpt>
      <trkpt lat="45.93779" lon="4.78318">
        <ele>183</ele>
        <time>2016-11-28T09:39:03Z</time>
      </trkpt>
      <trkpt lat="45.93776" lon="4.78325">
        <ele>183</ele>
        <time>2016-11-28T09:39:04Z</time>
      </trkpt>
      <trkpt lat="45.93775" lon="4.78332">
        <ele>183</ele>
        <time>2016-11-28T09:39:05Z</time>
      </trkpt>
      <trkpt lat="45.93772" lon="4.78339">
        <ele>183</ele>
        <time>2016-11-28T09:39:06Z</time>
      </trkpt>
      <trkpt lat="45.9377" lon="4.78346">
        <ele>183</ele>
        <time>2016-11-28T09:39:07Z</time>
      </trkpt>
      <trkpt lat="45.93768" lon="4.78353">
        <ele>183</ele>
        <time>2016-11-28T09:39:08Z</time>
      </trkpt>
      <trkpt lat="45.93766" lon="4.78361">
        <ele>183</ele>
        <time>2016-11-28T09:39:09Z</time>
      </trkpt>
      <trkpt lat="45.93764" lon="4.78369">
        <ele>183</ele>
        <time>2016-11-28T09:39:10Z</time>
      </trkpt>
      <trkpt lat="45.93762" lon="4.78377">
        <ele>183</ele>
        <time>2016-11-28T09:39:11Z</time>
      </trkpt>
      <trkpt lat="45.9376" lon="4.78385">
        <ele>183</ele>
        <time>2016-11-28T09:39:12Z</time>
      </trkpt>
      <trkpt lat="45.93758" lon="4.78393">
        <ele>183</ele>
        <time>2016-11-28T09:39:13Z</time>
      </trkpt>
      <trkpt lat="45.93756" lon="4.78401">
        <ele>182</ele>
        <time>2016-11-28T09:39:14Z</time>
      </trkpt>
      <trkpt lat="45.93754" lon="4.78409">
        <ele>182</ele>
        <time>2016-11-28T09:39:15Z</time>
      </trkpt>
      <trkpt lat="45.93752" lon="4.78417">
        <ele>181</ele>
        <time>2016-11-28T09:39:16Z</time>
      </trkpt>
      <trkpt lat="45.9375" lon="4.78426">
        <ele>181</ele>
        <time>2016-11-28T09:39:17Z</time>
      </trkpt>
      <trkpt lat="45.93748" lon="4.78434">
        <ele>180</ele>
        <time>2016-11-28T09:39:18Z</time>
      </trkpt>
      <trkpt lat="45.93745" lon="4.78443">
        <ele>180</ele>
        <time>2016-11-28T09:39:19Z</time>
      </trkpt>
      <trkpt lat="45.93743" lon="4.78452">
        <ele>180</ele>
        <time>2016-11-28T09:39:20Z</time>
      </trkpt>
      <trkpt lat="45.93741" lon="4.78462">
        <ele>180</ele>
        <time>2016-11-28T09:39:21Z</time>
      </trkpt>
      <trkpt lat="45.93739" lon="4.78471">
        <ele>180</ele>
        <time>2016-11-28T09:39:22Z</time>
      </trkpt>
      <trkpt lat="45.93736" lon="4.78481">
        <ele>180</ele>
        <time>2016-11-28T09:39:23Z</time>
      </trkpt>
      <trkpt lat="45.93734" lon="4.7849">
        <ele>180</ele>
        <time>2016-11-28T09:39:24Z</time>
      </trkpt>
      <trkpt lat="45.93731" lon="4.785">
        <ele>179</ele>
        <time>2016-11-28T09:39:25Z</time>
      </trkpt>
      <trkpt lat="45.93728" lon="4.7851">
        <ele>179</ele>
        <time>2016-11-28T09:39:26Z</time>
      </trkpt>
      <trkpt lat="45.93726" lon="4.7852">
        <ele>179</ele>
        <time>2016-11-28T09:39:27Z</time>
      </trkpt>
      <trkpt lat="45.93724" lon="4.78529">
        <ele>178</ele>
        <time>2016-11-28T09:39:28Z</time>
      </trkpt>
      <trkpt lat="45.93721" lon="4.78539">
        <ele>178</ele>
        <time>2016-11-28T09:39:29Z</time>
      </trkpt>
      <trkpt lat="45.93719" lon="4.78549">
        <ele>178</ele>
        <time>2016-11-28T09:39:30Z</time>
      </trkpt>
      <trkpt lat="45.93717" lon="4.78558">
        <ele>178</ele>
        <time>2016-11-28T09:39:31Z</time>
      </trkpt>
      <trkpt lat="45.93714" lon="4.78568">
        <ele>178</ele>
        <time>2016-11-28T09:39:32Z</time>
      </trkpt>
      <trkpt lat="45.93712" lon="4.78578">
        <ele>177</ele>
        <time>2016-11-28T09:39:33Z</time>
      </trkpt>
      <trkpt lat="45.9371" lon="4.78587">
        <ele>176</ele>
        <time>2016-11-28T09:39:34Z</time>
      </trkpt>
      <trkpt lat="45.93708" lon="4.78596">
        <ele>176</ele>
        <time>2016-11-28T09:39:35Z</time>
      </trkpt>
      <trkpt lat="45.93706" lon="4.78604">
        <ele>176</ele>
        <time>2016-11-28T09:39:36Z</time>
      </trkpt>
      <trkpt lat="45.93704" lon="4.78611">
        <ele>176</ele>
        <time>2016-11-28T09:39:37Z</time>
      </trkpt>
      <trkpt lat="45.93703" lon="4.78618">
        <ele>176</ele>
        <time>2016-11-28T09:39:38Z</time>
      </trkpt>
      <trkpt lat="45.93703" lon="4.78625">
        <ele>176</ele>
        <time>2016-11-28T09:39:39Z</time>
      </trkpt>
      <trkpt lat="45.93705" lon="4.78631">
        <ele>176</ele>
        <time>2016-11-28T09:39:40Z</time>
      </trkpt>
      <trkpt lat="45.93712" lon="4.78636">
        <ele>176</ele>
        <time>2016-11-28T09:39:42Z</time>
      </trkpt>
      <trkpt lat="45.93715" lon="4.78635">
        <ele>176</ele>
        <time>2016-11-28T09:39:43Z</time>
      </trkpt>
      <trkpt lat="45.93722" lon="4.78631">
        <ele>177</ele>
        <time>2016-11-28T09:39:45Z</time>
      </trkpt>
      <trkpt lat="45.93725" lon="4.7863">
        <ele>177</ele>
        <time>2016-11-28T09:39:46Z</time>
      </trkpt>
      <trkpt lat="45.93733" lon="4.78627">
        <ele>177</ele>
        <time>2016-11-28T09:39:48Z</time>
      </trkpt>
      <trkpt lat="45.93737" lon="4.78627">
        <ele>177</ele>
        <time>2016-11-28T09:39:49Z</time>
      </trkpt>
      <trkpt lat="45.93744" lon="4.78624">
        <ele>177</ele>
        <time>2016-11-28T09:39:51Z</time>
      </trkpt>
      <trkpt lat="45.93748" lon="4.78623">
        <ele>177</ele>
        <time>2016-11-28T09:39:52Z</time>
      </trkpt>
      <trkpt lat="45.93756" lon="4.78622">
        <ele>181</ele>
        <time>2016-11-28T09:39:54Z</time>
      </trkpt>
      <trkpt lat="45.9376" lon="4.78621">
        <ele>181</ele>
        <time>2016-11-28T09:39:55Z</time>
      </trkpt>
      <trkpt lat="45.93766" lon="4.78619">
        <ele>181</ele>
        <time>2016-11-28T09:39:57Z</time>
      </trkpt>
      <trkpt lat="45.9377" lon="4.78618">
        <ele>181</ele>
        <time>2016-11-28T09:39:58Z</time>
      </trkpt>
      <trkpt lat="45.93778" lon="4.78616">
        <ele>181</ele>
        <time>2016-11-28T09:40:00Z</time>
      </trkpt>
      <trkpt lat="45.93782" lon="4.78615">
        <ele>181</ele>
        <time>2016-11-28T09:40:01Z</time>
      </trkpt>
      <trkpt lat="45.93788" lon="4.78615">
        <ele>182</ele>
        <time>2016-11-28T09:40:03Z</time>
      </trkpt>
      <trkpt lat="45.93792" lon="4.78614">
        <ele>182</ele>
        <time>2016-11-28T09:40:04Z</time>
      </trkpt>
      <trkpt lat="45.93799" lon="4.78612">
        <ele>182</ele>
        <time>2016-11-28T09:40:06Z</time>
      </trkpt>
      <trkpt lat="45.93802" lon="4.78611">
        <ele>182</ele>
        <time>2016-11-28T09:40:07Z</time>
      </trkpt>
      <trkpt lat="45.93809" lon="4.78609">
        <ele>183</ele>
        <time>2016-11-28T09:40:09Z</time>
      </trkpt>
      <trkpt lat="45.93812" lon="4.78607">
        <ele>183</ele>
        <time>2016-11-28T09:40:10Z</time>
      </trkpt>
      <trkpt lat="45.93818" lon="4.78606">
        <ele>183</ele>
        <time>2016-11-28T09:40:12Z</time>
      </trkpt>
      <trkpt lat="45.93822" lon="4.78605">
        <ele>184</ele>
        <time>2016-11-28T09:40:13Z</time>
      </trkpt>
      <trkpt lat="45.93827" lon="4.78602">
        <ele>184</ele>
        <time>2016-11-28T09:40:15Z</time>
      </trkpt>
      <trkpt lat="45.9383" lon="4.78601">
        <ele>184</ele>
        <time>2016-11-28T09:40:16Z</time>
      </trkpt>
      <trkpt lat="45.93836" lon="4.78601">
        <ele>187</ele>
        <time>2016-11-28T09:40:18Z</time>
      </trkpt>
      <trkpt lat="45.93839" lon="4.786">
        <ele>187</ele>
        <time>2016-11-28T09:40:19Z</time>
      </trkpt>
      <trkpt lat="45.93848" lon="4.78598">
        <ele>188</ele>
        <time>2016-11-28T09:40:22Z</time>
      </trkpt>
      <trkpt lat="45.9385" lon="4.78598">
        <ele>188</ele>
        <time>2016-11-28T09:40:23Z</time>
      </trkpt>
      <trkpt lat="45.93859" lon="4.78596">
        <ele>188</ele>
        <time>2016-11-28T09:40:26Z</time>
      </trkpt>
      <trkpt lat="45.93862" lon="4.78595">
        <ele>188</ele>
        <time>2016-11-28T09:40:27Z</time>
      </trkpt>
      <trkpt lat="45.93868" lon="4.78594">
        <ele>188</ele>
        <time>2016-11-28T09:40:29Z</time>
      </trkpt>
      <trkpt lat="45.93871" lon="4.78593">
        <ele>189</ele>
        <time>2016-11-28T09:40:30Z</time>
      </trkpt>
      <trkpt lat="45.93877" lon="4.78592">
        <ele>189</ele>
        <time>2016-11-28T09:40:32Z</time>
      </trkpt>
      <trkpt lat="45.9388" lon="4.78591">
        <ele>189</ele>
        <time>2016-11-28T09:40:33Z</time>
      </trkpt>
      <trkpt lat="45.93889" lon="4.78588">
        <ele>190</ele>
        <time>2016-11-28T09:40:36Z</time>
      </trkpt>
      <trkpt lat="45.93891" lon="4.78587">
        <ele>190</ele>
        <time>2016-11-28T09:40:37Z</time>
      </trkpt>
      <trkpt lat="45.939" lon="4.78585">
        <ele>191</ele>
        <time>2016-11-28T09:40:41Z</time>
      </trkpt>
      <trkpt lat="45.93902" lon="4.78585">
        <ele>191</ele>
        <time>2016-11-28T09:40:42Z</time>
      </trkpt>
      <trkpt lat="45.93909" lon="4.78582">
        <ele>193</ele>
        <time>2016-11-28T09:40:45Z</time>
      </trkpt>
      <trkpt lat="45.93911" lon="4.7858">
        <ele>193</ele>
        <time>2016-11-28T09:40:46Z</time>
      </trkpt>
      <trkpt lat="45.93917" lon="4.78576">
        <ele>194</ele>
        <time>2016-11-28T09:40:49Z</time>
      </trkpt>
      <trkpt lat="45.9392" lon="4.78574">
        <ele>195</ele>
        <time>2016-11-28T09:40:50Z</time>
      </trkpt>
      <trkpt lat="45.93927" lon="4.78573">
        <ele>195</ele>
        <time>2016-11-28T09:40:53Z</time>
      </trkpt>
      <trkpt lat="45.93929" lon="4.78574">
        <ele>195</ele>
        <time>2016-11-28T09:40:54Z</time>
      </trkpt>
      <trkpt lat="45.93933" lon="4.78582">
        <ele>196</ele>
        <time>2016-11-28T09:40:57Z</time>
      </trkpt>
      <trkpt lat="45.93934" lon="4.78585">
        <ele>195</ele>
        <time>2016-11-28T09:40:58Z</time>
      </trkpt>
      <trkpt lat="45.93934" lon="4.78593">
        <ele>195</ele>
        <time>2016-11-28T09:41:00Z</time>
      </trkpt>
      <trkpt lat="45.93934" lon="4.78599">
        <ele>195</ele>
        <time>2016-11-28T09:41:01Z</time>
      </trkpt>
      <trkpt lat="45.93934" lon="4.7861">
        <ele>195</ele>
        <time>2016-11-28T09:41:03Z</time>
      </trkpt>
      <trkpt lat="45.93934" lon="4.78615">
        <ele>195</ele>
        <time>2016-11-28T09:41:04Z</time>
      </trkpt>
      <trkpt lat="45.93935" lon="4.78626">
        <ele>195</ele>
        <time>2016-11-28T09:41:06Z</time>
      </trkpt>
      <trkpt lat="45.93935" lon="4.78632">
        <ele>195</ele>
        <time>2016-11-28T09:41:07Z</time>
      </trkpt>
      <trkpt lat="45.93935" lon="4.78643">
        <ele>195</ele>
        <time>2016-11-28T09:41:09Z</time>
      </trkpt>
      <trkpt lat="45.93936" lon="4.78649">
        <ele>194</ele>
        <time>2016-11-28T09:41:10Z</time>
      </trkpt>
      <trkpt lat="45.93937" lon="4.78662">
        <ele>194</ele>
        <time>2016-11-28T09:41:12Z</time>
      </trkpt>
      <trkpt lat="45.93937" lon="4.78668">
        <ele>193</ele>
        <time>2016-11-28T09:41:13Z</time>
      </trkpt>
      <trkpt lat="45.93937" lon="4.7868">
        <ele>193</ele>
        <time>2016-11-28T09:41:15Z</time>
      </trkpt>
      <trkpt lat="45.93936" lon="4.78686">
        <ele>194</ele>
        <time>2016-11-28T09:41:16Z</time>
      </trkpt>
      <trkpt lat="45.93936" lon="4.78692">
        <ele>194</ele>
        <time>2016-11-28T09:41:17Z</time>
      </trkpt>
      <trkpt lat="45.93935" lon="4.78699">
        <ele>194</ele>
        <time>2016-11-28T09:41:18Z</time>
      </trkpt>
      <trkpt lat="45.93935" lon="4.78706">
        <ele>194</ele>
        <time>2016-11-28T09:41:19Z</time>
      </trkpt>
      <trkpt lat="45.93934" lon="4.78713">
        <ele>194</ele>
        <time>2016-11-28T09:41:20Z</time>
      </trkpt>
      <trkpt lat="45.93934" lon="4.7872">
        <ele>194</ele>
        <time>2016-11-28T09:41:21Z</time>
      </trkpt>
      <trkpt lat="45.93934" lon="4.78727">
        <ele>194</ele>
        <time>2016-11-28T09:41:22Z</time>
      </trkpt>
      <trkpt lat="45.93934" lon="4.78734">
        <ele>193</ele>
        <time>2016-11-28T09:41:23Z</time>
      </trkpt>
      <trkpt lat="45.93934" lon="4.78741">
        <ele>193</ele>
        <time>2016-11-28T09:41:24Z</time>
      </trkpt>
      <trkpt lat="45.93934" lon="4.78748">
        <ele>193</ele>
        <time>2016-11-28T09:41:25Z</time>
      </trkpt>
      <trkpt lat="45.93936" lon="4.78754">
        <ele>193</ele>
        <time>2016-11-28T09:41:26Z</time>
      </trkpt>
      <trkpt lat="45.93936" lon="4.78761">
        <ele>193</ele>
        <time>2016-11-28T09:41:27Z</time>
      </trkpt>
      <trkpt lat="45.93935" lon="4.78768">
        <ele>193</ele>
        <time>2016-11-28T09:41:28Z</time>
      </trkpt>
      <trkpt lat="45.93935" lon="4.78774">
        <ele>194</ele>
        <time>2016-11-28T09:41:29Z</time>
      </trkpt>
      <trkpt lat="45.93935" lon="4.78781">
        <ele>194</ele>
        <time>2016-11-28T09:41:30Z</time>
      </trkpt>
      <trkpt lat="45.93936" lon="4.78794">
        <ele>194</ele>
        <time>2016-11-28T09:41:32Z</time>
      </trkpt>
      <trkpt lat="45.93936" lon="4.788">
        <ele>194</ele>
        <time>2016-11-28T09:41:33Z</time>
      </trkpt>
      <trkpt lat="45.93937" lon="4.78813">
        <ele>194</ele>
        <time>2016-11-28T09:41:35Z</time>
      </trkpt>
      <trkpt lat="45.93936" lon="4.78819">
        <ele>193</ele>
        <time>2016-11-28T09:41:36Z</time>
      </trkpt>
      <trkpt lat="45.93936" lon="4.78825">
        <ele>193</ele>
        <time>2016-11-28T09:41:37Z</time>
      </trkpt>
      <trkpt lat="45.93937" lon="4.78832">
        <ele>193</ele>
        <time>2016-11-28T09:41:38Z</time>
      </trkpt>
      <trkpt lat="45.93937" lon="4.78844">
        <ele>193</ele>
        <time>2016-11-28T09:41:40Z</time>
      </trkpt>
      <trkpt lat="45.93937" lon="4.78851">
        <ele>193</ele>
        <time>2016-11-28T09:41:41Z</time>
      </trkpt>
      <trkpt lat="45.93937" lon="4.78857">
        <ele>193</ele>
        <time>2016-11-28T09:41:42Z</time>
      </trkpt>
      <trkpt lat="45.93937" lon="4.78864">
        <ele>194</ele>
        <time>2016-11-28T09:41:43Z</time>
      </trkpt>
      <trkpt lat="45.93938" lon="4.78877">
        <ele>194</ele>
        <time>2016-11-28T09:41:45Z</time>
      </trkpt>
      <trkpt lat="45.93938" lon="4.78883">
        <ele>193</ele>
        <time>2016-11-28T09:41:46Z</time>
      </trkpt>
      <trkpt lat="45.93938" lon="4.78896">
        <ele>193</ele>
        <time>2016-11-28T09:41:48Z</time>
      </trkpt>
      <trkpt lat="45.93938" lon="4.78902">
        <ele>193</ele>
        <time>2016-11-28T09:41:49Z</time>
      </trkpt>
      <trkpt lat="45.93939" lon="4.78914">
        <ele>193</ele>
        <time>2016-11-28T09:41:51Z</time>
      </trkpt>
      <trkpt lat="45.93939" lon="4.7892">
        <ele>193</ele>
        <time>2016-11-28T09:41:52Z</time>
      </trkpt>
      <trkpt lat="45.93939" lon="4.78933">
        <ele>193</ele>
        <time>2016-11-28T09:41:54Z</time>
      </trkpt>
      <trkpt lat="45.93939" lon="4.78939">
        <ele>193</ele>
        <time>2016-11-28T09:41:55Z</time>
      </trkpt>
      <trkpt lat="45.9394" lon="4.78952">
        <ele>194</ele>
        <time>2016-11-28T09:41:57Z</time>
      </trkpt>
      <trkpt lat="45.9394" lon="4.78959">
        <ele>194</ele>
        <time>2016-11-28T09:41:58Z</time>
      </trkpt>
      <trkpt lat="45.93941" lon="4.78971">
        <ele>194</ele>
        <time>2016-11-28T09:42:00Z</time>
      </trkpt>
      <trkpt lat="45.93941" lon="4.78977">
        <ele>194</ele>
        <time>2016-11-28T09:42:01Z</time>
      </trkpt>
      <trkpt lat="45.93941" lon="4.78985">
        <ele>194</ele>
        <time>2016-11-28T09:42:02Z</time>
      </trkpt>
      <trkpt lat="45.93942" lon="4.78991">
        <ele>193</ele>
        <time>2016-11-28T09:42:03Z</time>
      </trkpt>
      <trkpt lat="45.93943" lon="4.79004">
        <ele>194</ele>
        <time>2016-11-28T09:42:05Z</time>
      </trkpt>
      <trkpt lat="45.93943" lon="4.7901">
        <ele>195</ele>
        <time>2016-11-28T09:42:06Z</time>
      </trkpt>
      <trkpt lat="45.93944" lon="4.79023">
        <ele>195</ele>
        <time>2016-11-28T09:42:08Z</time>
      </trkpt>
      <trkpt lat="45.93945" lon="4.79029">
        <ele>195</ele>
        <time>2016-11-28T09:42:09Z</time>
      </trkpt>
      <trkpt lat="45.93946" lon="4.7904">
        <ele>195</ele>
        <time>2016-11-28T09:42:11Z</time>
      </trkpt>
      <trkpt lat="45.93946" lon="4.79046">
        <ele>196</ele>
        <time>2016-11-28T09:42:12Z</time>
      </trkpt>
      <trkpt lat="45.93946" lon="4.79053">
        <ele>196</ele>
        <time>2016-11-28T09:42:13Z</time>
      </trkpt>
      <trkpt lat="45.93947" lon="4.79059">
        <ele>196</ele>
        <time>2016-11-28T09:42:14Z</time>
      </trkpt>
      <trkpt lat="45.93947" lon="4.79071">
        <ele>196</ele>
        <time>2016-11-28T09:42:16Z</time>
      </trkpt>
      <trkpt lat="45.93946" lon="4.79078">
        <ele>195</ele>
        <time>2016-11-28T09:42:17Z</time>
      </trkpt>
      <trkpt lat="45.93947" lon="4.7909">
        <ele>196</ele>
        <time>2016-11-28T09:42:19Z</time>
      </trkpt>
      <trkpt lat="45.93947" lon="4.79096">
        <ele>196</ele>
        <time>2016-11-28T09:42:20Z</time>
      </trkpt>
      <trkpt lat="45.93948" lon="4.79108">
        <ele>196</ele>
        <time>2016-11-28T09:42:22Z</time>
      </trkpt>
      <trkpt lat="45.93949" lon="4.79114">
        <ele>197</ele>
        <time>2016-11-28T09:42:23Z</time>
      </trkpt>
      <trkpt lat="45.93948" lon="4.79121">
        <ele>197</ele>
        <time>2016-11-28T09:42:24Z</time>
      </trkpt>
      <trkpt lat="45.93946" lon="4.79128">
        <ele>196</ele>
        <time>2016-11-28T09:42:25Z</time>
      </trkpt>
      <trkpt lat="45.93945" lon="4.79141">
        <ele>196</ele>
        <time>2016-11-28T09:42:27Z</time>
      </trkpt>
      <trkpt lat="45.93945" lon="4.79147">
        <ele>196</ele>
        <time>2016-11-28T09:42:28Z</time>
      </trkpt>
      <trkpt lat="45.93946" lon="4.79158">
        <ele>196</ele>
        <time>2016-11-28T09:42:30Z</time>
      </trkpt>
      <trkpt lat="45.93947" lon="4.79164">
        <ele>196</ele>
        <time>2016-11-28T09:42:31Z</time>
      </trkpt>
      <trkpt lat="45.93948" lon="4.79176">
        <ele>196</ele>
        <time>2016-11-28T09:42:33Z</time>
      </trkpt>
      <trkpt lat="45.93948" lon="4.79184">
        <ele>197</ele>
        <time>2016-11-28T09:42:34Z</time>
      </trkpt>
      <trkpt lat="45.93948" lon="4.79191">
        <ele>197</ele>
        <time>2016-11-28T09:42:35Z</time>
      </trkpt>
      <trkpt lat="45.93948" lon="4.79197">
        <ele>197</ele>
        <time>2016-11-28T09:42:36Z</time>
      </trkpt>
      <trkpt lat="45.93949" lon="4.7921">
        <ele>197</ele>
        <time>2016-11-28T09:42:38Z</time>
      </trkpt>
      <trkpt lat="45.93949" lon="4.79216">
        <ele>197</ele>
        <time>2016-11-28T09:42:39Z</time>
      </trkpt>
      <trkpt lat="45.93949" lon="4.79227">
        <ele>197</ele>
        <time>2016-11-28T09:42:41Z</time>
      </trkpt>
      <trkpt lat="45.93949" lon="4.79233">
        <ele>197</ele>
        <time>2016-11-28T09:42:42Z</time>
      </trkpt>
      <trkpt lat="45.9395" lon="4.79244">
        <ele>197</ele>
        <time>2016-11-28T09:42:44Z</time>
      </trkpt>
      <trkpt lat="45.93951" lon="4.7925">
        <ele>197</ele>
        <time>2016-11-28T09:42:45Z</time>
      </trkpt>
      <trkpt lat="45.93951" lon="4.7926">
        <ele>198</ele>
        <time>2016-11-28T09:42:47Z</time>
      </trkpt>
      <trkpt lat="45.93952" lon="4.79266">
        <ele>198</ele>
        <time>2016-11-28T09:42:48Z</time>
      </trkpt>
      <trkpt lat="45.93951" lon="4.79277">
        <ele>198</ele>
        <time>2016-11-28T09:42:50Z</time>
      </trkpt>
      <trkpt lat="45.93951" lon="4.79283">
        <ele>198</ele>
        <time>2016-11-28T09:42:51Z</time>
      </trkpt>
      <trkpt lat="45.93951" lon="4.79294">
        <ele>198</ele>
        <time>2016-11-28T09:42:53Z</time>
      </trkpt>
      <trkpt lat="45.93951" lon="4.793">
        <ele>198</ele>
        <time>2016-11-28T09:42:54Z</time>
      </trkpt>
      <trkpt lat="45.9395" lon="4.79311">
        <ele>198</ele>
        <time>2016-11-28T09:42:56Z</time>
      </trkpt>
      <trkpt lat="45.9395" lon="4.79317">
        <ele>198</ele>
        <time>2016-11-28T09:42:57Z</time>
      </trkpt>
      <trkpt lat="45.93949" lon="4.79328">
        <ele>198</ele>
        <time>2016-11-28T09:42:59Z</time>
      </trkpt>
      <trkpt lat="45.93949" lon="4.79334">
        <ele>200</ele>
        <time>2016-11-28T09:43:00Z</time>
      </trkpt>
      <trkpt lat="45.93949" lon="4.79345">
        <ele>200</ele>
        <time>2016-11-28T09:43:02Z</time>
      </trkpt>
      <trkpt lat="45.93949" lon="4.79351">
        <ele>200</ele>
        <time>2016-11-28T09:43:03Z</time>
      </trkpt>
      <trkpt lat="45.93949" lon="4.79362">
        <ele>200</ele>
        <time>2016-11-28T09:43:05Z</time>
      </trkpt>
      <trkpt lat="45.93949" lon="4.79367">
        <ele>200</ele>
        <time>2016-11-28T09:43:06Z</time>
      </trkpt>
      <trkpt lat="45.93949" lon="4.79378">
        <ele>201</ele>
        <time>2016-11-28T09:43:08Z</time>
      </trkpt>
      <trkpt lat="45.93949" lon="4.79384">
        <ele>201</ele>
        <time>2016-11-28T09:43:09Z</time>
      </trkpt>
      <trkpt lat="45.93952" lon="4.79394">
        <ele>201</ele>
        <time>2016-11-28T09:43:11Z</time>
      </trkpt>
      <trkpt lat="45.93952" lon="4.79399">
        <ele>201</ele>
        <time>2016-11-28T09:43:12Z</time>
      </trkpt>
      <trkpt lat="45.93951" lon="4.79411">
        <ele>201</ele>
        <time>2016-11-28T09:43:14Z</time>
      </trkpt>
      <trkpt lat="45.93951" lon="4.79417">
        <ele>201</ele>
        <time>2016-11-28T09:43:15Z</time>
      </trkpt>
      <trkpt lat="45.93951" lon="4.79427">
        <ele>202</ele>
        <time>2016-11-28T09:43:17Z</time>
      </trkpt>
      <trkpt lat="45.93951" lon="4.79433">
        <ele>202</ele>
        <time>2016-11-28T09:43:18Z</time>
      </trkpt>
      <trkpt lat="45.9395" lon="4.79444">
        <ele>202</ele>
        <time>2016-11-28T09:43:20Z</time>
      </trkpt>
      <trkpt lat="45.9395" lon="4.7945">
        <ele>202</ele>
        <time>2016-11-28T09:43:21Z</time>
      </trkpt>
      <trkpt lat="45.9395" lon="4.79461">
        <ele>202</ele>
        <time>2016-11-28T09:43:23Z</time>
      </trkpt>
      <trkpt lat="45.9395" lon="4.79466">
        <ele>202</ele>
        <time>2016-11-28T09:43:24Z</time>
      </trkpt>
      <trkpt lat="45.93949" lon="4.79478">
        <ele>202</ele>
        <time>2016-11-28T09:43:26Z</time>
      </trkpt>
      <trkpt lat="45.93949" lon="4.79484">
        <ele>202</ele>
        <time>2016-11-28T09:43:27Z</time>
      </trkpt>
      <trkpt lat="45.9395" lon="4.79495">
        <ele>202</ele>
        <time>2016-11-28T09:43:29Z</time>
      </trkpt>
      <trkpt lat="45.93951" lon="4.79501">
        <ele>204</ele>
        <time>2016-11-28T09:43:30Z</time>
      </trkpt>
      <trkpt lat="45.93952" lon="4.79512">
        <ele>204</ele>
        <time>2016-11-28T09:43:32Z</time>
      </trkpt>
      <trkpt lat="45.93952" lon="4.79518">
        <ele>204</ele>
        <time>2016-11-28T09:43:33Z</time>
      </trkpt>
      <trkpt lat="45.93954" lon="4.7953">
        <ele>204</ele>
        <time>2016-11-28T09:43:35Z</time>
      </trkpt>
      <trkpt lat="45.93954" lon="4.79536">
        <ele>205</ele>
        <time>2016-11-28T09:43:36Z</time>
      </trkpt>
      <trkpt lat="45.93955" lon="4.79548">
        <ele>205</ele>
        <time>2016-11-28T09:43:38Z</time>
      </trkpt>
      <trkpt lat="45.93955" lon="4.79553">
        <ele>205</ele>
        <time>2016-11-28T09:43:39Z</time>
      </trkpt>
      <trkpt lat="45.93956" lon="4.79564">
        <ele>205</ele>
        <time>2016-11-28T09:43:41Z</time>
      </trkpt>
      <trkpt lat="45.93956" lon="4.7957">
        <ele>205</ele>
        <time>2016-11-28T09:43:42Z</time>
      </trkpt>
      <trkpt lat="45.93957" lon="4.7958">
        <ele>205</ele>
        <time>2016-11-28T09:43:44Z</time>
      </trkpt>
      <trkpt lat="45.93958" lon="4.79585">
        <ele>207</ele>
        <time>2016-11-28T09:43:45Z</time>
      </trkpt>
      <trkpt lat="45.93959" lon="4.79596">
        <ele>207</ele>
        <time>2016-11-28T09:43:47Z</time>
      </trkpt>
      <trkpt lat="45.93959" lon="4.79601">
        <ele>207</ele>
        <time>2016-11-28T09:43:48Z</time>
      </trkpt>
      <trkpt lat="45.9396" lon="4.79612">
        <ele>207</ele>
        <time>2016-11-28T09:43:50Z</time>
      </trkpt>
      <trkpt lat="45.9396" lon="4.79617">
        <ele>207</ele>
        <time>2016-11-28T09:43:51Z</time>
      </trkpt>
      <trkpt lat="45.9396" lon="4.79628">
        <ele>207</ele>
        <time>2016-11-28T09:43:53Z</time>
      </trkpt>
      <trkpt lat="45.9396" lon="4.79633">
        <ele>207</ele>
        <time>2016-11-28T09:43:54Z</time>
      </trkpt>
      <trkpt lat="45.93959" lon="4.79644">
        <ele>207</ele>
        <time>2016-11-28T09:43:56Z</time>
      </trkpt>
      <trkpt lat="45.93959" lon="4.7965">
        <ele>207</ele>
        <time>2016-11-28T09:43:57Z</time>
      </trkpt>
      <trkpt lat="45.9396" lon="4.79661">
        <ele>207</ele>
        <time>2016-11-28T09:43:59Z</time>
      </trkpt>
      <trkpt lat="45.93961" lon="4.79666">
        <ele>207</ele>
        <time>2016-11-28T09:44:00Z</time>
      </trkpt>
      <trkpt lat="45.93963" lon="4.79676">
        <ele>207</ele>
        <time>2016-11-28T09:44:02Z</time>
      </trkpt>
      <trkpt lat="45.93964" lon="4.79682">
        <ele>207</ele>
        <time>2016-11-28T09:44:03Z</time>
      </trkpt>
      <trkpt lat="45.93966" lon="4.79693">
        <ele>207</ele>
        <time>2016-11-28T09:44:05Z</time>
      </trkpt>
      <trkpt lat="45.93965" lon="4.79699">
        <ele>207</ele>
        <time>2016-11-28T09:44:06Z</time>
      </trkpt>
      <trkpt lat="45.93966" lon="4.79709">
        <ele>207</ele>
        <time>2016-11-28T09:44:08Z</time>
      </trkpt>
      <trkpt lat="45.93966" lon="4.79714">
        <ele>207</ele>
        <time>2016-11-28T09:44:09Z</time>
      </trkpt>
      <trkpt lat="45.93967" lon="4.79724">
        <ele>206</ele>
        <time>2016-11-28T09:44:11Z</time>
      </trkpt>
      <trkpt lat="45.93967" lon="4.79729">
        <ele>206</ele>
        <time>2016-11-28T09:44:12Z</time>
      </trkpt>
      <trkpt lat="45.93969" lon="4.79739">
        <ele>206</ele>
        <time>2016-11-28T09:44:14Z</time>
      </trkpt>
      <trkpt lat="45.93969" lon="4.79744">
        <ele>206</ele>
        <time>2016-11-28T09:44:15Z</time>
      </trkpt>
      <trkpt lat="45.93971" lon="4.79756">
        <ele>206</ele>
        <time>2016-11-28T09:44:17Z</time>
      </trkpt>
      <trkpt lat="45.93971" lon="4.79762">
        <ele>206</ele>
        <time>2016-11-28T09:44:18Z</time>
      </trkpt>
      <trkpt lat="45.93971" lon="4.79774">
        <ele>206</ele>
        <time>2016-11-28T09:44:20Z</time>
      </trkpt>
      <trkpt lat="45.93971" lon="4.79781">
        <ele>206</ele>
        <time>2016-11-28T09:44:21Z</time>
      </trkpt>
      <trkpt lat="45.93971" lon="4.79793">
        <ele>206</ele>
        <time>2016-11-28T09:44:23Z</time>
      </trkpt>
      <trkpt lat="45.9397" lon="4.798">
        <ele>206</ele>
        <time>2016-11-28T09:44:24Z</time>
      </trkpt>
      <trkpt lat="45.93969" lon="4.79807">
        <ele>206</ele>
        <time>2016-11-28T09:44:25Z</time>
      </trkpt>
      <trkpt lat="45.93968" lon="4.79814">
        <ele>207</ele>
        <time>2016-11-28T09:44:26Z</time>
      </trkpt>
      <trkpt lat="45.93968" lon="4.79821">
        <ele>207</ele>
        <time>2016-11-28T09:44:27Z</time>
      </trkpt>
      <trkpt lat="45.93967" lon="4.79828">
        <ele>207</ele>
        <time>2016-11-28T09:44:28Z</time>
      </trkpt>
      <trkpt lat="45.93966" lon="4.79835">
        <ele>206</ele>
        <time>2016-11-28T09:44:29Z</time>
      </trkpt>
      <trkpt lat="45.93965" lon="4.79842">
        <ele>206</ele>
        <time>2016-11-28T09:44:30Z</time>
      </trkpt>
      <trkpt lat="45.93964" lon="4.7985">
        <ele>206</ele>
        <time>2016-11-28T09:44:31Z</time>
      </trkpt>
      <trkpt lat="45.93963" lon="4.79857">
        <ele>206</ele>
        <time>2016-11-28T09:44:32Z</time>
      </trkpt>
      <trkpt lat="45.93961" lon="4.79864">
        <ele>206</ele>
        <time>2016-11-28T09:44:33Z</time>
      </trkpt>
      <trkpt lat="45.9396" lon="4.79871">
        <ele>206</ele>
        <time>2016-11-28T09:44:34Z</time>
      </trkpt>
      <trkpt lat="45.93959" lon="4.79878">
        <ele>206</ele>
        <time>2016-11-28T09:44:35Z</time>
      </trkpt>
      <trkpt lat="45.93958" lon="4.79885">
        <ele>206</ele>
        <time>2016-11-28T09:44:36Z</time>
      </trkpt>
      <trkpt lat="45.93956" lon="4.79891">
        <ele>206</ele>
        <time>2016-11-28T09:44:37Z</time>
      </trkpt>
      <trkpt lat="45.93955" lon="4.79898">
        <ele>205</ele>
        <time>2016-11-28T09:44:38Z</time>
      </trkpt>
      <trkpt lat="45.93954" lon="4.79904">
        <ele>205</ele>
        <time>2016-11-28T09:44:39Z</time>
      </trkpt>
      <trkpt lat="45.93952" lon="4.7991">
        <ele>205</ele>
        <time>2016-11-28T09:44:40Z</time>
      </trkpt>
      <trkpt lat="45.93951" lon="4.79917">
        <ele>205</ele>
        <time>2016-11-28T09:44:41Z</time>
      </trkpt>
      <trkpt lat="45.93949" lon="4.79923">
        <ele>205</ele>
        <time>2016-11-28T09:44:42Z</time>
      </trkpt>
      <trkpt lat="45.93947" lon="4.7993">
        <ele>205</ele>
        <time>2016-11-28T09:44:43Z</time>
      </trkpt>
      <trkpt lat="45.93946" lon="4.79936">
        <ele>205</ele>
        <time>2016-11-28T09:44:44Z</time>
      </trkpt>
      <trkpt lat="45.93945" lon="4.79943">
        <ele>205</ele>
        <time>2016-11-28T09:44:45Z</time>
      </trkpt>
      <trkpt lat="45.93944" lon="4.7995">
        <ele>205</ele>
        <time>2016-11-28T09:44:46Z</time>
      </trkpt>
      <trkpt lat="45.93943" lon="4.79956">
        <ele>205</ele>
        <time>2016-11-28T09:44:47Z</time>
      </trkpt>
      <trkpt lat="45.93942" lon="4.79962">
        <ele>205</ele>
        <time>2016-11-28T09:44:48Z</time>
      </trkpt>
      <trkpt lat="45.93942" lon="4.79969">
        <ele>205</ele>
        <time>2016-11-28T09:44:49Z</time>
      </trkpt>
      <trkpt lat="45.93941" lon="4.79976">
        <ele>205</ele>
        <time>2016-11-28T09:44:50Z</time>
      </trkpt>
      <trkpt lat="45.9394" lon="4.79982">
        <ele>204</ele>
        <time>2016-11-28T09:44:51Z</time>
      </trkpt>
      <trkpt lat="45.93938" lon="4.79988">
        <ele>204</ele>
        <time>2016-11-28T09:44:52Z</time>
      </trkpt>
      <trkpt lat="45.93938" lon="4.79995">
        <ele>204</ele>
        <time>2016-11-28T09:44:53Z</time>
      </trkpt>
      <trkpt lat="45.93937" lon="4.80001">
        <ele>205</ele>
        <time>2016-11-28T09:44:54Z</time>
      </trkpt>
      <trkpt lat="45.93936" lon="4.80008">
        <ele>205</ele>
        <time>2016-11-28T09:44:55Z</time>
      </trkpt>
      <trkpt lat="45.93935" lon="4.80015">
        <ele>205</ele>
        <time>2016-11-28T09:44:56Z</time>
      </trkpt>
      <trkpt lat="45.93934" lon="4.80022">
        <ele>206</ele>
        <time>2016-11-28T09:44:57Z</time>
      </trkpt>
      <trkpt lat="45.93934" lon="4.80029">
        <ele>206</ele>
        <time>2016-11-28T09:44:58Z</time>
      </trkpt>
      <trkpt lat="45.93934" lon="4.80035">
        <ele>207</ele>
        <time>2016-11-28T09:44:59Z</time>
      </trkpt>
      <trkpt lat="45.93934" lon="4.80042">
        <ele>207</ele>
        <time>2016-11-28T09:45:00Z</time>
      </trkpt>
      <trkpt lat="45.93934" lon="4.80049">
        <ele>207</ele>
        <time>2016-11-28T09:45:01Z</time>
      </trkpt>
      <trkpt lat="45.93934" lon="4.80055">
        <ele>207</ele>
        <time>2016-11-28T09:45:02Z</time>
      </trkpt>
      <trkpt lat="45.93934" lon="4.80062">
        <ele>207</ele>
        <time>2016-11-28T09:45:03Z</time>
      </trkpt>
      <trkpt lat="45.93934" lon="4.80069">
        <ele>207</ele>
        <time>2016-11-28T09:45:04Z</time>
      </trkpt>
      <trkpt lat="45.93935" lon="4.80076">
        <ele>207</ele>
        <time>2016-11-28T09:45:05Z</time>
      </trkpt>
      <trkpt lat="45.93935" lon="4.80083">
        <ele>207</ele>
        <time>2016-11-28T09:45:06Z</time>
      </trkpt>
      <trkpt lat="45.93936" lon="4.80091">
        <ele>208</ele>
        <time>2016-11-28T09:45:07Z</time>
      </trkpt>
      <trkpt lat="45.93937" lon="4.80098">
        <ele>208</ele>
        <time>2016-11-28T09:45:08Z</time>
      </trkpt>
      <trkpt lat="45.93938" lon="4.80105">
        <ele>208</ele>
        <time>2016-11-28T09:45:09Z</time>
      </trkpt>
      <trkpt lat="45.93939" lon="4.80112">
        <ele>208</ele>
        <time>2016-11-28T09:45:10Z</time>
      </trkpt>
      <trkpt lat="45.93941" lon="4.80119">
        <ele>209</ele>
        <time>2016-11-28T09:45:11Z</time>
      </trkpt>
      <trkpt lat="45.93941" lon="4.80126">
        <ele>209</ele>
        <time>2016-11-28T09:45:12Z</time>
      </trkpt>
      <trkpt lat="45.93943" lon="4.80132">
        <ele>208</ele>
        <time>2016-11-28T09:45:13Z</time>
      </trkpt>
      <trkpt lat="45.93944" lon="4.80139">
        <ele>208</ele>
        <time>2016-11-28T09:45:14Z</time>
      </trkpt>
      <trkpt lat="45.93944" lon="4.80146">
        <ele>208</ele>
        <time>2016-11-28T09:45:15Z</time>
      </trkpt>
      <trkpt lat="45.93945" lon="4.80152">
        <ele>208</ele>
        <time>2016-11-28T09:45:16Z</time>
      </trkpt>
      <trkpt lat="45.93946" lon="4.80159">
        <ele>208</ele>
        <time>2016-11-28T09:45:17Z</time>
      </trkpt>
      <trkpt lat="45.93948" lon="4.80167">
        <ele>208</ele>
        <time>2016-11-28T09:45:18Z</time>
      </trkpt>
      <trkpt lat="45.93948" lon="4.80174">
        <ele>206</ele>
        <time>2016-11-28T09:45:19Z</time>
      </trkpt>
      <trkpt lat="45.9395" lon="4.80181">
        <ele>206</ele>
        <time>2016-11-28T09:45:20Z</time>
      </trkpt>
      <trkpt lat="45.93951" lon="4.80188">
        <ele>206</ele>
        <time>2016-11-28T09:45:21Z</time>
      </trkpt>
      <trkpt lat="45.93952" lon="4.80195">
        <ele>205</ele>
        <time>2016-11-28T09:45:22Z</time>
      </trkpt>
      <trkpt lat="45.93953" lon="4.80202">
        <ele>205</ele>
        <time>2016-11-28T09:45:23Z</time>
      </trkpt>
      <trkpt lat="45.93954" lon="4.80209">
        <ele>205</ele>
        <time>2016-11-28T09:45:24Z</time>
      </trkpt>
      <trkpt lat="45.93956" lon="4.80215">
        <ele>205</ele>
        <time>2016-11-28T09:45:25Z</time>
      </trkpt>
      <trkpt lat="45.93958" lon="4.80222">
        <ele>205</ele>
        <time>2016-11-28T09:45:26Z</time>
      </trkpt>
      <trkpt lat="45.9396" lon="4.80228">
        <ele>205</ele>
        <time>2016-11-28T09:45:27Z</time>
      </trkpt>
      <trkpt lat="45.93961" lon="4.80234">
        <ele>204</ele>
        <time>2016-11-28T09:45:28Z</time>
      </trkpt>
      <trkpt lat="45.93963" lon="4.8024">
        <ele>204</ele>
        <time>2016-11-28T09:45:29Z</time>
      </trkpt>
      <trkpt lat="45.93965" lon="4.80246">
        <ele>204</ele>
        <time>2016-11-28T09:45:30Z</time>
      </trkpt>
      <trkpt lat="45.93967" lon="4.80252">
        <ele>202</ele>
        <time>2016-11-28T09:45:31Z</time>
      </trkpt>
      <trkpt lat="45.93968" lon="4.80259">
        <ele>202</ele>
        <time>2016-11-28T09:45:32Z</time>
      </trkpt>
      <trkpt lat="45.93971" lon="4.80271">
        <ele>202</ele>
        <time>2016-11-28T09:45:34Z</time>
      </trkpt>
      <trkpt lat="45.93973" lon="4.80276">
        <ele>202</ele>
        <time>2016-11-28T09:45:35Z</time>
      </trkpt>
      <trkpt lat="45.93976" lon="4.80288">
        <ele>203</ele>
        <time>2016-11-28T09:45:37Z</time>
      </trkpt>
      <trkpt lat="45.93977" lon="4.80293">
        <ele>203</ele>
        <time>2016-11-28T09:45:38Z</time>
      </trkpt>
      <trkpt lat="45.9398" lon="4.80303">
        <ele>203</ele>
        <time>2016-11-28T09:45:40Z</time>
      </trkpt>
      <trkpt lat="45.93981" lon="4.80308">
        <ele>203</ele>
        <time>2016-11-28T09:45:41Z</time>
      </trkpt>
      <trkpt lat="45.93984" lon="4.80318">
        <ele>204</ele>
        <time>2016-11-28T09:45:43Z</time>
      </trkpt>
      <trkpt lat="45.93985" lon="4.80323">
        <ele>204</ele>
        <time>2016-11-28T09:45:44Z</time>
      </trkpt>
      <trkpt lat="45.93988" lon="4.80331">
        <ele>204</ele>
        <time>2016-11-28T09:45:46Z</time>
      </trkpt>
      <trkpt lat="45.93989" lon="4.80336">
        <ele>206</ele>
        <time>2016-11-28T09:45:47Z</time>
      </trkpt>
      <trkpt lat="45.93991" lon="4.80345">
        <ele>206</ele>
        <time>2016-11-28T09:45:49Z</time>
      </trkpt>
      <trkpt lat="45.93993" lon="4.8035">
        <ele>206</ele>
        <time>2016-11-28T09:45:50Z</time>
      </trkpt>
      <trkpt lat="45.93996" lon="4.80362">
        <ele>207</ele>
        <time>2016-11-28T09:45:53Z</time>
      </trkpt>
      <trkpt lat="45.93997" lon="4.80365">
        <ele>207</ele>
        <time>2016-11-28T09:45:54Z</time>
      </trkpt>
      <trkpt lat="45.94001" lon="4.80377">
        <ele>216</ele>
        <time>2016-11-28T09:45:57Z</time>
      </trkpt>
      <trkpt lat="45.94002" lon="4.8038">
        <ele>216</ele>
        <time>2016-11-28T09:45:58Z</time>
      </trkpt>
      <trkpt lat="45.94004" lon="4.80388">
        <ele>217</ele>
        <time>2016-11-28T09:46:00Z</time>
      </trkpt>
      <trkpt lat="45.94005" lon="4.80393">
        <ele>217</ele>
        <time>2016-11-28T09:46:01Z</time>
      </trkpt>
      <trkpt lat="45.94008" lon="4.80403">
        <ele>217</ele>
        <time>2016-11-28T09:46:04Z</time>
      </trkpt>
      <trkpt lat="45.94009" lon="4.80406">
        <ele>217</ele>
        <time>2016-11-28T09:46:05Z</time>
      </trkpt>
      <trkpt lat="45.94012" lon="4.80416">
        <ele>217</ele>
        <time>2016-11-28T09:46:08Z</time>
      </trkpt>
      <trkpt lat="45.94013" lon="4.8042">
        <ele>220</ele>
        <time>2016-11-28T09:46:09Z</time>
      </trkpt>
      <trkpt lat="45.94016" lon="4.80432">
        <ele>221</ele>
        <time>2016-11-28T09:46:12Z</time>
      </trkpt>
      <trkpt lat="45.94017" lon="4.80436">
        <ele>222</ele>
        <time>2016-11-28T09:46:13Z</time>
      </trkpt>
      <trkpt lat="45.94017" lon="4.80446">
        <ele>223</ele>
        <time>2016-11-28T09:46:15Z</time>
      </trkpt>
      <trkpt lat="45.94017" lon="4.8045">
        <ele>223</ele>
        <time>2016-11-28T09:46:16Z</time>
      </trkpt>
      <trkpt lat="45.94017" lon="4.8046">
        <ele>223</ele>
        <time>2016-11-28T09:46:18Z</time>
      </trkpt>
      <trkpt lat="45.94017" lon="4.80464">
        <ele>223</ele>
        <time>2016-11-28T09:46:19Z</time>
      </trkpt>
      <trkpt lat="45.94017" lon="4.80475">
        <ele>223</ele>
        <time>2016-11-28T09:46:22Z</time>
      </trkpt>
      <trkpt lat="45.94016" lon="4.80478">
        <ele>223</ele>
        <time>2016-11-28T09:46:23Z</time>
      </trkpt>
      <trkpt lat="45.94017" lon="4.80489">
        <ele>222</ele>
        <time>2016-11-28T09:46:26Z</time>
      </trkpt>
      <trkpt lat="45.94017" lon="4.80493">
        <ele>222</ele>
        <time>2016-11-28T09:46:27Z</time>
      </trkpt>
      <trkpt lat="45.94018" lon="4.80504">
        <ele>223</ele>
        <time>2016-11-28T09:46:30Z</time>
      </trkpt>
      <trkpt lat="45.94018" lon="4.80507">
        <ele>223</ele>
        <time>2016-11-28T09:46:31Z</time>
      </trkpt>
      <trkpt lat="45.94018" lon="4.80518">
        <ele>224</ele>
        <time>2016-11-28T09:46:34Z</time>
      </trkpt>
      <trkpt lat="45.94018" lon="4.80522">
        <ele>224</ele>
        <time>2016-11-28T09:46:35Z</time>
      </trkpt>
      <trkpt lat="45.94018" lon="4.80532">
        <ele>224</ele>
        <time>2016-11-28T09:46:38Z</time>
      </trkpt>
      <trkpt lat="45.94017" lon="4.80538">
        <ele>224</ele>
        <time>2016-11-28T09:46:39Z</time>
      </trkpt>
      <trkpt lat="45.94018" lon="4.80547">
        <ele>224</ele>
        <time>2016-11-28T09:46:41Z</time>
      </trkpt>
      <trkpt lat="45.94019" lon="4.80552">
        <ele>224</ele>
        <time>2016-11-28T09:46:42Z</time>
      </trkpt>
      <trkpt lat="45.94021" lon="4.80563">
        <ele>224</ele>
        <time>2016-11-28T09:46:45Z</time>
      </trkpt>
      <trkpt lat="45.94021" lon="4.80567">
        <ele>224</ele>
        <time>2016-11-28T09:46:46Z</time>
      </trkpt>
      <trkpt lat="45.94022" lon="4.8058">
        <ele>223</ele>
        <time>2016-11-28T09:46:49Z</time>
      </trkpt>
      <trkpt lat="45.94023" lon="4.80584">
        <ele>223</ele>
        <time>2016-11-28T09:46:50Z</time>
      </trkpt>
      <trkpt lat="45.94023" lon="4.80595">
        <ele>224</ele>
        <time>2016-11-28T09:46:53Z</time>
      </trkpt>
      <trkpt lat="45.94023" lon="4.80598">
        <ele>224</ele>
        <time>2016-11-28T09:46:54Z</time>
      </trkpt>
      <trkpt lat="45.94023" lon="4.80608">
        <ele>224</ele>
        <time>2016-11-28T09:46:57Z</time>
      </trkpt>
      <trkpt lat="45.94023" lon="4.80611">
        <ele>224</ele>
        <time>2016-11-28T09:46:58Z</time>
      </trkpt>
      <trkpt lat="45.94024" lon="4.80621">
        <ele>225</ele>
        <time>2016-11-28T09:47:01Z</time>
      </trkpt>
      <trkpt lat="45.94024" lon="4.80624">
        <ele>225</ele>
        <time>2016-11-28T09:47:02Z</time>
      </trkpt>
      <trkpt lat="45.94024" lon="4.80635">
        <ele>224</ele>
        <time>2016-11-28T09:47:05Z</time>
      </trkpt>
      <trkpt lat="45.94024" lon="4.80639">
        <ele>224</ele>
        <time>2016-11-28T09:47:06Z</time>
      </trkpt>
      <trkpt lat="45.94025" lon="4.80648">
        <ele>224</ele>
        <time>2016-11-28T09:47:09Z</time>
      </trkpt>
      <trkpt lat="45.94026" lon="4.80652">
        <ele>224</ele>
        <time>2016-11-28T09:47:10Z</time>
      </trkpt>
      <trkpt lat="45.94028" lon="4.80664">
        <ele>224</ele>
        <time>2016-11-28T09:47:13Z</time>
      </trkpt>
      <trkpt lat="45.94029" lon="4.80668">
        <ele>224</ele>
        <time>2016-11-28T09:47:14Z</time>
      </trkpt>
      <trkpt lat="45.9403" lon="4.80677">
        <ele>224</ele>
        <time>2016-11-28T09:47:16Z</time>
      </trkpt>
      <trkpt lat="45.9403" lon="4.80682">
        <ele>225</ele>
        <time>2016-11-28T09:47:17Z</time>
      </trkpt>
      <trkpt lat="45.94031" lon="4.80691">
        <ele>225</ele>
        <time>2016-11-28T09:47:19Z</time>
      </trkpt>
      <trkpt lat="45.94032" lon="4.80695">
        <ele>225</ele>
        <time>2016-11-28T09:47:20Z</time>
      </trkpt>
      <trkpt lat="45.94033" lon="4.80703">
        <ele>226</ele>
        <time>2016-11-28T09:47:22Z</time>
      </trkpt>
      <trkpt lat="45.94034" lon="4.80707">
        <ele>226</ele>
        <time>2016-11-28T09:47:23Z</time>
      </trkpt>
      <trkpt lat="45.94035" lon="4.80716">
        <ele>226</ele>
        <time>2016-11-28T09:47:25Z</time>
      </trkpt>
      <trkpt lat="45.94036" lon="4.8072">
        <ele>226</ele>
        <time>2016-11-28T09:47:26Z</time>
      </trkpt>
      <trkpt lat="45.94037" lon="4.80732">
        <ele>226</ele>
        <time>2016-11-28T09:47:29Z</time>
      </trkpt>
      <trkpt lat="45.94037" lon="4.80736">
        <ele>226</ele>
        <time>2016-11-28T09:47:30Z</time>
      </trkpt>
      <trkpt lat="45.94038" lon="4.80747">
        <ele>226</ele>
        <time>2016-11-28T09:47:33Z</time>
      </trkpt>
      <trkpt lat="45.94039" lon="4.80751">
        <ele>227</ele>
        <time>2016-11-28T09:47:34Z</time>
      </trkpt>
      <trkpt lat="45.9404" lon="4.80761">
        <ele>228</ele>
        <time>2016-11-28T09:47:37Z</time>
      </trkpt>
      <trkpt lat="45.94041" lon="4.80765">
        <ele>228</ele>
        <time>2016-11-28T09:47:38Z</time>
      </trkpt>
      <trkpt lat="45.94042" lon="4.80775">
        <ele>228</ele>
        <time>2016-11-28T09:47:41Z</time>
      </trkpt>
      <trkpt lat="45.94042" lon="4.80778">
        <ele>228</ele>
        <time>2016-11-28T09:47:42Z</time>
      </trkpt>
      <trkpt lat="45.94042" lon="4.80788">
        <ele>228</ele>
        <time>2016-11-28T09:47:45Z</time>
      </trkpt>
      <trkpt lat="45.94042" lon="4.80792">
        <ele>228</ele>
        <time>2016-11-28T09:47:46Z</time>
      </trkpt>
      <trkpt lat="45.94044" lon="4.80805">
        <ele>228</ele>
        <time>2016-11-28T09:47:49Z</time>
      </trkpt>
      <trkpt lat="45.94044" lon="4.80808">
        <ele>228</ele>
        <time>2016-11-28T09:47:50Z</time>
      </trkpt>
      <trkpt lat="45.94046" lon="4.80819">
        <ele>229</ele>
        <time>2016-11-28T09:47:53Z</time>
      </trkpt>
      <trkpt lat="45.94047" lon="4.80823">
        <ele>229</ele>
        <time>2016-11-28T09:47:54Z</time>
      </trkpt>
      <trkpt lat="45.94049" lon="4.80833">
        <ele>230</ele>
        <time>2016-11-28T09:47:57Z</time>
      </trkpt>
      <trkpt lat="45.94049" lon="4.80837">
        <ele>230</ele>
        <time>2016-11-28T09:47:58Z</time>
      </trkpt>
      <trkpt lat="45.94051" lon="4.80848">
        <ele>230</ele>
        <time>2016-11-28T09:48:01Z</time>
      </trkpt>
      <trkpt lat="45.94051" lon="4.80852">
        <ele>230</ele>
        <time>2016-11-28T09:48:02Z</time>
      </trkpt>
      <trkpt lat="45.94052" lon="4.80863">
        <ele>230</ele>
        <time>2016-11-28T09:48:05Z</time>
      </trkpt>
      <trkpt lat="45.94053" lon="4.80867">
        <ele>230</ele>
        <time>2016-11-28T09:48:06Z</time>
      </trkpt>
      <trkpt lat="45.94054" lon="4.80877">
        <ele>230</ele>
        <time>2016-11-28T09:48:09Z</time>
      </trkpt>
      <trkpt lat="45.94054" lon="4.8088">
        <ele>230</ele>
        <time>2016-11-28T09:48:10Z</time>
      </trkpt>
      <trkpt lat="45.94058" lon="4.80892">
        <ele>231</ele>
        <time>2016-11-28T09:48:13Z</time>
      </trkpt>
      <trkpt lat="45.94059" lon="4.80896">
        <ele>231</ele>
        <time>2016-11-28T09:48:14Z</time>
      </trkpt>
      <trkpt lat="45.94062" lon="4.80907">
        <ele>232</ele>
        <time>2016-11-28T09:48:17Z</time>
      </trkpt>
      <trkpt lat="45.94063" lon="4.80911">
        <ele>233</ele>
        <time>2016-11-28T09:48:18Z</time>
      </trkpt>
      <trkpt lat="45.94063" lon="4.80923">
        <ele>233</ele>
        <time>2016-11-28T09:48:22Z</time>
      </trkpt>
      <trkpt lat="45.94063" lon="4.80926">
        <ele>233</ele>
        <time>2016-11-28T09:48:23Z</time>
      </trkpt>
      <trkpt lat="45.94065" lon="4.80937">
        <ele>233</ele>
        <time>2016-11-28T09:48:26Z</time>
      </trkpt>
      <trkpt lat="45.94065" lon="4.8094">
        <ele>232</ele>
        <time>2016-11-28T09:48:27Z</time>
      </trkpt>
      <trkpt lat="45.94067" lon="4.8095">
        <ele>232</ele>
        <time>2016-11-28T09:48:30Z</time>
      </trkpt>
      <trkpt lat="45.94067" lon="4.80954">
        <ele>232</ele>
        <time>2016-11-28T09:48:31Z</time>
      </trkpt>
      <trkpt lat="45.94068" lon="4.80964">
        <ele>232</ele>
        <time>2016-11-28T09:48:34Z</time>
      </trkpt>
      <trkpt lat="45.94068" lon="4.80967">
        <ele>233</ele>
        <time>2016-11-28T09:48:35Z</time>
      </trkpt>
      <trkpt lat="45.9407" lon="4.80977">
        <ele>233</ele>
        <time>2016-11-28T09:48:38Z</time>
      </trkpt>
      <trkpt lat="45.9407" lon="4.80981">
        <ele>234</ele>
        <time>2016-11-28T09:48:39Z</time>
      </trkpt>
      <trkpt lat="45.94071" lon="4.80991">
        <ele>235</ele>
        <time>2016-11-28T09:48:42Z</time>
      </trkpt>
      <trkpt lat="45.94071" lon="4.80994">
        <ele>235</ele>
        <time>2016-11-28T09:48:43Z</time>
      </trkpt>
      <trkpt lat="45.94073" lon="4.81005">
        <ele>236</ele>
        <time>2016-11-28T09:48:46Z</time>
      </trkpt>
      <trkpt lat="45.94074" lon="4.81009">
        <ele>236</ele>
        <time>2016-11-28T09:48:47Z</time>
      </trkpt>
      <trkpt lat="45.94076" lon="4.8102">
        <ele>235</ele>
        <time>2016-11-28T09:48:50Z</time>
      </trkpt>
      <trkpt lat="45.94077" lon="4.81023">
        <ele>234</ele>
        <time>2016-11-28T09:48:51Z</time>
      </trkpt>
      <trkpt lat="45.9408" lon="4.81034">
        <ele>234</ele>
        <time>2016-11-28T09:48:54Z</time>
      </trkpt>
      <trkpt lat="45.94081" lon="4.81037">
        <ele>234</ele>
        <time>2016-11-28T09:48:55Z</time>
      </trkpt>
      <trkpt lat="45.94085" lon="4.81045">
        <ele>243</ele>
        <time>2016-11-28T09:48:58Z</time>
      </trkpt>
      <trkpt lat="45.94085" lon="4.81049">
        <ele>243</ele>
        <time>2016-11-28T09:48:59Z</time>
      </trkpt>
      <trkpt lat="45.94088" lon="4.81059">
        <ele>243</ele>
        <time>2016-11-28T09:49:02Z</time>
      </trkpt>
      <trkpt lat="45.94089" lon="4.81062">
        <ele>242</ele>
        <time>2016-11-28T09:49:03Z</time>
      </trkpt>
      <trkpt lat="45.94093" lon="4.81071">
        <ele>241</ele>
        <time>2016-11-28T09:49:06Z</time>
      </trkpt>
      <trkpt lat="45.94094" lon="4.81073">
        <ele>241</ele>
        <time>2016-11-28T09:49:07Z</time>
      </trkpt>
      <trkpt lat="45.94099" lon="4.81081">
        <ele>242</ele>
        <time>2016-11-28T09:49:10Z</time>
      </trkpt>
      <trkpt lat="45.941" lon="4.81084">
        <ele>240</ele>
        <time>2016-11-28T09:49:11Z</time>
      </trkpt>
      <trkpt lat="45.94105" lon="4.81095">
        <ele>241</ele>
        <time>2016-11-28T09:49:15Z</time>
      </trkpt>
      <trkpt lat="45.94106" lon="4.81097">
        <ele>241</ele>
        <time>2016-11-28T09:49:16Z</time>
      </trkpt>
      <trkpt lat="45.94112" lon="4.81104">
        <ele>242</ele>
        <time>2016-11-28T09:49:19Z</time>
      </trkpt>
      <trkpt lat="45.94114" lon="4.81107">
        <ele>242</ele>
        <time>2016-11-28T09:49:20Z</time>
      </trkpt>
      <trkpt lat="45.94119" lon="4.81117">
        <ele>243</ele>
        <time>2016-11-28T09:49:23Z</time>
      </trkpt>
      <trkpt lat="45.94121" lon="4.8112">
        <ele>243</ele>
        <time>2016-11-28T09:49:24Z</time>
      </trkpt>
      <trkpt lat="45.94125" lon="4.81128">
        <ele>243</ele>
        <time>2016-11-28T09:49:27Z</time>
      </trkpt>
      <trkpt lat="45.94126" lon="4.81131">
        <ele>243</ele>
        <time>2016-11-28T09:49:28Z</time>
      </trkpt>
      <trkpt lat="45.94131" lon="4.81138">
        <ele>244</ele>
        <time>2016-11-28T09:49:31Z</time>
      </trkpt>
      <trkpt lat="45.94132" lon="4.8114">
        <ele>244</ele>
        <time>2016-11-28T09:49:32Z</time>
      </trkpt>
      <trkpt lat="45.94136" lon="4.8115">
        <ele>244</ele>
        <time>2016-11-28T09:49:35Z</time>
      </trkpt>
      <trkpt lat="45.94138" lon="4.81153">
        <ele>244</ele>
        <time>2016-11-28T09:49:36Z</time>
      </trkpt>
      <trkpt lat="45.94141" lon="4.81162">
        <ele>244</ele>
        <time>2016-11-28T09:49:39Z</time>
      </trkpt>
      <trkpt lat="45.94142" lon="4.81166">
        <ele>245</ele>
        <time>2016-11-28T09:49:40Z</time>
      </trkpt>
      <trkpt lat="45.94146" lon="4.81175">
        <ele>244</ele>
        <time>2016-11-28T09:49:43Z</time>
      </trkpt>
      <trkpt lat="45.94147" lon="4.81178">
        <ele>244</ele>
        <time>2016-11-28T09:49:44Z</time>
      </trkpt>
      <trkpt lat="45.94149" lon="4.8119">
        <ele>244</ele>
        <time>2016-11-28T09:49:47Z</time>
      </trkpt>
      <trkpt lat="45.9415" lon="4.81193">
        <ele>244</ele>
        <time>2016-11-28T09:49:48Z</time>
      </trkpt>
      <trkpt lat="45.94154" lon="4.81202">
        <ele>244</ele>
        <time>2016-11-28T09:49:51Z</time>
      </trkpt>
      <trkpt lat="45.94155" lon="4.81205">
        <ele>244</ele>
        <time>2016-11-28T09:49:52Z</time>
      </trkpt>
      <trkpt lat="45.94157" lon="4.81217">
        <ele>245</ele>
        <time>2016-11-28T09:49:56Z</time>
      </trkpt>
      <trkpt lat="45.94157" lon="4.8122">
        <ele>245</ele>
        <time>2016-11-28T09:49:57Z</time>
      </trkpt>
      <trkpt lat="45.94159" lon="4.81232">
        <ele>246</ele>
        <time>2016-11-28T09:50:01Z</time>
      </trkpt>
      <trkpt lat="45.9416" lon="4.81235">
        <ele>247</ele>
        <time>2016-11-28T09:50:02Z</time>
      </trkpt>
      <trkpt lat="45.94162" lon="4.81246">
        <ele>248</ele>
        <time>2016-11-28T09:50:05Z</time>
      </trkpt>
      <trkpt lat="45.94163" lon="4.8125">
        <ele>249</ele>
        <time>2016-11-28T09:50:06Z</time>
      </trkpt>
      <trkpt lat="45.94164" lon="4.81259">
        <ele>249</ele>
        <time>2016-11-28T09:50:08Z</time>
      </trkpt>
      <trkpt lat="45.94164" lon="4.81263">
        <ele>248</ele>
        <time>2016-11-28T09:50:09Z</time>
      </trkpt>
      <trkpt lat="45.94164" lon="4.81274">
        <ele>247</ele>
        <time>2016-11-28T09:50:12Z</time>
      </trkpt>
      <trkpt lat="45.94164" lon="4.81278">
        <ele>247</ele>
        <time>2016-11-28T09:50:13Z</time>
      </trkpt>
      <trkpt lat="45.94165" lon="4.81289">
        <ele>247</ele>
        <time>2016-11-28T09:50:16Z</time>
      </trkpt>
      <trkpt lat="45.94165" lon="4.81292">
        <ele>247</ele>
        <time>2016-11-28T09:50:17Z</time>
      </trkpt>
      <trkpt lat="45.94165" lon="4.81304">
        <ele>248</ele>
        <time>2016-11-28T09:50:20Z</time>
      </trkpt>
      <trkpt lat="45.94165" lon="4.81308">
        <ele>248</ele>
        <time>2016-11-28T09:50:21Z</time>
      </trkpt>
      <trkpt lat="45.94165" lon="4.81319">
        <ele>249</ele>
        <time>2016-11-28T09:50:24Z</time>
      </trkpt>
      <trkpt lat="45.94165" lon="4.81322">
        <ele>250</ele>
        <time>2016-11-28T09:50:25Z</time>
      </trkpt>
      <trkpt lat="45.94165" lon="4.81333">
        <ele>251</ele>
        <time>2016-11-28T09:50:28Z</time>
      </trkpt>
      <trkpt lat="45.94164" lon="4.81336">
        <ele>252</ele>
        <time>2016-11-28T09:50:29Z</time>
      </trkpt>
      <trkpt lat="45.94164" lon="4.81348">
        <ele>251</ele>
        <time>2016-11-28T09:50:32Z</time>
      </trkpt>
      <trkpt lat="45.94163" lon="4.81352">
        <ele>251</ele>
        <time>2016-11-28T09:50:33Z</time>
      </trkpt>
      <trkpt lat="45.94163" lon="4.81364">
        <ele>251</ele>
        <time>2016-11-28T09:50:36Z</time>
      </trkpt>
      <trkpt lat="45.94163" lon="4.81367">
        <ele>251</ele>
        <time>2016-11-28T09:50:37Z</time>
      </trkpt>
      <trkpt lat="45.94161" lon="4.81376">
        <ele>251</ele>
        <time>2016-11-28T09:50:40Z</time>
      </trkpt>
      <trkpt lat="45.9416" lon="4.81381">
        <ele>251</ele>
        <time>2016-11-28T09:50:41Z</time>
      </trkpt>
      <trkpt lat="45.94159" lon="4.8139">
        <ele>252</ele>
        <time>2016-11-28T09:50:44Z</time>
      </trkpt>
      <trkpt lat="45.94158" lon="4.81394">
        <ele>252</ele>
        <time>2016-11-28T09:50:45Z</time>
      </trkpt>
      <trkpt lat="45.94156" lon="4.81401">
        <ele>252</ele>
        <time>2016-11-28T09:50:47Z</time>
      </trkpt>
      <trkpt lat="45.94156" lon="4.81408">
        <ele>253</ele>
        <time>2016-11-28T09:50:48Z</time>
      </trkpt>
      <trkpt lat="45.94155" lon="4.81417">
        <ele>256</ele>
        <time>2016-11-28T09:50:50Z</time>
      </trkpt>
      <trkpt lat="45.94155" lon="4.81421">
        <ele>256</ele>
        <time>2016-11-28T09:50:51Z</time>
      </trkpt>
      <trkpt lat="45.94154" lon="4.81431">
        <ele>256</ele>
        <time>2016-11-28T09:50:54Z</time>
      </trkpt>
      <trkpt lat="45.94154" lon="4.81434">
        <ele>256</ele>
        <time>2016-11-28T09:50:55Z</time>
      </trkpt>
      <trkpt lat="45.94152" lon="4.81445">
        <ele>256</ele>
        <time>2016-11-28T09:50:59Z</time>
      </trkpt>
      <trkpt lat="45.94151" lon="4.81447">
        <ele>256</ele>
        <time>2016-11-28T09:51:00Z</time>
      </trkpt>
      <trkpt lat="45.94152" lon="4.8146">
        <ele>257</ele>
        <time>2016-11-28T09:51:04Z</time>
      </trkpt>
      <trkpt lat="45.94152" lon="4.81464">
        <ele>257</ele>
        <time>2016-11-28T09:51:05Z</time>
      </trkpt>
      <trkpt lat="45.94152" lon="4.81475">
        <ele>258</ele>
        <time>2016-11-28T09:51:08Z</time>
      </trkpt>
      <trkpt lat="45.94151" lon="4.81478">
        <ele>258</ele>
        <time>2016-11-28T09:51:09Z</time>
      </trkpt>
      <trkpt lat="45.9415" lon="4.8149">
        <ele>259</ele>
        <time>2016-11-28T09:51:13Z</time>
      </trkpt>
      <trkpt lat="45.9415" lon="4.81494">
        <ele>260</ele>
        <time>2016-11-28T09:51:14Z</time>
      </trkpt>
      <trkpt lat="45.94149" lon="4.81505">
        <ele>263</ele>
        <time>2016-11-28T09:51:17Z</time>
      </trkpt>
      <trkpt lat="45.94149" lon="4.8151">
        <ele>263</ele>
        <time>2016-11-28T09:51:18Z</time>
      </trkpt>
      <trkpt lat="45.94148" lon="4.81521">
        <ele>263</ele>
        <time>2016-11-28T09:51:21Z</time>
      </trkpt>
      <trkpt lat="45.94149" lon="4.81524">
        <ele>263</ele>
        <time>2016-11-28T09:51:22Z</time>
      </trkpt>
      <trkpt lat="45.9415" lon="4.81534">
        <ele>264</ele>
        <time>2016-11-28T09:51:24Z</time>
      </trkpt>
      <trkpt lat="45.9415" lon="4.81538">
        <ele>264</ele>
        <time>2016-11-28T09:51:25Z</time>
      </trkpt>
      <trkpt lat="45.94151" lon="4.81546">
        <ele>264</ele>
        <time>2016-11-28T09:51:27Z</time>
      </trkpt>
      <trkpt lat="45.94151" lon="4.81551">
        <ele>264</ele>
        <time>2016-11-28T09:51:28Z</time>
      </trkpt>
      <trkpt lat="45.94153" lon="4.81562">
        <ele>265</ele>
        <time>2016-11-28T09:51:31Z</time>
      </trkpt>
      <trkpt lat="45.94153" lon="4.81566">
        <ele>265</ele>
        <time>2016-11-28T09:51:32Z</time>
      </trkpt>
      <trkpt lat="45.94155" lon="4.81578">
        <ele>266</ele>
        <time>2016-11-28T09:51:35Z</time>
      </trkpt>
      <trkpt lat="45.94155" lon="4.81582">
        <ele>266</ele>
        <time>2016-11-28T09:51:36Z</time>
      </trkpt>
      <trkpt lat="45.94157" lon="4.8159">
        <ele>267</ele>
        <time>2016-11-28T09:51:38Z</time>
      </trkpt>
      <trkpt lat="45.94158" lon="4.81594">
        <ele>267</ele>
        <time>2016-11-28T09:51:39Z</time>
      </trkpt>
      <trkpt lat="45.94159" lon="4.81603">
        <ele>267</ele>
        <time>2016-11-28T09:51:41Z</time>
      </trkpt>
      <trkpt lat="45.9416" lon="4.81607">
        <ele>267</ele>
        <time>2016-11-28T09:51:42Z</time>
      </trkpt>
      <trkpt lat="45.94162" lon="4.81616">
        <ele>268</ele>
        <time>2016-11-28T09:51:44Z</time>
      </trkpt>
      <trkpt lat="45.94163" lon="4.8162">
        <ele>268</ele>
        <time>2016-11-28T09:51:45Z</time>
      </trkpt>
      <trkpt lat="45.94164" lon="4.81629">
        <ele>268</ele>
        <time>2016-11-28T09:51:47Z</time>
      </trkpt>
      <trkpt lat="45.94165" lon="4.81634">
        <ele>268</ele>
        <time>2016-11-28T09:51:48Z</time>
      </trkpt>
      <trkpt lat="45.94167" lon="4.81644">
        <ele>268</ele>
        <time>2016-11-28T09:51:50Z</time>
      </trkpt>
      <trkpt lat="45.94167" lon="4.81649">
        <ele>268</ele>
        <time>2016-11-28T09:51:51Z</time>
      </trkpt>
      <trkpt lat="45.94172" lon="4.81659">
        <ele>268</ele>
        <time>2016-11-28T09:51:54Z</time>
      </trkpt>
      <trkpt lat="45.94173" lon="4.81663">
        <ele>268</ele>
        <time>2016-11-28T09:51:55Z</time>
      </trkpt>
      <trkpt lat="45.94176" lon="4.81674">
        <ele>268</ele>
        <time>2016-11-28T09:51:58Z</time>
      </trkpt>
      <trkpt lat="45.94177" lon="4.81678">
        <ele>268</ele>
        <time>2016-11-28T09:51:59Z</time>
      </trkpt>
      <trkpt lat="45.9418" lon="4.81688">
        <ele>267</ele>
        <time>2016-11-28T09:52:02Z</time>
      </trkpt>
      <trkpt lat="45.94181" lon="4.81691">
        <ele>267</ele>
        <time>2016-11-28T09:52:03Z</time>
      </trkpt>
      <trkpt lat="45.94183" lon="4.81702">
        <ele>267</ele>
        <time>2016-11-28T09:52:06Z</time>
      </trkpt>
      <trkpt lat="45.94184" lon="4.81705">
        <ele>267</ele>
        <time>2016-11-28T09:52:07Z</time>
      </trkpt>
      <trkpt lat="45.94186" lon="4.81716">
        <ele>267</ele>
        <time>2016-11-28T09:52:10Z</time>
      </trkpt>
      <trkpt lat="45.94186" lon="4.8172">
        <ele>267</ele>
        <time>2016-11-28T09:52:11Z</time>
      </trkpt>
      <trkpt lat="45.94186" lon="4.81733">
        <ele>267</ele>
        <time>2016-11-28T09:52:14Z</time>
      </trkpt>
      <trkpt lat="45.94187" lon="4.81737">
        <ele>267</ele>
        <time>2016-11-28T09:52:15Z</time>
      </trkpt>
      <trkpt lat="45.9419" lon="4.81747">
        <ele>267</ele>
        <time>2016-11-28T09:52:17Z</time>
      </trkpt>
      <trkpt lat="45.94192" lon="4.81751">
        <ele>266</ele>
        <time>2016-11-28T09:52:18Z</time>
      </trkpt>
      <trkpt lat="45.94196" lon="4.8176">
        <ele>266</ele>
        <time>2016-11-28T09:52:20Z</time>
      </trkpt>
      <trkpt lat="45.94197" lon="4.81764">
        <ele>266</ele>
        <time>2016-11-28T09:52:21Z</time>
      </trkpt>
      <trkpt lat="45.94199" lon="4.81774">
        <ele>266</ele>
        <time>2016-11-28T09:52:23Z</time>
      </trkpt>
      <trkpt lat="45.94199" lon="4.81779">
        <ele>266</ele>
        <time>2016-11-28T09:52:24Z</time>
      </trkpt>
      <trkpt lat="45.94199" lon="4.81789">
        <ele>266</ele>
        <time>2016-11-28T09:52:26Z</time>
      </trkpt>
      <trkpt lat="45.94199" lon="4.81794">
        <ele>266</ele>
        <time>2016-11-28T09:52:27Z</time>
      </trkpt>
      <trkpt lat="45.942" lon="4.81804">
        <ele>266</ele>
        <time>2016-11-28T09:52:29Z</time>
      </trkpt>
      <trkpt lat="45.94201" lon="4.81808">
        <ele>266</ele>
        <time>2016-11-28T09:52:30Z</time>
      </trkpt>
      <trkpt lat="45.94202" lon="4.81818">
        <ele>266</ele>
        <time>2016-11-28T09:52:32Z</time>
      </trkpt>
      <trkpt lat="45.94203" lon="4.81823">
        <ele>266</ele>
        <time>2016-11-28T09:52:33Z</time>
      </trkpt>
      <trkpt lat="45.94204" lon="4.81832">
        <ele>266</ele>
        <time>2016-11-28T09:52:35Z</time>
      </trkpt>
      <trkpt lat="45.94205" lon="4.81837">
        <ele>266</ele>
        <time>2016-11-28T09:52:36Z</time>
      </trkpt>
      <trkpt lat="45.94207" lon="4.81847">
        <ele>266</ele>
        <time>2016-11-28T09:52:38Z</time>
      </trkpt>
      <trkpt lat="45.94208" lon="4.81852">
        <ele>265</ele>
        <time>2016-11-28T09:52:39Z</time>
      </trkpt>
      <trkpt lat="45.9421" lon="4.81862">
        <ele>265</ele>
        <time>2016-11-28T09:52:41Z</time>
      </trkpt>
      <trkpt lat="45.94211" lon="4.81867">
        <ele>265</ele>
        <time>2016-11-28T09:52:42Z</time>
      </trkpt>
      <trkpt lat="45.94213" lon="4.81877">
        <ele>265</ele>
        <time>2016-11-28T09:52:44Z</time>
      </trkpt>
      <trkpt lat="45.94214" lon="4.81883">
        <ele>265</ele>
        <time>2016-11-28T09:52:45Z</time>
      </trkpt>
      <trkpt lat="45.94216" lon="4.81894">
        <ele>265</ele>
        <time>2016-11-28T09:52:47Z</time>
      </trkpt>
      <trkpt lat="45.94218" lon="4.819">
        <ele>265</ele>
        <time>2016-11-28T09:52:48Z</time>
      </trkpt>
      <trkpt lat="45.9422" lon="4.81912">
        <ele>264</ele>
        <time>2016-11-28T09:52:50Z</time>
      </trkpt>
      <trkpt lat="45.9422" lon="4.81919">
        <ele>264</ele>
        <time>2016-11-28T09:52:51Z</time>
      </trkpt>
      <trkpt lat="45.94221" lon="4.81926">
        <ele>264</ele>
        <time>2016-11-28T09:52:52Z</time>
      </trkpt>
      <trkpt lat="45.94221" lon="4.81933">
        <ele>264</ele>
        <time>2016-11-28T09:52:53Z</time>
      </trkpt>
      <trkpt lat="45.94222" lon="4.8194">
        <ele>264</ele>
        <time>2016-11-28T09:52:54Z</time>
      </trkpt>
      <trkpt lat="45.94223" lon="4.81946">
        <ele>264</ele>
        <time>2016-11-28T09:52:55Z</time>
      </trkpt>
      <trkpt lat="45.94224" lon="4.81953">
        <ele>264</ele>
        <time>2016-11-28T09:52:56Z</time>
      </trkpt>
      <trkpt lat="45.94225" lon="4.8196">
        <ele>264</ele>
        <time>2016-11-28T09:52:57Z</time>
      </trkpt>
      <trkpt lat="45.94226" lon="4.81967">
        <ele>264</ele>
        <time>2016-11-28T09:52:58Z</time>
      </trkpt>
      <trkpt lat="45.94227" lon="4.81973">
        <ele>264</ele>
        <time>2016-11-28T09:52:59Z</time>
      </trkpt>
      <trkpt lat="45.9423" lon="4.81985">
        <ele>263</ele>
        <time>2016-11-28T09:53:01Z</time>
      </trkpt>
      <trkpt lat="45.94232" lon="4.81991">
        <ele>263</ele>
        <time>2016-11-28T09:53:02Z</time>
      </trkpt>
      <trkpt lat="45.94234" lon="4.82002">
        <ele>263</ele>
        <time>2016-11-28T09:53:04Z</time>
      </trkpt>
      <trkpt lat="45.94235" lon="4.82008">
        <ele>263</ele>
        <time>2016-11-28T09:53:05Z</time>
      </trkpt>
      <trkpt lat="45.94238" lon="4.8202">
        <ele>263</ele>
        <time>2016-11-28T09:53:07Z</time>
      </trkpt>
      <trkpt lat="45.9424" lon="4.82026">
        <ele>263</ele>
        <time>2016-11-28T09:53:08Z</time>
      </trkpt>
      <trkpt lat="45.94242" lon="4.82038">
        <ele>263</ele>
        <time>2016-11-28T09:53:10Z</time>
      </trkpt>
      <trkpt lat="45.94244" lon="4.82044">
        <ele>263</ele>
        <time>2016-11-28T09:53:11Z</time>
      </trkpt>
      <trkpt lat="45.94246" lon="4.82054">
        <ele>263</ele>
        <time>2016-11-28T09:53:13Z</time>
      </trkpt>
      <trkpt lat="45.94247" lon="4.82059">
        <ele>263</ele>
        <time>2016-11-28T09:53:14Z</time>
      </trkpt>
      <trkpt lat="45.94249" lon="4.82069">
        <ele>263</ele>
        <time>2016-11-28T09:53:16Z</time>
      </trkpt>
      <trkpt lat="45.9425" lon="4.82074">
        <ele>262</ele>
        <time>2016-11-28T09:53:17Z</time>
      </trkpt>
      <trkpt lat="45.94253" lon="4.82085">
        <ele>262</ele>
        <time>2016-11-28T09:53:19Z</time>
      </trkpt>
      <trkpt lat="45.94254" lon="4.82091">
        <ele>262</ele>
        <time>2016-11-28T09:53:20Z</time>
      </trkpt>
      <trkpt lat="45.94256" lon="4.82096">
        <ele>262</ele>
        <time>2016-11-28T09:53:21Z</time>
      </trkpt>
      <trkpt lat="45.94256" lon="4.82103">
        <ele>262</ele>
        <time>2016-11-28T09:53:22Z</time>
      </trkpt>
      <trkpt lat="45.94258" lon="4.8211">
        <ele>263</ele>
        <time>2016-11-28T09:53:23Z</time>
      </trkpt>
      <trkpt lat="45.94259" lon="4.82116">
        <ele>263</ele>
        <time>2016-11-28T09:53:24Z</time>
      </trkpt>
      <trkpt lat="45.9426" lon="4.82123">
        <ele>263</ele>
        <time>2016-11-28T09:53:25Z</time>
      </trkpt>
      <trkpt lat="45.94261" lon="4.8213">
        <ele>263</ele>
        <time>2016-11-28T09:53:26Z</time>
      </trkpt>
      <trkpt lat="45.94263" lon="4.82136">
        <ele>263</ele>
        <time>2016-11-28T09:53:27Z</time>
      </trkpt>
      <trkpt lat="45.94265" lon="4.82142">
        <ele>263</ele>
        <time>2016-11-28T09:53:28Z</time>
      </trkpt>
      <trkpt lat="45.94267" lon="4.82148">
        <ele>263</ele>
        <time>2016-11-28T09:53:29Z</time>
      </trkpt>
      <trkpt lat="45.94269" lon="4.82155">
        <ele>263</ele>
        <time>2016-11-28T09:53:30Z</time>
      </trkpt>
      <trkpt lat="45.94271" lon="4.82162">
        <ele>263</ele>
        <time>2016-11-28T09:53:31Z</time>
      </trkpt>
      <trkpt lat="45.94272" lon="4.82168">
        <ele>264</ele>
        <time>2016-11-28T09:53:32Z</time>
      </trkpt>
      <trkpt lat="45.94273" lon="4.82175">
        <ele>264</ele>
        <time>2016-11-28T09:53:33Z</time>
      </trkpt>
      <trkpt lat="45.94273" lon="4.82182">
        <ele>264</ele>
        <time>2016-11-28T09:53:34Z</time>
      </trkpt>
      <trkpt lat="45.94274" lon="4.82188">
        <ele>264</ele>
        <time>2016-11-28T09:53:35Z</time>
      </trkpt>
      <trkpt lat="45.94275" lon="4.82195">
        <ele>264</ele>
        <time>2016-11-28T09:53:36Z</time>
      </trkpt>
      <trkpt lat="45.94276" lon="4.82202">
        <ele>264</ele>
        <time>2016-11-28T09:53:37Z</time>
      </trkpt>
      <trkpt lat="45.94276" lon="4.82208">
        <ele>264</ele>
        <time>2016-11-28T09:53:38Z</time>
      </trkpt>
      <trkpt lat="45.94277" lon="4.82221">
        <ele>264</ele>
        <time>2016-11-28T09:53:40Z</time>
      </trkpt>
      <trkpt lat="45.94277" lon="4.82227">
        <ele>264</ele>
        <time>2016-11-28T09:53:41Z</time>
      </trkpt>
      <trkpt lat="45.94278" lon="4.82234">
        <ele>264</ele>
        <time>2016-11-28T09:53:42Z</time>
      </trkpt>
      <trkpt lat="45.94278" lon="4.8224">
        <ele>264</ele>
        <time>2016-11-28T09:53:43Z</time>
      </trkpt>
      <trkpt lat="45.94278" lon="4.82247">
        <ele>264</ele>
        <time>2016-11-28T09:53:44Z</time>
      </trkpt>
      <trkpt lat="45.94279" lon="4.82254">
        <ele>265</ele>
        <time>2016-11-28T09:53:45Z</time>
      </trkpt>
      <trkpt lat="45.9428" lon="4.82261">
        <ele>265</ele>
        <time>2016-11-28T09:53:46Z</time>
      </trkpt>
      <trkpt lat="45.9428" lon="4.82269">
        <ele>265</ele>
        <time>2016-11-28T09:53:47Z</time>
      </trkpt>
      <trkpt lat="45.9428" lon="4.82276">
        <ele>265</ele>
        <time>2016-11-28T09:53:48Z</time>
      </trkpt>
      <trkpt lat="45.9428" lon="4.82283">
        <ele>265</ele>
        <time>2016-11-28T09:53:49Z</time>
      </trkpt>
      <trkpt lat="45.94281" lon="4.8229">
        <ele>265</ele>
        <time>2016-11-28T09:53:50Z</time>
      </trkpt>
      <trkpt lat="45.94281" lon="4.82297">
        <ele>265</ele>
        <time>2016-11-28T09:53:51Z</time>
      </trkpt>
      <trkpt lat="45.94282" lon="4.82304">
        <ele>265</ele>
        <time>2016-11-28T09:53:52Z</time>
      </trkpt>
      <trkpt lat="45.94282" lon="4.82311">
        <ele>265</ele>
        <time>2016-11-28T09:53:53Z</time>
      </trkpt>
      <trkpt lat="45.94282" lon="4.82318">
        <ele>265</ele>
        <time>2016-11-28T09:53:54Z</time>
      </trkpt>
      <trkpt lat="45.94282" lon="4.82325">
        <ele>265</ele>
        <time>2016-11-28T09:53:55Z</time>
      </trkpt>
      <trkpt lat="45.94283" lon="4.82332">
        <ele>265</ele>
        <time>2016-11-28T09:53:56Z</time>
      </trkpt>
      <trkpt lat="45.94283" lon="4.82339">
        <ele>264</ele>
        <time>2016-11-28T09:53:57Z</time>
      </trkpt>
      <trkpt lat="45.94283" lon="4.82346">
        <ele>264</ele>
        <time>2016-11-28T09:53:58Z</time>
      </trkpt>
      <trkpt lat="45.94284" lon="4.82353">
        <ele>264</ele>
        <time>2016-11-28T09:53:59Z</time>
      </trkpt>
      <trkpt lat="45.94284" lon="4.8236">
        <ele>264</ele>
        <time>2016-11-28T09:54:00Z</time>
      </trkpt>
      <trkpt lat="45.94284" lon="4.82367">
        <ele>264</ele>
        <time>2016-11-28T09:54:01Z</time>
      </trkpt>
      <trkpt lat="45.94284" lon="4.82374">
        <ele>264</ele>
        <time>2016-11-28T09:54:02Z</time>
      </trkpt>
      <trkpt lat="45.94285" lon="4.8238">
        <ele>264</ele>
        <time>2016-11-28T09:54:03Z</time>
      </trkpt>
      <trkpt lat="45.94285" lon="4.82392">
        <ele>264</ele>
        <time>2016-11-28T09:54:05Z</time>
      </trkpt>
      <trkpt lat="45.94286" lon="4.82398">
        <ele>264</ele>
        <time>2016-11-28T09:54:06Z</time>
      </trkpt>
      <trkpt lat="45.94287" lon="4.82409">
        <ele>264</ele>
        <time>2016-11-28T09:54:08Z</time>
      </trkpt>
      <trkpt lat="45.94287" lon="4.82414">
        <ele>264</ele>
        <time>2016-11-28T09:54:09Z</time>
      </trkpt>
      <trkpt lat="45.94288" lon="4.82426">
        <ele>264</ele>
        <time>2016-11-28T09:54:11Z</time>
      </trkpt>
      <trkpt lat="45.94288" lon="4.82432">
        <ele>264</ele>
        <time>2016-11-28T09:54:12Z</time>
      </trkpt>
      <trkpt lat="45.94288" lon="4.82439">
        <ele>264</ele>
        <time>2016-11-28T09:54:13Z</time>
      </trkpt>
      <trkpt lat="45.94288" lon="4.82446">
        <ele>264</ele>
        <time>2016-11-28T09:54:14Z</time>
      </trkpt>
      <trkpt lat="45.94289" lon="4.82453">
        <ele>264</ele>
        <time>2016-11-28T09:54:15Z</time>
      </trkpt>
      <trkpt lat="45.94289" lon="4.82461">
        <ele>264</ele>
        <time>2016-11-28T09:54:16Z</time>
      </trkpt>
      <trkpt lat="45.94289" lon="4.82468">
        <ele>264</ele>
        <time>2016-11-28T09:54:17Z</time>
      </trkpt>
      <trkpt lat="45.9429" lon="4.82475">
        <ele>264</ele>
        <time>2016-11-28T09:54:18Z</time>
      </trkpt>
      <trkpt lat="45.9429" lon="4.82482">
        <ele>264</ele>
        <time>2016-11-28T09:54:19Z</time>
      </trkpt>
      <trkpt lat="45.9429" lon="4.82489">
        <ele>264</ele>
        <time>2016-11-28T09:54:20Z</time>
      </trkpt>
      <trkpt lat="45.94291" lon="4.82496">
        <ele>264</ele>
        <time>2016-11-28T09:54:21Z</time>
      </trkpt>
      <trkpt lat="45.94291" lon="4.82502">
        <ele>264</ele>
        <time>2016-11-28T09:54:22Z</time>
      </trkpt>
      <trkpt lat="45.94291" lon="4.82515">
        <ele>264</ele>
        <time>2016-11-28T09:54:24Z</time>
      </trkpt>
      <trkpt lat="45.94291" lon="4.82521">
        <ele>264</ele>
        <time>2016-11-28T09:54:25Z</time>
      </trkpt>
      <trkpt lat="45.94291" lon="4.82533">
        <ele>264</ele>
        <time>2016-11-28T09:54:27Z</time>
      </trkpt>
      <trkpt lat="45.94291" lon="4.8254">
        <ele>264</ele>
        <time>2016-11-28T09:54:28Z</time>
      </trkpt>
      <trkpt lat="45.94291" lon="4.82552">
        <ele>264</ele>
        <time>2016-11-28T09:54:30Z</time>
      </trkpt>
      <trkpt lat="45.94291" lon="4.82559">
        <ele>264</ele>
        <time>2016-11-28T09:54:31Z</time>
      </trkpt>
      <trkpt lat="45.94291" lon="4.82565">
        <ele>264</ele>
        <time>2016-11-28T09:54:32Z</time>
      </trkpt>
      <trkpt lat="45.94291" lon="4.82572">
        <ele>265</ele>
        <time>2016-11-28T09:54:33Z</time>
      </trkpt>
      <trkpt lat="45.94291" lon="4.82578">
        <ele>265</ele>
        <time>2016-11-28T09:54:34Z</time>
      </trkpt>
      <trkpt lat="45.9429" lon="4.82585">
        <ele>265</ele>
        <time>2016-11-28T09:54:35Z</time>
      </trkpt>
      <trkpt lat="45.9429" lon="4.82591">
        <ele>265</ele>
        <time>2016-11-28T09:54:36Z</time>
      </trkpt>
      <trkpt lat="45.9429" lon="4.82598">
        <ele>265</ele>
        <time>2016-11-28T09:54:37Z</time>
      </trkpt>
      <trkpt lat="45.9429" lon="4.82604">
        <ele>265</ele>
        <time>2016-11-28T09:54:38Z</time>
      </trkpt>
      <trkpt lat="45.9429" lon="4.82611">
        <ele>265</ele>
        <time>2016-11-28T09:54:39Z</time>
      </trkpt>
      <trkpt lat="45.9429" lon="4.82617">
        <ele>265</ele>
        <time>2016-11-28T09:54:40Z</time>
      </trkpt>
      <trkpt lat="45.9429" lon="4.82624">
        <ele>265</ele>
        <time>2016-11-28T09:54:41Z</time>
      </trkpt>
      <trkpt lat="45.9429" lon="4.8263">
        <ele>265</ele>
        <time>2016-11-28T09:54:42Z</time>
      </trkpt>
      <trkpt lat="45.9429" lon="4.82637">
        <ele>265</ele>
        <time>2016-11-28T09:54:43Z</time>
      </trkpt>
      <trkpt lat="45.9429" lon="4.82643">
        <ele>265</ele>
        <time>2016-11-28T09:54:44Z</time>
      </trkpt>
      <trkpt lat="45.9429" lon="4.8265">
        <ele>265</ele>
        <time>2016-11-28T09:54:45Z</time>
      </trkpt>
      <trkpt lat="45.9429" lon="4.82657">
        <ele>265</ele>
        <time>2016-11-28T09:54:46Z</time>
      </trkpt>
      <trkpt lat="45.9429" lon="4.82664">
        <ele>265</ele>
        <time>2016-11-28T09:54:47Z</time>
      </trkpt>
      <trkpt lat="45.9429" lon="4.82677">
        <ele>265</ele>
        <time>2016-11-28T09:54:49Z</time>
      </trkpt>
      <trkpt lat="45.9429" lon="4.82683">
        <ele>265</ele>
        <time>2016-11-28T09:54:50Z</time>
      </trkpt>
      <trkpt lat="45.9429" lon="4.82695">
        <ele>265</ele>
        <time>2016-11-28T09:54:52Z</time>
      </trkpt>
      <trkpt lat="45.9429" lon="4.827">
        <ele>265</ele>
        <time>2016-11-28T09:54:53Z</time>
      </trkpt>
      <trkpt lat="45.94289" lon="4.82712">
        <ele>265</ele>
        <time>2016-11-28T09:54:55Z</time>
      </trkpt>
      <trkpt lat="45.94289" lon="4.82719">
        <ele>265</ele>
        <time>2016-11-28T09:54:56Z</time>
      </trkpt>
      <trkpt lat="45.94289" lon="4.82731">
        <ele>265</ele>
        <time>2016-11-28T09:54:58Z</time>
      </trkpt>
      <trkpt lat="45.94289" lon="4.82737">
        <ele>265</ele>
        <time>2016-11-28T09:54:59Z</time>
      </trkpt>
      <trkpt lat="45.94289" lon="4.8275">
        <ele>265</ele>
        <time>2016-11-28T09:55:01Z</time>
      </trkpt>
      <trkpt lat="45.94289" lon="4.82756">
        <ele>265</ele>
        <time>2016-11-28T09:55:02Z</time>
      </trkpt>
      <trkpt lat="45.94289" lon="4.82768">
        <ele>265</ele>
        <time>2016-11-28T09:55:04Z</time>
      </trkpt>
      <trkpt lat="45.94289" lon="4.82775">
        <ele>265</ele>
        <time>2016-11-28T09:55:05Z</time>
      </trkpt>
      <trkpt lat="45.94289" lon="4.82781">
        <ele>265</ele>
        <time>2016-11-28T09:55:06Z</time>
      </trkpt>
      <trkpt lat="45.94289" lon="4.82788">
        <ele>265</ele>
        <time>2016-11-28T09:55:07Z</time>
      </trkpt>
      <trkpt lat="45.94289" lon="4.82794">
        <ele>265</ele>
        <time>2016-11-28T09:55:08Z</time>
      </trkpt>
      <trkpt lat="45.94289" lon="4.82801">
        <ele>265</ele>
        <time>2016-11-28T09:55:09Z</time>
      </trkpt>
      <trkpt lat="45.94288" lon="4.82807">
        <ele>265</ele>
        <time>2016-11-28T09:55:10Z</time>
      </trkpt>
      <trkpt lat="45.94288" lon="4.82814">
        <ele>265</ele>
        <time>2016-11-28T09:55:11Z</time>
      </trkpt>
      <trkpt lat="45.94288" lon="4.82821">
        <ele>265</ele>
        <time>2016-11-28T09:55:12Z</time>
      </trkpt>
      <trkpt lat="45.94288" lon="4.82828">
        <ele>265</ele>
        <time>2016-11-28T09:55:13Z</time>
      </trkpt>
      <trkpt lat="45.94287" lon="4.82834">
        <ele>265</ele>
        <time>2016-11-28T09:55:14Z</time>
      </trkpt>
      <trkpt lat="45.94287" lon="4.82841">
        <ele>265</ele>
        <time>2016-11-28T09:55:15Z</time>
      </trkpt>
      <trkpt lat="45.94287" lon="4.82849">
        <ele>265</ele>
        <time>2016-11-28T09:55:16Z</time>
      </trkpt>
      <trkpt lat="45.94287" lon="4.82855">
        <ele>265</ele>
        <time>2016-11-28T09:55:17Z</time>
      </trkpt>
      <trkpt lat="45.94287" lon="4.82862">
        <ele>265</ele>
        <time>2016-11-28T09:55:18Z</time>
      </trkpt>
      <trkpt lat="45.94286" lon="4.82869">
        <ele>265</ele>
        <time>2016-11-28T09:55:19Z</time>
      </trkpt>
      <trkpt lat="45.94286" lon="4.82876">
        <ele>265</ele>
        <time>2016-11-28T09:55:20Z</time>
      </trkpt>
      <trkpt lat="45.94286" lon="4.82882">
        <ele>265</ele>
        <time>2016-11-28T09:55:21Z</time>
      </trkpt>
      <trkpt lat="45.94285" lon="4.82889">
        <ele>265</ele>
        <time>2016-11-28T09:55:22Z</time>
      </trkpt>
      <trkpt lat="45.94285" lon="4.82896">
        <ele>265</ele>
        <time>2016-11-28T09:55:23Z</time>
      </trkpt>
      <trkpt lat="45.94284" lon="4.82903">
        <ele>265</ele>
        <time>2016-11-28T09:55:24Z</time>
      </trkpt>
      <trkpt lat="45.94283" lon="4.82909">
        <ele>265</ele>
        <time>2016-11-28T09:55:25Z</time>
      </trkpt>
      <trkpt lat="45.94282" lon="4.82916">
        <ele>265</ele>
        <time>2016-11-28T09:55:26Z</time>
      </trkpt>
      <trkpt lat="45.94281" lon="4.82923">
        <ele>265</ele>
        <time>2016-11-28T09:55:27Z</time>
      </trkpt>
      <trkpt lat="45.94281" lon="4.82929">
        <ele>265</ele>
        <time>2016-11-28T09:55:28Z</time>
      </trkpt>
      <trkpt lat="45.9428" lon="4.82936">
        <ele>265</ele>
        <time>2016-11-28T09:55:29Z</time>
      </trkpt>
      <trkpt lat="45.9428" lon="4.82943">
        <ele>265</ele>
        <time>2016-11-28T09:55:30Z</time>
      </trkpt>
      <trkpt lat="45.94279" lon="4.8295">
        <ele>265</ele>
        <time>2016-11-28T09:55:31Z</time>
      </trkpt>
      <trkpt lat="45.9428" lon="4.82957">
        <ele>265</ele>
        <time>2016-11-28T09:55:32Z</time>
      </trkpt>
      <trkpt lat="45.94281" lon="4.82963">
        <ele>265</ele>
        <time>2016-11-28T09:55:33Z</time>
      </trkpt>
      <trkpt lat="45.94283" lon="4.8297">
        <ele>265</ele>
        <time>2016-11-28T09:55:34Z</time>
      </trkpt>
      <trkpt lat="45.94285" lon="4.82976">
        <ele>265</ele>
        <time>2016-11-28T09:55:35Z</time>
      </trkpt>
      <trkpt lat="45.94288" lon="4.82982">
        <ele>265</ele>
        <time>2016-11-28T09:55:36Z</time>
      </trkpt>
      <trkpt lat="45.94289" lon="4.8299">
        <ele>265</ele>
        <time>2016-11-28T09:55:37Z</time>
      </trkpt>
      <trkpt lat="45.94291" lon="4.82997">
        <ele>265</ele>
        <time>2016-11-28T09:55:38Z</time>
      </trkpt>
      <trkpt lat="45.94293" lon="4.83005">
        <ele>266</ele>
        <time>2016-11-28T09:55:39Z</time>
      </trkpt>
      <trkpt lat="45.94294" lon="4.83012">
        <ele>266</ele>
        <time>2016-11-28T09:55:40Z</time>
      </trkpt>
      <trkpt lat="45.94296" lon="4.83019">
        <ele>266</ele>
        <time>2016-11-28T09:55:41Z</time>
      </trkpt>
      <trkpt lat="45.94297" lon="4.83026">
        <ele>266</ele>
        <time>2016-11-28T09:55:42Z</time>
      </trkpt>
      <trkpt lat="45.94298" lon="4.83033">
        <ele>266</ele>
        <time>2016-11-28T09:55:43Z</time>
      </trkpt>
      <trkpt lat="45.94299" lon="4.83039">
        <ele>266</ele>
        <time>2016-11-28T09:55:44Z</time>
      </trkpt>
      <trkpt lat="45.94301" lon="4.83046">
        <ele>266</ele>
        <time>2016-11-28T09:55:45Z</time>
      </trkpt>
      <trkpt lat="45.94302" lon="4.83053">
        <ele>266</ele>
        <time>2016-11-28T09:55:46Z</time>
      </trkpt>
      <trkpt lat="45.94303" lon="4.83059">
        <ele>266</ele>
        <time>2016-11-28T09:55:47Z</time>
      </trkpt>
      <trkpt lat="45.94305" lon="4.83065">
        <ele>266</ele>
        <time>2016-11-28T09:55:48Z</time>
      </trkpt>
      <trkpt lat="45.94307" lon="4.83071">
        <ele>266</ele>
        <time>2016-11-28T09:55:49Z</time>
      </trkpt>
      <trkpt lat="45.94308" lon="4.83077">
        <ele>266</ele>
        <time>2016-11-28T09:55:50Z</time>
      </trkpt>
      <trkpt lat="45.9431" lon="4.83083">
        <ele>266</ele>
        <time>2016-11-28T09:55:51Z</time>
      </trkpt>
      <trkpt lat="45.94312" lon="4.83089">
        <ele>266</ele>
        <time>2016-11-28T09:55:52Z</time>
      </trkpt>
      <trkpt lat="45.94314" lon="4.83095">
        <ele>266</ele>
        <time>2016-11-28T09:55:53Z</time>
      </trkpt>
      <trkpt lat="45.94316" lon="4.83102">
        <ele>266</ele>
        <time>2016-11-28T09:55:54Z</time>
      </trkpt>
      <trkpt lat="45.94317" lon="4.83108">
        <ele>266</ele>
        <time>2016-11-28T09:55:55Z</time>
      </trkpt>
      <trkpt lat="45.94319" lon="4.83114">
        <ele>266</ele>
        <time>2016-11-28T09:55:56Z</time>
      </trkpt>
      <trkpt lat="45.94321" lon="4.83121">
        <ele>266</ele>
        <time>2016-11-28T09:55:57Z</time>
      </trkpt>
      <trkpt lat="45.94322" lon="4.83127">
        <ele>266</ele>
        <time>2016-11-28T09:55:58Z</time>
      </trkpt>
      <trkpt lat="45.94325" lon="4.83133">
        <ele>266</ele>
        <time>2016-11-28T09:55:59Z</time>
      </trkpt>
      <trkpt lat="45.94327" lon="4.8314">
        <ele>266</ele>
        <time>2016-11-28T09:56:00Z</time>
      </trkpt>
      <trkpt lat="45.94329" lon="4.83146">
        <ele>266</ele>
        <time>2016-11-28T09:56:01Z</time>
      </trkpt>
      <trkpt lat="45.94332" lon="4.83153">
        <ele>266</ele>
        <time>2016-11-28T09:56:02Z</time>
      </trkpt>
      <trkpt lat="45.94334" lon="4.83159">
        <ele>266</ele>
        <time>2016-11-28T09:56:03Z</time>
      </trkpt>
      <trkpt lat="45.94336" lon="4.83165">
        <ele>266</ele>
        <time>2016-11-28T09:56:04Z</time>
      </trkpt>
      <trkpt lat="45.94338" lon="4.83172">
        <ele>266</ele>
        <time>2016-11-28T09:56:05Z</time>
      </trkpt>
      <trkpt lat="45.94341" lon="4.83178">
        <ele>266</ele>
        <time>2016-11-28T09:56:06Z</time>
      </trkpt>
      <trkpt lat="45.94343" lon="4.83185">
        <ele>266</ele>
        <time>2016-11-28T09:56:07Z</time>
      </trkpt>
      <trkpt lat="45.94345" lon="4.83191">
        <ele>266</ele>
        <time>2016-11-28T09:56:08Z</time>
      </trkpt>
      <trkpt lat="45.94347" lon="4.83198">
        <ele>266</ele>
        <time>2016-11-28T09:56:09Z</time>
      </trkpt>
      <trkpt lat="45.94349" lon="4.83204">
        <ele>266</ele>
        <time>2016-11-28T09:56:10Z</time>
      </trkpt>
      <trkpt lat="45.94351" lon="4.8321">
        <ele>266</ele>
        <time>2016-11-28T09:56:11Z</time>
      </trkpt>
      <trkpt lat="45.94353" lon="4.83215">
        <ele>266</ele>
        <time>2016-11-28T09:56:12Z</time>
      </trkpt>
      <trkpt lat="45.94355" lon="4.83222">
        <ele>266</ele>
        <time>2016-11-28T09:56:13Z</time>
      </trkpt>
      <trkpt lat="45.94358" lon="4.83228">
        <ele>266</ele>
        <time>2016-11-28T09:56:14Z</time>
      </trkpt>
      <trkpt lat="45.9436" lon="4.83234">
        <ele>265</ele>
        <time>2016-11-28T09:56:15Z</time>
      </trkpt>
      <trkpt lat="45.94362" lon="4.83241">
        <ele>265</ele>
        <time>2016-11-28T09:56:16Z</time>
      </trkpt>
      <trkpt lat="45.94365" lon="4.83247">
        <ele>265</ele>
        <time>2016-11-28T09:56:17Z</time>
      </trkpt>
      <trkpt lat="45.94367" lon="4.83254">
        <ele>265</ele>
        <time>2016-11-28T09:56:18Z</time>
      </trkpt>
      <trkpt lat="45.94369" lon="4.83261">
        <ele>265</ele>
        <time>2016-11-28T09:56:19Z</time>
      </trkpt>
      <trkpt lat="45.94371" lon="4.83267">
        <ele>264</ele>
        <time>2016-11-28T09:56:20Z</time>
      </trkpt>
      <trkpt lat="45.94374" lon="4.83274">
        <ele>264</ele>
        <time>2016-11-28T09:56:21Z</time>
      </trkpt>
      <trkpt lat="45.94376" lon="4.83281">
        <ele>264</ele>
        <time>2016-11-28T09:56:22Z</time>
      </trkpt>
      <trkpt lat="45.94379" lon="4.83288">
        <ele>264</ele>
        <time>2016-11-28T09:56:23Z</time>
      </trkpt>
      <trkpt lat="45.94381" lon="4.83294">
        <ele>264</ele>
        <time>2016-11-28T09:56:24Z</time>
      </trkpt>
      <trkpt lat="45.94383" lon="4.833">
        <ele>264</ele>
        <time>2016-11-28T09:56:25Z</time>
      </trkpt>
      <trkpt lat="45.94386" lon="4.83306">
        <ele>264</ele>
        <time>2016-11-28T09:56:26Z</time>
      </trkpt>
      <trkpt lat="45.94388" lon="4.83312">
        <ele>264</ele>
        <time>2016-11-28T09:56:27Z</time>
      </trkpt>
      <trkpt lat="45.9439" lon="4.83318">
        <ele>264</ele>
        <time>2016-11-28T09:56:28Z</time>
      </trkpt>
      <trkpt lat="45.94392" lon="4.83324">
        <ele>264</ele>
        <time>2016-11-28T09:56:29Z</time>
      </trkpt>
      <trkpt lat="45.94394" lon="4.83331">
        <ele>264</ele>
        <time>2016-11-28T09:56:30Z</time>
      </trkpt>
      <trkpt lat="45.94396" lon="4.83337">
        <ele>263</ele>
        <time>2016-11-28T09:56:31Z</time>
      </trkpt>
      <trkpt lat="45.94399" lon="4.83343">
        <ele>263</ele>
        <time>2016-11-28T09:56:32Z</time>
      </trkpt>
      <trkpt lat="45.94401" lon="4.83348">
        <ele>263</ele>
        <time>2016-11-28T09:56:33Z</time>
      </trkpt>
      <trkpt lat="45.94404" lon="4.83354">
        <ele>263</ele>
        <time>2016-11-28T09:56:34Z</time>
      </trkpt>
      <trkpt lat="45.94406" lon="4.8336">
        <ele>264</ele>
        <time>2016-11-28T09:56:35Z</time>
      </trkpt>
      <trkpt lat="45.94408" lon="4.83366">
        <ele>264</ele>
        <time>2016-11-28T09:56:36Z</time>
      </trkpt>
      <trkpt lat="45.94411" lon="4.83371">
        <ele>264</ele>
        <time>2016-11-28T09:56:37Z</time>
      </trkpt>
      <trkpt lat="45.94414" lon="4.83377">
        <ele>264</ele>
        <time>2016-11-28T09:56:38Z</time>
      </trkpt>
      <trkpt lat="45.94417" lon="4.83383">
        <ele>264</ele>
        <time>2016-11-28T09:56:39Z</time>
      </trkpt>
      <trkpt lat="45.9442" lon="4.83388">
        <ele>264</ele>
        <time>2016-11-28T09:56:40Z</time>
      </trkpt>
      <trkpt lat="45.94422" lon="4.83394">
        <ele>264</ele>
        <time>2016-11-28T09:56:41Z</time>
      </trkpt>
      <trkpt lat="45.94425" lon="4.834">
        <ele>264</ele>
        <time>2016-11-28T09:56:42Z</time>
      </trkpt>
      <trkpt lat="45.94428" lon="4.83406">
        <ele>264</ele>
        <time>2016-11-28T09:56:43Z</time>
      </trkpt>
      <trkpt lat="45.94431" lon="4.83412">
        <ele>264</ele>
        <time>2016-11-28T09:56:44Z</time>
      </trkpt>
      <trkpt lat="45.94434" lon="4.83418">
        <ele>264</ele>
        <time>2016-11-28T09:56:45Z</time>
      </trkpt>
      <trkpt lat="45.94437" lon="4.83424">
        <ele>264</ele>
        <time>2016-11-28T09:56:46Z</time>
      </trkpt>
      <trkpt lat="45.9444" lon="4.8343">
        <ele>264</ele>
        <time>2016-11-28T09:56:47Z</time>
      </trkpt>
      <trkpt lat="45.94443" lon="4.83435">
        <ele>263</ele>
        <time>2016-11-28T09:56:48Z</time>
      </trkpt>
      <trkpt lat="45.94446" lon="4.83441">
        <ele>263</ele>
        <time>2016-11-28T09:56:49Z</time>
      </trkpt>
      <trkpt lat="45.94449" lon="4.83447">
        <ele>263</ele>
        <time>2016-11-28T09:56:50Z</time>
      </trkpt>
      <trkpt lat="45.94453" lon="4.83453">
        <ele>263</ele>
        <time>2016-11-28T09:56:51Z</time>
      </trkpt>
      <trkpt lat="45.94456" lon="4.83459">
        <ele>263</ele>
        <time>2016-11-28T09:56:52Z</time>
      </trkpt>
      <trkpt lat="45.9446" lon="4.83465">
        <ele>263</ele>
        <time>2016-11-28T09:56:53Z</time>
      </trkpt>
      <trkpt lat="45.94463" lon="4.83471">
        <ele>263</ele>
        <time>2016-11-28T09:56:54Z</time>
      </trkpt>
      <trkpt lat="45.94466" lon="4.83477">
        <ele>263</ele>
        <time>2016-11-28T09:56:55Z</time>
      </trkpt>
      <trkpt lat="45.9447" lon="4.83483">
        <ele>263</ele>
        <time>2016-11-28T09:56:56Z</time>
      </trkpt>
      <trkpt lat="45.94473" lon="4.83488">
        <ele>263</ele>
        <time>2016-11-28T09:56:57Z</time>
      </trkpt>
      <trkpt lat="45.94476" lon="4.83494">
        <ele>263</ele>
        <time>2016-11-28T09:56:58Z</time>
      </trkpt>
      <trkpt lat="45.94479" lon="4.83499">
        <ele>263</ele>
        <time>2016-11-28T09:56:59Z</time>
      </trkpt>
      <trkpt lat="45.94484" lon="4.83508">
        <ele>262</ele>
        <time>2016-11-28T09:57:01Z</time>
      </trkpt>
      <trkpt lat="45.94487" lon="4.83512">
        <ele>262</ele>
        <time>2016-11-28T09:57:02Z</time>
      </trkpt>
      <trkpt lat="45.9449" lon="4.83517">
        <ele>262</ele>
        <time>2016-11-28T09:57:03Z</time>
      </trkpt>
      <trkpt lat="45.94493" lon="4.83521">
        <ele>262</ele>
        <time>2016-11-28T09:57:04Z</time>
      </trkpt>
      <trkpt lat="45.94496" lon="4.83526">
        <ele>262</ele>
        <time>2016-11-28T09:57:05Z</time>
      </trkpt>
      <trkpt lat="45.94499" lon="4.83531">
        <ele>262</ele>
        <time>2016-11-28T09:57:06Z</time>
      </trkpt>
      <trkpt lat="45.94502" lon="4.83536">
        <ele>262</ele>
        <time>2016-11-28T09:57:07Z</time>
      </trkpt>
      <trkpt lat="45.94505" lon="4.83541">
        <ele>262</ele>
        <time>2016-11-28T09:57:08Z</time>
      </trkpt>
      <trkpt lat="45.94507" lon="4.83546">
        <ele>261</ele>
        <time>2016-11-28T09:57:09Z</time>
      </trkpt>
      <trkpt lat="45.9451" lon="4.83552">
        <ele>261</ele>
        <time>2016-11-28T09:57:10Z</time>
      </trkpt>
      <trkpt lat="45.94513" lon="4.83557">
        <ele>261</ele>
        <time>2016-11-28T09:57:11Z</time>
      </trkpt>
      <trkpt lat="45.94515" lon="4.83562">
        <ele>261</ele>
        <time>2016-11-28T09:57:12Z</time>
      </trkpt>
      <trkpt lat="45.9452" lon="4.83573">
        <ele>261</ele>
        <time>2016-11-28T09:57:14Z</time>
      </trkpt>
      <trkpt lat="45.94522" lon="4.83579">
        <ele>261</ele>
        <time>2016-11-28T09:57:15Z</time>
      </trkpt>
      <trkpt lat="45.94525" lon="4.83585">
        <ele>261</ele>
        <time>2016-11-28T09:57:16Z</time>
      </trkpt>
      <trkpt lat="45.94526" lon="4.83591">
        <ele>261</ele>
        <time>2016-11-28T09:57:17Z</time>
      </trkpt>
      <trkpt lat="45.94528" lon="4.83598">
        <ele>261</ele>
        <time>2016-11-28T09:57:18Z</time>
      </trkpt>
      <trkpt lat="45.94529" lon="4.83604">
        <ele>261</ele>
        <time>2016-11-28T09:57:19Z</time>
      </trkpt>
      <trkpt lat="45.9453" lon="4.83611">
        <ele>261</ele>
        <time>2016-11-28T09:57:20Z</time>
      </trkpt>
      <trkpt lat="45.94531" lon="4.83618">
        <ele>261</ele>
        <time>2016-11-28T09:57:21Z</time>
      </trkpt>
      <trkpt lat="45.94532" lon="4.83625">
        <ele>261</ele>
        <time>2016-11-28T09:57:22Z</time>
      </trkpt>
      <trkpt lat="45.94534" lon="4.83632">
        <ele>261</ele>
        <time>2016-11-28T09:57:23Z</time>
      </trkpt>
      <trkpt lat="45.94535" lon="4.83639">
        <ele>261</ele>
        <time>2016-11-28T09:57:24Z</time>
      </trkpt>
      <trkpt lat="45.94536" lon="4.83646">
        <ele>261</ele>
        <time>2016-11-28T09:57:25Z</time>
      </trkpt>
      <trkpt lat="45.94537" lon="4.83653">
        <ele>261</ele>
        <time>2016-11-28T09:57:26Z</time>
      </trkpt>
      <trkpt lat="45.94538" lon="4.83661">
        <ele>261</ele>
        <time>2016-11-28T09:57:27Z</time>
      </trkpt>
      <trkpt lat="45.94539" lon="4.83669">
        <ele>262</ele>
        <time>2016-11-28T09:57:28Z</time>
      </trkpt>
      <trkpt lat="45.9454" lon="4.83676">
        <ele>262</ele>
        <time>2016-11-28T09:57:29Z</time>
      </trkpt>
      <trkpt lat="45.94541" lon="4.83683">
        <ele>262</ele>
        <time>2016-11-28T09:57:30Z</time>
      </trkpt>
      <trkpt lat="45.94541" lon="4.8369">
        <ele>262</ele>
        <time>2016-11-28T09:57:31Z</time>
      </trkpt>
      <trkpt lat="45.94542" lon="4.83697">
        <ele>262</ele>
        <time>2016-11-28T09:57:32Z</time>
      </trkpt>
      <trkpt lat="45.94543" lon="4.83704">
        <ele>262</ele>
        <time>2016-11-28T09:57:33Z</time>
      </trkpt>
      <trkpt lat="45.94544" lon="4.83711">
        <ele>262</ele>
        <time>2016-11-28T09:57:34Z</time>
      </trkpt>
      <trkpt lat="45.94545" lon="4.83718">
        <ele>262</ele>
        <time>2016-11-28T09:57:35Z</time>
      </trkpt>
      <trkpt lat="45.94546" lon="4.83725">
        <ele>262</ele>
        <time>2016-11-28T09:57:36Z</time>
      </trkpt>
      <trkpt lat="45.94547" lon="4.83731">
        <ele>262</ele>
        <time>2016-11-28T09:57:37Z</time>
      </trkpt>
      <trkpt lat="45.94548" lon="4.83738">
        <ele>262</ele>
        <time>2016-11-28T09:57:38Z</time>
      </trkpt>
      <trkpt lat="45.94549" lon="4.83745">
        <ele>262</ele>
        <time>2016-11-28T09:57:39Z</time>
      </trkpt>
      <trkpt lat="45.94551" lon="4.83752">
        <ele>263</ele>
        <time>2016-11-28T09:57:40Z</time>
      </trkpt>
      <trkpt lat="45.94552" lon="4.83759">
        <ele>263</ele>
        <time>2016-11-28T09:57:41Z</time>
      </trkpt>
      <trkpt lat="45.94553" lon="4.83766">
        <ele>263</ele>
        <time>2016-11-28T09:57:42Z</time>
      </trkpt>
      <trkpt lat="45.94554" lon="4.83773">
        <ele>264</ele>
        <time>2016-11-28T09:57:43Z</time>
      </trkpt>
      <trkpt lat="45.94555" lon="4.8378">
        <ele>264</ele>
        <time>2016-11-28T09:57:44Z</time>
      </trkpt>
      <trkpt lat="45.94556" lon="4.83788">
        <ele>264</ele>
        <time>2016-11-28T09:57:45Z</time>
      </trkpt>
      <trkpt lat="45.94558" lon="4.83795">
        <ele>264</ele>
        <time>2016-11-28T09:57:46Z</time>
      </trkpt>
      <trkpt lat="45.94559" lon="4.83802">
        <ele>264</ele>
        <time>2016-11-28T09:57:47Z</time>
      </trkpt>
      <trkpt lat="45.9456" lon="4.8381">
        <ele>264</ele>
        <time>2016-11-28T09:57:48Z</time>
      </trkpt>
      <trkpt lat="45.94562" lon="4.83818">
        <ele>264</ele>
        <time>2016-11-28T09:57:49Z</time>
      </trkpt>
      <trkpt lat="45.94563" lon="4.83825">
        <ele>264</ele>
        <time>2016-11-28T09:57:50Z</time>
      </trkpt>
      <trkpt lat="45.94564" lon="4.83832">
        <ele>265</ele>
        <time>2016-11-28T09:57:51Z</time>
      </trkpt>
      <trkpt lat="45.94565" lon="4.83839">
        <ele>266</ele>
        <time>2016-11-28T09:57:52Z</time>
      </trkpt>
      <trkpt lat="45.94566" lon="4.83846">
        <ele>266</ele>
        <time>2016-11-28T09:57:53Z</time>
      </trkpt>
      <trkpt lat="45.94567" lon="4.83853">
        <ele>266</ele>
        <time>2016-11-28T09:57:54Z</time>
      </trkpt>
      <trkpt lat="45.94568" lon="4.8386">
        <ele>267</ele>
        <time>2016-11-28T09:57:55Z</time>
      </trkpt>
      <trkpt lat="45.94569" lon="4.83868">
        <ele>267</ele>
        <time>2016-11-28T09:57:56Z</time>
      </trkpt>
      <trkpt lat="45.9457" lon="4.83875">
        <ele>267</ele>
        <time>2016-11-28T09:57:57Z</time>
      </trkpt>
      <trkpt lat="45.94571" lon="4.83883">
        <ele>267</ele>
        <time>2016-11-28T09:57:58Z</time>
      </trkpt>
      <trkpt lat="45.94573" lon="4.83889">
        <ele>267</ele>
        <time>2016-11-28T09:57:59Z</time>
      </trkpt>
      <trkpt lat="45.94574" lon="4.83897">
        <ele>268</ele>
        <time>2016-11-28T09:58:00Z</time>
      </trkpt>
      <trkpt lat="45.94575" lon="4.83903">
        <ele>268</ele>
        <time>2016-11-28T09:58:01Z</time>
      </trkpt>
      <trkpt lat="45.94576" lon="4.83911">
        <ele>268</ele>
        <time>2016-11-28T09:58:02Z</time>
      </trkpt>
      <trkpt lat="45.94577" lon="4.83918">
        <ele>268</ele>
        <time>2016-11-28T09:58:03Z</time>
      </trkpt>
      <trkpt lat="45.94578" lon="4.83925">
        <ele>268</ele>
        <time>2016-11-28T09:58:04Z</time>
      </trkpt>
      <trkpt lat="45.94579" lon="4.83932">
        <ele>268</ele>
        <time>2016-11-28T09:58:05Z</time>
      </trkpt>
      <trkpt lat="45.9458" lon="4.8394">
        <ele>269</ele>
        <time>2016-11-28T09:58:06Z</time>
      </trkpt>
      <trkpt lat="45.94582" lon="4.83946">
        <ele>269</ele>
        <time>2016-11-28T09:58:07Z</time>
      </trkpt>
      <trkpt lat="45.94583" lon="4.83953">
        <ele>269</ele>
        <time>2016-11-28T09:58:08Z</time>
      </trkpt>
      <trkpt lat="45.94583" lon="4.8396">
        <ele>269</ele>
        <time>2016-11-28T09:58:09Z</time>
      </trkpt>
      <trkpt lat="45.94584" lon="4.83966">
        <ele>268</ele>
        <time>2016-11-28T09:58:10Z</time>
      </trkpt>
      <trkpt lat="45.94585" lon="4.83972">
        <ele>268</ele>
        <time>2016-11-28T09:58:11Z</time>
      </trkpt>
      <trkpt lat="45.94587" lon="4.83979">
        <ele>268</ele>
        <time>2016-11-28T09:58:12Z</time>
      </trkpt>
      <trkpt lat="45.94588" lon="4.83986">
        <ele>269</ele>
        <time>2016-11-28T09:58:13Z</time>
      </trkpt>
      <trkpt lat="45.94589" lon="4.83993">
        <ele>269</ele>
        <time>2016-11-28T09:58:14Z</time>
      </trkpt>
      <trkpt lat="45.9459" lon="4.83999">
        <ele>269</ele>
        <time>2016-11-28T09:58:15Z</time>
      </trkpt>
      <trkpt lat="45.94591" lon="4.84006">
        <ele>269</ele>
        <time>2016-11-28T09:58:16Z</time>
      </trkpt>
      <trkpt lat="45.94592" lon="4.84013">
        <ele>269</ele>
        <time>2016-11-28T09:58:17Z</time>
      </trkpt>
      <trkpt lat="45.94594" lon="4.84025">
        <ele>269</ele>
        <time>2016-11-28T09:58:19Z</time>
      </trkpt>
      <trkpt lat="45.94595" lon="4.84031">
        <ele>269</ele>
        <time>2016-11-28T09:58:20Z</time>
      </trkpt>
      <trkpt lat="45.94597" lon="4.84043">
        <ele>269</ele>
        <time>2016-11-28T09:58:22Z</time>
      </trkpt>
      <trkpt lat="45.94598" lon="4.84049">
        <ele>269</ele>
        <time>2016-11-28T09:58:23Z</time>
      </trkpt>
      <trkpt lat="45.94599" lon="4.84056">
        <ele>269</ele>
        <time>2016-11-28T09:58:24Z</time>
      </trkpt>
      <trkpt lat="45.946" lon="4.84062">
        <ele>269</ele>
        <time>2016-11-28T09:58:25Z</time>
      </trkpt>
      <trkpt lat="45.94601" lon="4.84069">
        <ele>269</ele>
        <time>2016-11-28T09:58:26Z</time>
      </trkpt>
      <trkpt lat="45.94602" lon="4.84076">
        <ele>269</ele>
        <time>2016-11-28T09:58:27Z</time>
      </trkpt>
      <trkpt lat="45.94603" lon="4.84083">
        <ele>269</ele>
        <time>2016-11-28T09:58:28Z</time>
      </trkpt>
      <trkpt lat="45.94604" lon="4.8409">
        <ele>269</ele>
        <time>2016-11-28T09:58:29Z</time>
      </trkpt>
      <trkpt lat="45.94605" lon="4.84097">
        <ele>269</ele>
        <time>2016-11-28T09:58:30Z</time>
      </trkpt>
      <trkpt lat="45.94606" lon="4.84104">
        <ele>269</ele>
        <time>2016-11-28T09:58:31Z</time>
      </trkpt>
      <trkpt lat="45.94608" lon="4.84113">
        <ele>269</ele>
        <time>2016-11-28T09:58:32Z</time>
      </trkpt>
      <trkpt lat="45.94609" lon="4.8412">
        <ele>269</ele>
        <time>2016-11-28T09:58:33Z</time>
      </trkpt>
      <trkpt lat="45.94611" lon="4.84132">
        <ele>269</ele>
        <time>2016-11-28T09:58:35Z</time>
      </trkpt>
      <trkpt lat="45.94611" lon="4.84137">
        <ele>269</ele>
        <time>2016-11-28T09:58:36Z</time>
      </trkpt>
      <trkpt lat="45.94613" lon="4.84148">
        <ele>269</ele>
        <time>2016-11-28T09:58:38Z</time>
      </trkpt>
      <trkpt lat="45.94614" lon="4.84153">
        <ele>269</ele>
        <time>2016-11-28T09:58:39Z</time>
      </trkpt>
      <trkpt lat="45.94616" lon="4.84165">
        <ele>269</ele>
        <time>2016-11-28T09:58:41Z</time>
      </trkpt>
      <trkpt lat="45.94617" lon="4.84171">
        <ele>269</ele>
        <time>2016-11-28T09:58:42Z</time>
      </trkpt>
      <trkpt lat="45.94618" lon="4.84177">
        <ele>269</ele>
        <time>2016-11-28T09:58:43Z</time>
      </trkpt>
      <trkpt lat="45.94619" lon="4.84183">
        <ele>269</ele>
        <time>2016-11-28T09:58:44Z</time>
      </trkpt>
      <trkpt lat="45.9462" lon="4.8419">
        <ele>269</ele>
        <time>2016-11-28T09:58:45Z</time>
      </trkpt>
      <trkpt lat="45.94621" lon="4.84197">
        <ele>269</ele>
        <time>2016-11-28T09:58:46Z</time>
      </trkpt>
      <trkpt lat="45.94622" lon="4.84204">
        <ele>269</ele>
        <time>2016-11-28T09:58:47Z</time>
      </trkpt>
      <trkpt lat="45.94623" lon="4.8421">
        <ele>269</ele>
        <time>2016-11-28T09:58:48Z</time>
      </trkpt>
      <trkpt lat="45.94625" lon="4.84223">
        <ele>269</ele>
        <time>2016-11-28T09:58:50Z</time>
      </trkpt>
      <trkpt lat="45.94626" lon="4.84229">
        <ele>269</ele>
        <time>2016-11-28T09:58:51Z</time>
      </trkpt>
      <trkpt lat="45.94627" lon="4.8424">
        <ele>269</ele>
        <time>2016-11-28T09:58:53Z</time>
      </trkpt>
      <trkpt lat="45.94628" lon="4.84245">
        <ele>269</ele>
        <time>2016-11-28T09:58:54Z</time>
      </trkpt>
      <trkpt lat="45.94629" lon="4.84257">
        <ele>269</ele>
        <time>2016-11-28T09:58:56Z</time>
      </trkpt>
      <trkpt lat="45.9463" lon="4.84263">
        <ele>269</ele>
        <time>2016-11-28T09:58:57Z</time>
      </trkpt>
      <trkpt lat="45.94631" lon="4.84269">
        <ele>269</ele>
        <time>2016-11-28T09:58:58Z</time>
      </trkpt>
      <trkpt lat="45.94631" lon="4.84276">
        <ele>269</ele>
        <time>2016-11-28T09:58:59Z</time>
      </trkpt>
      <trkpt lat="45.94632" lon="4.84283">
        <ele>269</ele>
        <time>2016-11-28T09:59:00Z</time>
      </trkpt>
      <trkpt lat="45.94633" lon="4.8429">
        <ele>269</ele>
        <time>2016-11-28T09:59:01Z</time>
      </trkpt>
      <trkpt lat="45.94634" lon="4.84297">
        <ele>269</ele>
        <time>2016-11-28T09:59:02Z</time>
      </trkpt>
      <trkpt lat="45.94635" lon="4.84304">
        <ele>269</ele>
        <time>2016-11-28T09:59:03Z</time>
      </trkpt>
      <trkpt lat="45.94636" lon="4.84311">
        <ele>269</ele>
        <time>2016-11-28T09:59:04Z</time>
      </trkpt>
      <trkpt lat="45.94637" lon="4.84318">
        <ele>269</ele>
        <time>2016-11-28T09:59:05Z</time>
      </trkpt>
      <trkpt lat="45.94639" lon="4.84329">
        <ele>269</ele>
        <time>2016-11-28T09:59:07Z</time>
      </trkpt>
      <trkpt lat="45.9464" lon="4.84335">
        <ele>268</ele>
        <time>2016-11-28T09:59:08Z</time>
      </trkpt>
      <trkpt lat="45.94641" lon="4.84346">
        <ele>268</ele>
        <time>2016-11-28T09:59:10Z</time>
      </trkpt>
      <trkpt lat="45.94642" lon="4.84352">
        <ele>268</ele>
        <time>2016-11-28T09:59:11Z</time>
      </trkpt>
      <trkpt lat="45.94643" lon="4.84365">
        <ele>268</ele>
        <time>2016-11-28T09:59:13Z</time>
      </trkpt>
      <trkpt lat="45.94645" lon="4.84371">
        <ele>268</ele>
        <time>2016-11-28T09:59:14Z</time>
      </trkpt>
      <trkpt lat="45.94647" lon="4.84383">
        <ele>268</ele>
        <time>2016-11-28T09:59:16Z</time>
      </trkpt>
      <trkpt lat="45.94648" lon="4.84389">
        <ele>268</ele>
        <time>2016-11-28T09:59:17Z</time>
      </trkpt>
      <trkpt lat="45.94648" lon="4.84396">
        <ele>268</ele>
        <time>2016-11-28T09:59:18Z</time>
      </trkpt>
      <trkpt lat="45.94649" lon="4.84402">
        <ele>268</ele>
        <time>2016-11-28T09:59:19Z</time>
      </trkpt>
      <trkpt lat="45.9465" lon="4.84409">
        <ele>268</ele>
        <time>2016-11-28T09:59:20Z</time>
      </trkpt>
      <trkpt lat="45.9465" lon="4.84415">
        <ele>268</ele>
        <time>2016-11-28T09:59:21Z</time>
      </trkpt>
      <trkpt lat="45.94651" lon="4.84422">
        <ele>268</ele>
        <time>2016-11-28T09:59:22Z</time>
      </trkpt>
      <trkpt lat="45.94651" lon="4.84429">
        <ele>268</ele>
        <time>2016-11-28T09:59:23Z</time>
      </trkpt>
      <trkpt lat="45.94652" lon="4.84435">
        <ele>268</ele>
        <time>2016-11-28T09:59:24Z</time>
      </trkpt>
      <trkpt lat="45.94653" lon="4.84441">
        <ele>268</ele>
        <time>2016-11-28T09:59:25Z</time>
      </trkpt>
      <trkpt lat="45.94654" lon="4.84448">
        <ele>268</ele>
        <time>2016-11-28T09:59:26Z</time>
      </trkpt>
      <trkpt lat="45.94654" lon="4.84454">
        <ele>268</ele>
        <time>2016-11-28T09:59:27Z</time>
      </trkpt>
      <trkpt lat="45.94655" lon="4.84461">
        <ele>268</ele>
        <time>2016-11-28T09:59:28Z</time>
      </trkpt>
      <trkpt lat="45.94656" lon="4.84467">
        <ele>268</ele>
        <time>2016-11-28T09:59:29Z</time>
      </trkpt>
      <trkpt lat="45.94656" lon="4.84474">
        <ele>268</ele>
        <time>2016-11-28T09:59:30Z</time>
      </trkpt>
      <trkpt lat="45.94657" lon="4.84481">
        <ele>268</ele>
        <time>2016-11-28T09:59:31Z</time>
      </trkpt>
      <trkpt lat="45.94658" lon="4.84488">
        <ele>268</ele>
        <time>2016-11-28T09:59:32Z</time>
      </trkpt>
      <trkpt lat="45.94658" lon="4.84495">
        <ele>268</ele>
        <time>2016-11-28T09:59:33Z</time>
      </trkpt>
      <trkpt lat="45.94658" lon="4.84502">
        <ele>268</ele>
        <time>2016-11-28T09:59:34Z</time>
      </trkpt>
      <trkpt lat="45.94659" lon="4.84509">
        <ele>268</ele>
        <time>2016-11-28T09:59:35Z</time>
      </trkpt>
      <trkpt lat="45.94659" lon="4.84516">
        <ele>268</ele>
        <time>2016-11-28T09:59:36Z</time>
      </trkpt>
      <trkpt lat="45.9466" lon="4.84523">
        <ele>268</ele>
        <time>2016-11-28T09:59:37Z</time>
      </trkpt>
      <trkpt lat="45.94661" lon="4.8453">
        <ele>268</ele>
        <time>2016-11-28T09:59:38Z</time>
      </trkpt>
      <trkpt lat="45.94662" lon="4.84538">
        <ele>268</ele>
        <time>2016-11-28T09:59:39Z</time>
      </trkpt>
      <trkpt lat="45.94662" lon="4.84545">
        <ele>268</ele>
        <time>2016-11-28T09:59:40Z</time>
      </trkpt>
      <trkpt lat="45.94663" lon="4.84553">
        <ele>268</ele>
        <time>2016-11-28T09:59:41Z</time>
      </trkpt>
      <trkpt lat="45.94663" lon="4.8456">
        <ele>268</ele>
        <time>2016-11-28T09:59:42Z</time>
      </trkpt>
      <trkpt lat="45.94664" lon="4.84567">
        <ele>268</ele>
        <time>2016-11-28T09:59:43Z</time>
      </trkpt>
      <trkpt lat="45.94664" lon="4.84575">
        <ele>268</ele>
        <time>2016-11-28T09:59:44Z</time>
      </trkpt>
      <trkpt lat="45.94665" lon="4.84582">
        <ele>268</ele>
        <time>2016-11-28T09:59:45Z</time>
      </trkpt>
      <trkpt lat="45.94665" lon="4.8459">
        <ele>268</ele>
        <time>2016-11-28T09:59:46Z</time>
      </trkpt>
      <trkpt lat="45.94666" lon="4.84597">
        <ele>268</ele>
        <time>2016-11-28T09:59:47Z</time>
      </trkpt>
      <trkpt lat="45.94666" lon="4.84605">
        <ele>268</ele>
        <time>2016-11-28T09:59:48Z</time>
      </trkpt>
      <trkpt lat="45.94666" lon="4.84612">
        <ele>268</ele>
        <time>2016-11-28T09:59:49Z</time>
      </trkpt>
      <trkpt lat="45.94667" lon="4.84619">
        <ele>268</ele>
        <time>2016-11-28T09:59:50Z</time>
      </trkpt>
      <trkpt lat="45.94667" lon="4.84626">
        <ele>268</ele>
        <time>2016-11-28T09:59:51Z</time>
      </trkpt>
      <trkpt lat="45.94668" lon="4.84632">
        <ele>268</ele>
        <time>2016-11-28T09:59:52Z</time>
      </trkpt>
      <trkpt lat="45.94668" lon="4.84639">
        <ele>268</ele>
        <time>2016-11-28T09:59:53Z</time>
      </trkpt>
      <trkpt lat="45.94669" lon="4.84645">
        <ele>268</ele>
        <time>2016-11-28T09:59:54Z</time>
      </trkpt>
      <trkpt lat="45.94669" lon="4.84653">
        <ele>268</ele>
        <time>2016-11-28T09:59:55Z</time>
      </trkpt>
      <trkpt lat="45.94669" lon="4.84661">
        <ele>269</ele>
        <time>2016-11-28T09:59:56Z</time>
      </trkpt>
      <trkpt lat="45.94669" lon="4.84669">
        <ele>269</ele>
        <time>2016-11-28T09:59:57Z</time>
      </trkpt>
      <trkpt lat="45.94669" lon="4.84676">
        <ele>269</ele>
        <time>2016-11-28T09:59:58Z</time>
      </trkpt>
      <trkpt lat="45.9467" lon="4.84684">
        <ele>269</ele>
        <time>2016-11-28T09:59:59Z</time>
      </trkpt>
      <trkpt lat="45.9467" lon="4.84691">
        <ele>269</ele>
        <time>2016-11-28T10:00:00Z</time>
      </trkpt>
      <trkpt lat="45.9467" lon="4.84698">
        <ele>269</ele>
        <time>2016-11-28T10:00:01Z</time>
      </trkpt>
      <trkpt lat="45.94671" lon="4.84704">
        <ele>269</ele>
        <time>2016-11-28T10:00:02Z</time>
      </trkpt>
      <trkpt lat="45.94671" lon="4.84711">
        <ele>269</ele>
        <time>2016-11-28T10:00:03Z</time>
      </trkpt>
      <trkpt lat="45.94671" lon="4.84723">
        <ele>269</ele>
        <time>2016-11-28T10:00:05Z</time>
      </trkpt>
      <trkpt lat="45.94671" lon="4.8473">
        <ele>269</ele>
        <time>2016-11-28T10:00:06Z</time>
      </trkpt>
      <trkpt lat="45.94672" lon="4.84743">
        <ele>269</ele>
        <time>2016-11-28T10:00:08Z</time>
      </trkpt>
      <trkpt lat="45.94673" lon="4.84749">
        <ele>269</ele>
        <time>2016-11-28T10:00:09Z</time>
      </trkpt>
      <trkpt lat="45.94673" lon="4.84756">
        <ele>269</ele>
        <time>2016-11-28T10:00:10Z</time>
      </trkpt>
      <trkpt lat="45.94674" lon="4.84762">
        <ele>269</ele>
        <time>2016-11-28T10:00:11Z</time>
      </trkpt>
      <trkpt lat="45.94674" lon="4.84769">
        <ele>269</ele>
        <time>2016-11-28T10:00:12Z</time>
      </trkpt>
      <trkpt lat="45.94674" lon="4.84775">
        <ele>269</ele>
        <time>2016-11-28T10:00:13Z</time>
      </trkpt>
      <trkpt lat="45.94674" lon="4.84782">
        <ele>269</ele>
        <time>2016-11-28T10:00:14Z</time>
      </trkpt>
      <trkpt lat="45.94675" lon="4.84788">
        <ele>269</ele>
        <time>2016-11-28T10:00:15Z</time>
      </trkpt>
      <trkpt lat="45.94675" lon="4.84795">
        <ele>268</ele>
        <time>2016-11-28T10:00:16Z</time>
      </trkpt>
      <trkpt lat="45.94676" lon="4.84802">
        <ele>268</ele>
        <time>2016-11-28T10:00:17Z</time>
      </trkpt>
      <trkpt lat="45.94677" lon="4.84809">
        <ele>268</ele>
        <time>2016-11-28T10:00:18Z</time>
      </trkpt>
      <trkpt lat="45.94677" lon="4.84816">
        <ele>268</ele>
        <time>2016-11-28T10:00:19Z</time>
      </trkpt>
      <trkpt lat="45.94678" lon="4.84823">
        <ele>268</ele>
        <time>2016-11-28T10:00:20Z</time>
      </trkpt>
      <trkpt lat="45.94678" lon="4.8483">
        <ele>268</ele>
        <time>2016-11-28T10:00:21Z</time>
      </trkpt>
      <trkpt lat="45.94679" lon="4.84837">
        <ele>268</ele>
        <time>2016-11-28T10:00:22Z</time>
      </trkpt>
      <trkpt lat="45.94679" lon="4.84844">
        <ele>268</ele>
        <time>2016-11-28T10:00:23Z</time>
      </trkpt>
      <trkpt lat="45.9468" lon="4.84851">
        <ele>268</ele>
        <time>2016-11-28T10:00:24Z</time>
      </trkpt>
      <trkpt lat="45.9468" lon="4.84858">
        <ele>268</ele>
        <time>2016-11-28T10:00:25Z</time>
      </trkpt>
      <trkpt lat="45.94681" lon="4.84865">
        <ele>268</ele>
        <time>2016-11-28T10:00:26Z</time>
      </trkpt>
      <trkpt lat="45.94682" lon="4.84872">
        <ele>268</ele>
        <time>2016-11-28T10:00:27Z</time>
      </trkpt>
      <trkpt lat="45.94683" lon="4.84879">
        <ele>268</ele>
        <time>2016-11-28T10:00:28Z</time>
      </trkpt>
      <trkpt lat="45.94683" lon="4.84885">
        <ele>268</ele>
        <time>2016-11-28T10:00:29Z</time>
      </trkpt>
      <trkpt lat="45.94684" lon="4.84892">
        <ele>268</ele>
        <time>2016-11-28T10:00:30Z</time>
      </trkpt>
      <trkpt lat="45.94685" lon="4.84899">
        <ele>268</ele>
        <time>2016-11-28T10:00:31Z</time>
      </trkpt>
      <trkpt lat="45.94685" lon="4.84906">
        <ele>269</ele>
        <time>2016-11-28T10:00:32Z</time>
      </trkpt>
      <trkpt lat="45.94686" lon="4.84913">
        <ele>269</ele>
        <time>2016-11-28T10:00:33Z</time>
      </trkpt>
      <trkpt lat="45.94687" lon="4.8492">
        <ele>269</ele>
        <time>2016-11-28T10:00:34Z</time>
      </trkpt>
      <trkpt lat="45.94687" lon="4.84927">
        <ele>269</ele>
        <time>2016-11-28T10:00:35Z</time>
      </trkpt>
      <trkpt lat="45.94688" lon="4.84934">
        <ele>269</ele>
        <time>2016-11-28T10:00:36Z</time>
      </trkpt>
      <trkpt lat="45.94689" lon="4.8494">
        <ele>269</ele>
        <time>2016-11-28T10:00:37Z</time>
      </trkpt>
      <trkpt lat="45.94689" lon="4.84947">
        <ele>269</ele>
        <time>2016-11-28T10:00:38Z</time>
      </trkpt>
      <trkpt lat="45.9469" lon="4.84954">
        <ele>269</ele>
        <time>2016-11-28T10:00:39Z</time>
      </trkpt>
      <trkpt lat="45.94691" lon="4.84961">
        <ele>269</ele>
        <time>2016-11-28T10:00:40Z</time>
      </trkpt>
      <trkpt lat="45.94692" lon="4.84968">
        <ele>269</ele>
        <time>2016-11-28T10:00:41Z</time>
      </trkpt>
      <trkpt lat="45.94693" lon="4.84975">
        <ele>269</ele>
        <time>2016-11-28T10:00:42Z</time>
      </trkpt>
      <trkpt lat="45.94693" lon="4.84981">
        <ele>269</ele>
        <time>2016-11-28T10:00:43Z</time>
      </trkpt>
      <trkpt lat="45.94694" lon="4.84989">
        <ele>269</ele>
        <time>2016-11-28T10:00:44Z</time>
      </trkpt>
      <trkpt lat="45.94695" lon="4.84995">
        <ele>269</ele>
        <time>2016-11-28T10:00:45Z</time>
      </trkpt>
      <trkpt lat="45.94696" lon="4.85002">
        <ele>269</ele>
        <time>2016-11-28T10:00:46Z</time>
      </trkpt>
      <trkpt lat="45.94697" lon="4.85009">
        <ele>269</ele>
        <time>2016-11-28T10:00:47Z</time>
      </trkpt>
      <trkpt lat="45.94697" lon="4.85017">
        <ele>269</ele>
        <time>2016-11-28T10:00:48Z</time>
      </trkpt>
      <trkpt lat="45.94698" lon="4.85023">
        <ele>269</ele>
        <time>2016-11-28T10:00:49Z</time>
      </trkpt>
      <trkpt lat="45.94699" lon="4.8503">
        <ele>269</ele>
        <time>2016-11-28T10:00:50Z</time>
      </trkpt>
      <trkpt lat="45.947" lon="4.85037">
        <ele>269</ele>
        <time>2016-11-28T10:00:51Z</time>
      </trkpt>
      <trkpt lat="45.94701" lon="4.85045">
        <ele>269</ele>
        <time>2016-11-28T10:00:52Z</time>
      </trkpt>
      <trkpt lat="45.94701" lon="4.85052">
        <ele>269</ele>
        <time>2016-11-28T10:00:53Z</time>
      </trkpt>
      <trkpt lat="45.94702" lon="4.85059">
        <ele>269</ele>
        <time>2016-11-28T10:00:54Z</time>
      </trkpt>
      <trkpt lat="45.94703" lon="4.85066">
        <ele>269</ele>
        <time>2016-11-28T10:00:55Z</time>
      </trkpt>
      <trkpt lat="45.94704" lon="4.85073">
        <ele>269</ele>
        <time>2016-11-28T10:00:56Z</time>
      </trkpt>
      <trkpt lat="45.94705" lon="4.8508">
        <ele>269</ele>
        <time>2016-11-28T10:00:57Z</time>
      </trkpt>
      <trkpt lat="45.94705" lon="4.85087">
        <ele>269</ele>
        <time>2016-11-28T10:00:58Z</time>
      </trkpt>
      <trkpt lat="45.94706" lon="4.85094">
        <ele>269</ele>
        <time>2016-11-28T10:00:59Z</time>
      </trkpt>
      <trkpt lat="45.94707" lon="4.85101">
        <ele>269</ele>
        <time>2016-11-28T10:01:00Z</time>
      </trkpt>
      <trkpt lat="45.94708" lon="4.85108">
        <ele>269</ele>
        <time>2016-11-28T10:01:01Z</time>
      </trkpt>
      <trkpt lat="45.94708" lon="4.85115">
        <ele>269</ele>
        <time>2016-11-28T10:01:02Z</time>
      </trkpt>
      <trkpt lat="45.94709" lon="4.85122">
        <ele>269</ele>
        <time>2016-11-28T10:01:03Z</time>
      </trkpt>
      <trkpt lat="45.9471" lon="4.85128">
        <ele>269</ele>
        <time>2016-11-28T10:01:04Z</time>
      </trkpt>
      <trkpt lat="45.9471" lon="4.85135">
        <ele>269</ele>
        <time>2016-11-28T10:01:05Z</time>
      </trkpt>
      <trkpt lat="45.94711" lon="4.85142">
        <ele>269</ele>
        <time>2016-11-28T10:01:06Z</time>
      </trkpt>
      <trkpt lat="45.94712" lon="4.85149">
        <ele>269</ele>
        <time>2016-11-28T10:01:07Z</time>
      </trkpt>
      <trkpt lat="45.94713" lon="4.85155">
        <ele>269</ele>
        <time>2016-11-28T10:01:08Z</time>
      </trkpt>
      <trkpt lat="45.94714" lon="4.85162">
        <ele>269</ele>
        <time>2016-11-28T10:01:09Z</time>
      </trkpt>
      <trkpt lat="45.94715" lon="4.85169">
        <ele>269</ele>
        <time>2016-11-28T10:01:10Z</time>
      </trkpt>
      <trkpt lat="45.94715" lon="4.85176">
        <ele>269</ele>
        <time>2016-11-28T10:01:11Z</time>
      </trkpt>
      <trkpt lat="45.94716" lon="4.85183">
        <ele>269</ele>
        <time>2016-11-28T10:01:12Z</time>
      </trkpt>
      <trkpt lat="45.94716" lon="4.8519">
        <ele>269</ele>
        <time>2016-11-28T10:01:13Z</time>
      </trkpt>
      <trkpt lat="45.94717" lon="4.85196">
        <ele>269</ele>
        <time>2016-11-28T10:01:14Z</time>
      </trkpt>
      <trkpt lat="45.94718" lon="4.85203">
        <ele>269</ele>
        <time>2016-11-28T10:01:15Z</time>
      </trkpt>
      <trkpt lat="45.94719" lon="4.8521">
        <ele>269</ele>
        <time>2016-11-28T10:01:16Z</time>
      </trkpt>
      <trkpt lat="45.94719" lon="4.85217">
        <ele>269</ele>
        <time>2016-11-28T10:01:17Z</time>
      </trkpt>
      <trkpt lat="45.9472" lon="4.85224">
        <ele>269</ele>
        <time>2016-11-28T10:01:18Z</time>
      </trkpt>
      <trkpt lat="45.94721" lon="4.85231">
        <ele>269</ele>
        <time>2016-11-28T10:01:19Z</time>
      </trkpt>
      <trkpt lat="45.94721" lon="4.85238">
        <ele>269</ele>
        <time>2016-11-28T10:01:20Z</time>
      </trkpt>
      <trkpt lat="45.94722" lon="4.85244">
        <ele>269</ele>
        <time>2016-11-28T10:01:21Z</time>
      </trkpt>
      <trkpt lat="45.94723" lon="4.85251">
        <ele>269</ele>
        <time>2016-11-28T10:01:22Z</time>
      </trkpt>
      <trkpt lat="45.94723" lon="4.85258">
        <ele>269</ele>
        <time>2016-11-28T10:01:23Z</time>
      </trkpt>
      <trkpt lat="45.94724" lon="4.85264">
        <ele>269</ele>
        <time>2016-11-28T10:01:24Z</time>
      </trkpt>
      <trkpt lat="45.94725" lon="4.8527">
        <ele>269</ele>
        <time>2016-11-28T10:01:25Z</time>
      </trkpt>
      <trkpt lat="45.94726" lon="4.85277">
        <ele>269</ele>
        <time>2016-11-28T10:01:26Z</time>
      </trkpt>
      <trkpt lat="45.94727" lon="4.85284">
        <ele>269</ele>
        <time>2016-11-28T10:01:27Z</time>
      </trkpt>
      <trkpt lat="45.94727" lon="4.8529">
        <ele>269</ele>
        <time>2016-11-28T10:01:28Z</time>
      </trkpt>
      <trkpt lat="45.94728" lon="4.85297">
        <ele>270</ele>
        <time>2016-11-28T10:01:29Z</time>
      </trkpt>
      <trkpt lat="45.94729" lon="4.85304">
        <ele>270</ele>
        <time>2016-11-28T10:01:30Z</time>
      </trkpt>
      <trkpt lat="45.94729" lon="4.85311">
        <ele>270</ele>
        <time>2016-11-28T10:01:31Z</time>
      </trkpt>
      <trkpt lat="45.9473" lon="4.85318">
        <ele>270</ele>
        <time>2016-11-28T10:01:32Z</time>
      </trkpt>
      <trkpt lat="45.94731" lon="4.85325">
        <ele>270</ele>
        <time>2016-11-28T10:01:33Z</time>
      </trkpt>
      <trkpt lat="45.94731" lon="4.85332">
        <ele>270</ele>
        <time>2016-11-28T10:01:34Z</time>
      </trkpt>
      <trkpt lat="45.94732" lon="4.85339">
        <ele>271</ele>
        <time>2016-11-28T10:01:35Z</time>
      </trkpt>
      <trkpt lat="45.94733" lon="4.85345">
        <ele>271</ele>
        <time>2016-11-28T10:01:36Z</time>
      </trkpt>
      <trkpt lat="45.94734" lon="4.85352">
        <ele>271</ele>
        <time>2016-11-28T10:01:37Z</time>
      </trkpt>
      <trkpt lat="45.94735" lon="4.85359">
        <ele>271</ele>
        <time>2016-11-28T10:01:38Z</time>
      </trkpt>
      <trkpt lat="45.94735" lon="4.85365">
        <ele>271</ele>
        <time>2016-11-28T10:01:39Z</time>
      </trkpt>
      <trkpt lat="45.94736" lon="4.85372">
        <ele>271</ele>
        <time>2016-11-28T10:01:40Z</time>
      </trkpt>
      <trkpt lat="45.94736" lon="4.85379">
        <ele>271</ele>
        <time>2016-11-28T10:01:41Z</time>
      </trkpt>
      <trkpt lat="45.94737" lon="4.85385">
        <ele>272</ele>
        <time>2016-11-28T10:01:42Z</time>
      </trkpt>
      <trkpt lat="45.94738" lon="4.85392">
        <ele>272</ele>
        <time>2016-11-28T10:01:43Z</time>
      </trkpt>
      <trkpt lat="45.94739" lon="4.85404">
        <ele>272</ele>
        <time>2016-11-28T10:01:45Z</time>
      </trkpt>
      <trkpt lat="45.9474" lon="4.85411">
        <ele>272</ele>
        <time>2016-11-28T10:01:46Z</time>
      </trkpt>
      <trkpt lat="45.94741" lon="4.85424">
        <ele>273</ele>
        <time>2016-11-28T10:01:48Z</time>
      </trkpt>
      <trkpt lat="45.94742" lon="4.8543">
        <ele>273</ele>
        <time>2016-11-28T10:01:49Z</time>
      </trkpt>
      <trkpt lat="45.94743" lon="4.85442">
        <ele>274</ele>
        <time>2016-11-28T10:01:51Z</time>
      </trkpt>
      <trkpt lat="45.94744" lon="4.85449">
        <ele>274</ele>
        <time>2016-11-28T10:01:52Z</time>
      </trkpt>
      <trkpt lat="45.94745" lon="4.85456">
        <ele>274</ele>
        <time>2016-11-28T10:01:53Z</time>
      </trkpt>
      <trkpt lat="45.94745" lon="4.85463">
        <ele>274</ele>
        <time>2016-11-28T10:01:54Z</time>
      </trkpt>
      <trkpt lat="45.94746" lon="4.8547">
        <ele>274</ele>
        <time>2016-11-28T10:01:55Z</time>
      </trkpt>
      <trkpt lat="45.94747" lon="4.85477">
        <ele>275</ele>
        <time>2016-11-28T10:01:56Z</time>
      </trkpt>
      <trkpt lat="45.94748" lon="4.85484">
        <ele>275</ele>
        <time>2016-11-28T10:01:57Z</time>
      </trkpt>
      <trkpt lat="45.94749" lon="4.8549">
        <ele>275</ele>
        <time>2016-11-28T10:01:58Z</time>
      </trkpt>
      <trkpt lat="45.9475" lon="4.85497">
        <ele>276</ele>
        <time>2016-11-28T10:01:59Z</time>
      </trkpt>
      <trkpt lat="45.94751" lon="4.85503">
        <ele>276</ele>
        <time>2016-11-28T10:02:00Z</time>
      </trkpt>
      <trkpt lat="45.94751" lon="4.8551">
        <ele>277</ele>
        <time>2016-11-28T10:02:01Z</time>
      </trkpt>
      <trkpt lat="45.94752" lon="4.85517">
        <ele>277</ele>
        <time>2016-11-28T10:02:02Z</time>
      </trkpt>
      <trkpt lat="45.94753" lon="4.85523">
        <ele>277</ele>
        <time>2016-11-28T10:02:03Z</time>
      </trkpt>
      <trkpt lat="45.94754" lon="4.85529">
        <ele>278</ele>
        <time>2016-11-28T10:02:04Z</time>
      </trkpt>
      <trkpt lat="45.94755" lon="4.85535">
        <ele>278</ele>
        <time>2016-11-28T10:02:05Z</time>
      </trkpt>
      <trkpt lat="45.94756" lon="4.85542">
        <ele>278</ele>
        <time>2016-11-28T10:02:06Z</time>
      </trkpt>
      <trkpt lat="45.94758" lon="4.85554">
        <ele>278</ele>
        <time>2016-11-28T10:02:08Z</time>
      </trkpt>
      <trkpt lat="45.94759" lon="4.8556">
        <ele>278</ele>
        <time>2016-11-28T10:02:09Z</time>
      </trkpt>
      <trkpt lat="45.9476" lon="4.85571">
        <ele>279</ele>
        <time>2016-11-28T10:02:11Z</time>
      </trkpt>
      <trkpt lat="45.94761" lon="4.85578">
        <ele>279</ele>
        <time>2016-11-28T10:02:12Z</time>
      </trkpt>
      <trkpt lat="45.94764" lon="4.85589">
        <ele>280</ele>
        <time>2016-11-28T10:02:14Z</time>
      </trkpt>
      <trkpt lat="45.94765" lon="4.85595">
        <ele>280</ele>
        <time>2016-11-28T10:02:15Z</time>
      </trkpt>
      <trkpt lat="45.94767" lon="4.85605">
        <ele>280</ele>
        <time>2016-11-28T10:02:17Z</time>
      </trkpt>
      <trkpt lat="45.94768" lon="4.85611">
        <ele>280</ele>
        <time>2016-11-28T10:02:18Z</time>
      </trkpt>
      <trkpt lat="45.94771" lon="4.85622">
        <ele>280</ele>
        <time>2016-11-28T10:02:20Z</time>
      </trkpt>
      <trkpt lat="45.94772" lon="4.85628">
        <ele>280</ele>
        <time>2016-11-28T10:02:21Z</time>
      </trkpt>
      <trkpt lat="45.94775" lon="4.85638">
        <ele>281</ele>
        <time>2016-11-28T10:02:23Z</time>
      </trkpt>
      <trkpt lat="45.94777" lon="4.85644">
        <ele>281</ele>
        <time>2016-11-28T10:02:24Z</time>
      </trkpt>
      <trkpt lat="45.94779" lon="4.85654">
        <ele>281</ele>
        <time>2016-11-28T10:02:26Z</time>
      </trkpt>
      <trkpt lat="45.94781" lon="4.85659">
        <ele>281</ele>
        <time>2016-11-28T10:02:27Z</time>
      </trkpt>
      <trkpt lat="45.94784" lon="4.85669">
        <ele>280</ele>
        <time>2016-11-28T10:02:29Z</time>
      </trkpt>
      <trkpt lat="45.94785" lon="4.85674">
        <ele>280</ele>
        <time>2016-11-28T10:02:30Z</time>
      </trkpt>
      <trkpt lat="45.94788" lon="4.85683">
        <ele>280</ele>
        <time>2016-11-28T10:02:32Z</time>
      </trkpt>
      <trkpt lat="45.9479" lon="4.85688">
        <ele>280</ele>
        <time>2016-11-28T10:02:33Z</time>
      </trkpt>
      <trkpt lat="45.94792" lon="4.85698">
        <ele>280</ele>
        <time>2016-11-28T10:02:35Z</time>
      </trkpt>
      <trkpt lat="45.94794" lon="4.85703">
        <ele>280</ele>
        <time>2016-11-28T10:02:36Z</time>
      </trkpt>
      <trkpt lat="45.94796" lon="4.85715">
        <ele>280</ele>
        <time>2016-11-28T10:02:38Z</time>
      </trkpt>
      <trkpt lat="45.94798" lon="4.8572">
        <ele>280</ele>
        <time>2016-11-28T10:02:39Z</time>
      </trkpt>
      <trkpt lat="45.94801" lon="4.85731">
        <ele>280</ele>
        <time>2016-11-28T10:02:41Z</time>
      </trkpt>
      <trkpt lat="45.94802" lon="4.85736">
        <ele>280</ele>
        <time>2016-11-28T10:02:42Z</time>
      </trkpt>
      <trkpt lat="45.94805" lon="4.85748">
        <ele>279</ele>
        <time>2016-11-28T10:02:44Z</time>
      </trkpt>
      <trkpt lat="45.94806" lon="4.85755">
        <ele>278</ele>
        <time>2016-11-28T10:02:45Z</time>
      </trkpt>
      <trkpt lat="45.94807" lon="4.85761">
        <ele>278</ele>
        <time>2016-11-28T10:02:46Z</time>
      </trkpt>
      <trkpt lat="45.94808" lon="4.85768">
        <ele>278</ele>
        <time>2016-11-28T10:02:47Z</time>
      </trkpt>
      <trkpt lat="45.9481" lon="4.85774">
        <ele>278</ele>
        <time>2016-11-28T10:02:48Z</time>
      </trkpt>
      <trkpt lat="45.94812" lon="4.85781">
        <ele>278</ele>
        <time>2016-11-28T10:02:49Z</time>
      </trkpt>
      <trkpt lat="45.94814" lon="4.85788">
        <ele>278</ele>
        <time>2016-11-28T10:02:50Z</time>
      </trkpt>
      <trkpt lat="45.94816" lon="4.85795">
        <ele>278</ele>
        <time>2016-11-28T10:02:51Z</time>
      </trkpt>
      <trkpt lat="45.94818" lon="4.85802">
        <ele>278</ele>
        <time>2016-11-28T10:02:52Z</time>
      </trkpt>
      <trkpt lat="45.9482" lon="4.85809">
        <ele>278</ele>
        <time>2016-11-28T10:02:53Z</time>
      </trkpt>
      <trkpt lat="45.94822" lon="4.85816">
        <ele>278</ele>
        <time>2016-11-28T10:02:54Z</time>
      </trkpt>
      <trkpt lat="45.94824" lon="4.85823">
        <ele>278</ele>
        <time>2016-11-28T10:02:55Z</time>
      </trkpt>
      <trkpt lat="45.94826" lon="4.85829">
        <ele>277</ele>
        <time>2016-11-28T10:02:56Z</time>
      </trkpt>
      <trkpt lat="45.94828" lon="4.85836">
        <ele>277</ele>
        <time>2016-11-28T10:02:57Z</time>
      </trkpt>
      <trkpt lat="45.94829" lon="4.85843">
        <ele>277</ele>
        <time>2016-11-28T10:02:58Z</time>
      </trkpt>
      <trkpt lat="45.94831" lon="4.85849">
        <ele>277</ele>
        <time>2016-11-28T10:02:59Z</time>
      </trkpt>
      <trkpt lat="45.94832" lon="4.85856">
        <ele>277</ele>
        <time>2016-11-28T10:03:00Z</time>
      </trkpt>
      <trkpt lat="45.94834" lon="4.85863">
        <ele>276</ele>
        <time>2016-11-28T10:03:01Z</time>
      </trkpt>
      <trkpt lat="45.94836" lon="4.8587">
        <ele>276</ele>
        <time>2016-11-28T10:03:02Z</time>
      </trkpt>
      <trkpt lat="45.94838" lon="4.85878">
        <ele>276</ele>
        <time>2016-11-28T10:03:03Z</time>
      </trkpt>
      <trkpt lat="45.9484" lon="4.85885">
        <ele>276</ele>
        <time>2016-11-28T10:03:04Z</time>
      </trkpt>
      <trkpt lat="45.94841" lon="4.85891">
        <ele>276</ele>
        <time>2016-11-28T10:03:05Z</time>
      </trkpt>
      <trkpt lat="45.94843" lon="4.85897">
        <ele>276</ele>
        <time>2016-11-28T10:03:06Z</time>
      </trkpt>
      <trkpt lat="45.94845" lon="4.85903">
        <ele>276</ele>
        <time>2016-11-28T10:03:07Z</time>
      </trkpt>
      <trkpt lat="45.94849" lon="4.85915">
        <ele>275</ele>
        <time>2016-11-28T10:03:09Z</time>
      </trkpt>
      <trkpt lat="45.9485" lon="4.85921">
        <ele>275</ele>
        <time>2016-11-28T10:03:10Z</time>
      </trkpt>
      <trkpt lat="45.94853" lon="4.85932">
        <ele>275</ele>
        <time>2016-11-28T10:03:12Z</time>
      </trkpt>
      <trkpt lat="45.94855" lon="4.85939">
        <ele>275</ele>
        <time>2016-11-28T10:03:13Z</time>
      </trkpt>
      <trkpt lat="45.94857" lon="4.85947">
        <ele>275</ele>
        <time>2016-11-28T10:03:14Z</time>
      </trkpt>
      <trkpt lat="45.94859" lon="4.85955">
        <ele>275</ele>
        <time>2016-11-28T10:03:15Z</time>
      </trkpt>
      <trkpt lat="45.94861" lon="4.85963">
        <ele>275</ele>
        <time>2016-11-28T10:03:16Z</time>
      </trkpt>
      <trkpt lat="45.94862" lon="4.85971">
        <ele>275</ele>
        <time>2016-11-28T10:03:17Z</time>
      </trkpt>
      <trkpt lat="45.94865" lon="4.85978">
        <ele>275</ele>
        <time>2016-11-28T10:03:18Z</time>
      </trkpt>
      <trkpt lat="45.94867" lon="4.85986">
        <ele>275</ele>
        <time>2016-11-28T10:03:19Z</time>
      </trkpt>
      <trkpt lat="45.94869" lon="4.85993">
        <ele>275</ele>
        <time>2016-11-28T10:03:20Z</time>
      </trkpt>
      <trkpt lat="45.9487" lon="4.86">
        <ele>275</ele>
        <time>2016-11-28T10:03:21Z</time>
      </trkpt>
      <trkpt lat="45.94872" lon="4.86007">
        <ele>274</ele>
        <time>2016-11-28T10:03:22Z</time>
      </trkpt>
      <trkpt lat="45.94874" lon="4.86013">
        <ele>274</ele>
        <time>2016-11-28T10:03:23Z</time>
      </trkpt>
      <trkpt lat="45.94876" lon="4.8602">
        <ele>274</ele>
        <time>2016-11-28T10:03:24Z</time>
      </trkpt>
      <trkpt lat="45.94878" lon="4.86026">
        <ele>274</ele>
        <time>2016-11-28T10:03:25Z</time>
      </trkpt>
      <trkpt lat="45.94879" lon="4.86032">
        <ele>274</ele>
        <time>2016-11-28T10:03:26Z</time>
      </trkpt>
      <trkpt lat="45.94881" lon="4.86038">
        <ele>274</ele>
        <time>2016-11-28T10:03:27Z</time>
      </trkpt>
      <trkpt lat="45.94883" lon="4.86045">
        <ele>274</ele>
        <time>2016-11-28T10:03:28Z</time>
      </trkpt>
      <trkpt lat="45.94884" lon="4.86051">
        <ele>274</ele>
        <time>2016-11-28T10:03:29Z</time>
      </trkpt>
      <trkpt lat="45.94886" lon="4.86058">
        <ele>274</ele>
        <time>2016-11-28T10:03:30Z</time>
      </trkpt>
      <trkpt lat="45.94888" lon="4.86064">
        <ele>274</ele>
        <time>2016-11-28T10:03:31Z</time>
      </trkpt>
      <trkpt lat="45.9489" lon="4.86071">
        <ele>274</ele>
        <time>2016-11-28T10:03:32Z</time>
      </trkpt>
      <trkpt lat="45.94892" lon="4.86077">
        <ele>274</ele>
        <time>2016-11-28T10:03:33Z</time>
      </trkpt>
      <trkpt lat="45.94894" lon="4.86084">
        <ele>274</ele>
        <time>2016-11-28T10:03:34Z</time>
      </trkpt>
      <trkpt lat="45.94896" lon="4.8609">
        <ele>274</ele>
        <time>2016-11-28T10:03:35Z</time>
      </trkpt>
      <trkpt lat="45.94899" lon="4.86097">
        <ele>274</ele>
        <time>2016-11-28T10:03:36Z</time>
      </trkpt>
      <trkpt lat="45.94901" lon="4.86104">
        <ele>274</ele>
        <time>2016-11-28T10:03:37Z</time>
      </trkpt>
      <trkpt lat="45.94904" lon="4.86111">
        <ele>274</ele>
        <time>2016-11-28T10:03:38Z</time>
      </trkpt>
      <trkpt lat="45.94907" lon="4.86118">
        <ele>274</ele>
        <time>2016-11-28T10:03:39Z</time>
      </trkpt>
      <trkpt lat="45.9491" lon="4.86125">
        <ele>274</ele>
        <time>2016-11-28T10:03:40Z</time>
      </trkpt>
      <trkpt lat="45.94914" lon="4.86131">
        <ele>274</ele>
        <time>2016-11-28T10:03:41Z</time>
      </trkpt>
      <trkpt lat="45.94917" lon="4.86137">
        <ele>273</ele>
        <time>2016-11-28T10:03:42Z</time>
      </trkpt>
      <trkpt lat="45.94921" lon="4.86143">
        <ele>273</ele>
        <time>2016-11-28T10:03:43Z</time>
      </trkpt>
      <trkpt lat="45.94924" lon="4.86148">
        <ele>273</ele>
        <time>2016-11-28T10:03:44Z</time>
      </trkpt>
      <trkpt lat="45.94928" lon="4.86154">
        <ele>273</ele>
        <time>2016-11-28T10:03:45Z</time>
      </trkpt>
      <trkpt lat="45.94932" lon="4.86159">
        <ele>273</ele>
        <time>2016-11-28T10:03:46Z</time>
      </trkpt>
      <trkpt lat="45.94935" lon="4.86165">
        <ele>273</ele>
        <time>2016-11-28T10:03:47Z</time>
      </trkpt>
      <trkpt lat="45.94939" lon="4.8617">
        <ele>273</ele>
        <time>2016-11-28T10:03:48Z</time>
      </trkpt>
      <trkpt lat="45.94943" lon="4.86175">
        <ele>273</ele>
        <time>2016-11-28T10:03:49Z</time>
      </trkpt>
      <trkpt lat="45.94947" lon="4.8618">
        <ele>273</ele>
        <time>2016-11-28T10:03:50Z</time>
      </trkpt>
      <trkpt lat="45.94951" lon="4.86185">
        <ele>273</ele>
        <time>2016-11-28T10:03:51Z</time>
      </trkpt>
      <trkpt lat="45.94955" lon="4.8619">
        <ele>273</ele>
        <time>2016-11-28T10:03:52Z</time>
      </trkpt>
      <trkpt lat="45.94959" lon="4.86195">
        <ele>272</ele>
        <time>2016-11-28T10:03:53Z</time>
      </trkpt>
      <trkpt lat="45.94964" lon="4.862">
        <ele>272</ele>
        <time>2016-11-28T10:03:54Z</time>
      </trkpt>
      <trkpt lat="45.94968" lon="4.86205">
        <ele>272</ele>
        <time>2016-11-28T10:03:55Z</time>
      </trkpt>
      <trkpt lat="45.94972" lon="4.8621">
        <ele>272</ele>
        <time>2016-11-28T10:03:56Z</time>
      </trkpt>
      <trkpt lat="45.94976" lon="4.86215">
        <ele>272</ele>
        <time>2016-11-28T10:03:57Z</time>
      </trkpt>
      <trkpt lat="45.9498" lon="4.8622">
        <ele>272</ele>
        <time>2016-11-28T10:03:58Z</time>
      </trkpt>
      <trkpt lat="45.94985" lon="4.86225">
        <ele>272</ele>
        <time>2016-11-28T10:03:59Z</time>
      </trkpt>
      <trkpt lat="45.94989" lon="4.8623">
        <ele>272</ele>
        <time>2016-11-28T10:04:00Z</time>
      </trkpt>
      <trkpt lat="45.94993" lon="4.86235">
        <ele>272</ele>
        <time>2016-11-28T10:04:01Z</time>
      </trkpt>
      <trkpt lat="45.94998" lon="4.8624">
        <ele>272</ele>
        <time>2016-11-28T10:04:02Z</time>
      </trkpt>
      <trkpt lat="45.95003" lon="4.86245">
        <ele>272</ele>
        <time>2016-11-28T10:04:03Z</time>
      </trkpt>
      <trkpt lat="45.95007" lon="4.86251">
        <ele>272</ele>
        <time>2016-11-28T10:04:04Z</time>
      </trkpt>
      <trkpt lat="45.95012" lon="4.86256">
        <ele>272</ele>
        <time>2016-11-28T10:04:05Z</time>
      </trkpt>
      <trkpt lat="45.95017" lon="4.86261">
        <ele>271</ele>
        <time>2016-11-28T10:04:06Z</time>
      </trkpt>
      <trkpt lat="45.95021" lon="4.86267">
        <ele>271</ele>
        <time>2016-11-28T10:04:07Z</time>
      </trkpt>
      <trkpt lat="45.95025" lon="4.86272">
        <ele>271</ele>
        <time>2016-11-28T10:04:08Z</time>
      </trkpt>
      <trkpt lat="45.9503" lon="4.86278">
        <ele>271</ele>
        <time>2016-11-28T10:04:09Z</time>
      </trkpt>
      <trkpt lat="45.95034" lon="4.86283">
        <ele>271</ele>
        <time>2016-11-28T10:04:10Z</time>
      </trkpt>
      <trkpt lat="45.95038" lon="4.86288">
        <ele>271</ele>
        <time>2016-11-28T10:04:11Z</time>
      </trkpt>
      <trkpt lat="45.95042" lon="4.86293">
        <ele>271</ele>
        <time>2016-11-28T10:04:12Z</time>
      </trkpt>
      <trkpt lat="45.95046" lon="4.86298">
        <ele>271</ele>
        <time>2016-11-28T10:04:13Z</time>
      </trkpt>
      <trkpt lat="45.95051" lon="4.86303">
        <ele>271</ele>
        <time>2016-11-28T10:04:14Z</time>
      </trkpt>
      <trkpt lat="45.95055" lon="4.86308">
        <ele>271</ele>
        <time>2016-11-28T10:04:15Z</time>
      </trkpt>
      <trkpt lat="45.95059" lon="4.86313">
        <ele>271</ele>
        <time>2016-11-28T10:04:16Z</time>
      </trkpt>
      <trkpt lat="45.95062" lon="4.86319">
        <ele>270</ele>
        <time>2016-11-28T10:04:17Z</time>
      </trkpt>
      <trkpt lat="45.95067" lon="4.86323">
        <ele>270</ele>
        <time>2016-11-28T10:04:18Z</time>
      </trkpt>
      <trkpt lat="45.95071" lon="4.86328">
        <ele>270</ele>
        <time>2016-11-28T10:04:19Z</time>
      </trkpt>
      <trkpt lat="45.95075" lon="4.86333">
        <ele>270</ele>
        <time>2016-11-28T10:04:20Z</time>
      </trkpt>
      <trkpt lat="45.95079" lon="4.86338">
        <ele>270</ele>
        <time>2016-11-28T10:04:21Z</time>
      </trkpt>
      <trkpt lat="45.95082" lon="4.86343">
        <ele>270</ele>
        <time>2016-11-28T10:04:22Z</time>
      </trkpt>
      <trkpt lat="45.95086" lon="4.86349">
        <ele>269</ele>
        <time>2016-11-28T10:04:23Z</time>
      </trkpt>
      <trkpt lat="45.9509" lon="4.86354">
        <ele>269</ele>
        <time>2016-11-28T10:04:24Z</time>
      </trkpt>
      <trkpt lat="45.95094" lon="4.86359">
        <ele>269</ele>
        <time>2016-11-28T10:04:25Z</time>
      </trkpt>
      <trkpt lat="45.95098" lon="4.86364">
        <ele>269</ele>
        <time>2016-11-28T10:04:26Z</time>
      </trkpt>
      <trkpt lat="45.95102" lon="4.86369">
        <ele>269</ele>
        <time>2016-11-28T10:04:27Z</time>
      </trkpt>
      <trkpt lat="45.95106" lon="4.86374">
        <ele>269</ele>
        <time>2016-11-28T10:04:28Z</time>
      </trkpt>
      <trkpt lat="45.9511" lon="4.86379">
        <ele>269</ele>
        <time>2016-11-28T10:04:29Z</time>
      </trkpt>
      <trkpt lat="45.95115" lon="4.86384">
        <ele>269</ele>
        <time>2016-11-28T10:04:30Z</time>
      </trkpt>
      <trkpt lat="45.95119" lon="4.86389">
        <ele>269</ele>
        <time>2016-11-28T10:04:31Z</time>
      </trkpt>
      <trkpt lat="45.95122" lon="4.86393">
        <ele>269</ele>
        <time>2016-11-28T10:04:32Z</time>
      </trkpt>
      <trkpt lat="45.95126" lon="4.86398">
        <ele>268</ele>
        <time>2016-11-28T10:04:33Z</time>
      </trkpt>
      <trkpt lat="45.9513" lon="4.86403">
        <ele>268</ele>
        <time>2016-11-28T10:04:34Z</time>
      </trkpt>
      <trkpt lat="45.95134" lon="4.86408">
        <ele>268</ele>
        <time>2016-11-28T10:04:35Z</time>
      </trkpt>
      <trkpt lat="45.95138" lon="4.86413">
        <ele>268</ele>
        <time>2016-11-28T10:04:36Z</time>
      </trkpt>
      <trkpt lat="45.95143" lon="4.86418">
        <ele>268</ele>
        <time>2016-11-28T10:04:37Z</time>
      </trkpt>
      <trkpt lat="45.95147" lon="4.86423">
        <ele>268</ele>
        <time>2016-11-28T10:04:38Z</time>
      </trkpt>
      <trkpt lat="45.95151" lon="4.86428">
        <ele>268</ele>
        <time>2016-11-28T10:04:39Z</time>
      </trkpt>
      <trkpt lat="45.95155" lon="4.86433">
        <ele>268</ele>
        <time>2016-11-28T10:04:40Z</time>
      </trkpt>
      <trkpt lat="45.95159" lon="4.86438">
        <ele>268</ele>
        <time>2016-11-28T10:04:41Z</time>
      </trkpt>
      <trkpt lat="45.95163" lon="4.86442">
        <ele>268</ele>
        <time>2016-11-28T10:04:42Z</time>
      </trkpt>
      <trkpt lat="45.95167" lon="4.86447">
        <ele>269</ele>
        <time>2016-11-28T10:04:43Z</time>
      </trkpt>
      <trkpt lat="45.95171" lon="4.86452">
        <ele>268</ele>
        <time>2016-11-28T10:04:44Z</time>
      </trkpt>
      <trkpt lat="45.95174" lon="4.86456">
        <ele>268</ele>
        <time>2016-11-28T10:04:45Z</time>
      </trkpt>
      <trkpt lat="45.95178" lon="4.86461">
        <ele>268</ele>
        <time>2016-11-28T10:04:46Z</time>
      </trkpt>
      <trkpt lat="45.95182" lon="4.86466">
        <ele>268</ele>
        <time>2016-11-28T10:04:47Z</time>
      </trkpt>
      <trkpt lat="45.95187" lon="4.8647">
        <ele>268</ele>
        <time>2016-11-28T10:04:48Z</time>
      </trkpt>
      <trkpt lat="45.95191" lon="4.86475">
        <ele>268</ele>
        <time>2016-11-28T10:04:49Z</time>
      </trkpt>
      <trkpt lat="45.95196" lon="4.8648">
        <ele>268</ele>
        <time>2016-11-28T10:04:50Z</time>
      </trkpt>
      <trkpt lat="45.952" lon="4.86486">
        <ele>268</ele>
        <time>2016-11-28T10:04:51Z</time>
      </trkpt>
      <trkpt lat="45.95204" lon="4.86492">
        <ele>268</ele>
        <time>2016-11-28T10:04:52Z</time>
      </trkpt>
      <trkpt lat="45.95209" lon="4.86497">
        <ele>268</ele>
        <time>2016-11-28T10:04:53Z</time>
      </trkpt>
      <trkpt lat="45.95213" lon="4.86503">
        <ele>268</ele>
        <time>2016-11-28T10:04:54Z</time>
      </trkpt>
      <trkpt lat="45.95218" lon="4.86508">
        <ele>268</ele>
        <time>2016-11-28T10:04:55Z</time>
      </trkpt>
      <trkpt lat="45.95222" lon="4.86514">
        <ele>268</ele>
        <time>2016-11-28T10:04:56Z</time>
      </trkpt>
      <trkpt lat="45.95227" lon="4.86519">
        <ele>268</ele>
        <time>2016-11-28T10:04:57Z</time>
      </trkpt>
      <trkpt lat="45.95231" lon="4.86525">
        <ele>268</ele>
        <time>2016-11-28T10:04:58Z</time>
      </trkpt>
      <trkpt lat="45.95235" lon="4.8653">
        <ele>268</ele>
        <time>2016-11-28T10:04:59Z</time>
      </trkpt>
      <trkpt lat="45.9524" lon="4.86535">
        <ele>268</ele>
        <time>2016-11-28T10:05:00Z</time>
      </trkpt>
      <trkpt lat="45.95244" lon="4.8654">
        <ele>268</ele>
        <time>2016-11-28T10:05:01Z</time>
      </trkpt>
      <trkpt lat="45.95248" lon="4.86544">
        <ele>268</ele>
        <time>2016-11-28T10:05:02Z</time>
      </trkpt>
      <trkpt lat="45.95252" lon="4.86549">
        <ele>267</ele>
        <time>2016-11-28T10:05:03Z</time>
      </trkpt>
      <trkpt lat="45.95256" lon="4.86553">
        <ele>267</ele>
        <time>2016-11-28T10:05:04Z</time>
      </trkpt>
      <trkpt lat="45.9526" lon="4.86558">
        <ele>267</ele>
        <time>2016-11-28T10:05:05Z</time>
      </trkpt>
      <trkpt lat="45.95264" lon="4.86563">
        <ele>267</ele>
        <time>2016-11-28T10:05:06Z</time>
      </trkpt>
      <trkpt lat="45.95267" lon="4.86568">
        <ele>267</ele>
        <time>2016-11-28T10:05:07Z</time>
      </trkpt>
      <trkpt lat="45.9527" lon="4.86573">
        <ele>267</ele>
        <time>2016-11-28T10:05:08Z</time>
      </trkpt>
      <trkpt lat="45.95274" lon="4.86579">
        <ele>267</ele>
        <time>2016-11-28T10:05:09Z</time>
      </trkpt>
      <trkpt lat="45.95278" lon="4.86584">
        <ele>268</ele>
        <time>2016-11-28T10:05:10Z</time>
      </trkpt>
      <trkpt lat="45.95281" lon="4.8659">
        <ele>268</ele>
        <time>2016-11-28T10:05:11Z</time>
      </trkpt>
      <trkpt lat="45.95284" lon="4.86596">
        <ele>268</ele>
        <time>2016-11-28T10:05:12Z</time>
      </trkpt>
      <trkpt lat="45.95287" lon="4.86602">
        <ele>268</ele>
        <time>2016-11-28T10:05:13Z</time>
      </trkpt>
      <trkpt lat="45.9529" lon="4.86608">
        <ele>268</ele>
        <time>2016-11-28T10:05:14Z</time>
      </trkpt>
      <trkpt lat="45.95293" lon="4.86615">
        <ele>268</ele>
        <time>2016-11-28T10:05:15Z</time>
      </trkpt>
      <trkpt lat="45.95296" lon="4.86621">
        <ele>268</ele>
        <time>2016-11-28T10:05:16Z</time>
      </trkpt>
      <trkpt lat="45.95298" lon="4.86627">
        <ele>268</ele>
        <time>2016-11-28T10:05:17Z</time>
      </trkpt>
      <trkpt lat="45.95301" lon="4.86632">
        <ele>268</ele>
        <time>2016-11-28T10:05:18Z</time>
      </trkpt>
      <trkpt lat="45.95304" lon="4.86638">
        <ele>268</ele>
        <time>2016-11-28T10:05:19Z</time>
      </trkpt>
      <trkpt lat="45.95309" lon="4.86648">
        <ele>268</ele>
        <time>2016-11-28T10:05:21Z</time>
      </trkpt>
      <trkpt lat="45.95311" lon="4.86654">
        <ele>268</ele>
        <time>2016-11-28T10:05:22Z</time>
      </trkpt>
      <trkpt lat="45.95316" lon="4.86665">
        <ele>268</ele>
        <time>2016-11-28T10:05:24Z</time>
      </trkpt>
      <trkpt lat="45.95318" lon="4.86669">
        <ele>269</ele>
        <time>2016-11-28T10:05:25Z</time>
      </trkpt>
      <trkpt lat="45.95323" lon="4.86679">
        <ele>269</ele>
        <time>2016-11-28T10:05:27Z</time>
      </trkpt>
      <trkpt lat="45.95325" lon="4.86684">
        <ele>269</ele>
        <time>2016-11-28T10:05:28Z</time>
      </trkpt>
      <trkpt lat="45.95328" lon="4.8669">
        <ele>269</ele>
        <time>2016-11-28T10:05:29Z</time>
      </trkpt>
      <trkpt lat="45.95331" lon="4.86695">
        <ele>269</ele>
        <time>2016-11-28T10:05:30Z</time>
      </trkpt>
      <trkpt lat="45.95333" lon="4.867">
        <ele>269</ele>
        <time>2016-11-28T10:05:31Z</time>
      </trkpt>
      <trkpt lat="45.95336" lon="4.86706">
        <ele>268</ele>
        <time>2016-11-28T10:05:32Z</time>
      </trkpt>
      <trkpt lat="45.95339" lon="4.86711">
        <ele>268</ele>
        <time>2016-11-28T10:05:33Z</time>
      </trkpt>
      <trkpt lat="45.95342" lon="4.86717">
        <ele>268</ele>
        <time>2016-11-28T10:05:34Z</time>
      </trkpt>
      <trkpt lat="45.95344" lon="4.86722">
        <ele>268</ele>
        <time>2016-11-28T10:05:35Z</time>
      </trkpt>
      <trkpt lat="45.95347" lon="4.86727">
        <ele>268</ele>
        <time>2016-11-28T10:05:36Z</time>
      </trkpt>
      <trkpt lat="45.9535" lon="4.86733">
        <ele>268</ele>
        <time>2016-11-28T10:05:37Z</time>
      </trkpt>
      <trkpt lat="45.95353" lon="4.86739">
        <ele>268</ele>
        <time>2016-11-28T10:05:38Z</time>
      </trkpt>
      <trkpt lat="45.95356" lon="4.86745">
        <ele>268</ele>
        <time>2016-11-28T10:05:39Z</time>
      </trkpt>
      <trkpt lat="45.95359" lon="4.8675">
        <ele>268</ele>
        <time>2016-11-28T10:05:40Z</time>
      </trkpt>
      <trkpt lat="45.95362" lon="4.86756">
        <ele>268</ele>
        <time>2016-11-28T10:05:41Z</time>
      </trkpt>
      <trkpt lat="45.95365" lon="4.86762">
        <ele>268</ele>
        <time>2016-11-28T10:05:42Z</time>
      </trkpt>
      <trkpt lat="45.95368" lon="4.86767">
        <ele>268</ele>
        <time>2016-11-28T10:05:43Z</time>
      </trkpt>
      <trkpt lat="45.95371" lon="4.86773">
        <ele>268</ele>
        <time>2016-11-28T10:05:44Z</time>
      </trkpt>
      <trkpt lat="45.95375" lon="4.86784">
        <ele>268</ele>
        <time>2016-11-28T10:05:46Z</time>
      </trkpt>
      <trkpt lat="45.95377" lon="4.86789">
        <ele>268</ele>
        <time>2016-11-28T10:05:47Z</time>
      </trkpt>
      <trkpt lat="45.95383" lon="4.86799">
        <ele>268</ele>
        <time>2016-11-28T10:05:49Z</time>
      </trkpt>
      <trkpt lat="45.95386" lon="4.86803">
        <ele>268</ele>
        <time>2016-11-28T10:05:50Z</time>
      </trkpt>
      <trkpt lat="45.95388" lon="4.86809">
        <ele>268</ele>
        <time>2016-11-28T10:05:51Z</time>
      </trkpt>
      <trkpt lat="45.95391" lon="4.86815">
        <ele>268</ele>
        <time>2016-11-28T10:05:52Z</time>
      </trkpt>
      <trkpt lat="45.95394" lon="4.86821">
        <ele>268</ele>
        <time>2016-11-28T10:05:53Z</time>
      </trkpt>
      <trkpt lat="45.95396" lon="4.86827">
        <ele>268</ele>
        <time>2016-11-28T10:05:54Z</time>
      </trkpt>
      <trkpt lat="45.95399" lon="4.86833">
        <ele>268</ele>
        <time>2016-11-28T10:05:55Z</time>
      </trkpt>
      <trkpt lat="45.95402" lon="4.86839">
        <ele>268</ele>
        <time>2016-11-28T10:05:56Z</time>
      </trkpt>
      <trkpt lat="45.95405" lon="4.86844">
        <ele>268</ele>
        <time>2016-11-28T10:05:57Z</time>
      </trkpt>
      <trkpt lat="45.95407" lon="4.8685">
        <ele>269</ele>
        <time>2016-11-28T10:05:58Z</time>
      </trkpt>
      <trkpt lat="45.9541" lon="4.86855">
        <ele>269</ele>
        <time>2016-11-28T10:05:59Z</time>
      </trkpt>
      <trkpt lat="45.95413" lon="4.86861">
        <ele>269</ele>
        <time>2016-11-28T10:06:00Z</time>
      </trkpt>
      <trkpt lat="45.95416" lon="4.86867">
        <ele>269</ele>
        <time>2016-11-28T10:06:01Z</time>
      </trkpt>
      <trkpt lat="45.95418" lon="4.86872">
        <ele>268</ele>
        <time>2016-11-28T10:06:02Z</time>
      </trkpt>
      <trkpt lat="45.95421" lon="4.86878">
        <ele>268</ele>
        <time>2016-11-28T10:06:03Z</time>
      </trkpt>
      <trkpt lat="45.95423" lon="4.86884">
        <ele>268</ele>
        <time>2016-11-28T10:06:04Z</time>
      </trkpt>
      <trkpt lat="45.95426" lon="4.86889">
        <ele>268</ele>
        <time>2016-11-28T10:06:05Z</time>
      </trkpt>
      <trkpt lat="45.95429" lon="4.86895">
        <ele>268</ele>
        <time>2016-11-28T10:06:06Z</time>
      </trkpt>
      <trkpt lat="45.95432" lon="4.869">
        <ele>268</ele>
        <time>2016-11-28T10:06:07Z</time>
      </trkpt>
      <trkpt lat="45.95435" lon="4.86906">
        <ele>268</ele>
        <time>2016-11-28T10:06:08Z</time>
      </trkpt>
      <trkpt lat="45.95439" lon="4.86913">
        <ele>268</ele>
        <time>2016-11-28T10:06:09Z</time>
      </trkpt>
      <trkpt lat="45.95442" lon="4.86919">
        <ele>269</ele>
        <time>2016-11-28T10:06:10Z</time>
      </trkpt>
      <trkpt lat="45.95445" lon="4.86926">
        <ele>269</ele>
        <time>2016-11-28T10:06:11Z</time>
      </trkpt>
      <trkpt lat="45.95449" lon="4.86934">
        <ele>269</ele>
        <time>2016-11-28T10:06:12Z</time>
      </trkpt>
      <trkpt lat="45.95452" lon="4.8694">
        <ele>268</ele>
        <time>2016-11-28T10:06:13Z</time>
      </trkpt>
      <trkpt lat="45.95455" lon="4.86946">
        <ele>268</ele>
        <time>2016-11-28T10:06:14Z</time>
      </trkpt>
      <trkpt lat="45.95458" lon="4.86952">
        <ele>268</ele>
        <time>2016-11-28T10:06:15Z</time>
      </trkpt>
      <trkpt lat="45.95461" lon="4.86957">
        <ele>268</ele>
        <time>2016-11-28T10:06:16Z</time>
      </trkpt>
      <trkpt lat="45.95464" lon="4.86962">
        <ele>268</ele>
        <time>2016-11-28T10:06:17Z</time>
      </trkpt>
      <trkpt lat="45.95466" lon="4.86967">
        <ele>268</ele>
        <time>2016-11-28T10:06:18Z</time>
      </trkpt>
      <trkpt lat="45.95469" lon="4.86973">
        <ele>268</ele>
        <time>2016-11-28T10:06:19Z</time>
      </trkpt>
      <trkpt lat="45.95471" lon="4.86978">
        <ele>268</ele>
        <time>2016-11-28T10:06:20Z</time>
      </trkpt>
      <trkpt lat="45.95476" lon="4.86988">
        <ele>268</ele>
        <time>2016-11-28T10:06:22Z</time>
      </trkpt>
      <trkpt lat="45.95479" lon="4.86993">
        <ele>268</ele>
        <time>2016-11-28T10:06:23Z</time>
      </trkpt>
      <trkpt lat="45.95482" lon="4.86998">
        <ele>268</ele>
        <time>2016-11-28T10:06:24Z</time>
      </trkpt>
      <trkpt lat="45.95484" lon="4.87004">
        <ele>268</ele>
        <time>2016-11-28T10:06:25Z</time>
      </trkpt>
      <trkpt lat="45.9549" lon="4.87013">
        <ele>268</ele>
        <time>2016-11-28T10:06:27Z</time>
      </trkpt>
      <trkpt lat="45.95493" lon="4.87018">
        <ele>269</ele>
        <time>2016-11-28T10:06:28Z</time>
      </trkpt>
      <trkpt lat="45.95495" lon="4.87023">
        <ele>269</ele>
        <time>2016-11-28T10:06:29Z</time>
      </trkpt>
      <trkpt lat="45.95497" lon="4.87029">
        <ele>269</ele>
        <time>2016-11-28T10:06:30Z</time>
      </trkpt>
      <trkpt lat="45.955" lon="4.87034">
        <ele>268</ele>
        <time>2016-11-28T10:06:31Z</time>
      </trkpt>
      <trkpt lat="45.95503" lon="4.8704">
        <ele>268</ele>
        <time>2016-11-28T10:06:32Z</time>
      </trkpt>
      <trkpt lat="45.95505" lon="4.87046">
        <ele>268</ele>
        <time>2016-11-28T10:06:33Z</time>
      </trkpt>
      <trkpt lat="45.95508" lon="4.87051">
        <ele>268</ele>
        <time>2016-11-28T10:06:34Z</time>
      </trkpt>
      <trkpt lat="45.95511" lon="4.87057">
        <ele>268</ele>
        <time>2016-11-28T10:06:35Z</time>
      </trkpt>
      <trkpt lat="45.95513" lon="4.87063">
        <ele>268</ele>
        <time>2016-11-28T10:06:36Z</time>
      </trkpt>
      <trkpt lat="45.95516" lon="4.87069">
        <ele>268</ele>
        <time>2016-11-28T10:06:37Z</time>
      </trkpt>
      <trkpt lat="45.95519" lon="4.87075">
        <ele>268</ele>
        <time>2016-11-28T10:06:38Z</time>
      </trkpt>
      <trkpt lat="45.95522" lon="4.87081">
        <ele>268</ele>
        <time>2016-11-28T10:06:39Z</time>
      </trkpt>
      <trkpt lat="45.95525" lon="4.87086">
        <ele>269</ele>
        <time>2016-11-28T10:06:40Z</time>
      </trkpt>
      <trkpt lat="45.95527" lon="4.87092">
        <ele>269</ele>
        <time>2016-11-28T10:06:41Z</time>
      </trkpt>
      <trkpt lat="45.9553" lon="4.87097">
        <ele>269</ele>
        <time>2016-11-28T10:06:42Z</time>
      </trkpt>
      <trkpt lat="45.95533" lon="4.87103">
        <ele>269</ele>
        <time>2016-11-28T10:06:43Z</time>
      </trkpt>
      <trkpt lat="45.95536" lon="4.87109">
        <ele>269</ele>
        <time>2016-11-28T10:06:44Z</time>
      </trkpt>
      <trkpt lat="45.95539" lon="4.87114">
        <ele>269</ele>
        <time>2016-11-28T10:06:45Z</time>
      </trkpt>
      <trkpt lat="45.95542" lon="4.8712">
        <ele>269</ele>
        <time>2016-11-28T10:06:46Z</time>
      </trkpt>
      <trkpt lat="45.95545" lon="4.87125">
        <ele>270</ele>
        <time>2016-11-28T10:06:47Z</time>
      </trkpt>
      <trkpt lat="45.95548" lon="4.87133">
        <ele>270</ele>
        <time>2016-11-28T10:06:48Z</time>
      </trkpt>
      <trkpt lat="45.95551" lon="4.87139">
        <ele>270</ele>
        <time>2016-11-28T10:06:49Z</time>
      </trkpt>
      <trkpt lat="45.95553" lon="4.87145">
        <ele>270</ele>
        <time>2016-11-28T10:06:50Z</time>
      </trkpt>
      <trkpt lat="45.95556" lon="4.8715">
        <ele>270</ele>
        <time>2016-11-28T10:06:51Z</time>
      </trkpt>
      <trkpt lat="45.95558" lon="4.87156">
        <ele>270</ele>
        <time>2016-11-28T10:06:52Z</time>
      </trkpt>
      <trkpt lat="45.95561" lon="4.87162">
        <ele>270</ele>
        <time>2016-11-28T10:06:53Z</time>
      </trkpt>
      <trkpt lat="45.95564" lon="4.87167">
        <ele>270</ele>
        <time>2016-11-28T10:06:54Z</time>
      </trkpt>
      <trkpt lat="45.95568" lon="4.87178">
        <ele>270</ele>
        <time>2016-11-28T10:06:56Z</time>
      </trkpt>
      <trkpt lat="45.9557" lon="4.87183">
        <ele>270</ele>
        <time>2016-11-28T10:06:57Z</time>
      </trkpt>
      <trkpt lat="45.95575" lon="4.87194">
        <ele>270</ele>
        <time>2016-11-28T10:06:59Z</time>
      </trkpt>
      <trkpt lat="45.95577" lon="4.87199">
        <ele>270</ele>
        <time>2016-11-28T10:07:00Z</time>
      </trkpt>
      <trkpt lat="45.95581" lon="4.87208">
        <ele>270</ele>
        <time>2016-11-28T10:07:02Z</time>
      </trkpt>
      <trkpt lat="45.95584" lon="4.87213">
        <ele>272</ele>
        <time>2016-11-28T10:07:03Z</time>
      </trkpt>
      <trkpt lat="45.95589" lon="4.87222">
        <ele>272</ele>
        <time>2016-11-28T10:07:05Z</time>
      </trkpt>
      <trkpt lat="45.95592" lon="4.87227">
        <ele>272</ele>
        <time>2016-11-28T10:07:06Z</time>
      </trkpt>
      <trkpt lat="45.95596" lon="4.87237">
        <ele>272</ele>
        <time>2016-11-28T10:07:08Z</time>
      </trkpt>
      <trkpt lat="45.95599" lon="4.87242">
        <ele>272</ele>
        <time>2016-11-28T10:07:09Z</time>
      </trkpt>
      <trkpt lat="45.95604" lon="4.87251">
        <ele>271</ele>
        <time>2016-11-28T10:07:11Z</time>
      </trkpt>
      <trkpt lat="45.95606" lon="4.87256">
        <ele>271</ele>
        <time>2016-11-28T10:07:12Z</time>
      </trkpt>
      <trkpt lat="45.9561" lon="4.87265">
        <ele>272</ele>
        <time>2016-11-28T10:07:14Z</time>
      </trkpt>
      <trkpt lat="45.95612" lon="4.8727">
        <ele>272</ele>
        <time>2016-11-28T10:07:15Z</time>
      </trkpt>
      <trkpt lat="45.95616" lon="4.87279">
        <ele>272</ele>
        <time>2016-11-28T10:07:17Z</time>
      </trkpt>
      <trkpt lat="45.95618" lon="4.87283">
        <ele>272</ele>
        <time>2016-11-28T10:07:18Z</time>
      </trkpt>
      <trkpt lat="45.95622" lon="4.87292">
        <ele>272</ele>
        <time>2016-11-28T10:07:20Z</time>
      </trkpt>
      <trkpt lat="45.95625" lon="4.87296">
        <ele>272</ele>
        <time>2016-11-28T10:07:21Z</time>
      </trkpt>
      <trkpt lat="45.95629" lon="4.87304">
        <ele>272</ele>
        <time>2016-11-28T10:07:23Z</time>
      </trkpt>
      <trkpt lat="45.95632" lon="4.87307">
        <ele>272</ele>
        <time>2016-11-28T10:07:24Z</time>
      </trkpt>
      <trkpt lat="45.95635" lon="4.87315">
        <ele>272</ele>
        <time>2016-11-28T10:07:26Z</time>
      </trkpt>
      <trkpt lat="45.95637" lon="4.87319">
        <ele>272</ele>
        <time>2016-11-28T10:07:27Z</time>
      </trkpt>
      <trkpt lat="45.95641" lon="4.87328">
        <ele>272</ele>
        <time>2016-11-28T10:07:29Z</time>
      </trkpt>
      <trkpt lat="45.95643" lon="4.87332">
        <ele>272</ele>
        <time>2016-11-28T10:07:30Z</time>
      </trkpt>
      <trkpt lat="45.95648" lon="4.8734">
        <ele>272</ele>
        <time>2016-11-28T10:07:32Z</time>
      </trkpt>
      <trkpt lat="45.9565" lon="4.87345">
        <ele>272</ele>
        <time>2016-11-28T10:07:33Z</time>
      </trkpt>
      <trkpt lat="45.95654" lon="4.87354">
        <ele>272</ele>
        <time>2016-11-28T10:07:35Z</time>
      </trkpt>
      <trkpt lat="45.95657" lon="4.87358">
        <ele>272</ele>
        <time>2016-11-28T10:07:36Z</time>
      </trkpt>
      <trkpt lat="45.95661" lon="4.87368">
        <ele>272</ele>
        <time>2016-11-28T10:07:38Z</time>
      </trkpt>
      <trkpt lat="45.95663" lon="4.87372">
        <ele>272</ele>
        <time>2016-11-28T10:07:39Z</time>
      </trkpt>
      <trkpt lat="45.95668" lon="4.87382">
        <ele>274</ele>
        <time>2016-11-28T10:07:41Z</time>
      </trkpt>
      <trkpt lat="45.9567" lon="4.87387">
        <ele>274</ele>
        <time>2016-11-28T10:07:42Z</time>
      </trkpt>
      <trkpt lat="45.95675" lon="4.87397">
        <ele>274</ele>
        <time>2016-11-28T10:07:44Z</time>
      </trkpt>
      <trkpt lat="45.95677" lon="4.87401">
        <ele>274</ele>
        <time>2016-11-28T10:07:45Z</time>
      </trkpt>
      <trkpt lat="45.95682" lon="4.8741">
        <ele>274</ele>
        <time>2016-11-28T10:07:47Z</time>
      </trkpt>
      <trkpt lat="45.95684" lon="4.87415">
        <ele>274</ele>
        <time>2016-11-28T10:07:48Z</time>
      </trkpt>
      <trkpt lat="45.95688" lon="4.87423">
        <ele>275</ele>
        <time>2016-11-28T10:07:50Z</time>
      </trkpt>
      <trkpt lat="45.9569" lon="4.87428">
        <ele>275</ele>
        <time>2016-11-28T10:07:51Z</time>
      </trkpt>
      <trkpt lat="45.95695" lon="4.87437">
        <ele>275</ele>
        <time>2016-11-28T10:07:53Z</time>
      </trkpt>
      <trkpt lat="45.95698" lon="4.87441">
        <ele>275</ele>
        <time>2016-11-28T10:07:54Z</time>
      </trkpt>
      <trkpt lat="45.95703" lon="4.87449">
        <ele>275</ele>
        <time>2016-11-28T10:07:56Z</time>
      </trkpt>
      <trkpt lat="45.95705" lon="4.87454">
        <ele>275</ele>
        <time>2016-11-28T10:07:57Z</time>
      </trkpt>
      <trkpt lat="45.95709" lon="4.87463">
        <ele>276</ele>
        <time>2016-11-28T10:07:59Z</time>
      </trkpt>
      <trkpt lat="45.95711" lon="4.87468">
        <ele>276</ele>
        <time>2016-11-28T10:08:00Z</time>
      </trkpt>
      <trkpt lat="45.95715" lon="4.87476">
        <ele>276</ele>
        <time>2016-11-28T10:08:02Z</time>
      </trkpt>
      <trkpt lat="45.95718" lon="4.8748">
        <ele>276</ele>
        <time>2016-11-28T10:08:03Z</time>
      </trkpt>
      <trkpt lat="45.95722" lon="4.87488">
        <ele>276</ele>
        <time>2016-11-28T10:08:05Z</time>
      </trkpt>
      <trkpt lat="45.95724" lon="4.87493">
        <ele>276</ele>
        <time>2016-11-28T10:08:06Z</time>
      </trkpt>
      <trkpt lat="45.95728" lon="4.87502">
        <ele>277</ele>
        <time>2016-11-28T10:08:08Z</time>
      </trkpt>
      <trkpt lat="45.9573" lon="4.87506">
        <ele>277</ele>
        <time>2016-11-28T10:08:09Z</time>
      </trkpt>
      <trkpt lat="45.95734" lon="4.87516">
        <ele>277</ele>
        <time>2016-11-28T10:08:11Z</time>
      </trkpt>
      <trkpt lat="45.95737" lon="4.87521">
        <ele>277</ele>
        <time>2016-11-28T10:08:12Z</time>
      </trkpt>
      <trkpt lat="45.95741" lon="4.87531">
        <ele>277</ele>
        <time>2016-11-28T10:08:14Z</time>
      </trkpt>
      <trkpt lat="45.95744" lon="4.87536">
        <ele>277</ele>
        <time>2016-11-28T10:08:15Z</time>
      </trkpt>
      <trkpt lat="45.95748" lon="4.87545">
        <ele>277</ele>
        <time>2016-11-28T10:08:17Z</time>
      </trkpt>
      <trkpt lat="45.95751" lon="4.8755">
        <ele>281</ele>
        <time>2016-11-28T10:08:18Z</time>
      </trkpt>
      <trkpt lat="45.95755" lon="4.8756">
        <ele>281</ele>
        <time>2016-11-28T10:08:20Z</time>
      </trkpt>
      <trkpt lat="45.95757" lon="4.87565">
        <ele>280</ele>
        <time>2016-11-28T10:08:21Z</time>
      </trkpt>
      <trkpt lat="45.95762" lon="4.87573">
        <ele>280</ele>
        <time>2016-11-28T10:08:23Z</time>
      </trkpt>
      <trkpt lat="45.95763" lon="4.87577">
        <ele>280</ele>
        <time>2016-11-28T10:08:24Z</time>
      </trkpt>
      <trkpt lat="45.95767" lon="4.87585">
        <ele>281</ele>
        <time>2016-11-28T10:08:26Z</time>
      </trkpt>
      <trkpt lat="45.95769" lon="4.87589">
        <ele>281</ele>
        <time>2016-11-28T10:08:27Z</time>
      </trkpt>
      <trkpt lat="45.95773" lon="4.87596">
        <ele>281</ele>
        <time>2016-11-28T10:08:29Z</time>
      </trkpt>
      <trkpt lat="45.95774" lon="4.876">
        <ele>281</ele>
        <time>2016-11-28T10:08:30Z</time>
      </trkpt>
      <trkpt lat="45.95778" lon="4.87608">
        <ele>282</ele>
        <time>2016-11-28T10:08:32Z</time>
      </trkpt>
      <trkpt lat="45.9578" lon="4.87612">
        <ele>282</ele>
        <time>2016-11-28T10:08:33Z</time>
      </trkpt>
      <trkpt lat="45.95783" lon="4.8762">
        <ele>282</ele>
        <time>2016-11-28T10:08:35Z</time>
      </trkpt>
      <trkpt lat="45.95785" lon="4.87624">
        <ele>282</ele>
        <time>2016-11-28T10:08:36Z</time>
      </trkpt>
      <trkpt lat="45.95789" lon="4.87631">
        <ele>282</ele>
        <time>2016-11-28T10:08:38Z</time>
      </trkpt>
      <trkpt lat="45.95791" lon="4.87635">
        <ele>282</ele>
        <time>2016-11-28T10:08:39Z</time>
      </trkpt>
      <trkpt lat="45.95795" lon="4.87643">
        <ele>282</ele>
        <time>2016-11-28T10:08:41Z</time>
      </trkpt>
      <trkpt lat="45.95796" lon="4.87647">
        <ele>282</ele>
        <time>2016-11-28T10:08:42Z</time>
      </trkpt>
      <trkpt lat="45.95799" lon="4.87655">
        <ele>283</ele>
        <time>2016-11-28T10:08:44Z</time>
      </trkpt>
      <trkpt lat="45.95801" lon="4.87659">
        <ele>283</ele>
        <time>2016-11-28T10:08:45Z</time>
      </trkpt>
      <trkpt lat="45.95805" lon="4.8767">
        <ele>283</ele>
        <time>2016-11-28T10:08:48Z</time>
      </trkpt>
      <trkpt lat="45.95806" lon="4.87674">
        <ele>283</ele>
        <time>2016-11-28T10:08:49Z</time>
      </trkpt>
      <trkpt lat="45.95809" lon="4.87685">
        <ele>283</ele>
        <time>2016-11-28T10:08:52Z</time>
      </trkpt>
      <trkpt lat="45.9581" lon="4.8769">
        <ele>283</ele>
        <time>2016-11-28T10:08:53Z</time>
      </trkpt>
      <trkpt lat="45.95812" lon="4.87698">
        <ele>283</ele>
        <time>2016-11-28T10:08:55Z</time>
      </trkpt>
      <trkpt lat="45.95813" lon="4.87703">
        <ele>283</ele>
        <time>2016-11-28T10:08:56Z</time>
      </trkpt>
      <trkpt lat="45.95815" lon="4.87711">
        <ele>283</ele>
        <time>2016-11-28T10:08:58Z</time>
      </trkpt>
      <trkpt lat="45.95816" lon="4.87715">
        <ele>283</ele>
        <time>2016-11-28T10:08:59Z</time>
      </trkpt>
      <trkpt lat="45.95818" lon="4.87724">
        <ele>283</ele>
        <time>2016-11-28T10:09:01Z</time>
      </trkpt>
      <trkpt lat="45.95819" lon="4.87728">
        <ele>284</ele>
        <time>2016-11-28T10:09:02Z</time>
      </trkpt>
      <trkpt lat="45.9582" lon="4.87737">
        <ele>284</ele>
        <time>2016-11-28T10:09:04Z</time>
      </trkpt>
      <trkpt lat="45.95821" lon="4.87741">
        <ele>284</ele>
        <time>2016-11-28T10:09:05Z</time>
      </trkpt>
      <trkpt lat="45.95823" lon="4.8775">
        <ele>284</ele>
        <time>2016-11-28T10:09:07Z</time>
      </trkpt>
      <trkpt lat="45.95823" lon="4.87754">
        <ele>285</ele>
        <time>2016-11-28T10:09:08Z</time>
      </trkpt>
      <trkpt lat="45.95824" lon="4.87763">
        <ele>285</ele>
        <time>2016-11-28T10:09:10Z</time>
      </trkpt>
      <trkpt lat="45.95825" lon="4.87768">
        <ele>285</ele>
        <time>2016-11-28T10:09:11Z</time>
      </trkpt>
      <trkpt lat="45.95826" lon="4.87776">
        <ele>285</ele>
        <time>2016-11-28T10:09:13Z</time>
      </trkpt>
      <trkpt lat="45.95827" lon="4.87781">
        <ele>285</ele>
        <time>2016-11-28T10:09:14Z</time>
      </trkpt>
      <trkpt lat="45.95827" lon="4.8779">
        <ele>285</ele>
        <time>2016-11-28T10:09:16Z</time>
      </trkpt>
      <trkpt lat="45.95828" lon="4.87794">
        <ele>285</ele>
        <time>2016-11-28T10:09:17Z</time>
      </trkpt>
      <trkpt lat="45.95829" lon="4.87803">
        <ele>285</ele>
        <time>2016-11-28T10:09:19Z</time>
      </trkpt>
      <trkpt lat="45.9583" lon="4.87807">
        <ele>286</ele>
        <time>2016-11-28T10:09:20Z</time>
      </trkpt>
      <trkpt lat="45.9583" lon="4.87816">
        <ele>286</ele>
        <time>2016-11-28T10:09:22Z</time>
      </trkpt>
      <trkpt lat="45.95831" lon="4.87821">
        <ele>286</ele>
        <time>2016-11-28T10:09:23Z</time>
      </trkpt>
      <trkpt lat="45.95832" lon="4.87833">
        <ele>288</ele>
        <time>2016-11-28T10:09:26Z</time>
      </trkpt>
      <trkpt lat="45.95832" lon="4.87838">
        <ele>288</ele>
        <time>2016-11-28T10:09:27Z</time>
      </trkpt>
      <trkpt lat="45.95832" lon="4.87847">
        <ele>287</ele>
        <time>2016-11-28T10:09:29Z</time>
      </trkpt>
      <trkpt lat="45.95832" lon="4.87852">
        <ele>287</ele>
        <time>2016-11-28T10:09:30Z</time>
      </trkpt>
      <trkpt lat="45.95833" lon="4.87862">
        <ele>287</ele>
        <time>2016-11-28T10:09:32Z</time>
      </trkpt>
      <trkpt lat="45.95834" lon="4.87866">
        <ele>289</ele>
        <time>2016-11-28T10:09:33Z</time>
      </trkpt>
      <trkpt lat="45.95835" lon="4.87876">
        <ele>289</ele>
        <time>2016-11-28T10:09:35Z</time>
      </trkpt>
      <trkpt lat="45.95835" lon="4.8788">
        <ele>289</ele>
        <time>2016-11-28T10:09:36Z</time>
      </trkpt>
      <trkpt lat="45.95835" lon="4.8789">
        <ele>289</ele>
        <time>2016-11-28T10:09:38Z</time>
      </trkpt>
      <trkpt lat="45.95836" lon="4.87895">
        <ele>289</ele>
        <time>2016-11-28T10:09:39Z</time>
      </trkpt>
      <trkpt lat="45.95837" lon="4.87905">
        <ele>289</ele>
        <time>2016-11-28T10:09:41Z</time>
      </trkpt>
      <trkpt lat="45.95837" lon="4.87909">
        <ele>289</ele>
        <time>2016-11-28T10:09:42Z</time>
      </trkpt>
      <trkpt lat="45.95838" lon="4.87919">
        <ele>289</ele>
        <time>2016-11-28T10:09:44Z</time>
      </trkpt>
      <trkpt lat="45.95838" lon="4.87923">
        <ele>289</ele>
        <time>2016-11-28T10:09:45Z</time>
      </trkpt>
      <trkpt lat="45.95839" lon="4.87932">
        <ele>289</ele>
        <time>2016-11-28T10:09:47Z</time>
      </trkpt>
      <trkpt lat="45.95839" lon="4.87936">
        <ele>289</ele>
        <time>2016-11-28T10:09:48Z</time>
      </trkpt>
      <trkpt lat="45.9584" lon="4.87946">
        <ele>289</ele>
        <time>2016-11-28T10:09:50Z</time>
      </trkpt>
      <trkpt lat="45.9584" lon="4.87951">
        <ele>289</ele>
        <time>2016-11-28T10:09:51Z</time>
      </trkpt>
      <trkpt lat="45.95841" lon="4.87962">
        <ele>289</ele>
        <time>2016-11-28T10:09:53Z</time>
      </trkpt>
      <trkpt lat="45.95841" lon="4.87967">
        <ele>289</ele>
        <time>2016-11-28T10:09:54Z</time>
      </trkpt>
      <trkpt lat="45.95842" lon="4.87979">
        <ele>289</ele>
        <time>2016-11-28T10:09:56Z</time>
      </trkpt>
      <trkpt lat="45.95842" lon="4.87985">
        <ele>289</ele>
        <time>2016-11-28T10:09:57Z</time>
      </trkpt>
      <trkpt lat="45.95843" lon="4.87996">
        <ele>288</ele>
        <time>2016-11-28T10:09:59Z</time>
      </trkpt>
      <trkpt lat="45.95843" lon="4.88002">
        <ele>288</ele>
        <time>2016-11-28T10:10:00Z</time>
      </trkpt>
      <trkpt lat="45.95843" lon="4.88014">
        <ele>288</ele>
        <time>2016-11-28T10:10:02Z</time>
      </trkpt>
      <trkpt lat="45.95843" lon="4.8802">
        <ele>289</ele>
        <time>2016-11-28T10:10:03Z</time>
      </trkpt>
      <trkpt lat="45.95844" lon="4.88033">
        <ele>289</ele>
        <time>2016-11-28T10:10:05Z</time>
      </trkpt>
      <trkpt lat="45.95844" lon="4.88039">
        <ele>289</ele>
        <time>2016-11-28T10:10:06Z</time>
      </trkpt>
      <trkpt lat="45.95844" lon="4.88052">
        <ele>289</ele>
        <time>2016-11-28T10:10:08Z</time>
      </trkpt>
      <trkpt lat="45.95845" lon="4.88058">
        <ele>289</ele>
        <time>2016-11-28T10:10:09Z</time>
      </trkpt>
      <trkpt lat="45.95845" lon="4.8807">
        <ele>289</ele>
        <time>2016-11-28T10:10:11Z</time>
      </trkpt>
      <trkpt lat="45.95845" lon="4.88076">
        <ele>288</ele>
        <time>2016-11-28T10:10:12Z</time>
      </trkpt>
      <trkpt lat="45.95845" lon="4.88088">
        <ele>288</ele>
        <time>2016-11-28T10:10:14Z</time>
      </trkpt>
      <trkpt lat="45.95846" lon="4.88094">
        <ele>288</ele>
        <time>2016-11-28T10:10:15Z</time>
      </trkpt>
      <trkpt lat="45.95846" lon="4.88101">
        <ele>288</ele>
        <time>2016-11-28T10:10:16Z</time>
      </trkpt>
      <trkpt lat="45.95847" lon="4.88108">
        <ele>288</ele>
        <time>2016-11-28T10:10:17Z</time>
      </trkpt>
      <trkpt lat="45.95847" lon="4.88116">
        <ele>289</ele>
        <time>2016-11-28T10:10:18Z</time>
      </trkpt>
      <trkpt lat="45.95847" lon="4.88124">
        <ele>289</ele>
        <time>2016-11-28T10:10:19Z</time>
      </trkpt>
      <trkpt lat="45.95848" lon="4.88132">
        <ele>289</ele>
        <time>2016-11-28T10:10:20Z</time>
      </trkpt>
      <trkpt lat="45.95848" lon="4.8814">
        <ele>288</ele>
        <time>2016-11-28T10:10:21Z</time>
      </trkpt>
      <trkpt lat="45.95848" lon="4.88147">
        <ele>288</ele>
        <time>2016-11-28T10:10:22Z</time>
      </trkpt>
      <trkpt lat="45.95849" lon="4.88155">
        <ele>288</ele>
        <time>2016-11-28T10:10:23Z</time>
      </trkpt>
      <trkpt lat="45.95849" lon="4.88162">
        <ele>288</ele>
        <time>2016-11-28T10:10:24Z</time>
      </trkpt>
      <trkpt lat="45.9585" lon="4.88169">
        <ele>288</ele>
        <time>2016-11-28T10:10:25Z</time>
      </trkpt>
      <trkpt lat="45.9585" lon="4.88176">
        <ele>288</ele>
        <time>2016-11-28T10:10:26Z</time>
      </trkpt>
      <trkpt lat="45.9585" lon="4.88182">
        <ele>288</ele>
        <time>2016-11-28T10:10:27Z</time>
      </trkpt>
      <trkpt lat="45.9585" lon="4.88189">
        <ele>288</ele>
        <time>2016-11-28T10:10:28Z</time>
      </trkpt>
      <trkpt lat="45.95851" lon="4.88196">
        <ele>288</ele>
        <time>2016-11-28T10:10:29Z</time>
      </trkpt>
      <trkpt lat="45.95851" lon="4.88203">
        <ele>288</ele>
        <time>2016-11-28T10:10:30Z</time>
      </trkpt>
      <trkpt lat="45.95851" lon="4.8821">
        <ele>288</ele>
        <time>2016-11-28T10:10:31Z</time>
      </trkpt>
      <trkpt lat="45.95852" lon="4.88217">
        <ele>288</ele>
        <time>2016-11-28T10:10:32Z</time>
      </trkpt>
      <trkpt lat="45.95852" lon="4.88224">
        <ele>288</ele>
        <time>2016-11-28T10:10:33Z</time>
      </trkpt>
      <trkpt lat="45.95852" lon="4.88231">
        <ele>288</ele>
        <time>2016-11-28T10:10:34Z</time>
      </trkpt>
      <trkpt lat="45.95853" lon="4.88238">
        <ele>288</ele>
        <time>2016-11-28T10:10:35Z</time>
      </trkpt>
      <trkpt lat="45.95853" lon="4.88246">
        <ele>288</ele>
        <time>2016-11-28T10:10:36Z</time>
      </trkpt>
      <trkpt lat="45.95853" lon="4.88254">
        <ele>287</ele>
        <time>2016-11-28T10:10:37Z</time>
      </trkpt>
      <trkpt lat="45.95854" lon="4.88261">
        <ele>287</ele>
        <time>2016-11-28T10:10:38Z</time>
      </trkpt>
      <trkpt lat="45.95854" lon="4.8827">
        <ele>287</ele>
        <time>2016-11-28T10:10:39Z</time>
      </trkpt>
      <trkpt lat="45.95854" lon="4.88278">
        <ele>288</ele>
        <time>2016-11-28T10:10:40Z</time>
      </trkpt>
      <trkpt lat="45.95855" lon="4.88285">
        <ele>288</ele>
        <time>2016-11-28T10:10:41Z</time>
      </trkpt>
      <trkpt lat="45.95855" lon="4.88292">
        <ele>288</ele>
        <time>2016-11-28T10:10:42Z</time>
      </trkpt>
      <trkpt lat="45.95856" lon="4.883">
        <ele>288</ele>
        <time>2016-11-28T10:10:43Z</time>
      </trkpt>
      <trkpt lat="45.95856" lon="4.88306">
        <ele>288</ele>
        <time>2016-11-28T10:10:44Z</time>
      </trkpt>
      <trkpt lat="45.95856" lon="4.88313">
        <ele>288</ele>
        <time>2016-11-28T10:10:45Z</time>
      </trkpt>
      <trkpt lat="45.95856" lon="4.8832">
        <ele>288</ele>
        <time>2016-11-28T10:10:46Z</time>
      </trkpt>
      <trkpt lat="45.95856" lon="4.88326">
        <ele>288</ele>
        <time>2016-11-28T10:10:47Z</time>
      </trkpt>
      <trkpt lat="45.95856" lon="4.88333">
        <ele>288</ele>
        <time>2016-11-28T10:10:48Z</time>
      </trkpt>
      <trkpt lat="45.95857" lon="4.8834">
        <ele>287</ele>
        <time>2016-11-28T10:10:49Z</time>
      </trkpt>
      <trkpt lat="45.95857" lon="4.88347">
        <ele>287</ele>
        <time>2016-11-28T10:10:50Z</time>
      </trkpt>
      <trkpt lat="45.95858" lon="4.88353">
        <ele>287</ele>
        <time>2016-11-28T10:10:51Z</time>
      </trkpt>
      <trkpt lat="45.95858" lon="4.8836">
        <ele>287</ele>
        <time>2016-11-28T10:10:52Z</time>
      </trkpt>
      <trkpt lat="45.95859" lon="4.88368">
        <ele>287</ele>
        <time>2016-11-28T10:10:53Z</time>
      </trkpt>
      <trkpt lat="45.95859" lon="4.88375">
        <ele>287</ele>
        <time>2016-11-28T10:10:54Z</time>
      </trkpt>
      <trkpt lat="45.95859" lon="4.88383">
        <ele>287</ele>
        <time>2016-11-28T10:10:55Z</time>
      </trkpt>
      <trkpt lat="45.9586" lon="4.88391">
        <ele>287</ele>
        <time>2016-11-28T10:10:56Z</time>
      </trkpt>
      <trkpt lat="45.9586" lon="4.884">
        <ele>287</ele>
        <time>2016-11-28T10:10:57Z</time>
      </trkpt>
      <trkpt lat="45.95861" lon="4.88409">
        <ele>287</ele>
        <time>2016-11-28T10:10:58Z</time>
      </trkpt>
      <trkpt lat="45.95861" lon="4.88418">
        <ele>287</ele>
        <time>2016-11-28T10:10:59Z</time>
      </trkpt>
      <trkpt lat="45.95862" lon="4.88427">
        <ele>287</ele>
        <time>2016-11-28T10:11:00Z</time>
      </trkpt>
      <trkpt lat="45.95862" lon="4.88435">
        <ele>287</ele>
        <time>2016-11-28T10:11:01Z</time>
      </trkpt>
      <trkpt lat="45.95862" lon="4.88443">
        <ele>287</ele>
        <time>2016-11-28T10:11:02Z</time>
      </trkpt>
      <trkpt lat="45.95863" lon="4.88452">
        <ele>287</ele>
        <time>2016-11-28T10:11:03Z</time>
      </trkpt>
      <trkpt lat="45.95863" lon="4.88459">
        <ele>287</ele>
        <time>2016-11-28T10:11:04Z</time>
      </trkpt>
      <trkpt lat="45.95864" lon="4.88467">
        <ele>287</ele>
        <time>2016-11-28T10:11:05Z</time>
      </trkpt>
      <trkpt lat="45.95864" lon="4.88474">
        <ele>287</ele>
        <time>2016-11-28T10:11:06Z</time>
      </trkpt>
      <trkpt lat="45.95865" lon="4.88481">
        <ele>287</ele>
        <time>2016-11-28T10:11:07Z</time>
      </trkpt>
      <trkpt lat="45.95865" lon="4.88488">
        <ele>288</ele>
        <time>2016-11-28T10:11:08Z</time>
      </trkpt>
      <trkpt lat="45.95866" lon="4.88496">
        <ele>288</ele>
        <time>2016-11-28T10:11:09Z</time>
      </trkpt>
      <trkpt lat="45.95866" lon="4.88504">
        <ele>288</ele>
        <time>2016-11-28T10:11:10Z</time>
      </trkpt>
      <trkpt lat="45.95866" lon="4.88512">
        <ele>288</ele>
        <time>2016-11-28T10:11:11Z</time>
      </trkpt>
      <trkpt lat="45.95866" lon="4.8852">
        <ele>288</ele>
        <time>2016-11-28T10:11:12Z</time>
      </trkpt>
      <trkpt lat="45.95867" lon="4.88528">
        <ele>288</ele>
        <time>2016-11-28T10:11:13Z</time>
      </trkpt>
      <trkpt lat="45.95867" lon="4.88536">
        <ele>288</ele>
        <time>2016-11-28T10:11:14Z</time>
      </trkpt>
      <trkpt lat="45.95868" lon="4.88544">
        <ele>288</ele>
        <time>2016-11-28T10:11:15Z</time>
      </trkpt>
      <trkpt lat="45.95868" lon="4.88551">
        <ele>288</ele>
        <time>2016-11-28T10:11:16Z</time>
      </trkpt>
      <trkpt lat="45.95869" lon="4.88559">
        <ele>288</ele>
        <time>2016-11-28T10:11:17Z</time>
      </trkpt>
      <trkpt lat="45.95869" lon="4.88566">
        <ele>288</ele>
        <time>2016-11-28T10:11:18Z</time>
      </trkpt>
      <trkpt lat="45.95869" lon="4.88572">
        <ele>288</ele>
        <time>2016-11-28T10:11:19Z</time>
      </trkpt>
      <trkpt lat="45.95869" lon="4.88579">
        <ele>288</ele>
        <time>2016-11-28T10:11:20Z</time>
      </trkpt>
      <trkpt lat="45.9587" lon="4.88585">
        <ele>288</ele>
        <time>2016-11-28T10:11:21Z</time>
      </trkpt>
      <trkpt lat="45.9587" lon="4.88592">
        <ele>288</ele>
        <time>2016-11-28T10:11:22Z</time>
      </trkpt>
      <trkpt lat="45.95871" lon="4.88599">
        <ele>288</ele>
        <time>2016-11-28T10:11:23Z</time>
      </trkpt>
      <trkpt lat="45.95871" lon="4.88605">
        <ele>288</ele>
        <time>2016-11-28T10:11:24Z</time>
      </trkpt>
      <trkpt lat="45.95871" lon="4.88612">
        <ele>288</ele>
        <time>2016-11-28T10:11:25Z</time>
      </trkpt>
      <trkpt lat="45.95871" lon="4.88619">
        <ele>288</ele>
        <time>2016-11-28T10:11:26Z</time>
      </trkpt>
      <trkpt lat="45.9587" lon="4.88626">
        <ele>288</ele>
        <time>2016-11-28T10:11:27Z</time>
      </trkpt>
      <trkpt lat="45.9587" lon="4.88633">
        <ele>288</ele>
        <time>2016-11-28T10:11:28Z</time>
      </trkpt>
      <trkpt lat="45.9587" lon="4.8864">
        <ele>288</ele>
        <time>2016-11-28T10:11:29Z</time>
      </trkpt>
      <trkpt lat="45.95871" lon="4.88647">
        <ele>288</ele>
        <time>2016-11-28T10:11:30Z</time>
      </trkpt>
      <trkpt lat="45.95871" lon="4.88653">
        <ele>288</ele>
        <time>2016-11-28T10:11:31Z</time>
      </trkpt>
      <trkpt lat="45.95871" lon="4.8866">
        <ele>288</ele>
        <time>2016-11-28T10:11:32Z</time>
      </trkpt>
      <trkpt lat="45.95871" lon="4.88668">
        <ele>288</ele>
        <time>2016-11-28T10:11:33Z</time>
      </trkpt>
      <trkpt lat="45.95872" lon="4.88675">
        <ele>288</ele>
        <time>2016-11-28T10:11:34Z</time>
      </trkpt>
      <trkpt lat="45.95872" lon="4.88682">
        <ele>288</ele>
        <time>2016-11-28T10:11:35Z</time>
      </trkpt>
      <trkpt lat="45.95872" lon="4.88688">
        <ele>288</ele>
        <time>2016-11-28T10:11:36Z</time>
      </trkpt>
      <trkpt lat="45.95872" lon="4.88695">
        <ele>288</ele>
        <time>2016-11-28T10:11:37Z</time>
      </trkpt>
      <trkpt lat="45.95873" lon="4.88702">
        <ele>288</ele>
        <time>2016-11-28T10:11:38Z</time>
      </trkpt>
      <trkpt lat="45.95873" lon="4.88709">
        <ele>288</ele>
        <time>2016-11-28T10:11:39Z</time>
      </trkpt>
      <trkpt lat="45.95873" lon="4.88716">
        <ele>288</ele>
        <time>2016-11-28T10:11:40Z</time>
      </trkpt>
      <trkpt lat="45.95874" lon="4.88723">
        <ele>288</ele>
        <time>2016-11-28T10:11:41Z</time>
      </trkpt>
      <trkpt lat="45.95874" lon="4.8873">
        <ele>288</ele>
        <time>2016-11-28T10:11:42Z</time>
      </trkpt>
      <trkpt lat="45.95874" lon="4.88737">
        <ele>288</ele>
        <time>2016-11-28T10:11:43Z</time>
      </trkpt>
      <trkpt lat="45.95875" lon="4.88744">
        <ele>288</ele>
        <time>2016-11-28T10:11:44Z</time>
      </trkpt>
      <trkpt lat="45.95875" lon="4.88751">
        <ele>288</ele>
        <time>2016-11-28T10:11:45Z</time>
      </trkpt>
      <trkpt lat="45.95875" lon="4.88757">
        <ele>288</ele>
        <time>2016-11-28T10:11:46Z</time>
      </trkpt>
      <trkpt lat="45.95875" lon="4.88764">
        <ele>288</ele>
        <time>2016-11-28T10:11:47Z</time>
      </trkpt>
      <trkpt lat="45.95875" lon="4.88771">
        <ele>288</ele>
        <time>2016-11-28T10:11:48Z</time>
      </trkpt>
      <trkpt lat="45.95875" lon="4.88778">
        <ele>288</ele>
        <time>2016-11-28T10:11:49Z</time>
      </trkpt>
      <trkpt lat="45.95876" lon="4.88784">
        <ele>288</ele>
        <time>2016-11-28T10:11:50Z</time>
      </trkpt>
      <trkpt lat="45.95876" lon="4.88791">
        <ele>288</ele>
        <time>2016-11-28T10:11:51Z</time>
      </trkpt>
      <trkpt lat="45.95876" lon="4.88798">
        <ele>288</ele>
        <time>2016-11-28T10:11:52Z</time>
      </trkpt>
      <trkpt lat="45.95876" lon="4.88805">
        <ele>288</ele>
        <time>2016-11-28T10:11:53Z</time>
      </trkpt>
      <trkpt lat="45.95877" lon="4.88812">
        <ele>288</ele>
        <time>2016-11-28T10:11:54Z</time>
      </trkpt>
      <trkpt lat="45.95877" lon="4.88819">
        <ele>288</ele>
        <time>2016-11-28T10:11:55Z</time>
      </trkpt>
      <trkpt lat="45.95877" lon="4.88826">
        <ele>288</ele>
        <time>2016-11-28T10:11:56Z</time>
      </trkpt>
      <trkpt lat="45.95877" lon="4.88833">
        <ele>288</ele>
        <time>2016-11-28T10:11:57Z</time>
      </trkpt>
      <trkpt lat="45.95878" lon="4.8884">
        <ele>289</ele>
        <time>2016-11-28T10:11:58Z</time>
      </trkpt>
      <trkpt lat="45.95878" lon="4.88847">
        <ele>289</ele>
        <time>2016-11-28T10:11:59Z</time>
      </trkpt>
      <trkpt lat="45.95878" lon="4.88854">
        <ele>289</ele>
        <time>2016-11-28T10:12:00Z</time>
      </trkpt>
      <trkpt lat="45.95878" lon="4.88861">
        <ele>289</ele>
        <time>2016-11-28T10:12:01Z</time>
      </trkpt>
      <trkpt lat="45.95878" lon="4.88868">
        <ele>289</ele>
        <time>2016-11-28T10:12:02Z</time>
      </trkpt>
      <trkpt lat="45.95878" lon="4.88876">
        <ele>289</ele>
        <time>2016-11-28T10:12:03Z</time>
      </trkpt>
      <trkpt lat="45.95878" lon="4.88883">
        <ele>289</ele>
        <time>2016-11-28T10:12:04Z</time>
      </trkpt>
      <trkpt lat="45.95878" lon="4.8889">
        <ele>289</ele>
        <time>2016-11-28T10:12:05Z</time>
      </trkpt>
      <trkpt lat="45.95878" lon="4.88897">
        <ele>289</ele>
        <time>2016-11-28T10:12:06Z</time>
      </trkpt>
      <trkpt lat="45.95878" lon="4.88905">
        <ele>289</ele>
        <time>2016-11-28T10:12:07Z</time>
      </trkpt>
      <trkpt lat="45.95879" lon="4.88912">
        <ele>289</ele>
        <time>2016-11-28T10:12:08Z</time>
      </trkpt>
      <trkpt lat="45.95879" lon="4.8892">
        <ele>289</ele>
        <time>2016-11-28T10:12:09Z</time>
      </trkpt>
      <trkpt lat="45.95879" lon="4.88927">
        <ele>289</ele>
        <time>2016-11-28T10:12:10Z</time>
      </trkpt>
      <trkpt lat="45.95879" lon="4.88934">
        <ele>289</ele>
        <time>2016-11-28T10:12:11Z</time>
      </trkpt>
      <trkpt lat="45.95879" lon="4.88941">
        <ele>289</ele>
        <time>2016-11-28T10:12:12Z</time>
      </trkpt>
      <trkpt lat="45.95879" lon="4.88947">
        <ele>289</ele>
        <time>2016-11-28T10:12:13Z</time>
      </trkpt>
      <trkpt lat="45.95879" lon="4.8896">
        <ele>289</ele>
        <time>2016-11-28T10:12:15Z</time>
      </trkpt>
      <trkpt lat="45.9588" lon="4.88966">
        <ele>289</ele>
        <time>2016-11-28T10:12:16Z</time>
      </trkpt>
      <trkpt lat="45.9588" lon="4.88973">
        <ele>289</ele>
        <time>2016-11-28T10:12:17Z</time>
      </trkpt>
      <trkpt lat="45.95881" lon="4.88981">
        <ele>289</ele>
        <time>2016-11-28T10:12:18Z</time>
      </trkpt>
      <trkpt lat="45.95882" lon="4.88988">
        <ele>289</ele>
        <time>2016-11-28T10:12:19Z</time>
      </trkpt>
      <trkpt lat="45.95883" lon="4.88996">
        <ele>289</ele>
        <time>2016-11-28T10:12:20Z</time>
      </trkpt>
      <trkpt lat="45.95885" lon="4.89004">
        <ele>289</ele>
        <time>2016-11-28T10:12:21Z</time>
      </trkpt>
      <trkpt lat="45.95887" lon="4.89011">
        <ele>289</ele>
        <time>2016-11-28T10:12:22Z</time>
      </trkpt>
      <trkpt lat="45.95889" lon="4.89018">
        <ele>289</ele>
        <time>2016-11-28T10:12:23Z</time>
      </trkpt>
      <trkpt lat="45.9589" lon="4.89026">
        <ele>289</ele>
        <time>2016-11-28T10:12:24Z</time>
      </trkpt>
      <trkpt lat="45.95892" lon="4.89033">
        <ele>289</ele>
        <time>2016-11-28T10:12:25Z</time>
      </trkpt>
      <trkpt lat="45.95893" lon="4.8904">
        <ele>289</ele>
        <time>2016-11-28T10:12:26Z</time>
      </trkpt>
      <trkpt lat="45.95894" lon="4.89047">
        <ele>289</ele>
        <time>2016-11-28T10:12:27Z</time>
      </trkpt>
      <trkpt lat="45.95894" lon="4.89054">
        <ele>289</ele>
        <time>2016-11-28T10:12:28Z</time>
      </trkpt>
      <trkpt lat="45.95893" lon="4.89067">
        <ele>289</ele>
        <time>2016-11-28T10:12:30Z</time>
      </trkpt>
      <trkpt lat="45.95892" lon="4.89072">
        <ele>289</ele>
        <time>2016-11-28T10:12:31Z</time>
      </trkpt>
      <trkpt lat="45.95888" lon="4.89081">
        <ele>289</ele>
        <time>2016-11-28T10:12:33Z</time>
      </trkpt>
      <trkpt lat="45.95886" lon="4.89084">
        <ele>288</ele>
        <time>2016-11-28T10:12:34Z</time>
      </trkpt>
      <trkpt lat="45.95881" lon="4.89091">
        <ele>288</ele>
        <time>2016-11-28T10:12:37Z</time>
      </trkpt>
      <trkpt lat="45.95878" lon="4.89094">
        <ele>288</ele>
        <time>2016-11-28T10:12:38Z</time>
      </trkpt>
      <trkpt lat="45.95874" lon="4.89104">
        <ele>288</ele>
        <time>2016-11-28T10:12:40Z</time>
      </trkpt>
      <trkpt lat="45.95872" lon="4.89112">
        <ele>288</ele>
        <time>2016-11-28T10:12:41Z</time>
      </trkpt>
      <trkpt lat="45.95872" lon="4.89119">
        <ele>288</ele>
        <time>2016-11-28T10:12:42Z</time>
      </trkpt>
      <trkpt lat="45.95873" lon="4.89127">
        <ele>288</ele>
        <time>2016-11-28T10:12:43Z</time>
      </trkpt>
      <trkpt lat="45.95873" lon="4.89135">
        <ele>288</ele>
        <time>2016-11-28T10:12:44Z</time>
      </trkpt>
      <trkpt lat="45.95874" lon="4.89143">
        <ele>288</ele>
        <time>2016-11-28T10:12:45Z</time>
      </trkpt>
      <trkpt lat="45.95875" lon="4.89151">
        <ele>288</ele>
        <time>2016-11-28T10:12:46Z</time>
      </trkpt>
      <trkpt lat="45.95876" lon="4.89158">
        <ele>288</ele>
        <time>2016-11-28T10:12:47Z</time>
      </trkpt>
      <trkpt lat="45.95877" lon="4.89165">
        <ele>288</ele>
        <time>2016-11-28T10:12:48Z</time>
      </trkpt>
      <trkpt lat="45.95878" lon="4.89171">
        <ele>288</ele>
        <time>2016-11-28T10:12:49Z</time>
      </trkpt>
      <trkpt lat="45.95879" lon="4.89184">
        <ele>288</ele>
        <time>2016-11-28T10:12:51Z</time>
      </trkpt>
      <trkpt lat="45.95879" lon="4.8919">
        <ele>288</ele>
        <time>2016-11-28T10:12:52Z</time>
      </trkpt>
      <trkpt lat="45.95881" lon="4.89202">
        <ele>288</ele>
        <time>2016-11-28T10:12:54Z</time>
      </trkpt>
      <trkpt lat="45.95881" lon="4.89209">
        <ele>288</ele>
        <time>2016-11-28T10:12:55Z</time>
      </trkpt>
      <trkpt lat="45.95881" lon="4.89221">
        <ele>288</ele>
        <time>2016-11-28T10:12:57Z</time>
      </trkpt>
      <trkpt lat="45.95881" lon="4.89228">
        <ele>288</ele>
        <time>2016-11-28T10:12:58Z</time>
      </trkpt>
      <trkpt lat="45.9588" lon="4.8924">
        <ele>288</ele>
        <time>2016-11-28T10:13:00Z</time>
      </trkpt>
      <trkpt lat="45.9588" lon="4.89247">
        <ele>288</ele>
        <time>2016-11-28T10:13:01Z</time>
      </trkpt>
      <trkpt lat="45.9588" lon="4.89254">
        <ele>289</ele>
        <time>2016-11-28T10:13:02Z</time>
      </trkpt>
      <trkpt lat="45.9588" lon="4.8926">
        <ele>289</ele>
        <time>2016-11-28T10:13:03Z</time>
      </trkpt>
      <trkpt lat="45.95881" lon="4.89273">
        <ele>289</ele>
        <time>2016-11-28T10:13:05Z</time>
      </trkpt>
      <trkpt lat="45.95881" lon="4.89279">
        <ele>289</ele>
        <time>2016-11-28T10:13:06Z</time>
      </trkpt>
      <trkpt lat="45.95881" lon="4.89292">
        <ele>289</ele>
        <time>2016-11-28T10:13:08Z</time>
      </trkpt>
      <trkpt lat="45.9588" lon="4.89298">
        <ele>289</ele>
        <time>2016-11-28T10:13:09Z</time>
      </trkpt>
      <trkpt lat="45.9588" lon="4.89305">
        <ele>289</ele>
        <time>2016-11-28T10:13:10Z</time>
      </trkpt>
      <trkpt lat="45.9588" lon="4.89312">
        <ele>289</ele>
        <time>2016-11-28T10:13:11Z</time>
      </trkpt>
      <trkpt lat="45.9588" lon="4.89319">
        <ele>289</ele>
        <time>2016-11-28T10:13:12Z</time>
      </trkpt>
      <trkpt lat="45.9588" lon="4.89326">
        <ele>289</ele>
        <time>2016-11-28T10:13:13Z</time>
      </trkpt>
      <trkpt lat="45.9588" lon="4.89334">
        <ele>289</ele>
        <time>2016-11-28T10:13:14Z</time>
      </trkpt>
      <trkpt lat="45.9588" lon="4.89342">
        <ele>289</ele>
        <time>2016-11-28T10:13:15Z</time>
      </trkpt>
      <trkpt lat="45.9588" lon="4.89349">
        <ele>289</ele>
        <time>2016-11-28T10:13:16Z</time>
      </trkpt>
      <trkpt lat="45.95881" lon="4.89357">
        <ele>289</ele>
        <time>2016-11-28T10:13:17Z</time>
      </trkpt>
      <trkpt lat="45.95881" lon="4.89364">
        <ele>289</ele>
        <time>2016-11-28T10:13:18Z</time>
      </trkpt>
      <trkpt lat="45.95881" lon="4.89372">
        <ele>289</ele>
        <time>2016-11-28T10:13:19Z</time>
      </trkpt>
      <trkpt lat="45.95881" lon="4.8938">
        <ele>289</ele>
        <time>2016-11-28T10:13:20Z</time>
      </trkpt>
      <trkpt lat="45.95881" lon="4.89388">
        <ele>289</ele>
        <time>2016-11-28T10:13:21Z</time>
      </trkpt>
      <trkpt lat="45.95882" lon="4.89395">
        <ele>289</ele>
        <time>2016-11-28T10:13:22Z</time>
      </trkpt>
      <trkpt lat="45.95882" lon="4.89403">
        <ele>289</ele>
        <time>2016-11-28T10:13:23Z</time>
      </trkpt>
      <trkpt lat="45.95882" lon="4.8941">
        <ele>289</ele>
        <time>2016-11-28T10:13:24Z</time>
      </trkpt>
      <trkpt lat="45.95882" lon="4.89417">
        <ele>289</ele>
        <time>2016-11-28T10:13:25Z</time>
      </trkpt>
      <trkpt lat="45.95882" lon="4.89425">
        <ele>289</ele>
        <time>2016-11-28T10:13:26Z</time>
      </trkpt>
      <trkpt lat="45.95882" lon="4.89433">
        <ele>289</ele>
        <time>2016-11-28T10:13:27Z</time>
      </trkpt>
      <trkpt lat="45.95882" lon="4.8944">
        <ele>289</ele>
        <time>2016-11-28T10:13:28Z</time>
      </trkpt>
      <trkpt lat="45.95882" lon="4.89448">
        <ele>289</ele>
        <time>2016-11-28T10:13:29Z</time>
      </trkpt>
      <trkpt lat="45.95882" lon="4.89455">
        <ele>289</ele>
        <time>2016-11-28T10:13:30Z</time>
      </trkpt>
      <trkpt lat="45.95883" lon="4.89463">
        <ele>289</ele>
        <time>2016-11-28T10:13:31Z</time>
      </trkpt>
      <trkpt lat="45.95883" lon="4.8947">
        <ele>289</ele>
        <time>2016-11-28T10:13:32Z</time>
      </trkpt>
      <trkpt lat="45.95883" lon="4.89477">
        <ele>289</ele>
        <time>2016-11-28T10:13:33Z</time>
      </trkpt>
      <trkpt lat="45.95883" lon="4.89484">
        <ele>288</ele>
        <time>2016-11-28T10:13:34Z</time>
      </trkpt>
      <trkpt lat="45.95883" lon="4.89491">
        <ele>288</ele>
        <time>2016-11-28T10:13:35Z</time>
      </trkpt>
      <trkpt lat="45.95884" lon="4.89498">
        <ele>288</ele>
        <time>2016-11-28T10:13:36Z</time>
      </trkpt>
      <trkpt lat="45.95884" lon="4.89505">
        <ele>288</ele>
        <time>2016-11-28T10:13:37Z</time>
      </trkpt>
      <trkpt lat="45.95885" lon="4.89512">
        <ele>288</ele>
        <time>2016-11-28T10:13:38Z</time>
      </trkpt>
      <trkpt lat="45.95884" lon="4.89518">
        <ele>288</ele>
        <time>2016-11-28T10:13:39Z</time>
      </trkpt>
      <trkpt lat="45.95884" lon="4.89531">
        <ele>288</ele>
        <time>2016-11-28T10:13:41Z</time>
      </trkpt>
      <trkpt lat="45.95884" lon="4.89538">
        <ele>288</ele>
        <time>2016-11-28T10:13:42Z</time>
      </trkpt>
      <trkpt lat="45.95884" lon="4.89544">
        <ele>288</ele>
        <time>2016-11-28T10:13:43Z</time>
      </trkpt>
      <trkpt lat="45.95884" lon="4.89551">
        <ele>288</ele>
        <time>2016-11-28T10:13:44Z</time>
      </trkpt>
      <trkpt lat="45.95885" lon="4.89558">
        <ele>288</ele>
        <time>2016-11-28T10:13:45Z</time>
      </trkpt>
      <trkpt lat="45.95885" lon="4.89565">
        <ele>288</ele>
        <time>2016-11-28T10:13:46Z</time>
      </trkpt>
      <trkpt lat="45.95885" lon="4.89571">
        <ele>288</ele>
        <time>2016-11-28T10:13:47Z</time>
      </trkpt>
      <trkpt lat="45.95885" lon="4.89578">
        <ele>288</ele>
        <time>2016-11-28T10:13:48Z</time>
      </trkpt>
      <trkpt lat="45.95885" lon="4.89585">
        <ele>289</ele>
        <time>2016-11-28T10:13:49Z</time>
      </trkpt>
      <trkpt lat="45.95885" lon="4.89592">
        <ele>289</ele>
        <time>2016-11-28T10:13:50Z</time>
      </trkpt>
      <trkpt lat="45.95885" lon="4.89599">
        <ele>289</ele>
        <time>2016-11-28T10:13:51Z</time>
      </trkpt>
      <trkpt lat="45.95885" lon="4.89606">
        <ele>289</ele>
        <time>2016-11-28T10:13:52Z</time>
      </trkpt>
      <trkpt lat="45.95885" lon="4.89612">
        <ele>289</ele>
        <time>2016-11-28T10:13:53Z</time>
      </trkpt>
      <trkpt lat="45.95885" lon="4.89619">
        <ele>289</ele>
        <time>2016-11-28T10:13:54Z</time>
      </trkpt>
      <trkpt lat="45.95885" lon="4.89631">
        <ele>289</ele>
        <time>2016-11-28T10:13:56Z</time>
      </trkpt>
      <trkpt lat="45.95886" lon="4.89637">
        <ele>289</ele>
        <time>2016-11-28T10:13:57Z</time>
      </trkpt>
      <trkpt lat="45.95886" lon="4.8965">
        <ele>289</ele>
        <time>2016-11-28T10:13:59Z</time>
      </trkpt>
      <trkpt lat="45.95886" lon="4.89657">
        <ele>289</ele>
        <time>2016-11-28T10:14:00Z</time>
      </trkpt>
      <trkpt lat="45.95886" lon="4.89669">
        <ele>289</ele>
        <time>2016-11-28T10:14:02Z</time>
      </trkpt>
      <trkpt lat="45.95886" lon="4.89676">
        <ele>289</ele>
        <time>2016-11-28T10:14:03Z</time>
      </trkpt>
      <trkpt lat="45.95886" lon="4.89688">
        <ele>289</ele>
        <time>2016-11-28T10:14:05Z</time>
      </trkpt>
      <trkpt lat="45.95886" lon="4.89694">
        <ele>289</ele>
        <time>2016-11-28T10:14:06Z</time>
      </trkpt>
      <trkpt lat="45.95886" lon="4.89707">
        <ele>289</ele>
        <time>2016-11-28T10:14:08Z</time>
      </trkpt>
      <trkpt lat="45.95886" lon="4.89713">
        <ele>289</ele>
        <time>2016-11-28T10:14:09Z</time>
      </trkpt>
      <trkpt lat="45.95886" lon="4.8972">
        <ele>289</ele>
        <time>2016-11-28T10:14:10Z</time>
      </trkpt>
      <trkpt lat="45.95886" lon="4.89727">
        <ele>289</ele>
        <time>2016-11-28T10:14:11Z</time>
      </trkpt>
      <trkpt lat="45.95886" lon="4.89734">
        <ele>289</ele>
        <time>2016-11-28T10:14:12Z</time>
      </trkpt>
      <trkpt lat="45.95886" lon="4.8974">
        <ele>289</ele>
        <time>2016-11-28T10:14:13Z</time>
      </trkpt>
      <trkpt lat="45.95887" lon="4.89747">
        <ele>289</ele>
        <time>2016-11-28T10:14:14Z</time>
      </trkpt>
      <trkpt lat="45.95886" lon="4.89754">
        <ele>289</ele>
        <time>2016-11-28T10:14:15Z</time>
      </trkpt>
      <trkpt lat="45.95887" lon="4.89761">
        <ele>289</ele>
        <time>2016-11-28T10:14:16Z</time>
      </trkpt>
      <trkpt lat="45.95887" lon="4.89767">
        <ele>289</ele>
        <time>2016-11-28T10:14:17Z</time>
      </trkpt>
      <trkpt lat="45.95887" lon="4.89774">
        <ele>289</ele>
        <time>2016-11-28T10:14:18Z</time>
      </trkpt>
      <trkpt lat="45.95887" lon="4.89781">
        <ele>289</ele>
        <time>2016-11-28T10:14:19Z</time>
      </trkpt>
      <trkpt lat="45.95887" lon="4.89788">
        <ele>289</ele>
        <time>2016-11-28T10:14:20Z</time>
      </trkpt>
      <trkpt lat="45.95887" lon="4.89794">
        <ele>289</ele>
        <time>2016-11-28T10:14:21Z</time>
      </trkpt>
      <trkpt lat="45.95887" lon="4.89801">
        <ele>289</ele>
        <time>2016-11-28T10:14:22Z</time>
      </trkpt>
      <trkpt lat="45.95887" lon="4.89807">
        <ele>289</ele>
        <time>2016-11-28T10:14:23Z</time>
      </trkpt>
      <trkpt lat="45.95887" lon="4.8982">
        <ele>289</ele>
        <time>2016-11-28T10:14:25Z</time>
      </trkpt>
      <trkpt lat="45.95887" lon="4.89826">
        <ele>289</ele>
        <time>2016-11-28T10:14:26Z</time>
      </trkpt>
      <trkpt lat="45.95887" lon="4.89838">
        <ele>290</ele>
        <time>2016-11-28T10:14:28Z</time>
      </trkpt>
      <trkpt lat="45.95887" lon="4.89845">
        <ele>290</ele>
        <time>2016-11-28T10:14:29Z</time>
      </trkpt>
      <trkpt lat="45.95887" lon="4.89851">
        <ele>290</ele>
        <time>2016-11-28T10:14:30Z</time>
      </trkpt>
      <trkpt lat="45.95887" lon="4.89858">
        <ele>290</ele>
        <time>2016-11-28T10:14:31Z</time>
      </trkpt>
      <trkpt lat="45.95887" lon="4.89864">
        <ele>290</ele>
        <time>2016-11-28T10:14:32Z</time>
      </trkpt>
      <trkpt lat="45.95886" lon="4.89871">
        <ele>290</ele>
        <time>2016-11-28T10:14:33Z</time>
      </trkpt>
      <trkpt lat="45.95887" lon="4.89877">
        <ele>290</ele>
        <time>2016-11-28T10:14:34Z</time>
      </trkpt>
      <trkpt lat="45.95887" lon="4.89884">
        <ele>290</ele>
        <time>2016-11-28T10:14:35Z</time>
      </trkpt>
      <trkpt lat="45.95887" lon="4.8989">
        <ele>290</ele>
        <time>2016-11-28T10:14:36Z</time>
      </trkpt>
      <trkpt lat="45.95887" lon="4.89897">
        <ele>290</ele>
        <time>2016-11-28T10:14:37Z</time>
      </trkpt>
      <trkpt lat="45.95887" lon="4.89903">
        <ele>290</ele>
        <time>2016-11-28T10:14:38Z</time>
      </trkpt>
      <trkpt lat="45.95887" lon="4.8991">
        <ele>290</ele>
        <time>2016-11-28T10:14:39Z</time>
      </trkpt>
      <trkpt lat="45.95887" lon="4.89916">
        <ele>290</ele>
        <time>2016-11-28T10:14:40Z</time>
      </trkpt>
      <trkpt lat="45.95888" lon="4.89924">
        <ele>290</ele>
        <time>2016-11-28T10:14:41Z</time>
      </trkpt>
      <trkpt lat="45.95888" lon="4.89931">
        <ele>290</ele>
        <time>2016-11-28T10:14:42Z</time>
      </trkpt>
      <trkpt lat="45.95888" lon="4.89938">
        <ele>290</ele>
        <time>2016-11-28T10:14:43Z</time>
      </trkpt>
      <trkpt lat="45.95888" lon="4.89945">
        <ele>290</ele>
        <time>2016-11-28T10:14:44Z</time>
      </trkpt>
      <trkpt lat="45.95889" lon="4.89953">
        <ele>290</ele>
        <time>2016-11-28T10:14:45Z</time>
      </trkpt>
      <trkpt lat="45.95889" lon="4.8996">
        <ele>290</ele>
        <time>2016-11-28T10:14:46Z</time>
      </trkpt>
      <trkpt lat="45.9589" lon="4.89968">
        <ele>290</ele>
        <time>2016-11-28T10:14:47Z</time>
      </trkpt>
      <trkpt lat="45.9589" lon="4.89976">
        <ele>290</ele>
        <time>2016-11-28T10:14:48Z</time>
      </trkpt>
      <trkpt lat="45.9589" lon="4.89985">
        <ele>290</ele>
        <time>2016-11-28T10:14:49Z</time>
      </trkpt>
      <trkpt lat="45.9589" lon="4.89993">
        <ele>290</ele>
        <time>2016-11-28T10:14:50Z</time>
      </trkpt>
      <trkpt lat="45.9589" lon="4.90001">
        <ele>290</ele>
        <time>2016-11-28T10:14:51Z</time>
      </trkpt>
      <trkpt lat="45.95891" lon="4.90008">
        <ele>290</ele>
        <time>2016-11-28T10:14:52Z</time>
      </trkpt>
      <trkpt lat="45.95891" lon="4.90015">
        <ele>290</ele>
        <time>2016-11-28T10:14:53Z</time>
      </trkpt>
      <trkpt lat="45.95891" lon="4.90022">
        <ele>290</ele>
        <time>2016-11-28T10:14:54Z</time>
      </trkpt>
      <trkpt lat="45.95891" lon="4.90029">
        <ele>290</ele>
        <time>2016-11-28T10:14:55Z</time>
      </trkpt>
      <trkpt lat="45.95891" lon="4.90036">
        <ele>290</ele>
        <time>2016-11-28T10:14:56Z</time>
      </trkpt>
      <trkpt lat="45.95891" lon="4.90043">
        <ele>290</ele>
        <time>2016-11-28T10:14:57Z</time>
      </trkpt>
      <trkpt lat="45.95891" lon="4.9005">
        <ele>290</ele>
        <time>2016-11-28T10:14:58Z</time>
      </trkpt>
      <trkpt lat="45.95891" lon="4.90057">
        <ele>290</ele>
        <time>2016-11-28T10:14:59Z</time>
      </trkpt>
      <trkpt lat="45.95891" lon="4.90064">
        <ele>290</ele>
        <time>2016-11-28T10:15:00Z</time>
      </trkpt>
      <trkpt lat="45.95891" lon="4.90071">
        <ele>290</ele>
        <time>2016-11-28T10:15:01Z</time>
      </trkpt>
      <trkpt lat="45.95891" lon="4.90078">
        <ele>290</ele>
        <time>2016-11-28T10:15:02Z</time>
      </trkpt>
      <trkpt lat="45.95891" lon="4.90085">
        <ele>290</ele>
        <time>2016-11-28T10:15:03Z</time>
      </trkpt>
      <trkpt lat="45.95891" lon="4.90092">
        <ele>290</ele>
        <time>2016-11-28T10:15:04Z</time>
      </trkpt>
      <trkpt lat="45.95891" lon="4.90099">
        <ele>290</ele>
        <time>2016-11-28T10:15:05Z</time>
      </trkpt>
      <trkpt lat="45.95891" lon="4.90106">
        <ele>290</ele>
        <time>2016-11-28T10:15:06Z</time>
      </trkpt>
      <trkpt lat="45.9589" lon="4.90113">
        <ele>290</ele>
        <time>2016-11-28T10:15:07Z</time>
      </trkpt>
      <trkpt lat="45.9589" lon="4.9012">
        <ele>290</ele>
        <time>2016-11-28T10:15:08Z</time>
      </trkpt>
      <trkpt lat="45.9589" lon="4.90127">
        <ele>290</ele>
        <time>2016-11-28T10:15:09Z</time>
      </trkpt>
      <trkpt lat="45.95891" lon="4.90134">
        <ele>290</ele>
        <time>2016-11-28T10:15:10Z</time>
      </trkpt>
      <trkpt lat="45.9589" lon="4.90141">
        <ele>290</ele>
        <time>2016-11-28T10:15:11Z</time>
      </trkpt>
      <trkpt lat="45.9589" lon="4.90148">
        <ele>290</ele>
        <time>2016-11-28T10:15:12Z</time>
      </trkpt>
      <trkpt lat="45.9589" lon="4.90154">
        <ele>290</ele>
        <time>2016-11-28T10:15:13Z</time>
      </trkpt>
      <trkpt lat="45.9589" lon="4.90161">
        <ele>290</ele>
        <time>2016-11-28T10:15:14Z</time>
      </trkpt>
      <trkpt lat="45.9589" lon="4.90167">
        <ele>291</ele>
        <time>2016-11-28T10:15:15Z</time>
      </trkpt>
      <trkpt lat="45.9589" lon="4.90174">
        <ele>291</ele>
        <time>2016-11-28T10:15:16Z</time>
      </trkpt>
      <trkpt lat="45.9589" lon="4.90181">
        <ele>291</ele>
        <time>2016-11-28T10:15:17Z</time>
      </trkpt>
      <trkpt lat="45.9589" lon="4.90189">
        <ele>291</ele>
        <time>2016-11-28T10:15:18Z</time>
      </trkpt>
      <trkpt lat="45.9589" lon="4.90197">
        <ele>291</ele>
        <time>2016-11-28T10:15:19Z</time>
      </trkpt>
      <trkpt lat="45.9589" lon="4.90204">
        <ele>291</ele>
        <time>2016-11-28T10:15:20Z</time>
      </trkpt>
      <trkpt lat="45.9589" lon="4.90212">
        <ele>291</ele>
        <time>2016-11-28T10:15:21Z</time>
      </trkpt>
      <trkpt lat="45.9589" lon="4.90219">
        <ele>291</ele>
        <time>2016-11-28T10:15:22Z</time>
      </trkpt>
      <trkpt lat="45.95889" lon="4.90227">
        <ele>292</ele>
        <time>2016-11-28T10:15:23Z</time>
      </trkpt>
      <trkpt lat="45.95889" lon="4.90234">
        <ele>292</ele>
        <time>2016-11-28T10:15:24Z</time>
      </trkpt>
      <trkpt lat="45.95889" lon="4.90241">
        <ele>292</ele>
        <time>2016-11-28T10:15:25Z</time>
      </trkpt>
      <trkpt lat="45.95889" lon="4.90248">
        <ele>292</ele>
        <time>2016-11-28T10:15:26Z</time>
      </trkpt>
      <trkpt lat="45.95889" lon="4.90255">
        <ele>292</ele>
        <time>2016-11-28T10:15:27Z</time>
      </trkpt>
      <trkpt lat="45.95888" lon="4.90268">
        <ele>292</ele>
        <time>2016-11-28T10:15:29Z</time>
      </trkpt>
      <trkpt lat="45.95888" lon="4.90274">
        <ele>292</ele>
        <time>2016-11-28T10:15:30Z</time>
      </trkpt>
      <trkpt lat="45.95888" lon="4.9028">
        <ele>292</ele>
        <time>2016-11-28T10:15:31Z</time>
      </trkpt>
      <trkpt lat="45.95887" lon="4.90287">
        <ele>292</ele>
        <time>2016-11-28T10:15:32Z</time>
      </trkpt>
      <trkpt lat="45.95887" lon="4.90294">
        <ele>292</ele>
        <time>2016-11-28T10:15:33Z</time>
      </trkpt>
      <trkpt lat="45.95886" lon="4.90301">
        <ele>292</ele>
        <time>2016-11-28T10:15:34Z</time>
      </trkpt>
      <trkpt lat="45.95886" lon="4.90309">
        <ele>292</ele>
        <time>2016-11-28T10:15:35Z</time>
      </trkpt>
      <trkpt lat="45.95886" lon="4.90316">
        <ele>292</ele>
        <time>2016-11-28T10:15:36Z</time>
      </trkpt>
      <trkpt lat="45.95886" lon="4.90323">
        <ele>292</ele>
        <time>2016-11-28T10:15:37Z</time>
      </trkpt>
      <trkpt lat="45.95886" lon="4.9033">
        <ele>292</ele>
        <time>2016-11-28T10:15:38Z</time>
      </trkpt>
      <trkpt lat="45.95885" lon="4.90338">
        <ele>292</ele>
        <time>2016-11-28T10:15:39Z</time>
      </trkpt>
      <trkpt lat="45.95885" lon="4.90345">
        <ele>292</ele>
        <time>2016-11-28T10:15:40Z</time>
      </trkpt>
      <trkpt lat="45.95885" lon="4.90352">
        <ele>292</ele>
        <time>2016-11-28T10:15:41Z</time>
      </trkpt>
      <trkpt lat="45.95885" lon="4.90359">
        <ele>292</ele>
        <time>2016-11-28T10:15:42Z</time>
      </trkpt>
      <trkpt lat="45.95885" lon="4.90365">
        <ele>292</ele>
        <time>2016-11-28T10:15:43Z</time>
      </trkpt>
      <trkpt lat="45.95884" lon="4.90372">
        <ele>292</ele>
        <time>2016-11-28T10:15:44Z</time>
      </trkpt>
      <trkpt lat="45.95884" lon="4.90379">
        <ele>292</ele>
        <time>2016-11-28T10:15:45Z</time>
      </trkpt>
      <trkpt lat="45.95884" lon="4.90385">
        <ele>292</ele>
        <time>2016-11-28T10:15:46Z</time>
      </trkpt>
      <trkpt lat="45.95884" lon="4.90391">
        <ele>292</ele>
        <time>2016-11-28T10:15:47Z</time>
      </trkpt>
      <trkpt lat="45.95883" lon="4.90398">
        <ele>292</ele>
        <time>2016-11-28T10:15:48Z</time>
      </trkpt>
      <trkpt lat="45.95882" lon="4.90405">
        <ele>292</ele>
        <time>2016-11-28T10:15:49Z</time>
      </trkpt>
      <trkpt lat="45.95882" lon="4.90412">
        <ele>292</ele>
        <time>2016-11-28T10:15:50Z</time>
      </trkpt>
      <trkpt lat="45.95881" lon="4.90418">
        <ele>292</ele>
        <time>2016-11-28T10:15:51Z</time>
      </trkpt>
      <trkpt lat="45.95881" lon="4.90426">
        <ele>292</ele>
        <time>2016-11-28T10:15:52Z</time>
      </trkpt>
      <trkpt lat="45.9588" lon="4.90433">
        <ele>292</ele>
        <time>2016-11-28T10:15:53Z</time>
      </trkpt>
      <trkpt lat="45.9588" lon="4.9044">
        <ele>292</ele>
        <time>2016-11-28T10:15:54Z</time>
      </trkpt>
      <trkpt lat="45.95879" lon="4.90447">
        <ele>292</ele>
        <time>2016-11-28T10:15:55Z</time>
      </trkpt>
      <trkpt lat="45.9588" lon="4.90455">
        <ele>292</ele>
        <time>2016-11-28T10:15:56Z</time>
      </trkpt>
      <trkpt lat="45.9588" lon="4.90462">
        <ele>292</ele>
        <time>2016-11-28T10:15:57Z</time>
      </trkpt>
      <trkpt lat="45.95879" lon="4.9047">
        <ele>292</ele>
        <time>2016-11-28T10:15:58Z</time>
      </trkpt>
      <trkpt lat="45.95879" lon="4.90477">
        <ele>292</ele>
        <time>2016-11-28T10:15:59Z</time>
      </trkpt>
      <trkpt lat="45.95879" lon="4.90484">
        <ele>292</ele>
        <time>2016-11-28T10:16:00Z</time>
      </trkpt>
      <trkpt lat="45.95878" lon="4.9049">
        <ele>292</ele>
        <time>2016-11-28T10:16:01Z</time>
      </trkpt>
      <trkpt lat="45.95877" lon="4.90497">
        <ele>292</ele>
        <time>2016-11-28T10:16:02Z</time>
      </trkpt>
      <trkpt lat="45.95877" lon="4.90504">
        <ele>292</ele>
        <time>2016-11-28T10:16:03Z</time>
      </trkpt>
      <trkpt lat="45.95877" lon="4.90511">
        <ele>292</ele>
        <time>2016-11-28T10:16:04Z</time>
      </trkpt>
      <trkpt lat="45.95877" lon="4.90518">
        <ele>292</ele>
        <time>2016-11-28T10:16:05Z</time>
      </trkpt>
      <trkpt lat="45.95876" lon="4.90525">
        <ele>292</ele>
        <time>2016-11-28T10:16:06Z</time>
      </trkpt>
      <trkpt lat="45.95876" lon="4.90532">
        <ele>292</ele>
        <time>2016-11-28T10:16:07Z</time>
      </trkpt>
      <trkpt lat="45.95876" lon="4.90539">
        <ele>292</ele>
        <time>2016-11-28T10:16:08Z</time>
      </trkpt>
      <trkpt lat="45.95876" lon="4.90546">
        <ele>292</ele>
        <time>2016-11-28T10:16:09Z</time>
      </trkpt>
      <trkpt lat="45.95876" lon="4.90553">
        <ele>292</ele>
        <time>2016-11-28T10:16:10Z</time>
      </trkpt>
      <trkpt lat="45.95875" lon="4.9056">
        <ele>292</ele>
        <time>2016-11-28T10:16:11Z</time>
      </trkpt>
      <trkpt lat="45.95875" lon="4.90568">
        <ele>292</ele>
        <time>2016-11-28T10:16:12Z</time>
      </trkpt>
      <trkpt lat="45.95875" lon="4.90575">
        <ele>292</ele>
        <time>2016-11-28T10:16:13Z</time>
      </trkpt>
      <trkpt lat="45.95875" lon="4.90582">
        <ele>292</ele>
        <time>2016-11-28T10:16:14Z</time>
      </trkpt>
      <trkpt lat="45.95875" lon="4.9059">
        <ele>293</ele>
        <time>2016-11-28T10:16:15Z</time>
      </trkpt>
      <trkpt lat="45.95875" lon="4.90597">
        <ele>293</ele>
        <time>2016-11-28T10:16:16Z</time>
      </trkpt>
      <trkpt lat="45.95875" lon="4.90604">
        <ele>293</ele>
        <time>2016-11-28T10:16:17Z</time>
      </trkpt>
      <trkpt lat="45.95874" lon="4.90611">
        <ele>293</ele>
        <time>2016-11-28T10:16:18Z</time>
      </trkpt>
      <trkpt lat="45.95874" lon="4.90619">
        <ele>293</ele>
        <time>2016-11-28T10:16:19Z</time>
      </trkpt>
      <trkpt lat="45.95874" lon="4.90626">
        <ele>293</ele>
        <time>2016-11-28T10:16:20Z</time>
      </trkpt>
      <trkpt lat="45.95874" lon="4.90633">
        <ele>293</ele>
        <time>2016-11-28T10:16:21Z</time>
      </trkpt>
      <trkpt lat="45.95873" lon="4.90641">
        <ele>293</ele>
        <time>2016-11-28T10:16:22Z</time>
      </trkpt>
      <trkpt lat="45.95873" lon="4.90648">
        <ele>293</ele>
        <time>2016-11-28T10:16:23Z</time>
      </trkpt>
      <trkpt lat="45.95873" lon="4.90656">
        <ele>293</ele>
        <time>2016-11-28T10:16:24Z</time>
      </trkpt>
      <trkpt lat="45.95872" lon="4.90663">
        <ele>293</ele>
        <time>2016-11-28T10:16:25Z</time>
      </trkpt>
      <trkpt lat="45.95872" lon="4.90671">
        <ele>292</ele>
        <time>2016-11-28T10:16:26Z</time>
      </trkpt>
      <trkpt lat="45.95872" lon="4.90679">
        <ele>292</ele>
        <time>2016-11-28T10:16:27Z</time>
      </trkpt>
      <trkpt lat="45.95872" lon="4.90686">
        <ele>292</ele>
        <time>2016-11-28T10:16:28Z</time>
      </trkpt>
      <trkpt lat="45.95872" lon="4.90694">
        <ele>292</ele>
        <time>2016-11-28T10:16:29Z</time>
      </trkpt>
      <trkpt lat="45.95872" lon="4.90701">
        <ele>292</ele>
        <time>2016-11-28T10:16:30Z</time>
      </trkpt>
      <trkpt lat="45.95871" lon="4.90709">
        <ele>292</ele>
        <time>2016-11-28T10:16:31Z</time>
      </trkpt>
      <trkpt lat="45.95871" lon="4.90716">
        <ele>292</ele>
        <time>2016-11-28T10:16:32Z</time>
      </trkpt>
      <trkpt lat="45.9587" lon="4.90724">
        <ele>292</ele>
        <time>2016-11-28T10:16:33Z</time>
      </trkpt>
      <trkpt lat="45.9587" lon="4.90732">
        <ele>292</ele>
        <time>2016-11-28T10:16:34Z</time>
      </trkpt>
      <trkpt lat="45.9587" lon="4.9074">
        <ele>292</ele>
        <time>2016-11-28T10:16:35Z</time>
      </trkpt>
      <trkpt lat="45.95869" lon="4.90748">
        <ele>292</ele>
        <time>2016-11-28T10:16:36Z</time>
      </trkpt>
      <trkpt lat="45.95869" lon="4.90755">
        <ele>291</ele>
        <time>2016-11-28T10:16:37Z</time>
      </trkpt>
      <trkpt lat="45.95869" lon="4.90763">
        <ele>291</ele>
        <time>2016-11-28T10:16:38Z</time>
      </trkpt>
      <trkpt lat="45.95868" lon="4.90771">
        <ele>291</ele>
        <time>2016-11-28T10:16:39Z</time>
      </trkpt>
      <trkpt lat="45.95868" lon="4.90778">
        <ele>291</ele>
        <time>2016-11-28T10:16:40Z</time>
      </trkpt>
      <trkpt lat="45.95868" lon="4.90786">
        <ele>291</ele>
        <time>2016-11-28T10:16:41Z</time>
      </trkpt>
      <trkpt lat="45.95868" lon="4.90793">
        <ele>291</ele>
        <time>2016-11-28T10:16:42Z</time>
      </trkpt>
      <trkpt lat="45.95867" lon="4.90801">
        <ele>291</ele>
        <time>2016-11-28T10:16:43Z</time>
      </trkpt>
      <trkpt lat="45.95867" lon="4.90808">
        <ele>291</ele>
        <time>2016-11-28T10:16:44Z</time>
      </trkpt>
      <trkpt lat="45.95867" lon="4.90816">
        <ele>292</ele>
        <time>2016-11-28T10:16:45Z</time>
      </trkpt>
      <trkpt lat="45.95867" lon="4.90823">
        <ele>292</ele>
        <time>2016-11-28T10:16:46Z</time>
      </trkpt>
      <trkpt lat="45.95867" lon="4.90831">
        <ele>292</ele>
        <time>2016-11-28T10:16:47Z</time>
      </trkpt>
      <trkpt lat="45.95867" lon="4.90839">
        <ele>292</ele>
        <time>2016-11-28T10:16:48Z</time>
      </trkpt>
      <trkpt lat="45.95866" lon="4.90846">
        <ele>292</ele>
        <time>2016-11-28T10:16:49Z</time>
      </trkpt>
      <trkpt lat="45.95866" lon="4.90854">
        <ele>292</ele>
        <time>2016-11-28T10:16:50Z</time>
      </trkpt>
      <trkpt lat="45.95866" lon="4.90861">
        <ele>292</ele>
        <time>2016-11-28T10:16:51Z</time>
      </trkpt>
      <trkpt lat="45.95865" lon="4.90869">
        <ele>292</ele>
        <time>2016-11-28T10:16:52Z</time>
      </trkpt>
      <trkpt lat="45.95865" lon="4.90876">
        <ele>292</ele>
        <time>2016-11-28T10:16:53Z</time>
      </trkpt>
      <trkpt lat="45.95865" lon="4.90883">
        <ele>292</ele>
        <time>2016-11-28T10:16:54Z</time>
      </trkpt>
      <trkpt lat="45.95865" lon="4.9089">
        <ele>292</ele>
        <time>2016-11-28T10:16:55Z</time>
      </trkpt>
      <trkpt lat="45.95865" lon="4.90897">
        <ele>292</ele>
        <time>2016-11-28T10:16:56Z</time>
      </trkpt>
      <trkpt lat="45.95865" lon="4.90904">
        <ele>292</ele>
        <time>2016-11-28T10:16:57Z</time>
      </trkpt>
      <trkpt lat="45.95865" lon="4.90912">
        <ele>292</ele>
        <time>2016-11-28T10:16:58Z</time>
      </trkpt>
      <trkpt lat="45.95865" lon="4.90919">
        <ele>293</ele>
        <time>2016-11-28T10:16:59Z</time>
      </trkpt>
      <trkpt lat="45.95864" lon="4.90926">
        <ele>293</ele>
        <time>2016-11-28T10:17:00Z</time>
      </trkpt>
      <trkpt lat="45.95864" lon="4.90933">
        <ele>293</ele>
        <time>2016-11-28T10:17:01Z</time>
      </trkpt>
      <trkpt lat="45.95864" lon="4.9094">
        <ele>293</ele>
        <time>2016-11-28T10:17:02Z</time>
      </trkpt>
      <trkpt lat="45.95863" lon="4.90947">
        <ele>294</ele>
        <time>2016-11-28T10:17:03Z</time>
      </trkpt>
      <trkpt lat="45.95863" lon="4.90954">
        <ele>294</ele>
        <time>2016-11-28T10:17:04Z</time>
      </trkpt>
      <trkpt lat="45.95863" lon="4.90962">
        <ele>294</ele>
        <time>2016-11-28T10:17:05Z</time>
      </trkpt>
      <trkpt lat="45.95862" lon="4.9097">
        <ele>294</ele>
        <time>2016-11-28T10:17:06Z</time>
      </trkpt>
      <trkpt lat="45.95862" lon="4.90977">
        <ele>294</ele>
        <time>2016-11-28T10:17:07Z</time>
      </trkpt>
      <trkpt lat="45.95862" lon="4.90985">
        <ele>294</ele>
        <time>2016-11-28T10:17:08Z</time>
      </trkpt>
      <trkpt lat="45.95862" lon="4.90993">
        <ele>294</ele>
        <time>2016-11-28T10:17:09Z</time>
      </trkpt>
      <trkpt lat="45.95862" lon="4.91001">
        <ele>296</ele>
        <time>2016-11-28T10:17:10Z</time>
      </trkpt>
      <trkpt lat="45.95862" lon="4.91008">
        <ele>296</ele>
        <time>2016-11-28T10:17:11Z</time>
      </trkpt>
      <trkpt lat="45.95861" lon="4.91016">
        <ele>296</ele>
        <time>2016-11-28T10:17:12Z</time>
      </trkpt>
      <trkpt lat="45.95861" lon="4.91023">
        <ele>296</ele>
        <time>2016-11-28T10:17:13Z</time>
      </trkpt>
      <trkpt lat="45.95861" lon="4.91031">
        <ele>296</ele>
        <time>2016-11-28T10:17:14Z</time>
      </trkpt>
      <trkpt lat="45.95861" lon="4.91038">
        <ele>297</ele>
        <time>2016-11-28T10:17:15Z</time>
      </trkpt>
      <trkpt lat="45.95861" lon="4.91045">
        <ele>297</ele>
        <time>2016-11-28T10:17:16Z</time>
      </trkpt>
      <trkpt lat="45.95861" lon="4.91052">
        <ele>297</ele>
        <time>2016-11-28T10:17:17Z</time>
      </trkpt>
      <trkpt lat="45.9586" lon="4.9106">
        <ele>297</ele>
        <time>2016-11-28T10:17:18Z</time>
      </trkpt>
      <trkpt lat="45.9586" lon="4.91067">
        <ele>297</ele>
        <time>2016-11-28T10:17:19Z</time>
      </trkpt>
      <trkpt lat="45.9586" lon="4.91074">
        <ele>297</ele>
        <time>2016-11-28T10:17:20Z</time>
      </trkpt>
      <trkpt lat="45.95859" lon="4.91081">
        <ele>297</ele>
        <time>2016-11-28T10:17:21Z</time>
      </trkpt>
      <trkpt lat="45.95859" lon="4.91088">
        <ele>297</ele>
        <time>2016-11-28T10:17:22Z</time>
      </trkpt>
      <trkpt lat="45.95859" lon="4.91095">
        <ele>297</ele>
        <time>2016-11-28T10:17:23Z</time>
      </trkpt>
      <trkpt lat="45.95858" lon="4.91102">
        <ele>297</ele>
        <time>2016-11-28T10:17:24Z</time>
      </trkpt>
      <trkpt lat="45.95857" lon="4.91109">
        <ele>297</ele>
        <time>2016-11-28T10:17:25Z</time>
      </trkpt>
      <trkpt lat="45.95856" lon="4.91116">
        <ele>297</ele>
        <time>2016-11-28T10:17:26Z</time>
      </trkpt>
      <trkpt lat="45.95856" lon="4.91123">
        <ele>297</ele>
        <time>2016-11-28T10:17:27Z</time>
      </trkpt>
      <trkpt lat="45.95855" lon="4.9113">
        <ele>297</ele>
        <time>2016-11-28T10:17:28Z</time>
      </trkpt>
      <trkpt lat="45.95855" lon="4.91137">
        <ele>297</ele>
        <time>2016-11-28T10:17:29Z</time>
      </trkpt>
      <trkpt lat="45.95855" lon="4.91144">
        <ele>297</ele>
        <time>2016-11-28T10:17:30Z</time>
      </trkpt>
      <trkpt lat="45.95854" lon="4.91151">
        <ele>297</ele>
        <time>2016-11-28T10:17:31Z</time>
      </trkpt>
      <trkpt lat="45.95854" lon="4.91158">
        <ele>297</ele>
        <time>2016-11-28T10:17:32Z</time>
      </trkpt>
      <trkpt lat="45.95854" lon="4.91165">
        <ele>297</ele>
        <time>2016-11-28T10:17:33Z</time>
      </trkpt>
      <trkpt lat="45.95853" lon="4.91172">
        <ele>296</ele>
        <time>2016-11-28T10:17:34Z</time>
      </trkpt>
      <trkpt lat="45.95853" lon="4.91179">
        <ele>296</ele>
        <time>2016-11-28T10:17:35Z</time>
      </trkpt>
      <trkpt lat="45.95852" lon="4.91187">
        <ele>296</ele>
        <time>2016-11-28T10:17:36Z</time>
      </trkpt>
      <trkpt lat="45.95852" lon="4.91194">
        <ele>296</ele>
        <time>2016-11-28T10:17:37Z</time>
      </trkpt>
      <trkpt lat="45.95852" lon="4.91202">
        <ele>297</ele>
        <time>2016-11-28T10:17:38Z</time>
      </trkpt>
      <trkpt lat="45.95852" lon="4.9121">
        <ele>297</ele>
        <time>2016-11-28T10:17:39Z</time>
      </trkpt>
      <trkpt lat="45.95852" lon="4.91218">
        <ele>297</ele>
        <time>2016-11-28T10:17:40Z</time>
      </trkpt>
      <trkpt lat="45.95851" lon="4.91226">
        <ele>297</ele>
        <time>2016-11-28T10:17:41Z</time>
      </trkpt>
      <trkpt lat="45.95851" lon="4.91234">
        <ele>297</ele>
        <time>2016-11-28T10:17:42Z</time>
      </trkpt>
      <trkpt lat="45.9585" lon="4.91241">
        <ele>297</ele>
        <time>2016-11-28T10:17:43Z</time>
      </trkpt>
      <trkpt lat="45.9585" lon="4.91248">
        <ele>296</ele>
        <time>2016-11-28T10:17:44Z</time>
      </trkpt>
      <trkpt lat="45.95849" lon="4.91255">
        <ele>297</ele>
        <time>2016-11-28T10:17:45Z</time>
      </trkpt>
      <trkpt lat="45.95848" lon="4.91262">
        <ele>297</ele>
        <time>2016-11-28T10:17:46Z</time>
      </trkpt>
      <trkpt lat="45.95848" lon="4.91269">
        <ele>297</ele>
        <time>2016-11-28T10:17:47Z</time>
      </trkpt>
      <trkpt lat="45.95847" lon="4.91276">
        <ele>297</ele>
        <time>2016-11-28T10:17:48Z</time>
      </trkpt>
      <trkpt lat="45.95847" lon="4.91283">
        <ele>297</ele>
        <time>2016-11-28T10:17:49Z</time>
      </trkpt>
      <trkpt lat="45.95847" lon="4.9129">
        <ele>298</ele>
        <time>2016-11-28T10:17:50Z</time>
      </trkpt>
      <trkpt lat="45.95847" lon="4.91297">
        <ele>298</ele>
        <time>2016-11-28T10:17:51Z</time>
      </trkpt>
      <trkpt lat="45.95846" lon="4.91304">
        <ele>298</ele>
        <time>2016-11-28T10:17:52Z</time>
      </trkpt>
      <trkpt lat="45.95846" lon="4.9131">
        <ele>298</ele>
        <time>2016-11-28T10:17:53Z</time>
      </trkpt>
      <trkpt lat="45.95845" lon="4.91317">
        <ele>298</ele>
        <time>2016-11-28T10:17:54Z</time>
      </trkpt>
      <trkpt lat="45.95844" lon="4.91324">
        <ele>297</ele>
        <time>2016-11-28T10:17:55Z</time>
      </trkpt>
      <trkpt lat="45.95844" lon="4.9133">
        <ele>297</ele>
        <time>2016-11-28T10:17:56Z</time>
      </trkpt>
      <trkpt lat="45.95843" lon="4.91337">
        <ele>298</ele>
        <time>2016-11-28T10:17:57Z</time>
      </trkpt>
      <trkpt lat="45.95843" lon="4.91343">
        <ele>298</ele>
        <time>2016-11-28T10:17:58Z</time>
      </trkpt>
      <trkpt lat="45.95843" lon="4.9135">
        <ele>298</ele>
        <time>2016-11-28T10:17:59Z</time>
      </trkpt>
      <trkpt lat="45.95842" lon="4.91357">
        <ele>298</ele>
        <time>2016-11-28T10:18:00Z</time>
      </trkpt>
      <trkpt lat="45.95842" lon="4.91364">
        <ele>298</ele>
        <time>2016-11-28T10:18:01Z</time>
      </trkpt>
      <trkpt lat="45.95841" lon="4.9137">
        <ele>298</ele>
        <time>2016-11-28T10:18:02Z</time>
      </trkpt>
      <trkpt lat="45.95841" lon="4.91377">
        <ele>298</ele>
        <time>2016-11-28T10:18:03Z</time>
      </trkpt>
      <trkpt lat="45.95841" lon="4.91384">
        <ele>298</ele>
        <time>2016-11-28T10:18:04Z</time>
      </trkpt>
      <trkpt lat="45.95841" lon="4.91391">
        <ele>298</ele>
        <time>2016-11-28T10:18:05Z</time>
      </trkpt>
      <trkpt lat="45.95841" lon="4.91398">
        <ele>297</ele>
        <time>2016-11-28T10:18:06Z</time>
      </trkpt>
      <trkpt lat="45.95841" lon="4.91406">
        <ele>297</ele>
        <time>2016-11-28T10:18:07Z</time>
      </trkpt>
      <trkpt lat="45.95841" lon="4.91414">
        <ele>297</ele>
        <time>2016-11-28T10:18:08Z</time>
      </trkpt>
      <trkpt lat="45.95841" lon="4.91421">
        <ele>297</ele>
        <time>2016-11-28T10:18:09Z</time>
      </trkpt>
      <trkpt lat="45.9584" lon="4.91428">
        <ele>297</ele>
        <time>2016-11-28T10:18:10Z</time>
      </trkpt>
      <trkpt lat="45.95839" lon="4.91436">
        <ele>298</ele>
        <time>2016-11-28T10:18:11Z</time>
      </trkpt>
      <trkpt lat="45.95839" lon="4.91443">
        <ele>298</ele>
        <time>2016-11-28T10:18:12Z</time>
      </trkpt>
      <trkpt lat="45.95839" lon="4.9145">
        <ele>298</ele>
        <time>2016-11-28T10:18:13Z</time>
      </trkpt>
      <trkpt lat="45.95838" lon="4.91458">
        <ele>298</ele>
        <time>2016-11-28T10:18:14Z</time>
      </trkpt>
      <trkpt lat="45.95837" lon="4.91465">
        <ele>299</ele>
        <time>2016-11-28T10:18:15Z</time>
      </trkpt>
      <trkpt lat="45.95837" lon="4.91472">
        <ele>299</ele>
        <time>2016-11-28T10:18:16Z</time>
      </trkpt>
      <trkpt lat="45.95837" lon="4.91479">
        <ele>299</ele>
        <time>2016-11-28T10:18:17Z</time>
      </trkpt>
      <trkpt lat="45.95837" lon="4.91486">
        <ele>298</ele>
        <time>2016-11-28T10:18:18Z</time>
      </trkpt>
      <trkpt lat="45.95837" lon="4.91493">
        <ele>298</ele>
        <time>2016-11-28T10:18:19Z</time>
      </trkpt>
      <trkpt lat="45.95837" lon="4.915">
        <ele>298</ele>
        <time>2016-11-28T10:18:20Z</time>
      </trkpt>
      <trkpt lat="45.95837" lon="4.91507">
        <ele>299</ele>
        <time>2016-11-28T10:18:21Z</time>
      </trkpt>
      <trkpt lat="45.95837" lon="4.91514">
        <ele>299</ele>
        <time>2016-11-28T10:18:22Z</time>
      </trkpt>
      <trkpt lat="45.95836" lon="4.91521">
        <ele>299</ele>
        <time>2016-11-28T10:18:23Z</time>
      </trkpt>
      <trkpt lat="45.95836" lon="4.91527">
        <ele>299</ele>
        <time>2016-11-28T10:18:24Z</time>
      </trkpt>
      <trkpt lat="45.95836" lon="4.91534">
        <ele>300</ele>
        <time>2016-11-28T10:18:25Z</time>
      </trkpt>
      <trkpt lat="45.95837" lon="4.91542">
        <ele>300</ele>
        <time>2016-11-28T10:18:26Z</time>
      </trkpt>
      <trkpt lat="45.95837" lon="4.91549">
        <ele>300</ele>
        <time>2016-11-28T10:18:27Z</time>
      </trkpt>
      <trkpt lat="45.95836" lon="4.91557">
        <ele>300</ele>
        <time>2016-11-28T10:18:28Z</time>
      </trkpt>
      <trkpt lat="45.95836" lon="4.91564">
        <ele>300</ele>
        <time>2016-11-28T10:18:29Z</time>
      </trkpt>
      <trkpt lat="45.95835" lon="4.91572">
        <ele>300</ele>
        <time>2016-11-28T10:18:30Z</time>
      </trkpt>
      <trkpt lat="45.95835" lon="4.91579">
        <ele>300</ele>
        <time>2016-11-28T10:18:31Z</time>
      </trkpt>
      <trkpt lat="45.95835" lon="4.91586">
        <ele>300</ele>
        <time>2016-11-28T10:18:32Z</time>
      </trkpt>
      <trkpt lat="45.95835" lon="4.91593">
        <ele>300</ele>
        <time>2016-11-28T10:18:33Z</time>
      </trkpt>
      <trkpt lat="45.95835" lon="4.916">
        <ele>300</ele>
        <time>2016-11-28T10:18:34Z</time>
      </trkpt>
      <trkpt lat="45.95835" lon="4.91607">
        <ele>301</ele>
        <time>2016-11-28T10:18:35Z</time>
      </trkpt>
      <trkpt lat="45.95835" lon="4.91613">
        <ele>301</ele>
        <time>2016-11-28T10:18:36Z</time>
      </trkpt>
      <trkpt lat="45.95835" lon="4.9162">
        <ele>301</ele>
        <time>2016-11-28T10:18:37Z</time>
      </trkpt>
      <trkpt lat="45.95834" lon="4.91627">
        <ele>301</ele>
        <time>2016-11-28T10:18:38Z</time>
      </trkpt>
      <trkpt lat="45.95834" lon="4.91634">
        <ele>301</ele>
        <time>2016-11-28T10:18:39Z</time>
      </trkpt>
      <trkpt lat="45.95834" lon="4.91641">
        <ele>301</ele>
        <time>2016-11-28T10:18:40Z</time>
      </trkpt>
      <trkpt lat="45.95835" lon="4.91649">
        <ele>301</ele>
        <time>2016-11-28T10:18:41Z</time>
      </trkpt>
      <trkpt lat="45.95835" lon="4.91656">
        <ele>301</ele>
        <time>2016-11-28T10:18:42Z</time>
      </trkpt>
      <trkpt lat="45.95834" lon="4.91663">
        <ele>301</ele>
        <time>2016-11-28T10:18:43Z</time>
      </trkpt>
      <trkpt lat="45.95834" lon="4.9167">
        <ele>301</ele>
        <time>2016-11-28T10:18:44Z</time>
      </trkpt>
      <trkpt lat="45.95835" lon="4.91678">
        <ele>302</ele>
        <time>2016-11-28T10:18:45Z</time>
      </trkpt>
      <trkpt lat="45.95835" lon="4.91686">
        <ele>302</ele>
        <time>2016-11-28T10:18:46Z</time>
      </trkpt>
      <trkpt lat="45.95835" lon="4.91693">
        <ele>302</ele>
        <time>2016-11-28T10:18:47Z</time>
      </trkpt>
      <trkpt lat="45.95835" lon="4.917">
        <ele>302</ele>
        <time>2016-11-28T10:18:48Z</time>
      </trkpt>
      <trkpt lat="45.95834" lon="4.91707">
        <ele>302</ele>
        <time>2016-11-28T10:18:49Z</time>
      </trkpt>
      <trkpt lat="45.95832" lon="4.91713">
        <ele>301</ele>
        <time>2016-11-28T10:18:50Z</time>
      </trkpt>
      <trkpt lat="45.95829" lon="4.91719">
        <ele>301</ele>
        <time>2016-11-28T10:18:51Z</time>
      </trkpt>
      <trkpt lat="45.95827" lon="4.91725">
        <ele>301</ele>
        <time>2016-11-28T10:18:52Z</time>
      </trkpt>
      <trkpt lat="45.95824" lon="4.9173">
        <ele>301</ele>
        <time>2016-11-28T10:18:53Z</time>
      </trkpt>
      <trkpt lat="45.95822" lon="4.91735">
        <ele>301</ele>
        <time>2016-11-28T10:18:54Z</time>
      </trkpt>
      <trkpt lat="45.95819" lon="4.9174">
        <ele>301</ele>
        <time>2016-11-28T10:18:55Z</time>
      </trkpt>
      <trkpt lat="45.95816" lon="4.91746">
        <ele>301</ele>
        <time>2016-11-28T10:18:56Z</time>
      </trkpt>
      <trkpt lat="45.95813" lon="4.91751">
        <ele>301</ele>
        <time>2016-11-28T10:18:57Z</time>
      </trkpt>
      <trkpt lat="45.9581" lon="4.91757">
        <ele>301</ele>
        <time>2016-11-28T10:18:58Z</time>
      </trkpt>
      <trkpt lat="45.95807" lon="4.91762">
        <ele>301</ele>
        <time>2016-11-28T10:18:59Z</time>
      </trkpt>
      <trkpt lat="45.95804" lon="4.91767">
        <ele>301</ele>
        <time>2016-11-28T10:19:00Z</time>
      </trkpt>
      <trkpt lat="45.95801" lon="4.91773">
        <ele>301</ele>
        <time>2016-11-28T10:19:01Z</time>
      </trkpt>
      <trkpt lat="45.95797" lon="4.91779">
        <ele>300</ele>
        <time>2016-11-28T10:19:02Z</time>
      </trkpt>
      <trkpt lat="45.95793" lon="4.91785">
        <ele>300</ele>
        <time>2016-11-28T10:19:03Z</time>
      </trkpt>
      <trkpt lat="45.9579" lon="4.91792">
        <ele>300</ele>
        <time>2016-11-28T10:19:04Z</time>
      </trkpt>
      <trkpt lat="45.95787" lon="4.91799">
        <ele>300</ele>
        <time>2016-11-28T10:19:05Z</time>
      </trkpt>
      <trkpt lat="45.95783" lon="4.91807">
        <ele>300</ele>
        <time>2016-11-28T10:19:06Z</time>
      </trkpt>
      <trkpt lat="45.95779" lon="4.91814">
        <ele>300</ele>
        <time>2016-11-28T10:19:07Z</time>
      </trkpt>
      <trkpt lat="45.95774" lon="4.9182">
        <ele>300</ele>
        <time>2016-11-28T10:19:08Z</time>
      </trkpt>
      <trkpt lat="45.9577" lon="4.91828">
        <ele>299</ele>
        <time>2016-11-28T10:19:09Z</time>
      </trkpt>
      <trkpt lat="45.95766" lon="4.91835">
        <ele>299</ele>
        <time>2016-11-28T10:19:10Z</time>
      </trkpt>
      <trkpt lat="45.95762" lon="4.91842">
        <ele>299</ele>
        <time>2016-11-28T10:19:11Z</time>
      </trkpt>
      <trkpt lat="45.95758" lon="4.91851">
        <ele>300</ele>
        <time>2016-11-28T10:19:12Z</time>
      </trkpt>
      <trkpt lat="45.95754" lon="4.91858">
        <ele>300</ele>
        <time>2016-11-28T10:19:13Z</time>
      </trkpt>
      <trkpt lat="45.9575" lon="4.91865">
        <ele>300</ele>
        <time>2016-11-28T10:19:14Z</time>
      </trkpt>
      <trkpt lat="45.95746" lon="4.91871">
        <ele>298</ele>
        <time>2016-11-28T10:19:15Z</time>
      </trkpt>
      <trkpt lat="45.95743" lon="4.91877">
        <ele>298</ele>
        <time>2016-11-28T10:19:16Z</time>
      </trkpt>
      <trkpt lat="45.95739" lon="4.91883">
        <ele>298</ele>
        <time>2016-11-28T10:19:17Z</time>
      </trkpt>
      <trkpt lat="45.95736" lon="4.91888">
        <ele>298</ele>
        <time>2016-11-28T10:19:18Z</time>
      </trkpt>
      <trkpt lat="45.95733" lon="4.91894">
        <ele>298</ele>
        <time>2016-11-28T10:19:19Z</time>
      </trkpt>
      <trkpt lat="45.9573" lon="4.91899">
        <ele>298</ele>
        <time>2016-11-28T10:19:20Z</time>
      </trkpt>
      <trkpt lat="45.95726" lon="4.91904">
        <ele>298</ele>
        <time>2016-11-28T10:19:21Z</time>
      </trkpt>
      <trkpt lat="45.95724" lon="4.9191">
        <ele>298</ele>
        <time>2016-11-28T10:19:22Z</time>
      </trkpt>
      <trkpt lat="45.95721" lon="4.91916">
        <ele>298</ele>
        <time>2016-11-28T10:19:23Z</time>
      </trkpt>
      <trkpt lat="45.95719" lon="4.91921">
        <ele>299</ele>
        <time>2016-11-28T10:19:24Z</time>
      </trkpt>
      <trkpt lat="45.95715" lon="4.91927">
        <ele>299</ele>
        <time>2016-11-28T10:19:25Z</time>
      </trkpt>
      <trkpt lat="45.95712" lon="4.91932">
        <ele>299</ele>
        <time>2016-11-28T10:19:26Z</time>
      </trkpt>
      <trkpt lat="45.95706" lon="4.91941">
        <ele>299</ele>
        <time>2016-11-28T10:19:28Z</time>
      </trkpt>
      <trkpt lat="45.95705" lon="4.91945">
        <ele>299</ele>
        <time>2016-11-28T10:19:29Z</time>
      </trkpt>
      <trkpt lat="45.957" lon="4.91956">
        <ele>299</ele>
        <time>2016-11-28T10:19:33Z</time>
      </trkpt>
      <trkpt lat="45.957" lon="4.91957">
        <ele>299</ele>
        <time>2016-11-28T10:19:34Z</time>
      </trkpt>
      <trkpt lat="45.95696" lon="4.91967">
        <ele>299</ele>
        <time>2016-11-28T10:19:39Z</time>
      </trkpt>
      <trkpt lat="45.95695" lon="4.91969">
        <ele>299</ele>
        <time>2016-11-28T10:19:40Z</time>
      </trkpt>
      <trkpt lat="45.95689" lon="4.91976">
        <ele>299</ele>
        <time>2016-11-28T10:19:43Z</time>
      </trkpt>
      <trkpt lat="45.95685" lon="4.91979">
        <ele>299</ele>
        <time>2016-11-28T10:19:44Z</time>
      </trkpt>
      <trkpt lat="45.95679" lon="4.91987">
        <ele>299</ele>
        <time>2016-11-28T10:19:46Z</time>
      </trkpt>
      <trkpt lat="45.95676" lon="4.91992">
        <ele>299</ele>
        <time>2016-11-28T10:19:47Z</time>
      </trkpt>
      <trkpt lat="45.95673" lon="4.91998">
        <ele>298</ele>
        <time>2016-11-28T10:19:48Z</time>
      </trkpt>
      <trkpt lat="45.9567" lon="4.92005">
        <ele>299</ele>
        <time>2016-11-28T10:19:49Z</time>
      </trkpt>
      <trkpt lat="45.95668" lon="4.92012">
        <ele>299</ele>
        <time>2016-11-28T10:19:50Z</time>
      </trkpt>
      <trkpt lat="45.95665" lon="4.92019">
        <ele>297</ele>
        <time>2016-11-28T10:19:51Z</time>
      </trkpt>
      <trkpt lat="45.95663" lon="4.92028">
        <ele>297</ele>
        <time>2016-11-28T10:19:52Z</time>
      </trkpt>
      <trkpt lat="45.95662" lon="4.92036">
        <ele>297</ele>
        <time>2016-11-28T10:19:53Z</time>
      </trkpt>
      <trkpt lat="45.95661" lon="4.92044">
        <ele>297</ele>
        <time>2016-11-28T10:19:54Z</time>
      </trkpt>
      <trkpt lat="45.9566" lon="4.92052">
        <ele>297</ele>
        <time>2016-11-28T10:19:55Z</time>
      </trkpt>
      <trkpt lat="45.95659" lon="4.9206">
        <ele>297</ele>
        <time>2016-11-28T10:19:56Z</time>
      </trkpt>
      <trkpt lat="45.95658" lon="4.92068">
        <ele>297</ele>
        <time>2016-11-28T10:19:57Z</time>
      </trkpt>
      <trkpt lat="45.95657" lon="4.92076">
        <ele>298</ele>
        <time>2016-11-28T10:19:58Z</time>
      </trkpt>
      <trkpt lat="45.95656" lon="4.92083">
        <ele>298</ele>
        <time>2016-11-28T10:19:59Z</time>
      </trkpt>
      <trkpt lat="45.95656" lon="4.9209">
        <ele>297</ele>
        <time>2016-11-28T10:20:00Z</time>
      </trkpt>
      <trkpt lat="45.95655" lon="4.92097">
        <ele>297</ele>
        <time>2016-11-28T10:20:01Z</time>
      </trkpt>
      <trkpt lat="45.95655" lon="4.92104">
        <ele>296</ele>
        <time>2016-11-28T10:20:02Z</time>
      </trkpt>
      <trkpt lat="45.95655" lon="4.92112">
        <ele>296</ele>
        <time>2016-11-28T10:20:03Z</time>
      </trkpt>
      <trkpt lat="45.95655" lon="4.92119">
        <ele>296</ele>
        <time>2016-11-28T10:20:04Z</time>
      </trkpt>
      <trkpt lat="45.95654" lon="4.92127">
        <ele>296</ele>
        <time>2016-11-28T10:20:05Z</time>
      </trkpt>
      <trkpt lat="45.95654" lon="4.92135">
        <ele>296</ele>
        <time>2016-11-28T10:20:06Z</time>
      </trkpt>
      <trkpt lat="45.95653" lon="4.92143">
        <ele>296</ele>
        <time>2016-11-28T10:20:07Z</time>
      </trkpt>
      <trkpt lat="45.95653" lon="4.92151">
        <ele>296</ele>
        <time>2016-11-28T10:20:08Z</time>
      </trkpt>
      <trkpt lat="45.95652" lon="4.92159">
        <ele>296</ele>
        <time>2016-11-28T10:20:09Z</time>
      </trkpt>
      <trkpt lat="45.95652" lon="4.92168">
        <ele>295</ele>
        <time>2016-11-28T10:20:10Z</time>
      </trkpt>
      <trkpt lat="45.95653" lon="4.92177">
        <ele>295</ele>
        <time>2016-11-28T10:20:11Z</time>
      </trkpt>
      <trkpt lat="45.95653" lon="4.92186">
        <ele>295</ele>
        <time>2016-11-28T10:20:12Z</time>
      </trkpt>
      <trkpt lat="45.95653" lon="4.92194">
        <ele>295</ele>
        <time>2016-11-28T10:20:13Z</time>
      </trkpt>
      <trkpt lat="45.95654" lon="4.92203">
        <ele>294</ele>
        <time>2016-11-28T10:20:14Z</time>
      </trkpt>
      <trkpt lat="45.95653" lon="4.9221">
        <ele>294</ele>
        <time>2016-11-28T10:20:15Z</time>
      </trkpt>
      <trkpt lat="45.95653" lon="4.92218">
        <ele>294</ele>
        <time>2016-11-28T10:20:16Z</time>
      </trkpt>
      <trkpt lat="45.95653" lon="4.92225">
        <ele>294</ele>
        <time>2016-11-28T10:20:17Z</time>
      </trkpt>
      <trkpt lat="45.95653" lon="4.92232">
        <ele>294</ele>
        <time>2016-11-28T10:20:18Z</time>
      </trkpt>
      <trkpt lat="45.95653" lon="4.92239">
        <ele>294</ele>
        <time>2016-11-28T10:20:19Z</time>
      </trkpt>
      <trkpt lat="45.95653" lon="4.92246">
        <ele>294</ele>
        <time>2016-11-28T10:20:20Z</time>
      </trkpt>
      <trkpt lat="45.95654" lon="4.92255">
        <ele>294</ele>
        <time>2016-11-28T10:20:21Z</time>
      </trkpt>
      <trkpt lat="45.95654" lon="4.92264">
        <ele>294</ele>
        <time>2016-11-28T10:20:22Z</time>
      </trkpt>
      <trkpt lat="45.95654" lon="4.92272">
        <ele>293</ele>
        <time>2016-11-28T10:20:23Z</time>
      </trkpt>
      <trkpt lat="45.95654" lon="4.9228">
        <ele>293</ele>
        <time>2016-11-28T10:20:24Z</time>
      </trkpt>
      <trkpt lat="45.95654" lon="4.92288">
        <ele>293</ele>
        <time>2016-11-28T10:20:25Z</time>
      </trkpt>
      <trkpt lat="45.95654" lon="4.92296">
        <ele>293</ele>
        <time>2016-11-28T10:20:26Z</time>
      </trkpt>
      <trkpt lat="45.95654" lon="4.92304">
        <ele>293</ele>
        <time>2016-11-28T10:20:27Z</time>
      </trkpt>
      <trkpt lat="45.95653" lon="4.92312">
        <ele>293</ele>
        <time>2016-11-28T10:20:28Z</time>
      </trkpt>
      <trkpt lat="45.95653" lon="4.9232">
        <ele>293</ele>
        <time>2016-11-28T10:20:29Z</time>
      </trkpt>
      <trkpt lat="45.95652" lon="4.92328">
        <ele>293</ele>
        <time>2016-11-28T10:20:30Z</time>
      </trkpt>
      <trkpt lat="45.95652" lon="4.92336">
        <ele>293</ele>
        <time>2016-11-28T10:20:31Z</time>
      </trkpt>
      <trkpt lat="45.95651" lon="4.92344">
        <ele>293</ele>
        <time>2016-11-28T10:20:32Z</time>
      </trkpt>
      <trkpt lat="45.9565" lon="4.92353">
        <ele>293</ele>
        <time>2016-11-28T10:20:33Z</time>
      </trkpt>
      <trkpt lat="45.95649" lon="4.92361">
        <ele>293</ele>
        <time>2016-11-28T10:20:34Z</time>
      </trkpt>
      <trkpt lat="45.95648" lon="4.9237">
        <ele>293</ele>
        <time>2016-11-28T10:20:35Z</time>
      </trkpt>
      <trkpt lat="45.95648" lon="4.92378">
        <ele>293</ele>
        <time>2016-11-28T10:20:36Z</time>
      </trkpt>
      <trkpt lat="45.95647" lon="4.92386">
        <ele>293</ele>
        <time>2016-11-28T10:20:37Z</time>
      </trkpt>
      <trkpt lat="45.95646" lon="4.92394">
        <ele>293</ele>
        <time>2016-11-28T10:20:38Z</time>
      </trkpt>
      <trkpt lat="45.95644" lon="4.92402">
        <ele>293</ele>
        <time>2016-11-28T10:20:39Z</time>
      </trkpt>
      <trkpt lat="45.95643" lon="4.9241">
        <ele>293</ele>
        <time>2016-11-28T10:20:40Z</time>
      </trkpt>
      <trkpt lat="45.95642" lon="4.92417">
        <ele>293</ele>
        <time>2016-11-28T10:20:41Z</time>
      </trkpt>
      <trkpt lat="45.95641" lon="4.92424">
        <ele>293</ele>
        <time>2016-11-28T10:20:42Z</time>
      </trkpt>
      <trkpt lat="45.95639" lon="4.92432">
        <ele>293</ele>
        <time>2016-11-28T10:20:43Z</time>
      </trkpt>
      <trkpt lat="45.95639" lon="4.92439">
        <ele>293</ele>
        <time>2016-11-28T10:20:44Z</time>
      </trkpt>
      <trkpt lat="45.95638" lon="4.92445">
        <ele>293</ele>
        <time>2016-11-28T10:20:45Z</time>
      </trkpt>
      <trkpt lat="45.95637" lon="4.92452">
        <ele>293</ele>
        <time>2016-11-28T10:20:46Z</time>
      </trkpt>
      <trkpt lat="45.95637" lon="4.92459">
        <ele>293</ele>
        <time>2016-11-28T10:20:47Z</time>
      </trkpt>
      <trkpt lat="45.95636" lon="4.92466">
        <ele>293</ele>
        <time>2016-11-28T10:20:48Z</time>
      </trkpt>
      <trkpt lat="45.95634" lon="4.92473">
        <ele>293</ele>
        <time>2016-11-28T10:20:49Z</time>
      </trkpt>
      <trkpt lat="45.95633" lon="4.9248">
        <ele>293</ele>
        <time>2016-11-28T10:20:50Z</time>
      </trkpt>
      <trkpt lat="45.95632" lon="4.92487">
        <ele>293</ele>
        <time>2016-11-28T10:20:51Z</time>
      </trkpt>
      <trkpt lat="45.95631" lon="4.92494">
        <ele>293</ele>
        <time>2016-11-28T10:20:52Z</time>
      </trkpt>
      <trkpt lat="45.95629" lon="4.92502">
        <ele>294</ele>
        <time>2016-11-28T10:20:53Z</time>
      </trkpt>
      <trkpt lat="45.95628" lon="4.92509">
        <ele>294</ele>
        <time>2016-11-28T10:20:54Z</time>
      </trkpt>
      <trkpt lat="45.95627" lon="4.92517">
        <ele>294</ele>
        <time>2016-11-28T10:20:55Z</time>
      </trkpt>
      <trkpt lat="45.95627" lon="4.92525">
        <ele>294</ele>
        <time>2016-11-28T10:20:56Z</time>
      </trkpt>
      <trkpt lat="45.95626" lon="4.92533">
        <ele>294</ele>
        <time>2016-11-28T10:20:57Z</time>
      </trkpt>
      <trkpt lat="45.95626" lon="4.92541">
        <ele>294</ele>
        <time>2016-11-28T10:20:58Z</time>
      </trkpt>
      <trkpt lat="45.95625" lon="4.92549">
        <ele>294</ele>
        <time>2016-11-28T10:20:59Z</time>
      </trkpt>
      <trkpt lat="45.95624" lon="4.92557">
        <ele>294</ele>
        <time>2016-11-28T10:21:00Z</time>
      </trkpt>
      <trkpt lat="45.95623" lon="4.92565">
        <ele>294</ele>
        <time>2016-11-28T10:21:01Z</time>
      </trkpt>
      <trkpt lat="45.95621" lon="4.92573">
        <ele>294</ele>
        <time>2016-11-28T10:21:02Z</time>
      </trkpt>
      <trkpt lat="45.9562" lon="4.92581">
        <ele>294</ele>
        <time>2016-11-28T10:21:03Z</time>
      </trkpt>
      <trkpt lat="45.95618" lon="4.92589">
        <ele>294</ele>
        <time>2016-11-28T10:21:04Z</time>
      </trkpt>
      <trkpt lat="45.95617" lon="4.92596">
        <ele>294</ele>
        <time>2016-11-28T10:21:05Z</time>
      </trkpt>
      <trkpt lat="45.95616" lon="4.92603">
        <ele>294</ele>
        <time>2016-11-28T10:21:06Z</time>
      </trkpt>
      <trkpt lat="45.95615" lon="4.9261">
        <ele>294</ele>
        <time>2016-11-28T10:21:07Z</time>
      </trkpt>
      <trkpt lat="45.95614" lon="4.92617">
        <ele>294</ele>
        <time>2016-11-28T10:21:08Z</time>
      </trkpt>
      <trkpt lat="45.95612" lon="4.92624">
        <ele>294</ele>
        <time>2016-11-28T10:21:09Z</time>
      </trkpt>
      <trkpt lat="45.95611" lon="4.92631">
        <ele>294</ele>
        <time>2016-11-28T10:21:10Z</time>
      </trkpt>
      <trkpt lat="45.95609" lon="4.92638">
        <ele>294</ele>
        <time>2016-11-28T10:21:11Z</time>
      </trkpt>
      <trkpt lat="45.95608" lon="4.92646">
        <ele>294</ele>
        <time>2016-11-28T10:21:12Z</time>
      </trkpt>
      <trkpt lat="45.95606" lon="4.92654">
        <ele>294</ele>
        <time>2016-11-28T10:21:13Z</time>
      </trkpt>
      <trkpt lat="45.95605" lon="4.92662">
        <ele>294</ele>
        <time>2016-11-28T10:21:14Z</time>
      </trkpt>
      <trkpt lat="45.95603" lon="4.9267">
        <ele>294</ele>
        <time>2016-11-28T10:21:15Z</time>
      </trkpt>
      <trkpt lat="45.95601" lon="4.92678">
        <ele>294</ele>
        <time>2016-11-28T10:21:16Z</time>
      </trkpt>
      <trkpt lat="45.95599" lon="4.92686">
        <ele>295</ele>
        <time>2016-11-28T10:21:17Z</time>
      </trkpt>
      <trkpt lat="45.95598" lon="4.92694">
        <ele>295</ele>
        <time>2016-11-28T10:21:18Z</time>
      </trkpt>
      <trkpt lat="45.95596" lon="4.92702">
        <ele>295</ele>
        <time>2016-11-28T10:21:19Z</time>
      </trkpt>
      <trkpt lat="45.95595" lon="4.9271">
        <ele>295</ele>
        <time>2016-11-28T10:21:20Z</time>
      </trkpt>
      <trkpt lat="45.95593" lon="4.92718">
        <ele>295</ele>
        <time>2016-11-28T10:21:21Z</time>
      </trkpt>
      <trkpt lat="45.95593" lon="4.92726">
        <ele>295</ele>
        <time>2016-11-28T10:21:22Z</time>
      </trkpt>
      <trkpt lat="45.95592" lon="4.92734">
        <ele>295</ele>
        <time>2016-11-28T10:21:23Z</time>
      </trkpt>
      <trkpt lat="45.9559" lon="4.92742">
        <ele>295</ele>
        <time>2016-11-28T10:21:24Z</time>
      </trkpt>
      <trkpt lat="45.95589" lon="4.92749">
        <ele>295</ele>
        <time>2016-11-28T10:21:25Z</time>
      </trkpt>
      <trkpt lat="45.95587" lon="4.92757">
        <ele>295</ele>
        <time>2016-11-28T10:21:26Z</time>
      </trkpt>
      <trkpt lat="45.95586" lon="4.92766">
        <ele>295</ele>
        <time>2016-11-28T10:21:27Z</time>
      </trkpt>
      <trkpt lat="45.95584" lon="4.92773">
        <ele>295</ele>
        <time>2016-11-28T10:21:28Z</time>
      </trkpt>
      <trkpt lat="45.95583" lon="4.92781">
        <ele>294</ele>
        <time>2016-11-28T10:21:29Z</time>
      </trkpt>
      <trkpt lat="45.95581" lon="4.9279">
        <ele>294</ele>
        <time>2016-11-28T10:21:30Z</time>
      </trkpt>
      <trkpt lat="45.9558" lon="4.92798">
        <ele>294</ele>
        <time>2016-11-28T10:21:31Z</time>
      </trkpt>
      <trkpt lat="45.95578" lon="4.92807">
        <ele>294</ele>
        <time>2016-11-28T10:21:32Z</time>
      </trkpt>
      <trkpt lat="45.95577" lon="4.92816">
        <ele>295</ele>
        <time>2016-11-28T10:21:33Z</time>
      </trkpt>
      <trkpt lat="45.95576" lon="4.92824">
        <ele>295</ele>
        <time>2016-11-28T10:21:34Z</time>
      </trkpt>
      <trkpt lat="45.95575" lon="4.92833">
        <ele>295</ele>
        <time>2016-11-28T10:21:35Z</time>
      </trkpt>
      <trkpt lat="45.95573" lon="4.92843">
        <ele>294</ele>
        <time>2016-11-28T10:21:36Z</time>
      </trkpt>
      <trkpt lat="45.95572" lon="4.92851">
        <ele>294</ele>
        <time>2016-11-28T10:21:37Z</time>
      </trkpt>
      <trkpt lat="45.9557" lon="4.92859">
        <ele>294</ele>
        <time>2016-11-28T10:21:38Z</time>
      </trkpt>
      <trkpt lat="45.95569" lon="4.92868">
        <ele>294</ele>
        <time>2016-11-28T10:21:39Z</time>
      </trkpt>
      <trkpt lat="45.95568" lon="4.92876">
        <ele>294</ele>
        <time>2016-11-28T10:21:40Z</time>
      </trkpt>
      <trkpt lat="45.95567" lon="4.92884">
        <ele>294</ele>
        <time>2016-11-28T10:21:41Z</time>
      </trkpt>
      <trkpt lat="45.95565" lon="4.92892">
        <ele>293</ele>
        <time>2016-11-28T10:21:42Z</time>
      </trkpt>
      <trkpt lat="45.95564" lon="4.929">
        <ele>293</ele>
        <time>2016-11-28T10:21:43Z</time>
      </trkpt>
      <trkpt lat="45.95562" lon="4.92909">
        <ele>293</ele>
        <time>2016-11-28T10:21:44Z</time>
      </trkpt>
      <trkpt lat="45.95561" lon="4.92917">
        <ele>293</ele>
        <time>2016-11-28T10:21:45Z</time>
      </trkpt>
      <trkpt lat="45.9556" lon="4.92925">
        <ele>293</ele>
        <time>2016-11-28T10:21:46Z</time>
      </trkpt>
      <trkpt lat="45.95558" lon="4.92933">
        <ele>292</ele>
        <time>2016-11-28T10:21:47Z</time>
      </trkpt>
      <trkpt lat="45.95557" lon="4.92942">
        <ele>292</ele>
        <time>2016-11-28T10:21:48Z</time>
      </trkpt>
      <trkpt lat="45.95556" lon="4.9295">
        <ele>292</ele>
        <time>2016-11-28T10:21:49Z</time>
      </trkpt>
      <trkpt lat="45.95554" lon="4.92959">
        <ele>292</ele>
        <time>2016-11-28T10:21:50Z</time>
      </trkpt>
      <trkpt lat="45.95553" lon="4.92967">
        <ele>292</ele>
        <time>2016-11-28T10:21:51Z</time>
      </trkpt>
      <trkpt lat="45.95552" lon="4.92975">
        <ele>292</ele>
        <time>2016-11-28T10:21:52Z</time>
      </trkpt>
      <trkpt lat="45.95551" lon="4.92983">
        <ele>292</ele>
        <time>2016-11-28T10:21:53Z</time>
      </trkpt>
      <trkpt lat="45.95551" lon="4.92991">
        <ele>292</ele>
        <time>2016-11-28T10:21:54Z</time>
      </trkpt>
      <trkpt lat="45.9555" lon="4.93">
        <ele>292</ele>
        <time>2016-11-28T10:21:55Z</time>
      </trkpt>
      <trkpt lat="45.95549" lon="4.93008">
        <ele>291</ele>
        <time>2016-11-28T10:21:56Z</time>
      </trkpt>
      <trkpt lat="45.95549" lon="4.93016">
        <ele>291</ele>
        <time>2016-11-28T10:21:57Z</time>
      </trkpt>
      <trkpt lat="45.95548" lon="4.93025">
        <ele>291</ele>
        <time>2016-11-28T10:21:58Z</time>
      </trkpt>
      <trkpt lat="45.95548" lon="4.93033">
        <ele>291</ele>
        <time>2016-11-28T10:21:59Z</time>
      </trkpt>
      <trkpt lat="45.95547" lon="4.93041">
        <ele>291</ele>
        <time>2016-11-28T10:22:00Z</time>
      </trkpt>
      <trkpt lat="45.95546" lon="4.93049">
        <ele>290</ele>
        <time>2016-11-28T10:22:01Z</time>
      </trkpt>
      <trkpt lat="45.95545" lon="4.93058">
        <ele>290</ele>
        <time>2016-11-28T10:22:02Z</time>
      </trkpt>
      <trkpt lat="45.95544" lon="4.93066">
        <ele>290</ele>
        <time>2016-11-28T10:22:03Z</time>
      </trkpt>
      <trkpt lat="45.95541" lon="4.93074">
        <ele>290</ele>
        <time>2016-11-28T10:22:04Z</time>
      </trkpt>
      <trkpt lat="45.95538" lon="4.93082">
        <ele>290</ele>
        <time>2016-11-28T10:22:05Z</time>
      </trkpt>
      <trkpt lat="45.95535" lon="4.93089">
        <ele>290</ele>
        <time>2016-11-28T10:22:06Z</time>
      </trkpt>
      <trkpt lat="45.95531" lon="4.93096">
        <ele>290</ele>
        <time>2016-11-28T10:22:07Z</time>
      </trkpt>
      <trkpt lat="45.95527" lon="4.93102">
        <ele>289</ele>
        <time>2016-11-28T10:22:08Z</time>
      </trkpt>
      <trkpt lat="45.95522" lon="4.93107">
        <ele>289</ele>
        <time>2016-11-28T10:22:09Z</time>
      </trkpt>
      <trkpt lat="45.95518" lon="4.93112">
        <ele>289</ele>
        <time>2016-11-28T10:22:10Z</time>
      </trkpt>
      <trkpt lat="45.95513" lon="4.93117">
        <ele>289</ele>
        <time>2016-11-28T10:22:11Z</time>
      </trkpt>
      <trkpt lat="45.95508" lon="4.93121">
        <ele>289</ele>
        <time>2016-11-28T10:22:12Z</time>
      </trkpt>
      <trkpt lat="45.95503" lon="4.93126">
        <ele>289</ele>
        <time>2016-11-28T10:22:13Z</time>
      </trkpt>
      <trkpt lat="45.95498" lon="4.93131">
        <ele>290</ele>
        <time>2016-11-28T10:22:14Z</time>
      </trkpt>
      <trkpt lat="45.95493" lon="4.93135">
        <ele>290</ele>
        <time>2016-11-28T10:22:15Z</time>
      </trkpt>
      <trkpt lat="45.95488" lon="4.93139">
        <ele>290</ele>
        <time>2016-11-28T10:22:16Z</time>
      </trkpt>
      <trkpt lat="45.95483" lon="4.93143">
        <ele>290</ele>
        <time>2016-11-28T10:22:17Z</time>
      </trkpt>
      <trkpt lat="45.95478" lon="4.93147">
        <ele>290</ele>
        <time>2016-11-28T10:22:18Z</time>
      </trkpt>
      <trkpt lat="45.95472" lon="4.9315">
        <ele>290</ele>
        <time>2016-11-28T10:22:19Z</time>
      </trkpt>
      <trkpt lat="45.95467" lon="4.93153">
        <ele>290</ele>
        <time>2016-11-28T10:22:20Z</time>
      </trkpt>
      <trkpt lat="45.95462" lon="4.93157">
        <ele>290</ele>
        <time>2016-11-28T10:22:21Z</time>
      </trkpt>
      <trkpt lat="45.95457" lon="4.93161">
        <ele>291</ele>
        <time>2016-11-28T10:22:22Z</time>
      </trkpt>
      <trkpt lat="45.95453" lon="4.93166">
        <ele>291</ele>
        <time>2016-11-28T10:22:23Z</time>
      </trkpt>
      <trkpt lat="45.95449" lon="4.93172">
        <ele>291</ele>
        <time>2016-11-28T10:22:24Z</time>
      </trkpt>
      <trkpt lat="45.95447" lon="4.93178">
        <ele>291</ele>
        <time>2016-11-28T10:22:25Z</time>
      </trkpt>
      <trkpt lat="45.95445" lon="4.93186">
        <ele>291</ele>
        <time>2016-11-28T10:22:26Z</time>
      </trkpt>
      <trkpt lat="45.95444" lon="4.93193">
        <ele>291</ele>
        <time>2016-11-28T10:22:27Z</time>
      </trkpt>
      <trkpt lat="45.95444" lon="4.93201">
        <ele>291</ele>
        <time>2016-11-28T10:22:28Z</time>
      </trkpt>
      <trkpt lat="45.95446" lon="4.93208">
        <ele>291</ele>
        <time>2016-11-28T10:22:29Z</time>
      </trkpt>
      <trkpt lat="45.95449" lon="4.93216">
        <ele>291</ele>
        <time>2016-11-28T10:22:30Z</time>
      </trkpt>
      <trkpt lat="45.95452" lon="4.93223">
        <ele>291</ele>
        <time>2016-11-28T10:22:31Z</time>
      </trkpt>
      <trkpt lat="45.95455" lon="4.9323">
        <ele>291</ele>
        <time>2016-11-28T10:22:32Z</time>
      </trkpt>
      <trkpt lat="45.95457" lon="4.93237">
        <ele>291</ele>
        <time>2016-11-28T10:22:33Z</time>
      </trkpt>
      <trkpt lat="45.95461" lon="4.93245">
        <ele>290</ele>
        <time>2016-11-28T10:22:34Z</time>
      </trkpt>
      <trkpt lat="45.95463" lon="4.93252">
        <ele>290</ele>
        <time>2016-11-28T10:22:35Z</time>
      </trkpt>
      <trkpt lat="45.95466" lon="4.9326">
        <ele>290</ele>
        <time>2016-11-28T10:22:36Z</time>
      </trkpt>
      <trkpt lat="45.95469" lon="4.93267">
        <ele>290</ele>
        <time>2016-11-28T10:22:37Z</time>
      </trkpt>
      <trkpt lat="45.95472" lon="4.93275">
        <ele>290</ele>
        <time>2016-11-28T10:22:38Z</time>
      </trkpt>
      <trkpt lat="45.95476" lon="4.93283">
        <ele>290</ele>
        <time>2016-11-28T10:22:39Z</time>
      </trkpt>
      <trkpt lat="45.95479" lon="4.93291">
        <ele>290</ele>
        <time>2016-11-28T10:22:40Z</time>
      </trkpt>
      <trkpt lat="45.95482" lon="4.93299">
        <ele>290</ele>
        <time>2016-11-28T10:22:41Z</time>
      </trkpt>
      <trkpt lat="45.95485" lon="4.93307">
        <ele>290</ele>
        <time>2016-11-28T10:22:42Z</time>
      </trkpt>
      <trkpt lat="45.95488" lon="4.93314">
        <ele>290</ele>
        <time>2016-11-28T10:22:43Z</time>
      </trkpt>
      <trkpt lat="45.95491" lon="4.93321">
        <ele>290</ele>
        <time>2016-11-28T10:22:44Z</time>
      </trkpt>
      <trkpt lat="45.95494" lon="4.93329">
        <ele>289</ele>
        <time>2016-11-28T10:22:45Z</time>
      </trkpt>
      <trkpt lat="45.95497" lon="4.93336">
        <ele>289</ele>
        <time>2016-11-28T10:22:46Z</time>
      </trkpt>
      <trkpt lat="45.955" lon="4.93343">
        <ele>289</ele>
        <time>2016-11-28T10:22:47Z</time>
      </trkpt>
      <trkpt lat="45.95503" lon="4.93349">
        <ele>289</ele>
        <time>2016-11-28T10:22:48Z</time>
      </trkpt>
      <trkpt lat="45.95506" lon="4.93356">
        <ele>289</ele>
        <time>2016-11-28T10:22:49Z</time>
      </trkpt>
      <trkpt lat="45.95509" lon="4.93364">
        <ele>289</ele>
        <time>2016-11-28T10:22:50Z</time>
      </trkpt>
      <trkpt lat="45.95513" lon="4.93372">
        <ele>289</ele>
        <time>2016-11-28T10:22:51Z</time>
      </trkpt>
      <trkpt lat="45.95516" lon="4.9338">
        <ele>289</ele>
        <time>2016-11-28T10:22:52Z</time>
      </trkpt>
      <trkpt lat="45.9552" lon="4.93388">
        <ele>289</ele>
        <time>2016-11-28T10:22:53Z</time>
      </trkpt>
      <trkpt lat="45.95523" lon="4.93396">
        <ele>289</ele>
        <time>2016-11-28T10:22:54Z</time>
      </trkpt>
      <trkpt lat="45.95527" lon="4.93404">
        <ele>289</ele>
        <time>2016-11-28T10:22:55Z</time>
      </trkpt>
      <trkpt lat="45.9553" lon="4.93413">
        <ele>289</ele>
        <time>2016-11-28T10:22:56Z</time>
      </trkpt>
      <trkpt lat="45.95533" lon="4.93421">
        <ele>289</ele>
        <time>2016-11-28T10:22:57Z</time>
      </trkpt>
      <trkpt lat="45.95536" lon="4.93429">
        <ele>289</ele>
        <time>2016-11-28T10:22:58Z</time>
      </trkpt>
      <trkpt lat="45.95539" lon="4.93436">
        <ele>289</ele>
        <time>2016-11-28T10:22:59Z</time>
      </trkpt>
      <trkpt lat="45.95542" lon="4.93444">
        <ele>289</ele>
        <time>2016-11-28T10:23:00Z</time>
      </trkpt>
      <trkpt lat="45.95545" lon="4.93451">
        <ele>289</ele>
        <time>2016-11-28T10:23:01Z</time>
      </trkpt>
      <trkpt lat="45.95548" lon="4.93457">
        <ele>289</ele>
        <time>2016-11-28T10:23:02Z</time>
      </trkpt>
      <trkpt lat="45.95551" lon="4.93464">
        <ele>289</ele>
        <time>2016-11-28T10:23:03Z</time>
      </trkpt>
      <trkpt lat="45.95554" lon="4.93471">
        <ele>289</ele>
        <time>2016-11-28T10:23:04Z</time>
      </trkpt>
      <trkpt lat="45.95557" lon="4.93478">
        <ele>289</ele>
        <time>2016-11-28T10:23:05Z</time>
      </trkpt>
      <trkpt lat="45.95559" lon="4.93484">
        <ele>289</ele>
        <time>2016-11-28T10:23:06Z</time>
      </trkpt>
      <trkpt lat="45.95562" lon="4.93491">
        <ele>290</ele>
        <time>2016-11-28T10:23:07Z</time>
      </trkpt>
      <trkpt lat="45.95564" lon="4.93497">
        <ele>290</ele>
        <time>2016-11-28T10:23:08Z</time>
      </trkpt>
      <trkpt lat="45.95566" lon="4.93504">
        <ele>290</ele>
        <time>2016-11-28T10:23:09Z</time>
      </trkpt>
      <trkpt lat="45.95567" lon="4.93511">
        <ele>290</ele>
        <time>2016-11-28T10:23:10Z</time>
      </trkpt>
      <trkpt lat="45.95568" lon="4.93518">
        <ele>290</ele>
        <time>2016-11-28T10:23:11Z</time>
      </trkpt>
      <trkpt lat="45.9557" lon="4.93525">
        <ele>290</ele>
        <time>2016-11-28T10:23:12Z</time>
      </trkpt>
      <trkpt lat="45.9557" lon="4.93533">
        <ele>290</ele>
        <time>2016-11-28T10:23:13Z</time>
      </trkpt>
      <trkpt lat="45.9557" lon="4.93541">
        <ele>290</ele>
        <time>2016-11-28T10:23:14Z</time>
      </trkpt>
      <trkpt lat="45.9557" lon="4.93548">
        <ele>289</ele>
        <time>2016-11-28T10:23:15Z</time>
      </trkpt>
      <trkpt lat="45.95569" lon="4.93556">
        <ele>289</ele>
        <time>2016-11-28T10:23:16Z</time>
      </trkpt>
      <trkpt lat="45.95569" lon="4.93563">
        <ele>289</ele>
        <time>2016-11-28T10:23:17Z</time>
      </trkpt>
      <trkpt lat="45.95568" lon="4.93571">
        <ele>289</ele>
        <time>2016-11-28T10:23:18Z</time>
      </trkpt>
      <trkpt lat="45.95567" lon="4.93579">
        <ele>289</ele>
        <time>2016-11-28T10:23:19Z</time>
      </trkpt>
      <trkpt lat="45.95567" lon="4.93586">
        <ele>289</ele>
        <time>2016-11-28T10:23:20Z</time>
      </trkpt>
      <trkpt lat="45.95566" lon="4.93595">
        <ele>289</ele>
        <time>2016-11-28T10:23:21Z</time>
      </trkpt>
      <trkpt lat="45.95566" lon="4.93603">
        <ele>289</ele>
        <time>2016-11-28T10:23:22Z</time>
      </trkpt>
      <trkpt lat="45.95565" lon="4.93611">
        <ele>289</ele>
        <time>2016-11-28T10:23:23Z</time>
      </trkpt>
      <trkpt lat="45.95564" lon="4.93619">
        <ele>289</ele>
        <time>2016-11-28T10:23:24Z</time>
      </trkpt>
      <trkpt lat="45.95563" lon="4.93627">
        <ele>289</ele>
        <time>2016-11-28T10:23:25Z</time>
      </trkpt>
      <trkpt lat="45.95561" lon="4.93635">
        <ele>289</ele>
        <time>2016-11-28T10:23:26Z</time>
      </trkpt>
      <trkpt lat="45.95561" lon="4.93643">
        <ele>289</ele>
        <time>2016-11-28T10:23:27Z</time>
      </trkpt>
      <trkpt lat="45.9556" lon="4.93651">
        <ele>289</ele>
        <time>2016-11-28T10:23:28Z</time>
      </trkpt>
      <trkpt lat="45.9556" lon="4.93659">
        <ele>289</ele>
        <time>2016-11-28T10:23:29Z</time>
      </trkpt>
      <trkpt lat="45.95559" lon="4.93667">
        <ele>290</ele>
        <time>2016-11-28T10:23:30Z</time>
      </trkpt>
      <trkpt lat="45.95558" lon="4.93675">
        <ele>290</ele>
        <time>2016-11-28T10:23:31Z</time>
      </trkpt>
      <trkpt lat="45.95558" lon="4.93683">
        <ele>290</ele>
        <time>2016-11-28T10:23:32Z</time>
      </trkpt>
      <trkpt lat="45.95558" lon="4.93691">
        <ele>290</ele>
        <time>2016-11-28T10:23:33Z</time>
      </trkpt>
      <trkpt lat="45.95557" lon="4.93698">
        <ele>290</ele>
        <time>2016-11-28T10:23:34Z</time>
      </trkpt>
      <trkpt lat="45.95558" lon="4.93706">
        <ele>290</ele>
        <time>2016-11-28T10:23:35Z</time>
      </trkpt>
      <trkpt lat="45.95558" lon="4.93714">
        <ele>290</ele>
        <time>2016-11-28T10:23:36Z</time>
      </trkpt>
      <trkpt lat="45.95558" lon="4.93721">
        <ele>290</ele>
        <time>2016-11-28T10:23:37Z</time>
      </trkpt>
      <trkpt lat="45.95558" lon="4.93729">
        <ele>290</ele>
        <time>2016-11-28T10:23:38Z</time>
      </trkpt>
      <trkpt lat="45.95558" lon="4.93736">
        <ele>290</ele>
        <time>2016-11-28T10:23:39Z</time>
      </trkpt>
      <trkpt lat="45.95559" lon="4.93744">
        <ele>290</ele>
        <time>2016-11-28T10:23:40Z</time>
      </trkpt>
      <trkpt lat="45.95559" lon="4.9375">
        <ele>290</ele>
        <time>2016-11-28T10:23:41Z</time>
      </trkpt>
      <trkpt lat="45.9556" lon="4.93757">
        <ele>290</ele>
        <time>2016-11-28T10:23:42Z</time>
      </trkpt>
      <trkpt lat="45.95561" lon="4.93764">
        <ele>290</ele>
        <time>2016-11-28T10:23:43Z</time>
      </trkpt>
      <trkpt lat="45.95561" lon="4.93772">
        <ele>290</ele>
        <time>2016-11-28T10:23:44Z</time>
      </trkpt>
      <trkpt lat="45.95563" lon="4.93779">
        <ele>290</ele>
        <time>2016-11-28T10:23:45Z</time>
      </trkpt>
      <trkpt lat="45.95565" lon="4.93785">
        <ele>290</ele>
        <time>2016-11-28T10:23:46Z</time>
      </trkpt>
      <trkpt lat="45.95568" lon="4.93792">
        <ele>290</ele>
        <time>2016-11-28T10:23:47Z</time>
      </trkpt>
      <trkpt lat="45.95572" lon="4.93797">
        <ele>290</ele>
        <time>2016-11-28T10:23:48Z</time>
      </trkpt>
      <trkpt lat="45.95576" lon="4.93802">
        <ele>290</ele>
        <time>2016-11-28T10:23:49Z</time>
      </trkpt>
      <trkpt lat="45.9558" lon="4.93807">
        <ele>290</ele>
        <time>2016-11-28T10:23:50Z</time>
      </trkpt>
      <trkpt lat="45.95585" lon="4.93812">
        <ele>289</ele>
        <time>2016-11-28T10:23:51Z</time>
      </trkpt>
      <trkpt lat="45.95589" lon="4.93817">
        <ele>289</ele>
        <time>2016-11-28T10:23:52Z</time>
      </trkpt>
      <trkpt lat="45.95594" lon="4.93821">
        <ele>289</ele>
        <time>2016-11-28T10:23:53Z</time>
      </trkpt>
      <trkpt lat="45.95598" lon="4.93826">
        <ele>289</ele>
        <time>2016-11-28T10:23:54Z</time>
      </trkpt>
      <trkpt lat="45.95603" lon="4.9383">
        <ele>289</ele>
        <time>2016-11-28T10:23:55Z</time>
      </trkpt>
      <trkpt lat="45.95608" lon="4.93834">
        <ele>290</ele>
        <time>2016-11-28T10:23:56Z</time>
      </trkpt>
      <trkpt lat="45.95614" lon="4.93838">
        <ele>290</ele>
        <time>2016-11-28T10:23:57Z</time>
      </trkpt>
      <trkpt lat="45.95618" lon="4.93841">
        <ele>290</ele>
        <time>2016-11-28T10:23:58Z</time>
      </trkpt>
      <trkpt lat="45.95623" lon="4.93844">
        <ele>290</ele>
        <time>2016-11-28T10:23:59Z</time>
      </trkpt>
      <trkpt lat="45.95628" lon="4.93847">
        <ele>290</ele>
        <time>2016-11-28T10:24:00Z</time>
      </trkpt>
      <trkpt lat="45.95632" lon="4.9385">
        <ele>290</ele>
        <time>2016-11-28T10:24:01Z</time>
      </trkpt>
      <trkpt lat="45.95636" lon="4.93854">
        <ele>290</ele>
        <time>2016-11-28T10:24:02Z</time>
      </trkpt>
      <trkpt lat="45.9564" lon="4.93857">
        <ele>290</ele>
        <time>2016-11-28T10:24:03Z</time>
      </trkpt>
      <trkpt lat="45.95647" lon="4.93864">
        <ele>290</ele>
        <time>2016-11-28T10:24:05Z</time>
      </trkpt>
      <trkpt lat="45.95649" lon="4.93868">
        <ele>291</ele>
        <time>2016-11-28T10:24:06Z</time>
      </trkpt>
      <trkpt lat="45.95652" lon="4.9388">
        <ele>291</ele>
        <time>2016-11-28T10:24:08Z</time>
      </trkpt>
      <trkpt lat="45.95652" lon="4.93885">
        <ele>291</ele>
        <time>2016-11-28T10:24:09Z</time>
      </trkpt>
      <trkpt lat="45.9565" lon="4.93897">
        <ele>292</ele>
        <time>2016-11-28T10:24:11Z</time>
      </trkpt>
      <trkpt lat="45.95649" lon="4.93902">
        <ele>292</ele>
        <time>2016-11-28T10:24:12Z</time>
      </trkpt>
      <trkpt lat="45.95647" lon="4.93913">
        <ele>292</ele>
        <time>2016-11-28T10:24:14Z</time>
      </trkpt>
      <trkpt lat="45.95646" lon="4.93918">
        <ele>294</ele>
        <time>2016-11-28T10:24:15Z</time>
      </trkpt>
      <trkpt lat="45.95645" lon="4.93928">
        <ele>294</ele>
        <time>2016-11-28T10:24:17Z</time>
      </trkpt>
      <trkpt lat="45.95644" lon="4.93933">
        <ele>294</ele>
        <time>2016-11-28T10:24:18Z</time>
      </trkpt>
      <trkpt lat="45.95644" lon="4.93945">
        <ele>294</ele>
        <time>2016-11-28T10:24:21Z</time>
      </trkpt>
      <trkpt lat="45.95643" lon="4.93949">
        <ele>294</ele>
        <time>2016-11-28T10:24:22Z</time>
      </trkpt>
      <trkpt lat="45.95644" lon="4.9396">
        <ele>294</ele>
        <time>2016-11-28T10:24:25Z</time>
      </trkpt>
      <trkpt lat="45.95644" lon="4.93963">
        <ele>294</ele>
        <time>2016-11-28T10:24:26Z</time>
      </trkpt>
      <trkpt lat="45.95646" lon="4.93972">
        <ele>294</ele>
        <time>2016-11-28T10:24:29Z</time>
      </trkpt>
      <trkpt lat="45.95649" lon="4.93975">
        <ele>294</ele>
        <time>2016-11-28T10:24:30Z</time>
      </trkpt>
      <trkpt lat="45.95654" lon="4.93979">
        <ele>294</ele>
        <time>2016-11-28T10:24:32Z</time>
      </trkpt>
      <trkpt lat="45.95658" lon="4.9398">
        <ele>295</ele>
        <time>2016-11-28T10:24:33Z</time>
      </trkpt>
      <trkpt lat="45.95664" lon="4.93985">
        <ele>295</ele>
        <time>2016-11-28T10:24:35Z</time>
      </trkpt>
      <trkpt lat="45.95666" lon="4.93988">
        <ele>295</ele>
        <time>2016-11-28T10:24:36Z</time>
      </trkpt>
      <trkpt lat="45.95668" lon="4.93997">
        <ele>296</ele>
        <time>2016-11-28T10:24:38Z</time>
      </trkpt>
      <trkpt lat="45.95668" lon="4.94001">
        <ele>296</ele>
        <time>2016-11-28T10:24:39Z</time>
      </trkpt>
      <trkpt lat="45.95667" lon="4.94013">
        <ele>295</ele>
        <time>2016-11-28T10:24:42Z</time>
      </trkpt>
      <trkpt lat="45.95666" lon="4.94015">
        <ele>295</ele>
        <time>2016-11-28T10:24:43Z</time>
      </trkpt>
      <trkpt lat="45.95666" lon="4.94026">
        <ele>294</ele>
        <time>2016-11-28T10:24:47Z</time>
      </trkpt>
      <trkpt lat="45.95668" lon="4.94029">
        <ele>295</ele>
        <time>2016-11-28T10:24:48Z</time>
      </trkpt>
      <trkpt lat="45.95676" lon="4.94033">
        <ele>295</ele>
        <time>2016-11-28T10:24:51Z</time>
      </trkpt>
      <trkpt lat="45.95679" lon="4.94035">
        <ele>295</ele>
        <time>2016-11-28T10:24:52Z</time>
      </trkpt>
      <trkpt lat="45.95683" lon="4.9404">
        <ele>295</ele>
        <time>2016-11-28T10:24:53Z</time>
      </trkpt>
      <trkpt lat="45.95687" lon="4.94042">
        <ele>295</ele>
        <time>2016-11-28T10:24:54Z</time>
      </trkpt>
      <trkpt lat="45.95691" lon="4.94045">
        <ele>295</ele>
        <time>2016-11-28T10:24:55Z</time>
      </trkpt>
      <trkpt lat="45.95696" lon="4.94047">
        <ele>295</ele>
        <time>2016-11-28T10:24:56Z</time>
      </trkpt>
      <trkpt lat="45.957" lon="4.94048">
        <ele>295</ele>
        <time>2016-11-28T10:24:57Z</time>
      </trkpt>
      <trkpt lat="45.95705" lon="4.9405">
        <ele>295</ele>
        <time>2016-11-28T10:24:58Z</time>
      </trkpt>
      <trkpt lat="45.95713" lon="4.94053">
        <ele>295</ele>
        <time>2016-11-28T10:25:00Z</time>
      </trkpt>
      <trkpt lat="45.95717" lon="4.94054">
        <ele>295</ele>
        <time>2016-11-28T10:25:01Z</time>
      </trkpt>
      <trkpt lat="45.95722" lon="4.94054">
        <ele>295</ele>
        <time>2016-11-28T10:25:02Z</time>
      </trkpt>
      <trkpt lat="45.95727" lon="4.94055">
        <ele>295</ele>
        <time>2016-11-28T10:25:03Z</time>
      </trkpt>
      <trkpt lat="45.95736" lon="4.94056">
        <ele>295</ele>
        <time>2016-11-28T10:25:05Z</time>
      </trkpt>
      <trkpt lat="45.9574" lon="4.94057">
        <ele>295</ele>
        <time>2016-11-28T10:25:06Z</time>
      </trkpt>
      <trkpt lat="45.95748" lon="4.9406">
        <ele>295</ele>
        <time>2016-11-28T10:25:08Z</time>
      </trkpt>
      <trkpt lat="45.95752" lon="4.94062">
        <ele>295</ele>
        <time>2016-11-28T10:25:09Z</time>
      </trkpt>
      <trkpt lat="45.9576" lon="4.94064">
        <ele>294</ele>
        <time>2016-11-28T10:25:11Z</time>
      </trkpt>
      <trkpt lat="45.95764" lon="4.94065">
        <ele>294</ele>
        <time>2016-11-28T10:25:12Z</time>
      </trkpt>
      <trkpt lat="45.95773" lon="4.94068">
        <ele>294</ele>
        <time>2016-11-28T10:25:14Z</time>
      </trkpt>
      <trkpt lat="45.95777" lon="4.94069">
        <ele>294</ele>
        <time>2016-11-28T10:25:15Z</time>
      </trkpt>
      <trkpt lat="45.95785" lon="4.9407">
        <ele>294</ele>
        <time>2016-11-28T10:25:17Z</time>
      </trkpt>
      <trkpt lat="45.9579" lon="4.94071">
        <ele>294</ele>
        <time>2016-11-28T10:25:18Z</time>
      </trkpt>
      <trkpt lat="45.95798" lon="4.94072">
        <ele>294</ele>
        <time>2016-11-28T10:25:20Z</time>
      </trkpt>
      <trkpt lat="45.95802" lon="4.94073">
        <ele>294</ele>
        <time>2016-11-28T10:25:21Z</time>
      </trkpt>
      <trkpt lat="45.9581" lon="4.94076">
        <ele>294</ele>
        <time>2016-11-28T10:25:23Z</time>
      </trkpt>
      <trkpt lat="45.95814" lon="4.94078">
        <ele>294</ele>
        <time>2016-11-28T10:25:24Z</time>
      </trkpt>
      <trkpt lat="45.95822" lon="4.94081">
        <ele>294</ele>
        <time>2016-11-28T10:25:26Z</time>
      </trkpt>
      <trkpt lat="45.95826" lon="4.94083">
        <ele>294</ele>
        <time>2016-11-28T10:25:27Z</time>
      </trkpt>
      <trkpt lat="45.95831" lon="4.94084">
        <ele>294</ele>
        <time>2016-11-28T10:25:28Z</time>
      </trkpt>
      <trkpt lat="45.95836" lon="4.94084">
        <ele>294</ele>
        <time>2016-11-28T10:25:29Z</time>
      </trkpt>
      <trkpt lat="45.95841" lon="4.94085">
        <ele>294</ele>
        <time>2016-11-28T10:25:30Z</time>
      </trkpt>
      <trkpt lat="45.95846" lon="4.94087">
        <ele>294</ele>
        <time>2016-11-28T10:25:31Z</time>
      </trkpt>
      <trkpt lat="45.95851" lon="4.94088">
        <ele>294</ele>
        <time>2016-11-28T10:25:32Z</time>
      </trkpt>
      <trkpt lat="45.95856" lon="4.9409">
        <ele>294</ele>
        <time>2016-11-28T10:25:33Z</time>
      </trkpt>
      <trkpt lat="45.95861" lon="4.94091">
        <ele>293</ele>
        <time>2016-11-28T10:25:34Z</time>
      </trkpt>
      <trkpt lat="45.95866" lon="4.94092">
        <ele>293</ele>
        <time>2016-11-28T10:25:35Z</time>
      </trkpt>
      <trkpt lat="45.95871" lon="4.94094">
        <ele>293</ele>
        <time>2016-11-28T10:25:36Z</time>
      </trkpt>
      <trkpt lat="45.95877" lon="4.94095">
        <ele>293</ele>
        <time>2016-11-28T10:25:37Z</time>
      </trkpt>
      <trkpt lat="45.95882" lon="4.94096">
        <ele>293</ele>
        <time>2016-11-28T10:25:38Z</time>
      </trkpt>
      <trkpt lat="45.95887" lon="4.94097">
        <ele>293</ele>
        <time>2016-11-28T10:25:39Z</time>
      </trkpt>
      <trkpt lat="45.95892" lon="4.94098">
        <ele>293</ele>
        <time>2016-11-28T10:25:40Z</time>
      </trkpt>
      <trkpt lat="45.95897" lon="4.941">
        <ele>293</ele>
        <time>2016-11-28T10:25:41Z</time>
      </trkpt>
      <trkpt lat="45.95902" lon="4.94101">
        <ele>293</ele>
        <time>2016-11-28T10:25:42Z</time>
      </trkpt>
      <trkpt lat="45.95908" lon="4.94102">
        <ele>293</ele>
        <time>2016-11-28T10:25:43Z</time>
      </trkpt>
      <trkpt lat="45.95913" lon="4.94103">
        <ele>293</ele>
        <time>2016-11-28T10:25:44Z</time>
      </trkpt>
      <trkpt lat="45.95918" lon="4.94104">
        <ele>292</ele>
        <time>2016-11-28T10:25:45Z</time>
      </trkpt>
      <trkpt lat="45.95923" lon="4.94106">
        <ele>292</ele>
        <time>2016-11-28T10:25:46Z</time>
      </trkpt>
      <trkpt lat="45.95928" lon="4.94108">
        <ele>292</ele>
        <time>2016-11-28T10:25:47Z</time>
      </trkpt>
      <trkpt lat="45.95933" lon="4.9411">
        <ele>292</ele>
        <time>2016-11-28T10:25:48Z</time>
      </trkpt>
      <trkpt lat="45.95938" lon="4.94111">
        <ele>292</ele>
        <time>2016-11-28T10:25:49Z</time>
      </trkpt>
      <trkpt lat="45.95943" lon="4.94113">
        <ele>292</ele>
        <time>2016-11-28T10:25:50Z</time>
      </trkpt>
      <trkpt lat="45.95948" lon="4.94114">
        <ele>292</ele>
        <time>2016-11-28T10:25:51Z</time>
      </trkpt>
      <trkpt lat="45.95953" lon="4.94115">
        <ele>292</ele>
        <time>2016-11-28T10:25:52Z</time>
      </trkpt>
      <trkpt lat="45.95958" lon="4.94117">
        <ele>292</ele>
        <time>2016-11-28T10:25:53Z</time>
      </trkpt>
      <trkpt lat="45.95963" lon="4.94118">
        <ele>292</ele>
        <time>2016-11-28T10:25:54Z</time>
      </trkpt>
      <trkpt lat="45.95968" lon="4.9412">
        <ele>292</ele>
        <time>2016-11-28T10:25:55Z</time>
      </trkpt>
      <trkpt lat="45.95974" lon="4.94121">
        <ele>292</ele>
        <time>2016-11-28T10:25:56Z</time>
      </trkpt>
      <trkpt lat="45.95979" lon="4.94123">
        <ele>292</ele>
        <time>2016-11-28T10:25:57Z</time>
      </trkpt>
      <trkpt lat="45.95984" lon="4.94125">
        <ele>292</ele>
        <time>2016-11-28T10:25:58Z</time>
      </trkpt>
      <trkpt lat="45.95989" lon="4.94126">
        <ele>292</ele>
        <time>2016-11-28T10:25:59Z</time>
      </trkpt>
      <trkpt lat="45.95994" lon="4.94127">
        <ele>291</ele>
        <time>2016-11-28T10:26:00Z</time>
      </trkpt>
      <trkpt lat="45.95999" lon="4.94128">
        <ele>291</ele>
        <time>2016-11-28T10:26:01Z</time>
      </trkpt>
      <trkpt lat="45.96004" lon="4.94129">
        <ele>291</ele>
        <time>2016-11-28T10:26:02Z</time>
      </trkpt>
      <trkpt lat="45.96009" lon="4.9413">
        <ele>291</ele>
        <time>2016-11-28T10:26:03Z</time>
      </trkpt>
      <trkpt lat="45.96014" lon="4.94132">
        <ele>291</ele>
        <time>2016-11-28T10:26:04Z</time>
      </trkpt>
      <trkpt lat="45.96018" lon="4.94133">
        <ele>291</ele>
        <time>2016-11-28T10:26:05Z</time>
      </trkpt>
      <trkpt lat="45.96023" lon="4.94134">
        <ele>291</ele>
        <time>2016-11-28T10:26:06Z</time>
      </trkpt>
      <trkpt lat="45.96028" lon="4.94134">
        <ele>291</ele>
        <time>2016-11-28T10:26:07Z</time>
      </trkpt>
      <trkpt lat="45.96033" lon="4.94134">
        <ele>291</ele>
        <time>2016-11-28T10:26:08Z</time>
      </trkpt>
      <trkpt lat="45.96038" lon="4.94133">
        <ele>291</ele>
        <time>2016-11-28T10:26:09Z</time>
      </trkpt>
      <trkpt lat="45.96043" lon="4.94132">
        <ele>291</ele>
        <time>2016-11-28T10:26:10Z</time>
      </trkpt>
      <trkpt lat="45.96048" lon="4.9413">
        <ele>291</ele>
        <time>2016-11-28T10:26:11Z</time>
      </trkpt>
      <trkpt lat="45.96053" lon="4.94128">
        <ele>291</ele>
        <time>2016-11-28T10:26:12Z</time>
      </trkpt>
      <trkpt lat="45.96058" lon="4.94125">
        <ele>291</ele>
        <time>2016-11-28T10:26:13Z</time>
      </trkpt>
      <trkpt lat="45.96062" lon="4.94123">
        <ele>291</ele>
        <time>2016-11-28T10:26:14Z</time>
      </trkpt>
      <trkpt lat="45.96066" lon="4.9412">
        <ele>291</ele>
        <time>2016-11-28T10:26:15Z</time>
      </trkpt>
      <trkpt lat="45.96071" lon="4.94117">
        <ele>291</ele>
        <time>2016-11-28T10:26:16Z</time>
      </trkpt>
      <trkpt lat="45.96075" lon="4.94113">
        <ele>291</ele>
        <time>2016-11-28T10:26:17Z</time>
      </trkpt>
      <trkpt lat="45.9608" lon="4.9411">
        <ele>291</ele>
        <time>2016-11-28T10:26:18Z</time>
      </trkpt>
      <trkpt lat="45.96084" lon="4.94106">
        <ele>291</ele>
        <time>2016-11-28T10:26:19Z</time>
      </trkpt>
      <trkpt lat="45.96088" lon="4.94103">
        <ele>291</ele>
        <time>2016-11-28T10:26:20Z</time>
      </trkpt>
      <trkpt lat="45.96092" lon="4.941">
        <ele>291</ele>
        <time>2016-11-28T10:26:21Z</time>
      </trkpt>
      <trkpt lat="45.96097" lon="4.94096">
        <ele>291</ele>
        <time>2016-11-28T10:26:22Z</time>
      </trkpt>
      <trkpt lat="45.96101" lon="4.94092">
        <ele>291</ele>
        <time>2016-11-28T10:26:23Z</time>
      </trkpt>
      <trkpt lat="45.96106" lon="4.94088">
        <ele>291</ele>
        <time>2016-11-28T10:26:24Z</time>
      </trkpt>
      <trkpt lat="45.9611" lon="4.94084">
        <ele>291</ele>
        <time>2016-11-28T10:26:25Z</time>
      </trkpt>
      <trkpt lat="45.96114" lon="4.94079">
        <ele>291</ele>
        <time>2016-11-28T10:26:26Z</time>
      </trkpt>
      <trkpt lat="45.96119" lon="4.94075">
        <ele>291</ele>
        <time>2016-11-28T10:26:27Z</time>
      </trkpt>
      <trkpt lat="45.96123" lon="4.94072">
        <ele>290</ele>
        <time>2016-11-28T10:26:28Z</time>
      </trkpt>
      <trkpt lat="45.96128" lon="4.94068">
        <ele>290</ele>
        <time>2016-11-28T10:26:29Z</time>
      </trkpt>
      <trkpt lat="45.96132" lon="4.94065">
        <ele>290</ele>
        <time>2016-11-28T10:26:30Z</time>
      </trkpt>
      <trkpt lat="45.96136" lon="4.94062">
        <ele>290</ele>
        <time>2016-11-28T10:26:31Z</time>
      </trkpt>
      <trkpt lat="45.9614" lon="4.94058">
        <ele>290</ele>
        <time>2016-11-28T10:26:32Z</time>
      </trkpt>
      <trkpt lat="45.96144" lon="4.94054">
        <ele>290</ele>
        <time>2016-11-28T10:26:33Z</time>
      </trkpt>
      <trkpt lat="45.96148" lon="4.94051">
        <ele>290</ele>
        <time>2016-11-28T10:26:34Z</time>
      </trkpt>
      <trkpt lat="45.96152" lon="4.94047">
        <ele>290</ele>
        <time>2016-11-28T10:26:35Z</time>
      </trkpt>
      <trkpt lat="45.96156" lon="4.94044">
        <ele>290</ele>
        <time>2016-11-28T10:26:36Z</time>
      </trkpt>
      <trkpt lat="45.9616" lon="4.9404">
        <ele>290</ele>
        <time>2016-11-28T10:26:37Z</time>
      </trkpt>
      <trkpt lat="45.96164" lon="4.94037">
        <ele>290</ele>
        <time>2016-11-28T10:26:38Z</time>
      </trkpt>
      <trkpt lat="45.96169" lon="4.94033">
        <ele>290</ele>
        <time>2016-11-28T10:26:39Z</time>
      </trkpt>
      <trkpt lat="45.96173" lon="4.9403">
        <ele>290</ele>
        <time>2016-11-28T10:26:40Z</time>
      </trkpt>
      <trkpt lat="45.96177" lon="4.94026">
        <ele>290</ele>
        <time>2016-11-28T10:26:41Z</time>
      </trkpt>
      <trkpt lat="45.96181" lon="4.94023">
        <ele>290</ele>
        <time>2016-11-28T10:26:42Z</time>
      </trkpt>
      <trkpt lat="45.96185" lon="4.9402">
        <ele>290</ele>
        <time>2016-11-28T10:26:43Z</time>
      </trkpt>
      <trkpt lat="45.96189" lon="4.94016">
        <ele>290</ele>
        <time>2016-11-28T10:26:44Z</time>
      </trkpt>
      <trkpt lat="45.96193" lon="4.94012">
        <ele>290</ele>
        <time>2016-11-28T10:26:45Z</time>
      </trkpt>
      <trkpt lat="45.96197" lon="4.94009">
        <ele>290</ele>
        <time>2016-11-28T10:26:46Z</time>
      </trkpt>
      <trkpt lat="45.96202" lon="4.94005">
        <ele>290</ele>
        <time>2016-11-28T10:26:47Z</time>
      </trkpt>
      <trkpt lat="45.96206" lon="4.94002">
        <ele>290</ele>
        <time>2016-11-28T10:26:48Z</time>
      </trkpt>
      <trkpt lat="45.9621" lon="4.93999">
        <ele>290</ele>
        <time>2016-11-28T10:26:49Z</time>
      </trkpt>
      <trkpt lat="45.96214" lon="4.93996">
        <ele>290</ele>
        <time>2016-11-28T10:26:50Z</time>
      </trkpt>
      <trkpt lat="45.96218" lon="4.93992">
        <ele>290</ele>
        <time>2016-11-28T10:26:51Z</time>
      </trkpt>
      <trkpt lat="45.96225" lon="4.93986">
        <ele>290</ele>
        <time>2016-11-28T10:26:53Z</time>
      </trkpt>
      <trkpt lat="45.96229" lon="4.93983">
        <ele>290</ele>
        <time>2016-11-28T10:26:54Z</time>
      </trkpt>
      <trkpt lat="45.96233" lon="4.9398">
        <ele>290</ele>
        <time>2016-11-28T10:26:55Z</time>
      </trkpt>
      <trkpt lat="45.96237" lon="4.93976">
        <ele>290</ele>
        <time>2016-11-28T10:26:56Z</time>
      </trkpt>
      <trkpt lat="45.96241" lon="4.93974">
        <ele>290</ele>
        <time>2016-11-28T10:26:57Z</time>
      </trkpt>
      <trkpt lat="45.96245" lon="4.93971">
        <ele>290</ele>
        <time>2016-11-28T10:26:58Z</time>
      </trkpt>
      <trkpt lat="45.9625" lon="4.93968">
        <ele>290</ele>
        <time>2016-11-28T10:26:59Z</time>
      </trkpt>
      <trkpt lat="45.96255" lon="4.93965">
        <ele>291</ele>
        <time>2016-11-28T10:27:00Z</time>
      </trkpt>
      <trkpt lat="45.96259" lon="4.93962">
        <ele>291</ele>
        <time>2016-11-28T10:27:01Z</time>
      </trkpt>
      <trkpt lat="45.96264" lon="4.93959">
        <ele>291</ele>
        <time>2016-11-28T10:27:02Z</time>
      </trkpt>
      <trkpt lat="45.96269" lon="4.93957">
        <ele>291</ele>
        <time>2016-11-28T10:27:03Z</time>
      </trkpt>
      <trkpt lat="45.96274" lon="4.93955">
        <ele>291</ele>
        <time>2016-11-28T10:27:04Z</time>
      </trkpt>
      <trkpt lat="45.96278" lon="4.93953">
        <ele>291</ele>
        <time>2016-11-28T10:27:05Z</time>
      </trkpt>
      <trkpt lat="45.96283" lon="4.93951">
        <ele>291</ele>
        <time>2016-11-28T10:27:06Z</time>
      </trkpt>
      <trkpt lat="45.96288" lon="4.93949">
        <ele>292</ele>
        <time>2016-11-28T10:27:07Z</time>
      </trkpt>
      <trkpt lat="45.96293" lon="4.93947">
        <ele>292</ele>
        <time>2016-11-28T10:27:08Z</time>
      </trkpt>
      <trkpt lat="45.96297" lon="4.93946">
        <ele>292</ele>
        <time>2016-11-28T10:27:09Z</time>
      </trkpt>
      <trkpt lat="45.96301" lon="4.93944">
        <ele>292</ele>
        <time>2016-11-28T10:27:10Z</time>
      </trkpt>
      <trkpt lat="45.9631" lon="4.93942">
        <ele>292</ele>
        <time>2016-11-28T10:27:12Z</time>
      </trkpt>
      <trkpt lat="45.96314" lon="4.9394">
        <ele>292</ele>
        <time>2016-11-28T10:27:13Z</time>
      </trkpt>
      <trkpt lat="45.96322" lon="4.93937">
        <ele>292</ele>
        <time>2016-11-28T10:27:15Z</time>
      </trkpt>
      <trkpt lat="45.96326" lon="4.93936">
        <ele>292</ele>
        <time>2016-11-28T10:27:16Z</time>
      </trkpt>
      <trkpt lat="45.96334" lon="4.93933">
        <ele>293</ele>
        <time>2016-11-28T10:27:18Z</time>
      </trkpt>
      <trkpt lat="45.96337" lon="4.93932">
        <ele>293</ele>
        <time>2016-11-28T10:27:19Z</time>
      </trkpt>
      <trkpt lat="45.96345" lon="4.93929">
        <ele>293</ele>
        <time>2016-11-28T10:27:21Z</time>
      </trkpt>
      <trkpt lat="45.96348" lon="4.93927">
        <ele>293</ele>
        <time>2016-11-28T10:27:22Z</time>
      </trkpt>
      <trkpt lat="45.96356" lon="4.93925">
        <ele>294</ele>
        <time>2016-11-28T10:27:24Z</time>
      </trkpt>
      <trkpt lat="45.9636" lon="4.93924">
        <ele>294</ele>
        <time>2016-11-28T10:27:25Z</time>
      </trkpt>
      <trkpt lat="45.96368" lon="4.93921">
        <ele>294</ele>
        <time>2016-11-28T10:27:27Z</time>
      </trkpt>
      <trkpt lat="45.96372" lon="4.9392">
        <ele>294</ele>
        <time>2016-11-28T10:27:28Z</time>
      </trkpt>
      <trkpt lat="45.96379" lon="4.93917">
        <ele>294</ele>
        <time>2016-11-28T10:27:30Z</time>
      </trkpt>
      <trkpt lat="45.96383" lon="4.93916">
        <ele>294</ele>
        <time>2016-11-28T10:27:31Z</time>
      </trkpt>
      <trkpt lat="45.9639" lon="4.93913">
        <ele>294</ele>
        <time>2016-11-28T10:27:33Z</time>
      </trkpt>
      <trkpt lat="45.96394" lon="4.93911">
        <ele>295</ele>
        <time>2016-11-28T10:27:34Z</time>
      </trkpt>
      <trkpt lat="45.96402" lon="4.93909">
        <ele>295</ele>
        <time>2016-11-28T10:27:36Z</time>
      </trkpt>
      <trkpt lat="45.96405" lon="4.93908">
        <ele>295</ele>
        <time>2016-11-28T10:27:37Z</time>
      </trkpt>
      <trkpt lat="45.96413" lon="4.93905">
        <ele>295</ele>
        <time>2016-11-28T10:27:39Z</time>
      </trkpt>
      <trkpt lat="45.96416" lon="4.93903">
        <ele>295</ele>
        <time>2016-11-28T10:27:40Z</time>
      </trkpt>
      <trkpt lat="45.96424" lon="4.93901">
        <ele>296</ele>
        <time>2016-11-28T10:27:42Z</time>
      </trkpt>
      <trkpt lat="45.96428" lon="4.93899">
        <ele>296</ele>
        <time>2016-11-28T10:27:43Z</time>
      </trkpt>
      <trkpt lat="45.96436" lon="4.93896">
        <ele>296</ele>
        <time>2016-11-28T10:27:45Z</time>
      </trkpt>
      <trkpt lat="45.96439" lon="4.93895">
        <ele>296</ele>
        <time>2016-11-28T10:27:46Z</time>
      </trkpt>
      <trkpt lat="45.96447" lon="4.93892">
        <ele>296</ele>
        <time>2016-11-28T10:27:48Z</time>
      </trkpt>
      <trkpt lat="45.96451" lon="4.93891">
        <ele>296</ele>
        <time>2016-11-28T10:27:49Z</time>
      </trkpt>
      <trkpt lat="45.96458" lon="4.93888">
        <ele>296</ele>
        <time>2016-11-28T10:27:51Z</time>
      </trkpt>
      <trkpt lat="45.96462" lon="4.93887">
        <ele>295</ele>
        <time>2016-11-28T10:27:52Z</time>
      </trkpt>
      <trkpt lat="45.96469" lon="4.93885">
        <ele>295</ele>
        <time>2016-11-28T10:27:54Z</time>
      </trkpt>
      <trkpt lat="45.96473" lon="4.93883">
        <ele>295</ele>
        <time>2016-11-28T10:27:55Z</time>
      </trkpt>
      <trkpt lat="45.96481" lon="4.93881">
        <ele>295</ele>
        <time>2016-11-28T10:27:57Z</time>
      </trkpt>
      <trkpt lat="45.96485" lon="4.93879">
        <ele>295</ele>
        <time>2016-11-28T10:27:58Z</time>
      </trkpt>
      <trkpt lat="45.96493" lon="4.93876">
        <ele>295</ele>
        <time>2016-11-28T10:28:00Z</time>
      </trkpt>
      <trkpt lat="45.96497" lon="4.93874">
        <ele>296</ele>
        <time>2016-11-28T10:28:01Z</time>
      </trkpt>
      <trkpt lat="45.96505" lon="4.93871">
        <ele>296</ele>
        <time>2016-11-28T10:28:03Z</time>
      </trkpt>
      <trkpt lat="45.96509" lon="4.9387">
        <ele>296</ele>
        <time>2016-11-28T10:28:04Z</time>
      </trkpt>
      <trkpt lat="45.96517" lon="4.93867">
        <ele>296</ele>
        <time>2016-11-28T10:28:06Z</time>
      </trkpt>
      <trkpt lat="45.96521" lon="4.93866">
        <ele>296</ele>
        <time>2016-11-28T10:28:07Z</time>
      </trkpt>
      <trkpt lat="45.96529" lon="4.93863">
        <ele>296</ele>
        <time>2016-11-28T10:28:09Z</time>
      </trkpt>
      <trkpt lat="45.96533" lon="4.93862">
        <ele>296</ele>
        <time>2016-11-28T10:28:10Z</time>
      </trkpt>
      <trkpt lat="45.96541" lon="4.93859">
        <ele>296</ele>
        <time>2016-11-28T10:28:12Z</time>
      </trkpt>
      <trkpt lat="45.96545" lon="4.93857">
        <ele>296</ele>
        <time>2016-11-28T10:28:13Z</time>
      </trkpt>
      <trkpt lat="45.96553" lon="4.93855">
        <ele>296</ele>
        <time>2016-11-28T10:28:15Z</time>
      </trkpt>
      <trkpt lat="45.96557" lon="4.93854">
        <ele>296</ele>
        <time>2016-11-28T10:28:16Z</time>
      </trkpt>
      <trkpt lat="45.96565" lon="4.93851">
        <ele>296</ele>
        <time>2016-11-28T10:28:18Z</time>
      </trkpt>
      <trkpt lat="45.96569" lon="4.93849">
        <ele>296</ele>
        <time>2016-11-28T10:28:19Z</time>
      </trkpt>
      <trkpt lat="45.96577" lon="4.93846">
        <ele>296</ele>
        <time>2016-11-28T10:28:21Z</time>
      </trkpt>
      <trkpt lat="45.96581" lon="4.93844">
        <ele>296</ele>
        <time>2016-11-28T10:28:22Z</time>
      </trkpt>
      <trkpt lat="45.96589" lon="4.93841">
        <ele>296</ele>
        <time>2016-11-28T10:28:24Z</time>
      </trkpt>
      <trkpt lat="45.96594" lon="4.93839">
        <ele>296</ele>
        <time>2016-11-28T10:28:25Z</time>
      </trkpt>
      <trkpt lat="45.96599" lon="4.93838">
        <ele>296</ele>
        <time>2016-11-28T10:28:26Z</time>
      </trkpt>
      <trkpt lat="45.96604" lon="4.93836">
        <ele>296</ele>
        <time>2016-11-28T10:28:27Z</time>
      </trkpt>
      <trkpt lat="45.96612" lon="4.93834">
        <ele>296</ele>
        <time>2016-11-28T10:28:29Z</time>
      </trkpt>
      <trkpt lat="45.96616" lon="4.93833">
        <ele>297</ele>
        <time>2016-11-28T10:28:30Z</time>
      </trkpt>
      <trkpt lat="45.96625" lon="4.93831">
        <ele>297</ele>
        <time>2016-11-28T10:28:32Z</time>
      </trkpt>
      <trkpt lat="45.96629" lon="4.9383">
        <ele>297</ele>
        <time>2016-11-28T10:28:33Z</time>
      </trkpt>
      <trkpt lat="45.96634" lon="4.93829">
        <ele>297</ele>
        <time>2016-11-28T10:28:34Z</time>
      </trkpt>
      <trkpt lat="45.96638" lon="4.93827">
        <ele>297</ele>
        <time>2016-11-28T10:28:35Z</time>
      </trkpt>
      <trkpt lat="45.96643" lon="4.93826">
        <ele>297</ele>
        <time>2016-11-28T10:28:36Z</time>
      </trkpt>
      <trkpt lat="45.96647" lon="4.93824">
        <ele>297</ele>
        <time>2016-11-28T10:28:37Z</time>
      </trkpt>
      <trkpt lat="45.96651" lon="4.93822">
        <ele>297</ele>
        <time>2016-11-28T10:28:38Z</time>
      </trkpt>
      <trkpt lat="45.96656" lon="4.93821">
        <ele>298</ele>
        <time>2016-11-28T10:28:39Z</time>
      </trkpt>
      <trkpt lat="45.96661" lon="4.93819">
        <ele>298</ele>
        <time>2016-11-28T10:28:40Z</time>
      </trkpt>
      <trkpt lat="45.96665" lon="4.93817">
        <ele>298</ele>
        <time>2016-11-28T10:28:41Z</time>
      </trkpt>
      <trkpt lat="45.96669" lon="4.93816">
        <ele>297</ele>
        <time>2016-11-28T10:28:42Z</time>
      </trkpt>
      <trkpt lat="45.96674" lon="4.93814">
        <ele>297</ele>
        <time>2016-11-28T10:28:43Z</time>
      </trkpt>
      <trkpt lat="45.96682" lon="4.93811">
        <ele>297</ele>
        <time>2016-11-28T10:28:45Z</time>
      </trkpt>
      <trkpt lat="45.96687" lon="4.93809">
        <ele>297</ele>
        <time>2016-11-28T10:28:46Z</time>
      </trkpt>
      <trkpt lat="45.96695" lon="4.93806">
        <ele>297</ele>
        <time>2016-11-28T10:28:48Z</time>
      </trkpt>
      <trkpt lat="45.967" lon="4.93805">
        <ele>296</ele>
        <time>2016-11-28T10:28:49Z</time>
      </trkpt>
      <trkpt lat="45.96708" lon="4.93802">
        <ele>296</ele>
        <time>2016-11-28T10:28:51Z</time>
      </trkpt>
      <trkpt lat="45.96712" lon="4.93801">
        <ele>296</ele>
        <time>2016-11-28T10:28:52Z</time>
      </trkpt>
      <trkpt lat="45.96721" lon="4.93798">
        <ele>296</ele>
        <time>2016-11-28T10:28:54Z</time>
      </trkpt>
      <trkpt lat="45.96725" lon="4.93796">
        <ele>296</ele>
        <time>2016-11-28T10:28:55Z</time>
      </trkpt>
      <trkpt lat="45.96734" lon="4.93793">
        <ele>296</ele>
        <time>2016-11-28T10:28:57Z</time>
      </trkpt>
      <trkpt lat="45.96738" lon="4.93792">
        <ele>296</ele>
        <time>2016-11-28T10:28:58Z</time>
      </trkpt>
      <trkpt lat="45.96747" lon="4.93789">
        <ele>296</ele>
        <time>2016-11-28T10:29:00Z</time>
      </trkpt>
      <trkpt lat="45.96751" lon="4.93788">
        <ele>295</ele>
        <time>2016-11-28T10:29:01Z</time>
      </trkpt>
      <trkpt lat="45.96759" lon="4.93785">
        <ele>295</ele>
        <time>2016-11-28T10:29:03Z</time>
      </trkpt>
      <trkpt lat="45.96763" lon="4.93783">
        <ele>295</ele>
        <time>2016-11-28T10:29:04Z</time>
      </trkpt>
      <trkpt lat="45.96771" lon="4.9378">
        <ele>295</ele>
        <time>2016-11-28T10:29:06Z</time>
      </trkpt>
      <trkpt lat="45.96775" lon="4.93778">
        <ele>295</ele>
        <time>2016-11-28T10:29:07Z</time>
      </trkpt>
      <trkpt lat="45.96783" lon="4.93776">
        <ele>295</ele>
        <time>2016-11-28T10:29:09Z</time>
      </trkpt>
      <trkpt lat="45.96787" lon="4.93775">
        <ele>295</ele>
        <time>2016-11-28T10:29:10Z</time>
      </trkpt>
      <trkpt lat="45.96795" lon="4.93773">
        <ele>295</ele>
        <time>2016-11-28T10:29:12Z</time>
      </trkpt>
      <trkpt lat="45.968" lon="4.93772">
        <ele>295</ele>
        <time>2016-11-28T10:29:13Z</time>
      </trkpt>
      <trkpt lat="45.96808" lon="4.93769">
        <ele>295</ele>
        <time>2016-11-28T10:29:15Z</time>
      </trkpt>
      <trkpt lat="45.96812" lon="4.93768">
        <ele>295</ele>
        <time>2016-11-28T10:29:16Z</time>
      </trkpt>
      <trkpt lat="45.9682" lon="4.93765">
        <ele>296</ele>
        <time>2016-11-28T10:29:18Z</time>
      </trkpt>
      <trkpt lat="45.96823" lon="4.93764">
        <ele>296</ele>
        <time>2016-11-28T10:29:19Z</time>
      </trkpt>
      <trkpt lat="45.96831" lon="4.93761">
        <ele>296</ele>
        <time>2016-11-28T10:29:21Z</time>
      </trkpt>
      <trkpt lat="45.96834" lon="4.9376">
        <ele>296</ele>
        <time>2016-11-28T10:29:22Z</time>
      </trkpt>
      <trkpt lat="45.96842" lon="4.93758">
        <ele>296</ele>
        <time>2016-11-28T10:29:24Z</time>
      </trkpt>
      <trkpt lat="45.96846" lon="4.93756">
        <ele>296</ele>
        <time>2016-11-28T10:29:25Z</time>
      </trkpt>
      <trkpt lat="45.96854" lon="4.93754">
        <ele>296</ele>
        <time>2016-11-28T10:29:27Z</time>
      </trkpt>
      <trkpt lat="45.96858" lon="4.93753">
        <ele>296</ele>
        <time>2016-11-28T10:29:28Z</time>
      </trkpt>
      <trkpt lat="45.96867" lon="4.9375">
        <ele>296</ele>
        <time>2016-11-28T10:29:30Z</time>
      </trkpt>
      <trkpt lat="45.96871" lon="4.93748">
        <ele>297</ele>
        <time>2016-11-28T10:29:31Z</time>
      </trkpt>
      <trkpt lat="45.96876" lon="4.93746">
        <ele>297</ele>
        <time>2016-11-28T10:29:32Z</time>
      </trkpt>
      <trkpt lat="45.9688" lon="4.93743">
        <ele>297</ele>
        <time>2016-11-28T10:29:33Z</time>
      </trkpt>
      <trkpt lat="45.96888" lon="4.93739">
        <ele>297</ele>
        <time>2016-11-28T10:29:35Z</time>
      </trkpt>
      <trkpt lat="45.96892" lon="4.93737">
        <ele>297</ele>
        <time>2016-11-28T10:29:36Z</time>
      </trkpt>
      <trkpt lat="45.96899" lon="4.93733">
        <ele>297</ele>
        <time>2016-11-28T10:29:38Z</time>
      </trkpt>
      <trkpt lat="45.96902" lon="4.9373">
        <ele>297</ele>
        <time>2016-11-28T10:29:39Z</time>
      </trkpt>
      <trkpt lat="45.96909" lon="4.93725">
        <ele>297</ele>
        <time>2016-11-28T10:29:41Z</time>
      </trkpt>
      <trkpt lat="45.96913" lon="4.93722">
        <ele>297</ele>
        <time>2016-11-28T10:29:42Z</time>
      </trkpt>
      <trkpt lat="45.96919" lon="4.93716">
        <ele>298</ele>
        <time>2016-11-28T10:29:44Z</time>
      </trkpt>
      <trkpt lat="45.96922" lon="4.93713">
        <ele>298</ele>
        <time>2016-11-28T10:29:45Z</time>
      </trkpt>
      <trkpt lat="45.96929" lon="4.93706">
        <ele>298</ele>
        <time>2016-11-28T10:29:47Z</time>
      </trkpt>
      <trkpt lat="45.96932" lon="4.93702">
        <ele>298</ele>
        <time>2016-11-28T10:29:48Z</time>
      </trkpt>
      <trkpt lat="45.96939" lon="4.93695">
        <ele>298</ele>
        <time>2016-11-28T10:29:50Z</time>
      </trkpt>
      <trkpt lat="45.96942" lon="4.93691">
        <ele>298</ele>
        <time>2016-11-28T10:29:51Z</time>
      </trkpt>
      <trkpt lat="45.96948" lon="4.93684">
        <ele>298</ele>
        <time>2016-11-28T10:29:53Z</time>
      </trkpt>
      <trkpt lat="45.96951" lon="4.9368">
        <ele>298</ele>
        <time>2016-11-28T10:29:54Z</time>
      </trkpt>
      <trkpt lat="45.96957" lon="4.93672">
        <ele>298</ele>
        <time>2016-11-28T10:29:56Z</time>
      </trkpt>
      <trkpt lat="45.9696" lon="4.93669">
        <ele>298</ele>
        <time>2016-11-28T10:29:57Z</time>
      </trkpt>
      <trkpt lat="45.96966" lon="4.93662">
        <ele>299</ele>
        <time>2016-11-28T10:29:59Z</time>
      </trkpt>
      <trkpt lat="45.96969" lon="4.93658">
        <ele>299</ele>
        <time>2016-11-28T10:30:00Z</time>
      </trkpt>
      <trkpt lat="45.96976" lon="4.9365">
        <ele>299</ele>
        <time>2016-11-28T10:30:02Z</time>
      </trkpt>
      <trkpt lat="45.96979" lon="4.93646">
        <ele>299</ele>
        <time>2016-11-28T10:30:03Z</time>
      </trkpt>
      <trkpt lat="45.96984" lon="4.93638">
        <ele>299</ele>
        <time>2016-11-28T10:30:05Z</time>
      </trkpt>
      <trkpt lat="45.96987" lon="4.93634">
        <ele>299</ele>
        <time>2016-11-28T10:30:06Z</time>
      </trkpt>
      <trkpt lat="45.96993" lon="4.93626">
        <ele>299</ele>
        <time>2016-11-28T10:30:08Z</time>
      </trkpt>
      <trkpt lat="45.96996" lon="4.93622">
        <ele>299</ele>
        <time>2016-11-28T10:30:09Z</time>
      </trkpt>
      <trkpt lat="45.97002" lon="4.93614">
        <ele>300</ele>
        <time>2016-11-28T10:30:11Z</time>
      </trkpt>
      <trkpt lat="45.97005" lon="4.9361">
        <ele>300</ele>
        <time>2016-11-28T10:30:12Z</time>
      </trkpt>
      <trkpt lat="45.97012" lon="4.93602">
        <ele>300</ele>
        <time>2016-11-28T10:30:14Z</time>
      </trkpt>
      <trkpt lat="45.97015" lon="4.93599">
        <ele>300</ele>
        <time>2016-11-28T10:30:15Z</time>
      </trkpt>
      <trkpt lat="45.97022" lon="4.9359">
        <ele>300</ele>
        <time>2016-11-28T10:30:17Z</time>
      </trkpt>
      <trkpt lat="45.97025" lon="4.93586">
        <ele>300</ele>
        <time>2016-11-28T10:30:18Z</time>
      </trkpt>
      <trkpt lat="45.97032" lon="4.93578">
        <ele>299</ele>
        <time>2016-11-28T10:30:20Z</time>
      </trkpt>
      <trkpt lat="45.97035" lon="4.93574">
        <ele>299</ele>
        <time>2016-11-28T10:30:21Z</time>
      </trkpt>
      <trkpt lat="45.97038" lon="4.9357">
        <ele>299</ele>
        <time>2016-11-28T10:30:22Z</time>
      </trkpt>
      <trkpt lat="45.97042" lon="4.93565">
        <ele>299</ele>
        <time>2016-11-28T10:30:23Z</time>
      </trkpt>
      <trkpt lat="45.97045" lon="4.93561">
        <ele>299</ele>
        <time>2016-11-28T10:30:24Z</time>
      </trkpt>
      <trkpt lat="45.97049" lon="4.93557">
        <ele>299</ele>
        <time>2016-11-28T10:30:25Z</time>
      </trkpt>
      <trkpt lat="45.97056" lon="4.93549">
        <ele>299</ele>
        <time>2016-11-28T10:30:27Z</time>
      </trkpt>
      <trkpt lat="45.97059" lon="4.93544">
        <ele>299</ele>
        <time>2016-11-28T10:30:28Z</time>
      </trkpt>
      <trkpt lat="45.97065" lon="4.93536">
        <ele>299</ele>
        <time>2016-11-28T10:30:30Z</time>
      </trkpt>
      <trkpt lat="45.97068" lon="4.93532">
        <ele>299</ele>
        <time>2016-11-28T10:30:31Z</time>
      </trkpt>
      <trkpt lat="45.97074" lon="4.93524">
        <ele>299</ele>
        <time>2016-11-28T10:30:33Z</time>
      </trkpt>
      <trkpt lat="45.97078" lon="4.9352">
        <ele>299</ele>
        <time>2016-11-28T10:30:34Z</time>
      </trkpt>
      <trkpt lat="45.97085" lon="4.93513">
        <ele>301</ele>
        <time>2016-11-28T10:30:36Z</time>
      </trkpt>
      <trkpt lat="45.97088" lon="4.93509">
        <ele>300</ele>
        <time>2016-11-28T10:30:37Z</time>
      </trkpt>
      <trkpt lat="45.97094" lon="4.93502">
        <ele>301</ele>
        <time>2016-11-28T10:30:39Z</time>
      </trkpt>
      <trkpt lat="45.97097" lon="4.93498">
        <ele>301</ele>
        <time>2016-11-28T10:30:40Z</time>
      </trkpt>
      <trkpt lat="45.97102" lon="4.93492">
        <ele>301</ele>
        <time>2016-11-28T10:30:42Z</time>
      </trkpt>
      <trkpt lat="45.97105" lon="4.93488">
        <ele>301</ele>
        <time>2016-11-28T10:30:43Z</time>
      </trkpt>
      <trkpt lat="45.97111" lon="4.9348">
        <ele>301</ele>
        <time>2016-11-28T10:30:45Z</time>
      </trkpt>
      <trkpt lat="45.97115" lon="4.93476">
        <ele>301</ele>
        <time>2016-11-28T10:30:46Z</time>
      </trkpt>
      <trkpt lat="45.97121" lon="4.93468">
        <ele>301</ele>
        <time>2016-11-28T10:30:48Z</time>
      </trkpt>
      <trkpt lat="45.97124" lon="4.93463">
        <ele>301</ele>
        <time>2016-11-28T10:30:49Z</time>
      </trkpt>
      <trkpt lat="45.97131" lon="4.93455">
        <ele>301</ele>
        <time>2016-11-28T10:30:51Z</time>
      </trkpt>
      <trkpt lat="45.97134" lon="4.93451">
        <ele>301</ele>
        <time>2016-11-28T10:30:52Z</time>
      </trkpt>
      <trkpt lat="45.97138" lon="4.93447">
        <ele>301</ele>
        <time>2016-11-28T10:30:53Z</time>
      </trkpt>
      <trkpt lat="45.97141" lon="4.93442">
        <ele>301</ele>
        <time>2016-11-28T10:30:54Z</time>
      </trkpt>
      <trkpt lat="45.97145" lon="4.93438">
        <ele>301</ele>
        <time>2016-11-28T10:30:55Z</time>
      </trkpt>
      <trkpt lat="45.97149" lon="4.93434">
        <ele>302</ele>
        <time>2016-11-28T10:30:56Z</time>
      </trkpt>
      <trkpt lat="45.97152" lon="4.9343">
        <ele>302</ele>
        <time>2016-11-28T10:30:57Z</time>
      </trkpt>
      <trkpt lat="45.97156" lon="4.93425">
        <ele>302</ele>
        <time>2016-11-28T10:30:58Z</time>
      </trkpt>
      <trkpt lat="45.9716" lon="4.9342">
        <ele>302</ele>
        <time>2016-11-28T10:30:59Z</time>
      </trkpt>
      <trkpt lat="45.97164" lon="4.93415">
        <ele>302</ele>
        <time>2016-11-28T10:31:00Z</time>
      </trkpt>
      <trkpt lat="45.97167" lon="4.93411">
        <ele>302</ele>
        <time>2016-11-28T10:31:01Z</time>
      </trkpt>
      <trkpt lat="45.97171" lon="4.93406">
        <ele>302</ele>
        <time>2016-11-28T10:31:02Z</time>
      </trkpt>
      <trkpt lat="45.97174" lon="4.93402">
        <ele>302</ele>
        <time>2016-11-28T10:31:03Z</time>
      </trkpt>
      <trkpt lat="45.97178" lon="4.93398">
        <ele>301</ele>
        <time>2016-11-28T10:31:04Z</time>
      </trkpt>
      <trkpt lat="45.97182" lon="4.93393">
        <ele>301</ele>
        <time>2016-11-28T10:31:05Z</time>
      </trkpt>
      <trkpt lat="45.97186" lon="4.93389">
        <ele>301</ele>
        <time>2016-11-28T10:31:06Z</time>
      </trkpt>
      <trkpt lat="45.9719" lon="4.93385">
        <ele>301</ele>
        <time>2016-11-28T10:31:07Z</time>
      </trkpt>
      <trkpt lat="45.97194" lon="4.9338">
        <ele>301</ele>
        <time>2016-11-28T10:31:08Z</time>
      </trkpt>
      <trkpt lat="45.97198" lon="4.93375">
        <ele>301</ele>
        <time>2016-11-28T10:31:09Z</time>
      </trkpt>
      <trkpt lat="45.97202" lon="4.9337">
        <ele>301</ele>
        <time>2016-11-28T10:31:10Z</time>
      </trkpt>
      <trkpt lat="45.97206" lon="4.93366">
        <ele>301</ele>
        <time>2016-11-28T10:31:11Z</time>
      </trkpt>
      <trkpt lat="45.9721" lon="4.93361">
        <ele>301</ele>
        <time>2016-11-28T10:31:12Z</time>
      </trkpt>
      <trkpt lat="45.97214" lon="4.93357">
        <ele>301</ele>
        <time>2016-11-28T10:31:13Z</time>
      </trkpt>
      <trkpt lat="45.97218" lon="4.93352">
        <ele>301</ele>
        <time>2016-11-28T10:31:14Z</time>
      </trkpt>
      <trkpt lat="45.97222" lon="4.93348">
        <ele>301</ele>
        <time>2016-11-28T10:31:15Z</time>
      </trkpt>
      <trkpt lat="45.97225" lon="4.93343">
        <ele>301</ele>
        <time>2016-11-28T10:31:16Z</time>
      </trkpt>
      <trkpt lat="45.97229" lon="4.93338">
        <ele>301</ele>
        <time>2016-11-28T10:31:17Z</time>
      </trkpt>
      <trkpt lat="45.97232" lon="4.93333">
        <ele>301</ele>
        <time>2016-11-28T10:31:18Z</time>
      </trkpt>
      <trkpt lat="45.97236" lon="4.93329">
        <ele>301</ele>
        <time>2016-11-28T10:31:19Z</time>
      </trkpt>
      <trkpt lat="45.9724" lon="4.93324">
        <ele>301</ele>
        <time>2016-11-28T10:31:20Z</time>
      </trkpt>
      <trkpt lat="45.97244" lon="4.93318">
        <ele>301</ele>
        <time>2016-11-28T10:31:21Z</time>
      </trkpt>
      <trkpt lat="45.97248" lon="4.93313">
        <ele>301</ele>
        <time>2016-11-28T10:31:22Z</time>
      </trkpt>
      <trkpt lat="45.97252" lon="4.93308">
        <ele>302</ele>
        <time>2016-11-28T10:31:23Z</time>
      </trkpt>
      <trkpt lat="45.97256" lon="4.93303">
        <ele>302</ele>
        <time>2016-11-28T10:31:24Z</time>
      </trkpt>
      <trkpt lat="45.9726" lon="4.93297">
        <ele>302</ele>
        <time>2016-11-28T10:31:25Z</time>
      </trkpt>
      <trkpt lat="45.97264" lon="4.93292">
        <ele>302</ele>
        <time>2016-11-28T10:31:26Z</time>
      </trkpt>
      <trkpt lat="45.97268" lon="4.93286">
        <ele>302</ele>
        <time>2016-11-28T10:31:27Z</time>
      </trkpt>
      <trkpt lat="45.97272" lon="4.93281">
        <ele>302</ele>
        <time>2016-11-28T10:31:28Z</time>
      </trkpt>
      <trkpt lat="45.97276" lon="4.93276">
        <ele>302</ele>
        <time>2016-11-28T10:31:29Z</time>
      </trkpt>
      <trkpt lat="45.9728" lon="4.93271">
        <ele>302</ele>
        <time>2016-11-28T10:31:30Z</time>
      </trkpt>
      <trkpt lat="45.97284" lon="4.93266">
        <ele>302</ele>
        <time>2016-11-28T10:31:31Z</time>
      </trkpt>
      <trkpt lat="45.97288" lon="4.93261">
        <ele>302</ele>
        <time>2016-11-28T10:31:32Z</time>
      </trkpt>
      <trkpt lat="45.97292" lon="4.93256">
        <ele>302</ele>
        <time>2016-11-28T10:31:33Z</time>
      </trkpt>
      <trkpt lat="45.97296" lon="4.93251">
        <ele>302</ele>
        <time>2016-11-28T10:31:34Z</time>
      </trkpt>
      <trkpt lat="45.973" lon="4.93246">
        <ele>302</ele>
        <time>2016-11-28T10:31:35Z</time>
      </trkpt>
      <trkpt lat="45.97307" lon="4.93239">
        <ele>302</ele>
        <time>2016-11-28T10:31:36Z</time>
      </trkpt>
      <trkpt lat="45.97312" lon="4.93233">
        <ele>302</ele>
        <time>2016-11-28T10:31:37Z</time>
      </trkpt>
      <trkpt lat="45.97316" lon="4.93228">
        <ele>302</ele>
        <time>2016-11-28T10:31:38Z</time>
      </trkpt>
      <trkpt lat="45.9732" lon="4.93223">
        <ele>302</ele>
        <time>2016-11-28T10:31:39Z</time>
      </trkpt>
      <trkpt lat="45.97324" lon="4.93219">
        <ele>302</ele>
        <time>2016-11-28T10:31:40Z</time>
      </trkpt>
      <trkpt lat="45.97331" lon="4.93211">
        <ele>302</ele>
        <time>2016-11-28T10:31:42Z</time>
      </trkpt>
      <trkpt lat="45.97333" lon="4.93206">
        <ele>302</ele>
        <time>2016-11-28T10:31:43Z</time>
      </trkpt>
      <trkpt lat="45.97339" lon="4.93199">
        <ele>301</ele>
        <time>2016-11-28T10:31:45Z</time>
      </trkpt>
      <trkpt lat="45.97342" lon="4.93195">
        <ele>301</ele>
        <time>2016-11-28T10:31:46Z</time>
      </trkpt>
      <trkpt lat="45.97345" lon="4.93191">
        <ele>301</ele>
        <time>2016-11-28T10:31:47Z</time>
      </trkpt>
      <trkpt lat="45.97349" lon="4.93187">
        <ele>301</ele>
        <time>2016-11-28T10:31:48Z</time>
      </trkpt>
      <trkpt lat="45.97353" lon="4.93181">
        <ele>301</ele>
        <time>2016-11-28T10:31:49Z</time>
      </trkpt>
      <trkpt lat="45.97357" lon="4.93176">
        <ele>301</ele>
        <time>2016-11-28T10:31:50Z</time>
      </trkpt>
      <trkpt lat="45.97361" lon="4.93171">
        <ele>301</ele>
        <time>2016-11-28T10:31:51Z</time>
      </trkpt>
      <trkpt lat="45.97365" lon="4.93167">
        <ele>300</ele>
        <time>2016-11-28T10:31:52Z</time>
      </trkpt>
      <trkpt lat="45.97369" lon="4.93162">
        <ele>300</ele>
        <time>2016-11-28T10:31:53Z</time>
      </trkpt>
      <trkpt lat="45.97373" lon="4.93157">
        <ele>300</ele>
        <time>2016-11-28T10:31:54Z</time>
      </trkpt>
      <trkpt lat="45.97377" lon="4.93152">
        <ele>300</ele>
        <time>2016-11-28T10:31:55Z</time>
      </trkpt>
      <trkpt lat="45.97381" lon="4.93147">
        <ele>300</ele>
        <time>2016-11-28T10:31:56Z</time>
      </trkpt>
      <trkpt lat="45.97385" lon="4.93142">
        <ele>300</ele>
        <time>2016-11-28T10:31:57Z</time>
      </trkpt>
      <trkpt lat="45.97389" lon="4.93137">
        <ele>300</ele>
        <time>2016-11-28T10:31:58Z</time>
      </trkpt>
      <trkpt lat="45.97393" lon="4.93133">
        <ele>300</ele>
        <time>2016-11-28T10:31:59Z</time>
      </trkpt>
      <trkpt lat="45.97397" lon="4.93129">
        <ele>300</ele>
        <time>2016-11-28T10:32:00Z</time>
      </trkpt>
      <trkpt lat="45.974" lon="4.93124">
        <ele>300</ele>
        <time>2016-11-28T10:32:01Z</time>
      </trkpt>
      <trkpt lat="45.97404" lon="4.9312">
        <ele>300</ele>
        <time>2016-11-28T10:32:02Z</time>
      </trkpt>
      <trkpt lat="45.97408" lon="4.93115">
        <ele>300</ele>
        <time>2016-11-28T10:32:03Z</time>
      </trkpt>
      <trkpt lat="45.97412" lon="4.9311">
        <ele>300</ele>
        <time>2016-11-28T10:32:04Z</time>
      </trkpt>
      <trkpt lat="45.97416" lon="4.93106">
        <ele>300</ele>
        <time>2016-11-28T10:32:05Z</time>
      </trkpt>
      <trkpt lat="45.9742" lon="4.93101">
        <ele>299</ele>
        <time>2016-11-28T10:32:06Z</time>
      </trkpt>
      <trkpt lat="45.97424" lon="4.93096">
        <ele>299</ele>
        <time>2016-11-28T10:32:07Z</time>
      </trkpt>
      <trkpt lat="45.97428" lon="4.93091">
        <ele>299</ele>
        <time>2016-11-28T10:32:08Z</time>
      </trkpt>
      <trkpt lat="45.97432" lon="4.93087">
        <ele>299</ele>
        <time>2016-11-28T10:32:09Z</time>
      </trkpt>
      <trkpt lat="45.97437" lon="4.93082">
        <ele>299</ele>
        <time>2016-11-28T10:32:10Z</time>
      </trkpt>
      <trkpt lat="45.97441" lon="4.93077">
        <ele>299</ele>
        <time>2016-11-28T10:32:11Z</time>
      </trkpt>
      <trkpt lat="45.97445" lon="4.93072">
        <ele>299</ele>
        <time>2016-11-28T10:32:12Z</time>
      </trkpt>
      <trkpt lat="45.97449" lon="4.93067">
        <ele>299</ele>
        <time>2016-11-28T10:32:13Z</time>
      </trkpt>
      <trkpt lat="45.97453" lon="4.93062">
        <ele>299</ele>
        <time>2016-11-28T10:32:14Z</time>
      </trkpt>
      <trkpt lat="45.97457" lon="4.93057">
        <ele>299</ele>
        <time>2016-11-28T10:32:15Z</time>
      </trkpt>
      <trkpt lat="45.97461" lon="4.93051">
        <ele>299</ele>
        <time>2016-11-28T10:32:16Z</time>
      </trkpt>
      <trkpt lat="45.97465" lon="4.93046">
        <ele>299</ele>
        <time>2016-11-28T10:32:17Z</time>
      </trkpt>
      <trkpt lat="45.97469" lon="4.93041">
        <ele>299</ele>
        <time>2016-11-28T10:32:18Z</time>
      </trkpt>
      <trkpt lat="45.97473" lon="4.93037">
        <ele>299</ele>
        <time>2016-11-28T10:32:19Z</time>
      </trkpt>
      <trkpt lat="45.97477" lon="4.93032">
        <ele>299</ele>
        <time>2016-11-28T10:32:20Z</time>
      </trkpt>
      <trkpt lat="45.97481" lon="4.93027">
        <ele>299</ele>
        <time>2016-11-28T10:32:21Z</time>
      </trkpt>
      <trkpt lat="45.97484" lon="4.93023">
        <ele>299</ele>
        <time>2016-11-28T10:32:22Z</time>
      </trkpt>
      <trkpt lat="45.97489" lon="4.93018">
        <ele>299</ele>
        <time>2016-11-28T10:32:23Z</time>
      </trkpt>
      <trkpt lat="45.97493" lon="4.93013">
        <ele>299</ele>
        <time>2016-11-28T10:32:24Z</time>
      </trkpt>
      <trkpt lat="45.97497" lon="4.93008">
        <ele>299</ele>
        <time>2016-11-28T10:32:25Z</time>
      </trkpt>
      <trkpt lat="45.97501" lon="4.93004">
        <ele>299</ele>
        <time>2016-11-28T10:32:26Z</time>
      </trkpt>
      <trkpt lat="45.97505" lon="4.92999">
        <ele>299</ele>
        <time>2016-11-28T10:32:27Z</time>
      </trkpt>
      <trkpt lat="45.97509" lon="4.92994">
        <ele>299</ele>
        <time>2016-11-28T10:32:28Z</time>
      </trkpt>
      <trkpt lat="45.97513" lon="4.92989">
        <ele>299</ele>
        <time>2016-11-28T10:32:29Z</time>
      </trkpt>
      <trkpt lat="45.97517" lon="4.92985">
        <ele>299</ele>
        <time>2016-11-28T10:32:30Z</time>
      </trkpt>
      <trkpt lat="45.97521" lon="4.9298">
        <ele>299</ele>
        <time>2016-11-28T10:32:31Z</time>
      </trkpt>
      <trkpt lat="45.97525" lon="4.92975">
        <ele>299</ele>
        <time>2016-11-28T10:32:32Z</time>
      </trkpt>
      <trkpt lat="45.97529" lon="4.9297">
        <ele>299</ele>
        <time>2016-11-28T10:32:33Z</time>
      </trkpt>
      <trkpt lat="45.97533" lon="4.92966">
        <ele>299</ele>
        <time>2016-11-28T10:32:34Z</time>
      </trkpt>
      <trkpt lat="45.97537" lon="4.92961">
        <ele>299</ele>
        <time>2016-11-28T10:32:35Z</time>
      </trkpt>
      <trkpt lat="45.97541" lon="4.92956">
        <ele>299</ele>
        <time>2016-11-28T10:32:36Z</time>
      </trkpt>
      <trkpt lat="45.97544" lon="4.92951">
        <ele>299</ele>
        <time>2016-11-28T10:32:37Z</time>
      </trkpt>
      <trkpt lat="45.97548" lon="4.92947">
        <ele>299</ele>
        <time>2016-11-28T10:32:38Z</time>
      </trkpt>
      <trkpt lat="45.97552" lon="4.92942">
        <ele>299</ele>
        <time>2016-11-28T10:32:39Z</time>
      </trkpt>
      <trkpt lat="45.97555" lon="4.92937">
        <ele>299</ele>
        <time>2016-11-28T10:32:40Z</time>
      </trkpt>
      <trkpt lat="45.97559" lon="4.92932">
        <ele>299</ele>
        <time>2016-11-28T10:32:41Z</time>
      </trkpt>
      <trkpt lat="45.97563" lon="4.92927">
        <ele>298</ele>
        <time>2016-11-28T10:32:42Z</time>
      </trkpt>
      <trkpt lat="45.97567" lon="4.92923">
        <ele>298</ele>
        <time>2016-11-28T10:32:43Z</time>
      </trkpt>
      <trkpt lat="45.97571" lon="4.92918">
        <ele>298</ele>
        <time>2016-11-28T10:32:44Z</time>
      </trkpt>
      <trkpt lat="45.97574" lon="4.92914">
        <ele>298</ele>
        <time>2016-11-28T10:32:45Z</time>
      </trkpt>
      <trkpt lat="45.97578" lon="4.9291">
        <ele>298</ele>
        <time>2016-11-28T10:32:46Z</time>
      </trkpt>
      <trkpt lat="45.97582" lon="4.92906">
        <ele>298</ele>
        <time>2016-11-28T10:32:47Z</time>
      </trkpt>
      <trkpt lat="45.97586" lon="4.92901">
        <ele>298</ele>
        <time>2016-11-28T10:32:48Z</time>
      </trkpt>
      <trkpt lat="45.9759" lon="4.92896">
        <ele>298</ele>
        <time>2016-11-28T10:32:49Z</time>
      </trkpt>
      <trkpt lat="45.97593" lon="4.92891">
        <ele>298</ele>
        <time>2016-11-28T10:32:50Z</time>
      </trkpt>
      <trkpt lat="45.97597" lon="4.92886">
        <ele>298</ele>
        <time>2016-11-28T10:32:51Z</time>
      </trkpt>
      <trkpt lat="45.97601" lon="4.92881">
        <ele>298</ele>
        <time>2016-11-28T10:32:52Z</time>
      </trkpt>
      <trkpt lat="45.97605" lon="4.92876">
        <ele>298</ele>
        <time>2016-11-28T10:32:53Z</time>
      </trkpt>
      <trkpt lat="45.97609" lon="4.92872">
        <ele>298</ele>
        <time>2016-11-28T10:32:54Z</time>
      </trkpt>
      <trkpt lat="45.97613" lon="4.92867">
        <ele>298</ele>
        <time>2016-11-28T10:32:55Z</time>
      </trkpt>
      <trkpt lat="45.97617" lon="4.92861">
        <ele>298</ele>
        <time>2016-11-28T10:32:56Z</time>
      </trkpt>
      <trkpt lat="45.97621" lon="4.92856">
        <ele>298</ele>
        <time>2016-11-28T10:32:57Z</time>
      </trkpt>
      <trkpt lat="45.97625" lon="4.92851">
        <ele>298</ele>
        <time>2016-11-28T10:32:58Z</time>
      </trkpt>
      <trkpt lat="45.97629" lon="4.92847">
        <ele>298</ele>
        <time>2016-11-28T10:32:59Z</time>
      </trkpt>
      <trkpt lat="45.97633" lon="4.92842">
        <ele>298</ele>
        <time>2016-11-28T10:33:00Z</time>
      </trkpt>
      <trkpt lat="45.97637" lon="4.92837">
        <ele>298</ele>
        <time>2016-11-28T10:33:01Z</time>
      </trkpt>
      <trkpt lat="45.97641" lon="4.92833">
        <ele>300</ele>
        <time>2016-11-28T10:33:02Z</time>
      </trkpt>
      <trkpt lat="45.97645" lon="4.92828">
        <ele>300</ele>
        <time>2016-11-28T10:33:03Z</time>
      </trkpt>
      <trkpt lat="45.97648" lon="4.92823">
        <ele>300</ele>
        <time>2016-11-28T10:33:04Z</time>
      </trkpt>
      <trkpt lat="45.97652" lon="4.92819">
        <ele>300</ele>
        <time>2016-11-28T10:33:05Z</time>
      </trkpt>
      <trkpt lat="45.97656" lon="4.92814">
        <ele>300</ele>
        <time>2016-11-28T10:33:06Z</time>
      </trkpt>
      <trkpt lat="45.97659" lon="4.92809">
        <ele>300</ele>
        <time>2016-11-28T10:33:07Z</time>
      </trkpt>
      <trkpt lat="45.97663" lon="4.92805">
        <ele>300</ele>
        <time>2016-11-28T10:33:08Z</time>
      </trkpt>
      <trkpt lat="45.97667" lon="4.928">
        <ele>300</ele>
        <time>2016-11-28T10:33:09Z</time>
      </trkpt>
      <trkpt lat="45.97671" lon="4.92795">
        <ele>301</ele>
        <time>2016-11-28T10:33:10Z</time>
      </trkpt>
      <trkpt lat="45.97675" lon="4.9279">
        <ele>301</ele>
        <time>2016-11-28T10:33:11Z</time>
      </trkpt>
      <trkpt lat="45.97679" lon="4.92785">
        <ele>301</ele>
        <time>2016-11-28T10:33:12Z</time>
      </trkpt>
      <trkpt lat="45.97683" lon="4.9278">
        <ele>301</ele>
        <time>2016-11-28T10:33:13Z</time>
      </trkpt>
      <trkpt lat="45.97686" lon="4.92776">
        <ele>301</ele>
        <time>2016-11-28T10:33:14Z</time>
      </trkpt>
      <trkpt lat="45.9769" lon="4.92771">
        <ele>301</ele>
        <time>2016-11-28T10:33:15Z</time>
      </trkpt>
      <trkpt lat="45.97694" lon="4.92767">
        <ele>301</ele>
        <time>2016-11-28T10:33:16Z</time>
      </trkpt>
      <trkpt lat="45.97698" lon="4.92762">
        <ele>301</ele>
        <time>2016-11-28T10:33:17Z</time>
      </trkpt>
      <trkpt lat="45.97702" lon="4.92757">
        <ele>301</ele>
        <time>2016-11-28T10:33:18Z</time>
      </trkpt>
      <trkpt lat="45.97706" lon="4.92753">
        <ele>301</ele>
        <time>2016-11-28T10:33:19Z</time>
      </trkpt>
      <trkpt lat="45.9771" lon="4.92747">
        <ele>301</ele>
        <time>2016-11-28T10:33:20Z</time>
      </trkpt>
      <trkpt lat="45.97714" lon="4.92743">
        <ele>301</ele>
        <time>2016-11-28T10:33:21Z</time>
      </trkpt>
      <trkpt lat="45.97718" lon="4.92738">
        <ele>301</ele>
        <time>2016-11-28T10:33:22Z</time>
      </trkpt>
      <trkpt lat="45.97722" lon="4.92733">
        <ele>301</ele>
        <time>2016-11-28T10:33:23Z</time>
      </trkpt>
      <trkpt lat="45.97726" lon="4.92728">
        <ele>301</ele>
        <time>2016-11-28T10:33:24Z</time>
      </trkpt>
      <trkpt lat="45.97729" lon="4.92723">
        <ele>301</ele>
        <time>2016-11-28T10:33:25Z</time>
      </trkpt>
      <trkpt lat="45.97733" lon="4.92718">
        <ele>301</ele>
        <time>2016-11-28T10:33:26Z</time>
      </trkpt>
      <trkpt lat="45.97737" lon="4.92714">
        <ele>301</ele>
        <time>2016-11-28T10:33:27Z</time>
      </trkpt>
      <trkpt lat="45.97741" lon="4.92709">
        <ele>301</ele>
        <time>2016-11-28T10:33:28Z</time>
      </trkpt>
      <trkpt lat="45.97744" lon="4.92704">
        <ele>301</ele>
        <time>2016-11-28T10:33:29Z</time>
      </trkpt>
      <trkpt lat="45.97748" lon="4.927">
        <ele>301</ele>
        <time>2016-11-28T10:33:30Z</time>
      </trkpt>
      <trkpt lat="45.97752" lon="4.92695">
        <ele>300</ele>
        <time>2016-11-28T10:33:31Z</time>
      </trkpt>
      <trkpt lat="45.97756" lon="4.9269">
        <ele>300</ele>
        <time>2016-11-28T10:33:32Z</time>
      </trkpt>
      <trkpt lat="45.9776" lon="4.92685">
        <ele>300</ele>
        <time>2016-11-28T10:33:33Z</time>
      </trkpt>
      <trkpt lat="45.97764" lon="4.92681">
        <ele>300</ele>
        <time>2016-11-28T10:33:34Z</time>
      </trkpt>
      <trkpt lat="45.97768" lon="4.92676">
        <ele>300</ele>
        <time>2016-11-28T10:33:35Z</time>
      </trkpt>
      <trkpt lat="45.97772" lon="4.92671">
        <ele>300</ele>
        <time>2016-11-28T10:33:36Z</time>
      </trkpt>
      <trkpt lat="45.97776" lon="4.92666">
        <ele>300</ele>
        <time>2016-11-28T10:33:37Z</time>
      </trkpt>
      <trkpt lat="45.9778" lon="4.92661">
        <ele>300</ele>
        <time>2016-11-28T10:33:38Z</time>
      </trkpt>
      <trkpt lat="45.97784" lon="4.92656">
        <ele>300</ele>
        <time>2016-11-28T10:33:39Z</time>
      </trkpt>
      <trkpt lat="45.97788" lon="4.92651">
        <ele>300</ele>
        <time>2016-11-28T10:33:40Z</time>
      </trkpt>
      <trkpt lat="45.97792" lon="4.92647">
        <ele>301</ele>
        <time>2016-11-28T10:33:41Z</time>
      </trkpt>
      <trkpt lat="45.97796" lon="4.92642">
        <ele>301</ele>
        <time>2016-11-28T10:33:42Z</time>
      </trkpt>
      <trkpt lat="45.978" lon="4.92637">
        <ele>301</ele>
        <time>2016-11-28T10:33:43Z</time>
      </trkpt>
      <trkpt lat="45.97803" lon="4.92632">
        <ele>301</ele>
        <time>2016-11-28T10:33:44Z</time>
      </trkpt>
      <trkpt lat="45.97807" lon="4.92628">
        <ele>301</ele>
        <time>2016-11-28T10:33:45Z</time>
      </trkpt>
      <trkpt lat="45.97811" lon="4.92623">
        <ele>300</ele>
        <time>2016-11-28T10:33:46Z</time>
      </trkpt>
      <trkpt lat="45.97815" lon="4.92619">
        <ele>300</ele>
        <time>2016-11-28T10:33:47Z</time>
      </trkpt>
      <trkpt lat="45.97818" lon="4.92614">
        <ele>300</ele>
        <time>2016-11-28T10:33:48Z</time>
      </trkpt>
      <trkpt lat="45.97822" lon="4.9261">
        <ele>300</ele>
        <time>2016-11-28T10:33:49Z</time>
      </trkpt>
      <trkpt lat="45.97826" lon="4.92605">
        <ele>300</ele>
        <time>2016-11-28T10:33:50Z</time>
      </trkpt>
      <trkpt lat="45.9783" lon="4.926">
        <ele>300</ele>
        <time>2016-11-28T10:33:51Z</time>
      </trkpt>
      <trkpt lat="45.97834" lon="4.92596">
        <ele>300</ele>
        <time>2016-11-28T10:33:52Z</time>
      </trkpt>
      <trkpt lat="45.97837" lon="4.92591">
        <ele>300</ele>
        <time>2016-11-28T10:33:53Z</time>
      </trkpt>
      <trkpt lat="45.97841" lon="4.92587">
        <ele>300</ele>
        <time>2016-11-28T10:33:54Z</time>
      </trkpt>
      <trkpt lat="45.97848" lon="4.92578">
        <ele>300</ele>
        <time>2016-11-28T10:33:56Z</time>
      </trkpt>
      <trkpt lat="45.97851" lon="4.92574">
        <ele>300</ele>
        <time>2016-11-28T10:33:57Z</time>
      </trkpt>
      <trkpt lat="45.97855" lon="4.92569">
        <ele>300</ele>
        <time>2016-11-28T10:33:58Z</time>
      </trkpt>
      <trkpt lat="45.97859" lon="4.92564">
        <ele>300</ele>
        <time>2016-11-28T10:33:59Z</time>
      </trkpt>
      <trkpt lat="45.97862" lon="4.9256">
        <ele>300</ele>
        <time>2016-11-28T10:34:00Z</time>
      </trkpt>
      <trkpt lat="45.97866" lon="4.92555">
        <ele>300</ele>
        <time>2016-11-28T10:34:01Z</time>
      </trkpt>
      <trkpt lat="45.9787" lon="4.92551">
        <ele>300</ele>
        <time>2016-11-28T10:34:02Z</time>
      </trkpt>
      <trkpt lat="45.97874" lon="4.92547">
        <ele>300</ele>
        <time>2016-11-28T10:34:03Z</time>
      </trkpt>
      <trkpt lat="45.97878" lon="4.92542">
        <ele>300</ele>
        <time>2016-11-28T10:34:04Z</time>
      </trkpt>
      <trkpt lat="45.97881" lon="4.92538">
        <ele>300</ele>
        <time>2016-11-28T10:34:05Z</time>
      </trkpt>
      <trkpt lat="45.97885" lon="4.92533">
        <ele>300</ele>
        <time>2016-11-28T10:34:06Z</time>
      </trkpt>
      <trkpt lat="45.9789" lon="4.92529">
        <ele>300</ele>
        <time>2016-11-28T10:34:07Z</time>
      </trkpt>
      <trkpt lat="45.97894" lon="4.92524">
        <ele>300</ele>
        <time>2016-11-28T10:34:08Z</time>
      </trkpt>
      <trkpt lat="45.97898" lon="4.92519">
        <ele>300</ele>
        <time>2016-11-28T10:34:09Z</time>
      </trkpt>
      <trkpt lat="45.97901" lon="4.92515">
        <ele>299</ele>
        <time>2016-11-28T10:34:10Z</time>
      </trkpt>
      <trkpt lat="45.97906" lon="4.9251">
        <ele>299</ele>
        <time>2016-11-28T10:34:11Z</time>
      </trkpt>
      <trkpt lat="45.97911" lon="4.92505">
        <ele>299</ele>
        <time>2016-11-28T10:34:12Z</time>
      </trkpt>
      <trkpt lat="45.97915" lon="4.92499">
        <ele>299</ele>
        <time>2016-11-28T10:34:13Z</time>
      </trkpt>
      <trkpt lat="45.9792" lon="4.92495">
        <ele>299</ele>
        <time>2016-11-28T10:34:14Z</time>
      </trkpt>
      <trkpt lat="45.97924" lon="4.9249">
        <ele>299</ele>
        <time>2016-11-28T10:34:15Z</time>
      </trkpt>
      <trkpt lat="45.97928" lon="4.92485">
        <ele>299</ele>
        <time>2016-11-28T10:34:16Z</time>
      </trkpt>
      <trkpt lat="45.97932" lon="4.9248">
        <ele>299</ele>
        <time>2016-11-28T10:34:17Z</time>
      </trkpt>
      <trkpt lat="45.97935" lon="4.92475">
        <ele>299</ele>
        <time>2016-11-28T10:34:18Z</time>
      </trkpt>
      <trkpt lat="45.97939" lon="4.9247">
        <ele>299</ele>
        <time>2016-11-28T10:34:19Z</time>
      </trkpt>
      <trkpt lat="45.97943" lon="4.92466">
        <ele>299</ele>
        <time>2016-11-28T10:34:20Z</time>
      </trkpt>
      <trkpt lat="45.97947" lon="4.92461">
        <ele>299</ele>
        <time>2016-11-28T10:34:21Z</time>
      </trkpt>
      <trkpt lat="45.97951" lon="4.92455">
        <ele>299</ele>
        <time>2016-11-28T10:34:22Z</time>
      </trkpt>
      <trkpt lat="45.97956" lon="4.92449">
        <ele>299</ele>
        <time>2016-11-28T10:34:23Z</time>
      </trkpt>
      <trkpt lat="45.97961" lon="4.92443">
        <ele>298</ele>
        <time>2016-11-28T10:34:24Z</time>
      </trkpt>
      <trkpt lat="45.97965" lon="4.92438">
        <ele>298</ele>
        <time>2016-11-28T10:34:25Z</time>
      </trkpt>
      <trkpt lat="45.9797" lon="4.92432">
        <ele>298</ele>
        <time>2016-11-28T10:34:26Z</time>
      </trkpt>
      <trkpt lat="45.97975" lon="4.92425">
        <ele>298</ele>
        <time>2016-11-28T10:34:27Z</time>
      </trkpt>
      <trkpt lat="45.97979" lon="4.92419">
        <ele>298</ele>
        <time>2016-11-28T10:34:28Z</time>
      </trkpt>
      <trkpt lat="45.97984" lon="4.92414">
        <ele>298</ele>
        <time>2016-11-28T10:34:29Z</time>
      </trkpt>
      <trkpt lat="45.97988" lon="4.92408">
        <ele>298</ele>
        <time>2016-11-28T10:34:30Z</time>
      </trkpt>
      <trkpt lat="45.97992" lon="4.92403">
        <ele>298</ele>
        <time>2016-11-28T10:34:31Z</time>
      </trkpt>
      <trkpt lat="45.97997" lon="4.92398">
        <ele>298</ele>
        <time>2016-11-28T10:34:32Z</time>
      </trkpt>
      <trkpt lat="45.98001" lon="4.92394">
        <ele>298</ele>
        <time>2016-11-28T10:34:33Z</time>
      </trkpt>
      <trkpt lat="45.98005" lon="4.9239">
        <ele>298</ele>
        <time>2016-11-28T10:34:34Z</time>
      </trkpt>
      <trkpt lat="45.98008" lon="4.92385">
        <ele>298</ele>
        <time>2016-11-28T10:34:35Z</time>
      </trkpt>
      <trkpt lat="45.98015" lon="4.92377">
        <ele>298</ele>
        <time>2016-11-28T10:34:37Z</time>
      </trkpt>
      <trkpt lat="45.98018" lon="4.92373">
        <ele>298</ele>
        <time>2016-11-28T10:34:38Z</time>
      </trkpt>
      <trkpt lat="45.98022" lon="4.92368">
        <ele>298</ele>
        <time>2016-11-28T10:34:39Z</time>
      </trkpt>
      <trkpt lat="45.98025" lon="4.92364">
        <ele>298</ele>
        <time>2016-11-28T10:34:40Z</time>
      </trkpt>
      <trkpt lat="45.98029" lon="4.92359">
        <ele>298</ele>
        <time>2016-11-28T10:34:41Z</time>
      </trkpt>
      <trkpt lat="45.98033" lon="4.92355">
        <ele>299</ele>
        <time>2016-11-28T10:34:42Z</time>
      </trkpt>
      <trkpt lat="45.98037" lon="4.9235">
        <ele>299</ele>
        <time>2016-11-28T10:34:43Z</time>
      </trkpt>
      <trkpt lat="45.9804" lon="4.92345">
        <ele>299</ele>
        <time>2016-11-28T10:34:44Z</time>
      </trkpt>
      <trkpt lat="45.98044" lon="4.92341">
        <ele>299</ele>
        <time>2016-11-28T10:34:45Z</time>
      </trkpt>
      <trkpt lat="45.98048" lon="4.92336">
        <ele>299</ele>
        <time>2016-11-28T10:34:46Z</time>
      </trkpt>
      <trkpt lat="45.98054" lon="4.92327">
        <ele>299</ele>
        <time>2016-11-28T10:34:48Z</time>
      </trkpt>
      <trkpt lat="45.98057" lon="4.92323">
        <ele>299</ele>
        <time>2016-11-28T10:34:49Z</time>
      </trkpt>
      <trkpt lat="45.9806" lon="4.92318">
        <ele>299</ele>
        <time>2016-11-28T10:34:50Z</time>
      </trkpt>
      <trkpt lat="45.98064" lon="4.92314">
        <ele>299</ele>
        <time>2016-11-28T10:34:51Z</time>
      </trkpt>
      <trkpt lat="45.98067" lon="4.92309">
        <ele>299</ele>
        <time>2016-11-28T10:34:52Z</time>
      </trkpt>
      <trkpt lat="45.98071" lon="4.92305">
        <ele>299</ele>
        <time>2016-11-28T10:34:53Z</time>
      </trkpt>
      <trkpt lat="45.98075" lon="4.923">
        <ele>299</ele>
        <time>2016-11-28T10:34:54Z</time>
      </trkpt>
      <trkpt lat="45.98078" lon="4.92296">
        <ele>299</ele>
        <time>2016-11-28T10:34:55Z</time>
      </trkpt>
      <trkpt lat="45.98082" lon="4.92292">
        <ele>299</ele>
        <time>2016-11-28T10:34:56Z</time>
      </trkpt>
      <trkpt lat="45.98086" lon="4.92288">
        <ele>300</ele>
        <time>2016-11-28T10:34:57Z</time>
      </trkpt>
      <trkpt lat="45.9809" lon="4.92284">
        <ele>300</ele>
        <time>2016-11-28T10:34:58Z</time>
      </trkpt>
      <trkpt lat="45.98094" lon="4.9228">
        <ele>300</ele>
        <time>2016-11-28T10:34:59Z</time>
      </trkpt>
      <trkpt lat="45.98098" lon="4.92276">
        <ele>300</ele>
        <time>2016-11-28T10:35:00Z</time>
      </trkpt>
      <trkpt lat="45.98102" lon="4.92272">
        <ele>300</ele>
        <time>2016-11-28T10:35:01Z</time>
      </trkpt>
      <trkpt lat="45.98106" lon="4.92268">
        <ele>300</ele>
        <time>2016-11-28T10:35:02Z</time>
      </trkpt>
      <trkpt lat="45.9811" lon="4.92263">
        <ele>300</ele>
        <time>2016-11-28T10:35:03Z</time>
      </trkpt>
      <trkpt lat="45.98115" lon="4.92258">
        <ele>300</ele>
        <time>2016-11-28T10:35:04Z</time>
      </trkpt>
      <trkpt lat="45.9812" lon="4.92253">
        <ele>300</ele>
        <time>2016-11-28T10:35:05Z</time>
      </trkpt>
      <trkpt lat="45.98124" lon="4.92248">
        <ele>300</ele>
        <time>2016-11-28T10:35:06Z</time>
      </trkpt>
      <trkpt lat="45.98128" lon="4.92243">
        <ele>300</ele>
        <time>2016-11-28T10:35:07Z</time>
      </trkpt>
      <trkpt lat="45.98132" lon="4.92239">
        <ele>300</ele>
        <time>2016-11-28T10:35:08Z</time>
      </trkpt>
      <trkpt lat="45.98137" lon="4.92234">
        <ele>300</ele>
        <time>2016-11-28T10:35:09Z</time>
      </trkpt>
      <trkpt lat="45.98141" lon="4.92229">
        <ele>300</ele>
        <time>2016-11-28T10:35:10Z</time>
      </trkpt>
      <trkpt lat="45.98145" lon="4.92224">
        <ele>300</ele>
        <time>2016-11-28T10:35:11Z</time>
      </trkpt>
      <trkpt lat="45.98149" lon="4.92218">
        <ele>300</ele>
        <time>2016-11-28T10:35:12Z</time>
      </trkpt>
      <trkpt lat="45.98154" lon="4.92212">
        <ele>300</ele>
        <time>2016-11-28T10:35:13Z</time>
      </trkpt>
      <trkpt lat="45.98158" lon="4.92206">
        <ele>299</ele>
        <time>2016-11-28T10:35:14Z</time>
      </trkpt>
      <trkpt lat="45.98163" lon="4.92201">
        <ele>299</ele>
        <time>2016-11-28T10:35:15Z</time>
      </trkpt>
      <trkpt lat="45.98167" lon="4.92195">
        <ele>299</ele>
        <time>2016-11-28T10:35:16Z</time>
      </trkpt>
      <trkpt lat="45.9817" lon="4.9219">
        <ele>299</ele>
        <time>2016-11-28T10:35:17Z</time>
      </trkpt>
      <trkpt lat="45.98175" lon="4.92185">
        <ele>299</ele>
        <time>2016-11-28T10:35:18Z</time>
      </trkpt>
      <trkpt lat="45.98179" lon="4.92181">
        <ele>299</ele>
        <time>2016-11-28T10:35:19Z</time>
      </trkpt>
      <trkpt lat="45.98182" lon="4.92176">
        <ele>299</ele>
        <time>2016-11-28T10:35:20Z</time>
      </trkpt>
      <trkpt lat="45.98186" lon="4.92171">
        <ele>299</ele>
        <time>2016-11-28T10:35:21Z</time>
      </trkpt>
      <trkpt lat="45.9819" lon="4.92167">
        <ele>299</ele>
        <time>2016-11-28T10:35:22Z</time>
      </trkpt>
      <trkpt lat="45.98194" lon="4.92162">
        <ele>299</ele>
        <time>2016-11-28T10:35:23Z</time>
      </trkpt>
      <trkpt lat="45.98198" lon="4.92157">
        <ele>299</ele>
        <time>2016-11-28T10:35:24Z</time>
      </trkpt>
      <trkpt lat="45.98201" lon="4.92152">
        <ele>299</ele>
        <time>2016-11-28T10:35:25Z</time>
      </trkpt>
      <trkpt lat="45.98205" lon="4.92147">
        <ele>299</ele>
        <time>2016-11-28T10:35:26Z</time>
      </trkpt>
      <trkpt lat="45.98209" lon="4.92142">
        <ele>299</ele>
        <time>2016-11-28T10:35:27Z</time>
      </trkpt>
      <trkpt lat="45.98212" lon="4.92138">
        <ele>299</ele>
        <time>2016-11-28T10:35:28Z</time>
      </trkpt>
      <trkpt lat="45.98217" lon="4.92133">
        <ele>299</ele>
        <time>2016-11-28T10:35:29Z</time>
      </trkpt>
      <trkpt lat="45.98221" lon="4.92127">
        <ele>299</ele>
        <time>2016-11-28T10:35:30Z</time>
      </trkpt>
      <trkpt lat="45.98224" lon="4.92123">
        <ele>299</ele>
        <time>2016-11-28T10:35:31Z</time>
      </trkpt>
      <trkpt lat="45.98228" lon="4.92118">
        <ele>299</ele>
        <time>2016-11-28T10:35:32Z</time>
      </trkpt>
      <trkpt lat="45.98232" lon="4.92113">
        <ele>299</ele>
        <time>2016-11-28T10:35:33Z</time>
      </trkpt>
      <trkpt lat="45.98235" lon="4.92109">
        <ele>299</ele>
        <time>2016-11-28T10:35:34Z</time>
      </trkpt>
      <trkpt lat="45.98239" lon="4.92104">
        <ele>299</ele>
        <time>2016-11-28T10:35:35Z</time>
      </trkpt>
      <trkpt lat="45.98242" lon="4.921">
        <ele>299</ele>
        <time>2016-11-28T10:35:36Z</time>
      </trkpt>
      <trkpt lat="45.98246" lon="4.92096">
        <ele>299</ele>
        <time>2016-11-28T10:35:37Z</time>
      </trkpt>
      <trkpt lat="45.98249" lon="4.92091">
        <ele>299</ele>
        <time>2016-11-28T10:35:38Z</time>
      </trkpt>
      <trkpt lat="45.98253" lon="4.92086">
        <ele>299</ele>
        <time>2016-11-28T10:35:39Z</time>
      </trkpt>
      <trkpt lat="45.98257" lon="4.92082">
        <ele>299</ele>
        <time>2016-11-28T10:35:40Z</time>
      </trkpt>
      <trkpt lat="45.98261" lon="4.92077">
        <ele>299</ele>
        <time>2016-11-28T10:35:41Z</time>
      </trkpt>
      <trkpt lat="45.98265" lon="4.92073">
        <ele>298</ele>
        <time>2016-11-28T10:35:42Z</time>
      </trkpt>
      <trkpt lat="45.98268" lon="4.92068">
        <ele>298</ele>
        <time>2016-11-28T10:35:43Z</time>
      </trkpt>
      <trkpt lat="45.98273" lon="4.92062">
        <ele>298</ele>
        <time>2016-11-28T10:35:44Z</time>
      </trkpt>
      <trkpt lat="45.98277" lon="4.92058">
        <ele>298</ele>
        <time>2016-11-28T10:35:45Z</time>
      </trkpt>
      <trkpt lat="45.98281" lon="4.92053">
        <ele>298</ele>
        <time>2016-11-28T10:35:46Z</time>
      </trkpt>
      <trkpt lat="45.98284" lon="4.92048">
        <ele>298</ele>
        <time>2016-11-28T10:35:47Z</time>
      </trkpt>
      <trkpt lat="45.98288" lon="4.92043">
        <ele>298</ele>
        <time>2016-11-28T10:35:48Z</time>
      </trkpt>
      <trkpt lat="45.98291" lon="4.92038">
        <ele>298</ele>
        <time>2016-11-28T10:35:49Z</time>
      </trkpt>
      <trkpt lat="45.98295" lon="4.92033">
        <ele>298</ele>
        <time>2016-11-28T10:35:50Z</time>
      </trkpt>
      <trkpt lat="45.98299" lon="4.92029">
        <ele>298</ele>
        <time>2016-11-28T10:35:51Z</time>
      </trkpt>
      <trkpt lat="45.98303" lon="4.92025">
        <ele>298</ele>
        <time>2016-11-28T10:35:52Z</time>
      </trkpt>
      <trkpt lat="45.98306" lon="4.9202">
        <ele>298</ele>
        <time>2016-11-28T10:35:53Z</time>
      </trkpt>
      <trkpt lat="45.9831" lon="4.92015">
        <ele>298</ele>
        <time>2016-11-28T10:35:54Z</time>
      </trkpt>
      <trkpt lat="45.98314" lon="4.9201">
        <ele>298</ele>
        <time>2016-11-28T10:35:55Z</time>
      </trkpt>
      <trkpt lat="45.98318" lon="4.92006">
        <ele>297</ele>
        <time>2016-11-28T10:35:56Z</time>
      </trkpt>
      <trkpt lat="45.98322" lon="4.92002">
        <ele>297</ele>
        <time>2016-11-28T10:35:57Z</time>
      </trkpt>
      <trkpt lat="45.98326" lon="4.91997">
        <ele>297</ele>
        <time>2016-11-28T10:35:58Z</time>
      </trkpt>
      <trkpt lat="45.98329" lon="4.91992">
        <ele>297</ele>
        <time>2016-11-28T10:35:59Z</time>
      </trkpt>
      <trkpt lat="45.98333" lon="4.91987">
        <ele>297</ele>
        <time>2016-11-28T10:36:00Z</time>
      </trkpt>
      <trkpt lat="45.98336" lon="4.91982">
        <ele>297</ele>
        <time>2016-11-28T10:36:01Z</time>
      </trkpt>
      <trkpt lat="45.9834" lon="4.91978">
        <ele>297</ele>
        <time>2016-11-28T10:36:02Z</time>
      </trkpt>
      <trkpt lat="45.98344" lon="4.91974">
        <ele>297</ele>
        <time>2016-11-28T10:36:03Z</time>
      </trkpt>
      <trkpt lat="45.98348" lon="4.9197">
        <ele>297</ele>
        <time>2016-11-28T10:36:04Z</time>
      </trkpt>
      <trkpt lat="45.98352" lon="4.91966">
        <ele>297</ele>
        <time>2016-11-28T10:36:05Z</time>
      </trkpt>
      <trkpt lat="45.98355" lon="4.91961">
        <ele>297</ele>
        <time>2016-11-28T10:36:06Z</time>
      </trkpt>
      <trkpt lat="45.98359" lon="4.91956">
        <ele>298</ele>
        <time>2016-11-28T10:36:07Z</time>
      </trkpt>
      <trkpt lat="45.98362" lon="4.91951">
        <ele>298</ele>
        <time>2016-11-28T10:36:08Z</time>
      </trkpt>
      <trkpt lat="45.98366" lon="4.91946">
        <ele>298</ele>
        <time>2016-11-28T10:36:09Z</time>
      </trkpt>
      <trkpt lat="45.9837" lon="4.91942">
        <ele>298</ele>
        <time>2016-11-28T10:36:10Z</time>
      </trkpt>
      <trkpt lat="45.98374" lon="4.91938">
        <ele>298</ele>
        <time>2016-11-28T10:36:11Z</time>
      </trkpt>
      <trkpt lat="45.98378" lon="4.91933">
        <ele>297</ele>
        <time>2016-11-28T10:36:12Z</time>
      </trkpt>
      <trkpt lat="45.98382" lon="4.91929">
        <ele>297</ele>
        <time>2016-11-28T10:36:13Z</time>
      </trkpt>
      <trkpt lat="45.98385" lon="4.91924">
        <ele>297</ele>
        <time>2016-11-28T10:36:14Z</time>
      </trkpt>
      <trkpt lat="45.9839" lon="4.9192">
        <ele>297</ele>
        <time>2016-11-28T10:36:15Z</time>
      </trkpt>
      <trkpt lat="45.98393" lon="4.91915">
        <ele>297</ele>
        <time>2016-11-28T10:36:16Z</time>
      </trkpt>
      <trkpt lat="45.98396" lon="4.91911">
        <ele>297</ele>
        <time>2016-11-28T10:36:17Z</time>
      </trkpt>
      <trkpt lat="45.984" lon="4.91906">
        <ele>297</ele>
        <time>2016-11-28T10:36:18Z</time>
      </trkpt>
      <trkpt lat="45.98404" lon="4.91903">
        <ele>297</ele>
        <time>2016-11-28T10:36:19Z</time>
      </trkpt>
      <trkpt lat="45.98407" lon="4.91899">
        <ele>297</ele>
        <time>2016-11-28T10:36:20Z</time>
      </trkpt>
      <trkpt lat="45.98411" lon="4.91894">
        <ele>297</ele>
        <time>2016-11-28T10:36:21Z</time>
      </trkpt>
      <trkpt lat="45.98414" lon="4.91889">
        <ele>297</ele>
        <time>2016-11-28T10:36:22Z</time>
      </trkpt>
      <trkpt lat="45.98418" lon="4.91884">
        <ele>297</ele>
        <time>2016-11-28T10:36:23Z</time>
      </trkpt>
      <trkpt lat="45.98422" lon="4.9188">
        <ele>297</ele>
        <time>2016-11-28T10:36:24Z</time>
      </trkpt>
      <trkpt lat="45.98426" lon="4.91876">
        <ele>297</ele>
        <time>2016-11-28T10:36:25Z</time>
      </trkpt>
      <trkpt lat="45.9843" lon="4.91871">
        <ele>297</ele>
        <time>2016-11-28T10:36:26Z</time>
      </trkpt>
      <trkpt lat="45.98434" lon="4.91866">
        <ele>297</ele>
        <time>2016-11-28T10:36:27Z</time>
      </trkpt>
      <trkpt lat="45.98437" lon="4.91861">
        <ele>297</ele>
        <time>2016-11-28T10:36:28Z</time>
      </trkpt>
      <trkpt lat="45.98441" lon="4.91857">
        <ele>297</ele>
        <time>2016-11-28T10:36:29Z</time>
      </trkpt>
      <trkpt lat="45.98444" lon="4.91852">
        <ele>297</ele>
        <time>2016-11-28T10:36:30Z</time>
      </trkpt>
      <trkpt lat="45.98447" lon="4.91847">
        <ele>297</ele>
        <time>2016-11-28T10:36:31Z</time>
      </trkpt>
      <trkpt lat="45.98451" lon="4.91842">
        <ele>297</ele>
        <time>2016-11-28T10:36:32Z</time>
      </trkpt>
      <trkpt lat="45.98455" lon="4.91838">
        <ele>297</ele>
        <time>2016-11-28T10:36:33Z</time>
      </trkpt>
      <trkpt lat="45.98459" lon="4.91833">
        <ele>297</ele>
        <time>2016-11-28T10:36:34Z</time>
      </trkpt>
      <trkpt lat="45.98462" lon="4.91829">
        <ele>297</ele>
        <time>2016-11-28T10:36:35Z</time>
      </trkpt>
      <trkpt lat="45.98466" lon="4.91825">
        <ele>297</ele>
        <time>2016-11-28T10:36:36Z</time>
      </trkpt>
      <trkpt lat="45.9847" lon="4.91821">
        <ele>297</ele>
        <time>2016-11-28T10:36:37Z</time>
      </trkpt>
      <trkpt lat="45.98473" lon="4.91816">
        <ele>297</ele>
        <time>2016-11-28T10:36:38Z</time>
      </trkpt>
      <trkpt lat="45.98477" lon="4.91811">
        <ele>297</ele>
        <time>2016-11-28T10:36:39Z</time>
      </trkpt>
      <trkpt lat="45.98481" lon="4.91807">
        <ele>297</ele>
        <time>2016-11-28T10:36:40Z</time>
      </trkpt>
      <trkpt lat="45.98484" lon="4.91802">
        <ele>297</ele>
        <time>2016-11-28T10:36:41Z</time>
      </trkpt>
      <trkpt lat="45.98488" lon="4.91798">
        <ele>297</ele>
        <time>2016-11-28T10:36:42Z</time>
      </trkpt>
      <trkpt lat="45.98491" lon="4.91793">
        <ele>297</ele>
        <time>2016-11-28T10:36:43Z</time>
      </trkpt>
      <trkpt lat="45.98495" lon="4.91788">
        <ele>297</ele>
        <time>2016-11-28T10:36:44Z</time>
      </trkpt>
      <trkpt lat="45.98498" lon="4.91784">
        <ele>297</ele>
        <time>2016-11-28T10:36:45Z</time>
      </trkpt>
      <trkpt lat="45.98502" lon="4.9178">
        <ele>298</ele>
        <time>2016-11-28T10:36:46Z</time>
      </trkpt>
      <trkpt lat="45.98506" lon="4.91776">
        <ele>298</ele>
        <time>2016-11-28T10:36:47Z</time>
      </trkpt>
      <trkpt lat="45.9851" lon="4.91771">
        <ele>297</ele>
        <time>2016-11-28T10:36:48Z</time>
      </trkpt>
      <trkpt lat="45.98514" lon="4.91767">
        <ele>297</ele>
        <time>2016-11-28T10:36:49Z</time>
      </trkpt>
      <trkpt lat="45.98518" lon="4.91763">
        <ele>297</ele>
        <time>2016-11-28T10:36:50Z</time>
      </trkpt>
      <trkpt lat="45.98521" lon="4.91758">
        <ele>297</ele>
        <time>2016-11-28T10:36:51Z</time>
      </trkpt>
      <trkpt lat="45.98525" lon="4.91754">
        <ele>297</ele>
        <time>2016-11-28T10:36:52Z</time>
      </trkpt>
      <trkpt lat="45.98529" lon="4.91749">
        <ele>297</ele>
        <time>2016-11-28T10:36:53Z</time>
      </trkpt>
      <trkpt lat="45.98533" lon="4.91745">
        <ele>297</ele>
        <time>2016-11-28T10:36:54Z</time>
      </trkpt>
      <trkpt lat="45.98537" lon="4.9174">
        <ele>297</ele>
        <time>2016-11-28T10:36:55Z</time>
      </trkpt>
      <trkpt lat="45.9854" lon="4.91735">
        <ele>297</ele>
        <time>2016-11-28T10:36:56Z</time>
      </trkpt>
      <trkpt lat="45.98544" lon="4.9173">
        <ele>298</ele>
        <time>2016-11-28T10:36:57Z</time>
      </trkpt>
      <trkpt lat="45.98548" lon="4.91726">
        <ele>298</ele>
        <time>2016-11-28T10:36:58Z</time>
      </trkpt>
      <trkpt lat="45.98552" lon="4.91721">
        <ele>298</ele>
        <time>2016-11-28T10:36:59Z</time>
      </trkpt>
      <trkpt lat="45.98555" lon="4.91716">
        <ele>298</ele>
        <time>2016-11-28T10:37:00Z</time>
      </trkpt>
      <trkpt lat="45.98559" lon="4.91711">
        <ele>298</ele>
        <time>2016-11-28T10:37:01Z</time>
      </trkpt>
      <trkpt lat="45.98563" lon="4.91706">
        <ele>298</ele>
        <time>2016-11-28T10:37:02Z</time>
      </trkpt>
      <trkpt lat="45.98567" lon="4.91702">
        <ele>298</ele>
        <time>2016-11-28T10:37:03Z</time>
      </trkpt>
      <trkpt lat="45.98571" lon="4.91697">
        <ele>298</ele>
        <time>2016-11-28T10:37:04Z</time>
      </trkpt>
      <trkpt lat="45.98576" lon="4.91692">
        <ele>298</ele>
        <time>2016-11-28T10:37:05Z</time>
      </trkpt>
      <trkpt lat="45.9858" lon="4.91687">
        <ele>298</ele>
        <time>2016-11-28T10:37:06Z</time>
      </trkpt>
      <trkpt lat="45.98585" lon="4.91682">
        <ele>298</ele>
        <time>2016-11-28T10:37:07Z</time>
      </trkpt>
      <trkpt lat="45.98589" lon="4.91677">
        <ele>298</ele>
        <time>2016-11-28T10:37:08Z</time>
      </trkpt>
      <trkpt lat="45.98593" lon="4.91672">
        <ele>298</ele>
        <time>2016-11-28T10:37:09Z</time>
      </trkpt>
      <trkpt lat="45.98598" lon="4.91666">
        <ele>298</ele>
        <time>2016-11-28T10:37:10Z</time>
      </trkpt>
      <trkpt lat="45.98602" lon="4.91661">
        <ele>298</ele>
        <time>2016-11-28T10:37:11Z</time>
      </trkpt>
      <trkpt lat="45.98606" lon="4.91656">
        <ele>298</ele>
        <time>2016-11-28T10:37:12Z</time>
      </trkpt>
      <trkpt lat="45.9861" lon="4.9165">
        <ele>298</ele>
        <time>2016-11-28T10:37:13Z</time>
      </trkpt>
      <trkpt lat="45.98614" lon="4.91645">
        <ele>298</ele>
        <time>2016-11-28T10:37:14Z</time>
      </trkpt>
      <trkpt lat="45.98618" lon="4.91641">
        <ele>298</ele>
        <time>2016-11-28T10:37:15Z</time>
      </trkpt>
      <trkpt lat="45.98622" lon="4.91636">
        <ele>298</ele>
        <time>2016-11-28T10:37:16Z</time>
      </trkpt>
      <trkpt lat="45.98625" lon="4.91632">
        <ele>298</ele>
        <time>2016-11-28T10:37:17Z</time>
      </trkpt>
      <trkpt lat="45.98629" lon="4.91627">
        <ele>298</ele>
        <time>2016-11-28T10:37:18Z</time>
      </trkpt>
      <trkpt lat="45.98632" lon="4.91622">
        <ele>298</ele>
        <time>2016-11-28T10:37:19Z</time>
      </trkpt>
      <trkpt lat="45.98636" lon="4.91618">
        <ele>298</ele>
        <time>2016-11-28T10:37:20Z</time>
      </trkpt>
      <trkpt lat="45.9864" lon="4.91613">
        <ele>298</ele>
        <time>2016-11-28T10:37:21Z</time>
      </trkpt>
      <trkpt lat="45.98643" lon="4.91609">
        <ele>298</ele>
        <time>2016-11-28T10:37:22Z</time>
      </trkpt>
      <trkpt lat="45.98647" lon="4.91604">
        <ele>298</ele>
        <time>2016-11-28T10:37:23Z</time>
      </trkpt>
      <trkpt lat="45.9865" lon="4.916">
        <ele>299</ele>
        <time>2016-11-28T10:37:24Z</time>
      </trkpt>
      <trkpt lat="45.98654" lon="4.91596">
        <ele>299</ele>
        <time>2016-11-28T10:37:25Z</time>
      </trkpt>
      <trkpt lat="45.98661" lon="4.91588">
        <ele>299</ele>
        <time>2016-11-28T10:37:27Z</time>
      </trkpt>
      <trkpt lat="45.98664" lon="4.91584">
        <ele>299</ele>
        <time>2016-11-28T10:37:28Z</time>
      </trkpt>
      <trkpt lat="45.9867" lon="4.91576">
        <ele>299</ele>
        <time>2016-11-28T10:37:30Z</time>
      </trkpt>
      <trkpt lat="45.98674" lon="4.91572">
        <ele>299</ele>
        <time>2016-11-28T10:37:31Z</time>
      </trkpt>
      <trkpt lat="45.98677" lon="4.91567">
        <ele>299</ele>
        <time>2016-11-28T10:37:32Z</time>
      </trkpt>
      <trkpt lat="45.9868" lon="4.91562">
        <ele>299</ele>
        <time>2016-11-28T10:37:33Z</time>
      </trkpt>
      <trkpt lat="45.98684" lon="4.91558">
        <ele>299</ele>
        <time>2016-11-28T10:37:34Z</time>
      </trkpt>
      <trkpt lat="45.98687" lon="4.91554">
        <ele>299</ele>
        <time>2016-11-28T10:37:35Z</time>
      </trkpt>
      <trkpt lat="45.98691" lon="4.9155">
        <ele>299</ele>
        <time>2016-11-28T10:37:36Z</time>
      </trkpt>
      <trkpt lat="45.98694" lon="4.91546">
        <ele>299</ele>
        <time>2016-11-28T10:37:37Z</time>
      </trkpt>
      <trkpt lat="45.98698" lon="4.91542">
        <ele>299</ele>
        <time>2016-11-28T10:37:38Z</time>
      </trkpt>
      <trkpt lat="45.98701" lon="4.91538">
        <ele>299</ele>
        <time>2016-11-28T10:37:39Z</time>
      </trkpt>
      <trkpt lat="45.98705" lon="4.91533">
        <ele>299</ele>
        <time>2016-11-28T10:37:40Z</time>
      </trkpt>
      <trkpt lat="45.98708" lon="4.91529">
        <ele>299</ele>
        <time>2016-11-28T10:37:41Z</time>
      </trkpt>
      <trkpt lat="45.98712" lon="4.91524">
        <ele>299</ele>
        <time>2016-11-28T10:37:42Z</time>
      </trkpt>
      <trkpt lat="45.98716" lon="4.9152">
        <ele>299</ele>
        <time>2016-11-28T10:37:43Z</time>
      </trkpt>
      <trkpt lat="45.98719" lon="4.91516">
        <ele>299</ele>
        <time>2016-11-28T10:37:44Z</time>
      </trkpt>
      <trkpt lat="45.98723" lon="4.91511">
        <ele>299</ele>
        <time>2016-11-28T10:37:45Z</time>
      </trkpt>
      <trkpt lat="45.98727" lon="4.91507">
        <ele>299</ele>
        <time>2016-11-28T10:37:46Z</time>
      </trkpt>
      <trkpt lat="45.9873" lon="4.91503">
        <ele>299</ele>
        <time>2016-11-28T10:37:47Z</time>
      </trkpt>
      <trkpt lat="45.98734" lon="4.91498">
        <ele>299</ele>
        <time>2016-11-28T10:37:48Z</time>
      </trkpt>
      <trkpt lat="45.98737" lon="4.91494">
        <ele>299</ele>
        <time>2016-11-28T10:37:49Z</time>
      </trkpt>
      <trkpt lat="45.98741" lon="4.9149">
        <ele>299</ele>
        <time>2016-11-28T10:37:50Z</time>
      </trkpt>
      <trkpt lat="45.98745" lon="4.91485">
        <ele>299</ele>
        <time>2016-11-28T10:37:51Z</time>
      </trkpt>
      <trkpt lat="45.98748" lon="4.91481">
        <ele>299</ele>
        <time>2016-11-28T10:37:52Z</time>
      </trkpt>
      <trkpt lat="45.98752" lon="4.91477">
        <ele>298</ele>
        <time>2016-11-28T10:37:53Z</time>
      </trkpt>
      <trkpt lat="45.98758" lon="4.91467">
        <ele>298</ele>
        <time>2016-11-28T10:37:55Z</time>
      </trkpt>
      <trkpt lat="45.98762" lon="4.91463">
        <ele>298</ele>
        <time>2016-11-28T10:37:56Z</time>
      </trkpt>
      <trkpt lat="45.98768" lon="4.91455">
        <ele>298</ele>
        <time>2016-11-28T10:37:58Z</time>
      </trkpt>
      <trkpt lat="45.98772" lon="4.91451">
        <ele>298</ele>
        <time>2016-11-28T10:37:59Z</time>
      </trkpt>
      <trkpt lat="45.98779" lon="4.91444">
        <ele>298</ele>
        <time>2016-11-28T10:38:01Z</time>
      </trkpt>
      <trkpt lat="45.98782" lon="4.91439">
        <ele>298</ele>
        <time>2016-11-28T10:38:02Z</time>
      </trkpt>
      <trkpt lat="45.98789" lon="4.91431">
        <ele>298</ele>
        <time>2016-11-28T10:38:04Z</time>
      </trkpt>
      <trkpt lat="45.98792" lon="4.91427">
        <ele>298</ele>
        <time>2016-11-28T10:38:05Z</time>
      </trkpt>
      <trkpt lat="45.98796" lon="4.91422">
        <ele>298</ele>
        <time>2016-11-28T10:38:06Z</time>
      </trkpt>
      <trkpt lat="45.98799" lon="4.91418">
        <ele>298</ele>
        <time>2016-11-28T10:38:07Z</time>
      </trkpt>
      <trkpt lat="45.98806" lon="4.9141">
        <ele>299</ele>
        <time>2016-11-28T10:38:09Z</time>
      </trkpt>
      <trkpt lat="45.98809" lon="4.91406">
        <ele>298</ele>
        <time>2016-11-28T10:38:10Z</time>
      </trkpt>
      <trkpt lat="45.98812" lon="4.91401">
        <ele>298</ele>
        <time>2016-11-28T10:38:11Z</time>
      </trkpt>
      <trkpt lat="45.98816" lon="4.91397">
        <ele>298</ele>
        <time>2016-11-28T10:38:12Z</time>
      </trkpt>
      <trkpt lat="45.98819" lon="4.91393">
        <ele>298</ele>
        <time>2016-11-28T10:38:13Z</time>
      </trkpt>
      <trkpt lat="45.98823" lon="4.91389">
        <ele>298</ele>
        <time>2016-11-28T10:38:14Z</time>
      </trkpt>
      <trkpt lat="45.9883" lon="4.91381">
        <ele>298</ele>
        <time>2016-11-28T10:38:16Z</time>
      </trkpt>
      <trkpt lat="45.98833" lon="4.91377">
        <ele>298</ele>
        <time>2016-11-28T10:38:17Z</time>
      </trkpt>
      <trkpt lat="45.98836" lon="4.91372">
        <ele>298</ele>
        <time>2016-11-28T10:38:18Z</time>
      </trkpt>
      <trkpt lat="45.9884" lon="4.91367">
        <ele>298</ele>
        <time>2016-11-28T10:38:19Z</time>
      </trkpt>
      <trkpt lat="45.98843" lon="4.91363">
        <ele>298</ele>
        <time>2016-11-28T10:38:20Z</time>
      </trkpt>
      <trkpt lat="45.98847" lon="4.91358">
        <ele>298</ele>
        <time>2016-11-28T10:38:21Z</time>
      </trkpt>
      <trkpt lat="45.98851" lon="4.91354">
        <ele>298</ele>
        <time>2016-11-28T10:38:22Z</time>
      </trkpt>
      <trkpt lat="45.98855" lon="4.9135">
        <ele>298</ele>
        <time>2016-11-28T10:38:23Z</time>
      </trkpt>
      <trkpt lat="45.9886" lon="4.91345">
        <ele>298</ele>
        <time>2016-11-28T10:38:24Z</time>
      </trkpt>
      <trkpt lat="45.98864" lon="4.9134">
        <ele>298</ele>
        <time>2016-11-28T10:38:25Z</time>
      </trkpt>
      <trkpt lat="45.98867" lon="4.91336">
        <ele>298</ele>
        <time>2016-11-28T10:38:26Z</time>
      </trkpt>
      <trkpt lat="45.98871" lon="4.91331">
        <ele>298</ele>
        <time>2016-11-28T10:38:27Z</time>
      </trkpt>
      <trkpt lat="45.98877" lon="4.91323">
        <ele>299</ele>
        <time>2016-11-28T10:38:29Z</time>
      </trkpt>
      <trkpt lat="45.98881" lon="4.91319">
        <ele>299</ele>
        <time>2016-11-28T10:38:30Z</time>
      </trkpt>
      <trkpt lat="45.98888" lon="4.91311">
        <ele>299</ele>
        <time>2016-11-28T10:38:32Z</time>
      </trkpt>
      <trkpt lat="45.98891" lon="4.91307">
        <ele>299</ele>
        <time>2016-11-28T10:38:33Z</time>
      </trkpt>
      <trkpt lat="45.98897" lon="4.91299">
        <ele>299</ele>
        <time>2016-11-28T10:38:35Z</time>
      </trkpt>
      <trkpt lat="45.98901" lon="4.91294">
        <ele>299</ele>
        <time>2016-11-28T10:38:36Z</time>
      </trkpt>
      <trkpt lat="45.98904" lon="4.9129">
        <ele>299</ele>
        <time>2016-11-28T10:38:37Z</time>
      </trkpt>
      <trkpt lat="45.98908" lon="4.91286">
        <ele>299</ele>
        <time>2016-11-28T10:38:38Z</time>
      </trkpt>
      <trkpt lat="45.98911" lon="4.91281">
        <ele>299</ele>
        <time>2016-11-28T10:38:39Z</time>
      </trkpt>
      <trkpt lat="45.98915" lon="4.91277">
        <ele>299</ele>
        <time>2016-11-28T10:38:40Z</time>
      </trkpt>
      <trkpt lat="45.98919" lon="4.91272">
        <ele>299</ele>
        <time>2016-11-28T10:38:41Z</time>
      </trkpt>
      <trkpt lat="45.98923" lon="4.91267">
        <ele>299</ele>
        <time>2016-11-28T10:38:42Z</time>
      </trkpt>
      <trkpt lat="45.98927" lon="4.91262">
        <ele>299</ele>
        <time>2016-11-28T10:38:43Z</time>
      </trkpt>
      <trkpt lat="45.98931" lon="4.91258">
        <ele>299</ele>
        <time>2016-11-28T10:38:44Z</time>
      </trkpt>
      <trkpt lat="45.98934" lon="4.91253">
        <ele>299</ele>
        <time>2016-11-28T10:38:45Z</time>
      </trkpt>
      <trkpt lat="45.98938" lon="4.91248">
        <ele>299</ele>
        <time>2016-11-28T10:38:46Z</time>
      </trkpt>
      <trkpt lat="45.98942" lon="4.91244">
        <ele>299</ele>
        <time>2016-11-28T10:38:47Z</time>
      </trkpt>
      <trkpt lat="45.98945" lon="4.91239">
        <ele>299</ele>
        <time>2016-11-28T10:38:48Z</time>
      </trkpt>
      <trkpt lat="45.98949" lon="4.91235">
        <ele>299</ele>
        <time>2016-11-28T10:38:49Z</time>
      </trkpt>
      <trkpt lat="45.98953" lon="4.91231">
        <ele>299</ele>
        <time>2016-11-28T10:38:50Z</time>
      </trkpt>
      <trkpt lat="45.98956" lon="4.91227">
        <ele>299</ele>
        <time>2016-11-28T10:38:51Z</time>
      </trkpt>
      <trkpt lat="45.9896" lon="4.91222">
        <ele>299</ele>
        <time>2016-11-28T10:38:52Z</time>
      </trkpt>
      <trkpt lat="45.98963" lon="4.91218">
        <ele>299</ele>
        <time>2016-11-28T10:38:53Z</time>
      </trkpt>
      <trkpt lat="45.98967" lon="4.91213">
        <ele>299</ele>
        <time>2016-11-28T10:38:54Z</time>
      </trkpt>
      <trkpt lat="45.98971" lon="4.91208">
        <ele>299</ele>
        <time>2016-11-28T10:38:55Z</time>
      </trkpt>
      <trkpt lat="45.98974" lon="4.91203">
        <ele>299</ele>
        <time>2016-11-28T10:38:56Z</time>
      </trkpt>
      <trkpt lat="45.98978" lon="4.91199">
        <ele>299</ele>
        <time>2016-11-28T10:38:57Z</time>
      </trkpt>
      <trkpt lat="45.98982" lon="4.91194">
        <ele>299</ele>
        <time>2016-11-28T10:38:58Z</time>
      </trkpt>
      <trkpt lat="45.98985" lon="4.9119">
        <ele>299</ele>
        <time>2016-11-28T10:38:59Z</time>
      </trkpt>
      <trkpt lat="45.98989" lon="4.91186">
        <ele>299</ele>
        <time>2016-11-28T10:39:00Z</time>
      </trkpt>
      <trkpt lat="45.98993" lon="4.91181">
        <ele>299</ele>
        <time>2016-11-28T10:39:01Z</time>
      </trkpt>
      <trkpt lat="45.98996" lon="4.91177">
        <ele>299</ele>
        <time>2016-11-28T10:39:02Z</time>
      </trkpt>
      <trkpt lat="45.99" lon="4.91172">
        <ele>299</ele>
        <time>2016-11-28T10:39:03Z</time>
      </trkpt>
      <trkpt lat="45.99004" lon="4.91168">
        <ele>299</ele>
        <time>2016-11-28T10:39:04Z</time>
      </trkpt>
      <trkpt lat="45.99008" lon="4.91164">
        <ele>299</ele>
        <time>2016-11-28T10:39:05Z</time>
      </trkpt>
      <trkpt lat="45.99012" lon="4.9116">
        <ele>299</ele>
        <time>2016-11-28T10:39:06Z</time>
      </trkpt>
      <trkpt lat="45.99016" lon="4.91155">
        <ele>299</ele>
        <time>2016-11-28T10:39:07Z</time>
      </trkpt>
      <trkpt lat="45.99019" lon="4.91151">
        <ele>299</ele>
        <time>2016-11-28T10:39:08Z</time>
      </trkpt>
      <trkpt lat="45.99023" lon="4.91146">
        <ele>299</ele>
        <time>2016-11-28T10:39:09Z</time>
      </trkpt>
      <trkpt lat="45.99026" lon="4.91142">
        <ele>299</ele>
        <time>2016-11-28T10:39:10Z</time>
      </trkpt>
      <trkpt lat="45.9903" lon="4.91137">
        <ele>299</ele>
        <time>2016-11-28T10:39:11Z</time>
      </trkpt>
      <trkpt lat="45.99033" lon="4.91133">
        <ele>299</ele>
        <time>2016-11-28T10:39:12Z</time>
      </trkpt>
      <trkpt lat="45.99037" lon="4.91128">
        <ele>299</ele>
        <time>2016-11-28T10:39:13Z</time>
      </trkpt>
      <trkpt lat="45.99041" lon="4.91124">
        <ele>299</ele>
        <time>2016-11-28T10:39:14Z</time>
      </trkpt>
      <trkpt lat="45.99045" lon="4.9112">
        <ele>299</ele>
        <time>2016-11-28T10:39:15Z</time>
      </trkpt>
      <trkpt lat="45.99048" lon="4.91115">
        <ele>299</ele>
        <time>2016-11-28T10:39:16Z</time>
      </trkpt>
      <trkpt lat="45.99052" lon="4.91111">
        <ele>299</ele>
        <time>2016-11-28T10:39:17Z</time>
      </trkpt>
      <trkpt lat="45.99055" lon="4.91106">
        <ele>299</ele>
        <time>2016-11-28T10:39:18Z</time>
      </trkpt>
      <trkpt lat="45.99059" lon="4.91101">
        <ele>299</ele>
        <time>2016-11-28T10:39:19Z</time>
      </trkpt>
      <trkpt lat="45.99062" lon="4.91096">
        <ele>300</ele>
        <time>2016-11-28T10:39:20Z</time>
      </trkpt>
      <trkpt lat="45.99068" lon="4.91087">
        <ele>300</ele>
        <time>2016-11-28T10:39:22Z</time>
      </trkpt>
      <trkpt lat="45.99072" lon="4.91082">
        <ele>300</ele>
        <time>2016-11-28T10:39:23Z</time>
      </trkpt>
      <trkpt lat="45.99075" lon="4.91077">
        <ele>300</ele>
        <time>2016-11-28T10:39:24Z</time>
      </trkpt>
      <trkpt lat="45.99079" lon="4.91072">
        <ele>300</ele>
        <time>2016-11-28T10:39:25Z</time>
      </trkpt>
      <trkpt lat="45.99082" lon="4.91067">
        <ele>300</ele>
        <time>2016-11-28T10:39:26Z</time>
      </trkpt>
      <trkpt lat="45.99086" lon="4.91062">
        <ele>300</ele>
        <time>2016-11-28T10:39:27Z</time>
      </trkpt>
      <trkpt lat="45.9909" lon="4.91058">
        <ele>301</ele>
        <time>2016-11-28T10:39:28Z</time>
      </trkpt>
      <trkpt lat="45.99094" lon="4.91054">
        <ele>301</ele>
        <time>2016-11-28T10:39:29Z</time>
      </trkpt>
      <trkpt lat="45.99097" lon="4.9105">
        <ele>301</ele>
        <time>2016-11-28T10:39:30Z</time>
      </trkpt>
      <trkpt lat="45.99101" lon="4.91046">
        <ele>301</ele>
        <time>2016-11-28T10:39:31Z</time>
      </trkpt>
      <trkpt lat="45.99105" lon="4.91042">
        <ele>301</ele>
        <time>2016-11-28T10:39:32Z</time>
      </trkpt>
      <trkpt lat="45.99109" lon="4.91038">
        <ele>301</ele>
        <time>2016-11-28T10:39:33Z</time>
      </trkpt>
      <trkpt lat="45.99113" lon="4.91033">
        <ele>301</ele>
        <time>2016-11-28T10:39:34Z</time>
      </trkpt>
      <trkpt lat="45.99117" lon="4.91028">
        <ele>301</ele>
        <time>2016-11-28T10:39:35Z</time>
      </trkpt>
      <trkpt lat="45.9912" lon="4.91023">
        <ele>301</ele>
        <time>2016-11-28T10:39:36Z</time>
      </trkpt>
      <trkpt lat="45.99124" lon="4.91018">
        <ele>301</ele>
        <time>2016-11-28T10:39:37Z</time>
      </trkpt>
      <trkpt lat="45.99128" lon="4.91014">
        <ele>301</ele>
        <time>2016-11-28T10:39:38Z</time>
      </trkpt>
      <trkpt lat="45.99132" lon="4.91008">
        <ele>301</ele>
        <time>2016-11-28T10:39:39Z</time>
      </trkpt>
      <trkpt lat="45.99136" lon="4.91003">
        <ele>301</ele>
        <time>2016-11-28T10:39:40Z</time>
      </trkpt>
      <trkpt lat="45.99139" lon="4.90997">
        <ele>301</ele>
        <time>2016-11-28T10:39:41Z</time>
      </trkpt>
      <trkpt lat="45.99143" lon="4.90991">
        <ele>301</ele>
        <time>2016-11-28T10:39:42Z</time>
      </trkpt>
      <trkpt lat="45.99146" lon="4.90987">
        <ele>301</ele>
        <time>2016-11-28T10:39:43Z</time>
      </trkpt>
      <trkpt lat="45.9915" lon="4.90982">
        <ele>301</ele>
        <time>2016-11-28T10:39:44Z</time>
      </trkpt>
      <trkpt lat="45.99155" lon="4.90977">
        <ele>301</ele>
        <time>2016-11-28T10:39:45Z</time>
      </trkpt>
      <trkpt lat="45.9916" lon="4.90973">
        <ele>300</ele>
        <time>2016-11-28T10:39:46Z</time>
      </trkpt>
      <trkpt lat="45.99164" lon="4.90969">
        <ele>300</ele>
        <time>2016-11-28T10:39:47Z</time>
      </trkpt>
      <trkpt lat="45.99168" lon="4.90964">
        <ele>300</ele>
        <time>2016-11-28T10:39:48Z</time>
      </trkpt>
      <trkpt lat="45.99172" lon="4.90958">
        <ele>300</ele>
        <time>2016-11-28T10:39:49Z</time>
      </trkpt>
      <trkpt lat="45.99176" lon="4.90953">
        <ele>300</ele>
        <time>2016-11-28T10:39:50Z</time>
      </trkpt>
      <trkpt lat="45.99181" lon="4.90948">
        <ele>300</ele>
        <time>2016-11-28T10:39:51Z</time>
      </trkpt>
      <trkpt lat="45.99185" lon="4.90942">
        <ele>300</ele>
        <time>2016-11-28T10:39:52Z</time>
      </trkpt>
      <trkpt lat="45.99189" lon="4.90937">
        <ele>300</ele>
        <time>2016-11-28T10:39:53Z</time>
      </trkpt>
      <trkpt lat="45.99193" lon="4.90932">
        <ele>300</ele>
        <time>2016-11-28T10:39:54Z</time>
      </trkpt>
      <trkpt lat="45.99198" lon="4.90926">
        <ele>300</ele>
        <time>2016-11-28T10:39:55Z</time>
      </trkpt>
      <trkpt lat="45.99202" lon="4.90921">
        <ele>300</ele>
        <time>2016-11-28T10:39:56Z</time>
      </trkpt>
      <trkpt lat="45.99206" lon="4.90915">
        <ele>300</ele>
        <time>2016-11-28T10:39:57Z</time>
      </trkpt>
      <trkpt lat="45.99211" lon="4.9091">
        <ele>299</ele>
        <time>2016-11-28T10:39:58Z</time>
      </trkpt>
      <trkpt lat="45.99215" lon="4.90905">
        <ele>299</ele>
        <time>2016-11-28T10:39:59Z</time>
      </trkpt>
      <trkpt lat="45.9922" lon="4.909">
        <ele>299</ele>
        <time>2016-11-28T10:40:00Z</time>
      </trkpt>
      <trkpt lat="45.99224" lon="4.90895">
        <ele>299</ele>
        <time>2016-11-28T10:40:01Z</time>
      </trkpt>
      <trkpt lat="45.99228" lon="4.9089">
        <ele>299</ele>
        <time>2016-11-28T10:40:02Z</time>
      </trkpt>
      <trkpt lat="45.99232" lon="4.90885">
        <ele>299</ele>
        <time>2016-11-28T10:40:03Z</time>
      </trkpt>
      <trkpt lat="45.99236" lon="4.90881">
        <ele>299</ele>
        <time>2016-11-28T10:40:04Z</time>
      </trkpt>
      <trkpt lat="45.99239" lon="4.90877">
        <ele>299</ele>
        <time>2016-11-28T10:40:05Z</time>
      </trkpt>
      <trkpt lat="45.99243" lon="4.90872">
        <ele>300</ele>
        <time>2016-11-28T10:40:06Z</time>
      </trkpt>
      <trkpt lat="45.99246" lon="4.90868">
        <ele>300</ele>
        <time>2016-11-28T10:40:07Z</time>
      </trkpt>
      <trkpt lat="45.9925" lon="4.90863">
        <ele>299</ele>
        <time>2016-11-28T10:40:08Z</time>
      </trkpt>
      <trkpt lat="45.99254" lon="4.90859">
        <ele>299</ele>
        <time>2016-11-28T10:40:09Z</time>
      </trkpt>
      <trkpt lat="45.99258" lon="4.90854">
        <ele>300</ele>
        <time>2016-11-28T10:40:10Z</time>
      </trkpt>
      <trkpt lat="45.99262" lon="4.90849">
        <ele>300</ele>
        <time>2016-11-28T10:40:11Z</time>
      </trkpt>
      <trkpt lat="45.99266" lon="4.90844">
        <ele>300</ele>
        <time>2016-11-28T10:40:12Z</time>
      </trkpt>
      <trkpt lat="45.9927" lon="4.90839">
        <ele>300</ele>
        <time>2016-11-28T10:40:13Z</time>
      </trkpt>
      <trkpt lat="45.99274" lon="4.90834">
        <ele>300</ele>
        <time>2016-11-28T10:40:14Z</time>
      </trkpt>
      <trkpt lat="45.99278" lon="4.90829">
        <ele>300</ele>
        <time>2016-11-28T10:40:15Z</time>
      </trkpt>
      <trkpt lat="45.99282" lon="4.90824">
        <ele>300</ele>
        <time>2016-11-28T10:40:16Z</time>
      </trkpt>
      <trkpt lat="45.99286" lon="4.9082">
        <ele>300</ele>
        <time>2016-11-28T10:40:17Z</time>
      </trkpt>
      <trkpt lat="45.9929" lon="4.90816">
        <ele>300</ele>
        <time>2016-11-28T10:40:18Z</time>
      </trkpt>
      <trkpt lat="45.99294" lon="4.90811">
        <ele>300</ele>
        <time>2016-11-28T10:40:19Z</time>
      </trkpt>
      <trkpt lat="45.99298" lon="4.90806">
        <ele>300</ele>
        <time>2016-11-28T10:40:20Z</time>
      </trkpt>
      <trkpt lat="45.99301" lon="4.90801">
        <ele>300</ele>
        <time>2016-11-28T10:40:21Z</time>
      </trkpt>
      <trkpt lat="45.99305" lon="4.90797">
        <ele>300</ele>
        <time>2016-11-28T10:40:22Z</time>
      </trkpt>
      <trkpt lat="45.99309" lon="4.90792">
        <ele>300</ele>
        <time>2016-11-28T10:40:23Z</time>
      </trkpt>
      <trkpt lat="45.99313" lon="4.90788">
        <ele>300</ele>
        <time>2016-11-28T10:40:24Z</time>
      </trkpt>
      <trkpt lat="45.99317" lon="4.90784">
        <ele>300</ele>
        <time>2016-11-28T10:40:25Z</time>
      </trkpt>
      <trkpt lat="45.99321" lon="4.9078">
        <ele>300</ele>
        <time>2016-11-28T10:40:26Z</time>
      </trkpt>
      <trkpt lat="45.99324" lon="4.90776">
        <ele>300</ele>
        <time>2016-11-28T10:40:27Z</time>
      </trkpt>
      <trkpt lat="45.99328" lon="4.90772">
        <ele>300</ele>
        <time>2016-11-28T10:40:28Z</time>
      </trkpt>
      <trkpt lat="45.99332" lon="4.90768">
        <ele>300</ele>
        <time>2016-11-28T10:40:29Z</time>
      </trkpt>
      <trkpt lat="45.99336" lon="4.90763">
        <ele>299</ele>
        <time>2016-11-28T10:40:30Z</time>
      </trkpt>
      <trkpt lat="45.99339" lon="4.90759">
        <ele>299</ele>
        <time>2016-11-28T10:40:31Z</time>
      </trkpt>
      <trkpt lat="45.99343" lon="4.90754">
        <ele>299</ele>
        <time>2016-11-28T10:40:32Z</time>
      </trkpt>
      <trkpt lat="45.99347" lon="4.90749">
        <ele>299</ele>
        <time>2016-11-28T10:40:33Z</time>
      </trkpt>
      <trkpt lat="45.9935" lon="4.90745">
        <ele>299</ele>
        <time>2016-11-28T10:40:34Z</time>
      </trkpt>
      <trkpt lat="45.99354" lon="4.90741">
        <ele>299</ele>
        <time>2016-11-28T10:40:35Z</time>
      </trkpt>
      <trkpt lat="45.99358" lon="4.90736">
        <ele>299</ele>
        <time>2016-11-28T10:40:36Z</time>
      </trkpt>
      <trkpt lat="45.99362" lon="4.90732">
        <ele>299</ele>
        <time>2016-11-28T10:40:37Z</time>
      </trkpt>
      <trkpt lat="45.99365" lon="4.90727">
        <ele>299</ele>
        <time>2016-11-28T10:40:38Z</time>
      </trkpt>
      <trkpt lat="45.99369" lon="4.90722">
        <ele>299</ele>
        <time>2016-11-28T10:40:39Z</time>
      </trkpt>
      <trkpt lat="45.99373" lon="4.90718">
        <ele>299</ele>
        <time>2016-11-28T10:40:40Z</time>
      </trkpt>
      <trkpt lat="45.99377" lon="4.90713">
        <ele>298</ele>
        <time>2016-11-28T10:40:41Z</time>
      </trkpt>
      <trkpt lat="45.99381" lon="4.90708">
        <ele>298</ele>
        <time>2016-11-28T10:40:42Z</time>
      </trkpt>
      <trkpt lat="45.99385" lon="4.90703">
        <ele>298</ele>
        <time>2016-11-28T10:40:43Z</time>
      </trkpt>
      <trkpt lat="45.99389" lon="4.90698">
        <ele>298</ele>
        <time>2016-11-28T10:40:44Z</time>
      </trkpt>
      <trkpt lat="45.99393" lon="4.90694">
        <ele>298</ele>
        <time>2016-11-28T10:40:45Z</time>
      </trkpt>
      <trkpt lat="45.99397" lon="4.90689">
        <ele>298</ele>
        <time>2016-11-28T10:40:46Z</time>
      </trkpt>
      <trkpt lat="45.99401" lon="4.90684">
        <ele>298</ele>
        <time>2016-11-28T10:40:47Z</time>
      </trkpt>
      <trkpt lat="45.99405" lon="4.90679">
        <ele>298</ele>
        <time>2016-11-28T10:40:48Z</time>
      </trkpt>
      <trkpt lat="45.99408" lon="4.90674">
        <ele>298</ele>
        <time>2016-11-28T10:40:49Z</time>
      </trkpt>
      <trkpt lat="45.99412" lon="4.90669">
        <ele>298</ele>
        <time>2016-11-28T10:40:50Z</time>
      </trkpt>
      <trkpt lat="45.99416" lon="4.90665">
        <ele>298</ele>
        <time>2016-11-28T10:40:51Z</time>
      </trkpt>
      <trkpt lat="45.9942" lon="4.9066">
        <ele>298</ele>
        <time>2016-11-28T10:40:52Z</time>
      </trkpt>
      <trkpt lat="45.99424" lon="4.90655">
        <ele>298</ele>
        <time>2016-11-28T10:40:53Z</time>
      </trkpt>
      <trkpt lat="45.99429" lon="4.90651">
        <ele>298</ele>
        <time>2016-11-28T10:40:54Z</time>
      </trkpt>
      <trkpt lat="45.99433" lon="4.90646">
        <ele>298</ele>
        <time>2016-11-28T10:40:55Z</time>
      </trkpt>
      <trkpt lat="45.99437" lon="4.90641">
        <ele>298</ele>
        <time>2016-11-28T10:40:56Z</time>
      </trkpt>
      <trkpt lat="45.99441" lon="4.90636">
        <ele>298</ele>
        <time>2016-11-28T10:40:57Z</time>
      </trkpt>
      <trkpt lat="45.99445" lon="4.90631">
        <ele>298</ele>
        <time>2016-11-28T10:40:58Z</time>
      </trkpt>
      <trkpt lat="45.99449" lon="4.90626">
        <ele>298</ele>
        <time>2016-11-28T10:40:59Z</time>
      </trkpt>
      <trkpt lat="45.99453" lon="4.90621">
        <ele>298</ele>
        <time>2016-11-28T10:41:00Z</time>
      </trkpt>
      <trkpt lat="45.99456" lon="4.90617">
        <ele>298</ele>
        <time>2016-11-28T10:41:01Z</time>
      </trkpt>
      <trkpt lat="45.9946" lon="4.90612">
        <ele>298</ele>
        <time>2016-11-28T10:41:02Z</time>
      </trkpt>
      <trkpt lat="45.99464" lon="4.90607">
        <ele>298</ele>
        <time>2016-11-28T10:41:03Z</time>
      </trkpt>
      <trkpt lat="45.99468" lon="4.90602">
        <ele>298</ele>
        <time>2016-11-28T10:41:04Z</time>
      </trkpt>
      <trkpt lat="45.99471" lon="4.90597">
        <ele>298</ele>
        <time>2016-11-28T10:41:05Z</time>
      </trkpt>
      <trkpt lat="45.99478" lon="4.90589">
        <ele>298</ele>
        <time>2016-11-28T10:41:07Z</time>
      </trkpt>
      <trkpt lat="45.99481" lon="4.90585">
        <ele>298</ele>
        <time>2016-11-28T10:41:08Z</time>
      </trkpt>
      <trkpt lat="45.99487" lon="4.90576">
        <ele>299</ele>
        <time>2016-11-28T10:41:10Z</time>
      </trkpt>
      <trkpt lat="45.99491" lon="4.90572">
        <ele>299</ele>
        <time>2016-11-28T10:41:11Z</time>
      </trkpt>
      <trkpt lat="45.99495" lon="4.90568">
        <ele>299</ele>
        <time>2016-11-28T10:41:12Z</time>
      </trkpt>
      <trkpt lat="45.99499" lon="4.90564">
        <ele>299</ele>
        <time>2016-11-28T10:41:13Z</time>
      </trkpt>
      <trkpt lat="45.99503" lon="4.9056">
        <ele>299</ele>
        <time>2016-11-28T10:41:14Z</time>
      </trkpt>
      <trkpt lat="45.99506" lon="4.90555">
        <ele>299</ele>
        <time>2016-11-28T10:41:15Z</time>
      </trkpt>
      <trkpt lat="45.9951" lon="4.9055">
        <ele>299</ele>
        <time>2016-11-28T10:41:16Z</time>
      </trkpt>
      <trkpt lat="45.99514" lon="4.90545">
        <ele>299</ele>
        <time>2016-11-28T10:41:17Z</time>
      </trkpt>
      <trkpt lat="45.99519" lon="4.9054">
        <ele>299</ele>
        <time>2016-11-28T10:41:18Z</time>
      </trkpt>
      <trkpt lat="45.99523" lon="4.90535">
        <ele>299</ele>
        <time>2016-11-28T10:41:19Z</time>
      </trkpt>
      <trkpt lat="45.99528" lon="4.90531">
        <ele>299</ele>
        <time>2016-11-28T10:41:20Z</time>
      </trkpt>
      <trkpt lat="45.99532" lon="4.90527">
        <ele>299</ele>
        <time>2016-11-28T10:41:21Z</time>
      </trkpt>
      <trkpt lat="45.99536" lon="4.90522">
        <ele>299</ele>
        <time>2016-11-28T10:41:22Z</time>
      </trkpt>
      <trkpt lat="45.99539" lon="4.90519">
        <ele>299</ele>
        <time>2016-11-28T10:41:23Z</time>
      </trkpt>
      <trkpt lat="45.99542" lon="4.90515">
        <ele>299</ele>
        <time>2016-11-28T10:41:24Z</time>
      </trkpt>
      <trkpt lat="45.99545" lon="4.90509">
        <ele>299</ele>
        <time>2016-11-28T10:41:25Z</time>
      </trkpt>
      <trkpt lat="45.99552" lon="4.90501">
        <ele>299</ele>
        <time>2016-11-28T10:41:27Z</time>
      </trkpt>
      <trkpt lat="45.99555" lon="4.90496">
        <ele>299</ele>
        <time>2016-11-28T10:41:28Z</time>
      </trkpt>
      <trkpt lat="45.99558" lon="4.90491">
        <ele>299</ele>
        <time>2016-11-28T10:41:29Z</time>
      </trkpt>
      <trkpt lat="45.99561" lon="4.90486">
        <ele>299</ele>
        <time>2016-11-28T10:41:30Z</time>
      </trkpt>
      <trkpt lat="45.99564" lon="4.90482">
        <ele>299</ele>
        <time>2016-11-28T10:41:31Z</time>
      </trkpt>
      <trkpt lat="45.99568" lon="4.90477">
        <ele>299</ele>
        <time>2016-11-28T10:41:32Z</time>
      </trkpt>
      <trkpt lat="45.99575" lon="4.9047">
        <ele>299</ele>
        <time>2016-11-28T10:41:34Z</time>
      </trkpt>
      <trkpt lat="45.99578" lon="4.90467">
        <ele>299</ele>
        <time>2016-11-28T10:41:35Z</time>
      </trkpt>
      <trkpt lat="45.99585" lon="4.90463">
        <ele>300</ele>
        <time>2016-11-28T10:41:37Z</time>
      </trkpt>
      <trkpt lat="45.99589" lon="4.90462">
        <ele>300</ele>
        <time>2016-11-28T10:41:38Z</time>
      </trkpt>
      <trkpt lat="45.99595" lon="4.90456">
        <ele>300</ele>
        <time>2016-11-28T10:41:40Z</time>
      </trkpt>
      <trkpt lat="45.99597" lon="4.90451">
        <ele>300</ele>
        <time>2016-11-28T10:41:41Z</time>
      </trkpt>
      <trkpt lat="45.99599" lon="4.90438">
        <ele>300</ele>
        <time>2016-11-28T10:41:43Z</time>
      </trkpt>
      <trkpt lat="45.99598" lon="4.90432">
        <ele>300</ele>
        <time>2016-11-28T10:41:44Z</time>
      </trkpt>
      <trkpt lat="45.99597" lon="4.90425">
        <ele>300</ele>
        <time>2016-11-28T10:41:45Z</time>
      </trkpt>
      <trkpt lat="45.99596" lon="4.90419">
        <ele>300</ele>
        <time>2016-11-28T10:41:46Z</time>
      </trkpt>
      <trkpt lat="45.99595" lon="4.90412">
        <ele>300</ele>
        <time>2016-11-28T10:41:47Z</time>
      </trkpt>
      <trkpt lat="45.99595" lon="4.90404">
        <ele>300</ele>
        <time>2016-11-28T10:41:48Z</time>
      </trkpt>
      <trkpt lat="45.99595" lon="4.90397">
        <ele>301</ele>
        <time>2016-11-28T10:41:49Z</time>
      </trkpt>
      <trkpt lat="45.99595" lon="4.9039">
        <ele>301</ele>
        <time>2016-11-28T10:41:50Z</time>
      </trkpt>
      <trkpt lat="45.99593" lon="4.90378">
        <ele>301</ele>
        <time>2016-11-28T10:41:52Z</time>
      </trkpt>
      <trkpt lat="45.99593" lon="4.90372">
        <ele>301</ele>
        <time>2016-11-28T10:41:53Z</time>
      </trkpt>
      <trkpt lat="45.99592" lon="4.90361">
        <ele>301</ele>
        <time>2016-11-28T10:41:55Z</time>
      </trkpt>
      <trkpt lat="45.99592" lon="4.90356">
        <ele>301</ele>
        <time>2016-11-28T10:41:56Z</time>
      </trkpt>
      <trkpt lat="45.99593" lon="4.90347">
        <ele>301</ele>
        <time>2016-11-28T10:41:58Z</time>
      </trkpt>
      <trkpt lat="45.99592" lon="4.90343">
        <ele>301</ele>
        <time>2016-11-28T10:41:59Z</time>
      </trkpt>
      <trkpt lat="45.99592" lon="4.90334">
        <ele>301</ele>
        <time>2016-11-28T10:42:01Z</time>
      </trkpt>
      <trkpt lat="45.99591" lon="4.90329">
        <ele>301</ele>
        <time>2016-11-28T10:42:02Z</time>
      </trkpt>
      <trkpt lat="45.99598" lon="4.90322">
        <ele>301</ele>
        <time>2016-11-28T10:42:05Z</time>
      </trkpt>
      <trkpt lat="45.99602" lon="4.90322">
        <ele>301</ele>
        <time>2016-11-28T10:42:06Z</time>
      </trkpt>
      <trkpt lat="45.99608" lon="4.90323">
        <ele>301</ele>
        <time>2016-11-28T10:42:08Z</time>
      </trkpt>
      <trkpt lat="45.99612" lon="4.90322">
        <ele>302</ele>
        <time>2016-11-28T10:42:09Z</time>
      </trkpt>
      <trkpt lat="45.99619" lon="4.90323">
        <ele>302</ele>
        <time>2016-11-28T10:42:11Z</time>
      </trkpt>
      <trkpt lat="45.99623" lon="4.90323">
        <ele>302</ele>
        <time>2016-11-28T10:42:12Z</time>
      </trkpt>
      <trkpt lat="45.99631" lon="4.90323">
        <ele>302</ele>
        <time>2016-11-28T10:42:14Z</time>
      </trkpt>
      <trkpt lat="45.99635" lon="4.90324">
        <ele>302</ele>
        <time>2016-11-28T10:42:15Z</time>
      </trkpt>
      <trkpt lat="45.99643" lon="4.90326">
        <ele>302</ele>
        <time>2016-11-28T10:42:17Z</time>
      </trkpt>
      <trkpt lat="45.99646" lon="4.90327">
        <ele>302</ele>
        <time>2016-11-28T10:42:18Z</time>
      </trkpt>
      <trkpt lat="45.99653" lon="4.90329">
        <ele>302</ele>
        <time>2016-11-28T10:42:20Z</time>
      </trkpt>
      <trkpt lat="45.99656" lon="4.90329">
        <ele>302</ele>
        <time>2016-11-28T10:42:21Z</time>
      </trkpt>
      <trkpt lat="45.99664" lon="4.9033">
        <ele>302</ele>
        <time>2016-11-28T10:42:24Z</time>
      </trkpt>
      <trkpt lat="45.99666" lon="4.90328">
        <ele>302</ele>
        <time>2016-11-28T10:42:25Z</time>
      </trkpt>
      <trkpt lat="45.99668" lon="4.90319">
        <ele>303</ele>
        <time>2016-11-28T10:42:28Z</time>
      </trkpt>
      <trkpt lat="45.99668" lon="4.90315">
        <ele>304</ele>
        <time>2016-11-28T10:42:29Z</time>
      </trkpt>
      <trkpt lat="45.99669" lon="4.90306">
        <ele>304</ele>
        <time>2016-11-28T10:42:31Z</time>
      </trkpt>
      <trkpt lat="45.99669" lon="4.90301">
        <ele>304</ele>
        <time>2016-11-28T10:42:32Z</time>
      </trkpt>
      <trkpt lat="45.9967" lon="4.90291">
        <ele>304</ele>
        <time>2016-11-28T10:42:34Z</time>
      </trkpt>
      <trkpt lat="45.99671" lon="4.90287">
        <ele>304</ele>
        <time>2016-11-28T10:42:35Z</time>
      </trkpt>
      <trkpt lat="45.99673" lon="4.90275">
        <ele>304</ele>
        <time>2016-11-28T10:42:37Z</time>
      </trkpt>
      <trkpt lat="45.99675" lon="4.9027">
        <ele>304</ele>
        <time>2016-11-28T10:42:38Z</time>
      </trkpt>
      <trkpt lat="45.99678" lon="4.90259">
        <ele>304</ele>
        <time>2016-11-28T10:42:40Z</time>
      </trkpt>
      <trkpt lat="45.99679" lon="4.90253">
        <ele>304</ele>
        <time>2016-11-28T10:42:41Z</time>
      </trkpt>
      <trkpt lat="45.99677" lon="4.90243">
        <ele>304</ele>
        <time>2016-11-28T10:42:43Z</time>
      </trkpt>
      <trkpt lat="45.99676" lon="4.90237">
        <ele>304</ele>
        <time>2016-11-28T10:42:44Z</time>
      </trkpt>
      <trkpt lat="45.99674" lon="4.90225">
        <ele>304</ele>
        <time>2016-11-28T10:42:46Z</time>
      </trkpt>
      <trkpt lat="45.99672" lon="4.90219">
        <ele>303</ele>
        <time>2016-11-28T10:42:47Z</time>
      </trkpt>
      <trkpt lat="45.99671" lon="4.90212">
        <ele>303</ele>
        <time>2016-11-28T10:42:48Z</time>
      </trkpt>
      <trkpt lat="45.99669" lon="4.90205">
        <ele>303</ele>
        <time>2016-11-28T10:42:49Z</time>
      </trkpt>
      <trkpt lat="45.99667" lon="4.90198">
        <ele>303</ele>
        <time>2016-11-28T10:42:50Z</time>
      </trkpt>
      <trkpt lat="45.99665" lon="4.90189">
        <ele>301</ele>
        <time>2016-11-28T10:42:51Z</time>
      </trkpt>
      <trkpt lat="45.99664" lon="4.90181">
        <ele>301</ele>
        <time>2016-11-28T10:42:52Z</time>
      </trkpt>
      <trkpt lat="45.99661" lon="4.90171">
        <ele>301</ele>
        <time>2016-11-28T10:42:53Z</time>
      </trkpt>
      <trkpt lat="45.99659" lon="4.90161">
        <ele>300</ele>
        <time>2016-11-28T10:42:54Z</time>
      </trkpt>
      <trkpt lat="45.99656" lon="4.90151">
        <ele>300</ele>
        <time>2016-11-28T10:42:55Z</time>
      </trkpt>
      <trkpt lat="45.99654" lon="4.90141">
        <ele>300</ele>
        <time>2016-11-28T10:42:56Z</time>
      </trkpt>
      <trkpt lat="45.99651" lon="4.9013">
        <ele>299</ele>
        <time>2016-11-28T10:42:57Z</time>
      </trkpt>
      <trkpt lat="45.99649" lon="4.90119">
        <ele>299</ele>
        <time>2016-11-28T10:42:58Z</time>
      </trkpt>
      <trkpt lat="45.99646" lon="4.90108">
        <ele>299</ele>
        <time>2016-11-28T10:42:59Z</time>
      </trkpt>
      <trkpt lat="45.99642" lon="4.90097">
        <ele>299</ele>
        <time>2016-11-28T10:43:00Z</time>
      </trkpt>
      <trkpt lat="45.99638" lon="4.90088">
        <ele>299</ele>
        <time>2016-11-28T10:43:01Z</time>
      </trkpt>
      <trkpt lat="45.99635" lon="4.90078">
        <ele>297</ele>
        <time>2016-11-28T10:43:02Z</time>
      </trkpt>
      <trkpt lat="45.99631" lon="4.90069">
        <ele>297</ele>
        <time>2016-11-28T10:43:03Z</time>
      </trkpt>
      <trkpt lat="45.99627" lon="4.90059">
        <ele>297</ele>
        <time>2016-11-28T10:43:04Z</time>
      </trkpt>
      <trkpt lat="45.99623" lon="4.90049">
        <ele>297</ele>
        <time>2016-11-28T10:43:05Z</time>
      </trkpt>
      <trkpt lat="45.99619" lon="4.90039">
        <ele>296</ele>
        <time>2016-11-28T10:43:06Z</time>
      </trkpt>
      <trkpt lat="45.99616" lon="4.90029">
        <ele>296</ele>
        <time>2016-11-28T10:43:07Z</time>
      </trkpt>
      <trkpt lat="45.99613" lon="4.90018">
        <ele>296</ele>
        <time>2016-11-28T10:43:08Z</time>
      </trkpt>
      <trkpt lat="45.9961" lon="4.90008">
        <ele>296</ele>
        <time>2016-11-28T10:43:09Z</time>
      </trkpt>
      <trkpt lat="45.99608" lon="4.89998">
        <ele>295</ele>
        <time>2016-11-28T10:43:10Z</time>
      </trkpt>
      <trkpt lat="45.99606" lon="4.89987">
        <ele>294</ele>
        <time>2016-11-28T10:43:11Z</time>
      </trkpt>
      <trkpt lat="45.99605" lon="4.89977">
        <ele>294</ele>
        <time>2016-11-28T10:43:12Z</time>
      </trkpt>
      <trkpt lat="45.99603" lon="4.89966">
        <ele>294</ele>
        <time>2016-11-28T10:43:13Z</time>
      </trkpt>
      <trkpt lat="45.99603" lon="4.89956">
        <ele>294</ele>
        <time>2016-11-28T10:43:14Z</time>
      </trkpt>
      <trkpt lat="45.99602" lon="4.89946">
        <ele>294</ele>
        <time>2016-11-28T10:43:15Z</time>
      </trkpt>
      <trkpt lat="45.99602" lon="4.89936">
        <ele>293</ele>
        <time>2016-11-28T10:43:16Z</time>
      </trkpt>
      <trkpt lat="45.99601" lon="4.89927">
        <ele>293</ele>
        <time>2016-11-28T10:43:17Z</time>
      </trkpt>
      <trkpt lat="45.99601" lon="4.89917">
        <ele>293</ele>
        <time>2016-11-28T10:43:18Z</time>
      </trkpt>
      <trkpt lat="45.99601" lon="4.89907">
        <ele>292</ele>
        <time>2016-11-28T10:43:19Z</time>
      </trkpt>
      <trkpt lat="45.99601" lon="4.89898">
        <ele>292</ele>
        <time>2016-11-28T10:43:20Z</time>
      </trkpt>
      <trkpt lat="45.99601" lon="4.89888">
        <ele>292</ele>
        <time>2016-11-28T10:43:21Z</time>
      </trkpt>
      <trkpt lat="45.99602" lon="4.89879">
        <ele>292</ele>
        <time>2016-11-28T10:43:22Z</time>
      </trkpt>
      <trkpt lat="45.99602" lon="4.8987">
        <ele>293</ele>
        <time>2016-11-28T10:43:23Z</time>
      </trkpt>
      <trkpt lat="45.99602" lon="4.89861">
        <ele>293</ele>
        <time>2016-11-28T10:43:24Z</time>
      </trkpt>
      <trkpt lat="45.99603" lon="4.89851">
        <ele>293</ele>
        <time>2016-11-28T10:43:25Z</time>
      </trkpt>
      <trkpt lat="45.99603" lon="4.89842">
        <ele>293</ele>
        <time>2016-11-28T10:43:26Z</time>
      </trkpt>
      <trkpt lat="45.99604" lon="4.89833">
        <ele>292</ele>
        <time>2016-11-28T10:43:27Z</time>
      </trkpt>
      <trkpt lat="45.99604" lon="4.89824">
        <ele>292</ele>
        <time>2016-11-28T10:43:28Z</time>
      </trkpt>
      <trkpt lat="45.99604" lon="4.89815">
        <ele>292</ele>
        <time>2016-11-28T10:43:29Z</time>
      </trkpt>
      <trkpt lat="45.99604" lon="4.89806">
        <ele>292</ele>
        <time>2016-11-28T10:43:30Z</time>
      </trkpt>
      <trkpt lat="45.99605" lon="4.89796">
        <ele>292</ele>
        <time>2016-11-28T10:43:31Z</time>
      </trkpt>
      <trkpt lat="45.99605" lon="4.89787">
        <ele>292</ele>
        <time>2016-11-28T10:43:32Z</time>
      </trkpt>
      <trkpt lat="45.99605" lon="4.89778">
        <ele>292</ele>
        <time>2016-11-28T10:43:33Z</time>
      </trkpt>
      <trkpt lat="45.99606" lon="4.89769">
        <ele>292</ele>
        <time>2016-11-28T10:43:34Z</time>
      </trkpt>
      <trkpt lat="45.99606" lon="4.8976">
        <ele>292</ele>
        <time>2016-11-28T10:43:35Z</time>
      </trkpt>
      <trkpt lat="45.99606" lon="4.89751">
        <ele>292</ele>
        <time>2016-11-28T10:43:36Z</time>
      </trkpt>
      <trkpt lat="45.99606" lon="4.89743">
        <ele>292</ele>
        <time>2016-11-28T10:43:37Z</time>
      </trkpt>
      <trkpt lat="45.99606" lon="4.89734">
        <ele>292</ele>
        <time>2016-11-28T10:43:38Z</time>
      </trkpt>
      <trkpt lat="45.99606" lon="4.89725">
        <ele>292</ele>
        <time>2016-11-28T10:43:39Z</time>
      </trkpt>
      <trkpt lat="45.99606" lon="4.89717">
        <ele>292</ele>
        <time>2016-11-28T10:43:40Z</time>
      </trkpt>
      <trkpt lat="45.99607" lon="4.89709">
        <ele>292</ele>
        <time>2016-11-28T10:43:41Z</time>
      </trkpt>
      <trkpt lat="45.99607" lon="4.897">
        <ele>291</ele>
        <time>2016-11-28T10:43:42Z</time>
      </trkpt>
      <trkpt lat="45.99607" lon="4.89691">
        <ele>291</ele>
        <time>2016-11-28T10:43:43Z</time>
      </trkpt>
      <trkpt lat="45.99608" lon="4.89683">
        <ele>291</ele>
        <time>2016-11-28T10:43:44Z</time>
      </trkpt>
      <trkpt lat="45.99609" lon="4.89674">
        <ele>291</ele>
        <time>2016-11-28T10:43:45Z</time>
      </trkpt>
      <trkpt lat="45.99609" lon="4.89665">
        <ele>291</ele>
        <time>2016-11-28T10:43:46Z</time>
      </trkpt>
      <trkpt lat="45.99609" lon="4.89656">
        <ele>291</ele>
        <time>2016-11-28T10:43:47Z</time>
      </trkpt>
      <trkpt lat="45.99609" lon="4.89647">
        <ele>291</ele>
        <time>2016-11-28T10:43:48Z</time>
      </trkpt>
      <trkpt lat="45.99609" lon="4.89638">
        <ele>291</ele>
        <time>2016-11-28T10:43:49Z</time>
      </trkpt>
      <trkpt lat="45.99609" lon="4.8963">
        <ele>291</ele>
        <time>2016-11-28T10:43:50Z</time>
      </trkpt>
      <trkpt lat="45.99608" lon="4.89621">
        <ele>291</ele>
        <time>2016-11-28T10:43:51Z</time>
      </trkpt>
      <trkpt lat="45.99607" lon="4.89611">
        <ele>291</ele>
        <time>2016-11-28T10:43:52Z</time>
      </trkpt>
      <trkpt lat="45.99607" lon="4.89602">
        <ele>291</ele>
        <time>2016-11-28T10:43:53Z</time>
      </trkpt>
      <trkpt lat="45.99606" lon="4.89592">
        <ele>292</ele>
        <time>2016-11-28T10:43:54Z</time>
      </trkpt>
      <trkpt lat="45.99605" lon="4.89583">
        <ele>291</ele>
        <time>2016-11-28T10:43:55Z</time>
      </trkpt>
      <trkpt lat="45.99604" lon="4.89574">
        <ele>291</ele>
        <time>2016-11-28T10:43:56Z</time>
      </trkpt>
      <trkpt lat="45.99604" lon="4.89565">
        <ele>291</ele>
        <time>2016-11-28T10:43:57Z</time>
      </trkpt>
      <trkpt lat="45.99603" lon="4.89555">
        <ele>291</ele>
        <time>2016-11-28T10:43:58Z</time>
      </trkpt>
      <trkpt lat="45.99602" lon="4.89546">
        <ele>291</ele>
        <time>2016-11-28T10:43:59Z</time>
      </trkpt>
      <trkpt lat="45.99602" lon="4.89537">
        <ele>291</ele>
        <time>2016-11-28T10:44:00Z</time>
      </trkpt>
      <trkpt lat="45.99601" lon="4.89528">
        <ele>291</ele>
        <time>2016-11-28T10:44:01Z</time>
      </trkpt>
      <trkpt lat="45.99601" lon="4.8952">
        <ele>291</ele>
        <time>2016-11-28T10:44:02Z</time>
      </trkpt>
      <trkpt lat="45.996" lon="4.89511">
        <ele>290</ele>
        <time>2016-11-28T10:44:03Z</time>
      </trkpt>
      <trkpt lat="45.996" lon="4.89503">
        <ele>290</ele>
        <time>2016-11-28T10:44:04Z</time>
      </trkpt>
      <trkpt lat="45.99599" lon="4.89495">
        <ele>290</ele>
        <time>2016-11-28T10:44:05Z</time>
      </trkpt>
      <trkpt lat="45.99599" lon="4.89487">
        <ele>290</ele>
        <time>2016-11-28T10:44:06Z</time>
      </trkpt>
      <trkpt lat="45.99598" lon="4.8948">
        <ele>290</ele>
        <time>2016-11-28T10:44:07Z</time>
      </trkpt>
      <trkpt lat="45.99598" lon="4.89473">
        <ele>290</ele>
        <time>2016-11-28T10:44:08Z</time>
      </trkpt>
      <trkpt lat="45.99597" lon="4.89465">
        <ele>290</ele>
        <time>2016-11-28T10:44:09Z</time>
      </trkpt>
      <trkpt lat="45.99597" lon="4.89458">
        <ele>290</ele>
        <time>2016-11-28T10:44:10Z</time>
      </trkpt>
      <trkpt lat="45.99596" lon="4.8945">
        <ele>290</ele>
        <time>2016-11-28T10:44:11Z</time>
      </trkpt>
      <trkpt lat="45.99596" lon="4.89441">
        <ele>290</ele>
        <time>2016-11-28T10:44:12Z</time>
      </trkpt>
      <trkpt lat="45.99595" lon="4.89433">
        <ele>290</ele>
        <time>2016-11-28T10:44:13Z</time>
      </trkpt>
      <trkpt lat="45.99595" lon="4.89424">
        <ele>290</ele>
        <time>2016-11-28T10:44:14Z</time>
      </trkpt>
      <trkpt lat="45.99595" lon="4.89415">
        <ele>290</ele>
        <time>2016-11-28T10:44:15Z</time>
      </trkpt>
      <trkpt lat="45.99594" lon="4.89406">
        <ele>290</ele>
        <time>2016-11-28T10:44:16Z</time>
      </trkpt>
      <trkpt lat="45.99594" lon="4.89397">
        <ele>290</ele>
        <time>2016-11-28T10:44:17Z</time>
      </trkpt>
      <trkpt lat="45.99593" lon="4.89388">
        <ele>290</ele>
        <time>2016-11-28T10:44:18Z</time>
      </trkpt>
      <trkpt lat="45.99593" lon="4.89378">
        <ele>290</ele>
        <time>2016-11-28T10:44:19Z</time>
      </trkpt>
      <trkpt lat="45.99592" lon="4.89369">
        <ele>289</ele>
        <time>2016-11-28T10:44:20Z</time>
      </trkpt>
      <trkpt lat="45.99591" lon="4.89361">
        <ele>289</ele>
        <time>2016-11-28T10:44:21Z</time>
      </trkpt>
      <trkpt lat="45.9959" lon="4.89352">
        <ele>289</ele>
        <time>2016-11-28T10:44:22Z</time>
      </trkpt>
      <trkpt lat="45.9959" lon="4.89343">
        <ele>289</ele>
        <time>2016-11-28T10:44:23Z</time>
      </trkpt>
      <trkpt lat="45.99589" lon="4.89335">
        <ele>289</ele>
        <time>2016-11-28T10:44:24Z</time>
      </trkpt>
      <trkpt lat="45.99588" lon="4.89327">
        <ele>289</ele>
        <time>2016-11-28T10:44:25Z</time>
      </trkpt>
      <trkpt lat="45.99588" lon="4.89319">
        <ele>289</ele>
        <time>2016-11-28T10:44:26Z</time>
      </trkpt>
      <trkpt lat="45.99587" lon="4.89311">
        <ele>289</ele>
        <time>2016-11-28T10:44:27Z</time>
      </trkpt>
      <trkpt lat="45.99587" lon="4.89304">
        <ele>289</ele>
        <time>2016-11-28T10:44:28Z</time>
      </trkpt>
      <trkpt lat="45.99586" lon="4.89296">
        <ele>289</ele>
        <time>2016-11-28T10:44:29Z</time>
      </trkpt>
      <trkpt lat="45.99586" lon="4.89288">
        <ele>289</ele>
        <time>2016-11-28T10:44:30Z</time>
      </trkpt>
      <trkpt lat="45.99585" lon="4.8928">
        <ele>289</ele>
        <time>2016-11-28T10:44:31Z</time>
      </trkpt>
      <trkpt lat="45.99584" lon="4.89272">
        <ele>288</ele>
        <time>2016-11-28T10:44:32Z</time>
      </trkpt>
      <trkpt lat="45.99584" lon="4.89264">
        <ele>288</ele>
        <time>2016-11-28T10:44:33Z</time>
      </trkpt>
      <trkpt lat="45.99583" lon="4.89256">
        <ele>288</ele>
        <time>2016-11-28T10:44:34Z</time>
      </trkpt>
      <trkpt lat="45.99583" lon="4.89247">
        <ele>288</ele>
        <time>2016-11-28T10:44:35Z</time>
      </trkpt>
      <trkpt lat="45.99583" lon="4.89238">
        <ele>288</ele>
        <time>2016-11-28T10:44:36Z</time>
      </trkpt>
      <trkpt lat="45.99582" lon="4.89229">
        <ele>288</ele>
        <time>2016-11-28T10:44:37Z</time>
      </trkpt>
      <trkpt lat="45.99582" lon="4.89221">
        <ele>288</ele>
        <time>2016-11-28T10:44:38Z</time>
      </trkpt>
      <trkpt lat="45.99581" lon="4.89212">
        <ele>288</ele>
        <time>2016-11-28T10:44:39Z</time>
      </trkpt>
      <trkpt lat="45.9958" lon="4.89204">
        <ele>288</ele>
        <time>2016-11-28T10:44:40Z</time>
      </trkpt>
      <trkpt lat="45.9958" lon="4.89196">
        <ele>288</ele>
        <time>2016-11-28T10:44:41Z</time>
      </trkpt>
      <trkpt lat="45.99579" lon="4.89188">
        <ele>288</ele>
        <time>2016-11-28T10:44:42Z</time>
      </trkpt>
      <trkpt lat="45.99579" lon="4.8918">
        <ele>288</ele>
        <time>2016-11-28T10:44:43Z</time>
      </trkpt>
      <trkpt lat="45.99579" lon="4.89172">
        <ele>288</ele>
        <time>2016-11-28T10:44:44Z</time>
      </trkpt>
      <trkpt lat="45.99579" lon="4.89165">
        <ele>288</ele>
        <time>2016-11-28T10:44:45Z</time>
      </trkpt>
      <trkpt lat="45.99578" lon="4.89157">
        <ele>288</ele>
        <time>2016-11-28T10:44:46Z</time>
      </trkpt>
      <trkpt lat="45.99578" lon="4.89149">
        <ele>289</ele>
        <time>2016-11-28T10:44:47Z</time>
      </trkpt>
      <trkpt lat="45.99577" lon="4.89141">
        <ele>289</ele>
        <time>2016-11-28T10:44:48Z</time>
      </trkpt>
      <trkpt lat="45.99577" lon="4.89133">
        <ele>289</ele>
        <time>2016-11-28T10:44:49Z</time>
      </trkpt>
      <trkpt lat="45.99577" lon="4.89125">
        <ele>289</ele>
        <time>2016-11-28T10:44:50Z</time>
      </trkpt>
      <trkpt lat="45.99577" lon="4.89117">
        <ele>289</ele>
        <time>2016-11-28T10:44:51Z</time>
      </trkpt>
      <trkpt lat="45.99577" lon="4.89109">
        <ele>289</ele>
        <time>2016-11-28T10:44:52Z</time>
      </trkpt>
      <trkpt lat="45.99578" lon="4.89101">
        <ele>289</ele>
        <time>2016-11-28T10:44:53Z</time>
      </trkpt>
      <trkpt lat="45.99578" lon="4.89092">
        <ele>289</ele>
        <time>2016-11-28T10:44:54Z</time>
      </trkpt>
      <trkpt lat="45.99579" lon="4.89083">
        <ele>289</ele>
        <time>2016-11-28T10:44:55Z</time>
      </trkpt>
      <trkpt lat="45.9958" lon="4.89074">
        <ele>289</ele>
        <time>2016-11-28T10:44:56Z</time>
      </trkpt>
      <trkpt lat="45.99581" lon="4.89065">
        <ele>289</ele>
        <time>2016-11-28T10:44:57Z</time>
      </trkpt>
      <trkpt lat="45.99581" lon="4.89057">
        <ele>289</ele>
        <time>2016-11-28T10:44:58Z</time>
      </trkpt>
      <trkpt lat="45.99582" lon="4.89048">
        <ele>288</ele>
        <time>2016-11-28T10:44:59Z</time>
      </trkpt>
      <trkpt lat="45.99582" lon="4.89039">
        <ele>288</ele>
        <time>2016-11-28T10:45:00Z</time>
      </trkpt>
      <trkpt lat="45.99582" lon="4.89031">
        <ele>288</ele>
        <time>2016-11-28T10:45:01Z</time>
      </trkpt>
      <trkpt lat="45.99583" lon="4.89023">
        <ele>288</ele>
        <time>2016-11-28T10:45:02Z</time>
      </trkpt>
      <trkpt lat="45.99583" lon="4.89015">
        <ele>288</ele>
        <time>2016-11-28T10:45:03Z</time>
      </trkpt>
      <trkpt lat="45.99584" lon="4.89009">
        <ele>288</ele>
        <time>2016-11-28T10:45:04Z</time>
      </trkpt>
      <trkpt lat="45.99585" lon="4.89002">
        <ele>288</ele>
        <time>2016-11-28T10:45:05Z</time>
      </trkpt>
      <trkpt lat="45.99585" lon="4.88995">
        <ele>288</ele>
        <time>2016-11-28T10:45:06Z</time>
      </trkpt>
      <trkpt lat="45.99585" lon="4.88987">
        <ele>288</ele>
        <time>2016-11-28T10:45:07Z</time>
      </trkpt>
      <trkpt lat="45.99585" lon="4.8898">
        <ele>288</ele>
        <time>2016-11-28T10:45:08Z</time>
      </trkpt>
      <trkpt lat="45.99585" lon="4.88972">
        <ele>288</ele>
        <time>2016-11-28T10:45:09Z</time>
      </trkpt>
      <trkpt lat="45.99584" lon="4.88964">
        <ele>288</ele>
        <time>2016-11-28T10:45:10Z</time>
      </trkpt>
      <trkpt lat="45.99584" lon="4.88957">
        <ele>287</ele>
        <time>2016-11-28T10:45:11Z</time>
      </trkpt>
      <trkpt lat="45.99584" lon="4.88948">
        <ele>287</ele>
        <time>2016-11-28T10:45:12Z</time>
      </trkpt>
      <trkpt lat="45.99583" lon="4.8894">
        <ele>287</ele>
        <time>2016-11-28T10:45:13Z</time>
      </trkpt>
      <trkpt lat="45.99582" lon="4.88931">
        <ele>287</ele>
        <time>2016-11-28T10:45:14Z</time>
      </trkpt>
      <trkpt lat="45.99581" lon="4.88923">
        <ele>287</ele>
        <time>2016-11-28T10:45:15Z</time>
      </trkpt>
      <trkpt lat="45.99581" lon="4.88914">
        <ele>287</ele>
        <time>2016-11-28T10:45:16Z</time>
      </trkpt>
      <trkpt lat="45.9958" lon="4.88906">
        <ele>287</ele>
        <time>2016-11-28T10:45:17Z</time>
      </trkpt>
      <trkpt lat="45.99579" lon="4.88897">
        <ele>287</ele>
        <time>2016-11-28T10:45:18Z</time>
      </trkpt>
      <trkpt lat="45.99579" lon="4.88888">
        <ele>287</ele>
        <time>2016-11-28T10:45:19Z</time>
      </trkpt>
      <trkpt lat="45.99578" lon="4.8888">
        <ele>287</ele>
        <time>2016-11-28T10:45:20Z</time>
      </trkpt>
      <trkpt lat="45.99577" lon="4.88871">
        <ele>287</ele>
        <time>2016-11-28T10:45:21Z</time>
      </trkpt>
      <trkpt lat="45.99577" lon="4.88862">
        <ele>287</ele>
        <time>2016-11-28T10:45:22Z</time>
      </trkpt>
      <trkpt lat="45.99576" lon="4.88853">
        <ele>287</ele>
        <time>2016-11-28T10:45:23Z</time>
      </trkpt>
      <trkpt lat="45.99575" lon="4.88844">
        <ele>287</ele>
        <time>2016-11-28T10:45:24Z</time>
      </trkpt>
      <trkpt lat="45.99574" lon="4.88835">
        <ele>287</ele>
        <time>2016-11-28T10:45:25Z</time>
      </trkpt>
      <trkpt lat="45.99573" lon="4.88827">
        <ele>287</ele>
        <time>2016-11-28T10:45:26Z</time>
      </trkpt>
      <trkpt lat="45.99572" lon="4.88819">
        <ele>287</ele>
        <time>2016-11-28T10:45:27Z</time>
      </trkpt>
      <trkpt lat="45.99571" lon="4.8881">
        <ele>287</ele>
        <time>2016-11-28T10:45:28Z</time>
      </trkpt>
      <trkpt lat="45.9957" lon="4.88802">
        <ele>287</ele>
        <time>2016-11-28T10:45:29Z</time>
      </trkpt>
      <trkpt lat="45.9957" lon="4.88795">
        <ele>287</ele>
        <time>2016-11-28T10:45:30Z</time>
      </trkpt>
      <trkpt lat="45.99569" lon="4.88787">
        <ele>287</ele>
        <time>2016-11-28T10:45:31Z</time>
      </trkpt>
      <trkpt lat="45.99569" lon="4.88779">
        <ele>287</ele>
        <time>2016-11-28T10:45:32Z</time>
      </trkpt>
      <trkpt lat="45.99568" lon="4.88771">
        <ele>287</ele>
        <time>2016-11-28T10:45:33Z</time>
      </trkpt>
      <trkpt lat="45.99566" lon="4.88763">
        <ele>287</ele>
        <time>2016-11-28T10:45:34Z</time>
      </trkpt>
      <trkpt lat="45.99565" lon="4.88755">
        <ele>287</ele>
        <time>2016-11-28T10:45:35Z</time>
      </trkpt>
      <trkpt lat="45.99565" lon="4.88747">
        <ele>287</ele>
        <time>2016-11-28T10:45:36Z</time>
      </trkpt>
      <trkpt lat="45.99564" lon="4.88738">
        <ele>287</ele>
        <time>2016-11-28T10:45:37Z</time>
      </trkpt>
      <trkpt lat="45.99563" lon="4.8873">
        <ele>287</ele>
        <time>2016-11-28T10:45:38Z</time>
      </trkpt>
      <trkpt lat="45.99562" lon="4.88722">
        <ele>286</ele>
        <time>2016-11-28T10:45:39Z</time>
      </trkpt>
      <trkpt lat="45.99561" lon="4.88713">
        <ele>286</ele>
        <time>2016-11-28T10:45:40Z</time>
      </trkpt>
      <trkpt lat="45.99561" lon="4.88705">
        <ele>286</ele>
        <time>2016-11-28T10:45:41Z</time>
      </trkpt>
      <trkpt lat="45.9956" lon="4.88696">
        <ele>286</ele>
        <time>2016-11-28T10:45:42Z</time>
      </trkpt>
      <trkpt lat="45.99559" lon="4.88687">
        <ele>286</ele>
        <time>2016-11-28T10:45:43Z</time>
      </trkpt>
      <trkpt lat="45.99558" lon="4.88678">
        <ele>286</ele>
        <time>2016-11-28T10:45:44Z</time>
      </trkpt>
      <trkpt lat="45.99557" lon="4.88668">
        <ele>286</ele>
        <time>2016-11-28T10:45:45Z</time>
      </trkpt>
      <trkpt lat="45.99556" lon="4.88658">
        <ele>286</ele>
        <time>2016-11-28T10:45:46Z</time>
      </trkpt>
      <trkpt lat="45.99555" lon="4.88648">
        <ele>286</ele>
        <time>2016-11-28T10:45:47Z</time>
      </trkpt>
      <trkpt lat="45.99554" lon="4.88639">
        <ele>286</ele>
        <time>2016-11-28T10:45:48Z</time>
      </trkpt>
      <trkpt lat="45.99554" lon="4.88629">
        <ele>286</ele>
        <time>2016-11-28T10:45:49Z</time>
      </trkpt>
      <trkpt lat="45.99553" lon="4.8862">
        <ele>286</ele>
        <time>2016-11-28T10:45:50Z</time>
      </trkpt>
      <trkpt lat="45.99552" lon="4.8861">
        <ele>286</ele>
        <time>2016-11-28T10:45:51Z</time>
      </trkpt>
      <trkpt lat="45.99551" lon="4.88602">
        <ele>286</ele>
        <time>2016-11-28T10:45:52Z</time>
      </trkpt>
      <trkpt lat="45.9955" lon="4.88593">
        <ele>286</ele>
        <time>2016-11-28T10:45:53Z</time>
      </trkpt>
      <trkpt lat="45.99548" lon="4.88584">
        <ele>286</ele>
        <time>2016-11-28T10:45:54Z</time>
      </trkpt>
      <trkpt lat="45.99546" lon="4.88576">
        <ele>286</ele>
        <time>2016-11-28T10:45:55Z</time>
      </trkpt>
      <trkpt lat="45.99544" lon="4.88568">
        <ele>285</ele>
        <time>2016-11-28T10:45:56Z</time>
      </trkpt>
      <trkpt lat="45.99542" lon="4.8856">
        <ele>285</ele>
        <time>2016-11-28T10:45:57Z</time>
      </trkpt>
      <trkpt lat="45.99539" lon="4.88553">
        <ele>285</ele>
        <time>2016-11-28T10:45:58Z</time>
      </trkpt>
      <trkpt lat="45.99537" lon="4.88546">
        <ele>285</ele>
        <time>2016-11-28T10:45:59Z</time>
      </trkpt>
      <trkpt lat="45.99533" lon="4.88539">
        <ele>285</ele>
        <time>2016-11-28T10:46:00Z</time>
      </trkpt>
      <trkpt lat="45.9953" lon="4.88532">
        <ele>285</ele>
        <time>2016-11-28T10:46:01Z</time>
      </trkpt>
      <trkpt lat="45.99526" lon="4.88525">
        <ele>285</ele>
        <time>2016-11-28T10:46:02Z</time>
      </trkpt>
      <trkpt lat="45.99523" lon="4.88518">
        <ele>285</ele>
        <time>2016-11-28T10:46:03Z</time>
      </trkpt>
      <trkpt lat="45.99519" lon="4.88512">
        <ele>285</ele>
        <time>2016-11-28T10:46:04Z</time>
      </trkpt>
      <trkpt lat="45.99514" lon="4.88505">
        <ele>285</ele>
        <time>2016-11-28T10:46:05Z</time>
      </trkpt>
      <trkpt lat="45.99511" lon="4.88499">
        <ele>284</ele>
        <time>2016-11-28T10:46:06Z</time>
      </trkpt>
      <trkpt lat="45.99507" lon="4.88492">
        <ele>284</ele>
        <time>2016-11-28T10:46:07Z</time>
      </trkpt>
      <trkpt lat="45.99504" lon="4.88485">
        <ele>284</ele>
        <time>2016-11-28T10:46:08Z</time>
      </trkpt>
      <trkpt lat="45.99501" lon="4.88477">
        <ele>284</ele>
        <time>2016-11-28T10:46:09Z</time>
      </trkpt>
      <trkpt lat="45.99497" lon="4.8847">
        <ele>284</ele>
        <time>2016-11-28T10:46:10Z</time>
      </trkpt>
      <trkpt lat="45.99494" lon="4.88463">
        <ele>284</ele>
        <time>2016-11-28T10:46:11Z</time>
      </trkpt>
      <trkpt lat="45.99489" lon="4.88456">
        <ele>284</ele>
        <time>2016-11-28T10:46:12Z</time>
      </trkpt>
      <trkpt lat="45.99485" lon="4.88449">
        <ele>284</ele>
        <time>2016-11-28T10:46:13Z</time>
      </trkpt>
      <trkpt lat="45.9948" lon="4.88442">
        <ele>284</ele>
        <time>2016-11-28T10:46:14Z</time>
      </trkpt>
      <trkpt lat="45.99476" lon="4.88436">
        <ele>284</ele>
        <time>2016-11-28T10:46:15Z</time>
      </trkpt>
      <trkpt lat="45.99471" lon="4.88429">
        <ele>284</ele>
        <time>2016-11-28T10:46:16Z</time>
      </trkpt>
      <trkpt lat="45.99466" lon="4.88424">
        <ele>284</ele>
        <time>2016-11-28T10:46:17Z</time>
      </trkpt>
      <trkpt lat="45.9946" lon="4.88419">
        <ele>284</ele>
        <time>2016-11-28T10:46:18Z</time>
      </trkpt>
      <trkpt lat="45.99455" lon="4.88414">
        <ele>283</ele>
        <time>2016-11-28T10:46:19Z</time>
      </trkpt>
      <trkpt lat="45.99449" lon="4.88409">
        <ele>283</ele>
        <time>2016-11-28T10:46:20Z</time>
      </trkpt>
      <trkpt lat="45.99444" lon="4.88403">
        <ele>283</ele>
        <time>2016-11-28T10:46:21Z</time>
      </trkpt>
      <trkpt lat="45.99439" lon="4.88397">
        <ele>283</ele>
        <time>2016-11-28T10:46:22Z</time>
      </trkpt>
      <trkpt lat="45.99435" lon="4.8839">
        <ele>283</ele>
        <time>2016-11-28T10:46:23Z</time>
      </trkpt>
      <trkpt lat="45.99431" lon="4.88381">
        <ele>283</ele>
        <time>2016-11-28T10:46:24Z</time>
      </trkpt>
      <trkpt lat="45.99428" lon="4.88373">
        <ele>283</ele>
        <time>2016-11-28T10:46:25Z</time>
      </trkpt>
      <trkpt lat="45.99424" lon="4.88365">
        <ele>283</ele>
        <time>2016-11-28T10:46:26Z</time>
      </trkpt>
      <trkpt lat="45.99421" lon="4.88356">
        <ele>283</ele>
        <time>2016-11-28T10:46:27Z</time>
      </trkpt>
      <trkpt lat="45.99417" lon="4.88348">
        <ele>282</ele>
        <time>2016-11-28T10:46:28Z</time>
      </trkpt>
      <trkpt lat="45.99414" lon="4.88339">
        <ele>282</ele>
        <time>2016-11-28T10:46:29Z</time>
      </trkpt>
      <trkpt lat="45.99411" lon="4.88331">
        <ele>282</ele>
        <time>2016-11-28T10:46:30Z</time>
      </trkpt>
      <trkpt lat="45.99408" lon="4.88322">
        <ele>283</ele>
        <time>2016-11-28T10:46:31Z</time>
      </trkpt>
      <trkpt lat="45.99405" lon="4.88314">
        <ele>283</ele>
        <time>2016-11-28T10:46:32Z</time>
      </trkpt>
      <trkpt lat="45.99402" lon="4.88306">
        <ele>284</ele>
        <time>2016-11-28T10:46:33Z</time>
      </trkpt>
      <trkpt lat="45.99398" lon="4.88299">
        <ele>284</ele>
        <time>2016-11-28T10:46:34Z</time>
      </trkpt>
      <trkpt lat="45.99395" lon="4.88291">
        <ele>284</ele>
        <time>2016-11-28T10:46:35Z</time>
      </trkpt>
      <trkpt lat="45.99392" lon="4.88283">
        <ele>284</ele>
        <time>2016-11-28T10:46:36Z</time>
      </trkpt>
      <trkpt lat="45.99388" lon="4.88275">
        <ele>284</ele>
        <time>2016-11-28T10:46:37Z</time>
      </trkpt>
      <trkpt lat="45.99385" lon="4.88268">
        <ele>285</ele>
        <time>2016-11-28T10:46:38Z</time>
      </trkpt>
      <trkpt lat="45.99383" lon="4.88261">
        <ele>285</ele>
        <time>2016-11-28T10:46:39Z</time>
      </trkpt>
      <trkpt lat="45.9938" lon="4.88254">
        <ele>285</ele>
        <time>2016-11-28T10:46:40Z</time>
      </trkpt>
      <trkpt lat="45.99377" lon="4.88248">
        <ele>287</ele>
        <time>2016-11-28T10:46:41Z</time>
      </trkpt>
      <trkpt lat="45.99373" lon="4.88242">
        <ele>287</ele>
        <time>2016-11-28T10:46:42Z</time>
      </trkpt>
      <trkpt lat="45.99369" lon="4.88237">
        <ele>287</ele>
        <time>2016-11-28T10:46:43Z</time>
      </trkpt>
      <trkpt lat="45.99365" lon="4.88232">
        <ele>287</ele>
        <time>2016-11-28T10:46:44Z</time>
      </trkpt>
      <trkpt lat="45.9936" lon="4.88227">
        <ele>287</ele>
        <time>2016-11-28T10:46:45Z</time>
      </trkpt>
      <trkpt lat="45.99355" lon="4.88222">
        <ele>287</ele>
        <time>2016-11-28T10:46:46Z</time>
      </trkpt>
      <trkpt lat="45.99349" lon="4.88217">
        <ele>287</ele>
        <time>2016-11-28T10:46:47Z</time>
      </trkpt>
      <trkpt lat="45.99344" lon="4.88211">
        <ele>287</ele>
        <time>2016-11-28T10:46:48Z</time>
      </trkpt>
      <trkpt lat="45.99338" lon="4.88205">
        <ele>288</ele>
        <time>2016-11-28T10:46:49Z</time>
      </trkpt>
      <trkpt lat="45.99332" lon="4.882">
        <ele>285</ele>
        <time>2016-11-28T10:46:50Z</time>
      </trkpt>
      <trkpt lat="45.99326" lon="4.88194">
        <ele>285</ele>
        <time>2016-11-28T10:46:51Z</time>
      </trkpt>
      <trkpt lat="45.9932" lon="4.88188">
        <ele>285</ele>
        <time>2016-11-28T10:46:52Z</time>
      </trkpt>
      <trkpt lat="45.99314" lon="4.88182">
        <ele>285</ele>
        <time>2016-11-28T10:46:53Z</time>
      </trkpt>
      <trkpt lat="45.99307" lon="4.88176">
        <ele>285</ele>
        <time>2016-11-28T10:46:54Z</time>
      </trkpt>
      <trkpt lat="45.99301" lon="4.88171">
        <ele>285</ele>
        <time>2016-11-28T10:46:55Z</time>
      </trkpt>
      <trkpt lat="45.99294" lon="4.88166">
        <ele>284</ele>
        <time>2016-11-28T10:46:56Z</time>
      </trkpt>
      <trkpt lat="45.99288" lon="4.8816">
        <ele>284</ele>
        <time>2016-11-28T10:46:57Z</time>
      </trkpt>
      <trkpt lat="45.99282" lon="4.88155">
        <ele>284</ele>
        <time>2016-11-28T10:46:58Z</time>
      </trkpt>
      <trkpt lat="45.99277" lon="4.88151">
        <ele>283</ele>
        <time>2016-11-28T10:46:59Z</time>
      </trkpt>
      <trkpt lat="45.99271" lon="4.88146">
        <ele>283</ele>
        <time>2016-11-28T10:47:00Z</time>
      </trkpt>
      <trkpt lat="45.99265" lon="4.88141">
        <ele>283</ele>
        <time>2016-11-28T10:47:01Z</time>
      </trkpt>
      <trkpt lat="45.99259" lon="4.88136">
        <ele>283</ele>
        <time>2016-11-28T10:47:02Z</time>
      </trkpt>
      <trkpt lat="45.99253" lon="4.88131">
        <ele>283</ele>
        <time>2016-11-28T10:47:03Z</time>
      </trkpt>
      <trkpt lat="45.99247" lon="4.88126">
        <ele>280</ele>
        <time>2016-11-28T10:47:04Z</time>
      </trkpt>
      <trkpt lat="45.99242" lon="4.88121">
        <ele>280</ele>
        <time>2016-11-28T10:47:05Z</time>
      </trkpt>
      <trkpt lat="45.99236" lon="4.88116">
        <ele>280</ele>
        <time>2016-11-28T10:47:06Z</time>
      </trkpt>
      <trkpt lat="45.99231" lon="4.88111">
        <ele>280</ele>
        <time>2016-11-28T10:47:07Z</time>
      </trkpt>
      <trkpt lat="45.99225" lon="4.88106">
        <ele>280</ele>
        <time>2016-11-28T10:47:08Z</time>
      </trkpt>
      <trkpt lat="45.9922" lon="4.88101">
        <ele>280</ele>
        <time>2016-11-28T10:47:09Z</time>
      </trkpt>
      <trkpt lat="45.99214" lon="4.88096">
        <ele>280</ele>
        <time>2016-11-28T10:47:10Z</time>
      </trkpt>
      <trkpt lat="45.99209" lon="4.88091">
        <ele>280</ele>
        <time>2016-11-28T10:47:11Z</time>
      </trkpt>
      <trkpt lat="45.99203" lon="4.88087">
        <ele>280</ele>
        <time>2016-11-28T10:47:12Z</time>
      </trkpt>
      <trkpt lat="45.99197" lon="4.88082">
        <ele>280</ele>
        <time>2016-11-28T10:47:13Z</time>
      </trkpt>
      <trkpt lat="45.99191" lon="4.88076">
        <ele>280</ele>
        <time>2016-11-28T10:47:14Z</time>
      </trkpt>
      <trkpt lat="45.99185" lon="4.88071">
        <ele>279</ele>
        <time>2016-11-28T10:47:15Z</time>
      </trkpt>
      <trkpt lat="45.99179" lon="4.88065">
        <ele>279</ele>
        <time>2016-11-28T10:47:16Z</time>
      </trkpt>
      <trkpt lat="45.99172" lon="4.8806">
        <ele>279</ele>
        <time>2016-11-28T10:47:17Z</time>
      </trkpt>
      <trkpt lat="45.99166" lon="4.88055">
        <ele>279</ele>
        <time>2016-11-28T10:47:18Z</time>
      </trkpt>
      <trkpt lat="45.99159" lon="4.88049">
        <ele>279</ele>
        <time>2016-11-28T10:47:19Z</time>
      </trkpt>
      <trkpt lat="45.99151" lon="4.88044">
        <ele>279</ele>
        <time>2016-11-28T10:47:20Z</time>
      </trkpt>
      <trkpt lat="45.99144" lon="4.8804">
        <ele>279</ele>
        <time>2016-11-28T10:47:21Z</time>
      </trkpt>
      <trkpt lat="45.99137" lon="4.88036">
        <ele>279</ele>
        <time>2016-11-28T10:47:22Z</time>
      </trkpt>
      <trkpt lat="45.9913" lon="4.88031">
        <ele>279</ele>
        <time>2016-11-28T10:47:23Z</time>
      </trkpt>
      <trkpt lat="45.99123" lon="4.88027">
        <ele>278</ele>
        <time>2016-11-28T10:47:24Z</time>
      </trkpt>
      <trkpt lat="45.99116" lon="4.88023">
        <ele>278</ele>
        <time>2016-11-28T10:47:25Z</time>
      </trkpt>
      <trkpt lat="45.99109" lon="4.88019">
        <ele>278</ele>
        <time>2016-11-28T10:47:26Z</time>
      </trkpt>
      <trkpt lat="45.99102" lon="4.88015">
        <ele>278</ele>
        <time>2016-11-28T10:47:27Z</time>
      </trkpt>
      <trkpt lat="45.99095" lon="4.88011">
        <ele>278</ele>
        <time>2016-11-28T10:47:28Z</time>
      </trkpt>
      <trkpt lat="45.99087" lon="4.88007">
        <ele>278</ele>
        <time>2016-11-28T10:47:29Z</time>
      </trkpt>
      <trkpt lat="45.9908" lon="4.88003">
        <ele>278</ele>
        <time>2016-11-28T10:47:30Z</time>
      </trkpt>
      <trkpt lat="45.99073" lon="4.87999">
        <ele>277</ele>
        <time>2016-11-28T10:47:31Z</time>
      </trkpt>
      <trkpt lat="45.99066" lon="4.87995">
        <ele>277</ele>
        <time>2016-11-28T10:47:32Z</time>
      </trkpt>
      <trkpt lat="45.99059" lon="4.8799">
        <ele>277</ele>
        <time>2016-11-28T10:47:33Z</time>
      </trkpt>
      <trkpt lat="45.99052" lon="4.87986">
        <ele>277</ele>
        <time>2016-11-28T10:47:34Z</time>
      </trkpt>
      <trkpt lat="45.99045" lon="4.87982">
        <ele>277</ele>
        <time>2016-11-28T10:47:35Z</time>
      </trkpt>
      <trkpt lat="45.99039" lon="4.87977">
        <ele>276</ele>
        <time>2016-11-28T10:47:36Z</time>
      </trkpt>
      <trkpt lat="45.99031" lon="4.87973">
        <ele>276</ele>
        <time>2016-11-28T10:47:37Z</time>
      </trkpt>
      <trkpt lat="45.99024" lon="4.87969">
        <ele>276</ele>
        <time>2016-11-28T10:47:38Z</time>
      </trkpt>
      <trkpt lat="45.99017" lon="4.87965">
        <ele>276</ele>
        <time>2016-11-28T10:47:39Z</time>
      </trkpt>
      <trkpt lat="45.9901" lon="4.87962">
        <ele>276</ele>
        <time>2016-11-28T10:47:40Z</time>
      </trkpt>
      <trkpt lat="45.99002" lon="4.87958">
        <ele>276</ele>
        <time>2016-11-28T10:47:41Z</time>
      </trkpt>
      <trkpt lat="45.98995" lon="4.87954">
        <ele>274</ele>
        <time>2016-11-28T10:47:42Z</time>
      </trkpt>
      <trkpt lat="45.98987" lon="4.8795">
        <ele>274</ele>
        <time>2016-11-28T10:47:43Z</time>
      </trkpt>
      <trkpt lat="45.98979" lon="4.87945">
        <ele>274</ele>
        <time>2016-11-28T10:47:44Z</time>
      </trkpt>
      <trkpt lat="45.98971" lon="4.8794">
        <ele>274</ele>
        <time>2016-11-28T10:47:45Z</time>
      </trkpt>
      <trkpt lat="45.98963" lon="4.87936">
        <ele>273</ele>
        <time>2016-11-28T10:47:46Z</time>
      </trkpt>
      <trkpt lat="45.98955" lon="4.87932">
        <ele>273</ele>
        <time>2016-11-28T10:47:47Z</time>
      </trkpt>
      <trkpt lat="45.98947" lon="4.87927">
        <ele>273</ele>
        <time>2016-11-28T10:47:48Z</time>
      </trkpt>
      <trkpt lat="45.98939" lon="4.87921">
        <ele>272</ele>
        <time>2016-11-28T10:47:49Z</time>
      </trkpt>
      <trkpt lat="45.9893" lon="4.87915">
        <ele>273</ele>
        <time>2016-11-28T10:47:50Z</time>
      </trkpt>
      <trkpt lat="45.98922" lon="4.87908">
        <ele>272</ele>
        <time>2016-11-28T10:47:51Z</time>
      </trkpt>
      <trkpt lat="45.98914" lon="4.879">
        <ele>272</ele>
        <time>2016-11-28T10:47:52Z</time>
      </trkpt>
      <trkpt lat="45.98906" lon="4.87892">
        <ele>272</ele>
        <time>2016-11-28T10:47:53Z</time>
      </trkpt>
      <trkpt lat="45.98899" lon="4.87884">
        <ele>272</ele>
        <time>2016-11-28T10:47:54Z</time>
      </trkpt>
      <trkpt lat="45.98892" lon="4.87874">
        <ele>272</ele>
        <time>2016-11-28T10:47:55Z</time>
      </trkpt>
      <trkpt lat="45.98886" lon="4.87865">
        <ele>272</ele>
        <time>2016-11-28T10:47:56Z</time>
      </trkpt>
      <trkpt lat="45.9888" lon="4.87855">
        <ele>272</ele>
        <time>2016-11-28T10:47:57Z</time>
      </trkpt>
      <trkpt lat="45.98875" lon="4.87846">
        <ele>273</ele>
        <time>2016-11-28T10:47:58Z</time>
      </trkpt>
      <trkpt lat="45.9887" lon="4.87836">
        <ele>273</ele>
        <time>2016-11-28T10:47:59Z</time>
      </trkpt>
      <trkpt lat="45.98866" lon="4.87826">
        <ele>273</ele>
        <time>2016-11-28T10:48:00Z</time>
      </trkpt>
      <trkpt lat="45.98862" lon="4.87816">
        <ele>273</ele>
        <time>2016-11-28T10:48:01Z</time>
      </trkpt>
      <trkpt lat="45.98858" lon="4.87806">
        <ele>273</ele>
        <time>2016-11-28T10:48:02Z</time>
      </trkpt>
      <trkpt lat="45.98855" lon="4.87796">
        <ele>273</ele>
        <time>2016-11-28T10:48:03Z</time>
      </trkpt>
      <trkpt lat="45.98851" lon="4.87786">
        <ele>273</ele>
        <time>2016-11-28T10:48:04Z</time>
      </trkpt>
      <trkpt lat="45.98848" lon="4.87776">
        <ele>273</ele>
        <time>2016-11-28T10:48:05Z</time>
      </trkpt>
      <trkpt lat="45.98846" lon="4.87767">
        <ele>273</ele>
        <time>2016-11-28T10:48:06Z</time>
      </trkpt>
      <trkpt lat="45.98844" lon="4.87757">
        <ele>273</ele>
        <time>2016-11-28T10:48:07Z</time>
      </trkpt>
      <trkpt lat="45.98843" lon="4.87748">
        <ele>273</ele>
        <time>2016-11-28T10:48:08Z</time>
      </trkpt>
      <trkpt lat="45.98841" lon="4.87739">
        <ele>273</ele>
        <time>2016-11-28T10:48:09Z</time>
      </trkpt>
      <trkpt lat="45.98839" lon="4.8773">
        <ele>273</ele>
        <time>2016-11-28T10:48:10Z</time>
      </trkpt>
      <trkpt lat="45.98837" lon="4.8772">
        <ele>273</ele>
        <time>2016-11-28T10:48:11Z</time>
      </trkpt>
      <trkpt lat="45.98835" lon="4.8771">
        <ele>273</ele>
        <time>2016-11-28T10:48:12Z</time>
      </trkpt>
      <trkpt lat="45.98833" lon="4.87701">
        <ele>273</ele>
        <time>2016-11-28T10:48:13Z</time>
      </trkpt>
      <trkpt lat="45.98831" lon="4.87691">
        <ele>273</ele>
        <time>2016-11-28T10:48:14Z</time>
      </trkpt>
      <trkpt lat="45.98829" lon="4.87681">
        <ele>273</ele>
        <time>2016-11-28T10:48:15Z</time>
      </trkpt>
      <trkpt lat="45.98827" lon="4.87671">
        <ele>272</ele>
        <time>2016-11-28T10:48:16Z</time>
      </trkpt>
      <trkpt lat="45.98825" lon="4.87661">
        <ele>272</ele>
        <time>2016-11-28T10:48:17Z</time>
      </trkpt>
      <trkpt lat="45.98823" lon="4.87651">
        <ele>272</ele>
        <time>2016-11-28T10:48:18Z</time>
      </trkpt>
      <trkpt lat="45.9882" lon="4.87642">
        <ele>272</ele>
        <time>2016-11-28T10:48:19Z</time>
      </trkpt>
      <trkpt lat="45.98817" lon="4.87633">
        <ele>272</ele>
        <time>2016-11-28T10:48:20Z</time>
      </trkpt>
      <trkpt lat="45.98814" lon="4.87624">
        <ele>271</ele>
        <time>2016-11-28T10:48:21Z</time>
      </trkpt>
      <trkpt lat="45.98811" lon="4.87616">
        <ele>271</ele>
        <time>2016-11-28T10:48:22Z</time>
      </trkpt>
      <trkpt lat="45.98808" lon="4.87609">
        <ele>271</ele>
        <time>2016-11-28T10:48:23Z</time>
      </trkpt>
      <trkpt lat="45.98805" lon="4.87603">
        <ele>271</ele>
        <time>2016-11-28T10:48:24Z</time>
      </trkpt>
      <trkpt lat="45.98801" lon="4.87596">
        <ele>271</ele>
        <time>2016-11-28T10:48:25Z</time>
      </trkpt>
      <trkpt lat="45.98796" lon="4.8759">
        <ele>271</ele>
        <time>2016-11-28T10:48:26Z</time>
      </trkpt>
      <trkpt lat="45.98791" lon="4.87584">
        <ele>271</ele>
        <time>2016-11-28T10:48:27Z</time>
      </trkpt>
      <trkpt lat="45.98785" lon="4.87578">
        <ele>269</ele>
        <time>2016-11-28T10:48:28Z</time>
      </trkpt>
      <trkpt lat="45.9878" lon="4.87573">
        <ele>269</ele>
        <time>2016-11-28T10:48:29Z</time>
      </trkpt>
      <trkpt lat="45.98775" lon="4.87568">
        <ele>269</ele>
        <time>2016-11-28T10:48:30Z</time>
      </trkpt>
      <trkpt lat="45.98769" lon="4.87564">
        <ele>269</ele>
        <time>2016-11-28T10:48:31Z</time>
      </trkpt>
      <trkpt lat="45.98763" lon="4.8756">
        <ele>269</ele>
        <time>2016-11-28T10:48:32Z</time>
      </trkpt>
      <trkpt lat="45.98756" lon="4.87556">
        <ele>269</ele>
        <time>2016-11-28T10:48:33Z</time>
      </trkpt>
      <trkpt lat="45.98749" lon="4.87553">
        <ele>267</ele>
        <time>2016-11-28T10:48:34Z</time>
      </trkpt>
      <trkpt lat="45.98741" lon="4.87552">
        <ele>267</ele>
        <time>2016-11-28T10:48:35Z</time>
      </trkpt>
      <trkpt lat="45.98735" lon="4.87551">
        <ele>267</ele>
        <time>2016-11-28T10:48:36Z</time>
      </trkpt>
      <trkpt lat="45.98728" lon="4.87552">
        <ele>267</ele>
        <time>2016-11-28T10:48:37Z</time>
      </trkpt>
      <trkpt lat="45.98722" lon="4.87554">
        <ele>267</ele>
        <time>2016-11-28T10:48:38Z</time>
      </trkpt>
      <trkpt lat="45.98716" lon="4.87555">
        <ele>267</ele>
        <time>2016-11-28T10:48:39Z</time>
      </trkpt>
      <trkpt lat="45.9871" lon="4.87556">
        <ele>267</ele>
        <time>2016-11-28T10:48:40Z</time>
      </trkpt>
      <trkpt lat="45.98704" lon="4.87557">
        <ele>267</ele>
        <time>2016-11-28T10:48:41Z</time>
      </trkpt>
      <trkpt lat="45.98698" lon="4.87559">
        <ele>267</ele>
        <time>2016-11-28T10:48:42Z</time>
      </trkpt>
      <trkpt lat="45.98692" lon="4.87561">
        <ele>267</ele>
        <time>2016-11-28T10:48:43Z</time>
      </trkpt>
      <trkpt lat="45.98687" lon="4.87563">
        <ele>267</ele>
        <time>2016-11-28T10:48:44Z</time>
      </trkpt>
      <trkpt lat="45.98682" lon="4.87565">
        <ele>267</ele>
        <time>2016-11-28T10:48:45Z</time>
      </trkpt>
      <trkpt lat="45.98677" lon="4.87566">
        <ele>267</ele>
        <time>2016-11-28T10:48:46Z</time>
      </trkpt>
      <trkpt lat="45.98672" lon="4.87568">
        <ele>267</ele>
        <time>2016-11-28T10:48:47Z</time>
      </trkpt>
      <trkpt lat="45.98666" lon="4.87569">
        <ele>267</ele>
        <time>2016-11-28T10:48:48Z</time>
      </trkpt>
      <trkpt lat="45.9866" lon="4.87567">
        <ele>267</ele>
        <time>2016-11-28T10:48:49Z</time>
      </trkpt>
      <trkpt lat="45.98655" lon="4.87564">
        <ele>267</ele>
        <time>2016-11-28T10:48:50Z</time>
      </trkpt>
      <trkpt lat="45.98651" lon="4.87558">
        <ele>267</ele>
        <time>2016-11-28T10:48:51Z</time>
      </trkpt>
      <trkpt lat="45.98647" lon="4.87552">
        <ele>267</ele>
        <time>2016-11-28T10:48:52Z</time>
      </trkpt>
      <trkpt lat="45.98644" lon="4.87546">
        <ele>267</ele>
        <time>2016-11-28T10:48:53Z</time>
      </trkpt>
      <trkpt lat="45.98643" lon="4.87538">
        <ele>267</ele>
        <time>2016-11-28T10:48:54Z</time>
      </trkpt>
      <trkpt lat="45.98642" lon="4.87531">
        <ele>267</ele>
        <time>2016-11-28T10:48:55Z</time>
      </trkpt>
      <trkpt lat="45.9864" lon="4.87523">
        <ele>267</ele>
        <time>2016-11-28T10:48:56Z</time>
      </trkpt>
      <trkpt lat="45.98639" lon="4.87515">
        <ele>267</ele>
        <time>2016-11-28T10:48:57Z</time>
      </trkpt>
      <trkpt lat="45.98637" lon="4.87507">
        <ele>267</ele>
        <time>2016-11-28T10:48:58Z</time>
      </trkpt>
      <trkpt lat="45.98636" lon="4.875">
        <ele>267</ele>
        <time>2016-11-28T10:48:59Z</time>
      </trkpt>
      <trkpt lat="45.98635" lon="4.87493">
        <ele>267</ele>
        <time>2016-11-28T10:49:00Z</time>
      </trkpt>
      <trkpt lat="45.98634" lon="4.87486">
        <ele>268</ele>
        <time>2016-11-28T10:49:01Z</time>
      </trkpt>
      <trkpt lat="45.98633" lon="4.87479">
        <ele>268</ele>
        <time>2016-11-28T10:49:02Z</time>
      </trkpt>
      <trkpt lat="45.98632" lon="4.87473">
        <ele>268</ele>
        <time>2016-11-28T10:49:03Z</time>
      </trkpt>
      <trkpt lat="45.98629" lon="4.87461">
        <ele>268</ele>
        <time>2016-11-28T10:49:05Z</time>
      </trkpt>
      <trkpt lat="45.98627" lon="4.87455">
        <ele>268</ele>
        <time>2016-11-28T10:49:06Z</time>
      </trkpt>
      <trkpt lat="45.98625" lon="4.87443">
        <ele>268</ele>
        <time>2016-11-28T10:49:08Z</time>
      </trkpt>
      <trkpt lat="45.98623" lon="4.87437">
        <ele>269</ele>
        <time>2016-11-28T10:49:09Z</time>
      </trkpt>
      <trkpt lat="45.9862" lon="4.87425">
        <ele>269</ele>
        <time>2016-11-28T10:49:11Z</time>
      </trkpt>
      <trkpt lat="45.9862" lon="4.87419">
        <ele>269</ele>
        <time>2016-11-28T10:49:12Z</time>
      </trkpt>
      <trkpt lat="45.98619" lon="4.87413">
        <ele>271</ele>
        <time>2016-11-28T10:49:13Z</time>
      </trkpt>
      <trkpt lat="45.98618" lon="4.87406">
        <ele>271</ele>
        <time>2016-11-28T10:49:14Z</time>
      </trkpt>
      <trkpt lat="45.98616" lon="4.874">
        <ele>271</ele>
        <time>2016-11-28T10:49:15Z</time>
      </trkpt>
      <trkpt lat="45.98615" lon="4.87393">
        <ele>271</ele>
        <time>2016-11-28T10:49:16Z</time>
      </trkpt>
      <trkpt lat="45.98614" lon="4.87387">
        <ele>271</ele>
        <time>2016-11-28T10:49:17Z</time>
      </trkpt>
      <trkpt lat="45.98612" lon="4.87381">
        <ele>271</ele>
        <time>2016-11-28T10:49:18Z</time>
      </trkpt>
      <trkpt lat="45.98611" lon="4.87374">
        <ele>271</ele>
        <time>2016-11-28T10:49:19Z</time>
      </trkpt>
      <trkpt lat="45.98609" lon="4.87368">
        <ele>272</ele>
        <time>2016-11-28T10:49:20Z</time>
      </trkpt>
      <trkpt lat="45.98607" lon="4.87356">
        <ele>272</ele>
        <time>2016-11-28T10:49:22Z</time>
      </trkpt>
      <trkpt lat="45.98606" lon="4.8735">
        <ele>272</ele>
        <time>2016-11-28T10:49:23Z</time>
      </trkpt>
      <trkpt lat="45.98604" lon="4.87338">
        <ele>272</ele>
        <time>2016-11-28T10:49:25Z</time>
      </trkpt>
      <trkpt lat="45.98603" lon="4.87333">
        <ele>274</ele>
        <time>2016-11-28T10:49:26Z</time>
      </trkpt>
      <trkpt lat="45.98602" lon="4.87321">
        <ele>274</ele>
        <time>2016-11-28T10:49:28Z</time>
      </trkpt>
      <trkpt lat="45.98601" lon="4.87316">
        <ele>274</ele>
        <time>2016-11-28T10:49:29Z</time>
      </trkpt>
      <trkpt lat="45.986" lon="4.87304">
        <ele>274</ele>
        <time>2016-11-28T10:49:31Z</time>
      </trkpt>
      <trkpt lat="45.98599" lon="4.87299">
        <ele>274</ele>
        <time>2016-11-28T10:49:32Z</time>
      </trkpt>
      <trkpt lat="45.98599" lon="4.87287">
        <ele>275</ele>
        <time>2016-11-28T10:49:34Z</time>
      </trkpt>
      <trkpt lat="45.986" lon="4.87282">
        <ele>275</ele>
        <time>2016-11-28T10:49:35Z</time>
      </trkpt>
      <trkpt lat="45.98601" lon="4.87271">
        <ele>275</ele>
        <time>2016-11-28T10:49:37Z</time>
      </trkpt>
      <trkpt lat="45.98601" lon="4.87265">
        <ele>275</ele>
        <time>2016-11-28T10:49:38Z</time>
      </trkpt>
      <trkpt lat="45.98602" lon="4.87255">
        <ele>275</ele>
        <time>2016-11-28T10:49:40Z</time>
      </trkpt>
      <trkpt lat="45.98602" lon="4.87248">
        <ele>277</ele>
        <time>2016-11-28T10:49:41Z</time>
      </trkpt>
      <trkpt lat="45.98603" lon="4.87236">
        <ele>277</ele>
        <time>2016-11-28T10:49:43Z</time>
      </trkpt>
      <trkpt lat="45.98604" lon="4.8723">
        <ele>277</ele>
        <time>2016-11-28T10:49:44Z</time>
      </trkpt>
      <trkpt lat="45.98605" lon="4.8722">
        <ele>277</ele>
        <time>2016-11-28T10:49:46Z</time>
      </trkpt>
      <trkpt lat="45.98606" lon="4.87215">
        <ele>277</ele>
        <time>2016-11-28T10:49:47Z</time>
      </trkpt>
      <trkpt lat="45.98607" lon="4.87204">
        <ele>277</ele>
        <time>2016-11-28T10:49:49Z</time>
      </trkpt>
      <trkpt lat="45.98607" lon="4.87198">
        <ele>277</ele>
        <time>2016-11-28T10:49:50Z</time>
      </trkpt>
      <trkpt lat="45.98608" lon="4.87186">
        <ele>277</ele>
        <time>2016-11-28T10:49:52Z</time>
      </trkpt>
      <trkpt lat="45.98608" lon="4.87182">
        <ele>277</ele>
        <time>2016-11-28T10:49:53Z</time>
      </trkpt>
      <trkpt lat="45.98609" lon="4.87175">
        <ele>277</ele>
        <time>2016-11-28T10:49:54Z</time>
      </trkpt>
      <trkpt lat="45.9861" lon="4.87168">
        <ele>278</ele>
        <time>2016-11-28T10:49:55Z</time>
      </trkpt>
      <trkpt lat="45.9861" lon="4.87162">
        <ele>278</ele>
        <time>2016-11-28T10:49:56Z</time>
      </trkpt>
      <trkpt lat="45.98611" lon="4.87155">
        <ele>278</ele>
        <time>2016-11-28T10:49:57Z</time>
      </trkpt>
      <trkpt lat="45.98612" lon="4.87142">
        <ele>278</ele>
        <time>2016-11-28T10:49:59Z</time>
      </trkpt>
      <trkpt lat="45.98611" lon="4.87136">
        <ele>279</ele>
        <time>2016-11-28T10:50:00Z</time>
      </trkpt>
      <trkpt lat="45.9861" lon="4.87124">
        <ele>279</ele>
        <time>2016-11-28T10:50:02Z</time>
      </trkpt>
      <trkpt lat="45.9861" lon="4.87118">
        <ele>279</ele>
        <time>2016-11-28T10:50:03Z</time>
      </trkpt>
      <trkpt lat="45.98609" lon="4.87106">
        <ele>279</ele>
        <time>2016-11-28T10:50:05Z</time>
      </trkpt>
      <trkpt lat="45.98609" lon="4.871">
        <ele>279</ele>
        <time>2016-11-28T10:50:06Z</time>
      </trkpt>
      <trkpt lat="45.98608" lon="4.87088">
        <ele>279</ele>
        <time>2016-11-28T10:50:08Z</time>
      </trkpt>
      <trkpt lat="45.98607" lon="4.87082">
        <ele>279</ele>
        <time>2016-11-28T10:50:09Z</time>
      </trkpt>
      <trkpt lat="45.98607" lon="4.8707">
        <ele>279</ele>
        <time>2016-11-28T10:50:11Z</time>
      </trkpt>
      <trkpt lat="45.98608" lon="4.87063">
        <ele>279</ele>
        <time>2016-11-28T10:50:12Z</time>
      </trkpt>
      <trkpt lat="45.98606" lon="4.87051">
        <ele>279</ele>
        <time>2016-11-28T10:50:14Z</time>
      </trkpt>
      <trkpt lat="45.98604" lon="4.87043">
        <ele>279</ele>
        <time>2016-11-28T10:50:15Z</time>
      </trkpt>
      <trkpt lat="45.98603" lon="4.87037">
        <ele>279</ele>
        <time>2016-11-28T10:50:16Z</time>
      </trkpt>
      <trkpt lat="45.98602" lon="4.8703">
        <ele>279</ele>
        <time>2016-11-28T10:50:17Z</time>
      </trkpt>
      <trkpt lat="45.986" lon="4.87024">
        <ele>279</ele>
        <time>2016-11-28T10:50:18Z</time>
      </trkpt>
      <trkpt lat="45.98598" lon="4.87017">
        <ele>279</ele>
        <time>2016-11-28T10:50:19Z</time>
      </trkpt>
      <trkpt lat="45.98597" lon="4.8701">
        <ele>279</ele>
        <time>2016-11-28T10:50:20Z</time>
      </trkpt>
      <trkpt lat="45.98595" lon="4.87003">
        <ele>279</ele>
        <time>2016-11-28T10:50:21Z</time>
      </trkpt>
      <trkpt lat="45.98593" lon="4.86996">
        <ele>279</ele>
        <time>2016-11-28T10:50:22Z</time>
      </trkpt>
      <trkpt lat="45.98592" lon="4.8699">
        <ele>279</ele>
        <time>2016-11-28T10:50:23Z</time>
      </trkpt>
      <trkpt lat="45.9859" lon="4.86984">
        <ele>279</ele>
        <time>2016-11-28T10:50:24Z</time>
      </trkpt>
      <trkpt lat="45.98589" lon="4.86977">
        <ele>279</ele>
        <time>2016-11-28T10:50:25Z</time>
      </trkpt>
      <trkpt lat="45.98588" lon="4.86971">
        <ele>279</ele>
        <time>2016-11-28T10:50:26Z</time>
      </trkpt>
      <trkpt lat="45.98588" lon="4.86964">
        <ele>279</ele>
        <time>2016-11-28T10:50:27Z</time>
      </trkpt>
      <trkpt lat="45.98588" lon="4.86951">
        <ele>279</ele>
        <time>2016-11-28T10:50:29Z</time>
      </trkpt>
      <trkpt lat="45.98587" lon="4.86945">
        <ele>279</ele>
        <time>2016-11-28T10:50:30Z</time>
      </trkpt>
      <trkpt lat="45.98588" lon="4.86932">
        <ele>279</ele>
        <time>2016-11-28T10:50:32Z</time>
      </trkpt>
      <trkpt lat="45.98588" lon="4.86926">
        <ele>279</ele>
        <time>2016-11-28T10:50:33Z</time>
      </trkpt>
      <trkpt lat="45.98589" lon="4.86914">
        <ele>279</ele>
        <time>2016-11-28T10:50:35Z</time>
      </trkpt>
      <trkpt lat="45.9859" lon="4.86909">
        <ele>278</ele>
        <time>2016-11-28T10:50:36Z</time>
      </trkpt>
      <trkpt lat="45.9859" lon="4.86897">
        <ele>278</ele>
        <time>2016-11-28T10:50:38Z</time>
      </trkpt>
      <trkpt lat="45.98591" lon="4.86892">
        <ele>278</ele>
        <time>2016-11-28T10:50:39Z</time>
      </trkpt>
      <trkpt lat="45.98592" lon="4.8688">
        <ele>277</ele>
        <time>2016-11-28T10:50:41Z</time>
      </trkpt>
      <trkpt lat="45.98592" lon="4.86874">
        <ele>277</ele>
        <time>2016-11-28T10:50:42Z</time>
      </trkpt>
      <trkpt lat="45.98593" lon="4.86863">
        <ele>277</ele>
        <time>2016-11-28T10:50:44Z</time>
      </trkpt>
      <trkpt lat="45.98594" lon="4.86857">
        <ele>277</ele>
        <time>2016-11-28T10:50:45Z</time>
      </trkpt>
      <trkpt lat="45.98593" lon="4.86845">
        <ele>277</ele>
        <time>2016-11-28T10:50:47Z</time>
      </trkpt>
      <trkpt lat="45.98592" lon="4.86838">
        <ele>277</ele>
        <time>2016-11-28T10:50:48Z</time>
      </trkpt>
      <trkpt lat="45.98591" lon="4.86826">
        <ele>277</ele>
        <time>2016-11-28T10:50:50Z</time>
      </trkpt>
      <trkpt lat="45.9859" lon="4.8682">
        <ele>276</ele>
        <time>2016-11-28T10:50:51Z</time>
      </trkpt>
      <trkpt lat="45.98588" lon="4.86808">
        <ele>276</ele>
        <time>2016-11-28T10:50:53Z</time>
      </trkpt>
      <trkpt lat="45.98587" lon="4.86802">
        <ele>276</ele>
        <time>2016-11-28T10:50:54Z</time>
      </trkpt>
      <trkpt lat="45.98584" lon="4.8679">
        <ele>276</ele>
        <time>2016-11-28T10:50:56Z</time>
      </trkpt>
      <trkpt lat="45.98583" lon="4.86784">
        <ele>277</ele>
        <time>2016-11-28T10:50:57Z</time>
      </trkpt>
      <trkpt lat="45.98581" lon="4.86778">
        <ele>277</ele>
        <time>2016-11-28T10:50:58Z</time>
      </trkpt>
      <trkpt lat="45.9858" lon="4.86771">
        <ele>277</ele>
        <time>2016-11-28T10:50:59Z</time>
      </trkpt>
      <trkpt lat="45.98579" lon="4.86765">
        <ele>277</ele>
        <time>2016-11-28T10:51:00Z</time>
      </trkpt>
      <trkpt lat="45.98578" lon="4.86758">
        <ele>277</ele>
        <time>2016-11-28T10:51:01Z</time>
      </trkpt>
      <trkpt lat="45.98577" lon="4.86751">
        <ele>276</ele>
        <time>2016-11-28T10:51:02Z</time>
      </trkpt>
      <trkpt lat="45.98576" lon="4.86744">
        <ele>276</ele>
        <time>2016-11-28T10:51:03Z</time>
      </trkpt>
      <trkpt lat="45.98575" lon="4.86737">
        <ele>277</ele>
        <time>2016-11-28T10:51:04Z</time>
      </trkpt>
      <trkpt lat="45.98574" lon="4.8673">
        <ele>277</ele>
        <time>2016-11-28T10:51:05Z</time>
      </trkpt>
      <trkpt lat="45.98574" lon="4.86723">
        <ele>277</ele>
        <time>2016-11-28T10:51:06Z</time>
      </trkpt>
      <trkpt lat="45.98573" lon="4.86716">
        <ele>277</ele>
        <time>2016-11-28T10:51:07Z</time>
      </trkpt>
      <trkpt lat="45.98572" lon="4.86709">
        <ele>277</ele>
        <time>2016-11-28T10:51:08Z</time>
      </trkpt>
      <trkpt lat="45.98572" lon="4.86702">
        <ele>277</ele>
        <time>2016-11-28T10:51:09Z</time>
      </trkpt>
      <trkpt lat="45.98571" lon="4.86695">
        <ele>277</ele>
        <time>2016-11-28T10:51:10Z</time>
      </trkpt>
      <trkpt lat="45.98571" lon="4.86688">
        <ele>277</ele>
        <time>2016-11-28T10:51:11Z</time>
      </trkpt>
      <trkpt lat="45.9857" lon="4.8668">
        <ele>276</ele>
        <time>2016-11-28T10:51:12Z</time>
      </trkpt>
      <trkpt lat="45.9857" lon="4.86673">
        <ele>276</ele>
        <time>2016-11-28T10:51:13Z</time>
      </trkpt>
      <trkpt lat="45.98568" lon="4.86666">
        <ele>276</ele>
        <time>2016-11-28T10:51:14Z</time>
      </trkpt>
      <trkpt lat="45.98568" lon="4.86659">
        <ele>277</ele>
        <time>2016-11-28T10:51:15Z</time>
      </trkpt>
      <trkpt lat="45.98567" lon="4.86652">
        <ele>277</ele>
        <time>2016-11-28T10:51:16Z</time>
      </trkpt>
      <trkpt lat="45.98566" lon="4.86645">
        <ele>277</ele>
        <time>2016-11-28T10:51:17Z</time>
      </trkpt>
      <trkpt lat="45.98565" lon="4.86638">
        <ele>277</ele>
        <time>2016-11-28T10:51:18Z</time>
      </trkpt>
      <trkpt lat="45.98564" lon="4.86631">
        <ele>278</ele>
        <time>2016-11-28T10:51:19Z</time>
      </trkpt>
      <trkpt lat="45.98563" lon="4.86624">
        <ele>278</ele>
        <time>2016-11-28T10:51:20Z</time>
      </trkpt>
      <trkpt lat="45.98562" lon="4.86617">
        <ele>278</ele>
        <time>2016-11-28T10:51:21Z</time>
      </trkpt>
      <trkpt lat="45.9856" lon="4.8661">
        <ele>278</ele>
        <time>2016-11-28T10:51:22Z</time>
      </trkpt>
      <trkpt lat="45.98559" lon="4.86603">
        <ele>278</ele>
        <time>2016-11-28T10:51:23Z</time>
      </trkpt>
      <trkpt lat="45.98557" lon="4.86596">
        <ele>278</ele>
        <time>2016-11-28T10:51:24Z</time>
      </trkpt>
      <trkpt lat="45.98556" lon="4.86589">
        <ele>278</ele>
        <time>2016-11-28T10:51:25Z</time>
      </trkpt>
      <trkpt lat="45.98554" lon="4.86582">
        <ele>278</ele>
        <time>2016-11-28T10:51:26Z</time>
      </trkpt>
      <trkpt lat="45.98551" lon="4.86575">
        <ele>278</ele>
        <time>2016-11-28T10:51:27Z</time>
      </trkpt>
      <trkpt lat="45.98549" lon="4.86568">
        <ele>278</ele>
        <time>2016-11-28T10:51:28Z</time>
      </trkpt>
      <trkpt lat="45.98546" lon="4.86561">
        <ele>278</ele>
        <time>2016-11-28T10:51:29Z</time>
      </trkpt>
      <trkpt lat="45.98544" lon="4.86555">
        <ele>278</ele>
        <time>2016-11-28T10:51:30Z</time>
      </trkpt>
      <trkpt lat="45.98541" lon="4.86549">
        <ele>278</ele>
        <time>2016-11-28T10:51:31Z</time>
      </trkpt>
      <trkpt lat="45.98538" lon="4.86543">
        <ele>278</ele>
        <time>2016-11-28T10:51:32Z</time>
      </trkpt>
      <trkpt lat="45.98535" lon="4.86537">
        <ele>278</ele>
        <time>2016-11-28T10:51:33Z</time>
      </trkpt>
      <trkpt lat="45.98532" lon="4.86531">
        <ele>278</ele>
        <time>2016-11-28T10:51:34Z</time>
      </trkpt>
      <trkpt lat="45.98529" lon="4.86526">
        <ele>279</ele>
        <time>2016-11-28T10:51:35Z</time>
      </trkpt>
      <trkpt lat="45.98526" lon="4.8652">
        <ele>279</ele>
        <time>2016-11-28T10:51:36Z</time>
      </trkpt>
      <trkpt lat="45.98524" lon="4.86514">
        <ele>279</ele>
        <time>2016-11-28T10:51:37Z</time>
      </trkpt>
      <trkpt lat="45.98521" lon="4.86508">
        <ele>279</ele>
        <time>2016-11-28T10:51:38Z</time>
      </trkpt>
      <trkpt lat="45.98518" lon="4.86503">
        <ele>279</ele>
        <time>2016-11-28T10:51:39Z</time>
      </trkpt>
      <trkpt lat="45.98516" lon="4.86497">
        <ele>279</ele>
        <time>2016-11-28T10:51:40Z</time>
      </trkpt>
      <trkpt lat="45.98513" lon="4.86491">
        <ele>279</ele>
        <time>2016-11-28T10:51:41Z</time>
      </trkpt>
      <trkpt lat="45.98511" lon="4.86485">
        <ele>278</ele>
        <time>2016-11-28T10:51:42Z</time>
      </trkpt>
      <trkpt lat="45.98509" lon="4.86478">
        <ele>278</ele>
        <time>2016-11-28T10:51:43Z</time>
      </trkpt>
      <trkpt lat="45.98506" lon="4.86472">
        <ele>278</ele>
        <time>2016-11-28T10:51:44Z</time>
      </trkpt>
      <trkpt lat="45.98503" lon="4.86466">
        <ele>278</ele>
        <time>2016-11-28T10:51:45Z</time>
      </trkpt>
      <trkpt lat="45.98501" lon="4.86461">
        <ele>278</ele>
        <time>2016-11-28T10:51:46Z</time>
      </trkpt>
      <trkpt lat="45.98499" lon="4.86455">
        <ele>278</ele>
        <time>2016-11-28T10:51:47Z</time>
      </trkpt>
      <trkpt lat="45.98495" lon="4.86444">
        <ele>278</ele>
        <time>2016-11-28T10:51:49Z</time>
      </trkpt>
      <trkpt lat="45.98492" lon="4.86438">
        <ele>278</ele>
        <time>2016-11-28T10:51:50Z</time>
      </trkpt>
      <trkpt lat="45.98488" lon="4.86428">
        <ele>278</ele>
        <time>2016-11-28T10:51:52Z</time>
      </trkpt>
      <trkpt lat="45.98485" lon="4.86423">
        <ele>278</ele>
        <time>2016-11-28T10:51:53Z</time>
      </trkpt>
      <trkpt lat="45.98483" lon="4.86417">
        <ele>278</ele>
        <time>2016-11-28T10:51:54Z</time>
      </trkpt>
      <trkpt lat="45.9848" lon="4.86412">
        <ele>277</ele>
        <time>2016-11-28T10:51:55Z</time>
      </trkpt>
      <trkpt lat="45.98475" lon="4.86401">
        <ele>277</ele>
        <time>2016-11-28T10:51:57Z</time>
      </trkpt>
      <trkpt lat="45.98473" lon="4.86395">
        <ele>277</ele>
        <time>2016-11-28T10:51:58Z</time>
      </trkpt>
      <trkpt lat="45.9847" lon="4.86389">
        <ele>277</ele>
        <time>2016-11-28T10:51:59Z</time>
      </trkpt>
      <trkpt lat="45.98467" lon="4.86383">
        <ele>277</ele>
        <time>2016-11-28T10:52:00Z</time>
      </trkpt>
      <trkpt lat="45.98465" lon="4.86377">
        <ele>277</ele>
        <time>2016-11-28T10:52:01Z</time>
      </trkpt>
      <trkpt lat="45.98462" lon="4.8637">
        <ele>277</ele>
        <time>2016-11-28T10:52:02Z</time>
      </trkpt>
      <trkpt lat="45.98459" lon="4.86362">
        <ele>277</ele>
        <time>2016-11-28T10:52:03Z</time>
      </trkpt>
      <trkpt lat="45.98457" lon="4.86355">
        <ele>277</ele>
        <time>2016-11-28T10:52:04Z</time>
      </trkpt>
      <trkpt lat="45.98455" lon="4.86348">
        <ele>277</ele>
        <time>2016-11-28T10:52:05Z</time>
      </trkpt>
      <trkpt lat="45.98453" lon="4.86342">
        <ele>277</ele>
        <time>2016-11-28T10:52:06Z</time>
      </trkpt>
      <trkpt lat="45.9845" lon="4.8633">
        <ele>276</ele>
        <time>2016-11-28T10:52:08Z</time>
      </trkpt>
      <trkpt lat="45.98449" lon="4.86324">
        <ele>276</ele>
        <time>2016-11-28T10:52:09Z</time>
      </trkpt>
      <trkpt lat="45.98448" lon="4.86318">
        <ele>276</ele>
        <time>2016-11-28T10:52:10Z</time>
      </trkpt>
      <trkpt lat="45.98446" lon="4.86312">
        <ele>276</ele>
        <time>2016-11-28T10:52:11Z</time>
      </trkpt>
      <trkpt lat="45.98445" lon="4.86305">
        <ele>276</ele>
        <time>2016-11-28T10:52:12Z</time>
      </trkpt>
      <trkpt lat="45.98444" lon="4.86299">
        <ele>276</ele>
        <time>2016-11-28T10:52:13Z</time>
      </trkpt>
      <trkpt lat="45.98443" lon="4.86292">
        <ele>276</ele>
        <time>2016-11-28T10:52:14Z</time>
      </trkpt>
      <trkpt lat="45.98441" lon="4.86286">
        <ele>276</ele>
        <time>2016-11-28T10:52:15Z</time>
      </trkpt>
      <trkpt lat="45.98439" lon="4.86278">
        <ele>276</ele>
        <time>2016-11-28T10:52:16Z</time>
      </trkpt>
      <trkpt lat="45.98438" lon="4.86272">
        <ele>276</ele>
        <time>2016-11-28T10:52:17Z</time>
      </trkpt>
      <trkpt lat="45.98437" lon="4.86265">
        <ele>275</ele>
        <time>2016-11-28T10:52:18Z</time>
      </trkpt>
      <trkpt lat="45.98436" lon="4.86259">
        <ele>275</ele>
        <time>2016-11-28T10:52:19Z</time>
      </trkpt>
      <trkpt lat="45.98434" lon="4.86248">
        <ele>275</ele>
        <time>2016-11-28T10:52:21Z</time>
      </trkpt>
      <trkpt lat="45.98433" lon="4.86243">
        <ele>275</ele>
        <time>2016-11-28T10:52:22Z</time>
      </trkpt>
      <trkpt lat="45.98431" lon="4.86234">
        <ele>275</ele>
        <time>2016-11-28T10:52:24Z</time>
      </trkpt>
      <trkpt lat="45.9843" lon="4.86229">
        <ele>275</ele>
        <time>2016-11-28T10:52:25Z</time>
      </trkpt>
      <trkpt lat="45.98428" lon="4.8622">
        <ele>275</ele>
        <time>2016-11-28T10:52:27Z</time>
      </trkpt>
      <trkpt lat="45.98427" lon="4.86215">
        <ele>275</ele>
        <time>2016-11-28T10:52:28Z</time>
      </trkpt>
      <trkpt lat="45.98425" lon="4.86206">
        <ele>275</ele>
        <time>2016-11-28T10:52:30Z</time>
      </trkpt>
      <trkpt lat="45.98424" lon="4.86201">
        <ele>275</ele>
        <time>2016-11-28T10:52:31Z</time>
      </trkpt>
      <trkpt lat="45.98424" lon="4.86191">
        <ele>275</ele>
        <time>2016-11-28T10:52:33Z</time>
      </trkpt>
      <trkpt lat="45.98423" lon="4.86185">
        <ele>275</ele>
        <time>2016-11-28T10:52:34Z</time>
      </trkpt>
      <trkpt lat="45.98421" lon="4.86174">
        <ele>276</ele>
        <time>2016-11-28T10:52:36Z</time>
      </trkpt>
      <trkpt lat="45.9842" lon="4.86169">
        <ele>276</ele>
        <time>2016-11-28T10:52:37Z</time>
      </trkpt>
      <trkpt lat="45.98418" lon="4.86158">
        <ele>276</ele>
        <time>2016-11-28T10:52:39Z</time>
      </trkpt>
      <trkpt lat="45.98417" lon="4.86153">
        <ele>276</ele>
        <time>2016-11-28T10:52:40Z</time>
      </trkpt>
      <trkpt lat="45.98416" lon="4.86141">
        <ele>276</ele>
        <time>2016-11-28T10:52:42Z</time>
      </trkpt>
      <trkpt lat="45.98415" lon="4.86135">
        <ele>276</ele>
        <time>2016-11-28T10:52:43Z</time>
      </trkpt>
      <trkpt lat="45.98413" lon="4.86123">
        <ele>277</ele>
        <time>2016-11-28T10:52:45Z</time>
      </trkpt>
      <trkpt lat="45.98412" lon="4.86116">
        <ele>277</ele>
        <time>2016-11-28T10:52:46Z</time>
      </trkpt>
      <trkpt lat="45.98411" lon="4.86109">
        <ele>277</ele>
        <time>2016-11-28T10:52:47Z</time>
      </trkpt>
      <trkpt lat="45.98409" lon="4.86101">
        <ele>277</ele>
        <time>2016-11-28T10:52:48Z</time>
      </trkpt>
      <trkpt lat="45.98407" lon="4.86093">
        <ele>277</ele>
        <time>2016-11-28T10:52:49Z</time>
      </trkpt>
      <trkpt lat="45.98406" lon="4.86084">
        <ele>277</ele>
        <time>2016-11-28T10:52:50Z</time>
      </trkpt>
      <trkpt lat="45.98403" lon="4.86075">
        <ele>277</ele>
        <time>2016-11-28T10:52:51Z</time>
      </trkpt>
      <trkpt lat="45.98401" lon="4.86066">
        <ele>277</ele>
        <time>2016-11-28T10:52:52Z</time>
      </trkpt>
      <trkpt lat="45.98398" lon="4.86056">
        <ele>277</ele>
        <time>2016-11-28T10:52:53Z</time>
      </trkpt>
      <trkpt lat="45.98396" lon="4.86047">
        <ele>277</ele>
        <time>2016-11-28T10:52:54Z</time>
      </trkpt>
      <trkpt lat="45.98392" lon="4.86038">
        <ele>277</ele>
        <time>2016-11-28T10:52:55Z</time>
      </trkpt>
      <trkpt lat="45.98389" lon="4.86029">
        <ele>277</ele>
        <time>2016-11-28T10:52:56Z</time>
      </trkpt>
      <trkpt lat="45.98386" lon="4.8602">
        <ele>277</ele>
        <time>2016-11-28T10:52:57Z</time>
      </trkpt>
      <trkpt lat="45.98382" lon="4.86012">
        <ele>277</ele>
        <time>2016-11-28T10:52:58Z</time>
      </trkpt>
      <trkpt lat="45.98379" lon="4.86004">
        <ele>277</ele>
        <time>2016-11-28T10:52:59Z</time>
      </trkpt>
      <trkpt lat="45.98375" lon="4.85996">
        <ele>277</ele>
        <time>2016-11-28T10:53:00Z</time>
      </trkpt>
      <trkpt lat="45.98373" lon="4.85988">
        <ele>276</ele>
        <time>2016-11-28T10:53:01Z</time>
      </trkpt>
      <trkpt lat="45.9837" lon="4.8598">
        <ele>276</ele>
        <time>2016-11-28T10:53:02Z</time>
      </trkpt>
      <trkpt lat="45.98367" lon="4.85972">
        <ele>276</ele>
        <time>2016-11-28T10:53:03Z</time>
      </trkpt>
      <trkpt lat="45.98365" lon="4.85965">
        <ele>276</ele>
        <time>2016-11-28T10:53:04Z</time>
      </trkpt>
      <trkpt lat="45.98362" lon="4.85957">
        <ele>276</ele>
        <time>2016-11-28T10:53:05Z</time>
      </trkpt>
      <trkpt lat="45.98359" lon="4.8595">
        <ele>276</ele>
        <time>2016-11-28T10:53:06Z</time>
      </trkpt>
      <trkpt lat="45.98357" lon="4.85943">
        <ele>276</ele>
        <time>2016-11-28T10:53:07Z</time>
      </trkpt>
      <trkpt lat="45.98354" lon="4.85936">
        <ele>276</ele>
        <time>2016-11-28T10:53:08Z</time>
      </trkpt>
      <trkpt lat="45.98351" lon="4.85929">
        <ele>276</ele>
        <time>2016-11-28T10:53:09Z</time>
      </trkpt>
      <trkpt lat="45.98348" lon="4.85922">
        <ele>276</ele>
        <time>2016-11-28T10:53:10Z</time>
      </trkpt>
      <trkpt lat="45.98346" lon="4.85915">
        <ele>276</ele>
        <time>2016-11-28T10:53:11Z</time>
      </trkpt>
      <trkpt lat="45.98343" lon="4.85908">
        <ele>276</ele>
        <time>2016-11-28T10:53:12Z</time>
      </trkpt>
      <trkpt lat="45.98341" lon="4.85901">
        <ele>276</ele>
        <time>2016-11-28T10:53:13Z</time>
      </trkpt>
      <trkpt lat="45.98338" lon="4.85893">
        <ele>276</ele>
        <time>2016-11-28T10:53:14Z</time>
      </trkpt>
      <trkpt lat="45.98336" lon="4.85886">
        <ele>276</ele>
        <time>2016-11-28T10:53:15Z</time>
      </trkpt>
      <trkpt lat="45.98333" lon="4.85879">
        <ele>276</ele>
        <time>2016-11-28T10:53:16Z</time>
      </trkpt>
      <trkpt lat="45.98331" lon="4.85873">
        <ele>276</ele>
        <time>2016-11-28T10:53:17Z</time>
      </trkpt>
      <trkpt lat="45.98327" lon="4.85865">
        <ele>276</ele>
        <time>2016-11-28T10:53:18Z</time>
      </trkpt>
      <trkpt lat="45.98324" lon="4.85858">
        <ele>276</ele>
        <time>2016-11-28T10:53:19Z</time>
      </trkpt>
      <trkpt lat="45.98322" lon="4.85851">
        <ele>276</ele>
        <time>2016-11-28T10:53:20Z</time>
      </trkpt>
      <trkpt lat="45.98319" lon="4.85843">
        <ele>276</ele>
        <time>2016-11-28T10:53:21Z</time>
      </trkpt>
      <trkpt lat="45.98316" lon="4.85835">
        <ele>276</ele>
        <time>2016-11-28T10:53:22Z</time>
      </trkpt>
      <trkpt lat="45.98313" lon="4.85828">
        <ele>275</ele>
        <time>2016-11-28T10:53:23Z</time>
      </trkpt>
      <trkpt lat="45.98311" lon="4.85821">
        <ele>275</ele>
        <time>2016-11-28T10:53:24Z</time>
      </trkpt>
      <trkpt lat="45.98307" lon="4.85815">
        <ele>275</ele>
        <time>2016-11-28T10:53:25Z</time>
      </trkpt>
      <trkpt lat="45.98304" lon="4.85809">
        <ele>275</ele>
        <time>2016-11-28T10:53:26Z</time>
      </trkpt>
      <trkpt lat="45.98301" lon="4.85803">
        <ele>275</ele>
        <time>2016-11-28T10:53:27Z</time>
      </trkpt>
      <trkpt lat="45.98298" lon="4.85797">
        <ele>275</ele>
        <time>2016-11-28T10:53:28Z</time>
      </trkpt>
      <trkpt lat="45.98295" lon="4.8579">
        <ele>275</ele>
        <time>2016-11-28T10:53:29Z</time>
      </trkpt>
      <trkpt lat="45.98293" lon="4.85783">
        <ele>275</ele>
        <time>2016-11-28T10:53:30Z</time>
      </trkpt>
      <trkpt lat="45.9829" lon="4.85776">
        <ele>275</ele>
        <time>2016-11-28T10:53:31Z</time>
      </trkpt>
      <trkpt lat="45.98288" lon="4.85769">
        <ele>275</ele>
        <time>2016-11-28T10:53:32Z</time>
      </trkpt>
      <trkpt lat="45.98284" lon="4.85762">
        <ele>275</ele>
        <time>2016-11-28T10:53:33Z</time>
      </trkpt>
      <trkpt lat="45.98281" lon="4.85755">
        <ele>275</ele>
        <time>2016-11-28T10:53:34Z</time>
      </trkpt>
      <trkpt lat="45.98278" lon="4.85748">
        <ele>274</ele>
        <time>2016-11-28T10:53:35Z</time>
      </trkpt>
      <trkpt lat="45.98275" lon="4.8574">
        <ele>274</ele>
        <time>2016-11-28T10:53:36Z</time>
      </trkpt>
      <trkpt lat="45.98272" lon="4.85733">
        <ele>274</ele>
        <time>2016-11-28T10:53:37Z</time>
      </trkpt>
      <trkpt lat="45.98268" lon="4.85725">
        <ele>275</ele>
        <time>2016-11-28T10:53:38Z</time>
      </trkpt>
      <trkpt lat="45.98265" lon="4.85717">
        <ele>275</ele>
        <time>2016-11-28T10:53:39Z</time>
      </trkpt>
      <trkpt lat="45.98261" lon="4.8571">
        <ele>275</ele>
        <time>2016-11-28T10:53:40Z</time>
      </trkpt>
      <trkpt lat="45.98258" lon="4.85703">
        <ele>275</ele>
        <time>2016-11-28T10:53:41Z</time>
      </trkpt>
      <trkpt lat="45.98255" lon="4.85696">
        <ele>275</ele>
        <time>2016-11-28T10:53:42Z</time>
      </trkpt>
      <trkpt lat="45.98253" lon="4.85688">
        <ele>275</ele>
        <time>2016-11-28T10:53:43Z</time>
      </trkpt>
      <trkpt lat="45.9825" lon="4.85681">
        <ele>275</ele>
        <time>2016-11-28T10:53:44Z</time>
      </trkpt>
      <trkpt lat="45.98248" lon="4.85675">
        <ele>276</ele>
        <time>2016-11-28T10:53:45Z</time>
      </trkpt>
      <trkpt lat="45.98245" lon="4.85668">
        <ele>276</ele>
        <time>2016-11-28T10:53:46Z</time>
      </trkpt>
      <trkpt lat="45.98242" lon="4.85661">
        <ele>276</ele>
        <time>2016-11-28T10:53:47Z</time>
      </trkpt>
      <trkpt lat="45.9824" lon="4.85655">
        <ele>276</ele>
        <time>2016-11-28T10:53:48Z</time>
      </trkpt>
      <trkpt lat="45.98237" lon="4.85648">
        <ele>277</ele>
        <time>2016-11-28T10:53:49Z</time>
      </trkpt>
      <trkpt lat="45.98234" lon="4.85642">
        <ele>277</ele>
        <time>2016-11-28T10:53:50Z</time>
      </trkpt>
      <trkpt lat="45.98232" lon="4.85635">
        <ele>277</ele>
        <time>2016-11-28T10:53:51Z</time>
      </trkpt>
      <trkpt lat="45.98229" lon="4.85629">
        <ele>277</ele>
        <time>2016-11-28T10:53:52Z</time>
      </trkpt>
      <trkpt lat="45.98226" lon="4.85622">
        <ele>277</ele>
        <time>2016-11-28T10:53:53Z</time>
      </trkpt>
      <trkpt lat="45.98223" lon="4.85616">
        <ele>277</ele>
        <time>2016-11-28T10:53:54Z</time>
      </trkpt>
      <trkpt lat="45.9822" lon="4.8561">
        <ele>277</ele>
        <time>2016-11-28T10:53:55Z</time>
      </trkpt>
      <trkpt lat="45.98218" lon="4.85604">
        <ele>277</ele>
        <time>2016-11-28T10:53:56Z</time>
      </trkpt>
      <trkpt lat="45.98216" lon="4.85597">
        <ele>277</ele>
        <time>2016-11-28T10:53:57Z</time>
      </trkpt>
      <trkpt lat="45.98213" lon="4.85591">
        <ele>277</ele>
        <time>2016-11-28T10:53:58Z</time>
      </trkpt>
      <trkpt lat="45.98211" lon="4.85585">
        <ele>277</ele>
        <time>2016-11-28T10:53:59Z</time>
      </trkpt>
      <trkpt lat="45.98209" lon="4.85578">
        <ele>276</ele>
        <time>2016-11-28T10:54:00Z</time>
      </trkpt>
      <trkpt lat="45.98207" lon="4.85572">
        <ele>276</ele>
        <time>2016-11-28T10:54:01Z</time>
      </trkpt>
      <trkpt lat="45.98204" lon="4.85565">
        <ele>276</ele>
        <time>2016-11-28T10:54:02Z</time>
      </trkpt>
      <trkpt lat="45.98201" lon="4.85559">
        <ele>276</ele>
        <time>2016-11-28T10:54:03Z</time>
      </trkpt>
      <trkpt lat="45.98199" lon="4.85553">
        <ele>276</ele>
        <time>2016-11-28T10:54:04Z</time>
      </trkpt>
      <trkpt lat="45.98196" lon="4.85546">
        <ele>276</ele>
        <time>2016-11-28T10:54:05Z</time>
      </trkpt>
      <trkpt lat="45.98194" lon="4.85539">
        <ele>276</ele>
        <time>2016-11-28T10:54:06Z</time>
      </trkpt>
      <trkpt lat="45.98191" lon="4.85532">
        <ele>276</ele>
        <time>2016-11-28T10:54:07Z</time>
      </trkpt>
      <trkpt lat="45.98189" lon="4.85525">
        <ele>276</ele>
        <time>2016-11-28T10:54:08Z</time>
      </trkpt>
      <trkpt lat="45.98185" lon="4.85518">
        <ele>275</ele>
        <time>2016-11-28T10:54:09Z</time>
      </trkpt>
      <trkpt lat="45.98183" lon="4.85511">
        <ele>275</ele>
        <time>2016-11-28T10:54:10Z</time>
      </trkpt>
      <trkpt lat="45.9818" lon="4.85504">
        <ele>275</ele>
        <time>2016-11-28T10:54:11Z</time>
      </trkpt>
      <trkpt lat="45.98177" lon="4.85497">
        <ele>275</ele>
        <time>2016-11-28T10:54:12Z</time>
      </trkpt>
      <trkpt lat="45.98174" lon="4.8549">
        <ele>275</ele>
        <time>2016-11-28T10:54:13Z</time>
      </trkpt>
      <trkpt lat="45.98171" lon="4.85483">
        <ele>275</ele>
        <time>2016-11-28T10:54:14Z</time>
      </trkpt>
      <trkpt lat="45.98169" lon="4.85476">
        <ele>275</ele>
        <time>2016-11-28T10:54:15Z</time>
      </trkpt>
      <trkpt lat="45.98166" lon="4.85469">
        <ele>275</ele>
        <time>2016-11-28T10:54:16Z</time>
      </trkpt>
      <trkpt lat="45.98163" lon="4.85462">
        <ele>275</ele>
        <time>2016-11-28T10:54:17Z</time>
      </trkpt>
      <trkpt lat="45.9816" lon="4.85455">
        <ele>276</ele>
        <time>2016-11-28T10:54:18Z</time>
      </trkpt>
      <trkpt lat="45.98157" lon="4.85448">
        <ele>276</ele>
        <time>2016-11-28T10:54:19Z</time>
      </trkpt>
      <trkpt lat="45.98155" lon="4.8544">
        <ele>276</ele>
        <time>2016-11-28T10:54:20Z</time>
      </trkpt>
      <trkpt lat="45.98152" lon="4.85433">
        <ele>276</ele>
        <time>2016-11-28T10:54:21Z</time>
      </trkpt>
      <trkpt lat="45.98149" lon="4.85426">
        <ele>276</ele>
        <time>2016-11-28T10:54:22Z</time>
      </trkpt>
      <trkpt lat="45.98146" lon="4.85418">
        <ele>276</ele>
        <time>2016-11-28T10:54:23Z</time>
      </trkpt>
      <trkpt lat="45.98143" lon="4.85411">
        <ele>276</ele>
        <time>2016-11-28T10:54:24Z</time>
      </trkpt>
      <trkpt lat="45.9814" lon="4.85405">
        <ele>276</ele>
        <time>2016-11-28T10:54:25Z</time>
      </trkpt>
      <trkpt lat="45.98137" lon="4.85398">
        <ele>276</ele>
        <time>2016-11-28T10:54:26Z</time>
      </trkpt>
      <trkpt lat="45.98134" lon="4.85392">
        <ele>276</ele>
        <time>2016-11-28T10:54:27Z</time>
      </trkpt>
      <trkpt lat="45.98132" lon="4.85387">
        <ele>276</ele>
        <time>2016-11-28T10:54:28Z</time>
      </trkpt>
      <trkpt lat="45.98127" lon="4.85376">
        <ele>276</ele>
        <time>2016-11-28T10:54:30Z</time>
      </trkpt>
      <trkpt lat="45.98124" lon="4.85371">
        <ele>276</ele>
        <time>2016-11-28T10:54:31Z</time>
      </trkpt>
      <trkpt lat="45.98122" lon="4.85365">
        <ele>276</ele>
        <time>2016-11-28T10:54:32Z</time>
      </trkpt>
      <trkpt lat="45.9812" lon="4.85358">
        <ele>276</ele>
        <time>2016-11-28T10:54:33Z</time>
      </trkpt>
      <trkpt lat="45.98118" lon="4.85352">
        <ele>276</ele>
        <time>2016-11-28T10:54:34Z</time>
      </trkpt>
      <trkpt lat="45.98116" lon="4.85345">
        <ele>276</ele>
        <time>2016-11-28T10:54:35Z</time>
      </trkpt>
      <trkpt lat="45.98113" lon="4.85338">
        <ele>276</ele>
        <time>2016-11-28T10:54:36Z</time>
      </trkpt>
      <trkpt lat="45.9811" lon="4.85331">
        <ele>276</ele>
        <time>2016-11-28T10:54:37Z</time>
      </trkpt>
      <trkpt lat="45.98107" lon="4.85323">
        <ele>276</ele>
        <time>2016-11-28T10:54:38Z</time>
      </trkpt>
      <trkpt lat="45.98104" lon="4.85316">
        <ele>276</ele>
        <time>2016-11-28T10:54:39Z</time>
      </trkpt>
      <trkpt lat="45.98101" lon="4.85309">
        <ele>276</ele>
        <time>2016-11-28T10:54:40Z</time>
      </trkpt>
      <trkpt lat="45.98099" lon="4.85302">
        <ele>276</ele>
        <time>2016-11-28T10:54:41Z</time>
      </trkpt>
      <trkpt lat="45.98096" lon="4.85295">
        <ele>276</ele>
        <time>2016-11-28T10:54:42Z</time>
      </trkpt>
      <trkpt lat="45.98093" lon="4.85288">
        <ele>276</ele>
        <time>2016-11-28T10:54:43Z</time>
      </trkpt>
      <trkpt lat="45.98089" lon="4.85282">
        <ele>276</ele>
        <time>2016-11-28T10:54:44Z</time>
      </trkpt>
      <trkpt lat="45.98086" lon="4.85276">
        <ele>276</ele>
        <time>2016-11-28T10:54:45Z</time>
      </trkpt>
      <trkpt lat="45.98083" lon="4.8527">
        <ele>276</ele>
        <time>2016-11-28T10:54:46Z</time>
      </trkpt>
      <trkpt lat="45.9808" lon="4.85264">
        <ele>276</ele>
        <time>2016-11-28T10:54:47Z</time>
      </trkpt>
      <trkpt lat="45.98077" lon="4.85259">
        <ele>276</ele>
        <time>2016-11-28T10:54:48Z</time>
      </trkpt>
      <trkpt lat="45.98074" lon="4.85254">
        <ele>276</ele>
        <time>2016-11-28T10:54:49Z</time>
      </trkpt>
      <trkpt lat="45.98068" lon="4.85245">
        <ele>276</ele>
        <time>2016-11-28T10:54:51Z</time>
      </trkpt>
      <trkpt lat="45.98065" lon="4.85241">
        <ele>276</ele>
        <time>2016-11-28T10:54:52Z</time>
      </trkpt>
      <trkpt lat="45.9806" lon="4.85231">
        <ele>276</ele>
        <time>2016-11-28T10:54:54Z</time>
      </trkpt>
      <trkpt lat="45.98057" lon="4.85226">
        <ele>276</ele>
        <time>2016-11-28T10:54:55Z</time>
      </trkpt>
      <trkpt lat="45.98055" lon="4.85219">
        <ele>276</ele>
        <time>2016-11-28T10:54:56Z</time>
      </trkpt>
      <trkpt lat="45.98053" lon="4.85213">
        <ele>276</ele>
        <time>2016-11-28T10:54:57Z</time>
      </trkpt>
      <trkpt lat="45.98051" lon="4.85206">
        <ele>276</ele>
        <time>2016-11-28T10:54:58Z</time>
      </trkpt>
      <trkpt lat="45.98048" lon="4.852">
        <ele>276</ele>
        <time>2016-11-28T10:54:59Z</time>
      </trkpt>
      <trkpt lat="45.98046" lon="4.85193">
        <ele>276</ele>
        <time>2016-11-28T10:55:00Z</time>
      </trkpt>
      <trkpt lat="45.98044" lon="4.85186">
        <ele>276</ele>
        <time>2016-11-28T10:55:01Z</time>
      </trkpt>
      <trkpt lat="45.98042" lon="4.85179">
        <ele>276</ele>
        <time>2016-11-28T10:55:02Z</time>
      </trkpt>
      <trkpt lat="45.9804" lon="4.85172">
        <ele>275</ele>
        <time>2016-11-28T10:55:03Z</time>
      </trkpt>
      <trkpt lat="45.98038" lon="4.85165">
        <ele>275</ele>
        <time>2016-11-28T10:55:04Z</time>
      </trkpt>
      <trkpt lat="45.98036" lon="4.85158">
        <ele>275</ele>
        <time>2016-11-28T10:55:05Z</time>
      </trkpt>
      <trkpt lat="45.98034" lon="4.85152">
        <ele>275</ele>
        <time>2016-11-28T10:55:06Z</time>
      </trkpt>
      <trkpt lat="45.98032" lon="4.85144">
        <ele>275</ele>
        <time>2016-11-28T10:55:07Z</time>
      </trkpt>
      <trkpt lat="45.9803" lon="4.85137">
        <ele>275</ele>
        <time>2016-11-28T10:55:08Z</time>
      </trkpt>
      <trkpt lat="45.98028" lon="4.8513">
        <ele>274</ele>
        <time>2016-11-28T10:55:09Z</time>
      </trkpt>
      <trkpt lat="45.98025" lon="4.85122">
        <ele>274</ele>
        <time>2016-11-28T10:55:10Z</time>
      </trkpt>
      <trkpt lat="45.98023" lon="4.85113">
        <ele>274</ele>
        <time>2016-11-28T10:55:11Z</time>
      </trkpt>
      <trkpt lat="45.98021" lon="4.85105">
        <ele>274</ele>
        <time>2016-11-28T10:55:12Z</time>
      </trkpt>
      <trkpt lat="45.9802" lon="4.85096">
        <ele>274</ele>
        <time>2016-11-28T10:55:13Z</time>
      </trkpt>
      <trkpt lat="45.98019" lon="4.85088">
        <ele>274</ele>
        <time>2016-11-28T10:55:14Z</time>
      </trkpt>
      <trkpt lat="45.98018" lon="4.85079">
        <ele>273</ele>
        <time>2016-11-28T10:55:15Z</time>
      </trkpt>
      <trkpt lat="45.98018" lon="4.85071">
        <ele>273</ele>
        <time>2016-11-28T10:55:16Z</time>
      </trkpt>
      <trkpt lat="45.98018" lon="4.85063">
        <ele>273</ele>
        <time>2016-11-28T10:55:17Z</time>
      </trkpt>
      <trkpt lat="45.98018" lon="4.85055">
        <ele>273</ele>
        <time>2016-11-28T10:55:18Z</time>
      </trkpt>
      <trkpt lat="45.98018" lon="4.85047">
        <ele>273</ele>
        <time>2016-11-28T10:55:19Z</time>
      </trkpt>
      <trkpt lat="45.98018" lon="4.8504">
        <ele>273</ele>
        <time>2016-11-28T10:55:20Z</time>
      </trkpt>
      <trkpt lat="45.98018" lon="4.85032">
        <ele>273</ele>
        <time>2016-11-28T10:55:21Z</time>
      </trkpt>
      <trkpt lat="45.98017" lon="4.85024">
        <ele>273</ele>
        <time>2016-11-28T10:55:22Z</time>
      </trkpt>
      <trkpt lat="45.98017" lon="4.85016">
        <ele>273</ele>
        <time>2016-11-28T10:55:23Z</time>
      </trkpt>
      <trkpt lat="45.98016" lon="4.85008">
        <ele>272</ele>
        <time>2016-11-28T10:55:24Z</time>
      </trkpt>
      <trkpt lat="45.98016" lon="4.85001">
        <ele>272</ele>
        <time>2016-11-28T10:55:25Z</time>
      </trkpt>
      <trkpt lat="45.98015" lon="4.84993">
        <ele>272</ele>
        <time>2016-11-28T10:55:26Z</time>
      </trkpt>
      <trkpt lat="45.98014" lon="4.84985">
        <ele>272</ele>
        <time>2016-11-28T10:55:27Z</time>
      </trkpt>
      <trkpt lat="45.98014" lon="4.84977">
        <ele>272</ele>
        <time>2016-11-28T10:55:28Z</time>
      </trkpt>
      <trkpt lat="45.98013" lon="4.84969">
        <ele>272</ele>
        <time>2016-11-28T10:55:29Z</time>
      </trkpt>
      <trkpt lat="45.98012" lon="4.8496">
        <ele>272</ele>
        <time>2016-11-28T10:55:30Z</time>
      </trkpt>
      <trkpt lat="45.98011" lon="4.84952">
        <ele>272</ele>
        <time>2016-11-28T10:55:31Z</time>
      </trkpt>
      <trkpt lat="45.98011" lon="4.84943">
        <ele>272</ele>
        <time>2016-11-28T10:55:32Z</time>
      </trkpt>
      <trkpt lat="45.9801" lon="4.84934">
        <ele>272</ele>
        <time>2016-11-28T10:55:33Z</time>
      </trkpt>
      <trkpt lat="45.98009" lon="4.84926">
        <ele>272</ele>
        <time>2016-11-28T10:55:34Z</time>
      </trkpt>
      <trkpt lat="45.98008" lon="4.84917">
        <ele>272</ele>
        <time>2016-11-28T10:55:35Z</time>
      </trkpt>
      <trkpt lat="45.98007" lon="4.84909">
        <ele>272</ele>
        <time>2016-11-28T10:55:36Z</time>
      </trkpt>
      <trkpt lat="45.98007" lon="4.84901">
        <ele>272</ele>
        <time>2016-11-28T10:55:37Z</time>
      </trkpt>
      <trkpt lat="45.98006" lon="4.84893">
        <ele>272</ele>
        <time>2016-11-28T10:55:38Z</time>
      </trkpt>
      <trkpt lat="45.98005" lon="4.84886">
        <ele>272</ele>
        <time>2016-11-28T10:55:39Z</time>
      </trkpt>
      <trkpt lat="45.98004" lon="4.84878">
        <ele>272</ele>
        <time>2016-11-28T10:55:40Z</time>
      </trkpt>
      <trkpt lat="45.98004" lon="4.84871">
        <ele>272</ele>
        <time>2016-11-28T10:55:41Z</time>
      </trkpt>
      <trkpt lat="45.98003" lon="4.84864">
        <ele>272</ele>
        <time>2016-11-28T10:55:42Z</time>
      </trkpt>
      <trkpt lat="45.98003" lon="4.84857">
        <ele>272</ele>
        <time>2016-11-28T10:55:43Z</time>
      </trkpt>
      <trkpt lat="45.98002" lon="4.8485">
        <ele>272</ele>
        <time>2016-11-28T10:55:44Z</time>
      </trkpt>
      <trkpt lat="45.98001" lon="4.84843">
        <ele>272</ele>
        <time>2016-11-28T10:55:45Z</time>
      </trkpt>
      <trkpt lat="45.98" lon="4.84836">
        <ele>272</ele>
        <time>2016-11-28T10:55:46Z</time>
      </trkpt>
      <trkpt lat="45.98" lon="4.84829">
        <ele>272</ele>
        <time>2016-11-28T10:55:47Z</time>
      </trkpt>
      <trkpt lat="45.98" lon="4.84822">
        <ele>273</ele>
        <time>2016-11-28T10:55:48Z</time>
      </trkpt>
      <trkpt lat="45.97999" lon="4.84815">
        <ele>273</ele>
        <time>2016-11-28T10:55:49Z</time>
      </trkpt>
      <trkpt lat="45.97999" lon="4.84807">
        <ele>274</ele>
        <time>2016-11-28T10:55:50Z</time>
      </trkpt>
      <trkpt lat="45.97998" lon="4.848">
        <ele>274</ele>
        <time>2016-11-28T10:55:51Z</time>
      </trkpt>
      <trkpt lat="45.97998" lon="4.84792">
        <ele>274</ele>
        <time>2016-11-28T10:55:52Z</time>
      </trkpt>
      <trkpt lat="45.97998" lon="4.84784">
        <ele>274</ele>
        <time>2016-11-28T10:55:53Z</time>
      </trkpt>
      <trkpt lat="45.97997" lon="4.84777">
        <ele>274</ele>
        <time>2016-11-28T10:55:54Z</time>
      </trkpt>
      <trkpt lat="45.97997" lon="4.84769">
        <ele>274</ele>
        <time>2016-11-28T10:55:55Z</time>
      </trkpt>
      <trkpt lat="45.97996" lon="4.84762">
        <ele>275</ele>
        <time>2016-11-28T10:55:56Z</time>
      </trkpt>
      <trkpt lat="45.97995" lon="4.84755">
        <ele>275</ele>
        <time>2016-11-28T10:55:57Z</time>
      </trkpt>
      <trkpt lat="45.97994" lon="4.84747">
        <ele>275</ele>
        <time>2016-11-28T10:55:58Z</time>
      </trkpt>
      <trkpt lat="45.97994" lon="4.8474">
        <ele>275</ele>
        <time>2016-11-28T10:55:59Z</time>
      </trkpt>
      <trkpt lat="45.97993" lon="4.84732">
        <ele>275</ele>
        <time>2016-11-28T10:56:00Z</time>
      </trkpt>
      <trkpt lat="45.97993" lon="4.84724">
        <ele>275</ele>
        <time>2016-11-28T10:56:01Z</time>
      </trkpt>
      <trkpt lat="45.97992" lon="4.84717">
        <ele>275</ele>
        <time>2016-11-28T10:56:02Z</time>
      </trkpt>
      <trkpt lat="45.97992" lon="4.84709">
        <ele>275</ele>
        <time>2016-11-28T10:56:03Z</time>
      </trkpt>
      <trkpt lat="45.97991" lon="4.84701">
        <ele>275</ele>
        <time>2016-11-28T10:56:04Z</time>
      </trkpt>
      <trkpt lat="45.9799" lon="4.84693">
        <ele>275</ele>
        <time>2016-11-28T10:56:05Z</time>
      </trkpt>
      <trkpt lat="45.9799" lon="4.84686">
        <ele>275</ele>
        <time>2016-11-28T10:56:06Z</time>
      </trkpt>
      <trkpt lat="45.97989" lon="4.84678">
        <ele>275</ele>
        <time>2016-11-28T10:56:07Z</time>
      </trkpt>
      <trkpt lat="45.97988" lon="4.8467">
        <ele>275</ele>
        <time>2016-11-28T10:56:08Z</time>
      </trkpt>
      <trkpt lat="45.97987" lon="4.84662">
        <ele>274</ele>
        <time>2016-11-28T10:56:09Z</time>
      </trkpt>
      <trkpt lat="45.97986" lon="4.84654">
        <ele>274</ele>
        <time>2016-11-28T10:56:10Z</time>
      </trkpt>
      <trkpt lat="45.97984" lon="4.84647">
        <ele>274</ele>
        <time>2016-11-28T10:56:11Z</time>
      </trkpt>
      <trkpt lat="45.97983" lon="4.84639">
        <ele>275</ele>
        <time>2016-11-28T10:56:12Z</time>
      </trkpt>
      <trkpt lat="45.97982" lon="4.84632">
        <ele>275</ele>
        <time>2016-11-28T10:56:13Z</time>
      </trkpt>
      <trkpt lat="45.97981" lon="4.84624">
        <ele>275</ele>
        <time>2016-11-28T10:56:14Z</time>
      </trkpt>
      <trkpt lat="45.97979" lon="4.84617">
        <ele>275</ele>
        <time>2016-11-28T10:56:15Z</time>
      </trkpt>
      <trkpt lat="45.97978" lon="4.8461">
        <ele>275</ele>
        <time>2016-11-28T10:56:16Z</time>
      </trkpt>
      <trkpt lat="45.97977" lon="4.84602">
        <ele>275</ele>
        <time>2016-11-28T10:56:17Z</time>
      </trkpt>
      <trkpt lat="45.97975" lon="4.84595">
        <ele>274</ele>
        <time>2016-11-28T10:56:18Z</time>
      </trkpt>
      <trkpt lat="45.97974" lon="4.84588">
        <ele>274</ele>
        <time>2016-11-28T10:56:19Z</time>
      </trkpt>
      <trkpt lat="45.97973" lon="4.8458">
        <ele>275</ele>
        <time>2016-11-28T10:56:20Z</time>
      </trkpt>
      <trkpt lat="45.97972" lon="4.84573">
        <ele>275</ele>
        <time>2016-11-28T10:56:21Z</time>
      </trkpt>
      <trkpt lat="45.9797" lon="4.84565">
        <ele>275</ele>
        <time>2016-11-28T10:56:22Z</time>
      </trkpt>
      <trkpt lat="45.97969" lon="4.84558">
        <ele>275</ele>
        <time>2016-11-28T10:56:23Z</time>
      </trkpt>
      <trkpt lat="45.97968" lon="4.8455">
        <ele>275</ele>
        <time>2016-11-28T10:56:24Z</time>
      </trkpt>
      <trkpt lat="45.97967" lon="4.84542">
        <ele>275</ele>
        <time>2016-11-28T10:56:25Z</time>
      </trkpt>
      <trkpt lat="45.97965" lon="4.84535">
        <ele>275</ele>
        <time>2016-11-28T10:56:26Z</time>
      </trkpt>
      <trkpt lat="45.97964" lon="4.84527">
        <ele>275</ele>
        <time>2016-11-28T10:56:27Z</time>
      </trkpt>
      <trkpt lat="45.97963" lon="4.8452">
        <ele>275</ele>
        <time>2016-11-28T10:56:28Z</time>
      </trkpt>
      <trkpt lat="45.97961" lon="4.84513">
        <ele>275</ele>
        <time>2016-11-28T10:56:29Z</time>
      </trkpt>
      <trkpt lat="45.9796" lon="4.84505">
        <ele>275</ele>
        <time>2016-11-28T10:56:30Z</time>
      </trkpt>
      <trkpt lat="45.97959" lon="4.84498">
        <ele>275</ele>
        <time>2016-11-28T10:56:31Z</time>
      </trkpt>
      <trkpt lat="45.97958" lon="4.84491">
        <ele>275</ele>
        <time>2016-11-28T10:56:32Z</time>
      </trkpt>
      <trkpt lat="45.97956" lon="4.84483">
        <ele>275</ele>
        <time>2016-11-28T10:56:33Z</time>
      </trkpt>
      <trkpt lat="45.97955" lon="4.84476">
        <ele>275</ele>
        <time>2016-11-28T10:56:34Z</time>
      </trkpt>
      <trkpt lat="45.97954" lon="4.84469">
        <ele>275</ele>
        <time>2016-11-28T10:56:35Z</time>
      </trkpt>
      <trkpt lat="45.97953" lon="4.84461">
        <ele>275</ele>
        <time>2016-11-28T10:56:36Z</time>
      </trkpt>
      <trkpt lat="45.97951" lon="4.84453">
        <ele>275</ele>
        <time>2016-11-28T10:56:37Z</time>
      </trkpt>
      <trkpt lat="45.9795" lon="4.84446">
        <ele>275</ele>
        <time>2016-11-28T10:56:38Z</time>
      </trkpt>
      <trkpt lat="45.97949" lon="4.84438">
        <ele>275</ele>
        <time>2016-11-28T10:56:39Z</time>
      </trkpt>
      <trkpt lat="45.97947" lon="4.8443">
        <ele>275</ele>
        <time>2016-11-28T10:56:40Z</time>
      </trkpt>
      <trkpt lat="45.97946" lon="4.84423">
        <ele>275</ele>
        <time>2016-11-28T10:56:41Z</time>
      </trkpt>
      <trkpt lat="45.97945" lon="4.84415">
        <ele>275</ele>
        <time>2016-11-28T10:56:42Z</time>
      </trkpt>
      <trkpt lat="45.97944" lon="4.84408">
        <ele>275</ele>
        <time>2016-11-28T10:56:43Z</time>
      </trkpt>
      <trkpt lat="45.97943" lon="4.844">
        <ele>275</ele>
        <time>2016-11-28T10:56:44Z</time>
      </trkpt>
      <trkpt lat="45.97942" lon="4.84392">
        <ele>275</ele>
        <time>2016-11-28T10:56:45Z</time>
      </trkpt>
      <trkpt lat="45.9794" lon="4.84385">
        <ele>275</ele>
        <time>2016-11-28T10:56:46Z</time>
      </trkpt>
      <trkpt lat="45.97939" lon="4.84377">
        <ele>275</ele>
        <time>2016-11-28T10:56:47Z</time>
      </trkpt>
      <trkpt lat="45.97938" lon="4.8437">
        <ele>275</ele>
        <time>2016-11-28T10:56:48Z</time>
      </trkpt>
      <trkpt lat="45.97937" lon="4.84362">
        <ele>275</ele>
        <time>2016-11-28T10:56:49Z</time>
      </trkpt>
      <trkpt lat="45.97935" lon="4.84354">
        <ele>275</ele>
        <time>2016-11-28T10:56:50Z</time>
      </trkpt>
      <trkpt lat="45.97934" lon="4.84347">
        <ele>275</ele>
        <time>2016-11-28T10:56:51Z</time>
      </trkpt>
      <trkpt lat="45.97932" lon="4.84339">
        <ele>275</ele>
        <time>2016-11-28T10:56:52Z</time>
      </trkpt>
      <trkpt lat="45.97931" lon="4.84331">
        <ele>275</ele>
        <time>2016-11-28T10:56:53Z</time>
      </trkpt>
      <trkpt lat="45.9793" lon="4.84324">
        <ele>275</ele>
        <time>2016-11-28T10:56:54Z</time>
      </trkpt>
      <trkpt lat="45.97928" lon="4.84317">
        <ele>275</ele>
        <time>2016-11-28T10:56:55Z</time>
      </trkpt>
      <trkpt lat="45.97927" lon="4.84309">
        <ele>275</ele>
        <time>2016-11-28T10:56:56Z</time>
      </trkpt>
      <trkpt lat="45.97926" lon="4.84302">
        <ele>275</ele>
        <time>2016-11-28T10:56:57Z</time>
      </trkpt>
      <trkpt lat="45.97925" lon="4.84295">
        <ele>275</ele>
        <time>2016-11-28T10:56:58Z</time>
      </trkpt>
      <trkpt lat="45.97923" lon="4.84288">
        <ele>275</ele>
        <time>2016-11-28T10:56:59Z</time>
      </trkpt>
      <trkpt lat="45.97923" lon="4.84282">
        <ele>275</ele>
        <time>2016-11-28T10:57:00Z</time>
      </trkpt>
      <trkpt lat="45.97923" lon="4.84275">
        <ele>275</ele>
        <time>2016-11-28T10:57:01Z</time>
      </trkpt>
      <trkpt lat="45.97929" lon="4.84266">
        <ele>275</ele>
        <time>2016-11-28T10:57:03Z</time>
      </trkpt>
      <trkpt lat="45.97933" lon="4.84262">
        <ele>275</ele>
        <time>2016-11-28T10:57:04Z</time>
      </trkpt>
      <trkpt lat="45.97938" lon="4.84257">
        <ele>275</ele>
        <time>2016-11-28T10:57:05Z</time>
      </trkpt>
      <trkpt lat="45.97943" lon="4.84253">
        <ele>275</ele>
        <time>2016-11-28T10:57:06Z</time>
      </trkpt>
      <trkpt lat="45.97947" lon="4.84248">
        <ele>275</ele>
        <time>2016-11-28T10:57:07Z</time>
      </trkpt>
      <trkpt lat="45.97952" lon="4.84244">
        <ele>275</ele>
        <time>2016-11-28T10:57:08Z</time>
      </trkpt>
      <trkpt lat="45.97957" lon="4.8424">
        <ele>275</ele>
        <time>2016-11-28T10:57:09Z</time>
      </trkpt>
      <trkpt lat="45.97962" lon="4.84236">
        <ele>274</ele>
        <time>2016-11-28T10:57:10Z</time>
      </trkpt>
      <trkpt lat="45.97967" lon="4.84232">
        <ele>274</ele>
        <time>2016-11-28T10:57:11Z</time>
      </trkpt>
      <trkpt lat="45.97972" lon="4.84228">
        <ele>274</ele>
        <time>2016-11-28T10:57:12Z</time>
      </trkpt>
      <trkpt lat="45.97976" lon="4.84223">
        <ele>274</ele>
        <time>2016-11-28T10:57:13Z</time>
      </trkpt>
      <trkpt lat="45.9798" lon="4.84219">
        <ele>274</ele>
        <time>2016-11-28T10:57:14Z</time>
      </trkpt>
      <trkpt lat="45.97984" lon="4.84215">
        <ele>274</ele>
        <time>2016-11-28T10:57:15Z</time>
      </trkpt>
      <trkpt lat="45.97988" lon="4.84211">
        <ele>274</ele>
        <time>2016-11-28T10:57:16Z</time>
      </trkpt>
      <trkpt lat="45.97992" lon="4.84207">
        <ele>274</ele>
        <time>2016-11-28T10:57:17Z</time>
      </trkpt>
      <trkpt lat="45.97997" lon="4.84203">
        <ele>274</ele>
        <time>2016-11-28T10:57:18Z</time>
      </trkpt>
      <trkpt lat="45.98001" lon="4.84199">
        <ele>274</ele>
        <time>2016-11-28T10:57:19Z</time>
      </trkpt>
      <trkpt lat="45.98005" lon="4.84195">
        <ele>274</ele>
        <time>2016-11-28T10:57:20Z</time>
      </trkpt>
      <trkpt lat="45.98009" lon="4.84192">
        <ele>274</ele>
        <time>2016-11-28T10:57:21Z</time>
      </trkpt>
      <trkpt lat="45.98013" lon="4.84188">
        <ele>274</ele>
        <time>2016-11-28T10:57:22Z</time>
      </trkpt>
      <trkpt lat="45.98017" lon="4.84185">
        <ele>274</ele>
        <time>2016-11-28T10:57:23Z</time>
      </trkpt>
      <trkpt lat="45.98021" lon="4.84181">
        <ele>274</ele>
        <time>2016-11-28T10:57:24Z</time>
      </trkpt>
      <trkpt lat="45.98025" lon="4.84177">
        <ele>274</ele>
        <time>2016-11-28T10:57:25Z</time>
      </trkpt>
      <trkpt lat="45.98029" lon="4.84173">
        <ele>274</ele>
        <time>2016-11-28T10:57:26Z</time>
      </trkpt>
      <trkpt lat="45.98032" lon="4.84169">
        <ele>273</ele>
        <time>2016-11-28T10:57:27Z</time>
      </trkpt>
      <trkpt lat="45.98036" lon="4.84165">
        <ele>273</ele>
        <time>2016-11-28T10:57:28Z</time>
      </trkpt>
      <trkpt lat="45.9804" lon="4.84161">
        <ele>273</ele>
        <time>2016-11-28T10:57:29Z</time>
      </trkpt>
      <trkpt lat="45.98044" lon="4.84157">
        <ele>273</ele>
        <time>2016-11-28T10:57:30Z</time>
      </trkpt>
      <trkpt lat="45.98048" lon="4.84154">
        <ele>273</ele>
        <time>2016-11-28T10:57:31Z</time>
      </trkpt>
      <trkpt lat="45.98052" lon="4.84151">
        <ele>273</ele>
        <time>2016-11-28T10:57:32Z</time>
      </trkpt>
      <trkpt lat="45.98057" lon="4.84147">
        <ele>273</ele>
        <time>2016-11-28T10:57:33Z</time>
      </trkpt>
      <trkpt lat="45.98061" lon="4.84143">
        <ele>273</ele>
        <time>2016-11-28T10:57:34Z</time>
      </trkpt>
      <trkpt lat="45.98065" lon="4.8414">
        <ele>273</ele>
        <time>2016-11-28T10:57:35Z</time>
      </trkpt>
      <trkpt lat="45.98069" lon="4.84136">
        <ele>273</ele>
        <time>2016-11-28T10:57:36Z</time>
      </trkpt>
      <trkpt lat="45.98073" lon="4.84132">
        <ele>273</ele>
        <time>2016-11-28T10:57:37Z</time>
      </trkpt>
      <trkpt lat="45.98077" lon="4.84129">
        <ele>273</ele>
        <time>2016-11-28T10:57:38Z</time>
      </trkpt>
      <trkpt lat="45.98081" lon="4.84125">
        <ele>273</ele>
        <time>2016-11-28T10:57:39Z</time>
      </trkpt>
      <trkpt lat="45.98085" lon="4.84121">
        <ele>273</ele>
        <time>2016-11-28T10:57:40Z</time>
      </trkpt>
      <trkpt lat="45.98089" lon="4.84118">
        <ele>273</ele>
        <time>2016-11-28T10:57:41Z</time>
      </trkpt>
      <trkpt lat="45.98093" lon="4.84114">
        <ele>273</ele>
        <time>2016-11-28T10:57:42Z</time>
      </trkpt>
      <trkpt lat="45.98097" lon="4.8411">
        <ele>273</ele>
        <time>2016-11-28T10:57:43Z</time>
      </trkpt>
      <trkpt lat="45.98101" lon="4.84107">
        <ele>273</ele>
        <time>2016-11-28T10:57:44Z</time>
      </trkpt>
      <trkpt lat="45.98106" lon="4.84103">
        <ele>273</ele>
        <time>2016-11-28T10:57:45Z</time>
      </trkpt>
      <trkpt lat="45.9811" lon="4.84099">
        <ele>273</ele>
        <time>2016-11-28T10:57:46Z</time>
      </trkpt>
      <trkpt lat="45.98114" lon="4.84095">
        <ele>273</ele>
        <time>2016-11-28T10:57:47Z</time>
      </trkpt>
      <trkpt lat="45.98117" lon="4.84091">
        <ele>273</ele>
        <time>2016-11-28T10:57:48Z</time>
      </trkpt>
      <trkpt lat="45.98121" lon="4.84087">
        <ele>273</ele>
        <time>2016-11-28T10:57:49Z</time>
      </trkpt>
      <trkpt lat="45.98125" lon="4.84083">
        <ele>273</ele>
        <time>2016-11-28T10:57:50Z</time>
      </trkpt>
      <trkpt lat="45.98129" lon="4.84078">
        <ele>273</ele>
        <time>2016-11-28T10:57:51Z</time>
      </trkpt>
      <trkpt lat="45.98133" lon="4.84074">
        <ele>273</ele>
        <time>2016-11-28T10:57:52Z</time>
      </trkpt>
      <trkpt lat="45.98136" lon="4.8407">
        <ele>273</ele>
        <time>2016-11-28T10:57:53Z</time>
      </trkpt>
      <trkpt lat="45.9814" lon="4.84066">
        <ele>273</ele>
        <time>2016-11-28T10:57:54Z</time>
      </trkpt>
      <trkpt lat="45.98143" lon="4.84061">
        <ele>273</ele>
        <time>2016-11-28T10:57:55Z</time>
      </trkpt>
      <trkpt lat="45.98147" lon="4.84057">
        <ele>273</ele>
        <time>2016-11-28T10:57:56Z</time>
      </trkpt>
      <trkpt lat="45.98153" lon="4.84048">
        <ele>273</ele>
        <time>2016-11-28T10:57:58Z</time>
      </trkpt>
      <trkpt lat="45.98156" lon="4.84043">
        <ele>273</ele>
        <time>2016-11-28T10:57:59Z</time>
      </trkpt>
      <trkpt lat="45.98159" lon="4.84037">
        <ele>273</ele>
        <time>2016-11-28T10:58:00Z</time>
      </trkpt>
      <trkpt lat="45.98162" lon="4.84032">
        <ele>273</ele>
        <time>2016-11-28T10:58:01Z</time>
      </trkpt>
      <trkpt lat="45.98165" lon="4.84026">
        <ele>273</ele>
        <time>2016-11-28T10:58:02Z</time>
      </trkpt>
      <trkpt lat="45.98168" lon="4.8402">
        <ele>273</ele>
        <time>2016-11-28T10:58:03Z</time>
      </trkpt>
      <trkpt lat="45.98171" lon="4.84015">
        <ele>273</ele>
        <time>2016-11-28T10:58:04Z</time>
      </trkpt>
      <trkpt lat="45.98174" lon="4.84009">
        <ele>273</ele>
        <time>2016-11-28T10:58:05Z</time>
      </trkpt>
      <trkpt lat="45.98177" lon="4.84004">
        <ele>273</ele>
        <time>2016-11-28T10:58:06Z</time>
      </trkpt>
      <trkpt lat="45.98179" lon="4.83998">
        <ele>273</ele>
        <time>2016-11-28T10:58:07Z</time>
      </trkpt>
      <trkpt lat="45.98181" lon="4.83992">
        <ele>273</ele>
        <time>2016-11-28T10:58:08Z</time>
      </trkpt>
      <trkpt lat="45.98184" lon="4.83987">
        <ele>273</ele>
        <time>2016-11-28T10:58:09Z</time>
      </trkpt>
      <trkpt lat="45.98186" lon="4.83981">
        <ele>273</ele>
        <time>2016-11-28T10:58:10Z</time>
      </trkpt>
      <trkpt lat="45.98188" lon="4.83975">
        <ele>273</ele>
        <time>2016-11-28T10:58:11Z</time>
      </trkpt>
      <trkpt lat="45.98191" lon="4.83969">
        <ele>273</ele>
        <time>2016-11-28T10:58:12Z</time>
      </trkpt>
      <trkpt lat="45.98193" lon="4.83963">
        <ele>273</ele>
        <time>2016-11-28T10:58:13Z</time>
      </trkpt>
      <trkpt lat="45.98195" lon="4.83957">
        <ele>273</ele>
        <time>2016-11-28T10:58:14Z</time>
      </trkpt>
      <trkpt lat="45.98197" lon="4.8395">
        <ele>273</ele>
        <time>2016-11-28T10:58:15Z</time>
      </trkpt>
      <trkpt lat="45.982" lon="4.83944">
        <ele>273</ele>
        <time>2016-11-28T10:58:16Z</time>
      </trkpt>
      <trkpt lat="45.98202" lon="4.83938">
        <ele>273</ele>
        <time>2016-11-28T10:58:17Z</time>
      </trkpt>
      <trkpt lat="45.98204" lon="4.83931">
        <ele>273</ele>
        <time>2016-11-28T10:58:18Z</time>
      </trkpt>
      <trkpt lat="45.98206" lon="4.83925">
        <ele>273</ele>
        <time>2016-11-28T10:58:19Z</time>
      </trkpt>
      <trkpt lat="45.98208" lon="4.83919">
        <ele>273</ele>
        <time>2016-11-28T10:58:20Z</time>
      </trkpt>
      <trkpt lat="45.9821" lon="4.83912">
        <ele>273</ele>
        <time>2016-11-28T10:58:21Z</time>
      </trkpt>
      <trkpt lat="45.98213" lon="4.83906">
        <ele>273</ele>
        <time>2016-11-28T10:58:22Z</time>
      </trkpt>
      <trkpt lat="45.98215" lon="4.83899">
        <ele>273</ele>
        <time>2016-11-28T10:58:23Z</time>
      </trkpt>
      <trkpt lat="45.98217" lon="4.83892">
        <ele>273</ele>
        <time>2016-11-28T10:58:24Z</time>
      </trkpt>
      <trkpt lat="45.9822" lon="4.83885">
        <ele>272</ele>
        <time>2016-11-28T10:58:25Z</time>
      </trkpt>
      <trkpt lat="45.98222" lon="4.83878">
        <ele>272</ele>
        <time>2016-11-28T10:58:26Z</time>
      </trkpt>
      <trkpt lat="45.98225" lon="4.83871">
        <ele>272</ele>
        <time>2016-11-28T10:58:27Z</time>
      </trkpt>
      <trkpt lat="45.98227" lon="4.83864">
        <ele>272</ele>
        <time>2016-11-28T10:58:28Z</time>
      </trkpt>
      <trkpt lat="45.9823" lon="4.83857">
        <ele>272</ele>
        <time>2016-11-28T10:58:29Z</time>
      </trkpt>
      <trkpt lat="45.98232" lon="4.8385">
        <ele>272</ele>
        <time>2016-11-28T10:58:30Z</time>
      </trkpt>
      <trkpt lat="45.98234" lon="4.83844">
        <ele>272</ele>
        <time>2016-11-28T10:58:31Z</time>
      </trkpt>
      <trkpt lat="45.98237" lon="4.83838">
        <ele>272</ele>
        <time>2016-11-28T10:58:32Z</time>
      </trkpt>
      <trkpt lat="45.98239" lon="4.83832">
        <ele>272</ele>
        <time>2016-11-28T10:58:33Z</time>
      </trkpt>
      <trkpt lat="45.98241" lon="4.83826">
        <ele>272</ele>
        <time>2016-11-28T10:58:34Z</time>
      </trkpt>
      <trkpt lat="45.98243" lon="4.8382">
        <ele>272</ele>
        <time>2016-11-28T10:58:35Z</time>
      </trkpt>
      <trkpt lat="45.98247" lon="4.83809">
        <ele>272</ele>
        <time>2016-11-28T10:58:37Z</time>
      </trkpt>
      <trkpt lat="45.98249" lon="4.83803">
        <ele>272</ele>
        <time>2016-11-28T10:58:38Z</time>
      </trkpt>
      <trkpt lat="45.98251" lon="4.83797">
        <ele>272</ele>
        <time>2016-11-28T10:58:39Z</time>
      </trkpt>
      <trkpt lat="45.98253" lon="4.83791">
        <ele>272</ele>
        <time>2016-11-28T10:58:40Z</time>
      </trkpt>
      <trkpt lat="45.98255" lon="4.83785">
        <ele>272</ele>
        <time>2016-11-28T10:58:41Z</time>
      </trkpt>
      <trkpt lat="45.98257" lon="4.83779">
        <ele>272</ele>
        <time>2016-11-28T10:58:42Z</time>
      </trkpt>
      <trkpt lat="45.98259" lon="4.83773">
        <ele>272</ele>
        <time>2016-11-28T10:58:43Z</time>
      </trkpt>
      <trkpt lat="45.98261" lon="4.83766">
        <ele>272</ele>
        <time>2016-11-28T10:58:44Z</time>
      </trkpt>
      <trkpt lat="45.98263" lon="4.8376">
        <ele>272</ele>
        <time>2016-11-28T10:58:45Z</time>
      </trkpt>
      <trkpt lat="45.98265" lon="4.83753">
        <ele>272</ele>
        <time>2016-11-28T10:58:46Z</time>
      </trkpt>
      <trkpt lat="45.98267" lon="4.83747">
        <ele>272</ele>
        <time>2016-11-28T10:58:47Z</time>
      </trkpt>
      <trkpt lat="45.98269" lon="4.8374">
        <ele>272</ele>
        <time>2016-11-28T10:58:48Z</time>
      </trkpt>
      <trkpt lat="45.98272" lon="4.83734">
        <ele>272</ele>
        <time>2016-11-28T10:58:49Z</time>
      </trkpt>
      <trkpt lat="45.98274" lon="4.83728">
        <ele>272</ele>
        <time>2016-11-28T10:58:50Z</time>
      </trkpt>
      <trkpt lat="45.98276" lon="4.83721">
        <ele>272</ele>
        <time>2016-11-28T10:58:51Z</time>
      </trkpt>
      <trkpt lat="45.98279" lon="4.83715">
        <ele>272</ele>
        <time>2016-11-28T10:58:52Z</time>
      </trkpt>
      <trkpt lat="45.98281" lon="4.83709">
        <ele>272</ele>
        <time>2016-11-28T10:58:53Z</time>
      </trkpt>
      <trkpt lat="45.98283" lon="4.83703">
        <ele>272</ele>
        <time>2016-11-28T10:58:54Z</time>
      </trkpt>
      <trkpt lat="45.98285" lon="4.83696">
        <ele>272</ele>
        <time>2016-11-28T10:58:55Z</time>
      </trkpt>
      <trkpt lat="45.98288" lon="4.8369">
        <ele>272</ele>
        <time>2016-11-28T10:58:56Z</time>
      </trkpt>
      <trkpt lat="45.9829" lon="4.83684">
        <ele>272</ele>
        <time>2016-11-28T10:58:57Z</time>
      </trkpt>
      <trkpt lat="45.98292" lon="4.83678">
        <ele>272</ele>
        <time>2016-11-28T10:58:58Z</time>
      </trkpt>
      <trkpt lat="45.98294" lon="4.83672">
        <ele>272</ele>
        <time>2016-11-28T10:58:59Z</time>
      </trkpt>
      <trkpt lat="45.98297" lon="4.83666">
        <ele>271</ele>
        <time>2016-11-28T10:59:00Z</time>
      </trkpt>
      <trkpt lat="45.983" lon="4.83659">
        <ele>271</ele>
        <time>2016-11-28T10:59:01Z</time>
      </trkpt>
      <trkpt lat="45.98303" lon="4.83653">
        <ele>271</ele>
        <time>2016-11-28T10:59:02Z</time>
      </trkpt>
      <trkpt lat="45.98306" lon="4.83647">
        <ele>271</ele>
        <time>2016-11-28T10:59:03Z</time>
      </trkpt>
      <trkpt lat="45.98309" lon="4.83641">
        <ele>271</ele>
        <time>2016-11-28T10:59:04Z</time>
      </trkpt>
      <trkpt lat="45.98312" lon="4.83635">
        <ele>271</ele>
        <time>2016-11-28T10:59:05Z</time>
      </trkpt>
      <trkpt lat="45.98315" lon="4.83629">
        <ele>271</ele>
        <time>2016-11-28T10:59:06Z</time>
      </trkpt>
      <trkpt lat="45.98318" lon="4.83623">
        <ele>271</ele>
        <time>2016-11-28T10:59:07Z</time>
      </trkpt>
      <trkpt lat="45.98322" lon="4.83617">
        <ele>271</ele>
        <time>2016-11-28T10:59:08Z</time>
      </trkpt>
      <trkpt lat="45.98325" lon="4.83612">
        <ele>271</ele>
        <time>2016-11-28T10:59:09Z</time>
      </trkpt>
      <trkpt lat="45.98328" lon="4.83606">
        <ele>271</ele>
        <time>2016-11-28T10:59:10Z</time>
      </trkpt>
      <trkpt lat="45.98332" lon="4.83601">
        <ele>271</ele>
        <time>2016-11-28T10:59:11Z</time>
      </trkpt>
      <trkpt lat="45.98336" lon="4.83595">
        <ele>270</ele>
        <time>2016-11-28T10:59:12Z</time>
      </trkpt>
      <trkpt lat="45.9834" lon="4.8359">
        <ele>270</ele>
        <time>2016-11-28T10:59:13Z</time>
      </trkpt>
      <trkpt lat="45.98344" lon="4.83584">
        <ele>270</ele>
        <time>2016-11-28T10:59:14Z</time>
      </trkpt>
      <trkpt lat="45.98348" lon="4.83579">
        <ele>270</ele>
        <time>2016-11-28T10:59:15Z</time>
      </trkpt>
      <trkpt lat="45.98352" lon="4.83573">
        <ele>269</ele>
        <time>2016-11-28T10:59:16Z</time>
      </trkpt>
      <trkpt lat="45.98356" lon="4.83568">
        <ele>269</ele>
        <time>2016-11-28T10:59:17Z</time>
      </trkpt>
      <trkpt lat="45.9836" lon="4.83563">
        <ele>269</ele>
        <time>2016-11-28T10:59:18Z</time>
      </trkpt>
      <trkpt lat="45.98364" lon="4.83558">
        <ele>269</ele>
        <time>2016-11-28T10:59:19Z</time>
      </trkpt>
      <trkpt lat="45.98368" lon="4.83552">
        <ele>269</ele>
        <time>2016-11-28T10:59:20Z</time>
      </trkpt>
      <trkpt lat="45.98372" lon="4.83547">
        <ele>269</ele>
        <time>2016-11-28T10:59:21Z</time>
      </trkpt>
      <trkpt lat="45.98376" lon="4.83541">
        <ele>269</ele>
        <time>2016-11-28T10:59:22Z</time>
      </trkpt>
      <trkpt lat="45.9838" lon="4.83536">
        <ele>269</ele>
        <time>2016-11-28T10:59:23Z</time>
      </trkpt>
      <trkpt lat="45.98384" lon="4.8353">
        <ele>269</ele>
        <time>2016-11-28T10:59:24Z</time>
      </trkpt>
      <trkpt lat="45.98388" lon="4.83525">
        <ele>269</ele>
        <time>2016-11-28T10:59:25Z</time>
      </trkpt>
      <trkpt lat="45.98392" lon="4.83519">
        <ele>269</ele>
        <time>2016-11-28T10:59:26Z</time>
      </trkpt>
      <trkpt lat="45.98396" lon="4.83514">
        <ele>269</ele>
        <time>2016-11-28T10:59:27Z</time>
      </trkpt>
      <trkpt lat="45.984" lon="4.83509">
        <ele>269</ele>
        <time>2016-11-28T10:59:28Z</time>
      </trkpt>
      <trkpt lat="45.98404" lon="4.83504">
        <ele>268</ele>
        <time>2016-11-28T10:59:29Z</time>
      </trkpt>
      <trkpt lat="45.98407" lon="4.83499">
        <ele>268</ele>
        <time>2016-11-28T10:59:30Z</time>
      </trkpt>
      <trkpt lat="45.98411" lon="4.83494">
        <ele>268</ele>
        <time>2016-11-28T10:59:31Z</time>
      </trkpt>
      <trkpt lat="45.98415" lon="4.83488">
        <ele>268</ele>
        <time>2016-11-28T10:59:32Z</time>
      </trkpt>
      <trkpt lat="45.98419" lon="4.83483">
        <ele>268</ele>
        <time>2016-11-28T10:59:33Z</time>
      </trkpt>
      <trkpt lat="45.98423" lon="4.83477">
        <ele>268</ele>
        <time>2016-11-28T10:59:34Z</time>
      </trkpt>
      <trkpt lat="45.98426" lon="4.83472">
        <ele>268</ele>
        <time>2016-11-28T10:59:35Z</time>
      </trkpt>
      <trkpt lat="45.9843" lon="4.83467">
        <ele>268</ele>
        <time>2016-11-28T10:59:36Z</time>
      </trkpt>
      <trkpt lat="45.98434" lon="4.83462">
        <ele>268</ele>
        <time>2016-11-28T10:59:37Z</time>
      </trkpt>
      <trkpt lat="45.98438" lon="4.83457">
        <ele>268</ele>
        <time>2016-11-28T10:59:38Z</time>
      </trkpt>
      <trkpt lat="45.98442" lon="4.83452">
        <ele>268</ele>
        <time>2016-11-28T10:59:39Z</time>
      </trkpt>
      <trkpt lat="45.98445" lon="4.83446">
        <ele>268</ele>
        <time>2016-11-28T10:59:40Z</time>
      </trkpt>
      <trkpt lat="45.9845" lon="4.83441">
        <ele>268</ele>
        <time>2016-11-28T10:59:41Z</time>
      </trkpt>
      <trkpt lat="45.98454" lon="4.83436">
        <ele>268</ele>
        <time>2016-11-28T10:59:42Z</time>
      </trkpt>
      <trkpt lat="45.98458" lon="4.8343">
        <ele>268</ele>
        <time>2016-11-28T10:59:43Z</time>
      </trkpt>
      <trkpt lat="45.98462" lon="4.83425">
        <ele>269</ele>
        <time>2016-11-28T10:59:44Z</time>
      </trkpt>
      <trkpt lat="45.98466" lon="4.8342">
        <ele>269</ele>
        <time>2016-11-28T10:59:45Z</time>
      </trkpt>
      <trkpt lat="45.98469" lon="4.83415">
        <ele>269</ele>
        <time>2016-11-28T10:59:46Z</time>
      </trkpt>
      <trkpt lat="45.98473" lon="4.8341">
        <ele>269</ele>
        <time>2016-11-28T10:59:47Z</time>
      </trkpt>
      <trkpt lat="45.98476" lon="4.83405">
        <ele>269</ele>
        <time>2016-11-28T10:59:48Z</time>
      </trkpt>
      <trkpt lat="45.9848" lon="4.834">
        <ele>269</ele>
        <time>2016-11-28T10:59:49Z</time>
      </trkpt>
      <trkpt lat="45.98483" lon="4.83395">
        <ele>269</ele>
        <time>2016-11-28T10:59:50Z</time>
      </trkpt>
      <trkpt lat="45.98487" lon="4.8339">
        <ele>269</ele>
        <time>2016-11-28T10:59:51Z</time>
      </trkpt>
      <trkpt lat="45.9849" lon="4.83385">
        <ele>269</ele>
        <time>2016-11-28T10:59:52Z</time>
      </trkpt>
      <trkpt lat="45.98493" lon="4.8338">
        <ele>269</ele>
        <time>2016-11-28T10:59:53Z</time>
      </trkpt>
      <trkpt lat="45.98496" lon="4.83376">
        <ele>269</ele>
        <time>2016-11-28T10:59:54Z</time>
      </trkpt>
      <trkpt lat="45.98503" lon="4.83368">
        <ele>269</ele>
        <time>2016-11-28T10:59:56Z</time>
      </trkpt>
      <trkpt lat="45.98506" lon="4.83364">
        <ele>269</ele>
        <time>2016-11-28T10:59:57Z</time>
      </trkpt>
      <trkpt lat="45.98513" lon="4.83355">
        <ele>270</ele>
        <time>2016-11-28T10:59:59Z</time>
      </trkpt>
      <trkpt lat="45.98516" lon="4.83351">
        <ele>270</ele>
        <time>2016-11-28T11:00:00Z</time>
      </trkpt>
      <trkpt lat="45.98522" lon="4.83342">
        <ele>270</ele>
        <time>2016-11-28T11:00:02Z</time>
      </trkpt>
      <trkpt lat="45.98525" lon="4.83338">
        <ele>269</ele>
        <time>2016-11-28T11:00:03Z</time>
      </trkpt>
      <trkpt lat="45.98529" lon="4.83333">
        <ele>269</ele>
        <time>2016-11-28T11:00:04Z</time>
      </trkpt>
      <trkpt lat="45.98532" lon="4.83329">
        <ele>269</ele>
        <time>2016-11-28T11:00:05Z</time>
      </trkpt>
      <trkpt lat="45.98536" lon="4.83324">
        <ele>269</ele>
        <time>2016-11-28T11:00:06Z</time>
      </trkpt>
      <trkpt lat="45.9854" lon="4.83319">
        <ele>269</ele>
        <time>2016-11-28T11:00:07Z</time>
      </trkpt>
      <trkpt lat="45.98543" lon="4.83315">
        <ele>269</ele>
        <time>2016-11-28T11:00:08Z</time>
      </trkpt>
      <trkpt lat="45.98547" lon="4.8331">
        <ele>269</ele>
        <time>2016-11-28T11:00:09Z</time>
      </trkpt>
      <trkpt lat="45.98551" lon="4.83304">
        <ele>269</ele>
        <time>2016-11-28T11:00:10Z</time>
      </trkpt>
      <trkpt lat="45.98555" lon="4.83299">
        <ele>269</ele>
        <time>2016-11-28T11:00:11Z</time>
      </trkpt>
      <trkpt lat="45.98558" lon="4.83294">
        <ele>269</ele>
        <time>2016-11-28T11:00:12Z</time>
      </trkpt>
      <trkpt lat="45.98562" lon="4.8329">
        <ele>269</ele>
        <time>2016-11-28T11:00:13Z</time>
      </trkpt>
      <trkpt lat="45.98568" lon="4.83281">
        <ele>269</ele>
        <time>2016-11-28T11:00:15Z</time>
      </trkpt>
      <trkpt lat="45.98571" lon="4.83276">
        <ele>269</ele>
        <time>2016-11-28T11:00:16Z</time>
      </trkpt>
      <trkpt lat="45.98577" lon="4.83268">
        <ele>269</ele>
        <time>2016-11-28T11:00:18Z</time>
      </trkpt>
      <trkpt lat="45.9858" lon="4.83263">
        <ele>269</ele>
        <time>2016-11-28T11:00:19Z</time>
      </trkpt>
      <trkpt lat="45.98587" lon="4.83255">
        <ele>268</ele>
        <time>2016-11-28T11:00:21Z</time>
      </trkpt>
      <trkpt lat="45.9859" lon="4.8325">
        <ele>268</ele>
        <time>2016-11-28T11:00:22Z</time>
      </trkpt>
      <trkpt lat="45.98593" lon="4.83246">
        <ele>268</ele>
        <time>2016-11-28T11:00:23Z</time>
      </trkpt>
      <trkpt lat="45.98597" lon="4.83241">
        <ele>268</ele>
        <time>2016-11-28T11:00:24Z</time>
      </trkpt>
      <trkpt lat="45.986" lon="4.83237">
        <ele>268</ele>
        <time>2016-11-28T11:00:25Z</time>
      </trkpt>
      <trkpt lat="45.98603" lon="4.83232">
        <ele>268</ele>
        <time>2016-11-28T11:00:26Z</time>
      </trkpt>
      <trkpt lat="45.98607" lon="4.83227">
        <ele>267</ele>
        <time>2016-11-28T11:00:27Z</time>
      </trkpt>
      <trkpt lat="45.9861" lon="4.83222">
        <ele>267</ele>
        <time>2016-11-28T11:00:28Z</time>
      </trkpt>
      <trkpt lat="45.98614" lon="4.83217">
        <ele>267</ele>
        <time>2016-11-28T11:00:29Z</time>
      </trkpt>
      <trkpt lat="45.98618" lon="4.83212">
        <ele>267</ele>
        <time>2016-11-28T11:00:30Z</time>
      </trkpt>
      <trkpt lat="45.98622" lon="4.83207">
        <ele>267</ele>
        <time>2016-11-28T11:00:31Z</time>
      </trkpt>
      <trkpt lat="45.98627" lon="4.83202">
        <ele>267</ele>
        <time>2016-11-28T11:00:32Z</time>
      </trkpt>
      <trkpt lat="45.98631" lon="4.83197">
        <ele>267</ele>
        <time>2016-11-28T11:00:33Z</time>
      </trkpt>
      <trkpt lat="45.98636" lon="4.83192">
        <ele>267</ele>
        <time>2016-11-28T11:00:34Z</time>
      </trkpt>
      <trkpt lat="45.9864" lon="4.83187">
        <ele>267</ele>
        <time>2016-11-28T11:00:35Z</time>
      </trkpt>
      <trkpt lat="45.98645" lon="4.83183">
        <ele>267</ele>
        <time>2016-11-28T11:00:36Z</time>
      </trkpt>
      <trkpt lat="45.98649" lon="4.83179">
        <ele>267</ele>
        <time>2016-11-28T11:00:37Z</time>
      </trkpt>
      <trkpt lat="45.98653" lon="4.83175">
        <ele>267</ele>
        <time>2016-11-28T11:00:38Z</time>
      </trkpt>
      <trkpt lat="45.98657" lon="4.83171">
        <ele>266</ele>
        <time>2016-11-28T11:00:39Z</time>
      </trkpt>
      <trkpt lat="45.98661" lon="4.83168">
        <ele>266</ele>
        <time>2016-11-28T11:00:40Z</time>
      </trkpt>
      <trkpt lat="45.98666" lon="4.83165">
        <ele>266</ele>
        <time>2016-11-28T11:00:41Z</time>
      </trkpt>
      <trkpt lat="45.9867" lon="4.83162">
        <ele>266</ele>
        <time>2016-11-28T11:00:42Z</time>
      </trkpt>
      <trkpt lat="45.98674" lon="4.83159">
        <ele>266</ele>
        <time>2016-11-28T11:00:43Z</time>
      </trkpt>
      <trkpt lat="45.98678" lon="4.83156">
        <ele>266</ele>
        <time>2016-11-28T11:00:44Z</time>
      </trkpt>
      <trkpt lat="45.98682" lon="4.83153">
        <ele>266</ele>
        <time>2016-11-28T11:00:45Z</time>
      </trkpt>
      <trkpt lat="45.98686" lon="4.8315">
        <ele>266</ele>
        <time>2016-11-28T11:00:46Z</time>
      </trkpt>
      <trkpt lat="45.9869" lon="4.83147">
        <ele>266</ele>
        <time>2016-11-28T11:00:47Z</time>
      </trkpt>
      <trkpt lat="45.98695" lon="4.83144">
        <ele>266</ele>
        <time>2016-11-28T11:00:48Z</time>
      </trkpt>
      <trkpt lat="45.98699" lon="4.83141">
        <ele>266</ele>
        <time>2016-11-28T11:00:49Z</time>
      </trkpt>
      <trkpt lat="45.98704" lon="4.83137">
        <ele>266</ele>
        <time>2016-11-28T11:00:50Z</time>
      </trkpt>
      <trkpt lat="45.98708" lon="4.83134">
        <ele>266</ele>
        <time>2016-11-28T11:00:51Z</time>
      </trkpt>
      <trkpt lat="45.98713" lon="4.8313">
        <ele>266</ele>
        <time>2016-11-28T11:00:52Z</time>
      </trkpt>
      <trkpt lat="45.98718" lon="4.83126">
        <ele>266</ele>
        <time>2016-11-28T11:00:53Z</time>
      </trkpt>
      <trkpt lat="45.98723" lon="4.83121">
        <ele>266</ele>
        <time>2016-11-28T11:00:54Z</time>
      </trkpt>
      <trkpt lat="45.98728" lon="4.83117">
        <ele>266</ele>
        <time>2016-11-28T11:00:55Z</time>
      </trkpt>
      <trkpt lat="45.98732" lon="4.83113">
        <ele>267</ele>
        <time>2016-11-28T11:00:56Z</time>
      </trkpt>
      <trkpt lat="45.98737" lon="4.83109">
        <ele>267</ele>
        <time>2016-11-28T11:00:57Z</time>
      </trkpt>
      <trkpt lat="45.98742" lon="4.83104">
        <ele>267</ele>
        <time>2016-11-28T11:00:58Z</time>
      </trkpt>
      <trkpt lat="45.98747" lon="4.831">
        <ele>267</ele>
        <time>2016-11-28T11:00:59Z</time>
      </trkpt>
      <trkpt lat="45.98752" lon="4.83095">
        <ele>266</ele>
        <time>2016-11-28T11:01:00Z</time>
      </trkpt>
      <trkpt lat="45.98758" lon="4.83091">
        <ele>266</ele>
        <time>2016-11-28T11:01:01Z</time>
      </trkpt>
      <trkpt lat="45.98763" lon="4.83087">
        <ele>266</ele>
        <time>2016-11-28T11:01:02Z</time>
      </trkpt>
      <trkpt lat="45.98769" lon="4.83083">
        <ele>266</ele>
        <time>2016-11-28T11:01:03Z</time>
      </trkpt>
      <trkpt lat="45.98774" lon="4.8308">
        <ele>265</ele>
        <time>2016-11-28T11:01:04Z</time>
      </trkpt>
      <trkpt lat="45.98779" lon="4.83075">
        <ele>265</ele>
        <time>2016-11-28T11:01:05Z</time>
      </trkpt>
      <trkpt lat="45.98783" lon="4.83071">
        <ele>265</ele>
        <time>2016-11-28T11:01:06Z</time>
      </trkpt>
      <trkpt lat="45.98788" lon="4.83067">
        <ele>265</ele>
        <time>2016-11-28T11:01:07Z</time>
      </trkpt>
      <trkpt lat="45.98793" lon="4.83063">
        <ele>265</ele>
        <time>2016-11-28T11:01:08Z</time>
      </trkpt>
      <trkpt lat="45.98798" lon="4.83058">
        <ele>264</ele>
        <time>2016-11-28T11:01:09Z</time>
      </trkpt>
      <trkpt lat="45.98803" lon="4.83054">
        <ele>264</ele>
        <time>2016-11-28T11:01:10Z</time>
      </trkpt>
      <trkpt lat="45.98807" lon="4.8305">
        <ele>264</ele>
        <time>2016-11-28T11:01:11Z</time>
      </trkpt>
      <trkpt lat="45.98812" lon="4.83046">
        <ele>264</ele>
        <time>2016-11-28T11:01:12Z</time>
      </trkpt>
      <trkpt lat="45.98816" lon="4.83043">
        <ele>264</ele>
        <time>2016-11-28T11:01:13Z</time>
      </trkpt>
      <trkpt lat="45.98821" lon="4.83039">
        <ele>264</ele>
        <time>2016-11-28T11:01:14Z</time>
      </trkpt>
      <trkpt lat="45.98826" lon="4.83035">
        <ele>264</ele>
        <time>2016-11-28T11:01:15Z</time>
      </trkpt>
      <trkpt lat="45.98831" lon="4.83032">
        <ele>264</ele>
        <time>2016-11-28T11:01:16Z</time>
      </trkpt>
      <trkpt lat="45.98836" lon="4.83028">
        <ele>261</ele>
        <time>2016-11-28T11:01:17Z</time>
      </trkpt>
      <trkpt lat="45.98841" lon="4.83024">
        <ele>261</ele>
        <time>2016-11-28T11:01:18Z</time>
      </trkpt>
      <trkpt lat="45.98846" lon="4.8302">
        <ele>261</ele>
        <time>2016-11-28T11:01:19Z</time>
      </trkpt>
      <trkpt lat="45.98852" lon="4.83016">
        <ele>261</ele>
        <time>2016-11-28T11:01:20Z</time>
      </trkpt>
      <trkpt lat="45.98858" lon="4.83012">
        <ele>261</ele>
        <time>2016-11-28T11:01:21Z</time>
      </trkpt>
      <trkpt lat="45.98863" lon="4.83007">
        <ele>260</ele>
        <time>2016-11-28T11:01:22Z</time>
      </trkpt>
      <trkpt lat="45.98869" lon="4.83003">
        <ele>260</ele>
        <time>2016-11-28T11:01:23Z</time>
      </trkpt>
      <trkpt lat="45.98875" lon="4.82999">
        <ele>260</ele>
        <time>2016-11-28T11:01:24Z</time>
      </trkpt>
      <trkpt lat="45.98881" lon="4.82995">
        <ele>259</ele>
        <time>2016-11-28T11:01:25Z</time>
      </trkpt>
      <trkpt lat="45.98888" lon="4.8299">
        <ele>259</ele>
        <time>2016-11-28T11:01:26Z</time>
      </trkpt>
      <trkpt lat="45.98894" lon="4.82985">
        <ele>259</ele>
        <time>2016-11-28T11:01:27Z</time>
      </trkpt>
      <trkpt lat="45.98901" lon="4.8298">
        <ele>259</ele>
        <time>2016-11-28T11:01:28Z</time>
      </trkpt>
      <trkpt lat="45.98907" lon="4.82973">
        <ele>259</ele>
        <time>2016-11-28T11:01:29Z</time>
      </trkpt>
      <trkpt lat="45.98913" lon="4.82966">
        <ele>258</ele>
        <time>2016-11-28T11:01:30Z</time>
      </trkpt>
      <trkpt lat="45.98918" lon="4.82956">
        <ele>255</ele>
        <time>2016-11-28T11:01:31Z</time>
      </trkpt>
      <trkpt lat="45.98924" lon="4.82947">
        <ele>255</ele>
        <time>2016-11-28T11:01:32Z</time>
      </trkpt>
      <trkpt lat="45.98929" lon="4.82936">
        <ele>255</ele>
        <time>2016-11-28T11:01:33Z</time>
      </trkpt>
      <trkpt lat="45.98933" lon="4.82925">
        <ele>255</ele>
        <time>2016-11-28T11:01:34Z</time>
      </trkpt>
      <trkpt lat="45.98938" lon="4.82913">
        <ele>254</ele>
        <time>2016-11-28T11:01:35Z</time>
      </trkpt>
      <trkpt lat="45.98943" lon="4.82901">
        <ele>253</ele>
        <time>2016-11-28T11:01:36Z</time>
      </trkpt>
      <trkpt lat="45.98949" lon="4.82888">
        <ele>253</ele>
        <time>2016-11-28T11:01:37Z</time>
      </trkpt>
      <trkpt lat="45.98954" lon="4.82876">
        <ele>253</ele>
        <time>2016-11-28T11:01:38Z</time>
      </trkpt>
      <trkpt lat="45.9896" lon="4.82863">
        <ele>252</ele>
        <time>2016-11-28T11:01:39Z</time>
      </trkpt>
      <trkpt lat="45.98965" lon="4.8285">
        <ele>252</ele>
        <time>2016-11-28T11:01:40Z</time>
      </trkpt>
      <trkpt lat="45.98971" lon="4.82837">
        <ele>251</ele>
        <time>2016-11-28T11:01:41Z</time>
      </trkpt>
      <trkpt lat="45.98976" lon="4.82824">
        <ele>249</ele>
        <time>2016-11-28T11:01:42Z</time>
      </trkpt>
      <trkpt lat="45.98982" lon="4.82811">
        <ele>248</ele>
        <time>2016-11-28T11:01:43Z</time>
      </trkpt>
      <trkpt lat="45.98988" lon="4.82797">
        <ele>248</ele>
        <time>2016-11-28T11:01:44Z</time>
      </trkpt>
      <trkpt lat="45.98994" lon="4.82783">
        <ele>247</ele>
        <time>2016-11-28T11:01:45Z</time>
      </trkpt>
      <trkpt lat="45.98999" lon="4.8277">
        <ele>245</ele>
        <time>2016-11-28T11:01:46Z</time>
      </trkpt>
      <trkpt lat="45.99005" lon="4.82757">
        <ele>241</ele>
        <time>2016-11-28T11:01:47Z</time>
      </trkpt>
      <trkpt lat="45.99011" lon="4.82743">
        <ele>240</ele>
        <time>2016-11-28T11:01:48Z</time>
      </trkpt>
      <trkpt lat="45.99017" lon="4.82729">
        <ele>239</ele>
        <time>2016-11-28T11:01:49Z</time>
      </trkpt>
      <trkpt lat="45.99023" lon="4.82715">
        <ele>239</ele>
        <time>2016-11-28T11:01:50Z</time>
      </trkpt>
      <trkpt lat="45.99029" lon="4.82702">
        <ele>238</ele>
        <time>2016-11-28T11:01:51Z</time>
      </trkpt>
      <trkpt lat="45.99034" lon="4.82688">
        <ele>238</ele>
        <time>2016-11-28T11:01:52Z</time>
      </trkpt>
      <trkpt lat="45.9904" lon="4.82675">
        <ele>238</ele>
        <time>2016-11-28T11:01:53Z</time>
      </trkpt>
      <trkpt lat="45.99046" lon="4.82663">
        <ele>236</ele>
        <time>2016-11-28T11:01:54Z</time>
      </trkpt>
      <trkpt lat="45.99051" lon="4.82651">
        <ele>236</ele>
        <time>2016-11-28T11:01:55Z</time>
      </trkpt>
      <trkpt lat="45.99056" lon="4.8264">
        <ele>236</ele>
        <time>2016-11-28T11:01:56Z</time>
      </trkpt>
      <trkpt lat="45.9906" lon="4.82629">
        <ele>236</ele>
        <time>2016-11-28T11:01:57Z</time>
      </trkpt>
      <trkpt lat="45.99065" lon="4.82619">
        <ele>236</ele>
        <time>2016-11-28T11:01:58Z</time>
      </trkpt>
      <trkpt lat="45.99068" lon="4.8261">
        <ele>236</ele>
        <time>2016-11-28T11:01:59Z</time>
      </trkpt>
      <trkpt lat="45.99072" lon="4.82602">
        <ele>235</ele>
        <time>2016-11-28T11:02:00Z</time>
      </trkpt>
      <trkpt lat="45.99076" lon="4.82595">
        <ele>235</ele>
        <time>2016-11-28T11:02:01Z</time>
      </trkpt>
      <trkpt lat="45.99078" lon="4.8259">
        <ele>235</ele>
        <time>2016-11-28T11:02:02Z</time>
      </trkpt>
      <trkpt lat="45.99077" lon="4.82577">
        <ele>235</ele>
        <time>2016-11-28T11:02:05Z</time>
      </trkpt>
      <trkpt lat="45.99074" lon="4.82575">
        <ele>235</ele>
        <time>2016-11-28T11:02:06Z</time>
      </trkpt>
      <trkpt lat="45.99066" lon="4.82575">
        <ele>235</ele>
        <time>2016-11-28T11:08:59Z</time>
      </trkpt>
      <trkpt lat="45.99064" lon="4.82574">
        <ele>235</ele>
        <time>2016-11-28T11:09:00Z</time>
      </trkpt>
      <trkpt lat="45.99056" lon="4.8257">
        <ele>235</ele>
        <time>2016-11-28T11:09:05Z</time>
      </trkpt>
      <trkpt lat="45.99054" lon="4.82568">
        <ele>235</ele>
        <time>2016-11-28T11:09:06Z</time>
      </trkpt>
      <trkpt lat="45.99046" lon="4.82563">
        <ele>235</ele>
        <time>2016-11-28T11:09:20Z</time>
      </trkpt>
      <trkpt lat="45.99045" lon="4.82561">
        <ele>235</ele>
        <time>2016-11-28T11:09:21Z</time>
      </trkpt>
      <trkpt lat="45.99038" lon="4.82556">
        <ele>235</ele>
        <time>2016-11-28T11:09:27Z</time>
      </trkpt>
      <trkpt lat="45.99037" lon="4.82555">
        <ele>235</ele>
        <time>2016-11-28T11:09:28Z</time>
      </trkpt>
      <trkpt lat="45.99029" lon="4.82549">
        <ele>235</ele>
        <time>2016-11-28T11:09:33Z</time>
      </trkpt>
      <trkpt lat="45.99027" lon="4.82547">
        <ele>235</ele>
        <time>2016-11-28T11:09:34Z</time>
      </trkpt>
      <trkpt lat="45.99021" lon="4.82539">
        <ele>235</ele>
        <time>2016-11-28T11:09:37Z</time>
      </trkpt>
      <trkpt lat="45.99019" lon="4.82537">
        <ele>235</ele>
        <time>2016-11-28T11:09:38Z</time>
      </trkpt>
      <trkpt lat="45.99015" lon="4.8253">
        <ele>235</ele>
        <time>2016-11-28T11:09:40Z</time>
      </trkpt>
      <trkpt lat="45.99013" lon="4.82526">
        <ele>235</ele>
        <time>2016-11-28T11:09:41Z</time>
      </trkpt>
      <trkpt lat="45.99009" lon="4.82519">
        <ele>235</ele>
        <time>2016-11-28T11:09:43Z</time>
      </trkpt>
      <trkpt lat="45.99007" lon="4.82515">
        <ele>235</ele>
        <time>2016-11-28T11:09:44Z</time>
      </trkpt>
      <trkpt lat="45.99003" lon="4.82507">
        <ele>235</ele>
        <time>2016-11-28T11:09:46Z</time>
      </trkpt>
      <trkpt lat="45.99001" lon="4.82503">
        <ele>235</ele>
        <time>2016-11-28T11:09:47Z</time>
      </trkpt>
      <trkpt lat="45.98997" lon="4.82496">
        <ele>235</ele>
        <time>2016-11-28T11:09:49Z</time>
      </trkpt>
      <trkpt lat="45.98995" lon="4.82492">
        <ele>236</ele>
        <time>2016-11-28T11:09:50Z</time>
      </trkpt>
      <trkpt lat="45.98991" lon="4.82483">
        <ele>236</ele>
        <time>2016-11-28T11:09:52Z</time>
      </trkpt>
      <trkpt lat="45.9899" lon="4.82477">
        <ele>236</ele>
        <time>2016-11-28T11:09:53Z</time>
      </trkpt>
      <trkpt lat="45.98987" lon="4.82466">
        <ele>236</ele>
        <time>2016-11-28T11:09:55Z</time>
      </trkpt>
      <trkpt lat="45.98985" lon="4.8246">
        <ele>236</ele>
        <time>2016-11-28T11:09:56Z</time>
      </trkpt>
      <trkpt lat="45.98982" lon="4.82449">
        <ele>236</ele>
        <time>2016-11-28T11:09:58Z</time>
      </trkpt>
      <trkpt lat="45.9898" lon="4.82443">
        <ele>236</ele>
        <time>2016-11-28T11:09:59Z</time>
      </trkpt>
      <trkpt lat="45.98979" lon="4.82437">
        <ele>236</ele>
        <time>2016-11-28T11:10:00Z</time>
      </trkpt>
      <trkpt lat="45.98978" lon="4.8243">
        <ele>236</ele>
        <time>2016-11-28T11:10:01Z</time>
      </trkpt>
      <trkpt lat="45.98977" lon="4.82424">
        <ele>236</ele>
        <time>2016-11-28T11:10:02Z</time>
      </trkpt>
      <trkpt lat="45.98975" lon="4.82417">
        <ele>236</ele>
        <time>2016-11-28T11:10:03Z</time>
      </trkpt>
      <trkpt lat="45.98973" lon="4.82411">
        <ele>235</ele>
        <time>2016-11-28T11:10:04Z</time>
      </trkpt>
      <trkpt lat="45.98971" lon="4.82404">
        <ele>235</ele>
        <time>2016-11-28T11:10:05Z</time>
      </trkpt>
      <trkpt lat="45.98969" lon="4.82397">
        <ele>235</ele>
        <time>2016-11-28T11:10:06Z</time>
      </trkpt>
      <trkpt lat="45.98967" lon="4.82389">
        <ele>235</ele>
        <time>2016-11-28T11:10:07Z</time>
      </trkpt>
      <trkpt lat="45.98966" lon="4.82383">
        <ele>235</ele>
        <time>2016-11-28T11:10:08Z</time>
      </trkpt>
      <trkpt lat="45.98964" lon="4.82376">
        <ele>235</ele>
        <time>2016-11-28T11:10:09Z</time>
      </trkpt>
      <trkpt lat="45.98962" lon="4.82369">
        <ele>235</ele>
        <time>2016-11-28T11:10:10Z</time>
      </trkpt>
      <trkpt lat="45.9896" lon="4.82362">
        <ele>235</ele>
        <time>2016-11-28T11:10:11Z</time>
      </trkpt>
      <trkpt lat="45.98958" lon="4.82355">
        <ele>235</ele>
        <time>2016-11-28T11:10:12Z</time>
      </trkpt>
      <trkpt lat="45.98955" lon="4.82349">
        <ele>235</ele>
        <time>2016-11-28T11:10:13Z</time>
      </trkpt>
      <trkpt lat="45.98952" lon="4.82343">
        <ele>235</ele>
        <time>2016-11-28T11:10:14Z</time>
      </trkpt>
      <trkpt lat="45.9895" lon="4.82337">
        <ele>235</ele>
        <time>2016-11-28T11:10:15Z</time>
      </trkpt>
      <trkpt lat="45.98947" lon="4.82332">
        <ele>234</ele>
        <time>2016-11-28T11:10:16Z</time>
      </trkpt>
      <trkpt lat="45.98943" lon="4.82327">
        <ele>234</ele>
        <time>2016-11-28T11:10:17Z</time>
      </trkpt>
      <trkpt lat="45.98939" lon="4.82322">
        <ele>234</ele>
        <time>2016-11-28T11:10:18Z</time>
      </trkpt>
      <trkpt lat="45.98935" lon="4.82317">
        <ele>234</ele>
        <time>2016-11-28T11:10:19Z</time>
      </trkpt>
      <trkpt lat="45.98931" lon="4.82312">
        <ele>235</ele>
        <time>2016-11-28T11:10:20Z</time>
      </trkpt>
      <trkpt lat="45.98926" lon="4.82307">
        <ele>234</ele>
        <time>2016-11-28T11:10:21Z</time>
      </trkpt>
      <trkpt lat="45.98922" lon="4.82303">
        <ele>234</ele>
        <time>2016-11-28T11:10:22Z</time>
      </trkpt>
      <trkpt lat="45.98917" lon="4.82298">
        <ele>234</ele>
        <time>2016-11-28T11:10:23Z</time>
      </trkpt>
      <trkpt lat="45.98913" lon="4.82294">
        <ele>236</ele>
        <time>2016-11-28T11:10:24Z</time>
      </trkpt>
      <trkpt lat="45.98909" lon="4.82289">
        <ele>236</ele>
        <time>2016-11-28T11:10:25Z</time>
      </trkpt>
      <trkpt lat="45.98904" lon="4.82285">
        <ele>236</ele>
        <time>2016-11-28T11:10:26Z</time>
      </trkpt>
      <trkpt lat="45.989" lon="4.82279">
        <ele>236</ele>
        <time>2016-11-28T11:10:27Z</time>
      </trkpt>
      <trkpt lat="45.98897" lon="4.82274">
        <ele>236</ele>
        <time>2016-11-28T11:10:28Z</time>
      </trkpt>
      <trkpt lat="45.98893" lon="4.82268">
        <ele>236</ele>
        <time>2016-11-28T11:10:29Z</time>
      </trkpt>
      <trkpt lat="45.9889" lon="4.82262">
        <ele>236</ele>
        <time>2016-11-28T11:10:30Z</time>
      </trkpt>
      <trkpt lat="45.98887" lon="4.82256">
        <ele>236</ele>
        <time>2016-11-28T11:10:31Z</time>
      </trkpt>
      <trkpt lat="45.98883" lon="4.8225">
        <ele>236</ele>
        <time>2016-11-28T11:10:32Z</time>
      </trkpt>
      <trkpt lat="45.9888" lon="4.82244">
        <ele>236</ele>
        <time>2016-11-28T11:10:33Z</time>
      </trkpt>
      <trkpt lat="45.98877" lon="4.82238">
        <ele>236</ele>
        <time>2016-11-28T11:10:34Z</time>
      </trkpt>
      <trkpt lat="45.98874" lon="4.82232">
        <ele>236</ele>
        <time>2016-11-28T11:10:35Z</time>
      </trkpt>
      <trkpt lat="45.98872" lon="4.82225">
        <ele>236</ele>
        <time>2016-11-28T11:10:36Z</time>
      </trkpt>
      <trkpt lat="45.98869" lon="4.82218">
        <ele>236</ele>
        <time>2016-11-28T11:10:37Z</time>
      </trkpt>
      <trkpt lat="45.98867" lon="4.82211">
        <ele>236</ele>
        <time>2016-11-28T11:10:38Z</time>
      </trkpt>
      <trkpt lat="45.98864" lon="4.82204">
        <ele>236</ele>
        <time>2016-11-28T11:10:39Z</time>
      </trkpt>
      <trkpt lat="45.98861" lon="4.82197">
        <ele>236</ele>
        <time>2016-11-28T11:10:40Z</time>
      </trkpt>
      <trkpt lat="45.98858" lon="4.8219">
        <ele>236</ele>
        <time>2016-11-28T11:10:41Z</time>
      </trkpt>
      <trkpt lat="45.98856" lon="4.82183">
        <ele>236</ele>
        <time>2016-11-28T11:10:42Z</time>
      </trkpt>
      <trkpt lat="45.98853" lon="4.82176">
        <ele>236</ele>
        <time>2016-11-28T11:10:43Z</time>
      </trkpt>
      <trkpt lat="45.98851" lon="4.82168">
        <ele>236</ele>
        <time>2016-11-28T11:10:44Z</time>
      </trkpt>
      <trkpt lat="45.98849" lon="4.82161">
        <ele>236</ele>
        <time>2016-11-28T11:10:45Z</time>
      </trkpt>
      <trkpt lat="45.98847" lon="4.82153">
        <ele>236</ele>
        <time>2016-11-28T11:10:46Z</time>
      </trkpt>
      <trkpt lat="45.98845" lon="4.82146">
        <ele>236</ele>
        <time>2016-11-28T11:10:47Z</time>
      </trkpt>
      <trkpt lat="45.98842" lon="4.82138">
        <ele>236</ele>
        <time>2016-11-28T11:10:48Z</time>
      </trkpt>
      <trkpt lat="45.9884" lon="4.82131">
        <ele>236</ele>
        <time>2016-11-28T11:10:49Z</time>
      </trkpt>
      <trkpt lat="45.98839" lon="4.82123">
        <ele>236</ele>
        <time>2016-11-28T11:10:50Z</time>
      </trkpt>
      <trkpt lat="45.98837" lon="4.82116">
        <ele>235</ele>
        <time>2016-11-28T11:10:51Z</time>
      </trkpt>
      <trkpt lat="45.98836" lon="4.82109">
        <ele>236</ele>
        <time>2016-11-28T11:10:52Z</time>
      </trkpt>
      <trkpt lat="45.98835" lon="4.82102">
        <ele>236</ele>
        <time>2016-11-28T11:10:53Z</time>
      </trkpt>
      <trkpt lat="45.98834" lon="4.82095">
        <ele>236</ele>
        <time>2016-11-28T11:10:54Z</time>
      </trkpt>
      <trkpt lat="45.98833" lon="4.82089">
        <ele>236</ele>
        <time>2016-11-28T11:10:55Z</time>
      </trkpt>
      <trkpt lat="45.98831" lon="4.82076">
        <ele>237</ele>
        <time>2016-11-28T11:10:57Z</time>
      </trkpt>
      <trkpt lat="45.9883" lon="4.8207">
        <ele>237</ele>
        <time>2016-11-28T11:10:58Z</time>
      </trkpt>
      <trkpt lat="45.98829" lon="4.82063">
        <ele>237</ele>
        <time>2016-11-28T11:10:59Z</time>
      </trkpt>
      <trkpt lat="45.98828" lon="4.82055">
        <ele>237</ele>
        <time>2016-11-28T11:11:00Z</time>
      </trkpt>
      <trkpt lat="45.98826" lon="4.82048">
        <ele>238</ele>
        <time>2016-11-28T11:11:01Z</time>
      </trkpt>
      <trkpt lat="45.98825" lon="4.8204">
        <ele>238</ele>
        <time>2016-11-28T11:11:02Z</time>
      </trkpt>
      <trkpt lat="45.98824" lon="4.82032">
        <ele>238</ele>
        <time>2016-11-28T11:11:03Z</time>
      </trkpt>
      <trkpt lat="45.98823" lon="4.82024">
        <ele>238</ele>
        <time>2016-11-28T11:11:04Z</time>
      </trkpt>
      <trkpt lat="45.98822" lon="4.82016">
        <ele>238</ele>
        <time>2016-11-28T11:11:05Z</time>
      </trkpt>
      <trkpt lat="45.98821" lon="4.82009">
        <ele>238</ele>
        <time>2016-11-28T11:11:06Z</time>
      </trkpt>
      <trkpt lat="45.98819" lon="4.82002">
        <ele>238</ele>
        <time>2016-11-28T11:11:07Z</time>
      </trkpt>
      <trkpt lat="45.98819" lon="4.81994">
        <ele>238</ele>
        <time>2016-11-28T11:11:08Z</time>
      </trkpt>
      <trkpt lat="45.98818" lon="4.81987">
        <ele>238</ele>
        <time>2016-11-28T11:11:09Z</time>
      </trkpt>
      <trkpt lat="45.98817" lon="4.8198">
        <ele>239</ele>
        <time>2016-11-28T11:11:10Z</time>
      </trkpt>
      <trkpt lat="45.98816" lon="4.81973">
        <ele>239</ele>
        <time>2016-11-28T11:11:11Z</time>
      </trkpt>
      <trkpt lat="45.98815" lon="4.81966">
        <ele>239</ele>
        <time>2016-11-28T11:11:12Z</time>
      </trkpt>
      <trkpt lat="45.98814" lon="4.81959">
        <ele>239</ele>
        <time>2016-11-28T11:11:13Z</time>
      </trkpt>
      <trkpt lat="45.98813" lon="4.81952">
        <ele>239</ele>
        <time>2016-11-28T11:11:14Z</time>
      </trkpt>
      <trkpt lat="45.98812" lon="4.81945">
        <ele>239</ele>
        <time>2016-11-28T11:11:15Z</time>
      </trkpt>
      <trkpt lat="45.98811" lon="4.81938">
        <ele>239</ele>
        <time>2016-11-28T11:11:16Z</time>
      </trkpt>
      <trkpt lat="45.9881" lon="4.81931">
        <ele>239</ele>
        <time>2016-11-28T11:11:17Z</time>
      </trkpt>
      <trkpt lat="45.98809" lon="4.81924">
        <ele>239</ele>
        <time>2016-11-28T11:11:18Z</time>
      </trkpt>
      <trkpt lat="45.98808" lon="4.81917">
        <ele>239</ele>
        <time>2016-11-28T11:11:19Z</time>
      </trkpt>
      <trkpt lat="45.98807" lon="4.8191">
        <ele>239</ele>
        <time>2016-11-28T11:11:20Z</time>
      </trkpt>
      <trkpt lat="45.98805" lon="4.81904">
        <ele>239</ele>
        <time>2016-11-28T11:11:21Z</time>
      </trkpt>
      <trkpt lat="45.98804" lon="4.81897">
        <ele>239</ele>
        <time>2016-11-28T11:11:22Z</time>
      </trkpt>
      <trkpt lat="45.98802" lon="4.8189">
        <ele>239</ele>
        <time>2016-11-28T11:11:23Z</time>
      </trkpt>
      <trkpt lat="45.988" lon="4.81884">
        <ele>239</ele>
        <time>2016-11-28T11:11:24Z</time>
      </trkpt>
      <trkpt lat="45.98796" lon="4.81873">
        <ele>239</ele>
        <time>2016-11-28T11:11:26Z</time>
      </trkpt>
      <trkpt lat="45.98794" lon="4.81867">
        <ele>239</ele>
        <time>2016-11-28T11:11:27Z</time>
      </trkpt>
      <trkpt lat="45.98792" lon="4.81861">
        <ele>239</ele>
        <time>2016-11-28T11:11:28Z</time>
      </trkpt>
      <trkpt lat="45.9879" lon="4.81856">
        <ele>239</ele>
        <time>2016-11-28T11:11:29Z</time>
      </trkpt>
      <trkpt lat="45.98787" lon="4.8185">
        <ele>239</ele>
        <time>2016-11-28T11:11:30Z</time>
      </trkpt>
      <trkpt lat="45.98784" lon="4.81845">
        <ele>239</ele>
        <time>2016-11-28T11:11:31Z</time>
      </trkpt>
      <trkpt lat="45.98781" lon="4.81839">
        <ele>239</ele>
        <time>2016-11-28T11:11:32Z</time>
      </trkpt>
      <trkpt lat="45.98779" lon="4.81832">
        <ele>240</ele>
        <time>2016-11-28T11:11:33Z</time>
      </trkpt>
      <trkpt lat="45.98776" lon="4.81826">
        <ele>240</ele>
        <time>2016-11-28T11:11:34Z</time>
      </trkpt>
      <trkpt lat="45.98773" lon="4.8182">
        <ele>240</ele>
        <time>2016-11-28T11:11:35Z</time>
      </trkpt>
      <trkpt lat="45.9877" lon="4.81813">
        <ele>240</ele>
        <time>2016-11-28T11:11:36Z</time>
      </trkpt>
      <trkpt lat="45.98768" lon="4.81807">
        <ele>240</ele>
        <time>2016-11-28T11:11:37Z</time>
      </trkpt>
      <trkpt lat="45.98765" lon="4.81801">
        <ele>240</ele>
        <time>2016-11-28T11:11:38Z</time>
      </trkpt>
      <trkpt lat="45.98762" lon="4.81795">
        <ele>240</ele>
        <time>2016-11-28T11:11:39Z</time>
      </trkpt>
      <trkpt lat="45.98759" lon="4.81789">
        <ele>241</ele>
        <time>2016-11-28T11:11:40Z</time>
      </trkpt>
      <trkpt lat="45.98757" lon="4.81783">
        <ele>241</ele>
        <time>2016-11-28T11:11:41Z</time>
      </trkpt>
      <trkpt lat="45.98752" lon="4.81773">
        <ele>241</ele>
        <time>2016-11-28T11:11:43Z</time>
      </trkpt>
      <trkpt lat="45.9875" lon="4.81769">
        <ele>240</ele>
        <time>2016-11-28T11:11:44Z</time>
      </trkpt>
      <trkpt lat="45.98745" lon="4.8176">
        <ele>240</ele>
        <time>2016-11-28T11:11:46Z</time>
      </trkpt>
      <trkpt lat="45.98742" lon="4.81755">
        <ele>240</ele>
        <time>2016-11-28T11:11:47Z</time>
      </trkpt>
      <trkpt lat="45.98737" lon="4.81744">
        <ele>240</ele>
        <time>2016-11-28T11:11:49Z</time>
      </trkpt>
      <trkpt lat="45.98734" lon="4.81739">
        <ele>240</ele>
        <time>2016-11-28T11:11:50Z</time>
      </trkpt>
      <trkpt lat="45.9873" lon="4.81734">
        <ele>239</ele>
        <time>2016-11-28T11:11:51Z</time>
      </trkpt>
      <trkpt lat="45.98725" lon="4.8173">
        <ele>239</ele>
        <time>2016-11-28T11:11:52Z</time>
      </trkpt>
      <trkpt lat="45.9872" lon="4.81728">
        <ele>239</ele>
        <time>2016-11-28T11:11:53Z</time>
      </trkpt>
      <trkpt lat="45.98715" lon="4.81727">
        <ele>239</ele>
        <time>2016-11-28T11:11:54Z</time>
      </trkpt>
      <trkpt lat="45.9871" lon="4.81728">
        <ele>239</ele>
        <time>2016-11-28T11:11:55Z</time>
      </trkpt>
      <trkpt lat="45.98705" lon="4.8173">
        <ele>239</ele>
        <time>2016-11-28T11:11:56Z</time>
      </trkpt>
      <trkpt lat="45.98696" lon="4.81732">
        <ele>239</ele>
        <time>2016-11-28T11:11:58Z</time>
      </trkpt>
      <trkpt lat="45.98692" lon="4.81733">
        <ele>238</ele>
        <time>2016-11-28T11:11:59Z</time>
      </trkpt>
      <trkpt lat="45.98684" lon="4.81735">
        <ele>238</ele>
        <time>2016-11-28T11:12:01Z</time>
      </trkpt>
      <trkpt lat="45.98679" lon="4.81735">
        <ele>238</ele>
        <time>2016-11-28T11:12:02Z</time>
      </trkpt>
      <trkpt lat="45.98675" lon="4.81736">
        <ele>238</ele>
        <time>2016-11-28T11:12:03Z</time>
      </trkpt>
      <trkpt lat="45.98669" lon="4.81737">
        <ele>238</ele>
        <time>2016-11-28T11:12:04Z</time>
      </trkpt>
      <trkpt lat="45.98664" lon="4.81738">
        <ele>237</ele>
        <time>2016-11-28T11:12:05Z</time>
      </trkpt>
      <trkpt lat="45.98659" lon="4.8174">
        <ele>237</ele>
        <time>2016-11-28T11:12:06Z</time>
      </trkpt>
      <trkpt lat="45.98653" lon="4.81741">
        <ele>237</ele>
        <time>2016-11-28T11:12:07Z</time>
      </trkpt>
      <trkpt lat="45.98648" lon="4.81743">
        <ele>237</ele>
        <time>2016-11-28T11:12:08Z</time>
      </trkpt>
      <trkpt lat="45.98643" lon="4.81745">
        <ele>237</ele>
        <time>2016-11-28T11:12:09Z</time>
      </trkpt>
      <trkpt lat="45.98636" lon="4.81746">
        <ele>237</ele>
        <time>2016-11-28T11:12:10Z</time>
      </trkpt>
      <trkpt lat="45.98631" lon="4.81747">
        <ele>237</ele>
        <time>2016-11-28T11:12:11Z</time>
      </trkpt>
      <trkpt lat="45.98625" lon="4.81748">
        <ele>237</ele>
        <time>2016-11-28T11:12:12Z</time>
      </trkpt>
      <trkpt lat="45.9862" lon="4.8175">
        <ele>237</ele>
        <time>2016-11-28T11:12:13Z</time>
      </trkpt>
      <trkpt lat="45.98616" lon="4.81752">
        <ele>238</ele>
        <time>2016-11-28T11:12:14Z</time>
      </trkpt>
      <trkpt lat="45.98611" lon="4.81754">
        <ele>238</ele>
        <time>2016-11-28T11:12:15Z</time>
      </trkpt>
      <trkpt lat="45.98605" lon="4.81756">
        <ele>238</ele>
        <time>2016-11-28T11:12:16Z</time>
      </trkpt>
      <trkpt lat="45.986" lon="4.81758">
        <ele>238</ele>
        <time>2016-11-28T11:12:17Z</time>
      </trkpt>
      <trkpt lat="45.98594" lon="4.81761">
        <ele>237</ele>
        <time>2016-11-28T11:12:18Z</time>
      </trkpt>
      <trkpt lat="45.98588" lon="4.81764">
        <ele>237</ele>
        <time>2016-11-28T11:12:19Z</time>
      </trkpt>
      <trkpt lat="45.98583" lon="4.81769">
        <ele>237</ele>
        <time>2016-11-28T11:12:20Z</time>
      </trkpt>
      <trkpt lat="45.98578" lon="4.81774">
        <ele>237</ele>
        <time>2016-11-28T11:12:21Z</time>
      </trkpt>
      <trkpt lat="45.98574" lon="4.81779">
        <ele>238</ele>
        <time>2016-11-28T11:12:22Z</time>
      </trkpt>
      <trkpt lat="45.9857" lon="4.81785">
        <ele>238</ele>
        <time>2016-11-28T11:12:23Z</time>
      </trkpt>
      <trkpt lat="45.98565" lon="4.81791">
        <ele>238</ele>
        <time>2016-11-28T11:12:24Z</time>
      </trkpt>
      <trkpt lat="45.98561" lon="4.81797">
        <ele>238</ele>
        <time>2016-11-28T11:12:25Z</time>
      </trkpt>
      <trkpt lat="45.98557" lon="4.81801">
        <ele>238</ele>
        <time>2016-11-28T11:12:26Z</time>
      </trkpt>
      <trkpt lat="45.98551" lon="4.81804">
        <ele>238</ele>
        <time>2016-11-28T11:12:27Z</time>
      </trkpt>
      <trkpt lat="45.98546" lon="4.81806">
        <ele>238</ele>
        <time>2016-11-28T11:12:28Z</time>
      </trkpt>
      <trkpt lat="45.98541" lon="4.81805">
        <ele>238</ele>
        <time>2016-11-28T11:12:29Z</time>
      </trkpt>
      <trkpt lat="45.98535" lon="4.81802">
        <ele>238</ele>
        <time>2016-11-28T11:12:30Z</time>
      </trkpt>
      <trkpt lat="45.98531" lon="4.81797">
        <ele>238</ele>
        <time>2016-11-28T11:12:31Z</time>
      </trkpt>
      <trkpt lat="45.98528" lon="4.81791">
        <ele>238</ele>
        <time>2016-11-28T11:12:32Z</time>
      </trkpt>
      <trkpt lat="45.98524" lon="4.81785">
        <ele>238</ele>
        <time>2016-11-28T11:12:33Z</time>
      </trkpt>
      <trkpt lat="45.9852" lon="4.81779">
        <ele>238</ele>
        <time>2016-11-28T11:12:34Z</time>
      </trkpt>
      <trkpt lat="45.98516" lon="4.81773">
        <ele>238</ele>
        <time>2016-11-28T11:12:35Z</time>
      </trkpt>
      <trkpt lat="45.98512" lon="4.81767">
        <ele>237</ele>
        <time>2016-11-28T11:12:36Z</time>
      </trkpt>
      <trkpt lat="45.98508" lon="4.81761">
        <ele>237</ele>
        <time>2016-11-28T11:12:37Z</time>
      </trkpt>
      <trkpt lat="45.98504" lon="4.81756">
        <ele>237</ele>
        <time>2016-11-28T11:12:38Z</time>
      </trkpt>
      <trkpt lat="45.98499" lon="4.81752">
        <ele>237</ele>
        <time>2016-11-28T11:12:39Z</time>
      </trkpt>
      <trkpt lat="45.98495" lon="4.81747">
        <ele>237</ele>
        <time>2016-11-28T11:12:40Z</time>
      </trkpt>
      <trkpt lat="45.98491" lon="4.81742">
        <ele>238</ele>
        <time>2016-11-28T11:12:41Z</time>
      </trkpt>
      <trkpt lat="45.98487" lon="4.81738">
        <ele>238</ele>
        <time>2016-11-28T11:12:42Z</time>
      </trkpt>
      <trkpt lat="45.98483" lon="4.81734">
        <ele>238</ele>
        <time>2016-11-28T11:12:43Z</time>
      </trkpt>
      <trkpt lat="45.98478" lon="4.8173">
        <ele>238</ele>
        <time>2016-11-28T11:12:44Z</time>
      </trkpt>
      <trkpt lat="45.98474" lon="4.81726">
        <ele>239</ele>
        <time>2016-11-28T11:12:45Z</time>
      </trkpt>
      <trkpt lat="45.9847" lon="4.81722">
        <ele>239</ele>
        <time>2016-11-28T11:12:46Z</time>
      </trkpt>
      <trkpt lat="45.98464" lon="4.81715">
        <ele>239</ele>
        <time>2016-11-28T11:12:48Z</time>
      </trkpt>
      <trkpt lat="45.98461" lon="4.81711">
        <ele>239</ele>
        <time>2016-11-28T11:12:49Z</time>
      </trkpt>
      <trkpt lat="45.98456" lon="4.81702">
        <ele>239</ele>
        <time>2016-11-28T11:12:51Z</time>
      </trkpt>
      <trkpt lat="45.98454" lon="4.81697">
        <ele>239</ele>
        <time>2016-11-28T11:12:52Z</time>
      </trkpt>
      <trkpt lat="45.98448" lon="4.81688">
        <ele>239</ele>
        <time>2016-11-28T11:12:54Z</time>
      </trkpt>
      <trkpt lat="45.98445" lon="4.81683">
        <ele>239</ele>
        <time>2016-11-28T11:12:55Z</time>
      </trkpt>
      <trkpt lat="45.98442" lon="4.81678">
        <ele>239</ele>
        <time>2016-11-28T11:12:56Z</time>
      </trkpt>
      <trkpt lat="45.98438" lon="4.81674">
        <ele>240</ele>
        <time>2016-11-28T11:12:57Z</time>
      </trkpt>
      <trkpt lat="45.98434" lon="4.81671">
        <ele>240</ele>
        <time>2016-11-28T11:12:58Z</time>
      </trkpt>
      <trkpt lat="45.9843" lon="4.81668">
        <ele>240</ele>
        <time>2016-11-28T11:12:59Z</time>
      </trkpt>
      <trkpt lat="45.98425" lon="4.81667">
        <ele>240</ele>
        <time>2016-11-28T11:13:00Z</time>
      </trkpt>
      <trkpt lat="45.9842" lon="4.81666">
        <ele>241</ele>
        <time>2016-11-28T11:13:01Z</time>
      </trkpt>
      <trkpt lat="45.98415" lon="4.81666">
        <ele>241</ele>
        <time>2016-11-28T11:13:02Z</time>
      </trkpt>
      <trkpt lat="45.9841" lon="4.81666">
        <ele>241</ele>
        <time>2016-11-28T11:13:03Z</time>
      </trkpt>
      <trkpt lat="45.98404" lon="4.81666">
        <ele>241</ele>
        <time>2016-11-28T11:13:04Z</time>
      </trkpt>
      <trkpt lat="45.98399" lon="4.81667">
        <ele>243</ele>
        <time>2016-11-28T11:13:05Z</time>
      </trkpt>
      <trkpt lat="45.98394" lon="4.81668">
        <ele>243</ele>
        <time>2016-11-28T11:13:06Z</time>
      </trkpt>
      <trkpt lat="45.9839" lon="4.8167">
        <ele>243</ele>
        <time>2016-11-28T11:13:07Z</time>
      </trkpt>
      <trkpt lat="45.98385" lon="4.81671">
        <ele>243</ele>
        <time>2016-11-28T11:13:08Z</time>
      </trkpt>
      <trkpt lat="45.98381" lon="4.81671">
        <ele>244</ele>
        <time>2016-11-28T11:13:09Z</time>
      </trkpt>
      <trkpt lat="45.98372" lon="4.81673">
        <ele>244</ele>
        <time>2016-11-28T11:13:11Z</time>
      </trkpt>
      <trkpt lat="45.98367" lon="4.81673">
        <ele>244</ele>
        <time>2016-11-28T11:13:12Z</time>
      </trkpt>
      <trkpt lat="45.98362" lon="4.81674">
        <ele>244</ele>
        <time>2016-11-28T11:13:13Z</time>
      </trkpt>
      <trkpt lat="45.98357" lon="4.81674">
        <ele>245</ele>
        <time>2016-11-28T11:13:14Z</time>
      </trkpt>
      <trkpt lat="45.98352" lon="4.81674">
        <ele>245</ele>
        <time>2016-11-28T11:13:15Z</time>
      </trkpt>
      <trkpt lat="45.98347" lon="4.81674">
        <ele>245</ele>
        <time>2016-11-28T11:13:16Z</time>
      </trkpt>
      <trkpt lat="45.98342" lon="4.81673">
        <ele>245</ele>
        <time>2016-11-28T11:13:17Z</time>
      </trkpt>
      <trkpt lat="45.98337" lon="4.81671">
        <ele>246</ele>
        <time>2016-11-28T11:13:18Z</time>
      </trkpt>
      <trkpt lat="45.98332" lon="4.81669">
        <ele>246</ele>
        <time>2016-11-28T11:13:19Z</time>
      </trkpt>
      <trkpt lat="45.98327" lon="4.81666">
        <ele>246</ele>
        <time>2016-11-28T11:13:20Z</time>
      </trkpt>
      <trkpt lat="45.98322" lon="4.81662">
        <ele>246</ele>
        <time>2016-11-28T11:13:21Z</time>
      </trkpt>
      <trkpt lat="45.98317" lon="4.81658">
        <ele>246</ele>
        <time>2016-11-28T11:13:22Z</time>
      </trkpt>
      <trkpt lat="45.98313" lon="4.81653">
        <ele>246</ele>
        <time>2016-11-28T11:13:23Z</time>
      </trkpt>
      <trkpt lat="45.98308" lon="4.81649">
        <ele>246</ele>
        <time>2016-11-28T11:13:24Z</time>
      </trkpt>
      <trkpt lat="45.98304" lon="4.81645">
        <ele>246</ele>
        <time>2016-11-28T11:13:25Z</time>
      </trkpt>
      <trkpt lat="45.983" lon="4.8164">
        <ele>246</ele>
        <time>2016-11-28T11:13:26Z</time>
      </trkpt>
      <trkpt lat="45.98297" lon="4.81636">
        <ele>247</ele>
        <time>2016-11-28T11:13:27Z</time>
      </trkpt>
      <trkpt lat="45.98293" lon="4.81632">
        <ele>247</ele>
        <time>2016-11-28T11:13:28Z</time>
      </trkpt>
      <trkpt lat="45.9829" lon="4.81627">
        <ele>247</ele>
        <time>2016-11-28T11:13:29Z</time>
      </trkpt>
      <trkpt lat="45.98286" lon="4.81622">
        <ele>247</ele>
        <time>2016-11-28T11:13:30Z</time>
      </trkpt>
      <trkpt lat="45.98283" lon="4.81618">
        <ele>247</ele>
        <time>2016-11-28T11:13:31Z</time>
      </trkpt>
      <trkpt lat="45.9828" lon="4.81613">
        <ele>247</ele>
        <time>2016-11-28T11:13:32Z</time>
      </trkpt>
      <trkpt lat="45.98278" lon="4.81607">
        <ele>247</ele>
        <time>2016-11-28T11:13:33Z</time>
      </trkpt>
      <trkpt lat="45.98275" lon="4.81601">
        <ele>247</ele>
        <time>2016-11-28T11:13:34Z</time>
      </trkpt>
      <trkpt lat="45.98273" lon="4.81594">
        <ele>247</ele>
        <time>2016-11-28T11:13:35Z</time>
      </trkpt>
      <trkpt lat="45.98271" lon="4.81588">
        <ele>247</ele>
        <time>2016-11-28T11:13:36Z</time>
      </trkpt>
      <trkpt lat="45.98269" lon="4.81582">
        <ele>247</ele>
        <time>2016-11-28T11:13:37Z</time>
      </trkpt>
      <trkpt lat="45.98267" lon="4.81576">
        <ele>247</ele>
        <time>2016-11-28T11:13:38Z</time>
      </trkpt>
      <trkpt lat="45.98265" lon="4.8157">
        <ele>247</ele>
        <time>2016-11-28T11:13:39Z</time>
      </trkpt>
      <trkpt lat="45.98263" lon="4.81563">
        <ele>247</ele>
        <time>2016-11-28T11:13:40Z</time>
      </trkpt>
      <trkpt lat="45.98261" lon="4.81557">
        <ele>247</ele>
        <time>2016-11-28T11:13:41Z</time>
      </trkpt>
      <trkpt lat="45.98259" lon="4.8155">
        <ele>247</ele>
        <time>2016-11-28T11:13:42Z</time>
      </trkpt>
      <trkpt lat="45.98257" lon="4.81544">
        <ele>247</ele>
        <time>2016-11-28T11:13:43Z</time>
      </trkpt>
      <trkpt lat="45.98254" lon="4.81537">
        <ele>247</ele>
        <time>2016-11-28T11:13:44Z</time>
      </trkpt>
      <trkpt lat="45.98252" lon="4.81532">
        <ele>247</ele>
        <time>2016-11-28T11:13:45Z</time>
      </trkpt>
      <trkpt lat="45.9825" lon="4.81526">
        <ele>249</ele>
        <time>2016-11-28T11:13:46Z</time>
      </trkpt>
      <trkpt lat="45.98248" lon="4.8152">
        <ele>249</ele>
        <time>2016-11-28T11:13:47Z</time>
      </trkpt>
      <trkpt lat="45.98245" lon="4.81514">
        <ele>249</ele>
        <time>2016-11-28T11:13:48Z</time>
      </trkpt>
      <trkpt lat="45.98243" lon="4.81507">
        <ele>249</ele>
        <time>2016-11-28T11:13:49Z</time>
      </trkpt>
      <trkpt lat="45.98241" lon="4.81501">
        <ele>249</ele>
        <time>2016-11-28T11:13:50Z</time>
      </trkpt>
      <trkpt lat="45.98239" lon="4.81494">
        <ele>249</ele>
        <time>2016-11-28T11:13:51Z</time>
      </trkpt>
      <trkpt lat="45.98237" lon="4.81487">
        <ele>249</ele>
        <time>2016-11-28T11:13:52Z</time>
      </trkpt>
      <trkpt lat="45.98235" lon="4.8148">
        <ele>249</ele>
        <time>2016-11-28T11:13:53Z</time>
      </trkpt>
      <trkpt lat="45.98233" lon="4.81473">
        <ele>249</ele>
        <time>2016-11-28T11:13:54Z</time>
      </trkpt>
      <trkpt lat="45.98231" lon="4.81465">
        <ele>249</ele>
        <time>2016-11-28T11:13:55Z</time>
      </trkpt>
      <trkpt lat="45.98228" lon="4.81458">
        <ele>249</ele>
        <time>2016-11-28T11:13:56Z</time>
      </trkpt>
      <trkpt lat="45.98226" lon="4.8145">
        <ele>249</ele>
        <time>2016-11-28T11:13:57Z</time>
      </trkpt>
      <trkpt lat="45.98223" lon="4.81443">
        <ele>249</ele>
        <time>2016-11-28T11:13:58Z</time>
      </trkpt>
      <trkpt lat="45.98221" lon="4.81437">
        <ele>249</ele>
        <time>2016-11-28T11:13:59Z</time>
      </trkpt>
      <trkpt lat="45.98219" lon="4.81431">
        <ele>249</ele>
        <time>2016-11-28T11:14:00Z</time>
      </trkpt>
      <trkpt lat="45.98217" lon="4.81424">
        <ele>249</ele>
        <time>2016-11-28T11:14:01Z</time>
      </trkpt>
      <trkpt lat="45.98215" lon="4.81418">
        <ele>249</ele>
        <time>2016-11-28T11:14:02Z</time>
      </trkpt>
      <trkpt lat="45.98213" lon="4.81411">
        <ele>248</ele>
        <time>2016-11-28T11:14:03Z</time>
      </trkpt>
      <trkpt lat="45.9821" lon="4.81405">
        <ele>248</ele>
        <time>2016-11-28T11:14:04Z</time>
      </trkpt>
      <trkpt lat="45.98208" lon="4.81398">
        <ele>248</ele>
        <time>2016-11-28T11:14:05Z</time>
      </trkpt>
      <trkpt lat="45.98206" lon="4.81391">
        <ele>248</ele>
        <time>2016-11-28T11:14:06Z</time>
      </trkpt>
      <trkpt lat="45.98204" lon="4.81384">
        <ele>248</ele>
        <time>2016-11-28T11:14:07Z</time>
      </trkpt>
      <trkpt lat="45.98202" lon="4.81377">
        <ele>248</ele>
        <time>2016-11-28T11:14:08Z</time>
      </trkpt>
      <trkpt lat="45.98201" lon="4.8137">
        <ele>248</ele>
        <time>2016-11-28T11:14:09Z</time>
      </trkpt>
      <trkpt lat="45.98199" lon="4.81363">
        <ele>248</ele>
        <time>2016-11-28T11:14:10Z</time>
      </trkpt>
      <trkpt lat="45.98197" lon="4.81355">
        <ele>248</ele>
        <time>2016-11-28T11:14:11Z</time>
      </trkpt>
      <trkpt lat="45.98195" lon="4.81347">
        <ele>248</ele>
        <time>2016-11-28T11:14:12Z</time>
      </trkpt>
      <trkpt lat="45.98194" lon="4.81339">
        <ele>248</ele>
        <time>2016-11-28T11:14:13Z</time>
      </trkpt>
      <trkpt lat="45.98192" lon="4.81331">
        <ele>247</ele>
        <time>2016-11-28T11:14:14Z</time>
      </trkpt>
      <trkpt lat="45.9819" lon="4.81324">
        <ele>247</ele>
        <time>2016-11-28T11:14:15Z</time>
      </trkpt>
      <trkpt lat="45.98189" lon="4.81316">
        <ele>247</ele>
        <time>2016-11-28T11:14:16Z</time>
      </trkpt>
      <trkpt lat="45.98188" lon="4.81308">
        <ele>247</ele>
        <time>2016-11-28T11:14:17Z</time>
      </trkpt>
      <trkpt lat="45.98186" lon="4.81301">
        <ele>247</ele>
        <time>2016-11-28T11:14:18Z</time>
      </trkpt>
      <trkpt lat="45.98185" lon="4.81293">
        <ele>247</ele>
        <time>2016-11-28T11:14:19Z</time>
      </trkpt>
      <trkpt lat="45.98183" lon="4.81286">
        <ele>247</ele>
        <time>2016-11-28T11:14:20Z</time>
      </trkpt>
      <trkpt lat="45.98182" lon="4.81279">
        <ele>247</ele>
        <time>2016-11-28T11:14:21Z</time>
      </trkpt>
      <trkpt lat="45.9818" lon="4.81272">
        <ele>247</ele>
        <time>2016-11-28T11:14:22Z</time>
      </trkpt>
      <trkpt lat="45.98179" lon="4.81264">
        <ele>247</ele>
        <time>2016-11-28T11:14:23Z</time>
      </trkpt>
      <trkpt lat="45.98177" lon="4.81257">
        <ele>247</ele>
        <time>2016-11-28T11:14:24Z</time>
      </trkpt>
      <trkpt lat="45.98176" lon="4.8125">
        <ele>247</ele>
        <time>2016-11-28T11:14:25Z</time>
      </trkpt>
      <trkpt lat="45.98175" lon="4.81243">
        <ele>247</ele>
        <time>2016-11-28T11:14:26Z</time>
      </trkpt>
      <trkpt lat="45.98174" lon="4.81236">
        <ele>247</ele>
        <time>2016-11-28T11:14:27Z</time>
      </trkpt>
      <trkpt lat="45.98173" lon="4.81228">
        <ele>246</ele>
        <time>2016-11-28T11:14:28Z</time>
      </trkpt>
      <trkpt lat="45.98172" lon="4.81221">
        <ele>246</ele>
        <time>2016-11-28T11:14:29Z</time>
      </trkpt>
      <trkpt lat="45.98171" lon="4.81214">
        <ele>246</ele>
        <time>2016-11-28T11:14:30Z</time>
      </trkpt>
      <trkpt lat="45.9817" lon="4.81207">
        <ele>246</ele>
        <time>2016-11-28T11:14:31Z</time>
      </trkpt>
      <trkpt lat="45.98169" lon="4.81199">
        <ele>245</ele>
        <time>2016-11-28T11:14:32Z</time>
      </trkpt>
      <trkpt lat="45.98167" lon="4.81191">
        <ele>245</ele>
        <time>2016-11-28T11:14:33Z</time>
      </trkpt>
      <trkpt lat="45.98166" lon="4.81182">
        <ele>246</ele>
        <time>2016-11-28T11:14:34Z</time>
      </trkpt>
      <trkpt lat="45.98163" lon="4.81173">
        <ele>245</ele>
        <time>2016-11-28T11:14:35Z</time>
      </trkpt>
      <trkpt lat="45.98161" lon="4.81165">
        <ele>245</ele>
        <time>2016-11-28T11:14:36Z</time>
      </trkpt>
      <trkpt lat="45.98158" lon="4.81156">
        <ele>245</ele>
        <time>2016-11-28T11:14:37Z</time>
      </trkpt>
      <trkpt lat="45.98155" lon="4.81148">
        <ele>245</ele>
        <time>2016-11-28T11:14:38Z</time>
      </trkpt>
      <trkpt lat="45.98152" lon="4.81139">
        <ele>245</ele>
        <time>2016-11-28T11:14:39Z</time>
      </trkpt>
      <trkpt lat="45.98148" lon="4.81131">
        <ele>245</ele>
        <time>2016-11-28T11:14:40Z</time>
      </trkpt>
      <trkpt lat="45.98145" lon="4.81123">
        <ele>245</ele>
        <time>2016-11-28T11:14:41Z</time>
      </trkpt>
      <trkpt lat="45.98142" lon="4.81115">
        <ele>245</ele>
        <time>2016-11-28T11:14:42Z</time>
      </trkpt>
      <trkpt lat="45.98139" lon="4.81107">
        <ele>245</ele>
        <time>2016-11-28T11:14:43Z</time>
      </trkpt>
      <trkpt lat="45.98137" lon="4.81099">
        <ele>245</ele>
        <time>2016-11-28T11:14:44Z</time>
      </trkpt>
      <trkpt lat="45.98133" lon="4.81091">
        <ele>245</ele>
        <time>2016-11-28T11:14:45Z</time>
      </trkpt>
      <trkpt lat="45.9813" lon="4.81083">
        <ele>243</ele>
        <time>2016-11-28T11:14:46Z</time>
      </trkpt>
      <trkpt lat="45.98127" lon="4.81075">
        <ele>243</ele>
        <time>2016-11-28T11:14:47Z</time>
      </trkpt>
      <trkpt lat="45.98124" lon="4.81066">
        <ele>243</ele>
        <time>2016-11-28T11:14:48Z</time>
      </trkpt>
      <trkpt lat="45.98121" lon="4.81058">
        <ele>243</ele>
        <time>2016-11-28T11:14:49Z</time>
      </trkpt>
      <trkpt lat="45.98118" lon="4.81049">
        <ele>243</ele>
        <time>2016-11-28T11:14:50Z</time>
      </trkpt>
      <trkpt lat="45.98115" lon="4.8104">
        <ele>242</ele>
        <time>2016-11-28T11:14:51Z</time>
      </trkpt>
      <trkpt lat="45.98112" lon="4.81031">
        <ele>242</ele>
        <time>2016-11-28T11:14:52Z</time>
      </trkpt>
      <trkpt lat="45.98109" lon="4.81023">
        <ele>242</ele>
        <time>2016-11-28T11:14:53Z</time>
      </trkpt>
      <trkpt lat="45.98106" lon="4.81014">
        <ele>242</ele>
        <time>2016-11-28T11:14:54Z</time>
      </trkpt>
      <trkpt lat="45.98103" lon="4.81005">
        <ele>242</ele>
        <time>2016-11-28T11:14:55Z</time>
      </trkpt>
      <trkpt lat="45.981" lon="4.80997">
        <ele>240</ele>
        <time>2016-11-28T11:14:56Z</time>
      </trkpt>
      <trkpt lat="45.98097" lon="4.80989">
        <ele>240</ele>
        <time>2016-11-28T11:14:57Z</time>
      </trkpt>
      <trkpt lat="45.98095" lon="4.80982">
        <ele>239</ele>
        <time>2016-11-28T11:14:58Z</time>
      </trkpt>
      <trkpt lat="45.98093" lon="4.80974">
        <ele>239</ele>
        <time>2016-11-28T11:14:59Z</time>
      </trkpt>
      <trkpt lat="45.9809" lon="4.80965">
        <ele>239</ele>
        <time>2016-11-28T11:15:00Z</time>
      </trkpt>
      <trkpt lat="45.98088" lon="4.80955">
        <ele>238</ele>
        <time>2016-11-28T11:15:01Z</time>
      </trkpt>
      <trkpt lat="45.98085" lon="4.80944">
        <ele>238</ele>
        <time>2016-11-28T11:15:02Z</time>
      </trkpt>
      <trkpt lat="45.98083" lon="4.80934">
        <ele>240</ele>
        <time>2016-11-28T11:15:03Z</time>
      </trkpt>
      <trkpt lat="45.9808" lon="4.80923">
        <ele>239</ele>
        <time>2016-11-28T11:15:04Z</time>
      </trkpt>
      <trkpt lat="45.98077" lon="4.80911">
        <ele>238</ele>
        <time>2016-11-28T11:15:05Z</time>
      </trkpt>
      <trkpt lat="45.98074" lon="4.80899">
        <ele>238</ele>
        <time>2016-11-28T11:15:06Z</time>
      </trkpt>
      <trkpt lat="45.98071" lon="4.80887">
        <ele>237</ele>
        <time>2016-11-28T11:15:07Z</time>
      </trkpt>
      <trkpt lat="45.98068" lon="4.80875">
        <ele>237</ele>
        <time>2016-11-28T11:15:08Z</time>
      </trkpt>
      <trkpt lat="45.98065" lon="4.80863">
        <ele>237</ele>
        <time>2016-11-28T11:15:09Z</time>
      </trkpt>
      <trkpt lat="45.98062" lon="4.8085">
        <ele>236</ele>
        <time>2016-11-28T11:15:10Z</time>
      </trkpt>
      <trkpt lat="45.9806" lon="4.80838">
        <ele>236</ele>
        <time>2016-11-28T11:15:11Z</time>
      </trkpt>
      <trkpt lat="45.98057" lon="4.80827">
        <ele>234</ele>
        <time>2016-11-28T11:15:12Z</time>
      </trkpt>
      <trkpt lat="45.98054" lon="4.80816">
        <ele>234</ele>
        <time>2016-11-28T11:15:13Z</time>
      </trkpt>
      <trkpt lat="45.98052" lon="4.80805">
        <ele>234</ele>
        <time>2016-11-28T11:15:14Z</time>
      </trkpt>
      <trkpt lat="45.9805" lon="4.80795">
        <ele>233</ele>
        <time>2016-11-28T11:15:15Z</time>
      </trkpt>
      <trkpt lat="45.98048" lon="4.80784">
        <ele>233</ele>
        <time>2016-11-28T11:15:16Z</time>
      </trkpt>
      <trkpt lat="45.98046" lon="4.80774">
        <ele>233</ele>
        <time>2016-11-28T11:15:17Z</time>
      </trkpt>
      <trkpt lat="45.98044" lon="4.80765">
        <ele>233</ele>
        <time>2016-11-28T11:15:18Z</time>
      </trkpt>
      <trkpt lat="45.98041" lon="4.80755">
        <ele>233</ele>
        <time>2016-11-28T11:15:19Z</time>
      </trkpt>
      <trkpt lat="45.98039" lon="4.80746">
        <ele>231</ele>
        <time>2016-11-28T11:15:20Z</time>
      </trkpt>
      <trkpt lat="45.98037" lon="4.80738">
        <ele>231</ele>
        <time>2016-11-28T11:15:21Z</time>
      </trkpt>
      <trkpt lat="45.98036" lon="4.8073">
        <ele>231</ele>
        <time>2016-11-28T11:15:22Z</time>
      </trkpt>
      <trkpt lat="45.98034" lon="4.80723">
        <ele>231</ele>
        <time>2016-11-28T11:15:23Z</time>
      </trkpt>
      <trkpt lat="45.98033" lon="4.80717">
        <ele>231</ele>
        <time>2016-11-28T11:15:24Z</time>
      </trkpt>
      <trkpt lat="45.98033" lon="4.80705">
        <ele>231</ele>
        <time>2016-11-28T11:15:26Z</time>
      </trkpt>
      <trkpt lat="45.98035" lon="4.807">
        <ele>230</ele>
        <time>2016-11-28T11:15:27Z</time>
      </trkpt>
      <trkpt lat="45.98038" lon="4.80696">
        <ele>230</ele>
        <time>2016-11-28T11:15:28Z</time>
      </trkpt>
      <trkpt lat="45.98043" lon="4.80694">
        <ele>230</ele>
        <time>2016-11-28T11:15:29Z</time>
      </trkpt>
      <trkpt lat="45.98049" lon="4.80694">
        <ele>230</ele>
        <time>2016-11-28T11:15:30Z</time>
      </trkpt>
      <trkpt lat="45.98054" lon="4.80693">
        <ele>230</ele>
        <time>2016-11-28T11:15:31Z</time>
      </trkpt>
      <trkpt lat="45.9806" lon="4.80693">
        <ele>230</ele>
        <time>2016-11-28T11:15:32Z</time>
      </trkpt>
      <trkpt lat="45.98066" lon="4.80693">
        <ele>230</ele>
        <time>2016-11-28T11:15:33Z</time>
      </trkpt>
      <trkpt lat="45.98072" lon="4.80693">
        <ele>230</ele>
        <time>2016-11-28T11:15:34Z</time>
      </trkpt>
      <trkpt lat="45.98079" lon="4.80692">
        <ele>230</ele>
        <time>2016-11-28T11:15:35Z</time>
      </trkpt>
      <trkpt lat="45.98086" lon="4.80691">
        <ele>228</ele>
        <time>2016-11-28T11:15:36Z</time>
      </trkpt>
      <trkpt lat="45.98092" lon="4.80691">
        <ele>228</ele>
        <time>2016-11-28T11:15:37Z</time>
      </trkpt>
      <trkpt lat="45.98099" lon="4.80691">
        <ele>228</ele>
        <time>2016-11-28T11:15:38Z</time>
      </trkpt>
      <trkpt lat="45.98106" lon="4.80691">
        <ele>228</ele>
        <time>2016-11-28T11:15:39Z</time>
      </trkpt>
      <trkpt lat="45.98112" lon="4.80692">
        <ele>228</ele>
        <time>2016-11-28T11:15:40Z</time>
      </trkpt>
      <trkpt lat="45.98119" lon="4.80692">
        <ele>228</ele>
        <time>2016-11-28T11:15:41Z</time>
      </trkpt>
      <trkpt lat="45.98125" lon="4.80691">
        <ele>228</ele>
        <time>2016-11-28T11:15:42Z</time>
      </trkpt>
      <trkpt lat="45.98132" lon="4.80691">
        <ele>228</ele>
        <time>2016-11-28T11:15:43Z</time>
      </trkpt>
      <trkpt lat="45.98139" lon="4.80691">
        <ele>228</ele>
        <time>2016-11-28T11:15:44Z</time>
      </trkpt>
      <trkpt lat="45.98145" lon="4.80691">
        <ele>228</ele>
        <time>2016-11-28T11:15:45Z</time>
      </trkpt>
      <trkpt lat="45.98152" lon="4.80691">
        <ele>228</ele>
        <time>2016-11-28T11:15:46Z</time>
      </trkpt>
      <trkpt lat="45.98158" lon="4.80691">
        <ele>227</ele>
        <time>2016-11-28T11:15:47Z</time>
      </trkpt>
      <trkpt lat="45.98164" lon="4.80691">
        <ele>227</ele>
        <time>2016-11-28T11:15:48Z</time>
      </trkpt>
      <trkpt lat="45.9817" lon="4.8069">
        <ele>225</ele>
        <time>2016-11-28T11:15:49Z</time>
      </trkpt>
      <trkpt lat="45.98176" lon="4.80688">
        <ele>225</ele>
        <time>2016-11-28T11:15:50Z</time>
      </trkpt>
      <trkpt lat="45.98182" lon="4.80687">
        <ele>225</ele>
        <time>2016-11-28T11:15:51Z</time>
      </trkpt>
      <trkpt lat="45.98187" lon="4.80685">
        <ele>225</ele>
        <time>2016-11-28T11:15:52Z</time>
      </trkpt>
      <trkpt lat="45.98193" lon="4.80683">
        <ele>225</ele>
        <time>2016-11-28T11:15:53Z</time>
      </trkpt>
      <trkpt lat="45.98198" lon="4.80681">
        <ele>225</ele>
        <time>2016-11-28T11:15:54Z</time>
      </trkpt>
      <trkpt lat="45.98204" lon="4.80679">
        <ele>225</ele>
        <time>2016-11-28T11:15:55Z</time>
      </trkpt>
      <trkpt lat="45.98209" lon="4.80677">
        <ele>224</ele>
        <time>2016-11-28T11:15:56Z</time>
      </trkpt>
      <trkpt lat="45.98214" lon="4.80673">
        <ele>224</ele>
        <time>2016-11-28T11:15:57Z</time>
      </trkpt>
      <trkpt lat="45.98218" lon="4.80669">
        <ele>224</ele>
        <time>2016-11-28T11:15:58Z</time>
      </trkpt>
      <trkpt lat="45.98223" lon="4.80664">
        <ele>224</ele>
        <time>2016-11-28T11:15:59Z</time>
      </trkpt>
      <trkpt lat="45.98226" lon="4.80658">
        <ele>223</ele>
        <time>2016-11-28T11:16:00Z</time>
      </trkpt>
      <trkpt lat="45.9823" lon="4.8065">
        <ele>223</ele>
        <time>2016-11-28T11:16:01Z</time>
      </trkpt>
      <trkpt lat="45.98233" lon="4.80642">
        <ele>223</ele>
        <time>2016-11-28T11:16:02Z</time>
      </trkpt>
      <trkpt lat="45.98236" lon="4.80633">
        <ele>224</ele>
        <time>2016-11-28T11:16:03Z</time>
      </trkpt>
      <trkpt lat="45.98238" lon="4.80625">
        <ele>224</ele>
        <time>2016-11-28T11:16:04Z</time>
      </trkpt>
      <trkpt lat="45.98241" lon="4.80616">
        <ele>224</ele>
        <time>2016-11-28T11:16:05Z</time>
      </trkpt>
      <trkpt lat="45.98243" lon="4.80606">
        <ele>224</ele>
        <time>2016-11-28T11:16:06Z</time>
      </trkpt>
      <trkpt lat="45.98246" lon="4.80597">
        <ele>224</ele>
        <time>2016-11-28T11:16:07Z</time>
      </trkpt>
      <trkpt lat="45.98249" lon="4.80587">
        <ele>224</ele>
        <time>2016-11-28T11:16:08Z</time>
      </trkpt>
      <trkpt lat="45.98251" lon="4.80578">
        <ele>224</ele>
        <time>2016-11-28T11:16:09Z</time>
      </trkpt>
      <trkpt lat="45.98254" lon="4.80569">
        <ele>224</ele>
        <time>2016-11-28T11:16:10Z</time>
      </trkpt>
      <trkpt lat="45.98256" lon="4.8056">
        <ele>224</ele>
        <time>2016-11-28T11:16:11Z</time>
      </trkpt>
      <trkpt lat="45.98259" lon="4.80551">
        <ele>224</ele>
        <time>2016-11-28T11:16:12Z</time>
      </trkpt>
      <trkpt lat="45.98261" lon="4.80543">
        <ele>224</ele>
        <time>2016-11-28T11:16:13Z</time>
      </trkpt>
      <trkpt lat="45.98264" lon="4.80535">
        <ele>224</ele>
        <time>2016-11-28T11:16:14Z</time>
      </trkpt>
      <trkpt lat="45.98266" lon="4.80528">
        <ele>224</ele>
        <time>2016-11-28T11:16:15Z</time>
      </trkpt>
      <trkpt lat="45.98268" lon="4.80521">
        <ele>224</ele>
        <time>2016-11-28T11:16:16Z</time>
      </trkpt>
      <trkpt lat="45.9827" lon="4.80514">
        <ele>223</ele>
        <time>2016-11-28T11:16:17Z</time>
      </trkpt>
      <trkpt lat="45.98272" lon="4.80507">
        <ele>223</ele>
        <time>2016-11-28T11:16:18Z</time>
      </trkpt>
      <trkpt lat="45.98274" lon="4.805">
        <ele>223</ele>
        <time>2016-11-28T11:16:19Z</time>
      </trkpt>
      <trkpt lat="45.98275" lon="4.80493">
        <ele>223</ele>
        <time>2016-11-28T11:16:20Z</time>
      </trkpt>
      <trkpt lat="45.98277" lon="4.80486">
        <ele>223</ele>
        <time>2016-11-28T11:16:21Z</time>
      </trkpt>
      <trkpt lat="45.98279" lon="4.80478">
        <ele>223</ele>
        <time>2016-11-28T11:16:22Z</time>
      </trkpt>
      <trkpt lat="45.9828" lon="4.8047">
        <ele>223</ele>
        <time>2016-11-28T11:16:23Z</time>
      </trkpt>
      <trkpt lat="45.98281" lon="4.80461">
        <ele>223</ele>
        <time>2016-11-28T11:16:24Z</time>
      </trkpt>
      <trkpt lat="45.98283" lon="4.80452">
        <ele>223</ele>
        <time>2016-11-28T11:16:25Z</time>
      </trkpt>
      <trkpt lat="45.98285" lon="4.80444">
        <ele>224</ele>
        <time>2016-11-28T11:16:26Z</time>
      </trkpt>
      <trkpt lat="45.98287" lon="4.80436">
        <ele>224</ele>
        <time>2016-11-28T11:16:27Z</time>
      </trkpt>
      <trkpt lat="45.98288" lon="4.80427">
        <ele>224</ele>
        <time>2016-11-28T11:16:28Z</time>
      </trkpt>
      <trkpt lat="45.9829" lon="4.80419">
        <ele>224</ele>
        <time>2016-11-28T11:16:29Z</time>
      </trkpt>
      <trkpt lat="45.98292" lon="4.80412">
        <ele>224</ele>
        <time>2016-11-28T11:16:30Z</time>
      </trkpt>
      <trkpt lat="45.98293" lon="4.80405">
        <ele>224</ele>
        <time>2016-11-28T11:16:31Z</time>
      </trkpt>
      <trkpt lat="45.98295" lon="4.80399">
        <ele>224</ele>
        <time>2016-11-28T11:16:32Z</time>
      </trkpt>
      <trkpt lat="45.98297" lon="4.80392">
        <ele>224</ele>
        <time>2016-11-28T11:16:33Z</time>
      </trkpt>
      <trkpt lat="45.98301" lon="4.80382">
        <ele>225</ele>
        <time>2016-11-28T11:16:35Z</time>
      </trkpt>
      <trkpt lat="45.98302" lon="4.80376">
        <ele>225</ele>
        <time>2016-11-28T11:16:36Z</time>
      </trkpt>
      <trkpt lat="45.98303" lon="4.80369">
        <ele>225</ele>
        <time>2016-11-28T11:16:37Z</time>
      </trkpt>
      <trkpt lat="45.98305" lon="4.80363">
        <ele>225</ele>
        <time>2016-11-28T11:16:38Z</time>
      </trkpt>
      <trkpt lat="45.98306" lon="4.80356">
        <ele>225</ele>
        <time>2016-11-28T11:16:39Z</time>
      </trkpt>
      <trkpt lat="45.98307" lon="4.80349">
        <ele>226</ele>
        <time>2016-11-28T11:16:40Z</time>
      </trkpt>
      <trkpt lat="45.98309" lon="4.80342">
        <ele>226</ele>
        <time>2016-11-28T11:16:41Z</time>
      </trkpt>
      <trkpt lat="45.9831" lon="4.80334">
        <ele>226</ele>
        <time>2016-11-28T11:16:42Z</time>
      </trkpt>
      <trkpt lat="45.98312" lon="4.80327">
        <ele>227</ele>
        <time>2016-11-28T11:16:43Z</time>
      </trkpt>
      <trkpt lat="45.98314" lon="4.8032">
        <ele>227</ele>
        <time>2016-11-28T11:16:44Z</time>
      </trkpt>
      <trkpt lat="45.98316" lon="4.80313">
        <ele>227</ele>
        <time>2016-11-28T11:16:45Z</time>
      </trkpt>
      <trkpt lat="45.98318" lon="4.80306">
        <ele>227</ele>
        <time>2016-11-28T11:16:46Z</time>
      </trkpt>
      <trkpt lat="45.9832" lon="4.80301">
        <ele>227</ele>
        <time>2016-11-28T11:16:47Z</time>
      </trkpt>
      <trkpt lat="45.98322" lon="4.80294">
        <ele>227</ele>
        <time>2016-11-28T11:16:48Z</time>
      </trkpt>
      <trkpt lat="45.98324" lon="4.80282">
        <ele>227</ele>
        <time>2016-11-28T11:16:50Z</time>
      </trkpt>
      <trkpt lat="45.98325" lon="4.80277">
        <ele>227</ele>
        <time>2016-11-28T11:16:51Z</time>
      </trkpt>
      <trkpt lat="45.98327" lon="4.80267">
        <ele>228</ele>
        <time>2016-11-28T11:16:53Z</time>
      </trkpt>
      <trkpt lat="45.98328" lon="4.80263">
        <ele>228</ele>
        <time>2016-11-28T11:16:54Z</time>
      </trkpt>
      <trkpt lat="45.9833" lon="4.80254">
        <ele>229</ele>
        <time>2016-11-28T11:16:56Z</time>
      </trkpt>
      <trkpt lat="45.98331" lon="4.80249">
        <ele>230</ele>
        <time>2016-11-28T11:16:57Z</time>
      </trkpt>
      <trkpt lat="45.98332" lon="4.80238">
        <ele>228</ele>
        <time>2016-11-28T11:16:59Z</time>
      </trkpt>
      <trkpt lat="45.98333" lon="4.80232">
        <ele>228</ele>
        <time>2016-11-28T11:17:00Z</time>
      </trkpt>
      <trkpt lat="45.98333" lon="4.80221">
        <ele>227</ele>
        <time>2016-11-28T11:17:02Z</time>
      </trkpt>
      <trkpt lat="45.98332" lon="4.80216">
        <ele>227</ele>
        <time>2016-11-28T11:17:03Z</time>
      </trkpt>
      <trkpt lat="45.98328" lon="4.80206">
        <ele>227</ele>
        <time>2016-11-28T11:17:05Z</time>
      </trkpt>
      <trkpt lat="45.98326" lon="4.802">
        <ele>227</ele>
        <time>2016-11-28T11:17:06Z</time>
      </trkpt>
      <trkpt lat="45.98322" lon="4.80189">
        <ele>227</ele>
        <time>2016-11-28T11:17:08Z</time>
      </trkpt>
      <trkpt lat="45.9832" lon="4.80183">
        <ele>227</ele>
        <time>2016-11-28T11:17:09Z</time>
      </trkpt>
      <trkpt lat="45.98318" lon="4.80177">
        <ele>227</ele>
        <time>2016-11-28T11:17:10Z</time>
      </trkpt>
      <trkpt lat="45.98316" lon="4.8017">
        <ele>227</ele>
        <time>2016-11-28T11:17:11Z</time>
      </trkpt>
      <trkpt lat="45.98314" lon="4.80164">
        <ele>228</ele>
        <time>2016-11-28T11:17:12Z</time>
      </trkpt>
      <trkpt lat="45.98312" lon="4.80158">
        <ele>228</ele>
        <time>2016-11-28T11:17:13Z</time>
      </trkpt>
      <trkpt lat="45.9831" lon="4.80152">
        <ele>228</ele>
        <time>2016-11-28T11:17:14Z</time>
      </trkpt>
      <trkpt lat="45.98308" lon="4.80145">
        <ele>228</ele>
        <time>2016-11-28T11:17:15Z</time>
      </trkpt>
      <trkpt lat="45.98306" lon="4.80139">
        <ele>228</ele>
        <time>2016-11-28T11:17:16Z</time>
      </trkpt>
      <trkpt lat="45.98304" lon="4.80133">
        <ele>228</ele>
        <time>2016-11-28T11:17:17Z</time>
      </trkpt>
      <trkpt lat="45.983" lon="4.80122">
        <ele>228</ele>
        <time>2016-11-28T11:17:19Z</time>
      </trkpt>
      <trkpt lat="45.98298" lon="4.80116">
        <ele>228</ele>
        <time>2016-11-28T11:17:20Z</time>
      </trkpt>
      <trkpt lat="45.98295" lon="4.8011">
        <ele>228</ele>
        <time>2016-11-28T11:17:21Z</time>
      </trkpt>
      <trkpt lat="45.98293" lon="4.80105">
        <ele>228</ele>
        <time>2016-11-28T11:17:22Z</time>
      </trkpt>
      <trkpt lat="45.98289" lon="4.80093">
        <ele>228</ele>
        <time>2016-11-28T11:17:24Z</time>
      </trkpt>
      <trkpt lat="45.98287" lon="4.80087">
        <ele>228</ele>
        <time>2016-11-28T11:17:25Z</time>
      </trkpt>
      <trkpt lat="45.98285" lon="4.80081">
        <ele>229</ele>
        <time>2016-11-28T11:17:26Z</time>
      </trkpt>
      <trkpt lat="45.98282" lon="4.80076">
        <ele>229</ele>
        <time>2016-11-28T11:17:27Z</time>
      </trkpt>
      <trkpt lat="45.9828" lon="4.8007">
        <ele>229</ele>
        <time>2016-11-28T11:17:28Z</time>
      </trkpt>
      <trkpt lat="45.98278" lon="4.80064">
        <ele>229</ele>
        <time>2016-11-28T11:17:29Z</time>
      </trkpt>
      <trkpt lat="45.98275" lon="4.80057">
        <ele>229</ele>
        <time>2016-11-28T11:17:30Z</time>
      </trkpt>
      <trkpt lat="45.98273" lon="4.80051">
        <ele>229</ele>
        <time>2016-11-28T11:17:31Z</time>
      </trkpt>
      <trkpt lat="45.9827" lon="4.80045">
        <ele>229</ele>
        <time>2016-11-28T11:17:32Z</time>
      </trkpt>
      <trkpt lat="45.98267" lon="4.80038">
        <ele>229</ele>
        <time>2016-11-28T11:17:33Z</time>
      </trkpt>
      <trkpt lat="45.98265" lon="4.80031">
        <ele>228</ele>
        <time>2016-11-28T11:17:34Z</time>
      </trkpt>
      <trkpt lat="45.98262" lon="4.80024">
        <ele>228</ele>
        <time>2016-11-28T11:17:35Z</time>
      </trkpt>
      <trkpt lat="45.9826" lon="4.80017">
        <ele>228</ele>
        <time>2016-11-28T11:17:36Z</time>
      </trkpt>
      <trkpt lat="45.98257" lon="4.8001">
        <ele>227</ele>
        <time>2016-11-28T11:17:37Z</time>
      </trkpt>
      <trkpt lat="45.98255" lon="4.80003">
        <ele>227</ele>
        <time>2016-11-28T11:17:38Z</time>
      </trkpt>
      <trkpt lat="45.98253" lon="4.79996">
        <ele>227</ele>
        <time>2016-11-28T11:17:39Z</time>
      </trkpt>
      <trkpt lat="45.9825" lon="4.79989">
        <ele>227</ele>
        <time>2016-11-28T11:17:40Z</time>
      </trkpt>
      <trkpt lat="45.98248" lon="4.79982">
        <ele>225</ele>
        <time>2016-11-28T11:17:41Z</time>
      </trkpt>
      <trkpt lat="45.98246" lon="4.79976">
        <ele>225</ele>
        <time>2016-11-28T11:17:42Z</time>
      </trkpt>
      <trkpt lat="45.98244" lon="4.79969">
        <ele>225</ele>
        <time>2016-11-28T11:17:43Z</time>
      </trkpt>
      <trkpt lat="45.98242" lon="4.79963">
        <ele>225</ele>
        <time>2016-11-28T11:17:44Z</time>
      </trkpt>
      <trkpt lat="45.9824" lon="4.79957">
        <ele>225</ele>
        <time>2016-11-28T11:17:45Z</time>
      </trkpt>
      <trkpt lat="45.98236" lon="4.79947">
        <ele>225</ele>
        <time>2016-11-28T11:17:47Z</time>
      </trkpt>
      <trkpt lat="45.98235" lon="4.79941">
        <ele>225</ele>
        <time>2016-11-28T11:17:48Z</time>
      </trkpt>
      <trkpt lat="45.98233" lon="4.79934">
        <ele>225</ele>
        <time>2016-11-28T11:17:49Z</time>
      </trkpt>
      <trkpt lat="45.98232" lon="4.79927">
        <ele>225</ele>
        <time>2016-11-28T11:17:50Z</time>
      </trkpt>
      <trkpt lat="45.98231" lon="4.79921">
        <ele>225</ele>
        <time>2016-11-28T11:17:51Z</time>
      </trkpt>
      <trkpt lat="45.98227" lon="4.79913">
        <ele>225</ele>
        <time>2016-11-28T11:17:52Z</time>
      </trkpt>
      <trkpt lat="45.98225" lon="4.79906">
        <ele>225</ele>
        <time>2016-11-28T11:17:53Z</time>
      </trkpt>
      <trkpt lat="45.98223" lon="4.799">
        <ele>225</ele>
        <time>2016-11-28T11:17:54Z</time>
      </trkpt>
      <trkpt lat="45.9822" lon="4.79893">
        <ele>225</ele>
        <time>2016-11-28T11:17:55Z</time>
      </trkpt>
      <trkpt lat="45.98218" lon="4.79887">
        <ele>225</ele>
        <time>2016-11-28T11:17:56Z</time>
      </trkpt>
      <trkpt lat="45.98216" lon="4.79881">
        <ele>225</ele>
        <time>2016-11-28T11:17:57Z</time>
      </trkpt>
      <trkpt lat="45.98214" lon="4.79874">
        <ele>225</ele>
        <time>2016-11-28T11:17:58Z</time>
      </trkpt>
      <trkpt lat="45.98212" lon="4.79868">
        <ele>225</ele>
        <time>2016-11-28T11:17:59Z</time>
      </trkpt>
      <trkpt lat="45.98209" lon="4.79861">
        <ele>225</ele>
        <time>2016-11-28T11:18:00Z</time>
      </trkpt>
      <trkpt lat="45.98206" lon="4.79854">
        <ele>225</ele>
        <time>2016-11-28T11:18:01Z</time>
      </trkpt>
      <trkpt lat="45.98204" lon="4.79847">
        <ele>225</ele>
        <time>2016-11-28T11:18:02Z</time>
      </trkpt>
      <trkpt lat="45.98201" lon="4.7984">
        <ele>225</ele>
        <time>2016-11-28T11:18:03Z</time>
      </trkpt>
      <trkpt lat="45.98198" lon="4.79834">
        <ele>225</ele>
        <time>2016-11-28T11:18:04Z</time>
      </trkpt>
      <trkpt lat="45.98195" lon="4.79828">
        <ele>225</ele>
        <time>2016-11-28T11:18:05Z</time>
      </trkpt>
      <trkpt lat="45.98193" lon="4.79822">
        <ele>225</ele>
        <time>2016-11-28T11:18:06Z</time>
      </trkpt>
      <trkpt lat="45.98191" lon="4.79816">
        <ele>225</ele>
        <time>2016-11-28T11:18:07Z</time>
      </trkpt>
      <trkpt lat="45.98189" lon="4.7981">
        <ele>225</ele>
        <time>2016-11-28T11:18:08Z</time>
      </trkpt>
      <trkpt lat="45.98186" lon="4.79799">
        <ele>226</ele>
        <time>2016-11-28T11:18:10Z</time>
      </trkpt>
      <trkpt lat="45.98184" lon="4.79794">
        <ele>226</ele>
        <time>2016-11-28T11:18:11Z</time>
      </trkpt>
      <trkpt lat="45.98183" lon="4.79782">
        <ele>226</ele>
        <time>2016-11-28T11:18:14Z</time>
      </trkpt>
      <trkpt lat="45.98184" lon="4.79779">
        <ele>226</ele>
        <time>2016-11-28T11:18:15Z</time>
      </trkpt>
      <trkpt lat="45.98184" lon="4.79766">
        <ele>226</ele>
        <time>2016-11-28T11:18:19Z</time>
      </trkpt>
      <trkpt lat="45.98184" lon="4.79762">
        <ele>226</ele>
        <time>2016-11-28T11:18:20Z</time>
      </trkpt>
      <trkpt lat="45.98184" lon="4.79752">
        <ele>226</ele>
        <time>2016-11-28T11:18:22Z</time>
      </trkpt>
      <trkpt lat="45.98183" lon="4.79747">
        <ele>227</ele>
        <time>2016-11-28T11:18:23Z</time>
      </trkpt>
      <trkpt lat="45.98176" lon="4.7974">
        <ele>227</ele>
        <time>2016-11-28T11:18:25Z</time>
      </trkpt>
      <trkpt lat="45.98172" lon="4.79739">
        <ele>227</ele>
        <time>2016-11-28T11:18:26Z</time>
      </trkpt>
      <trkpt lat="45.98168" lon="4.7974">
        <ele>227</ele>
        <time>2016-11-28T11:18:27Z</time>
      </trkpt>
      <trkpt lat="45.98163" lon="4.79743">
        <ele>226</ele>
        <time>2016-11-28T11:18:28Z</time>
      </trkpt>
      <trkpt lat="45.98158" lon="4.79747">
        <ele>226</ele>
        <time>2016-11-28T11:18:29Z</time>
      </trkpt>
      <trkpt lat="45.98152" lon="4.7975">
        <ele>225</ele>
        <time>2016-11-28T11:18:30Z</time>
      </trkpt>
      <trkpt lat="45.98146" lon="4.79753">
        <ele>225</ele>
        <time>2016-11-28T11:18:31Z</time>
      </trkpt>
      <trkpt lat="45.9814" lon="4.79755">
        <ele>224</ele>
        <time>2016-11-28T11:18:32Z</time>
      </trkpt>
      <trkpt lat="45.98133" lon="4.79756">
        <ele>224</ele>
        <time>2016-11-28T11:18:33Z</time>
      </trkpt>
      <trkpt lat="45.98127" lon="4.79757">
        <ele>224</ele>
        <time>2016-11-28T11:18:34Z</time>
      </trkpt>
      <trkpt lat="45.9812" lon="4.79758">
        <ele>224</ele>
        <time>2016-11-28T11:18:35Z</time>
      </trkpt>
      <trkpt lat="45.98112" lon="4.79759">
        <ele>224</ele>
        <time>2016-11-28T11:18:36Z</time>
      </trkpt>
      <trkpt lat="45.98105" lon="4.7976">
        <ele>224</ele>
        <time>2016-11-28T11:18:37Z</time>
      </trkpt>
      <trkpt lat="45.98097" lon="4.79762">
        <ele>223</ele>
        <time>2016-11-28T11:18:38Z</time>
      </trkpt>
      <trkpt lat="45.98089" lon="4.79763">
        <ele>223</ele>
        <time>2016-11-28T11:18:39Z</time>
      </trkpt>
      <trkpt lat="45.98081" lon="4.79764">
        <ele>223</ele>
        <time>2016-11-28T11:18:40Z</time>
      </trkpt>
      <trkpt lat="45.98072" lon="4.79765">
        <ele>223</ele>
        <time>2016-11-28T11:18:41Z</time>
      </trkpt>
      <trkpt lat="45.98064" lon="4.79766">
        <ele>223</ele>
        <time>2016-11-28T11:18:42Z</time>
      </trkpt>
      <trkpt lat="45.98056" lon="4.79768">
        <ele>223</ele>
        <time>2016-11-28T11:18:43Z</time>
      </trkpt>
      <trkpt lat="45.98047" lon="4.79769">
        <ele>223</ele>
        <time>2016-11-28T11:18:44Z</time>
      </trkpt>
      <trkpt lat="45.98039" lon="4.7977">
        <ele>223</ele>
        <time>2016-11-28T11:18:45Z</time>
      </trkpt>
      <trkpt lat="45.98031" lon="4.79771">
        <ele>223</ele>
        <time>2016-11-28T11:18:46Z</time>
      </trkpt>
      <trkpt lat="45.98023" lon="4.79772">
        <ele>223</ele>
        <time>2016-11-28T11:18:47Z</time>
      </trkpt>
      <trkpt lat="45.98015" lon="4.79773">
        <ele>223</ele>
        <time>2016-11-28T11:18:48Z</time>
      </trkpt>
      <trkpt lat="45.98007" lon="4.79774">
        <ele>223</ele>
        <time>2016-11-28T11:18:49Z</time>
      </trkpt>
      <trkpt lat="45.97999" lon="4.79775">
        <ele>224</ele>
        <time>2016-11-28T11:18:50Z</time>
      </trkpt>
      <trkpt lat="45.97991" lon="4.79776">
        <ele>224</ele>
        <time>2016-11-28T11:18:51Z</time>
      </trkpt>
      <trkpt lat="45.97984" lon="4.79777">
        <ele>224</ele>
        <time>2016-11-28T11:18:52Z</time>
      </trkpt>
      <trkpt lat="45.97976" lon="4.79778">
        <ele>224</ele>
        <time>2016-11-28T11:18:53Z</time>
      </trkpt>
      <trkpt lat="45.97968" lon="4.79779">
        <ele>224</ele>
        <time>2016-11-28T11:18:54Z</time>
      </trkpt>
      <trkpt lat="45.97961" lon="4.79781">
        <ele>224</ele>
        <time>2016-11-28T11:18:55Z</time>
      </trkpt>
      <trkpt lat="45.97954" lon="4.79782">
        <ele>224</ele>
        <time>2016-11-28T11:18:56Z</time>
      </trkpt>
      <trkpt lat="45.97948" lon="4.79783">
        <ele>224</ele>
        <time>2016-11-28T11:18:57Z</time>
      </trkpt>
      <trkpt lat="45.97941" lon="4.79784">
        <ele>224</ele>
        <time>2016-11-28T11:18:58Z</time>
      </trkpt>
      <trkpt lat="45.97934" lon="4.79785">
        <ele>224</ele>
        <time>2016-11-28T11:18:59Z</time>
      </trkpt>
      <trkpt lat="45.97927" lon="4.79786">
        <ele>225</ele>
        <time>2016-11-28T11:19:00Z</time>
      </trkpt>
      <trkpt lat="45.9792" lon="4.79787">
        <ele>225</ele>
        <time>2016-11-28T11:19:01Z</time>
      </trkpt>
      <trkpt lat="45.97913" lon="4.79788">
        <ele>225</ele>
        <time>2016-11-28T11:19:02Z</time>
      </trkpt>
      <trkpt lat="45.97906" lon="4.79789">
        <ele>225</ele>
        <time>2016-11-28T11:19:03Z</time>
      </trkpt>
      <trkpt lat="45.97899" lon="4.7979">
        <ele>225</ele>
        <time>2016-11-28T11:19:04Z</time>
      </trkpt>
      <trkpt lat="45.97891" lon="4.79791">
        <ele>224</ele>
        <time>2016-11-28T11:19:05Z</time>
      </trkpt>
      <trkpt lat="45.97884" lon="4.79792">
        <ele>224</ele>
        <time>2016-11-28T11:19:06Z</time>
      </trkpt>
      <trkpt lat="45.97876" lon="4.79792">
        <ele>224</ele>
        <time>2016-11-28T11:19:07Z</time>
      </trkpt>
      <trkpt lat="45.97869" lon="4.79794">
        <ele>224</ele>
        <time>2016-11-28T11:19:08Z</time>
      </trkpt>
      <trkpt lat="45.97861" lon="4.79795">
        <ele>224</ele>
        <time>2016-11-28T11:19:09Z</time>
      </trkpt>
      <trkpt lat="45.97853" lon="4.79796">
        <ele>224</ele>
        <time>2016-11-28T11:19:10Z</time>
      </trkpt>
      <trkpt lat="45.97846" lon="4.79796">
        <ele>224</ele>
        <time>2016-11-28T11:19:11Z</time>
      </trkpt>
      <trkpt lat="45.97839" lon="4.79798">
        <ele>224</ele>
        <time>2016-11-28T11:19:12Z</time>
      </trkpt>
      <trkpt lat="45.97832" lon="4.79799">
        <ele>223</ele>
        <time>2016-11-28T11:19:13Z</time>
      </trkpt>
      <trkpt lat="45.97825" lon="4.798">
        <ele>223</ele>
        <time>2016-11-28T11:19:14Z</time>
      </trkpt>
      <trkpt lat="45.97818" lon="4.79801">
        <ele>223</ele>
        <time>2016-11-28T11:19:15Z</time>
      </trkpt>
      <trkpt lat="45.97811" lon="4.79802">
        <ele>223</ele>
        <time>2016-11-28T11:19:16Z</time>
      </trkpt>
      <trkpt lat="45.97804" lon="4.79803">
        <ele>223</ele>
        <time>2016-11-28T11:19:17Z</time>
      </trkpt>
      <trkpt lat="45.97797" lon="4.79804">
        <ele>223</ele>
        <time>2016-11-28T11:19:18Z</time>
      </trkpt>
      <trkpt lat="45.9779" lon="4.79805">
        <ele>223</ele>
        <time>2016-11-28T11:19:19Z</time>
      </trkpt>
      <trkpt lat="45.97784" lon="4.79806">
        <ele>223</ele>
        <time>2016-11-28T11:19:20Z</time>
      </trkpt>
      <trkpt lat="45.97777" lon="4.79807">
        <ele>223</ele>
        <time>2016-11-28T11:19:21Z</time>
      </trkpt>
      <trkpt lat="45.9777" lon="4.79808">
        <ele>223</ele>
        <time>2016-11-28T11:19:22Z</time>
      </trkpt>
      <trkpt lat="45.97764" lon="4.79809">
        <ele>223</ele>
        <time>2016-11-28T11:19:23Z</time>
      </trkpt>
      <trkpt lat="45.97757" lon="4.79811">
        <ele>223</ele>
        <time>2016-11-28T11:19:24Z</time>
      </trkpt>
      <trkpt lat="45.97751" lon="4.79812">
        <ele>223</ele>
        <time>2016-11-28T11:19:25Z</time>
      </trkpt>
      <trkpt lat="45.97744" lon="4.79813">
        <ele>223</ele>
        <time>2016-11-28T11:19:26Z</time>
      </trkpt>
      <trkpt lat="45.97738" lon="4.79814">
        <ele>223</ele>
        <time>2016-11-28T11:19:27Z</time>
      </trkpt>
      <trkpt lat="45.97731" lon="4.79815">
        <ele>223</ele>
        <time>2016-11-28T11:19:28Z</time>
      </trkpt>
      <trkpt lat="45.97725" lon="4.79817">
        <ele>223</ele>
        <time>2016-11-28T11:19:29Z</time>
      </trkpt>
      <trkpt lat="45.97718" lon="4.79818">
        <ele>223</ele>
        <time>2016-11-28T11:19:30Z</time>
      </trkpt>
      <trkpt lat="45.97712" lon="4.7982">
        <ele>223</ele>
        <time>2016-11-28T11:19:31Z</time>
      </trkpt>
      <trkpt lat="45.97705" lon="4.79821">
        <ele>223</ele>
        <time>2016-11-28T11:19:32Z</time>
      </trkpt>
      <trkpt lat="45.97698" lon="4.79823">
        <ele>223</ele>
        <time>2016-11-28T11:19:33Z</time>
      </trkpt>
      <trkpt lat="45.97691" lon="4.79824">
        <ele>223</ele>
        <time>2016-11-28T11:19:34Z</time>
      </trkpt>
      <trkpt lat="45.97684" lon="4.79826">
        <ele>223</ele>
        <time>2016-11-28T11:19:35Z</time>
      </trkpt>
      <trkpt lat="45.97677" lon="4.79828">
        <ele>223</ele>
        <time>2016-11-28T11:19:36Z</time>
      </trkpt>
      <trkpt lat="45.9767" lon="4.7983">
        <ele>222</ele>
        <time>2016-11-28T11:19:37Z</time>
      </trkpt>
      <trkpt lat="45.97663" lon="4.79832">
        <ele>222</ele>
        <time>2016-11-28T11:19:38Z</time>
      </trkpt>
      <trkpt lat="45.97656" lon="4.79834">
        <ele>221</ele>
        <time>2016-11-28T11:19:39Z</time>
      </trkpt>
      <trkpt lat="45.97649" lon="4.79836">
        <ele>221</ele>
        <time>2016-11-28T11:19:40Z</time>
      </trkpt>
      <trkpt lat="45.97643" lon="4.79838">
        <ele>221</ele>
        <time>2016-11-28T11:19:41Z</time>
      </trkpt>
      <trkpt lat="45.97636" lon="4.7984">
        <ele>221</ele>
        <time>2016-11-28T11:19:42Z</time>
      </trkpt>
      <trkpt lat="45.9763" lon="4.79842">
        <ele>221</ele>
        <time>2016-11-28T11:19:43Z</time>
      </trkpt>
      <trkpt lat="45.97623" lon="4.79844">
        <ele>221</ele>
        <time>2016-11-28T11:19:44Z</time>
      </trkpt>
      <trkpt lat="45.97617" lon="4.79847">
        <ele>221</ele>
        <time>2016-11-28T11:19:45Z</time>
      </trkpt>
      <trkpt lat="45.97611" lon="4.7985">
        <ele>221</ele>
        <time>2016-11-28T11:19:46Z</time>
      </trkpt>
      <trkpt lat="45.97605" lon="4.79852">
        <ele>221</ele>
        <time>2016-11-28T11:19:47Z</time>
      </trkpt>
      <trkpt lat="45.97599" lon="4.79855">
        <ele>221</ele>
        <time>2016-11-28T11:19:48Z</time>
      </trkpt>
      <trkpt lat="45.97592" lon="4.79858">
        <ele>221</ele>
        <time>2016-11-28T11:19:49Z</time>
      </trkpt>
      <trkpt lat="45.97586" lon="4.79861">
        <ele>221</ele>
        <time>2016-11-28T11:19:50Z</time>
      </trkpt>
      <trkpt lat="45.97579" lon="4.79863">
        <ele>222</ele>
        <time>2016-11-28T11:19:51Z</time>
      </trkpt>
      <trkpt lat="45.97572" lon="4.79865">
        <ele>222</ele>
        <time>2016-11-28T11:19:52Z</time>
      </trkpt>
      <trkpt lat="45.97565" lon="4.79867">
        <ele>222</ele>
        <time>2016-11-28T11:19:53Z</time>
      </trkpt>
      <trkpt lat="45.97558" lon="4.79869">
        <ele>222</ele>
        <time>2016-11-28T11:19:54Z</time>
      </trkpt>
      <trkpt lat="45.9755" lon="4.79872">
        <ele>222</ele>
        <time>2016-11-28T11:19:55Z</time>
      </trkpt>
      <trkpt lat="45.97543" lon="4.79874">
        <ele>222</ele>
        <time>2016-11-28T11:19:56Z</time>
      </trkpt>
      <trkpt lat="45.97535" lon="4.79875">
        <ele>222</ele>
        <time>2016-11-28T11:19:57Z</time>
      </trkpt>
      <trkpt lat="45.97527" lon="4.79876">
        <ele>222</ele>
        <time>2016-11-28T11:19:58Z</time>
      </trkpt>
      <trkpt lat="45.97519" lon="4.79877">
        <ele>222</ele>
        <time>2016-11-28T11:19:59Z</time>
      </trkpt>
      <trkpt lat="45.9751" lon="4.79878">
        <ele>222</ele>
        <time>2016-11-28T11:20:00Z</time>
      </trkpt>
      <trkpt lat="45.97502" lon="4.79879">
        <ele>222</ele>
        <time>2016-11-28T11:20:01Z</time>
      </trkpt>
      <trkpt lat="45.97493" lon="4.7988">
        <ele>221</ele>
        <time>2016-11-28T11:20:02Z</time>
      </trkpt>
      <trkpt lat="45.97483" lon="4.79881">
        <ele>221</ele>
        <time>2016-11-28T11:20:03Z</time>
      </trkpt>
      <trkpt lat="45.97474" lon="4.79881">
        <ele>221</ele>
        <time>2016-11-28T11:20:04Z</time>
      </trkpt>
      <trkpt lat="45.97464" lon="4.79881">
        <ele>221</ele>
        <time>2016-11-28T11:20:05Z</time>
      </trkpt>
      <trkpt lat="45.97455" lon="4.79881">
        <ele>221</ele>
        <time>2016-11-28T11:20:06Z</time>
      </trkpt>
      <trkpt lat="45.97445" lon="4.79882">
        <ele>221</ele>
        <time>2016-11-28T11:20:07Z</time>
      </trkpt>
      <trkpt lat="45.97436" lon="4.79882">
        <ele>221</ele>
        <time>2016-11-28T11:20:08Z</time>
      </trkpt>
      <trkpt lat="45.97426" lon="4.79883">
        <ele>220</ele>
        <time>2016-11-28T11:20:09Z</time>
      </trkpt>
      <trkpt lat="45.97417" lon="4.79884">
        <ele>218</ele>
        <time>2016-11-28T11:20:10Z</time>
      </trkpt>
      <trkpt lat="45.97407" lon="4.79886">
        <ele>218</ele>
        <time>2016-11-28T11:20:11Z</time>
      </trkpt>
      <trkpt lat="45.97398" lon="4.79887">
        <ele>218</ele>
        <time>2016-11-28T11:20:12Z</time>
      </trkpt>
      <trkpt lat="45.97389" lon="4.79889">
        <ele>217</ele>
        <time>2016-11-28T11:20:13Z</time>
      </trkpt>
      <trkpt lat="45.97379" lon="4.79891">
        <ele>217</ele>
        <time>2016-11-28T11:20:14Z</time>
      </trkpt>
      <trkpt lat="45.9737" lon="4.79894">
        <ele>217</ele>
        <time>2016-11-28T11:20:15Z</time>
      </trkpt>
      <trkpt lat="45.9736" lon="4.79896">
        <ele>216</ele>
        <time>2016-11-28T11:20:16Z</time>
      </trkpt>
      <trkpt lat="45.9735" lon="4.79897">
        <ele>216</ele>
        <time>2016-11-28T11:20:17Z</time>
      </trkpt>
      <trkpt lat="45.9734" lon="4.79899">
        <ele>215</ele>
        <time>2016-11-28T11:20:18Z</time>
      </trkpt>
      <trkpt lat="45.97329" lon="4.79901">
        <ele>214</ele>
        <time>2016-11-28T11:20:19Z</time>
      </trkpt>
      <trkpt lat="45.9732" lon="4.79903">
        <ele>214</ele>
        <time>2016-11-28T11:20:20Z</time>
      </trkpt>
      <trkpt lat="45.9731" lon="4.79905">
        <ele>214</ele>
        <time>2016-11-28T11:20:21Z</time>
      </trkpt>
      <trkpt lat="45.97301" lon="4.79907">
        <ele>213</ele>
        <time>2016-11-28T11:20:22Z</time>
      </trkpt>
      <trkpt lat="45.97293" lon="4.79908">
        <ele>213</ele>
        <time>2016-11-28T11:20:23Z</time>
      </trkpt>
      <trkpt lat="45.97285" lon="4.79909">
        <ele>213</ele>
        <time>2016-11-28T11:20:24Z</time>
      </trkpt>
      <trkpt lat="45.97277" lon="4.79911">
        <ele>213</ele>
        <time>2016-11-28T11:20:25Z</time>
      </trkpt>
      <trkpt lat="45.97271" lon="4.79911">
        <ele>213</ele>
        <time>2016-11-28T11:20:26Z</time>
      </trkpt>
      <trkpt lat="45.97265" lon="4.79912">
        <ele>213</ele>
        <time>2016-11-28T11:20:27Z</time>
      </trkpt>
      <trkpt lat="45.9726" lon="4.79912">
        <ele>213</ele>
        <time>2016-11-28T11:20:28Z</time>
      </trkpt>
      <trkpt lat="45.97255" lon="4.7991">
        <ele>212</ele>
        <time>2016-11-28T11:20:29Z</time>
      </trkpt>
      <trkpt lat="45.9725" lon="4.799">
        <ele>211</ele>
        <time>2016-11-28T11:20:31Z</time>
      </trkpt>
      <trkpt lat="45.97249" lon="4.79893">
        <ele>211</ele>
        <time>2016-11-28T11:20:32Z</time>
      </trkpt>
      <trkpt lat="45.97247" lon="4.79886">
        <ele>211</ele>
        <time>2016-11-28T11:20:33Z</time>
      </trkpt>
      <trkpt lat="45.97245" lon="4.7988">
        <ele>211</ele>
        <time>2016-11-28T11:20:34Z</time>
      </trkpt>
      <trkpt lat="45.97242" lon="4.79872">
        <ele>211</ele>
        <time>2016-11-28T11:20:35Z</time>
      </trkpt>
      <trkpt lat="45.97239" lon="4.79863">
        <ele>211</ele>
        <time>2016-11-28T11:20:36Z</time>
      </trkpt>
      <trkpt lat="45.97237" lon="4.79855">
        <ele>211</ele>
        <time>2016-11-28T11:20:37Z</time>
      </trkpt>
      <trkpt lat="45.97236" lon="4.79846">
        <ele>211</ele>
        <time>2016-11-28T11:20:38Z</time>
      </trkpt>
      <trkpt lat="45.97236" lon="4.79838">
        <ele>211</ele>
        <time>2016-11-28T11:20:39Z</time>
      </trkpt>
      <trkpt lat="45.97236" lon="4.79829">
        <ele>211</ele>
        <time>2016-11-28T11:20:40Z</time>
      </trkpt>
      <trkpt lat="45.97236" lon="4.79821">
        <ele>211</ele>
        <time>2016-11-28T11:20:41Z</time>
      </trkpt>
      <trkpt lat="45.97237" lon="4.79813">
        <ele>211</ele>
        <time>2016-11-28T11:20:42Z</time>
      </trkpt>
      <trkpt lat="45.97237" lon="4.79804">
        <ele>210</ele>
        <time>2016-11-28T11:20:43Z</time>
      </trkpt>
      <trkpt lat="45.97238" lon="4.79796">
        <ele>210</ele>
        <time>2016-11-28T11:20:44Z</time>
      </trkpt>
      <trkpt lat="45.97239" lon="4.79787">
        <ele>210</ele>
        <time>2016-11-28T11:20:45Z</time>
      </trkpt>
      <trkpt lat="45.9724" lon="4.79778">
        <ele>210</ele>
        <time>2016-11-28T11:20:46Z</time>
      </trkpt>
      <trkpt lat="45.97241" lon="4.7977">
        <ele>210</ele>
        <time>2016-11-28T11:20:47Z</time>
      </trkpt>
      <trkpt lat="45.97242" lon="4.79761">
        <ele>209</ele>
        <time>2016-11-28T11:20:48Z</time>
      </trkpt>
      <trkpt lat="45.97243" lon="4.79753">
        <ele>209</ele>
        <time>2016-11-28T11:20:49Z</time>
      </trkpt>
      <trkpt lat="45.97243" lon="4.79745">
        <ele>209</ele>
        <time>2016-11-28T11:20:50Z</time>
      </trkpt>
      <trkpt lat="45.97244" lon="4.79737">
        <ele>209</ele>
        <time>2016-11-28T11:20:51Z</time>
      </trkpt>
      <trkpt lat="45.97245" lon="4.7973">
        <ele>209</ele>
        <time>2016-11-28T11:20:52Z</time>
      </trkpt>
      <trkpt lat="45.97246" lon="4.79722">
        <ele>209</ele>
        <time>2016-11-28T11:20:53Z</time>
      </trkpt>
      <trkpt lat="45.97248" lon="4.79715">
        <ele>209</ele>
        <time>2016-11-28T11:20:54Z</time>
      </trkpt>
      <trkpt lat="45.97249" lon="4.79707">
        <ele>208</ele>
        <time>2016-11-28T11:20:55Z</time>
      </trkpt>
      <trkpt lat="45.9725" lon="4.79699">
        <ele>208</ele>
        <time>2016-11-28T11:20:56Z</time>
      </trkpt>
      <trkpt lat="45.97252" lon="4.7969">
        <ele>211</ele>
        <time>2016-11-28T11:20:57Z</time>
      </trkpt>
      <trkpt lat="45.97254" lon="4.79682">
        <ele>211</ele>
        <time>2016-11-28T11:20:58Z</time>
      </trkpt>
      <trkpt lat="45.97254" lon="4.79674">
        <ele>210</ele>
        <time>2016-11-28T11:20:59Z</time>
      </trkpt>
      <trkpt lat="45.97255" lon="4.79666">
        <ele>209</ele>
        <time>2016-11-28T11:21:00Z</time>
      </trkpt>
      <trkpt lat="45.97256" lon="4.79658">
        <ele>210</ele>
        <time>2016-11-28T11:21:01Z</time>
      </trkpt>
      <trkpt lat="45.97256" lon="4.79651">
        <ele>211</ele>
        <time>2016-11-28T11:21:02Z</time>
      </trkpt>
      <trkpt lat="45.97257" lon="4.79644">
        <ele>212</ele>
        <time>2016-11-28T11:21:03Z</time>
      </trkpt>
      <trkpt lat="45.97258" lon="4.79636">
        <ele>213</ele>
        <time>2016-11-28T11:21:04Z</time>
      </trkpt>
      <trkpt lat="45.97258" lon="4.79628">
        <ele>213</ele>
        <time>2016-11-28T11:21:05Z</time>
      </trkpt>
      <trkpt lat="45.97257" lon="4.7962">
        <ele>213</ele>
        <time>2016-11-28T11:21:06Z</time>
      </trkpt>
      <trkpt lat="45.97257" lon="4.79612">
        <ele>213</ele>
        <time>2016-11-28T11:21:07Z</time>
      </trkpt>
      <trkpt lat="45.97257" lon="4.79603">
        <ele>213</ele>
        <time>2016-11-28T11:21:08Z</time>
      </trkpt>
      <trkpt lat="45.97257" lon="4.79595">
        <ele>212</ele>
        <time>2016-11-28T11:21:09Z</time>
      </trkpt>
      <trkpt lat="45.97257" lon="4.79587">
        <ele>211</ele>
        <time>2016-11-28T11:21:10Z</time>
      </trkpt>
      <trkpt lat="45.97257" lon="4.79579">
        <ele>212</ele>
        <time>2016-11-28T11:21:11Z</time>
      </trkpt>
      <trkpt lat="45.97257" lon="4.79573">
        <ele>212</ele>
        <time>2016-11-28T11:21:12Z</time>
      </trkpt>
      <trkpt lat="45.97257" lon="4.79566">
        <ele>213</ele>
        <time>2016-11-28T11:21:13Z</time>
      </trkpt>
      <trkpt lat="45.97256" lon="4.79559">
        <ele>213</ele>
        <time>2016-11-28T11:21:14Z</time>
      </trkpt>
      <trkpt lat="45.97255" lon="4.79553">
        <ele>214</ele>
        <time>2016-11-28T11:21:15Z</time>
      </trkpt>
      <trkpt lat="45.97254" lon="4.79546">
        <ele>214</ele>
        <time>2016-11-28T11:21:16Z</time>
      </trkpt>
      <trkpt lat="45.97253" lon="4.79539">
        <ele>214</ele>
        <time>2016-11-28T11:21:17Z</time>
      </trkpt>
      <trkpt lat="45.97252" lon="4.79532">
        <ele>214</ele>
        <time>2016-11-28T11:21:18Z</time>
      </trkpt>
      <trkpt lat="45.97251" lon="4.79525">
        <ele>214</ele>
        <time>2016-11-28T11:21:19Z</time>
      </trkpt>
      <trkpt lat="45.9725" lon="4.79517">
        <ele>210</ele>
        <time>2016-11-28T11:21:20Z</time>
      </trkpt>
      <trkpt lat="45.97249" lon="4.79511">
        <ele>210</ele>
        <time>2016-11-28T11:21:21Z</time>
      </trkpt>
      <trkpt lat="45.97247" lon="4.79504">
        <ele>211</ele>
        <time>2016-11-28T11:21:22Z</time>
      </trkpt>
      <trkpt lat="45.97245" lon="4.79497">
        <ele>210</ele>
        <time>2016-11-28T11:21:23Z</time>
      </trkpt>
      <trkpt lat="45.97244" lon="4.7949">
        <ele>210</ele>
        <time>2016-11-28T11:21:24Z</time>
      </trkpt>
      <trkpt lat="45.97242" lon="4.79484">
        <ele>210</ele>
        <time>2016-11-28T11:21:25Z</time>
      </trkpt>
      <trkpt lat="45.97241" lon="4.79477">
        <ele>209</ele>
        <time>2016-11-28T11:21:26Z</time>
      </trkpt>
      <trkpt lat="45.97239" lon="4.7947">
        <ele>209</ele>
        <time>2016-11-28T11:21:27Z</time>
      </trkpt>
      <trkpt lat="45.97236" lon="4.79464">
        <ele>209</ele>
        <time>2016-11-28T11:21:28Z</time>
      </trkpt>
      <trkpt lat="45.97234" lon="4.79458">
        <ele>209</ele>
        <time>2016-11-28T11:21:29Z</time>
      </trkpt>
      <trkpt lat="45.97232" lon="4.79451">
        <ele>209</ele>
        <time>2016-11-28T11:21:30Z</time>
      </trkpt>
      <trkpt lat="45.9723" lon="4.79445">
        <ele>209</ele>
        <time>2016-11-28T11:21:31Z</time>
      </trkpt>
      <trkpt lat="45.97228" lon="4.79439">
        <ele>209</ele>
        <time>2016-11-28T11:21:32Z</time>
      </trkpt>
      <trkpt lat="45.97225" lon="4.79432">
        <ele>209</ele>
        <time>2016-11-28T11:21:33Z</time>
      </trkpt>
      <trkpt lat="45.97222" lon="4.79426">
        <ele>209</ele>
        <time>2016-11-28T11:21:34Z</time>
      </trkpt>
      <trkpt lat="45.9722" lon="4.7942">
        <ele>208</ele>
        <time>2016-11-28T11:21:35Z</time>
      </trkpt>
      <trkpt lat="45.97217" lon="4.79413">
        <ele>208</ele>
        <time>2016-11-28T11:21:36Z</time>
      </trkpt>
      <trkpt lat="45.97214" lon="4.79407">
        <ele>208</ele>
        <time>2016-11-28T11:21:37Z</time>
      </trkpt>
      <trkpt lat="45.97211" lon="4.79401">
        <ele>208</ele>
        <time>2016-11-28T11:21:38Z</time>
      </trkpt>
      <trkpt lat="45.97209" lon="4.79394">
        <ele>208</ele>
        <time>2016-11-28T11:21:39Z</time>
      </trkpt>
      <trkpt lat="45.97206" lon="4.79388">
        <ele>208</ele>
        <time>2016-11-28T11:21:40Z</time>
      </trkpt>
      <trkpt lat="45.97204" lon="4.79382">
        <ele>208</ele>
        <time>2016-11-28T11:21:41Z</time>
      </trkpt>
      <trkpt lat="45.97201" lon="4.79376">
        <ele>208</ele>
        <time>2016-11-28T11:21:42Z</time>
      </trkpt>
      <trkpt lat="45.97199" lon="4.79369">
        <ele>207</ele>
        <time>2016-11-28T11:21:43Z</time>
      </trkpt>
      <trkpt lat="45.97197" lon="4.79364">
        <ele>207</ele>
        <time>2016-11-28T11:21:44Z</time>
      </trkpt>
      <trkpt lat="45.97194" lon="4.79357">
        <ele>207</ele>
        <time>2016-11-28T11:21:45Z</time>
      </trkpt>
      <trkpt lat="45.97191" lon="4.79352">
        <ele>207</ele>
        <time>2016-11-28T11:21:46Z</time>
      </trkpt>
      <trkpt lat="45.97188" lon="4.79345">
        <ele>207</ele>
        <time>2016-11-28T11:21:47Z</time>
      </trkpt>
      <trkpt lat="45.97185" lon="4.79338">
        <ele>207</ele>
        <time>2016-11-28T11:21:48Z</time>
      </trkpt>
      <trkpt lat="45.97182" lon="4.79331">
        <ele>207</ele>
        <time>2016-11-28T11:21:49Z</time>
      </trkpt>
      <trkpt lat="45.97179" lon="4.79324">
        <ele>207</ele>
        <time>2016-11-28T11:21:50Z</time>
      </trkpt>
      <trkpt lat="45.97175" lon="4.79316">
        <ele>207</ele>
        <time>2016-11-28T11:21:51Z</time>
      </trkpt>
      <trkpt lat="45.97172" lon="4.79309">
        <ele>207</ele>
        <time>2016-11-28T11:21:52Z</time>
      </trkpt>
      <trkpt lat="45.97169" lon="4.79301">
        <ele>207</ele>
        <time>2016-11-28T11:21:53Z</time>
      </trkpt>
      <trkpt lat="45.97166" lon="4.79293">
        <ele>204</ele>
        <time>2016-11-28T11:21:54Z</time>
      </trkpt>
      <trkpt lat="45.97164" lon="4.79286">
        <ele>204</ele>
        <time>2016-11-28T11:21:55Z</time>
      </trkpt>
      <trkpt lat="45.97161" lon="4.79279">
        <ele>204</ele>
        <time>2016-11-28T11:21:56Z</time>
      </trkpt>
      <trkpt lat="45.97158" lon="4.79271">
        <ele>204</ele>
        <time>2016-11-28T11:21:57Z</time>
      </trkpt>
      <trkpt lat="45.97155" lon="4.79264">
        <ele>204</ele>
        <time>2016-11-28T11:21:58Z</time>
      </trkpt>
      <trkpt lat="45.97153" lon="4.79257">
        <ele>205</ele>
        <time>2016-11-28T11:21:59Z</time>
      </trkpt>
      <trkpt lat="45.97149" lon="4.7925">
        <ele>205</ele>
        <time>2016-11-28T11:22:00Z</time>
      </trkpt>
      <trkpt lat="45.97146" lon="4.79243">
        <ele>205</ele>
        <time>2016-11-28T11:22:01Z</time>
      </trkpt>
      <trkpt lat="45.97143" lon="4.79236">
        <ele>205</ele>
        <time>2016-11-28T11:22:02Z</time>
      </trkpt>
      <trkpt lat="45.9714" lon="4.79229">
        <ele>205</ele>
        <time>2016-11-28T11:22:03Z</time>
      </trkpt>
      <trkpt lat="45.97137" lon="4.79221">
        <ele>205</ele>
        <time>2016-11-28T11:22:04Z</time>
      </trkpt>
      <trkpt lat="45.97133" lon="4.79214">
        <ele>206</ele>
        <time>2016-11-28T11:22:05Z</time>
      </trkpt>
      <trkpt lat="45.9713" lon="4.79207">
        <ele>206</ele>
        <time>2016-11-28T11:22:06Z</time>
      </trkpt>
      <trkpt lat="45.97126" lon="4.792">
        <ele>206</ele>
        <time>2016-11-28T11:22:07Z</time>
      </trkpt>
      <trkpt lat="45.97124" lon="4.79192">
        <ele>206</ele>
        <time>2016-11-28T11:22:08Z</time>
      </trkpt>
      <trkpt lat="45.9712" lon="4.79185">
        <ele>206</ele>
        <time>2016-11-28T11:22:09Z</time>
      </trkpt>
      <trkpt lat="45.97117" lon="4.79177">
        <ele>206</ele>
        <time>2016-11-28T11:22:10Z</time>
      </trkpt>
      <trkpt lat="45.97114" lon="4.7917">
        <ele>206</ele>
        <time>2016-11-28T11:22:11Z</time>
      </trkpt>
      <trkpt lat="45.97111" lon="4.79162">
        <ele>206</ele>
        <time>2016-11-28T11:22:12Z</time>
      </trkpt>
      <trkpt lat="45.97107" lon="4.79155">
        <ele>206</ele>
        <time>2016-11-28T11:22:13Z</time>
      </trkpt>
      <trkpt lat="45.97103" lon="4.79148">
        <ele>206</ele>
        <time>2016-11-28T11:22:14Z</time>
      </trkpt>
      <trkpt lat="45.97099" lon="4.79141">
        <ele>206</ele>
        <time>2016-11-28T11:22:15Z</time>
      </trkpt>
      <trkpt lat="45.97095" lon="4.79134">
        <ele>206</ele>
        <time>2016-11-28T11:22:16Z</time>
      </trkpt>
      <trkpt lat="45.97091" lon="4.79127">
        <ele>206</ele>
        <time>2016-11-28T11:22:17Z</time>
      </trkpt>
      <trkpt lat="45.97088" lon="4.7912">
        <ele>206</ele>
        <time>2016-11-28T11:22:18Z</time>
      </trkpt>
      <trkpt lat="45.97085" lon="4.79112">
        <ele>206</ele>
        <time>2016-11-28T11:22:19Z</time>
      </trkpt>
      <trkpt lat="45.97082" lon="4.79104">
        <ele>204</ele>
        <time>2016-11-28T11:22:20Z</time>
      </trkpt>
      <trkpt lat="45.9708" lon="4.79097">
        <ele>204</ele>
        <time>2016-11-28T11:22:21Z</time>
      </trkpt>
      <trkpt lat="45.97078" lon="4.79089">
        <ele>204</ele>
        <time>2016-11-28T11:22:22Z</time>
      </trkpt>
      <trkpt lat="45.97076" lon="4.79082">
        <ele>204</ele>
        <time>2016-11-28T11:22:23Z</time>
      </trkpt>
      <trkpt lat="45.97074" lon="4.79075">
        <ele>204</ele>
        <time>2016-11-28T11:22:24Z</time>
      </trkpt>
      <trkpt lat="45.97072" lon="4.79069">
        <ele>204</ele>
        <time>2016-11-28T11:22:25Z</time>
      </trkpt>
      <trkpt lat="45.9707" lon="4.79063">
        <ele>203</ele>
        <time>2016-11-28T11:22:26Z</time>
      </trkpt>
      <trkpt lat="45.97069" lon="4.79056">
        <ele>203</ele>
        <time>2016-11-28T11:22:27Z</time>
      </trkpt>
      <trkpt lat="45.97068" lon="4.79049">
        <ele>203</ele>
        <time>2016-11-28T11:22:28Z</time>
      </trkpt>
      <trkpt lat="45.97066" lon="4.79042">
        <ele>203</ele>
        <time>2016-11-28T11:22:29Z</time>
      </trkpt>
      <trkpt lat="45.97064" lon="4.79035">
        <ele>203</ele>
        <time>2016-11-28T11:22:30Z</time>
      </trkpt>
      <trkpt lat="45.97062" lon="4.79028">
        <ele>203</ele>
        <time>2016-11-28T11:22:31Z</time>
      </trkpt>
      <trkpt lat="45.9706" lon="4.7902">
        <ele>203</ele>
        <time>2016-11-28T11:22:32Z</time>
      </trkpt>
      <trkpt lat="45.97058" lon="4.79012">
        <ele>204</ele>
        <time>2016-11-28T11:22:33Z</time>
      </trkpt>
      <trkpt lat="45.97056" lon="4.79004">
        <ele>204</ele>
        <time>2016-11-28T11:22:34Z</time>
      </trkpt>
      <trkpt lat="45.97054" lon="4.78997">
        <ele>205</ele>
        <time>2016-11-28T11:22:35Z</time>
      </trkpt>
      <trkpt lat="45.97051" lon="4.78989">
        <ele>205</ele>
        <time>2016-11-28T11:22:36Z</time>
      </trkpt>
      <trkpt lat="45.97048" lon="4.78982">
        <ele>205</ele>
        <time>2016-11-28T11:22:37Z</time>
      </trkpt>
      <trkpt lat="45.97046" lon="4.78975">
        <ele>205</ele>
        <time>2016-11-28T11:22:38Z</time>
      </trkpt>
      <trkpt lat="45.97043" lon="4.78968">
        <ele>205</ele>
        <time>2016-11-28T11:22:39Z</time>
      </trkpt>
      <trkpt lat="45.9704" lon="4.78962">
        <ele>205</ele>
        <time>2016-11-28T11:22:40Z</time>
      </trkpt>
      <trkpt lat="45.97036" lon="4.78955">
        <ele>205</ele>
        <time>2016-11-28T11:22:41Z</time>
      </trkpt>
      <trkpt lat="45.97032" lon="4.78949">
        <ele>205</ele>
        <time>2016-11-28T11:22:42Z</time>
      </trkpt>
      <trkpt lat="45.97028" lon="4.78943">
        <ele>205</ele>
        <time>2016-11-28T11:22:43Z</time>
      </trkpt>
      <trkpt lat="45.97024" lon="4.78937">
        <ele>205</ele>
        <time>2016-11-28T11:22:44Z</time>
      </trkpt>
      <trkpt lat="45.9702" lon="4.78931">
        <ele>205</ele>
        <time>2016-11-28T11:22:45Z</time>
      </trkpt>
      <trkpt lat="45.97016" lon="4.78925">
        <ele>205</ele>
        <time>2016-11-28T11:22:46Z</time>
      </trkpt>
      <trkpt lat="45.97011" lon="4.78918">
        <ele>204</ele>
        <time>2016-11-28T11:22:47Z</time>
      </trkpt>
      <trkpt lat="45.97007" lon="4.78912">
        <ele>205</ele>
        <time>2016-11-28T11:22:48Z</time>
      </trkpt>
      <trkpt lat="45.97002" lon="4.78907">
        <ele>205</ele>
        <time>2016-11-28T11:22:49Z</time>
      </trkpt>
      <trkpt lat="45.96998" lon="4.78901">
        <ele>204</ele>
        <time>2016-11-28T11:22:50Z</time>
      </trkpt>
      <trkpt lat="45.96993" lon="4.78895">
        <ele>203</ele>
        <time>2016-11-28T11:22:51Z</time>
      </trkpt>
      <trkpt lat="45.96988" lon="4.78888">
        <ele>203</ele>
        <time>2016-11-28T11:22:52Z</time>
      </trkpt>
      <trkpt lat="45.96983" lon="4.78881">
        <ele>203</ele>
        <time>2016-11-28T11:22:53Z</time>
      </trkpt>
      <trkpt lat="45.96978" lon="4.78875">
        <ele>203</ele>
        <time>2016-11-28T11:22:54Z</time>
      </trkpt>
      <trkpt lat="45.96972" lon="4.78869">
        <ele>203</ele>
        <time>2016-11-28T11:22:55Z</time>
      </trkpt>
      <trkpt lat="45.96967" lon="4.78862">
        <ele>203</ele>
        <time>2016-11-28T11:22:56Z</time>
      </trkpt>
      <trkpt lat="45.96961" lon="4.78855">
        <ele>203</ele>
        <time>2016-11-28T11:22:57Z</time>
      </trkpt>
      <trkpt lat="45.96955" lon="4.78848">
        <ele>203</ele>
        <time>2016-11-28T11:22:58Z</time>
      </trkpt>
      <trkpt lat="45.96949" lon="4.78842">
        <ele>202</ele>
        <time>2016-11-28T11:22:59Z</time>
      </trkpt>
      <trkpt lat="45.96943" lon="4.78835">
        <ele>202</ele>
        <time>2016-11-28T11:23:00Z</time>
      </trkpt>
      <trkpt lat="45.96938" lon="4.78828">
        <ele>202</ele>
        <time>2016-11-28T11:23:01Z</time>
      </trkpt>
      <trkpt lat="45.96933" lon="4.78822">
        <ele>202</ele>
        <time>2016-11-28T11:23:02Z</time>
      </trkpt>
      <trkpt lat="45.96929" lon="4.78815">
        <ele>202</ele>
        <time>2016-11-28T11:23:03Z</time>
      </trkpt>
      <trkpt lat="45.96925" lon="4.78808">
        <ele>203</ele>
        <time>2016-11-28T11:23:04Z</time>
      </trkpt>
      <trkpt lat="45.96921" lon="4.788">
        <ele>203</ele>
        <time>2016-11-28T11:23:05Z</time>
      </trkpt>
      <trkpt lat="45.96918" lon="4.78793">
        <ele>203</ele>
        <time>2016-11-28T11:23:06Z</time>
      </trkpt>
      <trkpt lat="45.96914" lon="4.78786">
        <ele>201</ele>
        <time>2016-11-28T11:23:07Z</time>
      </trkpt>
      <trkpt lat="45.9691" lon="4.78779">
        <ele>201</ele>
        <time>2016-11-28T11:23:08Z</time>
      </trkpt>
      <trkpt lat="45.96907" lon="4.78772">
        <ele>201</ele>
        <time>2016-11-28T11:23:09Z</time>
      </trkpt>
      <trkpt lat="45.96904" lon="4.78765">
        <ele>201</ele>
        <time>2016-11-28T11:23:10Z</time>
      </trkpt>
      <trkpt lat="45.969" lon="4.78758">
        <ele>202</ele>
        <time>2016-11-28T11:23:11Z</time>
      </trkpt>
      <trkpt lat="45.96897" lon="4.78751">
        <ele>201</ele>
        <time>2016-11-28T11:23:12Z</time>
      </trkpt>
      <trkpt lat="45.96893" lon="4.78743">
        <ele>202</ele>
        <time>2016-11-28T11:23:13Z</time>
      </trkpt>
      <trkpt lat="45.96889" lon="4.78735">
        <ele>202</ele>
        <time>2016-11-28T11:23:14Z</time>
      </trkpt>
      <trkpt lat="45.96886" lon="4.78727">
        <ele>202</ele>
        <time>2016-11-28T11:23:15Z</time>
      </trkpt>
      <trkpt lat="45.96882" lon="4.78719">
        <ele>202</ele>
        <time>2016-11-28T11:23:16Z</time>
      </trkpt>
      <trkpt lat="45.96878" lon="4.78711">
        <ele>202</ele>
        <time>2016-11-28T11:23:17Z</time>
      </trkpt>
      <trkpt lat="45.96874" lon="4.78702">
        <ele>202</ele>
        <time>2016-11-28T11:23:18Z</time>
      </trkpt>
      <trkpt lat="45.9687" lon="4.78694">
        <ele>202</ele>
        <time>2016-11-28T11:23:19Z</time>
      </trkpt>
      <trkpt lat="45.96865" lon="4.78686">
        <ele>202</ele>
        <time>2016-11-28T11:23:20Z</time>
      </trkpt>
      <trkpt lat="45.96861" lon="4.78678">
        <ele>202</ele>
        <time>2016-11-28T11:23:21Z</time>
      </trkpt>
      <trkpt lat="45.96858" lon="4.78669">
        <ele>202</ele>
        <time>2016-11-28T11:23:22Z</time>
      </trkpt>
      <trkpt lat="45.96854" lon="4.78662">
        <ele>203</ele>
        <time>2016-11-28T11:23:23Z</time>
      </trkpt>
      <trkpt lat="45.9685" lon="4.78654">
        <ele>203</ele>
        <time>2016-11-28T11:23:24Z</time>
      </trkpt>
      <trkpt lat="45.96846" lon="4.78647">
        <ele>203</ele>
        <time>2016-11-28T11:23:25Z</time>
      </trkpt>
      <trkpt lat="45.96842" lon="4.78639">
        <ele>203</ele>
        <time>2016-11-28T11:23:26Z</time>
      </trkpt>
      <trkpt lat="45.96839" lon="4.78631">
        <ele>203</ele>
        <time>2016-11-28T11:23:27Z</time>
      </trkpt>
      <trkpt lat="45.96836" lon="4.78622">
        <ele>203</ele>
        <time>2016-11-28T11:23:28Z</time>
      </trkpt>
      <trkpt lat="45.96833" lon="4.78614">
        <ele>202</ele>
        <time>2016-11-28T11:23:29Z</time>
      </trkpt>
      <trkpt lat="45.96831" lon="4.78607">
        <ele>202</ele>
        <time>2016-11-28T11:23:30Z</time>
      </trkpt>
      <trkpt lat="45.96828" lon="4.786">
        <ele>202</ele>
        <time>2016-11-28T11:23:31Z</time>
      </trkpt>
      <trkpt lat="45.96826" lon="4.78593">
        <ele>202</ele>
        <time>2016-11-28T11:23:32Z</time>
      </trkpt>
      <trkpt lat="45.96823" lon="4.78586">
        <ele>202</ele>
        <time>2016-11-28T11:23:33Z</time>
      </trkpt>
      <trkpt lat="45.9682" lon="4.78582">
        <ele>203</ele>
        <time>2016-11-28T11:23:34Z</time>
      </trkpt>
      <trkpt lat="45.96816" lon="4.78577">
        <ele>203</ele>
        <time>2016-11-28T11:23:35Z</time>
      </trkpt>
      <trkpt lat="45.96812" lon="4.78571">
        <ele>203</ele>
        <time>2016-11-28T11:23:36Z</time>
      </trkpt>
      <trkpt lat="45.96808" lon="4.78565">
        <ele>203</ele>
        <time>2016-11-28T11:23:37Z</time>
      </trkpt>
      <trkpt lat="45.96804" lon="4.78559">
        <ele>203</ele>
        <time>2016-11-28T11:23:38Z</time>
      </trkpt>
      <trkpt lat="45.96799" lon="4.78553">
        <ele>203</ele>
        <time>2016-11-28T11:23:39Z</time>
      </trkpt>
      <trkpt lat="45.96796" lon="4.78547">
        <ele>203</ele>
        <time>2016-11-28T11:23:40Z</time>
      </trkpt>
      <trkpt lat="45.96792" lon="4.7854">
        <ele>203</ele>
        <time>2016-11-28T11:23:41Z</time>
      </trkpt>
      <trkpt lat="45.96788" lon="4.78533">
        <ele>203</ele>
        <time>2016-11-28T11:23:42Z</time>
      </trkpt>
      <trkpt lat="45.96784" lon="4.78526">
        <ele>203</ele>
        <time>2016-11-28T11:23:43Z</time>
      </trkpt>
      <trkpt lat="45.9678" lon="4.7852">
        <ele>203</ele>
        <time>2016-11-28T11:23:44Z</time>
      </trkpt>
      <trkpt lat="45.96776" lon="4.78514">
        <ele>203</ele>
        <time>2016-11-28T11:23:45Z</time>
      </trkpt>
      <trkpt lat="45.96772" lon="4.78507">
        <ele>203</ele>
        <time>2016-11-28T11:23:46Z</time>
      </trkpt>
      <trkpt lat="45.96768" lon="4.785">
        <ele>203</ele>
        <time>2016-11-28T11:23:47Z</time>
      </trkpt>
      <trkpt lat="45.96764" lon="4.78494">
        <ele>205</ele>
        <time>2016-11-28T11:23:48Z</time>
      </trkpt>
      <trkpt lat="45.96759" lon="4.78488">
        <ele>205</ele>
        <time>2016-11-28T11:23:49Z</time>
      </trkpt>
      <trkpt lat="45.96754" lon="4.78483">
        <ele>205</ele>
        <time>2016-11-28T11:23:50Z</time>
      </trkpt>
      <trkpt lat="45.96749" lon="4.78477">
        <ele>203</ele>
        <time>2016-11-28T11:23:51Z</time>
      </trkpt>
      <trkpt lat="45.96744" lon="4.78472">
        <ele>203</ele>
        <time>2016-11-28T11:23:52Z</time>
      </trkpt>
      <trkpt lat="45.96738" lon="4.78466">
        <ele>203</ele>
        <time>2016-11-28T11:23:53Z</time>
      </trkpt>
      <trkpt lat="45.96733" lon="4.78461">
        <ele>203</ele>
        <time>2016-11-28T11:23:54Z</time>
      </trkpt>
      <trkpt lat="45.96727" lon="4.78456">
        <ele>203</ele>
        <time>2016-11-28T11:23:55Z</time>
      </trkpt>
      <trkpt lat="45.96722" lon="4.7845">
        <ele>203</ele>
        <time>2016-11-28T11:23:56Z</time>
      </trkpt>
      <trkpt lat="45.96717" lon="4.78445">
        <ele>203</ele>
        <time>2016-11-28T11:23:57Z</time>
      </trkpt>
      <trkpt lat="45.96712" lon="4.78441">
        <ele>203</ele>
        <time>2016-11-28T11:23:58Z</time>
      </trkpt>
      <trkpt lat="45.96708" lon="4.78437">
        <ele>203</ele>
        <time>2016-11-28T11:23:59Z</time>
      </trkpt>
      <trkpt lat="45.96704" lon="4.78432">
        <ele>203</ele>
        <time>2016-11-28T11:24:00Z</time>
      </trkpt>
      <trkpt lat="45.96698" lon="4.78424">
        <ele>203</ele>
        <time>2016-11-28T11:24:02Z</time>
      </trkpt>
      <trkpt lat="45.96694" lon="4.78421">
        <ele>202</ele>
        <time>2016-11-28T11:24:03Z</time>
      </trkpt>
      <trkpt lat="45.96687" lon="4.78414">
        <ele>204</ele>
        <time>2016-11-28T11:24:05Z</time>
      </trkpt>
      <trkpt lat="45.96684" lon="4.7841">
        <ele>204</ele>
        <time>2016-11-28T11:24:06Z</time>
      </trkpt>
      <trkpt lat="45.96679" lon="4.78405">
        <ele>204</ele>
        <time>2016-11-28T11:24:07Z</time>
      </trkpt>
      <trkpt lat="45.96675" lon="4.78401">
        <ele>204</ele>
        <time>2016-11-28T11:24:08Z</time>
      </trkpt>
      <trkpt lat="45.9667" lon="4.78396">
        <ele>204</ele>
        <time>2016-11-28T11:24:09Z</time>
      </trkpt>
      <trkpt lat="45.96665" lon="4.78392">
        <ele>201</ele>
        <time>2016-11-28T11:24:10Z</time>
      </trkpt>
      <trkpt lat="45.96661" lon="4.78387">
        <ele>201</ele>
        <time>2016-11-28T11:24:11Z</time>
      </trkpt>
      <trkpt lat="45.96656" lon="4.78383">
        <ele>201</ele>
        <time>2016-11-28T11:24:12Z</time>
      </trkpt>
      <trkpt lat="45.96651" lon="4.78379">
        <ele>201</ele>
        <time>2016-11-28T11:24:13Z</time>
      </trkpt>
      <trkpt lat="45.96646" lon="4.78375">
        <ele>201</ele>
        <time>2016-11-28T11:24:14Z</time>
      </trkpt>
      <trkpt lat="45.96642" lon="4.78371">
        <ele>201</ele>
        <time>2016-11-28T11:24:15Z</time>
      </trkpt>
      <trkpt lat="45.96637" lon="4.78366">
        <ele>201</ele>
        <time>2016-11-28T11:24:16Z</time>
      </trkpt>
      <trkpt lat="45.96632" lon="4.78362">
        <ele>201</ele>
        <time>2016-11-28T11:24:17Z</time>
      </trkpt>
      <trkpt lat="45.96628" lon="4.78359">
        <ele>201</ele>
        <time>2016-11-28T11:24:18Z</time>
      </trkpt>
      <trkpt lat="45.96623" lon="4.78356">
        <ele>201</ele>
        <time>2016-11-28T11:24:19Z</time>
      </trkpt>
      <trkpt lat="45.96618" lon="4.78352">
        <ele>201</ele>
        <time>2016-11-28T11:24:20Z</time>
      </trkpt>
      <trkpt lat="45.96613" lon="4.78348">
        <ele>200</ele>
        <time>2016-11-28T11:24:21Z</time>
      </trkpt>
      <trkpt lat="45.96609" lon="4.78343">
        <ele>200</ele>
        <time>2016-11-28T11:24:22Z</time>
      </trkpt>
      <trkpt lat="45.96604" lon="4.78338">
        <ele>200</ele>
        <time>2016-11-28T11:24:23Z</time>
      </trkpt>
      <trkpt lat="45.96599" lon="4.78333">
        <ele>202</ele>
        <time>2016-11-28T11:24:24Z</time>
      </trkpt>
      <trkpt lat="45.96595" lon="4.78328">
        <ele>201</ele>
        <time>2016-11-28T11:24:25Z</time>
      </trkpt>
      <trkpt lat="45.9659" lon="4.78323">
        <ele>201</ele>
        <time>2016-11-28T11:24:26Z</time>
      </trkpt>
      <trkpt lat="45.96585" lon="4.78317">
        <ele>202</ele>
        <time>2016-11-28T11:24:27Z</time>
      </trkpt>
      <trkpt lat="45.9658" lon="4.78312">
        <ele>199</ele>
        <time>2016-11-28T11:24:28Z</time>
      </trkpt>
      <trkpt lat="45.96575" lon="4.78306">
        <ele>200</ele>
        <time>2016-11-28T11:24:29Z</time>
      </trkpt>
      <trkpt lat="45.96569" lon="4.78301">
        <ele>200</ele>
        <time>2016-11-28T11:24:30Z</time>
      </trkpt>
      <trkpt lat="45.96564" lon="4.78296">
        <ele>200</ele>
        <time>2016-11-28T11:24:31Z</time>
      </trkpt>
      <trkpt lat="45.96559" lon="4.7829">
        <ele>200</ele>
        <time>2016-11-28T11:24:32Z</time>
      </trkpt>
      <trkpt lat="45.96554" lon="4.78284">
        <ele>200</ele>
        <time>2016-11-28T11:24:33Z</time>
      </trkpt>
      <trkpt lat="45.96549" lon="4.78279">
        <ele>200</ele>
        <time>2016-11-28T11:24:34Z</time>
      </trkpt>
      <trkpt lat="45.96545" lon="4.78273">
        <ele>200</ele>
        <time>2016-11-28T11:24:35Z</time>
      </trkpt>
      <trkpt lat="45.9654" lon="4.78267">
        <ele>200</ele>
        <time>2016-11-28T11:24:36Z</time>
      </trkpt>
      <trkpt lat="45.96536" lon="4.78261">
        <ele>200</ele>
        <time>2016-11-28T11:24:37Z</time>
      </trkpt>
      <trkpt lat="45.96533" lon="4.78254">
        <ele>200</ele>
        <time>2016-11-28T11:24:38Z</time>
      </trkpt>
      <trkpt lat="45.96529" lon="4.78249">
        <ele>204</ele>
        <time>2016-11-28T11:24:39Z</time>
      </trkpt>
      <trkpt lat="45.96526" lon="4.78243">
        <ele>204</ele>
        <time>2016-11-28T11:24:40Z</time>
      </trkpt>
      <trkpt lat="45.96522" lon="4.78236">
        <ele>204</ele>
        <time>2016-11-28T11:24:41Z</time>
      </trkpt>
      <trkpt lat="45.96518" lon="4.7823">
        <ele>204</ele>
        <time>2016-11-28T11:24:42Z</time>
      </trkpt>
      <trkpt lat="45.96515" lon="4.78224">
        <ele>204</ele>
        <time>2016-11-28T11:24:43Z</time>
      </trkpt>
      <trkpt lat="45.96511" lon="4.78218">
        <ele>204</ele>
        <time>2016-11-28T11:24:44Z</time>
      </trkpt>
      <trkpt lat="45.96507" lon="4.78212">
        <ele>205</ele>
        <time>2016-11-28T11:24:45Z</time>
      </trkpt>
      <trkpt lat="45.96502" lon="4.78206">
        <ele>205</ele>
        <time>2016-11-28T11:24:46Z</time>
      </trkpt>
      <trkpt lat="45.96497" lon="4.782">
        <ele>200</ele>
        <time>2016-11-28T11:24:47Z</time>
      </trkpt>
      <trkpt lat="45.96491" lon="4.78196">
        <ele>201</ele>
        <time>2016-11-28T11:24:48Z</time>
      </trkpt>
      <trkpt lat="45.96485" lon="4.78193">
        <ele>201</ele>
        <time>2016-11-28T11:24:49Z</time>
      </trkpt>
      <trkpt lat="45.96479" lon="4.78189">
        <ele>201</ele>
        <time>2016-11-28T11:24:50Z</time>
      </trkpt>
      <trkpt lat="45.96473" lon="4.78186">
        <ele>200</ele>
        <time>2016-11-28T11:24:51Z</time>
      </trkpt>
      <trkpt lat="45.96467" lon="4.78182">
        <ele>200</ele>
        <time>2016-11-28T11:24:52Z</time>
      </trkpt>
      <trkpt lat="45.96462" lon="4.78177">
        <ele>200</ele>
        <time>2016-11-28T11:24:53Z</time>
      </trkpt>
      <trkpt lat="45.96457" lon="4.78172">
        <ele>200</ele>
        <time>2016-11-28T11:24:54Z</time>
      </trkpt>
      <trkpt lat="45.96452" lon="4.78167">
        <ele>204</ele>
        <time>2016-11-28T11:24:55Z</time>
      </trkpt>
      <trkpt lat="45.96447" lon="4.78162">
        <ele>203</ele>
        <time>2016-11-28T11:24:56Z</time>
      </trkpt>
      <trkpt lat="45.96442" lon="4.78157">
        <ele>203</ele>
        <time>2016-11-28T11:24:57Z</time>
      </trkpt>
      <trkpt lat="45.96437" lon="4.78153">
        <ele>203</ele>
        <time>2016-11-28T11:24:58Z</time>
      </trkpt>
      <trkpt lat="45.96432" lon="4.78148">
        <ele>203</ele>
        <time>2016-11-28T11:24:59Z</time>
      </trkpt>
      <trkpt lat="45.96427" lon="4.78143">
        <ele>203</ele>
        <time>2016-11-28T11:25:00Z</time>
      </trkpt>
      <trkpt lat="45.96422" lon="4.78138">
        <ele>203</ele>
        <time>2016-11-28T11:25:01Z</time>
      </trkpt>
      <trkpt lat="45.96417" lon="4.78134">
        <ele>203</ele>
        <time>2016-11-28T11:25:02Z</time>
      </trkpt>
      <trkpt lat="45.96412" lon="4.78129">
        <ele>200</ele>
        <time>2016-11-28T11:25:03Z</time>
      </trkpt>
      <trkpt lat="45.96407" lon="4.78124">
        <ele>200</ele>
        <time>2016-11-28T11:25:04Z</time>
      </trkpt>
      <trkpt lat="45.96402" lon="4.7812">
        <ele>200</ele>
        <time>2016-11-28T11:25:05Z</time>
      </trkpt>
      <trkpt lat="45.96397" lon="4.78115">
        <ele>200</ele>
        <time>2016-11-28T11:25:06Z</time>
      </trkpt>
      <trkpt lat="45.96392" lon="4.78111">
        <ele>200</ele>
        <time>2016-11-28T11:25:07Z</time>
      </trkpt>
      <trkpt lat="45.96387" lon="4.78107">
        <ele>200</ele>
        <time>2016-11-28T11:25:08Z</time>
      </trkpt>
      <trkpt lat="45.96383" lon="4.78103">
        <ele>200</ele>
        <time>2016-11-28T11:25:09Z</time>
      </trkpt>
      <trkpt lat="45.96379" lon="4.78099">
        <ele>200</ele>
        <time>2016-11-28T11:25:10Z</time>
      </trkpt>
      <trkpt lat="45.96375" lon="4.78095">
        <ele>200</ele>
        <time>2016-11-28T11:25:11Z</time>
      </trkpt>
      <trkpt lat="45.96371" lon="4.78091">
        <ele>199</ele>
        <time>2016-11-28T11:25:12Z</time>
      </trkpt>
      <trkpt lat="45.96366" lon="4.78087">
        <ele>199</ele>
        <time>2016-11-28T11:25:13Z</time>
      </trkpt>
      <trkpt lat="45.96362" lon="4.78083">
        <ele>202</ele>
        <time>2016-11-28T11:25:14Z</time>
      </trkpt>
      <trkpt lat="45.96358" lon="4.78079">
        <ele>202</ele>
        <time>2016-11-28T11:25:15Z</time>
      </trkpt>
      <trkpt lat="45.96354" lon="4.78074">
        <ele>202</ele>
        <time>2016-11-28T11:25:16Z</time>
      </trkpt>
      <trkpt lat="45.9635" lon="4.78068">
        <ele>202</ele>
        <time>2016-11-28T11:25:17Z</time>
      </trkpt>
      <trkpt lat="45.96346" lon="4.78063">
        <ele>202</ele>
        <time>2016-11-28T11:25:18Z</time>
      </trkpt>
      <trkpt lat="45.96342" lon="4.78057">
        <ele>202</ele>
        <time>2016-11-28T11:25:19Z</time>
      </trkpt>
      <trkpt lat="45.96337" lon="4.78051">
        <ele>202</ele>
        <time>2016-11-28T11:25:20Z</time>
      </trkpt>
      <trkpt lat="45.96333" lon="4.78045">
        <ele>199</ele>
        <time>2016-11-28T11:25:21Z</time>
      </trkpt>
      <trkpt lat="45.96328" lon="4.78039">
        <ele>200</ele>
        <time>2016-11-28T11:25:22Z</time>
      </trkpt>
      <trkpt lat="45.96323" lon="4.78032">
        <ele>200</ele>
        <time>2016-11-28T11:25:23Z</time>
      </trkpt>
      <trkpt lat="45.96317" lon="4.78026">
        <ele>200</ele>
        <time>2016-11-28T11:25:24Z</time>
      </trkpt>
      <trkpt lat="45.96312" lon="4.7802">
        <ele>200</ele>
        <time>2016-11-28T11:25:25Z</time>
      </trkpt>
      <trkpt lat="45.96307" lon="4.78015">
        <ele>200</ele>
        <time>2016-11-28T11:25:26Z</time>
      </trkpt>
      <trkpt lat="45.96302" lon="4.7801">
        <ele>200</ele>
        <time>2016-11-28T11:25:27Z</time>
      </trkpt>
      <trkpt lat="45.96297" lon="4.78005">
        <ele>199</ele>
        <time>2016-11-28T11:25:28Z</time>
      </trkpt>
      <trkpt lat="45.96291" lon="4.78">
        <ele>204</ele>
        <time>2016-11-28T11:25:29Z</time>
      </trkpt>
      <trkpt lat="45.96286" lon="4.77995">
        <ele>204</ele>
        <time>2016-11-28T11:25:30Z</time>
      </trkpt>
      <trkpt lat="45.96282" lon="4.77991">
        <ele>203</ele>
        <time>2016-11-28T11:25:31Z</time>
      </trkpt>
      <trkpt lat="45.96276" lon="4.77987">
        <ele>203</ele>
        <time>2016-11-28T11:25:32Z</time>
      </trkpt>
      <trkpt lat="45.96271" lon="4.77983">
        <ele>203</ele>
        <time>2016-11-28T11:25:33Z</time>
      </trkpt>
      <trkpt lat="45.96266" lon="4.77979">
        <ele>203</ele>
        <time>2016-11-28T11:25:34Z</time>
      </trkpt>
      <trkpt lat="45.96261" lon="4.77973">
        <ele>203</ele>
        <time>2016-11-28T11:25:35Z</time>
      </trkpt>
      <trkpt lat="45.96255" lon="4.77968">
        <ele>204</ele>
        <time>2016-11-28T11:25:36Z</time>
      </trkpt>
      <trkpt lat="45.9625" lon="4.77963">
        <ele>204</ele>
        <time>2016-11-28T11:25:37Z</time>
      </trkpt>
      <trkpt lat="45.96245" lon="4.77958">
        <ele>199</ele>
        <time>2016-11-28T11:25:38Z</time>
      </trkpt>
      <trkpt lat="45.9624" lon="4.77954">
        <ele>200</ele>
        <time>2016-11-28T11:25:39Z</time>
      </trkpt>
      <trkpt lat="45.96236" lon="4.77949">
        <ele>200</ele>
        <time>2016-11-28T11:25:40Z</time>
      </trkpt>
      <trkpt lat="45.96231" lon="4.77944">
        <ele>200</ele>
        <time>2016-11-28T11:25:41Z</time>
      </trkpt>
      <trkpt lat="45.96227" lon="4.77938">
        <ele>200</ele>
        <time>2016-11-28T11:25:42Z</time>
      </trkpt>
      <trkpt lat="45.96222" lon="4.77931">
        <ele>200</ele>
        <time>2016-11-28T11:25:43Z</time>
      </trkpt>
      <trkpt lat="45.96218" lon="4.77924">
        <ele>200</ele>
        <time>2016-11-28T11:25:44Z</time>
      </trkpt>
      <trkpt lat="45.96213" lon="4.77918">
        <ele>200</ele>
        <time>2016-11-28T11:25:45Z</time>
      </trkpt>
      <trkpt lat="45.96209" lon="4.77911">
        <ele>202</ele>
        <time>2016-11-28T11:25:46Z</time>
      </trkpt>
      <trkpt lat="45.96204" lon="4.77904">
        <ele>202</ele>
        <time>2016-11-28T11:25:47Z</time>
      </trkpt>
      <trkpt lat="45.962" lon="4.77898">
        <ele>202</ele>
        <time>2016-11-28T11:25:48Z</time>
      </trkpt>
      <trkpt lat="45.96196" lon="4.77891">
        <ele>201</ele>
        <time>2016-11-28T11:25:49Z</time>
      </trkpt>
      <trkpt lat="45.96192" lon="4.77885">
        <ele>201</ele>
        <time>2016-11-28T11:25:50Z</time>
      </trkpt>
      <trkpt lat="45.96189" lon="4.77878">
        <ele>201</ele>
        <time>2016-11-28T11:25:51Z</time>
      </trkpt>
      <trkpt lat="45.96185" lon="4.77872">
        <ele>201</ele>
        <time>2016-11-28T11:25:52Z</time>
      </trkpt>
      <trkpt lat="45.96181" lon="4.77866">
        <ele>201</ele>
        <time>2016-11-28T11:25:53Z</time>
      </trkpt>
      <trkpt lat="45.96178" lon="4.7786">
        <ele>201</ele>
        <time>2016-11-28T11:25:54Z</time>
      </trkpt>
      <trkpt lat="45.96174" lon="4.77854">
        <ele>201</ele>
        <time>2016-11-28T11:25:55Z</time>
      </trkpt>
      <trkpt lat="45.9617" lon="4.77847">
        <ele>201</ele>
        <time>2016-11-28T11:25:56Z</time>
      </trkpt>
      <trkpt lat="45.96166" lon="4.77841">
        <ele>198</ele>
        <time>2016-11-28T11:25:57Z</time>
      </trkpt>
      <trkpt lat="45.96162" lon="4.77835">
        <ele>198</ele>
        <time>2016-11-28T11:25:58Z</time>
      </trkpt>
      <trkpt lat="45.96158" lon="4.77829">
        <ele>198</ele>
        <time>2016-11-28T11:25:59Z</time>
      </trkpt>
      <trkpt lat="45.96154" lon="4.77823">
        <ele>198</ele>
        <time>2016-11-28T11:26:00Z</time>
      </trkpt>
      <trkpt lat="45.96151" lon="4.77817">
        <ele>198</ele>
        <time>2016-11-28T11:26:01Z</time>
      </trkpt>
      <trkpt lat="45.96147" lon="4.77811">
        <ele>198</ele>
        <time>2016-11-28T11:26:02Z</time>
      </trkpt>
      <trkpt lat="45.96144" lon="4.77805">
        <ele>198</ele>
        <time>2016-11-28T11:26:03Z</time>
      </trkpt>
      <trkpt lat="45.96141" lon="4.77799">
        <ele>198</ele>
        <time>2016-11-28T11:26:04Z</time>
      </trkpt>
      <trkpt lat="45.96137" lon="4.77792">
        <ele>198</ele>
        <time>2016-11-28T11:26:05Z</time>
      </trkpt>
      <trkpt lat="45.96133" lon="4.77786">
        <ele>198</ele>
        <time>2016-11-28T11:26:06Z</time>
      </trkpt>
      <trkpt lat="45.96129" lon="4.77781">
        <ele>198</ele>
        <time>2016-11-28T11:26:07Z</time>
      </trkpt>
      <trkpt lat="45.96125" lon="4.77774">
        <ele>197</ele>
        <time>2016-11-28T11:26:08Z</time>
      </trkpt>
      <trkpt lat="45.9612" lon="4.77767">
        <ele>197</ele>
        <time>2016-11-28T11:26:09Z</time>
      </trkpt>
      <trkpt lat="45.96116" lon="4.7776">
        <ele>197</ele>
        <time>2016-11-28T11:26:10Z</time>
      </trkpt>
      <trkpt lat="45.96111" lon="4.77753">
        <ele>197</ele>
        <time>2016-11-28T11:26:11Z</time>
      </trkpt>
      <trkpt lat="45.96107" lon="4.77746">
        <ele>199</ele>
        <time>2016-11-28T11:26:12Z</time>
      </trkpt>
      <trkpt lat="45.96103" lon="4.77738">
        <ele>199</ele>
        <time>2016-11-28T11:26:13Z</time>
      </trkpt>
      <trkpt lat="45.96099" lon="4.77731">
        <ele>199</ele>
        <time>2016-11-28T11:26:14Z</time>
      </trkpt>
      <trkpt lat="45.96095" lon="4.77724">
        <ele>199</ele>
        <time>2016-11-28T11:26:15Z</time>
      </trkpt>
      <trkpt lat="45.9609" lon="4.77716">
        <ele>199</ele>
        <time>2016-11-28T11:26:16Z</time>
      </trkpt>
      <trkpt lat="45.96086" lon="4.77709">
        <ele>200</ele>
        <time>2016-11-28T11:26:17Z</time>
      </trkpt>
      <trkpt lat="45.96082" lon="4.77701">
        <ele>197</ele>
        <time>2016-11-28T11:26:18Z</time>
      </trkpt>
      <trkpt lat="45.96078" lon="4.77694">
        <ele>197</ele>
        <time>2016-11-28T11:26:19Z</time>
      </trkpt>
      <trkpt lat="45.96074" lon="4.77686">
        <ele>198</ele>
        <time>2016-11-28T11:26:20Z</time>
      </trkpt>
      <trkpt lat="45.96069" lon="4.7768">
        <ele>198</ele>
        <time>2016-11-28T11:26:21Z</time>
      </trkpt>
      <trkpt lat="45.96064" lon="4.77673">
        <ele>198</ele>
        <time>2016-11-28T11:26:22Z</time>
      </trkpt>
      <trkpt lat="45.96059" lon="4.77667">
        <ele>198</ele>
        <time>2016-11-28T11:26:23Z</time>
      </trkpt>
      <trkpt lat="45.96055" lon="4.77661">
        <ele>200</ele>
        <time>2016-11-28T11:26:24Z</time>
      </trkpt>
      <trkpt lat="45.9605" lon="4.77656">
        <ele>200</ele>
        <time>2016-11-28T11:26:25Z</time>
      </trkpt>
      <trkpt lat="45.96045" lon="4.7765">
        <ele>199</ele>
        <time>2016-11-28T11:26:26Z</time>
      </trkpt>
      <trkpt lat="45.96041" lon="4.77644">
        <ele>199</ele>
        <time>2016-11-28T11:26:27Z</time>
      </trkpt>
      <trkpt lat="45.96036" lon="4.77639">
        <ele>199</ele>
        <time>2016-11-28T11:26:28Z</time>
      </trkpt>
      <trkpt lat="45.96032" lon="4.77633">
        <ele>199</ele>
        <time>2016-11-28T11:26:29Z</time>
      </trkpt>
      <trkpt lat="45.96027" lon="4.77627">
        <ele>199</ele>
        <time>2016-11-28T11:26:30Z</time>
      </trkpt>
      <trkpt lat="45.96023" lon="4.77621">
        <ele>199</ele>
        <time>2016-11-28T11:26:31Z</time>
      </trkpt>
      <trkpt lat="45.96018" lon="4.77615">
        <ele>199</ele>
        <time>2016-11-28T11:26:32Z</time>
      </trkpt>
      <trkpt lat="45.96013" lon="4.77609">
        <ele>199</ele>
        <time>2016-11-28T11:26:33Z</time>
      </trkpt>
      <trkpt lat="45.96008" lon="4.77603">
        <ele>198</ele>
        <time>2016-11-28T11:26:34Z</time>
      </trkpt>
      <trkpt lat="45.96003" lon="4.77597">
        <ele>198</ele>
        <time>2016-11-28T11:26:35Z</time>
      </trkpt>
      <trkpt lat="45.95999" lon="4.77591">
        <ele>196</ele>
        <time>2016-11-28T11:26:36Z</time>
      </trkpt>
      <trkpt lat="45.95995" lon="4.77584">
        <ele>196</ele>
        <time>2016-11-28T11:26:37Z</time>
      </trkpt>
      <trkpt lat="45.95993" lon="4.77578">
        <ele>196</ele>
        <time>2016-11-28T11:26:38Z</time>
      </trkpt>
      <trkpt lat="45.9599" lon="4.77571">
        <ele>196</ele>
        <time>2016-11-28T11:26:39Z</time>
      </trkpt>
      <trkpt lat="45.95987" lon="4.77566">
        <ele>196</ele>
        <time>2016-11-28T11:26:40Z</time>
      </trkpt>
      <trkpt lat="45.95984" lon="4.7756">
        <ele>196</ele>
        <time>2016-11-28T11:26:41Z</time>
      </trkpt>
      <trkpt lat="45.95981" lon="4.77554">
        <ele>196</ele>
        <time>2016-11-28T11:26:42Z</time>
      </trkpt>
      <trkpt lat="45.95979" lon="4.77547">
        <ele>196</ele>
        <time>2016-11-28T11:26:43Z</time>
      </trkpt>
      <trkpt lat="45.95976" lon="4.77541">
        <ele>196</ele>
        <time>2016-11-28T11:26:44Z</time>
      </trkpt>
      <trkpt lat="45.95973" lon="4.77535">
        <ele>196</ele>
        <time>2016-11-28T11:26:45Z</time>
      </trkpt>
      <trkpt lat="45.9597" lon="4.77528">
        <ele>196</ele>
        <time>2016-11-28T11:26:46Z</time>
      </trkpt>
      <trkpt lat="45.95967" lon="4.77522">
        <ele>195</ele>
        <time>2016-11-28T11:26:47Z</time>
      </trkpt>
      <trkpt lat="45.95964" lon="4.77515">
        <ele>195</ele>
        <time>2016-11-28T11:26:48Z</time>
      </trkpt>
      <trkpt lat="45.95961" lon="4.77507">
        <ele>195</ele>
        <time>2016-11-28T11:26:49Z</time>
      </trkpt>
      <trkpt lat="45.95959" lon="4.77499">
        <ele>196</ele>
        <time>2016-11-28T11:26:50Z</time>
      </trkpt>
      <trkpt lat="45.95956" lon="4.77492">
        <ele>196</ele>
        <time>2016-11-28T11:26:51Z</time>
      </trkpt>
      <trkpt lat="45.95953" lon="4.77484">
        <ele>196</ele>
        <time>2016-11-28T11:26:52Z</time>
      </trkpt>
      <trkpt lat="45.9595" lon="4.77477">
        <ele>196</ele>
        <time>2016-11-28T11:26:53Z</time>
      </trkpt>
      <trkpt lat="45.95947" lon="4.77469">
        <ele>196</ele>
        <time>2016-11-28T11:26:54Z</time>
      </trkpt>
      <trkpt lat="45.95944" lon="4.77461">
        <ele>196</ele>
        <time>2016-11-28T11:26:55Z</time>
      </trkpt>
      <trkpt lat="45.95941" lon="4.77454">
        <ele>196</ele>
        <time>2016-11-28T11:26:56Z</time>
      </trkpt>
      <trkpt lat="45.95938" lon="4.77446">
        <ele>196</ele>
        <time>2016-11-28T11:26:57Z</time>
      </trkpt>
      <trkpt lat="45.95935" lon="4.77438">
        <ele>195</ele>
        <time>2016-11-28T11:26:58Z</time>
      </trkpt>
      <trkpt lat="45.95932" lon="4.77431">
        <ele>195</ele>
        <time>2016-11-28T11:26:59Z</time>
      </trkpt>
      <trkpt lat="45.95929" lon="4.77423">
        <ele>195</ele>
        <time>2016-11-28T11:27:00Z</time>
      </trkpt>
      <trkpt lat="45.95927" lon="4.77416">
        <ele>195</ele>
        <time>2016-11-28T11:27:01Z</time>
      </trkpt>
      <trkpt lat="45.95924" lon="4.77409">
        <ele>195</ele>
        <time>2016-11-28T11:27:02Z</time>
      </trkpt>
      <trkpt lat="45.95922" lon="4.77401">
        <ele>196</ele>
        <time>2016-11-28T11:27:03Z</time>
      </trkpt>
      <trkpt lat="45.95919" lon="4.77393">
        <ele>196</ele>
        <time>2016-11-28T11:27:04Z</time>
      </trkpt>
      <trkpt lat="45.95917" lon="4.77385">
        <ele>193</ele>
        <time>2016-11-28T11:27:05Z</time>
      </trkpt>
      <trkpt lat="45.95914" lon="4.77377">
        <ele>193</ele>
        <time>2016-11-28T11:27:06Z</time>
      </trkpt>
      <trkpt lat="45.95911" lon="4.77369">
        <ele>193</ele>
        <time>2016-11-28T11:27:07Z</time>
      </trkpt>
      <trkpt lat="45.95909" lon="4.77361">
        <ele>193</ele>
        <time>2016-11-28T11:27:08Z</time>
      </trkpt>
      <trkpt lat="45.95905" lon="4.77353">
        <ele>193</ele>
        <time>2016-11-28T11:27:09Z</time>
      </trkpt>
      <trkpt lat="45.95903" lon="4.77345">
        <ele>193</ele>
        <time>2016-11-28T11:27:10Z</time>
      </trkpt>
      <trkpt lat="45.959" lon="4.77337">
        <ele>193</ele>
        <time>2016-11-28T11:27:11Z</time>
      </trkpt>
      <trkpt lat="45.95897" lon="4.77328">
        <ele>194</ele>
        <time>2016-11-28T11:27:12Z</time>
      </trkpt>
      <trkpt lat="45.95894" lon="4.77319">
        <ele>193</ele>
        <time>2016-11-28T11:27:13Z</time>
      </trkpt>
      <trkpt lat="45.95892" lon="4.77309">
        <ele>193</ele>
        <time>2016-11-28T11:27:14Z</time>
      </trkpt>
      <trkpt lat="45.9589" lon="4.77299">
        <ele>193</ele>
        <time>2016-11-28T11:27:15Z</time>
      </trkpt>
      <trkpt lat="45.95888" lon="4.7729">
        <ele>193</ele>
        <time>2016-11-28T11:27:16Z</time>
      </trkpt>
      <trkpt lat="45.95886" lon="4.77279">
        <ele>193</ele>
        <time>2016-11-28T11:27:17Z</time>
      </trkpt>
      <trkpt lat="45.95884" lon="4.77269">
        <ele>193</ele>
        <time>2016-11-28T11:27:18Z</time>
      </trkpt>
      <trkpt lat="45.95882" lon="4.7726">
        <ele>193</ele>
        <time>2016-11-28T11:27:19Z</time>
      </trkpt>
      <trkpt lat="45.9588" lon="4.7725">
        <ele>193</ele>
        <time>2016-11-28T11:27:20Z</time>
      </trkpt>
      <trkpt lat="45.95878" lon="4.77241">
        <ele>193</ele>
        <time>2016-11-28T11:27:21Z</time>
      </trkpt>
      <trkpt lat="45.95876" lon="4.77232">
        <ele>193</ele>
        <time>2016-11-28T11:27:22Z</time>
      </trkpt>
      <trkpt lat="45.95874" lon="4.77223">
        <ele>193</ele>
        <time>2016-11-28T11:27:23Z</time>
      </trkpt>
      <trkpt lat="45.95871" lon="4.77214">
        <ele>193</ele>
        <time>2016-11-28T11:27:24Z</time>
      </trkpt>
      <trkpt lat="45.95869" lon="4.77206">
        <ele>193</ele>
        <time>2016-11-28T11:27:25Z</time>
      </trkpt>
      <trkpt lat="45.95867" lon="4.77197">
        <ele>193</ele>
        <time>2016-11-28T11:27:26Z</time>
      </trkpt>
      <trkpt lat="45.95864" lon="4.77189">
        <ele>193</ele>
        <time>2016-11-28T11:27:27Z</time>
      </trkpt>
      <trkpt lat="45.95862" lon="4.77181">
        <ele>192</ele>
        <time>2016-11-28T11:27:28Z</time>
      </trkpt>
      <trkpt lat="45.9586" lon="4.77172">
        <ele>192</ele>
        <time>2016-11-28T11:27:29Z</time>
      </trkpt>
      <trkpt lat="45.95858" lon="4.77163">
        <ele>192</ele>
        <time>2016-11-28T11:27:30Z</time>
      </trkpt>
      <trkpt lat="45.95856" lon="4.77153">
        <ele>193</ele>
        <time>2016-11-28T11:27:31Z</time>
      </trkpt>
      <trkpt lat="45.95854" lon="4.77144">
        <ele>193</ele>
        <time>2016-11-28T11:27:32Z</time>
      </trkpt>
      <trkpt lat="45.95851" lon="4.77134">
        <ele>193</ele>
        <time>2016-11-28T11:27:33Z</time>
      </trkpt>
      <trkpt lat="45.95848" lon="4.77124">
        <ele>193</ele>
        <time>2016-11-28T11:27:34Z</time>
      </trkpt>
      <trkpt lat="45.95845" lon="4.77115">
        <ele>193</ele>
        <time>2016-11-28T11:27:35Z</time>
      </trkpt>
      <trkpt lat="45.95842" lon="4.77105">
        <ele>193</ele>
        <time>2016-11-28T11:27:36Z</time>
      </trkpt>
      <trkpt lat="45.95839" lon="4.77096">
        <ele>193</ele>
        <time>2016-11-28T11:27:37Z</time>
      </trkpt>
      <trkpt lat="45.95836" lon="4.77086">
        <ele>192</ele>
        <time>2016-11-28T11:27:38Z</time>
      </trkpt>
      <trkpt lat="45.95833" lon="4.77077">
        <ele>191</ele>
        <time>2016-11-28T11:27:39Z</time>
      </trkpt>
      <trkpt lat="45.9583" lon="4.77069">
        <ele>191</ele>
        <time>2016-11-28T11:27:40Z</time>
      </trkpt>
      <trkpt lat="45.95826" lon="4.7706">
        <ele>190</ele>
        <time>2016-11-28T11:27:41Z</time>
      </trkpt>
      <trkpt lat="45.95822" lon="4.77051">
        <ele>190</ele>
        <time>2016-11-28T11:27:42Z</time>
      </trkpt>
      <trkpt lat="45.95819" lon="4.77043">
        <ele>190</ele>
        <time>2016-11-28T11:27:43Z</time>
      </trkpt>
      <trkpt lat="45.95814" lon="4.77034">
        <ele>190</ele>
        <time>2016-11-28T11:27:44Z</time>
      </trkpt>
      <trkpt lat="45.95811" lon="4.77026">
        <ele>190</ele>
        <time>2016-11-28T11:27:45Z</time>
      </trkpt>
      <trkpt lat="45.95808" lon="4.77016">
        <ele>190</ele>
        <time>2016-11-28T11:27:46Z</time>
      </trkpt>
      <trkpt lat="45.95806" lon="4.77007">
        <ele>190</ele>
        <time>2016-11-28T11:27:47Z</time>
      </trkpt>
      <trkpt lat="45.95804" lon="4.76997">
        <ele>190</ele>
        <time>2016-11-28T11:27:48Z</time>
      </trkpt>
      <trkpt lat="45.95803" lon="4.76987">
        <ele>189</ele>
        <time>2016-11-28T11:27:49Z</time>
      </trkpt>
      <trkpt lat="45.95803" lon="4.76978">
        <ele>189</ele>
        <time>2016-11-28T11:27:50Z</time>
      </trkpt>
      <trkpt lat="45.95804" lon="4.76969">
        <ele>189</ele>
        <time>2016-11-28T11:27:51Z</time>
      </trkpt>
      <trkpt lat="45.95805" lon="4.76959">
        <ele>189</ele>
        <time>2016-11-28T11:27:52Z</time>
      </trkpt>
      <trkpt lat="45.95807" lon="4.7695">
        <ele>189</ele>
        <time>2016-11-28T11:27:53Z</time>
      </trkpt>
      <trkpt lat="45.95809" lon="4.7694">
        <ele>189</ele>
        <time>2016-11-28T11:27:54Z</time>
      </trkpt>
      <trkpt lat="45.95811" lon="4.76931">
        <ele>189</ele>
        <time>2016-11-28T11:27:55Z</time>
      </trkpt>
      <trkpt lat="45.95813" lon="4.76922">
        <ele>189</ele>
        <time>2016-11-28T11:27:56Z</time>
      </trkpt>
      <trkpt lat="45.95815" lon="4.76912">
        <ele>189</ele>
        <time>2016-11-28T11:27:57Z</time>
      </trkpt>
      <trkpt lat="45.95817" lon="4.76903">
        <ele>189</ele>
        <time>2016-11-28T11:27:58Z</time>
      </trkpt>
      <trkpt lat="45.95819" lon="4.76894">
        <ele>189</ele>
        <time>2016-11-28T11:27:59Z</time>
      </trkpt>
      <trkpt lat="45.9582" lon="4.76886">
        <ele>189</ele>
        <time>2016-11-28T11:28:00Z</time>
      </trkpt>
      <trkpt lat="45.95822" lon="4.76878">
        <ele>189</ele>
        <time>2016-11-28T11:28:01Z</time>
      </trkpt>
      <trkpt lat="45.95824" lon="4.7687">
        <ele>189</ele>
        <time>2016-11-28T11:28:02Z</time>
      </trkpt>
      <trkpt lat="45.95825" lon="4.76862">
        <ele>189</ele>
        <time>2016-11-28T11:28:03Z</time>
      </trkpt>
      <trkpt lat="45.95826" lon="4.76854">
        <ele>189</ele>
        <time>2016-11-28T11:28:04Z</time>
      </trkpt>
      <trkpt lat="45.95828" lon="4.76847">
        <ele>190</ele>
        <time>2016-11-28T11:28:05Z</time>
      </trkpt>
      <trkpt lat="45.95829" lon="4.7684">
        <ele>190</ele>
        <time>2016-11-28T11:28:06Z</time>
      </trkpt>
      <trkpt lat="45.95831" lon="4.76834">
        <ele>190</ele>
        <time>2016-11-28T11:28:07Z</time>
      </trkpt>
      <trkpt lat="45.95832" lon="4.76827">
        <ele>190</ele>
        <time>2016-11-28T11:28:08Z</time>
      </trkpt>
      <trkpt lat="45.95833" lon="4.7682">
        <ele>190</ele>
        <time>2016-11-28T11:28:09Z</time>
      </trkpt>
      <trkpt lat="45.95833" lon="4.76814">
        <ele>190</ele>
        <time>2016-11-28T11:28:10Z</time>
      </trkpt>
      <trkpt lat="45.95835" lon="4.76802">
        <ele>191</ele>
        <time>2016-11-28T11:28:12Z</time>
      </trkpt>
      <trkpt lat="45.95836" lon="4.76797">
        <ele>191</ele>
        <time>2016-11-28T11:28:13Z</time>
      </trkpt>
      <trkpt lat="45.95834" lon="4.76788">
        <ele>191</ele>
        <time>2016-11-28T11:28:15Z</time>
      </trkpt>
      <trkpt lat="45.95833" lon="4.76784">
        <ele>190</ele>
        <time>2016-11-28T11:28:16Z</time>
      </trkpt>
      <trkpt lat="45.95829" lon="4.76773">
        <ele>190</ele>
        <time>2016-11-28T11:28:19Z</time>
      </trkpt>
      <trkpt lat="45.95828" lon="4.76768">
        <ele>190</ele>
        <time>2016-11-28T11:28:20Z</time>
      </trkpt>
      <trkpt lat="45.95828" lon="4.76762">
        <ele>190</ele>
        <time>2016-11-28T11:28:21Z</time>
      </trkpt>
      <trkpt lat="45.95827" lon="4.76755">
        <ele>191</ele>
        <time>2016-11-28T11:28:22Z</time>
      </trkpt>
      <trkpt lat="45.95827" lon="4.76747">
        <ele>190</ele>
        <time>2016-11-28T11:28:23Z</time>
      </trkpt>
      <trkpt lat="45.95826" lon="4.76739">
        <ele>190</ele>
        <time>2016-11-28T11:28:24Z</time>
      </trkpt>
      <trkpt lat="45.95824" lon="4.7673">
        <ele>190</ele>
        <time>2016-11-28T11:28:25Z</time>
      </trkpt>
      <trkpt lat="45.95823" lon="4.76722">
        <ele>189</ele>
        <time>2016-11-28T11:28:26Z</time>
      </trkpt>
      <trkpt lat="45.95821" lon="4.76713">
        <ele>189</ele>
        <time>2016-11-28T11:28:27Z</time>
      </trkpt>
      <trkpt lat="45.9582" lon="4.76704">
        <ele>189</ele>
        <time>2016-11-28T11:28:28Z</time>
      </trkpt>
      <trkpt lat="45.95819" lon="4.76695">
        <ele>189</ele>
        <time>2016-11-28T11:28:29Z</time>
      </trkpt>
      <trkpt lat="45.95818" lon="4.76687">
        <ele>189</ele>
        <time>2016-11-28T11:28:30Z</time>
      </trkpt>
      <trkpt lat="45.95817" lon="4.76678">
        <ele>189</ele>
        <time>2016-11-28T11:28:31Z</time>
      </trkpt>
      <trkpt lat="45.95815" lon="4.7667">
        <ele>189</ele>
        <time>2016-11-28T11:28:32Z</time>
      </trkpt>
      <trkpt lat="45.95814" lon="4.76662">
        <ele>188</ele>
        <time>2016-11-28T11:28:33Z</time>
      </trkpt>
      <trkpt lat="45.95813" lon="4.76654">
        <ele>188</ele>
        <time>2016-11-28T11:28:34Z</time>
      </trkpt>
      <trkpt lat="45.95813" lon="4.76646">
        <ele>188</ele>
        <time>2016-11-28T11:28:35Z</time>
      </trkpt>
      <trkpt lat="45.95812" lon="4.76639">
        <ele>188</ele>
        <time>2016-11-28T11:28:36Z</time>
      </trkpt>
      <trkpt lat="45.95811" lon="4.76631">
        <ele>188</ele>
        <time>2016-11-28T11:28:37Z</time>
      </trkpt>
      <trkpt lat="45.9581" lon="4.76624">
        <ele>188</ele>
        <time>2016-11-28T11:28:38Z</time>
      </trkpt>
      <trkpt lat="45.95808" lon="4.76616">
        <ele>188</ele>
        <time>2016-11-28T11:28:39Z</time>
      </trkpt>
      <trkpt lat="45.95807" lon="4.76608">
        <ele>188</ele>
        <time>2016-11-28T11:28:40Z</time>
      </trkpt>
      <trkpt lat="45.95805" lon="4.766">
        <ele>188</ele>
        <time>2016-11-28T11:28:41Z</time>
      </trkpt>
      <trkpt lat="45.95804" lon="4.76592">
        <ele>188</ele>
        <time>2016-11-28T11:28:42Z</time>
      </trkpt>
      <trkpt lat="45.95803" lon="4.76584">
        <ele>187</ele>
        <time>2016-11-28T11:28:43Z</time>
      </trkpt>
      <trkpt lat="45.95801" lon="4.76574">
        <ele>187</ele>
        <time>2016-11-28T11:28:44Z</time>
      </trkpt>
      <trkpt lat="45.95799" lon="4.76565">
        <ele>187</ele>
        <time>2016-11-28T11:28:45Z</time>
      </trkpt>
      <trkpt lat="45.95798" lon="4.76556">
        <ele>187</ele>
        <time>2016-11-28T11:28:46Z</time>
      </trkpt>
      <trkpt lat="45.95797" lon="4.76546">
        <ele>187</ele>
        <time>2016-11-28T11:28:47Z</time>
      </trkpt>
      <trkpt lat="45.95796" lon="4.76537">
        <ele>187</ele>
        <time>2016-11-28T11:28:48Z</time>
      </trkpt>
      <trkpt lat="45.95794" lon="4.76528">
        <ele>187</ele>
        <time>2016-11-28T11:28:49Z</time>
      </trkpt>
      <trkpt lat="45.95793" lon="4.76519">
        <ele>187</ele>
        <time>2016-11-28T11:28:50Z</time>
      </trkpt>
      <trkpt lat="45.95792" lon="4.7651">
        <ele>187</ele>
        <time>2016-11-28T11:28:51Z</time>
      </trkpt>
      <trkpt lat="45.9579" lon="4.76502">
        <ele>187</ele>
        <time>2016-11-28T11:28:52Z</time>
      </trkpt>
      <trkpt lat="45.95789" lon="4.76494">
        <ele>186</ele>
        <time>2016-11-28T11:28:53Z</time>
      </trkpt>
      <trkpt lat="45.95787" lon="4.76486">
        <ele>186</ele>
        <time>2016-11-28T11:28:54Z</time>
      </trkpt>
      <trkpt lat="45.95786" lon="4.76478">
        <ele>186</ele>
        <time>2016-11-28T11:28:55Z</time>
      </trkpt>
      <trkpt lat="45.95785" lon="4.7647">
        <ele>186</ele>
        <time>2016-11-28T11:28:56Z</time>
      </trkpt>
      <trkpt lat="45.95784" lon="4.76462">
        <ele>186</ele>
        <time>2016-11-28T11:28:57Z</time>
      </trkpt>
      <trkpt lat="45.95783" lon="4.76455">
        <ele>186</ele>
        <time>2016-11-28T11:28:58Z</time>
      </trkpt>
      <trkpt lat="45.95782" lon="4.76447">
        <ele>186</ele>
        <time>2016-11-28T11:28:59Z</time>
      </trkpt>
      <trkpt lat="45.9578" lon="4.76438">
        <ele>186</ele>
        <time>2016-11-28T11:29:00Z</time>
      </trkpt>
      <trkpt lat="45.95779" lon="4.76431">
        <ele>186</ele>
        <time>2016-11-28T11:29:01Z</time>
      </trkpt>
      <trkpt lat="45.95778" lon="4.76423">
        <ele>186</ele>
        <time>2016-11-28T11:29:02Z</time>
      </trkpt>
      <trkpt lat="45.95778" lon="4.76415">
        <ele>186</ele>
        <time>2016-11-28T11:29:03Z</time>
      </trkpt>
      <trkpt lat="45.95777" lon="4.76407">
        <ele>186</ele>
        <time>2016-11-28T11:29:04Z</time>
      </trkpt>
      <trkpt lat="45.95776" lon="4.76399">
        <ele>186</ele>
        <time>2016-11-28T11:29:05Z</time>
      </trkpt>
      <trkpt lat="45.95776" lon="4.76391">
        <ele>186</ele>
        <time>2016-11-28T11:29:06Z</time>
      </trkpt>
      <trkpt lat="45.95776" lon="4.76383">
        <ele>186</ele>
        <time>2016-11-28T11:29:07Z</time>
      </trkpt>
      <trkpt lat="45.95775" lon="4.76376">
        <ele>186</ele>
        <time>2016-11-28T11:29:08Z</time>
      </trkpt>
      <trkpt lat="45.95775" lon="4.76368">
        <ele>186</ele>
        <time>2016-11-28T11:29:09Z</time>
      </trkpt>
      <trkpt lat="45.95774" lon="4.76361">
        <ele>186</ele>
        <time>2016-11-28T11:29:10Z</time>
      </trkpt>
      <trkpt lat="45.95774" lon="4.76354">
        <ele>186</ele>
        <time>2016-11-28T11:29:11Z</time>
      </trkpt>
      <trkpt lat="45.95774" lon="4.76346">
        <ele>186</ele>
        <time>2016-11-28T11:29:12Z</time>
      </trkpt>
      <trkpt lat="45.95773" lon="4.76338">
        <ele>186</ele>
        <time>2016-11-28T11:29:13Z</time>
      </trkpt>
      <trkpt lat="45.95773" lon="4.7633">
        <ele>185</ele>
        <time>2016-11-28T11:29:14Z</time>
      </trkpt>
      <trkpt lat="45.95772" lon="4.76321">
        <ele>185</ele>
        <time>2016-11-28T11:29:15Z</time>
      </trkpt>
      <trkpt lat="45.95771" lon="4.76312">
        <ele>186</ele>
        <time>2016-11-28T11:29:16Z</time>
      </trkpt>
      <trkpt lat="45.95771" lon="4.76303">
        <ele>186</ele>
        <time>2016-11-28T11:29:17Z</time>
      </trkpt>
      <trkpt lat="45.95771" lon="4.76294">
        <ele>186</ele>
        <time>2016-11-28T11:29:18Z</time>
      </trkpt>
      <trkpt lat="45.9577" lon="4.76285">
        <ele>186</ele>
        <time>2016-11-28T11:29:19Z</time>
      </trkpt>
      <trkpt lat="45.9577" lon="4.76276">
        <ele>186</ele>
        <time>2016-11-28T11:29:20Z</time>
      </trkpt>
      <trkpt lat="45.95769" lon="4.76267">
        <ele>186</ele>
        <time>2016-11-28T11:29:21Z</time>
      </trkpt>
      <trkpt lat="45.95769" lon="4.76258">
        <ele>185</ele>
        <time>2016-11-28T11:29:22Z</time>
      </trkpt>
      <trkpt lat="45.95769" lon="4.7625">
        <ele>186</ele>
        <time>2016-11-28T11:29:23Z</time>
      </trkpt>
      <trkpt lat="45.95769" lon="4.76242">
        <ele>186</ele>
        <time>2016-11-28T11:29:24Z</time>
      </trkpt>
      <trkpt lat="45.95768" lon="4.76234">
        <ele>186</ele>
        <time>2016-11-28T11:29:25Z</time>
      </trkpt>
      <trkpt lat="45.95768" lon="4.76227">
        <ele>186</ele>
        <time>2016-11-28T11:29:26Z</time>
      </trkpt>
      <trkpt lat="45.95768" lon="4.76219">
        <ele>186</ele>
        <time>2016-11-28T11:29:27Z</time>
      </trkpt>
      <trkpt lat="45.95767" lon="4.76212">
        <ele>186</ele>
        <time>2016-11-28T11:29:28Z</time>
      </trkpt>
      <trkpt lat="45.95767" lon="4.76204">
        <ele>186</ele>
        <time>2016-11-28T11:29:29Z</time>
      </trkpt>
      <trkpt lat="45.95766" lon="4.76196">
        <ele>186</ele>
        <time>2016-11-28T11:29:30Z</time>
      </trkpt>
      <trkpt lat="45.95766" lon="4.76189">
        <ele>186</ele>
        <time>2016-11-28T11:29:31Z</time>
      </trkpt>
      <trkpt lat="45.95765" lon="4.76181">
        <ele>186</ele>
        <time>2016-11-28T11:29:32Z</time>
      </trkpt>
      <trkpt lat="45.95765" lon="4.76173">
        <ele>185</ele>
        <time>2016-11-28T11:29:33Z</time>
      </trkpt>
      <trkpt lat="45.95764" lon="4.76165">
        <ele>186</ele>
        <time>2016-11-28T11:29:34Z</time>
      </trkpt>
      <trkpt lat="45.95764" lon="4.76157">
        <ele>186</ele>
        <time>2016-11-28T11:29:35Z</time>
      </trkpt>
      <trkpt lat="45.95763" lon="4.76149">
        <ele>186</ele>
        <time>2016-11-28T11:29:36Z</time>
      </trkpt>
      <trkpt lat="45.95763" lon="4.76141">
        <ele>186</ele>
        <time>2016-11-28T11:29:37Z</time>
      </trkpt>
      <trkpt lat="45.95762" lon="4.76133">
        <ele>186</ele>
        <time>2016-11-28T11:29:38Z</time>
      </trkpt>
      <trkpt lat="45.95761" lon="4.76126">
        <ele>186</ele>
        <time>2016-11-28T11:29:39Z</time>
      </trkpt>
      <trkpt lat="45.9576" lon="4.76118">
        <ele>186</ele>
        <time>2016-11-28T11:29:40Z</time>
      </trkpt>
      <trkpt lat="45.95759" lon="4.7611">
        <ele>186</ele>
        <time>2016-11-28T11:29:41Z</time>
      </trkpt>
      <trkpt lat="45.95757" lon="4.76103">
        <ele>186</ele>
        <time>2016-11-28T11:29:42Z</time>
      </trkpt>
      <trkpt lat="45.95755" lon="4.76095">
        <ele>186</ele>
        <time>2016-11-28T11:29:43Z</time>
      </trkpt>
      <trkpt lat="45.95753" lon="4.76087">
        <ele>185</ele>
        <time>2016-11-28T11:29:44Z</time>
      </trkpt>
      <trkpt lat="45.9575" lon="4.76079">
        <ele>185</ele>
        <time>2016-11-28T11:29:45Z</time>
      </trkpt>
      <trkpt lat="45.95746" lon="4.76071">
        <ele>185</ele>
        <time>2016-11-28T11:29:46Z</time>
      </trkpt>
      <trkpt lat="45.95743" lon="4.76063">
        <ele>184</ele>
        <time>2016-11-28T11:29:47Z</time>
      </trkpt>
      <trkpt lat="45.95739" lon="4.76055">
        <ele>184</ele>
        <time>2016-11-28T11:29:48Z</time>
      </trkpt>
      <trkpt lat="45.95736" lon="4.76047">
        <ele>184</ele>
        <time>2016-11-28T11:29:49Z</time>
      </trkpt>
      <trkpt lat="45.95733" lon="4.76039">
        <ele>184</ele>
        <time>2016-11-28T11:29:50Z</time>
      </trkpt>
      <trkpt lat="45.95729" lon="4.76031">
        <ele>184</ele>
        <time>2016-11-28T11:29:51Z</time>
      </trkpt>
      <trkpt lat="45.95726" lon="4.76024">
        <ele>184</ele>
        <time>2016-11-28T11:29:52Z</time>
      </trkpt>
      <trkpt lat="45.95722" lon="4.76016">
        <ele>184</ele>
        <time>2016-11-28T11:29:53Z</time>
      </trkpt>
      <trkpt lat="45.95719" lon="4.76009">
        <ele>184</ele>
        <time>2016-11-28T11:29:54Z</time>
      </trkpt>
      <trkpt lat="45.95715" lon="4.76002">
        <ele>184</ele>
        <time>2016-11-28T11:29:55Z</time>
      </trkpt>
      <trkpt lat="45.95712" lon="4.75996">
        <ele>185</ele>
        <time>2016-11-28T11:29:56Z</time>
      </trkpt>
      <trkpt lat="45.95709" lon="4.75989">
        <ele>185</ele>
        <time>2016-11-28T11:29:57Z</time>
      </trkpt>
      <trkpt lat="45.95705" lon="4.75982">
        <ele>185</ele>
        <time>2016-11-28T11:29:58Z</time>
      </trkpt>
      <trkpt lat="45.95701" lon="4.75974">
        <ele>185</ele>
        <time>2016-11-28T11:29:59Z</time>
      </trkpt>
      <trkpt lat="45.95698" lon="4.75967">
        <ele>185</ele>
        <time>2016-11-28T11:30:00Z</time>
      </trkpt>
      <trkpt lat="45.95696" lon="4.7596">
        <ele>185</ele>
        <time>2016-11-28T11:30:01Z</time>
      </trkpt>
      <trkpt lat="45.95693" lon="4.75952">
        <ele>185</ele>
        <time>2016-11-28T11:30:02Z</time>
      </trkpt>
      <trkpt lat="45.9569" lon="4.75945">
        <ele>185</ele>
        <time>2016-11-28T11:30:03Z</time>
      </trkpt>
      <trkpt lat="45.95686" lon="4.75938">
        <ele>185</ele>
        <time>2016-11-28T11:30:04Z</time>
      </trkpt>
      <trkpt lat="45.95683" lon="4.75931">
        <ele>185</ele>
        <time>2016-11-28T11:30:05Z</time>
      </trkpt>
      <trkpt lat="45.9568" lon="4.75923">
        <ele>185</ele>
        <time>2016-11-28T11:30:06Z</time>
      </trkpt>
      <trkpt lat="45.95677" lon="4.75916">
        <ele>185</ele>
        <time>2016-11-28T11:30:07Z</time>
      </trkpt>
      <trkpt lat="45.95674" lon="4.75908">
        <ele>185</ele>
        <time>2016-11-28T11:30:08Z</time>
      </trkpt>
      <trkpt lat="45.95671" lon="4.75901">
        <ele>185</ele>
        <time>2016-11-28T11:30:09Z</time>
      </trkpt>
      <trkpt lat="45.95668" lon="4.75893">
        <ele>186</ele>
        <time>2016-11-28T11:30:10Z</time>
      </trkpt>
      <trkpt lat="45.95666" lon="4.75886">
        <ele>184</ele>
        <time>2016-11-28T11:30:11Z</time>
      </trkpt>
      <trkpt lat="45.95663" lon="4.75878">
        <ele>184</ele>
        <time>2016-11-28T11:30:12Z</time>
      </trkpt>
      <trkpt lat="45.95661" lon="4.75871">
        <ele>184</ele>
        <time>2016-11-28T11:30:13Z</time>
      </trkpt>
      <trkpt lat="45.95659" lon="4.75863">
        <ele>184</ele>
        <time>2016-11-28T11:30:14Z</time>
      </trkpt>
      <trkpt lat="45.95657" lon="4.75856">
        <ele>184</ele>
        <time>2016-11-28T11:30:15Z</time>
      </trkpt>
      <trkpt lat="45.95655" lon="4.75848">
        <ele>185</ele>
        <time>2016-11-28T11:30:16Z</time>
      </trkpt>
      <trkpt lat="45.95653" lon="4.7584">
        <ele>185</ele>
        <time>2016-11-28T11:30:17Z</time>
      </trkpt>
      <trkpt lat="45.95651" lon="4.75832">
        <ele>185</ele>
        <time>2016-11-28T11:30:18Z</time>
      </trkpt>
      <trkpt lat="45.95649" lon="4.75824">
        <ele>185</ele>
        <time>2016-11-28T11:30:19Z</time>
      </trkpt>
      <trkpt lat="45.95648" lon="4.75816">
        <ele>185</ele>
        <time>2016-11-28T11:30:20Z</time>
      </trkpt>
      <trkpt lat="45.95646" lon="4.75807">
        <ele>185</ele>
        <time>2016-11-28T11:30:21Z</time>
      </trkpt>
      <trkpt lat="45.95645" lon="4.75799">
        <ele>185</ele>
        <time>2016-11-28T11:30:22Z</time>
      </trkpt>
      <trkpt lat="45.95644" lon="4.7579">
        <ele>185</ele>
        <time>2016-11-28T11:30:23Z</time>
      </trkpt>
      <trkpt lat="45.95643" lon="4.75781">
        <ele>186</ele>
        <time>2016-11-28T11:30:24Z</time>
      </trkpt>
      <trkpt lat="45.95642" lon="4.75772">
        <ele>186</ele>
        <time>2016-11-28T11:30:25Z</time>
      </trkpt>
      <trkpt lat="45.95641" lon="4.75763">
        <ele>186</ele>
        <time>2016-11-28T11:30:26Z</time>
      </trkpt>
      <trkpt lat="45.95639" lon="4.75754">
        <ele>186</ele>
        <time>2016-11-28T11:30:27Z</time>
      </trkpt>
      <trkpt lat="45.95638" lon="4.75746">
        <ele>187</ele>
        <time>2016-11-28T11:30:28Z</time>
      </trkpt>
      <trkpt lat="45.95637" lon="4.75738">
        <ele>187</ele>
        <time>2016-11-28T11:30:29Z</time>
      </trkpt>
      <trkpt lat="45.95635" lon="4.7573">
        <ele>187</ele>
        <time>2016-11-28T11:30:30Z</time>
      </trkpt>
      <trkpt lat="45.95634" lon="4.75722">
        <ele>187</ele>
        <time>2016-11-28T11:30:31Z</time>
      </trkpt>
      <trkpt lat="45.95633" lon="4.75715">
        <ele>187</ele>
        <time>2016-11-28T11:30:32Z</time>
      </trkpt>
      <trkpt lat="45.95632" lon="4.75707">
        <ele>187</ele>
        <time>2016-11-28T11:30:33Z</time>
      </trkpt>
      <trkpt lat="45.95631" lon="4.757">
        <ele>187</ele>
        <time>2016-11-28T11:30:34Z</time>
      </trkpt>
      <trkpt lat="45.95629" lon="4.75693">
        <ele>187</ele>
        <time>2016-11-28T11:30:35Z</time>
      </trkpt>
      <trkpt lat="45.95628" lon="4.75685">
        <ele>187</ele>
        <time>2016-11-28T11:30:36Z</time>
      </trkpt>
      <trkpt lat="45.95627" lon="4.75678">
        <ele>187</ele>
        <time>2016-11-28T11:30:37Z</time>
      </trkpt>
      <trkpt lat="45.95626" lon="4.7567">
        <ele>187</ele>
        <time>2016-11-28T11:30:38Z</time>
      </trkpt>
      <trkpt lat="45.95624" lon="4.75662">
        <ele>188</ele>
        <time>2016-11-28T11:30:39Z</time>
      </trkpt>
      <trkpt lat="45.95623" lon="4.75655">
        <ele>188</ele>
        <time>2016-11-28T11:30:40Z</time>
      </trkpt>
      <trkpt lat="45.95621" lon="4.75647">
        <ele>188</ele>
        <time>2016-11-28T11:30:41Z</time>
      </trkpt>
      <trkpt lat="45.95619" lon="4.75639">
        <ele>188</ele>
        <time>2016-11-28T11:30:42Z</time>
      </trkpt>
      <trkpt lat="45.95617" lon="4.75632">
        <ele>188</ele>
        <time>2016-11-28T11:30:43Z</time>
      </trkpt>
      <trkpt lat="45.95615" lon="4.75624">
        <ele>188</ele>
        <time>2016-11-28T11:30:44Z</time>
      </trkpt>
      <trkpt lat="45.95612" lon="4.75616">
        <ele>188</ele>
        <time>2016-11-28T11:30:45Z</time>
      </trkpt>
      <trkpt lat="45.95609" lon="4.75608">
        <ele>188</ele>
        <time>2016-11-28T11:30:46Z</time>
      </trkpt>
      <trkpt lat="45.95606" lon="4.75601">
        <ele>187</ele>
        <time>2016-11-28T11:30:47Z</time>
      </trkpt>
      <trkpt lat="45.95604" lon="4.75593">
        <ele>187</ele>
        <time>2016-11-28T11:30:48Z</time>
      </trkpt>
      <trkpt lat="45.95601" lon="4.75586">
        <ele>187</ele>
        <time>2016-11-28T11:30:49Z</time>
      </trkpt>
      <trkpt lat="45.95598" lon="4.75579">
        <ele>188</ele>
        <time>2016-11-28T11:30:50Z</time>
      </trkpt>
      <trkpt lat="45.95594" lon="4.75572">
        <ele>188</ele>
        <time>2016-11-28T11:30:51Z</time>
      </trkpt>
      <trkpt lat="45.95591" lon="4.75565">
        <ele>188</ele>
        <time>2016-11-28T11:30:52Z</time>
      </trkpt>
      <trkpt lat="45.95587" lon="4.75559">
        <ele>188</ele>
        <time>2016-11-28T11:30:53Z</time>
      </trkpt>
      <trkpt lat="45.95582" lon="4.75553">
        <ele>186</ele>
        <time>2016-11-28T11:30:54Z</time>
      </trkpt>
      <trkpt lat="45.95578" lon="4.75547">
        <ele>186</ele>
        <time>2016-11-28T11:30:55Z</time>
      </trkpt>
      <trkpt lat="45.95573" lon="4.75542">
        <ele>186</ele>
        <time>2016-11-28T11:30:56Z</time>
      </trkpt>
      <trkpt lat="45.95568" lon="4.75536">
        <ele>186</ele>
        <time>2016-11-28T11:30:57Z</time>
      </trkpt>
      <trkpt lat="45.95563" lon="4.75531">
        <ele>186</ele>
        <time>2016-11-28T11:30:58Z</time>
      </trkpt>
      <trkpt lat="45.95558" lon="4.75525">
        <ele>186</ele>
        <time>2016-11-28T11:30:59Z</time>
      </trkpt>
      <trkpt lat="45.95554" lon="4.7552">
        <ele>186</ele>
        <time>2016-11-28T11:31:00Z</time>
      </trkpt>
      <trkpt lat="45.95549" lon="4.75514">
        <ele>186</ele>
        <time>2016-11-28T11:31:01Z</time>
      </trkpt>
      <trkpt lat="45.95546" lon="4.75508">
        <ele>186</ele>
        <time>2016-11-28T11:31:02Z</time>
      </trkpt>
      <trkpt lat="45.95543" lon="4.75502">
        <ele>186</ele>
        <time>2016-11-28T11:31:03Z</time>
      </trkpt>
      <trkpt lat="45.95541" lon="4.75495">
        <ele>187</ele>
        <time>2016-11-28T11:31:04Z</time>
      </trkpt>
      <trkpt lat="45.9554" lon="4.75488">
        <ele>187</ele>
        <time>2016-11-28T11:31:05Z</time>
      </trkpt>
      <trkpt lat="45.9554" lon="4.7548">
        <ele>187</ele>
        <time>2016-11-28T11:31:06Z</time>
      </trkpt>
      <trkpt lat="45.9554" lon="4.75473">
        <ele>187</ele>
        <time>2016-11-28T11:31:07Z</time>
      </trkpt>
      <trkpt lat="45.95539" lon="4.75465">
        <ele>187</ele>
        <time>2016-11-28T11:31:08Z</time>
      </trkpt>
      <trkpt lat="45.95536" lon="4.75458">
        <ele>187</ele>
        <time>2016-11-28T11:31:09Z</time>
      </trkpt>
      <trkpt lat="45.95532" lon="4.75452">
        <ele>187</ele>
        <time>2016-11-28T11:31:10Z</time>
      </trkpt>
      <trkpt lat="45.95527" lon="4.75446">
        <ele>187</ele>
        <time>2016-11-28T11:31:11Z</time>
      </trkpt>
      <trkpt lat="45.95523" lon="4.7544">
        <ele>187</ele>
        <time>2016-11-28T11:31:12Z</time>
      </trkpt>
      <trkpt lat="45.95519" lon="4.75433">
        <ele>187</ele>
        <time>2016-11-28T11:31:13Z</time>
      </trkpt>
      <trkpt lat="45.95516" lon="4.75425">
        <ele>186</ele>
        <time>2016-11-28T11:31:14Z</time>
      </trkpt>
      <trkpt lat="45.95513" lon="4.75418">
        <ele>186</ele>
        <time>2016-11-28T11:31:15Z</time>
      </trkpt>
      <trkpt lat="45.95511" lon="4.75411">
        <ele>187</ele>
        <time>2016-11-28T11:31:16Z</time>
      </trkpt>
      <trkpt lat="45.95509" lon="4.75404">
        <ele>187</ele>
        <time>2016-11-28T11:31:17Z</time>
      </trkpt>
      <trkpt lat="45.95506" lon="4.75397">
        <ele>188</ele>
        <time>2016-11-28T11:31:18Z</time>
      </trkpt>
      <trkpt lat="45.95503" lon="4.75391">
        <ele>188</ele>
        <time>2016-11-28T11:31:19Z</time>
      </trkpt>
      <trkpt lat="45.955" lon="4.75384">
        <ele>188</ele>
        <time>2016-11-28T11:31:20Z</time>
      </trkpt>
      <trkpt lat="45.95497" lon="4.75377">
        <ele>185</ele>
        <time>2016-11-28T11:31:21Z</time>
      </trkpt>
      <trkpt lat="45.95494" lon="4.75371">
        <ele>186</ele>
        <time>2016-11-28T11:31:22Z</time>
      </trkpt>
      <trkpt lat="45.95491" lon="4.75365">
        <ele>186</ele>
        <time>2016-11-28T11:31:23Z</time>
      </trkpt>
      <trkpt lat="45.95488" lon="4.75358">
        <ele>186</ele>
        <time>2016-11-28T11:31:24Z</time>
      </trkpt>
      <trkpt lat="45.95484" lon="4.75351">
        <ele>186</ele>
        <time>2016-11-28T11:31:25Z</time>
      </trkpt>
      <trkpt lat="45.95481" lon="4.75344">
        <ele>186</ele>
        <time>2016-11-28T11:31:26Z</time>
      </trkpt>
      <trkpt lat="45.95478" lon="4.75337">
        <ele>186</ele>
        <time>2016-11-28T11:31:27Z</time>
      </trkpt>
      <trkpt lat="45.95474" lon="4.7533">
        <ele>188</ele>
        <time>2016-11-28T11:31:28Z</time>
      </trkpt>
      <trkpt lat="45.95471" lon="4.75324">
        <ele>188</ele>
        <time>2016-11-28T11:31:29Z</time>
      </trkpt>
      <trkpt lat="45.95467" lon="4.75317">
        <ele>188</ele>
        <time>2016-11-28T11:31:30Z</time>
      </trkpt>
      <trkpt lat="45.95463" lon="4.7531">
        <ele>188</ele>
        <time>2016-11-28T11:31:31Z</time>
      </trkpt>
      <trkpt lat="45.9546" lon="4.75304">
        <ele>188</ele>
        <time>2016-11-28T11:31:32Z</time>
      </trkpt>
      <trkpt lat="45.95456" lon="4.75298">
        <ele>188</ele>
        <time>2016-11-28T11:31:33Z</time>
      </trkpt>
      <trkpt lat="45.95453" lon="4.75293">
        <ele>188</ele>
        <time>2016-11-28T11:31:34Z</time>
      </trkpt>
      <trkpt lat="45.95451" lon="4.75287">
        <ele>188</ele>
        <time>2016-11-28T11:31:35Z</time>
      </trkpt>
      <trkpt lat="45.95447" lon="4.75281">
        <ele>189</ele>
        <time>2016-11-28T11:31:36Z</time>
      </trkpt>
      <trkpt lat="45.95444" lon="4.75276">
        <ele>189</ele>
        <time>2016-11-28T11:31:37Z</time>
      </trkpt>
      <trkpt lat="45.95442" lon="4.7527">
        <ele>189</ele>
        <time>2016-11-28T11:31:38Z</time>
      </trkpt>
      <trkpt lat="45.95439" lon="4.75265">
        <ele>189</ele>
        <time>2016-11-28T11:31:39Z</time>
      </trkpt>
      <trkpt lat="45.95436" lon="4.75259">
        <ele>189</ele>
        <time>2016-11-28T11:31:40Z</time>
      </trkpt>
      <trkpt lat="45.95433" lon="4.75253">
        <ele>189</ele>
        <time>2016-11-28T11:31:41Z</time>
      </trkpt>
      <trkpt lat="45.95431" lon="4.75248">
        <ele>190</ele>
        <time>2016-11-28T11:31:42Z</time>
      </trkpt>
      <trkpt lat="45.95428" lon="4.75242">
        <ele>190</ele>
        <time>2016-11-28T11:31:43Z</time>
      </trkpt>
      <trkpt lat="45.95425" lon="4.75236">
        <ele>190</ele>
        <time>2016-11-28T11:31:44Z</time>
      </trkpt>
      <trkpt lat="45.95421" lon="4.75231">
        <ele>190</ele>
        <time>2016-11-28T11:31:45Z</time>
      </trkpt>
      <trkpt lat="45.95418" lon="4.75226">
        <ele>191</ele>
        <time>2016-11-28T11:31:46Z</time>
      </trkpt>
      <trkpt lat="45.95413" lon="4.75216">
        <ele>189</ele>
        <time>2016-11-28T11:31:48Z</time>
      </trkpt>
      <trkpt lat="45.9541" lon="4.7521">
        <ele>189</ele>
        <time>2016-11-28T11:31:49Z</time>
      </trkpt>
      <trkpt lat="45.95407" lon="4.75204">
        <ele>189</ele>
        <time>2016-11-28T11:31:50Z</time>
      </trkpt>
      <trkpt lat="45.95404" lon="4.75198">
        <ele>189</ele>
        <time>2016-11-28T11:31:51Z</time>
      </trkpt>
      <trkpt lat="45.95401" lon="4.75193">
        <ele>189</ele>
        <time>2016-11-28T11:31:52Z</time>
      </trkpt>
      <trkpt lat="45.95398" lon="4.75188">
        <ele>189</ele>
        <time>2016-11-28T11:31:53Z</time>
      </trkpt>
      <trkpt lat="45.95394" lon="4.75183">
        <ele>189</ele>
        <time>2016-11-28T11:31:54Z</time>
      </trkpt>
      <trkpt lat="45.95391" lon="4.75178">
        <ele>189</ele>
        <time>2016-11-28T11:31:55Z</time>
      </trkpt>
      <trkpt lat="45.95388" lon="4.75173">
        <ele>189</ele>
        <time>2016-11-28T11:31:56Z</time>
      </trkpt>
      <trkpt lat="45.95385" lon="4.75168">
        <ele>189</ele>
        <time>2016-11-28T11:31:57Z</time>
      </trkpt>
      <trkpt lat="45.95382" lon="4.75162">
        <ele>191</ele>
        <time>2016-11-28T11:31:58Z</time>
      </trkpt>
      <trkpt lat="45.95378" lon="4.75157">
        <ele>191</ele>
        <time>2016-11-28T11:31:59Z</time>
      </trkpt>
      <trkpt lat="45.95375" lon="4.75151">
        <ele>191</ele>
        <time>2016-11-28T11:32:00Z</time>
      </trkpt>
      <trkpt lat="45.95371" lon="4.75145">
        <ele>191</ele>
        <time>2016-11-28T11:32:01Z</time>
      </trkpt>
      <trkpt lat="45.95368" lon="4.75139">
        <ele>191</ele>
        <time>2016-11-28T11:32:02Z</time>
      </trkpt>
      <trkpt lat="45.95365" lon="4.75134">
        <ele>191</ele>
        <time>2016-11-28T11:32:03Z</time>
      </trkpt>
      <trkpt lat="45.95362" lon="4.75129">
        <ele>191</ele>
        <time>2016-11-28T11:32:04Z</time>
      </trkpt>
      <trkpt lat="45.95358" lon="4.75123">
        <ele>191</ele>
        <time>2016-11-28T11:32:05Z</time>
      </trkpt>
      <trkpt lat="45.95355" lon="4.75118">
        <ele>192</ele>
        <time>2016-11-28T11:32:06Z</time>
      </trkpt>
      <trkpt lat="45.95352" lon="4.75112">
        <ele>192</ele>
        <time>2016-11-28T11:32:07Z</time>
      </trkpt>
      <trkpt lat="45.95348" lon="4.75107">
        <ele>192</ele>
        <time>2016-11-28T11:32:08Z</time>
      </trkpt>
      <trkpt lat="45.95345" lon="4.75102">
        <ele>192</ele>
        <time>2016-11-28T11:32:09Z</time>
      </trkpt>
      <trkpt lat="45.95342" lon="4.75098">
        <ele>192</ele>
        <time>2016-11-28T11:32:10Z</time>
      </trkpt>
      <trkpt lat="45.95339" lon="4.75092">
        <ele>192</ele>
        <time>2016-11-28T11:32:11Z</time>
      </trkpt>
      <trkpt lat="45.95336" lon="4.75087">
        <ele>193</ele>
        <time>2016-11-28T11:32:12Z</time>
      </trkpt>
      <trkpt lat="45.95332" lon="4.75082">
        <ele>193</ele>
        <time>2016-11-28T11:32:13Z</time>
      </trkpt>
      <trkpt lat="45.95329" lon="4.75077">
        <ele>193</ele>
        <time>2016-11-28T11:32:14Z</time>
      </trkpt>
      <trkpt lat="45.95326" lon="4.75072">
        <ele>192</ele>
        <time>2016-11-28T11:32:15Z</time>
      </trkpt>
      <trkpt lat="45.95323" lon="4.75066">
        <ele>192</ele>
        <time>2016-11-28T11:32:16Z</time>
      </trkpt>
      <trkpt lat="45.95319" lon="4.75061">
        <ele>192</ele>
        <time>2016-11-28T11:32:17Z</time>
      </trkpt>
      <trkpt lat="45.95316" lon="4.75056">
        <ele>192</ele>
        <time>2016-11-28T11:32:18Z</time>
      </trkpt>
      <trkpt lat="45.95313" lon="4.7505">
        <ele>192</ele>
        <time>2016-11-28T11:32:19Z</time>
      </trkpt>
      <trkpt lat="45.9531" lon="4.75044">
        <ele>192</ele>
        <time>2016-11-28T11:32:20Z</time>
      </trkpt>
      <trkpt lat="45.95306" lon="4.7504">
        <ele>192</ele>
        <time>2016-11-28T11:32:21Z</time>
      </trkpt>
      <trkpt lat="45.95303" lon="4.75034">
        <ele>192</ele>
        <time>2016-11-28T11:32:22Z</time>
      </trkpt>
      <trkpt lat="45.95299" lon="4.75029">
        <ele>191</ele>
        <time>2016-11-28T11:32:23Z</time>
      </trkpt>
      <trkpt lat="45.95295" lon="4.75023">
        <ele>191</ele>
        <time>2016-11-28T11:32:24Z</time>
      </trkpt>
      <trkpt lat="45.95292" lon="4.75018">
        <ele>191</ele>
        <time>2016-11-28T11:32:25Z</time>
      </trkpt>
      <trkpt lat="45.95288" lon="4.75013">
        <ele>191</ele>
        <time>2016-11-28T11:32:26Z</time>
      </trkpt>
      <trkpt lat="45.95284" lon="4.75007">
        <ele>191</ele>
        <time>2016-11-28T11:32:27Z</time>
      </trkpt>
      <trkpt lat="45.95277" lon="4.74999">
        <ele>192</ele>
        <time>2016-11-28T11:32:29Z</time>
      </trkpt>
      <trkpt lat="45.95274" lon="4.74995">
        <ele>192</ele>
        <time>2016-11-28T11:32:30Z</time>
      </trkpt>
      <trkpt lat="45.95271" lon="4.7499">
        <ele>192</ele>
        <time>2016-11-28T11:32:31Z</time>
      </trkpt>
      <trkpt lat="45.95268" lon="4.74984">
        <ele>192</ele>
        <time>2016-11-28T11:32:32Z</time>
      </trkpt>
      <trkpt lat="45.95265" lon="4.74978">
        <ele>192</ele>
        <time>2016-11-28T11:32:33Z</time>
      </trkpt>
      <trkpt lat="45.95262" lon="4.74972">
        <ele>192</ele>
        <time>2016-11-28T11:32:34Z</time>
      </trkpt>
      <trkpt lat="45.95258" lon="4.74966">
        <ele>192</ele>
        <time>2016-11-28T11:32:35Z</time>
      </trkpt>
      <trkpt lat="45.95255" lon="4.7496">
        <ele>192</ele>
        <time>2016-11-28T11:32:36Z</time>
      </trkpt>
      <trkpt lat="45.95251" lon="4.74954">
        <ele>192</ele>
        <time>2016-11-28T11:32:37Z</time>
      </trkpt>
      <trkpt lat="45.95247" lon="4.74948">
        <ele>192</ele>
        <time>2016-11-28T11:32:38Z</time>
      </trkpt>
      <trkpt lat="45.95244" lon="4.74943">
        <ele>192</ele>
        <time>2016-11-28T11:32:39Z</time>
      </trkpt>
      <trkpt lat="45.95241" lon="4.74937">
        <ele>192</ele>
        <time>2016-11-28T11:32:40Z</time>
      </trkpt>
      <trkpt lat="45.95237" lon="4.74932">
        <ele>192</ele>
        <time>2016-11-28T11:32:41Z</time>
      </trkpt>
      <trkpt lat="45.95234" lon="4.74927">
        <ele>192</ele>
        <time>2016-11-28T11:32:42Z</time>
      </trkpt>
      <trkpt lat="45.95231" lon="4.74922">
        <ele>192</ele>
        <time>2016-11-28T11:32:43Z</time>
      </trkpt>
      <trkpt lat="45.95228" lon="4.74917">
        <ele>192</ele>
        <time>2016-11-28T11:32:44Z</time>
      </trkpt>
      <trkpt lat="45.95225" lon="4.74912">
        <ele>193</ele>
        <time>2016-11-28T11:32:45Z</time>
      </trkpt>
      <trkpt lat="45.95222" lon="4.74906">
        <ele>193</ele>
        <time>2016-11-28T11:32:46Z</time>
      </trkpt>
      <trkpt lat="45.95218" lon="4.74901">
        <ele>193</ele>
        <time>2016-11-28T11:32:47Z</time>
      </trkpt>
      <trkpt lat="45.95215" lon="4.74895">
        <ele>193</ele>
        <time>2016-11-28T11:32:48Z</time>
      </trkpt>
      <trkpt lat="45.95212" lon="4.74889">
        <ele>193</ele>
        <time>2016-11-28T11:32:49Z</time>
      </trkpt>
      <trkpt lat="45.95208" lon="4.74883">
        <ele>194</ele>
        <time>2016-11-28T11:32:50Z</time>
      </trkpt>
      <trkpt lat="45.95204" lon="4.74878">
        <ele>194</ele>
        <time>2016-11-28T11:32:51Z</time>
      </trkpt>
      <trkpt lat="45.952" lon="4.74872">
        <ele>194</ele>
        <time>2016-11-28T11:32:52Z</time>
      </trkpt>
      <trkpt lat="45.95197" lon="4.74866">
        <ele>194</ele>
        <time>2016-11-28T11:32:53Z</time>
      </trkpt>
      <trkpt lat="45.95193" lon="4.74859">
        <ele>194</ele>
        <time>2016-11-28T11:32:54Z</time>
      </trkpt>
      <trkpt lat="45.95189" lon="4.74853">
        <ele>194</ele>
        <time>2016-11-28T11:32:55Z</time>
      </trkpt>
      <trkpt lat="45.95185" lon="4.74847">
        <ele>194</ele>
        <time>2016-11-28T11:32:56Z</time>
      </trkpt>
      <trkpt lat="45.95181" lon="4.74841">
        <ele>194</ele>
        <time>2016-11-28T11:32:57Z</time>
      </trkpt>
      <trkpt lat="45.95177" lon="4.74835">
        <ele>194</ele>
        <time>2016-11-28T11:32:58Z</time>
      </trkpt>
      <trkpt lat="45.95173" lon="4.74829">
        <ele>194</ele>
        <time>2016-11-28T11:32:59Z</time>
      </trkpt>
      <trkpt lat="45.95169" lon="4.74824">
        <ele>194</ele>
        <time>2016-11-28T11:33:00Z</time>
      </trkpt>
      <trkpt lat="45.95166" lon="4.74818">
        <ele>194</ele>
        <time>2016-11-28T11:33:01Z</time>
      </trkpt>
      <trkpt lat="45.95162" lon="4.74812">
        <ele>194</ele>
        <time>2016-11-28T11:33:02Z</time>
      </trkpt>
      <trkpt lat="45.95159" lon="4.74807">
        <ele>194</ele>
        <time>2016-11-28T11:33:03Z</time>
      </trkpt>
      <trkpt lat="45.95155" lon="4.74801">
        <ele>194</ele>
        <time>2016-11-28T11:33:04Z</time>
      </trkpt>
      <trkpt lat="45.95151" lon="4.74795">
        <ele>194</ele>
        <time>2016-11-28T11:33:05Z</time>
      </trkpt>
      <trkpt lat="45.95147" lon="4.74788">
        <ele>194</ele>
        <time>2016-11-28T11:33:06Z</time>
      </trkpt>
      <trkpt lat="45.95143" lon="4.74782">
        <ele>194</ele>
        <time>2016-11-28T11:33:07Z</time>
      </trkpt>
      <trkpt lat="45.95139" lon="4.74776">
        <ele>194</ele>
        <time>2016-11-28T11:33:08Z</time>
      </trkpt>
      <trkpt lat="45.95135" lon="4.7477">
        <ele>194</ele>
        <time>2016-11-28T11:33:09Z</time>
      </trkpt>
      <trkpt lat="45.95132" lon="4.74764">
        <ele>194</ele>
        <time>2016-11-28T11:33:10Z</time>
      </trkpt>
      <trkpt lat="45.95128" lon="4.74758">
        <ele>194</ele>
        <time>2016-11-28T11:33:11Z</time>
      </trkpt>
      <trkpt lat="45.95124" lon="4.74752">
        <ele>194</ele>
        <time>2016-11-28T11:33:12Z</time>
      </trkpt>
      <trkpt lat="45.95121" lon="4.74747">
        <ele>194</ele>
        <time>2016-11-28T11:33:13Z</time>
      </trkpt>
      <trkpt lat="45.95117" lon="4.74741">
        <ele>194</ele>
        <time>2016-11-28T11:33:14Z</time>
      </trkpt>
      <trkpt lat="45.95115" lon="4.74734">
        <ele>194</ele>
        <time>2016-11-28T11:33:15Z</time>
      </trkpt>
      <trkpt lat="45.95112" lon="4.74728">
        <ele>194</ele>
        <time>2016-11-28T11:33:16Z</time>
      </trkpt>
      <trkpt lat="45.95109" lon="4.74721">
        <ele>194</ele>
        <time>2016-11-28T11:33:17Z</time>
      </trkpt>
      <trkpt lat="45.95105" lon="4.74715">
        <ele>194</ele>
        <time>2016-11-28T11:33:18Z</time>
      </trkpt>
      <trkpt lat="45.95102" lon="4.74709">
        <ele>194</ele>
        <time>2016-11-28T11:33:19Z</time>
      </trkpt>
      <trkpt lat="45.95098" lon="4.74704">
        <ele>194</ele>
        <time>2016-11-28T11:33:20Z</time>
      </trkpt>
      <trkpt lat="45.95095" lon="4.74698">
        <ele>194</ele>
        <time>2016-11-28T11:33:21Z</time>
      </trkpt>
      <trkpt lat="45.95091" lon="4.74692">
        <ele>194</ele>
        <time>2016-11-28T11:33:22Z</time>
      </trkpt>
      <trkpt lat="45.95088" lon="4.74685">
        <ele>195</ele>
        <time>2016-11-28T11:33:23Z</time>
      </trkpt>
      <trkpt lat="45.95084" lon="4.74679">
        <ele>195</ele>
        <time>2016-11-28T11:33:24Z</time>
      </trkpt>
      <trkpt lat="45.9508" lon="4.74672">
        <ele>195</ele>
        <time>2016-11-28T11:33:25Z</time>
      </trkpt>
      <trkpt lat="45.95076" lon="4.74666">
        <ele>195</ele>
        <time>2016-11-28T11:33:26Z</time>
      </trkpt>
      <trkpt lat="45.95072" lon="4.74659">
        <ele>195</ele>
        <time>2016-11-28T11:33:27Z</time>
      </trkpt>
      <trkpt lat="45.95068" lon="4.74653">
        <ele>195</ele>
        <time>2016-11-28T11:33:28Z</time>
      </trkpt>
      <trkpt lat="45.95065" lon="4.74646">
        <ele>195</ele>
        <time>2016-11-28T11:33:29Z</time>
      </trkpt>
      <trkpt lat="45.95061" lon="4.7464">
        <ele>194</ele>
        <time>2016-11-28T11:33:30Z</time>
      </trkpt>
      <trkpt lat="45.95057" lon="4.74633">
        <ele>194</ele>
        <time>2016-11-28T11:33:31Z</time>
      </trkpt>
      <trkpt lat="45.95053" lon="4.74626">
        <ele>194</ele>
        <time>2016-11-28T11:33:32Z</time>
      </trkpt>
      <trkpt lat="45.95049" lon="4.74619">
        <ele>194</ele>
        <time>2016-11-28T11:33:33Z</time>
      </trkpt>
      <trkpt lat="45.95045" lon="4.74611">
        <ele>194</ele>
        <time>2016-11-28T11:33:34Z</time>
      </trkpt>
      <trkpt lat="45.95041" lon="4.74604">
        <ele>194</ele>
        <time>2016-11-28T11:33:35Z</time>
      </trkpt>
      <trkpt lat="45.95037" lon="4.74597">
        <ele>194</ele>
        <time>2016-11-28T11:33:36Z</time>
      </trkpt>
      <trkpt lat="45.95033" lon="4.7459">
        <ele>194</ele>
        <time>2016-11-28T11:33:37Z</time>
      </trkpt>
      <trkpt lat="45.95029" lon="4.74582">
        <ele>194</ele>
        <time>2016-11-28T11:33:38Z</time>
      </trkpt>
      <trkpt lat="45.95025" lon="4.74575">
        <ele>194</ele>
        <time>2016-11-28T11:33:39Z</time>
      </trkpt>
      <trkpt lat="45.95021" lon="4.74567">
        <ele>194</ele>
        <time>2016-11-28T11:33:40Z</time>
      </trkpt>
      <trkpt lat="45.95017" lon="4.7456">
        <ele>194</ele>
        <time>2016-11-28T11:33:41Z</time>
      </trkpt>
      <trkpt lat="45.95013" lon="4.74553">
        <ele>194</ele>
        <time>2016-11-28T11:33:42Z</time>
      </trkpt>
      <trkpt lat="45.95009" lon="4.74546">
        <ele>194</ele>
        <time>2016-11-28T11:33:43Z</time>
      </trkpt>
      <trkpt lat="45.95005" lon="4.74539">
        <ele>194</ele>
        <time>2016-11-28T11:33:44Z</time>
      </trkpt>
      <trkpt lat="45.95002" lon="4.74533">
        <ele>194</ele>
        <time>2016-11-28T11:33:45Z</time>
      </trkpt>
      <trkpt lat="45.94998" lon="4.74526">
        <ele>193</ele>
        <time>2016-11-28T11:33:46Z</time>
      </trkpt>
      <trkpt lat="45.94995" lon="4.74519">
        <ele>193</ele>
        <time>2016-11-28T11:33:47Z</time>
      </trkpt>
      <trkpt lat="45.94992" lon="4.74512">
        <ele>193</ele>
        <time>2016-11-28T11:33:48Z</time>
      </trkpt>
      <trkpt lat="45.94989" lon="4.74506">
        <ele>193</ele>
        <time>2016-11-28T11:33:49Z</time>
      </trkpt>
      <trkpt lat="45.94985" lon="4.74499">
        <ele>193</ele>
        <time>2016-11-28T11:33:50Z</time>
      </trkpt>
      <trkpt lat="45.94982" lon="4.74492">
        <ele>193</ele>
        <time>2016-11-28T11:33:51Z</time>
      </trkpt>
      <trkpt lat="45.94978" lon="4.74486">
        <ele>193</ele>
        <time>2016-11-28T11:33:52Z</time>
      </trkpt>
      <trkpt lat="45.94975" lon="4.74478">
        <ele>193</ele>
        <time>2016-11-28T11:33:53Z</time>
      </trkpt>
      <trkpt lat="45.94971" lon="4.74471">
        <ele>193</ele>
        <time>2016-11-28T11:33:54Z</time>
      </trkpt>
      <trkpt lat="45.94968" lon="4.74464">
        <ele>193</ele>
        <time>2016-11-28T11:33:55Z</time>
      </trkpt>
      <trkpt lat="45.94964" lon="4.74457">
        <ele>192</ele>
        <time>2016-11-28T11:33:56Z</time>
      </trkpt>
      <trkpt lat="45.9496" lon="4.7445">
        <ele>192</ele>
        <time>2016-11-28T11:33:57Z</time>
      </trkpt>
      <trkpt lat="45.94956" lon="4.74442">
        <ele>192</ele>
        <time>2016-11-28T11:33:58Z</time>
      </trkpt>
      <trkpt lat="45.94952" lon="4.74434">
        <ele>192</ele>
        <time>2016-11-28T11:33:59Z</time>
      </trkpt>
      <trkpt lat="45.94949" lon="4.74427">
        <ele>192</ele>
        <time>2016-11-28T11:34:00Z</time>
      </trkpt>
      <trkpt lat="45.94945" lon="4.7442">
        <ele>192</ele>
        <time>2016-11-28T11:34:01Z</time>
      </trkpt>
      <trkpt lat="45.9494" lon="4.74412">
        <ele>192</ele>
        <time>2016-11-28T11:34:02Z</time>
      </trkpt>
      <trkpt lat="45.94937" lon="4.74404">
        <ele>192</ele>
        <time>2016-11-28T11:34:03Z</time>
      </trkpt>
      <trkpt lat="45.94933" lon="4.74397">
        <ele>192</ele>
        <time>2016-11-28T11:34:04Z</time>
      </trkpt>
      <trkpt lat="45.94929" lon="4.7439">
        <ele>192</ele>
        <time>2016-11-28T11:34:05Z</time>
      </trkpt>
      <trkpt lat="45.94925" lon="4.74382">
        <ele>192</ele>
        <time>2016-11-28T11:34:06Z</time>
      </trkpt>
      <trkpt lat="45.94921" lon="4.74375">
        <ele>192</ele>
        <time>2016-11-28T11:34:07Z</time>
      </trkpt>
      <trkpt lat="45.94918" lon="4.74368">
        <ele>192</ele>
        <time>2016-11-28T11:34:08Z</time>
      </trkpt>
      <trkpt lat="45.94914" lon="4.74361">
        <ele>191</ele>
        <time>2016-11-28T11:34:09Z</time>
      </trkpt>
      <trkpt lat="45.9491" lon="4.74353">
        <ele>191</ele>
        <time>2016-11-28T11:34:10Z</time>
      </trkpt>
      <trkpt lat="45.94906" lon="4.74346">
        <ele>191</ele>
        <time>2016-11-28T11:34:11Z</time>
      </trkpt>
      <trkpt lat="45.94902" lon="4.74339">
        <ele>191</ele>
        <time>2016-11-28T11:34:12Z</time>
      </trkpt>
      <trkpt lat="45.94898" lon="4.74332">
        <ele>191</ele>
        <time>2016-11-28T11:34:13Z</time>
      </trkpt>
      <trkpt lat="45.94893" lon="4.74324">
        <ele>191</ele>
        <time>2016-11-28T11:34:14Z</time>
      </trkpt>
      <trkpt lat="45.94889" lon="4.74316">
        <ele>191</ele>
        <time>2016-11-28T11:34:15Z</time>
      </trkpt>
      <trkpt lat="45.94885" lon="4.74308">
        <ele>191</ele>
        <time>2016-11-28T11:34:16Z</time>
      </trkpt>
      <trkpt lat="45.94881" lon="4.743">
        <ele>191</ele>
        <time>2016-11-28T11:34:17Z</time>
      </trkpt>
      <trkpt lat="45.94877" lon="4.74292">
        <ele>191</ele>
        <time>2016-11-28T11:34:18Z</time>
      </trkpt>
      <trkpt lat="45.94872" lon="4.74284">
        <ele>191</ele>
        <time>2016-11-28T11:34:19Z</time>
      </trkpt>
      <trkpt lat="45.94868" lon="4.74277">
        <ele>191</ele>
        <time>2016-11-28T11:34:20Z</time>
      </trkpt>
      <trkpt lat="45.94864" lon="4.7427">
        <ele>190</ele>
        <time>2016-11-28T11:34:21Z</time>
      </trkpt>
      <trkpt lat="45.9486" lon="4.74262">
        <ele>190</ele>
        <time>2016-11-28T11:34:22Z</time>
      </trkpt>
      <trkpt lat="45.94856" lon="4.74255">
        <ele>190</ele>
        <time>2016-11-28T11:34:23Z</time>
      </trkpt>
      <trkpt lat="45.94853" lon="4.74247">
        <ele>190</ele>
        <time>2016-11-28T11:34:24Z</time>
      </trkpt>
      <trkpt lat="45.9485" lon="4.74239">
        <ele>190</ele>
        <time>2016-11-28T11:34:25Z</time>
      </trkpt>
      <trkpt lat="45.94846" lon="4.74232">
        <ele>190</ele>
        <time>2016-11-28T11:34:26Z</time>
      </trkpt>
      <trkpt lat="45.94843" lon="4.74224">
        <ele>190</ele>
        <time>2016-11-28T11:34:27Z</time>
      </trkpt>
      <trkpt lat="45.94839" lon="4.74217">
        <ele>190</ele>
        <time>2016-11-28T11:34:28Z</time>
      </trkpt>
      <trkpt lat="45.94835" lon="4.7421">
        <ele>190</ele>
        <time>2016-11-28T11:34:29Z</time>
      </trkpt>
      <trkpt lat="45.9483" lon="4.74202">
        <ele>189</ele>
        <time>2016-11-28T11:34:30Z</time>
      </trkpt>
      <trkpt lat="45.94826" lon="4.74196">
        <ele>189</ele>
        <time>2016-11-28T11:34:31Z</time>
      </trkpt>
      <trkpt lat="45.94822" lon="4.74189">
        <ele>189</ele>
        <time>2016-11-28T11:34:32Z</time>
      </trkpt>
      <trkpt lat="45.94818" lon="4.74182">
        <ele>189</ele>
        <time>2016-11-28T11:34:33Z</time>
      </trkpt>
      <trkpt lat="45.94814" lon="4.74175">
        <ele>189</ele>
        <time>2016-11-28T11:34:34Z</time>
      </trkpt>
      <trkpt lat="45.9481" lon="4.74168">
        <ele>189</ele>
        <time>2016-11-28T11:34:35Z</time>
      </trkpt>
      <trkpt lat="45.94806" lon="4.74161">
        <ele>189</ele>
        <time>2016-11-28T11:34:36Z</time>
      </trkpt>
      <trkpt lat="45.94801" lon="4.74153">
        <ele>189</ele>
        <time>2016-11-28T11:34:37Z</time>
      </trkpt>
      <trkpt lat="45.94797" lon="4.74146">
        <ele>189</ele>
        <time>2016-11-28T11:34:38Z</time>
      </trkpt>
      <trkpt lat="45.94793" lon="4.74139">
        <ele>189</ele>
        <time>2016-11-28T11:34:39Z</time>
      </trkpt>
      <trkpt lat="45.94789" lon="4.74132">
        <ele>189</ele>
        <time>2016-11-28T11:34:40Z</time>
      </trkpt>
      <trkpt lat="45.94784" lon="4.74125">
        <ele>189</ele>
        <time>2016-11-28T11:34:41Z</time>
      </trkpt>
      <trkpt lat="45.9478" lon="4.74118">
        <ele>189</ele>
        <time>2016-11-28T11:34:42Z</time>
      </trkpt>
      <trkpt lat="45.94775" lon="4.74112">
        <ele>189</ele>
        <time>2016-11-28T11:34:43Z</time>
      </trkpt>
      <trkpt lat="45.9477" lon="4.74105">
        <ele>189</ele>
        <time>2016-11-28T11:34:44Z</time>
      </trkpt>
      <trkpt lat="45.94765" lon="4.74098">
        <ele>189</ele>
        <time>2016-11-28T11:34:45Z</time>
      </trkpt>
      <trkpt lat="45.9476" lon="4.74091">
        <ele>189</ele>
        <time>2016-11-28T11:34:46Z</time>
      </trkpt>
      <trkpt lat="45.94755" lon="4.74084">
        <ele>189</ele>
        <time>2016-11-28T11:34:47Z</time>
      </trkpt>
      <trkpt lat="45.9475" lon="4.74077">
        <ele>189</ele>
        <time>2016-11-28T11:34:48Z</time>
      </trkpt>
      <trkpt lat="45.94745" lon="4.74071">
        <ele>188</ele>
        <time>2016-11-28T11:34:49Z</time>
      </trkpt>
      <trkpt lat="45.94741" lon="4.74065">
        <ele>188</ele>
        <time>2016-11-28T11:34:50Z</time>
      </trkpt>
      <trkpt lat="45.94736" lon="4.74058">
        <ele>188</ele>
        <time>2016-11-28T11:34:51Z</time>
      </trkpt>
      <trkpt lat="45.94732" lon="4.74052">
        <ele>188</ele>
        <time>2016-11-28T11:34:52Z</time>
      </trkpt>
      <trkpt lat="45.94727" lon="4.74046">
        <ele>188</ele>
        <time>2016-11-28T11:34:53Z</time>
      </trkpt>
      <trkpt lat="45.94724" lon="4.7404">
        <ele>187</ele>
        <time>2016-11-28T11:34:54Z</time>
      </trkpt>
      <trkpt lat="45.9472" lon="4.74034">
        <ele>187</ele>
        <time>2016-11-28T11:34:55Z</time>
      </trkpt>
      <trkpt lat="45.94716" lon="4.74029">
        <ele>187</ele>
        <time>2016-11-28T11:34:56Z</time>
      </trkpt>
      <trkpt lat="45.94712" lon="4.74023">
        <ele>187</ele>
        <time>2016-11-28T11:34:57Z</time>
      </trkpt>
      <trkpt lat="45.94708" lon="4.74018">
        <ele>187</ele>
        <time>2016-11-28T11:34:58Z</time>
      </trkpt>
      <trkpt lat="45.94704" lon="4.74012">
        <ele>187</ele>
        <time>2016-11-28T11:34:59Z</time>
      </trkpt>
      <trkpt lat="45.947" lon="4.74006">
        <ele>187</ele>
        <time>2016-11-28T11:35:00Z</time>
      </trkpt>
      <trkpt lat="45.94696" lon="4.74001">
        <ele>187</ele>
        <time>2016-11-28T11:35:01Z</time>
      </trkpt>
      <trkpt lat="45.94692" lon="4.73996">
        <ele>187</ele>
        <time>2016-11-28T11:35:02Z</time>
      </trkpt>
      <trkpt lat="45.94687" lon="4.7399">
        <ele>187</ele>
        <time>2016-11-28T11:35:03Z</time>
      </trkpt>
      <trkpt lat="45.94683" lon="4.73983">
        <ele>187</ele>
        <time>2016-11-28T11:35:04Z</time>
      </trkpt>
      <trkpt lat="45.94678" lon="4.73977">
        <ele>187</ele>
        <time>2016-11-28T11:35:05Z</time>
      </trkpt>
      <trkpt lat="45.94673" lon="4.7397">
        <ele>187</ele>
        <time>2016-11-28T11:35:06Z</time>
      </trkpt>
      <trkpt lat="45.94668" lon="4.73964">
        <ele>187</ele>
        <time>2016-11-28T11:35:07Z</time>
      </trkpt>
      <trkpt lat="45.94663" lon="4.73957">
        <ele>187</ele>
        <time>2016-11-28T11:35:08Z</time>
      </trkpt>
      <trkpt lat="45.94658" lon="4.73951">
        <ele>187</ele>
        <time>2016-11-28T11:35:09Z</time>
      </trkpt>
      <trkpt lat="45.94653" lon="4.73944">
        <ele>187</ele>
        <time>2016-11-28T11:35:10Z</time>
      </trkpt>
      <trkpt lat="45.94648" lon="4.73938">
        <ele>187</ele>
        <time>2016-11-28T11:35:11Z</time>
      </trkpt>
      <trkpt lat="45.94643" lon="4.73932">
        <ele>187</ele>
        <time>2016-11-28T11:35:12Z</time>
      </trkpt>
      <trkpt lat="45.94639" lon="4.73926">
        <ele>187</ele>
        <time>2016-11-28T11:35:13Z</time>
      </trkpt>
      <trkpt lat="45.94634" lon="4.7392">
        <ele>187</ele>
        <time>2016-11-28T11:35:14Z</time>
      </trkpt>
      <trkpt lat="45.9463" lon="4.73915">
        <ele>187</ele>
        <time>2016-11-28T11:35:15Z</time>
      </trkpt>
      <trkpt lat="45.94625" lon="4.73909">
        <ele>187</ele>
        <time>2016-11-28T11:35:16Z</time>
      </trkpt>
      <trkpt lat="45.9462" lon="4.73903">
        <ele>187</ele>
        <time>2016-11-28T11:35:17Z</time>
      </trkpt>
      <trkpt lat="45.94616" lon="4.73898">
        <ele>187</ele>
        <time>2016-11-28T11:35:18Z</time>
      </trkpt>
      <trkpt lat="45.94611" lon="4.73893">
        <ele>187</ele>
        <time>2016-11-28T11:35:19Z</time>
      </trkpt>
      <trkpt lat="45.94607" lon="4.73887">
        <ele>187</ele>
        <time>2016-11-28T11:35:20Z</time>
      </trkpt>
      <trkpt lat="45.94602" lon="4.73882">
        <ele>187</ele>
        <time>2016-11-28T11:35:21Z</time>
      </trkpt>
      <trkpt lat="45.94597" lon="4.73876">
        <ele>187</ele>
        <time>2016-11-28T11:35:22Z</time>
      </trkpt>
      <trkpt lat="45.94592" lon="4.7387">
        <ele>187</ele>
        <time>2016-11-28T11:35:23Z</time>
      </trkpt>
      <trkpt lat="45.94587" lon="4.73864">
        <ele>187</ele>
        <time>2016-11-28T11:35:24Z</time>
      </trkpt>
      <trkpt lat="45.94581" lon="4.7386">
        <ele>186</ele>
        <time>2016-11-28T11:35:25Z</time>
      </trkpt>
      <trkpt lat="45.94576" lon="4.73854">
        <ele>186</ele>
        <time>2016-11-28T11:35:26Z</time>
      </trkpt>
      <trkpt lat="45.94571" lon="4.73849">
        <ele>186</ele>
        <time>2016-11-28T11:35:27Z</time>
      </trkpt>
      <trkpt lat="45.94565" lon="4.73843">
        <ele>186</ele>
        <time>2016-11-28T11:35:28Z</time>
      </trkpt>
      <trkpt lat="45.94559" lon="4.73838">
        <ele>186</ele>
        <time>2016-11-28T11:35:29Z</time>
      </trkpt>
      <trkpt lat="45.94553" lon="4.73832">
        <ele>186</ele>
        <time>2016-11-28T11:35:30Z</time>
      </trkpt>
      <trkpt lat="45.94547" lon="4.73826">
        <ele>186</ele>
        <time>2016-11-28T11:35:31Z</time>
      </trkpt>
      <trkpt lat="45.94541" lon="4.73821">
        <ele>186</ele>
        <time>2016-11-28T11:35:32Z</time>
      </trkpt>
      <trkpt lat="45.94535" lon="4.73815">
        <ele>186</ele>
        <time>2016-11-28T11:35:33Z</time>
      </trkpt>
      <trkpt lat="45.94529" lon="4.73809">
        <ele>186</ele>
        <time>2016-11-28T11:35:34Z</time>
      </trkpt>
      <trkpt lat="45.94523" lon="4.73803">
        <ele>186</ele>
        <time>2016-11-28T11:35:35Z</time>
      </trkpt>
      <trkpt lat="45.94518" lon="4.73798">
        <ele>186</ele>
        <time>2016-11-28T11:35:36Z</time>
      </trkpt>
      <trkpt lat="45.94513" lon="4.73792">
        <ele>186</ele>
        <time>2016-11-28T11:35:37Z</time>
      </trkpt>
      <trkpt lat="45.94508" lon="4.73786">
        <ele>186</ele>
        <time>2016-11-28T11:35:38Z</time>
      </trkpt>
      <trkpt lat="45.94503" lon="4.7378">
        <ele>186</ele>
        <time>2016-11-28T11:35:39Z</time>
      </trkpt>
      <trkpt lat="45.94498" lon="4.73773">
        <ele>186</ele>
        <time>2016-11-28T11:35:40Z</time>
      </trkpt>
      <trkpt lat="45.94493" lon="4.73767">
        <ele>186</ele>
        <time>2016-11-28T11:35:41Z</time>
      </trkpt>
      <trkpt lat="45.9449" lon="4.73759">
        <ele>186</ele>
        <time>2016-11-28T11:35:42Z</time>
      </trkpt>
      <trkpt lat="45.94487" lon="4.73751">
        <ele>186</ele>
        <time>2016-11-28T11:35:43Z</time>
      </trkpt>
      <trkpt lat="45.94486" lon="4.73742">
        <ele>186</ele>
        <time>2016-11-28T11:35:44Z</time>
      </trkpt>
      <trkpt lat="45.94486" lon="4.73733">
        <ele>186</ele>
        <time>2016-11-28T11:35:45Z</time>
      </trkpt>
      <trkpt lat="45.94487" lon="4.73724">
        <ele>186</ele>
        <time>2016-11-28T11:35:46Z</time>
      </trkpt>
      <trkpt lat="45.94488" lon="4.73715">
        <ele>186</ele>
        <time>2016-11-28T11:35:47Z</time>
      </trkpt>
      <trkpt lat="45.9449" lon="4.73705">
        <ele>186</ele>
        <time>2016-11-28T11:35:48Z</time>
      </trkpt>
      <trkpt lat="45.94491" lon="4.73696">
        <ele>186</ele>
        <time>2016-11-28T11:35:49Z</time>
      </trkpt>
      <trkpt lat="45.94493" lon="4.73686">
        <ele>186</ele>
        <time>2016-11-28T11:35:50Z</time>
      </trkpt>
      <trkpt lat="45.94494" lon="4.73677">
        <ele>185</ele>
        <time>2016-11-28T11:35:51Z</time>
      </trkpt>
      <trkpt lat="45.94496" lon="4.73668">
        <ele>185</ele>
        <time>2016-11-28T11:35:52Z</time>
      </trkpt>
      <trkpt lat="45.94497" lon="4.7366">
        <ele>185</ele>
        <time>2016-11-28T11:35:53Z</time>
      </trkpt>
      <trkpt lat="45.94498" lon="4.73652">
        <ele>185</ele>
        <time>2016-11-28T11:35:54Z</time>
      </trkpt>
      <trkpt lat="45.945" lon="4.73643">
        <ele>186</ele>
        <time>2016-11-28T11:35:55Z</time>
      </trkpt>
      <trkpt lat="45.94501" lon="4.73635">
        <ele>184</ele>
        <time>2016-11-28T11:35:56Z</time>
      </trkpt>
      <trkpt lat="45.94502" lon="4.73626">
        <ele>184</ele>
        <time>2016-11-28T11:35:57Z</time>
      </trkpt>
      <trkpt lat="45.94503" lon="4.73617">
        <ele>184</ele>
        <time>2016-11-28T11:35:58Z</time>
      </trkpt>
      <trkpt lat="45.94503" lon="4.73609">
        <ele>184</ele>
        <time>2016-11-28T11:35:59Z</time>
      </trkpt>
      <trkpt lat="45.94504" lon="4.73599">
        <ele>184</ele>
        <time>2016-11-28T11:36:00Z</time>
      </trkpt>
      <trkpt lat="45.94505" lon="4.7359">
        <ele>185</ele>
        <time>2016-11-28T11:36:01Z</time>
      </trkpt>
      <trkpt lat="45.94506" lon="4.73581">
        <ele>184</ele>
        <time>2016-11-28T11:36:02Z</time>
      </trkpt>
      <trkpt lat="45.94506" lon="4.73572">
        <ele>184</ele>
        <time>2016-11-28T11:36:03Z</time>
      </trkpt>
      <trkpt lat="45.94507" lon="4.73562">
        <ele>184</ele>
        <time>2016-11-28T11:36:04Z</time>
      </trkpt>
      <trkpt lat="45.94507" lon="4.73552">
        <ele>183</ele>
        <time>2016-11-28T11:36:05Z</time>
      </trkpt>
      <trkpt lat="45.94507" lon="4.73541">
        <ele>183</ele>
        <time>2016-11-28T11:36:06Z</time>
      </trkpt>
      <trkpt lat="45.94507" lon="4.73531">
        <ele>183</ele>
        <time>2016-11-28T11:36:07Z</time>
      </trkpt>
      <trkpt lat="45.94507" lon="4.7352">
        <ele>183</ele>
        <time>2016-11-28T11:36:08Z</time>
      </trkpt>
      <trkpt lat="45.94507" lon="4.73509">
        <ele>183</ele>
        <time>2016-11-28T11:36:09Z</time>
      </trkpt>
      <trkpt lat="45.94507" lon="4.73499">
        <ele>183</ele>
        <time>2016-11-28T11:36:10Z</time>
      </trkpt>
      <trkpt lat="45.94507" lon="4.73487">
        <ele>182</ele>
        <time>2016-11-28T11:36:11Z</time>
      </trkpt>
      <trkpt lat="45.94507" lon="4.73476">
        <ele>182</ele>
        <time>2016-11-28T11:36:12Z</time>
      </trkpt>
      <trkpt lat="45.94507" lon="4.73465">
        <ele>181</ele>
        <time>2016-11-28T11:36:13Z</time>
      </trkpt>
      <trkpt lat="45.94507" lon="4.73453">
        <ele>181</ele>
        <time>2016-11-28T11:36:14Z</time>
      </trkpt>
      <trkpt lat="45.94507" lon="4.73442">
        <ele>181</ele>
        <time>2016-11-28T11:36:15Z</time>
      </trkpt>
      <trkpt lat="45.94506" lon="4.73431">
        <ele>180</ele>
        <time>2016-11-28T11:36:16Z</time>
      </trkpt>
      <trkpt lat="45.94506" lon="4.73419">
        <ele>180</ele>
        <time>2016-11-28T11:36:17Z</time>
      </trkpt>
      <trkpt lat="45.94505" lon="4.73408">
        <ele>179</ele>
        <time>2016-11-28T11:36:18Z</time>
      </trkpt>
      <trkpt lat="45.94504" lon="4.73397">
        <ele>179</ele>
        <time>2016-11-28T11:36:19Z</time>
      </trkpt>
      <trkpt lat="45.94503" lon="4.73385">
        <ele>179</ele>
        <time>2016-11-28T11:36:20Z</time>
      </trkpt>
      <trkpt lat="45.94502" lon="4.73374">
        <ele>178</ele>
        <time>2016-11-28T11:36:21Z</time>
      </trkpt>
      <trkpt lat="45.94501" lon="4.73364">
        <ele>178</ele>
        <time>2016-11-28T11:36:22Z</time>
      </trkpt>
      <trkpt lat="45.945" lon="4.73353">
        <ele>178</ele>
        <time>2016-11-28T11:36:23Z</time>
      </trkpt>
      <trkpt lat="45.94499" lon="4.73342">
        <ele>178</ele>
        <time>2016-11-28T11:36:24Z</time>
      </trkpt>
      <trkpt lat="45.94498" lon="4.73331">
        <ele>177</ele>
        <time>2016-11-28T11:36:25Z</time>
      </trkpt>
      <trkpt lat="45.94497" lon="4.73319">
        <ele>177</ele>
        <time>2016-11-28T11:36:26Z</time>
      </trkpt>
      <trkpt lat="45.94496" lon="4.73308">
        <ele>177</ele>
        <time>2016-11-28T11:36:27Z</time>
      </trkpt>
      <trkpt lat="45.94494" lon="4.73297">
        <ele>177</ele>
        <time>2016-11-28T11:36:28Z</time>
      </trkpt>
      <trkpt lat="45.94493" lon="4.73286">
        <ele>177</ele>
        <time>2016-11-28T11:36:29Z</time>
      </trkpt>
      <trkpt lat="45.94492" lon="4.73275">
        <ele>177</ele>
        <time>2016-11-28T11:36:30Z</time>
      </trkpt>
      <trkpt lat="45.94491" lon="4.73264">
        <ele>176</ele>
        <time>2016-11-28T11:36:31Z</time>
      </trkpt>
      <trkpt lat="45.94489" lon="4.73253">
        <ele>176</ele>
        <time>2016-11-28T11:36:32Z</time>
      </trkpt>
      <trkpt lat="45.94488" lon="4.73243">
        <ele>175</ele>
        <time>2016-11-28T11:36:33Z</time>
      </trkpt>
      <trkpt lat="45.94487" lon="4.73232">
        <ele>175</ele>
        <time>2016-11-28T11:36:34Z</time>
      </trkpt>
      <trkpt lat="45.94486" lon="4.73221">
        <ele>175</ele>
        <time>2016-11-28T11:36:35Z</time>
      </trkpt>
      <trkpt lat="45.94484" lon="4.73211">
        <ele>175</ele>
        <time>2016-11-28T11:36:36Z</time>
      </trkpt>
      <trkpt lat="45.94482" lon="4.732">
        <ele>174</ele>
        <time>2016-11-28T11:36:37Z</time>
      </trkpt>
      <trkpt lat="45.9448" lon="4.7319">
        <ele>174</ele>
        <time>2016-11-28T11:36:38Z</time>
      </trkpt>
      <trkpt lat="45.94479" lon="4.73179">
        <ele>174</ele>
        <time>2016-11-28T11:36:39Z</time>
      </trkpt>
      <trkpt lat="45.94477" lon="4.73169">
        <ele>174</ele>
        <time>2016-11-28T11:36:40Z</time>
      </trkpt>
      <trkpt lat="45.94476" lon="4.73159">
        <ele>173</ele>
        <time>2016-11-28T11:36:41Z</time>
      </trkpt>
      <trkpt lat="45.94475" lon="4.73149">
        <ele>172</ele>
        <time>2016-11-28T11:36:42Z</time>
      </trkpt>
      <trkpt lat="45.94473" lon="4.73139">
        <ele>172</ele>
        <time>2016-11-28T11:36:43Z</time>
      </trkpt>
      <trkpt lat="45.94472" lon="4.7313">
        <ele>172</ele>
        <time>2016-11-28T11:36:44Z</time>
      </trkpt>
      <trkpt lat="45.94471" lon="4.73121">
        <ele>172</ele>
        <time>2016-11-28T11:36:45Z</time>
      </trkpt>
      <trkpt lat="45.9447" lon="4.73113">
        <ele>172</ele>
        <time>2016-11-28T11:36:46Z</time>
      </trkpt>
      <trkpt lat="45.9447" lon="4.73104">
        <ele>172</ele>
        <time>2016-11-28T11:36:47Z</time>
      </trkpt>
      <trkpt lat="45.94468" lon="4.73096">
        <ele>172</ele>
        <time>2016-11-28T11:36:48Z</time>
      </trkpt>
      <trkpt lat="45.94467" lon="4.73087">
        <ele>171</ele>
        <time>2016-11-28T11:36:49Z</time>
      </trkpt>
      <trkpt lat="45.94465" lon="4.73079">
        <ele>170</ele>
        <time>2016-11-28T11:36:50Z</time>
      </trkpt>
      <trkpt lat="45.94463" lon="4.73071">
        <ele>170</ele>
        <time>2016-11-28T11:36:51Z</time>
      </trkpt>
      <trkpt lat="45.94462" lon="4.73063">
        <ele>170</ele>
        <time>2016-11-28T11:36:52Z</time>
      </trkpt>
      <trkpt lat="45.94461" lon="4.73055">
        <ele>170</ele>
        <time>2016-11-28T11:36:53Z</time>
      </trkpt>
      <trkpt lat="45.94459" lon="4.73046">
        <ele>170</ele>
        <time>2016-11-28T11:36:54Z</time>
      </trkpt>
      <trkpt lat="45.94458" lon="4.73038">
        <ele>169</ele>
        <time>2016-11-28T11:36:55Z</time>
      </trkpt>
      <trkpt lat="45.94457" lon="4.73031">
        <ele>169</ele>
        <time>2016-11-28T11:36:56Z</time>
      </trkpt>
      <trkpt lat="45.94456" lon="4.73023">
        <ele>169</ele>
        <time>2016-11-28T11:36:57Z</time>
      </trkpt>
      <trkpt lat="45.94455" lon="4.73015">
        <ele>169</ele>
        <time>2016-11-28T11:36:58Z</time>
      </trkpt>
      <trkpt lat="45.94454" lon="4.73007">
        <ele>169</ele>
        <time>2016-11-28T11:36:59Z</time>
      </trkpt>
      <trkpt lat="45.94454" lon="4.73">
        <ele>168</ele>
        <time>2016-11-28T11:37:00Z</time>
      </trkpt>
      <trkpt lat="45.94453" lon="4.72992">
        <ele>167</ele>
        <time>2016-11-28T11:37:01Z</time>
      </trkpt>
      <trkpt lat="45.94453" lon="4.72984">
        <ele>167</ele>
        <time>2016-11-28T11:37:02Z</time>
      </trkpt>
      <trkpt lat="45.94452" lon="4.72977">
        <ele>167</ele>
        <time>2016-11-28T11:37:03Z</time>
      </trkpt>
      <trkpt lat="45.94451" lon="4.72969">
        <ele>167</ele>
        <time>2016-11-28T11:37:04Z</time>
      </trkpt>
      <trkpt lat="45.9445" lon="4.72962">
        <ele>167</ele>
        <time>2016-11-28T11:37:05Z</time>
      </trkpt>
      <trkpt lat="45.94449" lon="4.72954">
        <ele>167</ele>
        <time>2016-11-28T11:37:06Z</time>
      </trkpt>
      <trkpt lat="45.94448" lon="4.72947">
        <ele>167</ele>
        <time>2016-11-28T11:37:07Z</time>
      </trkpt>
      <trkpt lat="45.94447" lon="4.72939">
        <ele>167</ele>
        <time>2016-11-28T11:37:08Z</time>
      </trkpt>
      <trkpt lat="45.94446" lon="4.72932">
        <ele>167</ele>
        <time>2016-11-28T11:37:09Z</time>
      </trkpt>
      <trkpt lat="45.94445" lon="4.72925">
        <ele>167</ele>
        <time>2016-11-28T11:37:10Z</time>
      </trkpt>
      <trkpt lat="45.94444" lon="4.72917">
        <ele>167</ele>
        <time>2016-11-28T11:37:11Z</time>
      </trkpt>
      <trkpt lat="45.94443" lon="4.7291">
        <ele>166</ele>
        <time>2016-11-28T11:37:12Z</time>
      </trkpt>
      <trkpt lat="45.94442" lon="4.72903">
        <ele>166</ele>
        <time>2016-11-28T11:37:13Z</time>
      </trkpt>
      <trkpt lat="45.94441" lon="4.72896">
        <ele>166</ele>
        <time>2016-11-28T11:37:14Z</time>
      </trkpt>
      <trkpt lat="45.9444" lon="4.7289">
        <ele>166</ele>
        <time>2016-11-28T11:37:15Z</time>
      </trkpt>
      <trkpt lat="45.9444" lon="4.72883">
        <ele>166</ele>
        <time>2016-11-28T11:37:16Z</time>
      </trkpt>
      <trkpt lat="45.94439" lon="4.72876">
        <ele>166</ele>
        <time>2016-11-28T11:37:17Z</time>
      </trkpt>
      <trkpt lat="45.94438" lon="4.7287">
        <ele>166</ele>
        <time>2016-11-28T11:37:18Z</time>
      </trkpt>
      <trkpt lat="45.94437" lon="4.72863">
        <ele>166</ele>
        <time>2016-11-28T11:37:19Z</time>
      </trkpt>
      <trkpt lat="45.94436" lon="4.72856">
        <ele>166</ele>
        <time>2016-11-28T11:37:20Z</time>
      </trkpt>
      <trkpt lat="45.94435" lon="4.72848">
        <ele>166</ele>
        <time>2016-11-28T11:37:21Z</time>
      </trkpt>
      <trkpt lat="45.94434" lon="4.72841">
        <ele>166</ele>
        <time>2016-11-28T11:37:22Z</time>
      </trkpt>
      <trkpt lat="45.94433" lon="4.72833">
        <ele>167</ele>
        <time>2016-11-28T11:37:23Z</time>
      </trkpt>
      <trkpt lat="45.94432" lon="4.72825">
        <ele>167</ele>
        <time>2016-11-28T11:37:24Z</time>
      </trkpt>
      <trkpt lat="45.94431" lon="4.72817">
        <ele>167</ele>
        <time>2016-11-28T11:37:25Z</time>
      </trkpt>
      <trkpt lat="45.9443" lon="4.72808">
        <ele>167</ele>
        <time>2016-11-28T11:37:26Z</time>
      </trkpt>
      <trkpt lat="45.94428" lon="4.72799">
        <ele>167</ele>
        <time>2016-11-28T11:37:27Z</time>
      </trkpt>
      <trkpt lat="45.94427" lon="4.72789">
        <ele>168</ele>
        <time>2016-11-28T11:37:28Z</time>
      </trkpt>
      <trkpt lat="45.94426" lon="4.7278">
        <ele>168</ele>
        <time>2016-11-28T11:37:29Z</time>
      </trkpt>
      <trkpt lat="45.94425" lon="4.7277">
        <ele>169</ele>
        <time>2016-11-28T11:37:30Z</time>
      </trkpt>
      <trkpt lat="45.94423" lon="4.7276">
        <ele>169</ele>
        <time>2016-11-28T11:37:31Z</time>
      </trkpt>
      <trkpt lat="45.94422" lon="4.7275">
        <ele>170</ele>
        <time>2016-11-28T11:37:32Z</time>
      </trkpt>
      <trkpt lat="45.94421" lon="4.72741">
        <ele>171</ele>
        <time>2016-11-28T11:37:33Z</time>
      </trkpt>
      <trkpt lat="45.9442" lon="4.72731">
        <ele>171</ele>
        <time>2016-11-28T11:37:34Z</time>
      </trkpt>
      <trkpt lat="45.94418" lon="4.72722">
        <ele>171</ele>
        <time>2016-11-28T11:37:35Z</time>
      </trkpt>
      <trkpt lat="45.94417" lon="4.72713">
        <ele>172</ele>
        <time>2016-11-28T11:37:36Z</time>
      </trkpt>
      <trkpt lat="45.94416" lon="4.72704">
        <ele>172</ele>
        <time>2016-11-28T11:37:37Z</time>
      </trkpt>
      <trkpt lat="45.94415" lon="4.72695">
        <ele>173</ele>
        <time>2016-11-28T11:37:38Z</time>
      </trkpt>
      <trkpt lat="45.94414" lon="4.72687">
        <ele>173</ele>
        <time>2016-11-28T11:37:39Z</time>
      </trkpt>
      <trkpt lat="45.94412" lon="4.72678">
        <ele>173</ele>
        <time>2016-11-28T11:37:40Z</time>
      </trkpt>
      <trkpt lat="45.94412" lon="4.72669">
        <ele>174</ele>
        <time>2016-11-28T11:37:41Z</time>
      </trkpt>
      <trkpt lat="45.94411" lon="4.72661">
        <ele>174</ele>
        <time>2016-11-28T11:37:42Z</time>
      </trkpt>
      <trkpt lat="45.9441" lon="4.72652">
        <ele>174</ele>
        <time>2016-11-28T11:37:43Z</time>
      </trkpt>
      <trkpt lat="45.94409" lon="4.72644">
        <ele>174</ele>
        <time>2016-11-28T11:37:44Z</time>
      </trkpt>
      <trkpt lat="45.94408" lon="4.72636">
        <ele>174</ele>
        <time>2016-11-28T11:37:45Z</time>
      </trkpt>
      <trkpt lat="45.94407" lon="4.72627">
        <ele>174</ele>
        <time>2016-11-28T11:37:46Z</time>
      </trkpt>
      <trkpt lat="45.94406" lon="4.72619">
        <ele>173</ele>
        <time>2016-11-28T11:37:47Z</time>
      </trkpt>
      <trkpt lat="45.94406" lon="4.72612">
        <ele>173</ele>
        <time>2016-11-28T11:37:48Z</time>
      </trkpt>
      <trkpt lat="45.94405" lon="4.72605">
        <ele>173</ele>
        <time>2016-11-28T11:37:49Z</time>
      </trkpt>
      <trkpt lat="45.94404" lon="4.72597">
        <ele>173</ele>
        <time>2016-11-28T11:37:50Z</time>
      </trkpt>
      <trkpt lat="45.94402" lon="4.72588">
        <ele>173</ele>
        <time>2016-11-28T11:37:51Z</time>
      </trkpt>
      <trkpt lat="45.94401" lon="4.7258">
        <ele>173</ele>
        <time>2016-11-28T11:37:52Z</time>
      </trkpt>
      <trkpt lat="45.94399" lon="4.72571">
        <ele>173</ele>
        <time>2016-11-28T11:37:53Z</time>
      </trkpt>
      <trkpt lat="45.94397" lon="4.72562">
        <ele>173</ele>
        <time>2016-11-28T11:37:54Z</time>
      </trkpt>
      <trkpt lat="45.94395" lon="4.72553">
        <ele>173</ele>
        <time>2016-11-28T11:37:55Z</time>
      </trkpt>
      <trkpt lat="45.94393" lon="4.72544">
        <ele>173</ele>
        <time>2016-11-28T11:37:56Z</time>
      </trkpt>
      <trkpt lat="45.94391" lon="4.72534">
        <ele>174</ele>
        <time>2016-11-28T11:37:57Z</time>
      </trkpt>
      <trkpt lat="45.94389" lon="4.72525">
        <ele>174</ele>
        <time>2016-11-28T11:37:58Z</time>
      </trkpt>
      <trkpt lat="45.94386" lon="4.72516">
        <ele>174</ele>
        <time>2016-11-28T11:37:59Z</time>
      </trkpt>
      <trkpt lat="45.94383" lon="4.72508">
        <ele>174</ele>
        <time>2016-11-28T11:38:00Z</time>
      </trkpt>
      <trkpt lat="45.9438" lon="4.725">
        <ele>173</ele>
        <time>2016-11-28T11:38:01Z</time>
      </trkpt>
      <trkpt lat="45.94377" lon="4.72492">
        <ele>173</ele>
        <time>2016-11-28T11:38:02Z</time>
      </trkpt>
      <trkpt lat="45.94375" lon="4.72484">
        <ele>173</ele>
        <time>2016-11-28T11:38:03Z</time>
      </trkpt>
      <trkpt lat="45.94372" lon="4.72477">
        <ele>173</ele>
        <time>2016-11-28T11:38:04Z</time>
      </trkpt>
      <trkpt lat="45.94369" lon="4.7247">
        <ele>173</ele>
        <time>2016-11-28T11:38:05Z</time>
      </trkpt>
      <trkpt lat="45.94366" lon="4.72464">
        <ele>173</ele>
        <time>2016-11-28T11:38:06Z</time>
      </trkpt>
      <trkpt lat="45.94363" lon="4.72458">
        <ele>173</ele>
        <time>2016-11-28T11:38:07Z</time>
      </trkpt>
      <trkpt lat="45.9436" lon="4.72452">
        <ele>173</ele>
        <time>2016-11-28T11:38:08Z</time>
      </trkpt>
      <trkpt lat="45.94358" lon="4.72446">
        <ele>173</ele>
        <time>2016-11-28T11:38:09Z</time>
      </trkpt>
      <trkpt lat="45.94355" lon="4.72439">
        <ele>173</ele>
        <time>2016-11-28T11:38:10Z</time>
      </trkpt>
      <trkpt lat="45.94353" lon="4.72433">
        <ele>173</ele>
        <time>2016-11-28T11:38:11Z</time>
      </trkpt>
      <trkpt lat="45.9435" lon="4.72427">
        <ele>173</ele>
        <time>2016-11-28T11:38:12Z</time>
      </trkpt>
      <trkpt lat="45.94348" lon="4.72421">
        <ele>173</ele>
        <time>2016-11-28T11:38:13Z</time>
      </trkpt>
      <trkpt lat="45.94346" lon="4.72414">
        <ele>173</ele>
        <time>2016-11-28T11:38:14Z</time>
      </trkpt>
      <trkpt lat="45.94343" lon="4.72407">
        <ele>173</ele>
        <time>2016-11-28T11:38:15Z</time>
      </trkpt>
      <trkpt lat="45.94339" lon="4.724">
        <ele>172</ele>
        <time>2016-11-28T11:38:16Z</time>
      </trkpt>
      <trkpt lat="45.94336" lon="4.72393">
        <ele>172</ele>
        <time>2016-11-28T11:38:17Z</time>
      </trkpt>
      <trkpt lat="45.94333" lon="4.72385">
        <ele>172</ele>
        <time>2016-11-28T11:38:18Z</time>
      </trkpt>
      <trkpt lat="45.9433" lon="4.72377">
        <ele>172</ele>
        <time>2016-11-28T11:38:19Z</time>
      </trkpt>
      <trkpt lat="45.94326" lon="4.7237">
        <ele>172</ele>
        <time>2016-11-28T11:38:20Z</time>
      </trkpt>
      <trkpt lat="45.94323" lon="4.72362">
        <ele>172</ele>
        <time>2016-11-28T11:38:21Z</time>
      </trkpt>
      <trkpt lat="45.9432" lon="4.72355">
        <ele>172</ele>
        <time>2016-11-28T11:38:22Z</time>
      </trkpt>
      <trkpt lat="45.94317" lon="4.72347">
        <ele>172</ele>
        <time>2016-11-28T11:38:23Z</time>
      </trkpt>
      <trkpt lat="45.94314" lon="4.7234">
        <ele>172</ele>
        <time>2016-11-28T11:38:24Z</time>
      </trkpt>
      <trkpt lat="45.94311" lon="4.72334">
        <ele>172</ele>
        <time>2016-11-28T11:38:25Z</time>
      </trkpt>
      <trkpt lat="45.94308" lon="4.72327">
        <ele>171</ele>
        <time>2016-11-28T11:38:26Z</time>
      </trkpt>
      <trkpt lat="45.94306" lon="4.7232">
        <ele>171</ele>
        <time>2016-11-28T11:38:27Z</time>
      </trkpt>
      <trkpt lat="45.94303" lon="4.72313">
        <ele>171</ele>
        <time>2016-11-28T11:38:28Z</time>
      </trkpt>
      <trkpt lat="45.943" lon="4.72306">
        <ele>171</ele>
        <time>2016-11-28T11:38:29Z</time>
      </trkpt>
      <trkpt lat="45.94297" lon="4.723">
        <ele>171</ele>
        <time>2016-11-28T11:38:30Z</time>
      </trkpt>
      <trkpt lat="45.94294" lon="4.72293">
        <ele>171</ele>
        <time>2016-11-28T11:38:31Z</time>
      </trkpt>
      <trkpt lat="45.94291" lon="4.72285">
        <ele>171</ele>
        <time>2016-11-28T11:38:32Z</time>
      </trkpt>
      <trkpt lat="45.94288" lon="4.72279">
        <ele>171</ele>
        <time>2016-11-28T11:38:33Z</time>
      </trkpt>
      <trkpt lat="45.94284" lon="4.72272">
        <ele>171</ele>
        <time>2016-11-28T11:38:34Z</time>
      </trkpt>
      <trkpt lat="45.94281" lon="4.72265">
        <ele>171</ele>
        <time>2016-11-28T11:38:35Z</time>
      </trkpt>
      <trkpt lat="45.94278" lon="4.72258">
        <ele>171</ele>
        <time>2016-11-28T11:38:36Z</time>
      </trkpt>
      <trkpt lat="45.94274" lon="4.72251">
        <ele>171</ele>
        <time>2016-11-28T11:38:37Z</time>
      </trkpt>
      <trkpt lat="45.94271" lon="4.72244">
        <ele>171</ele>
        <time>2016-11-28T11:38:38Z</time>
      </trkpt>
      <trkpt lat="45.94268" lon="4.72237">
        <ele>171</ele>
        <time>2016-11-28T11:38:39Z</time>
      </trkpt>
      <trkpt lat="45.94265" lon="4.7223">
        <ele>172</ele>
        <time>2016-11-28T11:38:40Z</time>
      </trkpt>
      <trkpt lat="45.94261" lon="4.72223">
        <ele>172</ele>
        <time>2016-11-28T11:38:41Z</time>
      </trkpt>
      <trkpt lat="45.94258" lon="4.72216">
        <ele>172</ele>
        <time>2016-11-28T11:38:42Z</time>
      </trkpt>
      <trkpt lat="45.94255" lon="4.7221">
        <ele>172</ele>
        <time>2016-11-28T11:38:43Z</time>
      </trkpt>
      <trkpt lat="45.94252" lon="4.72203">
        <ele>172</ele>
        <time>2016-11-28T11:38:44Z</time>
      </trkpt>
      <trkpt lat="45.94249" lon="4.72196">
        <ele>172</ele>
        <time>2016-11-28T11:38:45Z</time>
      </trkpt>
      <trkpt lat="45.94246" lon="4.7219">
        <ele>172</ele>
        <time>2016-11-28T11:38:46Z</time>
      </trkpt>
      <trkpt lat="45.94243" lon="4.72183">
        <ele>172</ele>
        <time>2016-11-28T11:38:47Z</time>
      </trkpt>
      <trkpt lat="45.9424" lon="4.72177">
        <ele>172</ele>
        <time>2016-11-28T11:38:48Z</time>
      </trkpt>
      <trkpt lat="45.94238" lon="4.72171">
        <ele>172</ele>
        <time>2016-11-28T11:38:49Z</time>
      </trkpt>
      <trkpt lat="45.94235" lon="4.72165">
        <ele>173</ele>
        <time>2016-11-28T11:38:50Z</time>
      </trkpt>
      <trkpt lat="45.94233" lon="4.72159">
        <ele>173</ele>
        <time>2016-11-28T11:38:51Z</time>
      </trkpt>
      <trkpt lat="45.9423" lon="4.72154">
        <ele>173</ele>
        <time>2016-11-28T11:38:52Z</time>
      </trkpt>
      <trkpt lat="45.94228" lon="4.72148">
        <ele>173</ele>
        <time>2016-11-28T11:38:53Z</time>
      </trkpt>
      <trkpt lat="45.94225" lon="4.72142">
        <ele>173</ele>
        <time>2016-11-28T11:38:54Z</time>
      </trkpt>
      <trkpt lat="45.94223" lon="4.72136">
        <ele>173</ele>
        <time>2016-11-28T11:38:55Z</time>
      </trkpt>
      <trkpt lat="45.94221" lon="4.7213">
        <ele>173</ele>
        <time>2016-11-28T11:38:56Z</time>
      </trkpt>
      <trkpt lat="45.94218" lon="4.72125">
        <ele>173</ele>
        <time>2016-11-28T11:38:57Z</time>
      </trkpt>
      <trkpt lat="45.94216" lon="4.72119">
        <ele>173</ele>
        <time>2016-11-28T11:38:58Z</time>
      </trkpt>
      <trkpt lat="45.94211" lon="4.72109">
        <ele>173</ele>
        <time>2016-11-28T11:39:00Z</time>
      </trkpt>
      <trkpt lat="45.94209" lon="4.72104">
        <ele>173</ele>
        <time>2016-11-28T11:39:01Z</time>
      </trkpt>
      <trkpt lat="45.94205" lon="4.72094">
        <ele>173</ele>
        <time>2016-11-28T11:39:03Z</time>
      </trkpt>
      <trkpt lat="45.94203" lon="4.7209">
        <ele>173</ele>
        <time>2016-11-28T11:39:04Z</time>
      </trkpt>
      <trkpt lat="45.94198" lon="4.7208">
        <ele>173</ele>
        <time>2016-11-28T11:39:06Z</time>
      </trkpt>
      <trkpt lat="45.94196" lon="4.72075">
        <ele>173</ele>
        <time>2016-11-28T11:39:07Z</time>
      </trkpt>
      <trkpt lat="45.94191" lon="4.72064">
        <ele>173</ele>
        <time>2016-11-28T11:39:09Z</time>
      </trkpt>
      <trkpt lat="45.94189" lon="4.72059">
        <ele>173</ele>
        <time>2016-11-28T11:39:10Z</time>
      </trkpt>
      <trkpt lat="45.94184" lon="4.72048">
        <ele>173</ele>
        <time>2016-11-28T11:39:12Z</time>
      </trkpt>
      <trkpt lat="45.94182" lon="4.72042">
        <ele>173</ele>
        <time>2016-11-28T11:39:13Z</time>
      </trkpt>
      <trkpt lat="45.94179" lon="4.72037">
        <ele>173</ele>
        <time>2016-11-28T11:39:14Z</time>
      </trkpt>
      <trkpt lat="45.94176" lon="4.72031">
        <ele>173</ele>
        <time>2016-11-28T11:39:15Z</time>
      </trkpt>
      <trkpt lat="45.94173" lon="4.72024">
        <ele>173</ele>
        <time>2016-11-28T11:39:16Z</time>
      </trkpt>
      <trkpt lat="45.9417" lon="4.72018">
        <ele>173</ele>
        <time>2016-11-28T11:39:17Z</time>
      </trkpt>
      <trkpt lat="45.94166" lon="4.72011">
        <ele>173</ele>
        <time>2016-11-28T11:39:18Z</time>
      </trkpt>
      <trkpt lat="45.94162" lon="4.72004">
        <ele>173</ele>
        <time>2016-11-28T11:39:19Z</time>
      </trkpt>
      <trkpt lat="45.94159" lon="4.71995">
        <ele>173</ele>
        <time>2016-11-28T11:39:20Z</time>
      </trkpt>
      <trkpt lat="45.94155" lon="4.71986">
        <ele>173</ele>
        <time>2016-11-28T11:39:21Z</time>
      </trkpt>
      <trkpt lat="45.94151" lon="4.71977">
        <ele>173</ele>
        <time>2016-11-28T11:39:22Z</time>
      </trkpt>
      <trkpt lat="45.94148" lon="4.71967">
        <ele>173</ele>
        <time>2016-11-28T11:39:23Z</time>
      </trkpt>
      <trkpt lat="45.94146" lon="4.71957">
        <ele>173</ele>
        <time>2016-11-28T11:39:24Z</time>
      </trkpt>
      <trkpt lat="45.94145" lon="4.71947">
        <ele>173</ele>
        <time>2016-11-28T11:39:25Z</time>
      </trkpt>
      <trkpt lat="45.94144" lon="4.71939">
        <ele>173</ele>
        <time>2016-11-28T11:39:26Z</time>
      </trkpt>
      <trkpt lat="45.94141" lon="4.71931">
        <ele>173</ele>
        <time>2016-11-28T11:39:27Z</time>
      </trkpt>
      <trkpt lat="45.94138" lon="4.71927">
        <ele>173</ele>
        <time>2016-11-28T11:39:28Z</time>
      </trkpt>
      <trkpt lat="45.94133" lon="4.71925">
        <ele>173</ele>
        <time>2016-11-28T11:39:29Z</time>
      </trkpt>
      <trkpt lat="45.94128" lon="4.71926">
        <ele>174</ele>
        <time>2016-11-28T11:39:30Z</time>
      </trkpt>
      <trkpt lat="45.94124" lon="4.71931">
        <ele>174</ele>
        <time>2016-11-28T11:39:31Z</time>
      </trkpt>
      <trkpt lat="45.94121" lon="4.71936">
        <ele>174</ele>
        <time>2016-11-28T11:39:32Z</time>
      </trkpt>
      <trkpt lat="45.94118" lon="4.71942">
        <ele>174</ele>
        <time>2016-11-28T11:39:33Z</time>
      </trkpt>
      <trkpt lat="45.94116" lon="4.71949">
        <ele>174</ele>
        <time>2016-11-28T11:39:34Z</time>
      </trkpt>
      <trkpt lat="45.94114" lon="4.71955">
        <ele>174</ele>
        <time>2016-11-28T11:39:35Z</time>
      </trkpt>
      <trkpt lat="45.94111" lon="4.71961">
        <ele>174</ele>
        <time>2016-11-28T11:39:36Z</time>
      </trkpt>
      <trkpt lat="45.94107" lon="4.71967">
        <ele>174</ele>
        <time>2016-11-28T11:39:37Z</time>
      </trkpt>
      <trkpt lat="45.94102" lon="4.71973">
        <ele>174</ele>
        <time>2016-11-28T11:39:38Z</time>
      </trkpt>
      <trkpt lat="45.94098" lon="4.71978">
        <ele>174</ele>
        <time>2016-11-28T11:39:39Z</time>
      </trkpt>
      <trkpt lat="45.94093" lon="4.71984">
        <ele>174</ele>
        <time>2016-11-28T11:39:40Z</time>
      </trkpt>
      <trkpt lat="45.94088" lon="4.71989">
        <ele>175</ele>
        <time>2016-11-28T11:39:41Z</time>
      </trkpt>
      <trkpt lat="45.94084" lon="4.71994">
        <ele>175</ele>
        <time>2016-11-28T11:39:42Z</time>
      </trkpt>
      <trkpt lat="45.94079" lon="4.71999">
        <ele>175</ele>
        <time>2016-11-28T11:39:43Z</time>
      </trkpt>
      <trkpt lat="45.94075" lon="4.72004">
        <ele>174</ele>
        <time>2016-11-28T11:39:44Z</time>
      </trkpt>
      <trkpt lat="45.9407" lon="4.72008">
        <ele>174</ele>
        <time>2016-11-28T11:39:45Z</time>
      </trkpt>
      <trkpt lat="45.94066" lon="4.72014">
        <ele>174</ele>
        <time>2016-11-28T11:39:46Z</time>
      </trkpt>
      <trkpt lat="45.94062" lon="4.72019">
        <ele>174</ele>
        <time>2016-11-28T11:39:47Z</time>
      </trkpt>
      <trkpt lat="45.94058" lon="4.72023">
        <ele>174</ele>
        <time>2016-11-28T11:39:48Z</time>
      </trkpt>
      <trkpt lat="45.94054" lon="4.72027">
        <ele>174</ele>
        <time>2016-11-28T11:39:49Z</time>
      </trkpt>
      <trkpt lat="45.94049" lon="4.72029">
        <ele>173</ele>
        <time>2016-11-28T11:39:50Z</time>
      </trkpt>
      <trkpt lat="45.94045" lon="4.72028">
        <ele>173</ele>
        <time>2016-11-28T11:39:51Z</time>
      </trkpt>
      <trkpt lat="45.94038" lon="4.72022">
        <ele>173</ele>
        <time>2016-11-28T11:39:53Z</time>
      </trkpt>
      <trkpt lat="45.94035" lon="4.72017">
        <ele>173</ele>
        <time>2016-11-28T11:39:54Z</time>
      </trkpt>
      <trkpt lat="45.94033" lon="4.72012">
        <ele>173</ele>
        <time>2016-11-28T11:39:55Z</time>
      </trkpt>
      <trkpt lat="45.94031" lon="4.72006">
        <ele>173</ele>
        <time>2016-11-28T11:39:56Z</time>
      </trkpt>
      <trkpt lat="45.94028" lon="4.71999">
        <ele>174</ele>
        <time>2016-11-28T11:39:57Z</time>
      </trkpt>
      <trkpt lat="45.94025" lon="4.71993">
        <ele>174</ele>
        <time>2016-11-28T11:39:58Z</time>
      </trkpt>
      <trkpt lat="45.94022" lon="4.71987">
        <ele>174</ele>
        <time>2016-11-28T11:39:59Z</time>
      </trkpt>
      <trkpt lat="45.94018" lon="4.71981">
        <ele>174</ele>
        <time>2016-11-28T11:40:00Z</time>
      </trkpt>
      <trkpt lat="45.94015" lon="4.71976">
        <ele>174</ele>
        <time>2016-11-28T11:40:01Z</time>
      </trkpt>
      <trkpt lat="45.94012" lon="4.71971">
        <ele>174</ele>
        <time>2016-11-28T11:40:02Z</time>
      </trkpt>
      <trkpt lat="45.94008" lon="4.71966">
        <ele>174</ele>
        <time>2016-11-28T11:40:03Z</time>
      </trkpt>
      <trkpt lat="45.94002" lon="4.71965">
        <ele>174</ele>
        <time>2016-11-28T11:40:04Z</time>
      </trkpt>
      <trkpt lat="45.93995" lon="4.71964">
        <ele>173</ele>
        <time>2016-11-28T11:40:05Z</time>
      </trkpt>
      <trkpt lat="45.93989" lon="4.71964">
        <ele>173</ele>
        <time>2016-11-28T11:40:06Z</time>
      </trkpt>
      <trkpt lat="45.93984" lon="4.71966">
        <ele>173</ele>
        <time>2016-11-28T11:40:07Z</time>
      </trkpt>
      <trkpt lat="45.9398" lon="4.71971">
        <ele>173</ele>
        <time>2016-11-28T11:40:08Z</time>
      </trkpt>
      <trkpt lat="45.93976" lon="4.71976">
        <ele>173</ele>
        <time>2016-11-28T11:40:09Z</time>
      </trkpt>
      <trkpt lat="45.93972" lon="4.71981">
        <ele>173</ele>
        <time>2016-11-28T11:40:10Z</time>
      </trkpt>
      <trkpt lat="45.93968" lon="4.71985">
        <ele>173</ele>
        <time>2016-11-28T11:40:11Z</time>
      </trkpt>
      <trkpt lat="45.93964" lon="4.71989">
        <ele>173</ele>
        <time>2016-11-28T11:40:12Z</time>
      </trkpt>
      <trkpt lat="45.93959" lon="4.71993">
        <ele>173</ele>
        <time>2016-11-28T11:40:13Z</time>
      </trkpt>
      <trkpt lat="45.93954" lon="4.71997">
        <ele>172</ele>
        <time>2016-11-28T11:40:14Z</time>
      </trkpt>
      <trkpt lat="45.9395" lon="4.72001">
        <ele>172</ele>
        <time>2016-11-28T11:40:15Z</time>
      </trkpt>
      <trkpt lat="45.93945" lon="4.72005">
        <ele>172</ele>
        <time>2016-11-28T11:40:16Z</time>
      </trkpt>
      <trkpt lat="45.93942" lon="4.72009">
        <ele>172</ele>
        <time>2016-11-28T11:40:17Z</time>
      </trkpt>
      <trkpt lat="45.93938" lon="4.72014">
        <ele>172</ele>
        <time>2016-11-28T11:40:18Z</time>
      </trkpt>
      <trkpt lat="45.93934" lon="4.72018">
        <ele>172</ele>
        <time>2016-11-28T11:40:19Z</time>
      </trkpt>
      <trkpt lat="45.9393" lon="4.72023">
        <ele>172</ele>
        <time>2016-11-28T11:40:20Z</time>
      </trkpt>
      <trkpt lat="45.93926" lon="4.72028">
        <ele>172</ele>
        <time>2016-11-28T11:40:21Z</time>
      </trkpt>
      <trkpt lat="45.93923" lon="4.72033">
        <ele>172</ele>
        <time>2016-11-28T11:40:22Z</time>
      </trkpt>
      <trkpt lat="45.93919" lon="4.72037">
        <ele>172</ele>
        <time>2016-11-28T11:40:23Z</time>
      </trkpt>
      <trkpt lat="45.93915" lon="4.72041">
        <ele>172</ele>
        <time>2016-11-28T11:40:24Z</time>
      </trkpt>
      <trkpt lat="45.93908" lon="4.72049">
        <ele>172</ele>
        <time>2016-11-28T11:40:26Z</time>
      </trkpt>
      <trkpt lat="45.93905" lon="4.72052">
        <ele>172</ele>
        <time>2016-11-28T11:40:27Z</time>
      </trkpt>
      <trkpt lat="45.93898" lon="4.7206">
        <ele>172</ele>
        <time>2016-11-28T11:40:32Z</time>
      </trkpt>
      <trkpt lat="45.93897" lon="4.72062">
        <ele>172</ele>
        <time>2016-11-28T11:40:33Z</time>
      </trkpt>
      <trkpt lat="45.93892" lon="4.7207">
        <ele>172</ele>
        <time>2016-11-28T11:40:37Z</time>
      </trkpt>
      <trkpt lat="45.9389" lon="4.72073">
        <ele>172</ele>
        <time>2016-11-28T11:40:38Z</time>
      </trkpt>
      <trkpt lat="45.93883" lon="4.72081">
        <ele>172</ele>
        <time>2016-11-28T11:40:41Z</time>
      </trkpt>
      <trkpt lat="45.93882" lon="4.72084">
        <ele>172</ele>
        <time>2016-11-28T11:40:42Z</time>
      </trkpt>
      <trkpt lat="45.9388" lon="4.72084">
        <ele>172</ele>
        <time>2016-11-28T11:40:49Z</time>
      </trkpt>
      <trkpt lat="45.93879" lon="4.72082">
        <ele>172</ele>
        <time>2016-11-28T11:40:50Z</time>
      </trkpt>
      <trkpt lat="45.93878" lon="4.72081">
        <ele>172</ele>
        <time>2016-11-28T11:40:56Z</time>
      </trkpt>
      <trkpt lat="45.93877" lon="4.72082">
        <ele>172</ele>
        <time>2016-11-28T11:40:57Z</time>
      </trkpt>
      <trkpt lat="45.9387" lon="4.7209">
        <ele>172</ele>
        <time>2016-11-28T11:41:03Z</time>
      </trkpt>
      <trkpt lat="45.93868" lon="4.72093">
        <ele>172</ele>
        <time>2016-11-28T11:41:04Z</time>
      </trkpt>
      <trkpt lat="45.93864" lon="4.72101">
        <ele>172</ele>
        <time>2016-11-28T11:41:06Z</time>
      </trkpt>
      <trkpt lat="45.93861" lon="4.72106">
        <ele>172</ele>
        <time>2016-11-28T11:41:07Z</time>
      </trkpt>
      <trkpt lat="45.93857" lon="4.7211">
        <ele>172</ele>
        <time>2016-11-28T11:41:08Z</time>
      </trkpt>
      <trkpt lat="45.93854" lon="4.72116">
        <ele>172</ele>
        <time>2016-11-28T11:41:09Z</time>
      </trkpt>
      <trkpt lat="45.93851" lon="4.72121">
        <ele>172</ele>
        <time>2016-11-28T11:41:10Z</time>
      </trkpt>
      <trkpt lat="45.93847" lon="4.72126">
        <ele>172</ele>
        <time>2016-11-28T11:41:11Z</time>
      </trkpt>
      <trkpt lat="45.93843" lon="4.72134">
        <ele>172</ele>
        <time>2016-11-28T11:41:13Z</time>
      </trkpt>
      <trkpt lat="45.93841" lon="4.72136">
        <ele>172</ele>
        <time>2016-11-28T11:41:14Z</time>
      </trkpt>
      <trkpt lat="45.93836" lon="4.72144">
        <ele>172</ele>
        <time>2016-11-28T11:41:19Z</time>
      </trkpt>
      <trkpt lat="45.93834" lon="4.72146">
        <ele>171</ele>
        <time>2016-11-28T11:41:20Z</time>
      </trkpt>
      <trkpt lat="45.93829" lon="4.72153">
        <ele>172</ele>
        <time>2016-11-28T11:41:22Z</time>
      </trkpt>
      <trkpt lat="45.93826" lon="4.72158">
        <ele>172</ele>
        <time>2016-11-28T11:41:23Z</time>
      </trkpt>
      <trkpt lat="45.93823" lon="4.72162">
        <ele>172</ele>
        <time>2016-11-28T11:41:24Z</time>
      </trkpt>
      <trkpt lat="45.93818" lon="4.72167">
        <ele>172</ele>
        <time>2016-11-28T11:41:25Z</time>
      </trkpt>
      <trkpt lat="45.93815" lon="4.72174">
        <ele>172</ele>
        <time>2016-11-28T11:41:26Z</time>
      </trkpt>
      <trkpt lat="45.93813" lon="4.72181">
        <ele>172</ele>
        <time>2016-11-28T11:41:27Z</time>
      </trkpt>
      <trkpt lat="45.93811" lon="4.72188">
        <ele>172</ele>
        <time>2016-11-28T11:41:28Z</time>
      </trkpt>
      <trkpt lat="45.93809" lon="4.72193">
        <ele>172</ele>
        <time>2016-11-28T11:41:29Z</time>
      </trkpt>
      <trkpt lat="45.93804" lon="4.72203">
        <ele>172</ele>
        <time>2016-11-28T11:41:31Z</time>
      </trkpt>
      <trkpt lat="45.938" lon="4.72208">
        <ele>172</ele>
        <time>2016-11-28T11:41:32Z</time>
      </trkpt>
      <trkpt lat="45.93797" lon="4.72213">
        <ele>172</ele>
        <time>2016-11-28T11:41:33Z</time>
      </trkpt>
      <trkpt lat="45.93793" lon="4.72218">
        <ele>172</ele>
        <time>2016-11-28T11:41:34Z</time>
      </trkpt>
      <trkpt lat="45.9379" lon="4.72223">
        <ele>172</ele>
        <time>2016-11-28T11:41:35Z</time>
      </trkpt>
      <trkpt lat="45.93786" lon="4.72229">
        <ele>172</ele>
        <time>2016-11-28T11:41:36Z</time>
      </trkpt>
      <trkpt lat="45.93782" lon="4.72234">
        <ele>172</ele>
        <time>2016-11-28T11:41:37Z</time>
      </trkpt>
      <trkpt lat="45.93778" lon="4.72239">
        <ele>172</ele>
        <time>2016-11-28T11:41:38Z</time>
      </trkpt>
      <trkpt lat="45.93775" lon="4.72245">
        <ele>172</ele>
        <time>2016-11-28T11:41:39Z</time>
      </trkpt>
      <trkpt lat="45.93772" lon="4.7225">
        <ele>172</ele>
        <time>2016-11-28T11:41:40Z</time>
      </trkpt>
      <trkpt lat="45.93769" lon="4.72256">
        <ele>172</ele>
        <time>2016-11-28T11:41:41Z</time>
      </trkpt>
      <trkpt lat="45.93766" lon="4.72261">
        <ele>172</ele>
        <time>2016-11-28T11:41:42Z</time>
      </trkpt>
      <trkpt lat="45.93761" lon="4.72271">
        <ele>172</ele>
        <time>2016-11-28T11:41:44Z</time>
      </trkpt>
      <trkpt lat="45.93758" lon="4.72277">
        <ele>172</ele>
        <time>2016-11-28T11:41:45Z</time>
      </trkpt>
      <trkpt lat="45.93755" lon="4.72282">
        <ele>172</ele>
        <time>2016-11-28T11:41:46Z</time>
      </trkpt>
      <trkpt lat="45.93753" lon="4.72288">
        <ele>172</ele>
        <time>2016-11-28T11:41:47Z</time>
      </trkpt>
      <trkpt lat="45.93749" lon="4.72293">
        <ele>172</ele>
        <time>2016-11-28T11:41:48Z</time>
      </trkpt>
      <trkpt lat="45.93746" lon="4.72299">
        <ele>172</ele>
        <time>2016-11-28T11:41:49Z</time>
      </trkpt>
      <trkpt lat="45.93743" lon="4.72305">
        <ele>172</ele>
        <time>2016-11-28T11:41:50Z</time>
      </trkpt>
      <trkpt lat="45.9374" lon="4.72311">
        <ele>172</ele>
        <time>2016-11-28T11:41:51Z</time>
      </trkpt>
      <trkpt lat="45.93736" lon="4.72317">
        <ele>172</ele>
        <time>2016-11-28T11:41:52Z</time>
      </trkpt>
      <trkpt lat="45.93733" lon="4.72323">
        <ele>172</ele>
        <time>2016-11-28T11:41:53Z</time>
      </trkpt>
      <trkpt lat="45.9373" lon="4.72328">
        <ele>172</ele>
        <time>2016-11-28T11:41:54Z</time>
      </trkpt>
      <trkpt lat="45.93727" lon="4.72334">
        <ele>172</ele>
        <time>2016-11-28T11:41:55Z</time>
      </trkpt>
      <trkpt lat="45.93723" lon="4.7234">
        <ele>172</ele>
        <time>2016-11-28T11:41:56Z</time>
      </trkpt>
      <trkpt lat="45.93721" lon="4.72346">
        <ele>172</ele>
        <time>2016-11-28T11:41:57Z</time>
      </trkpt>
      <trkpt lat="45.93715" lon="4.72356">
        <ele>172</ele>
        <time>2016-11-28T11:41:59Z</time>
      </trkpt>
      <trkpt lat="45.93712" lon="4.7236">
        <ele>172</ele>
        <time>2016-11-28T11:42:00Z</time>
      </trkpt>
      <trkpt lat="45.93704" lon="4.7236">
        <ele>171</ele>
        <time>2016-11-28T11:42:02Z</time>
      </trkpt>
      <trkpt lat="45.93701" lon="4.72357">
        <ele>171</ele>
        <time>2016-11-28T11:42:03Z</time>
      </trkpt>
      <trkpt lat="45.93697" lon="4.72354">
        <ele>171</ele>
        <time>2016-11-28T11:42:04Z</time>
      </trkpt>
      <trkpt lat="45.93693" lon="4.72349">
        <ele>171</ele>
        <time>2016-11-28T11:42:05Z</time>
      </trkpt>
      <trkpt lat="45.93689" lon="4.72345">
        <ele>171</ele>
        <time>2016-11-28T11:42:06Z</time>
      </trkpt>
      <trkpt lat="45.93685" lon="4.72339">
        <ele>171</ele>
        <time>2016-11-28T11:42:07Z</time>
      </trkpt>
      <trkpt lat="45.93681" lon="4.72333">
        <ele>171</ele>
        <time>2016-11-28T11:42:08Z</time>
      </trkpt>
      <trkpt lat="45.93675" lon="4.72328">
        <ele>171</ele>
        <time>2016-11-28T11:42:09Z</time>
      </trkpt>
      <trkpt lat="45.9367" lon="4.72323">
        <ele>171</ele>
        <time>2016-11-28T11:42:10Z</time>
      </trkpt>
      <trkpt lat="45.93665" lon="4.72318">
        <ele>172</ele>
        <time>2016-11-28T11:42:11Z</time>
      </trkpt>
      <trkpt lat="45.93661" lon="4.72312">
        <ele>172</ele>
        <time>2016-11-28T11:42:12Z</time>
      </trkpt>
      <trkpt lat="45.93657" lon="4.72308">
        <ele>172</ele>
        <time>2016-11-28T11:42:13Z</time>
      </trkpt>
      <trkpt lat="45.93652" lon="4.72303">
        <ele>172</ele>
        <time>2016-11-28T11:42:14Z</time>
      </trkpt>
      <trkpt lat="45.93648" lon="4.723">
        <ele>172</ele>
        <time>2016-11-28T11:42:15Z</time>
      </trkpt>
      <trkpt lat="45.93644" lon="4.72296">
        <ele>172</ele>
        <time>2016-11-28T11:42:16Z</time>
      </trkpt>
      <trkpt lat="45.9364" lon="4.72293">
        <ele>172</ele>
        <time>2016-11-28T11:42:17Z</time>
      </trkpt>
      <trkpt lat="45.93633" lon="4.72286">
        <ele>172</ele>
        <time>2016-11-28T11:42:19Z</time>
      </trkpt>
      <trkpt lat="45.93629" lon="4.72282">
        <ele>172</ele>
        <time>2016-11-28T11:42:20Z</time>
      </trkpt>
      <trkpt lat="45.93624" lon="4.7228">
        <ele>172</ele>
        <time>2016-11-28T11:42:21Z</time>
      </trkpt>
      <trkpt lat="45.9362" lon="4.72277">
        <ele>172</ele>
        <time>2016-11-28T11:42:22Z</time>
      </trkpt>
      <trkpt lat="45.93613" lon="4.7227">
        <ele>172</ele>
        <time>2016-11-28T11:42:24Z</time>
      </trkpt>
      <trkpt lat="45.93609" lon="4.72267">
        <ele>172</ele>
        <time>2016-11-28T11:42:25Z</time>
      </trkpt>
      <trkpt lat="45.93603" lon="4.72261">
        <ele>173</ele>
        <time>2016-11-28T11:42:27Z</time>
      </trkpt>
      <trkpt lat="45.936" lon="4.72258">
        <ele>173</ele>
        <time>2016-11-28T11:42:28Z</time>
      </trkpt>
      <trkpt lat="45.93595" lon="4.72255">
        <ele>173</ele>
        <time>2016-11-28T11:42:29Z</time>
      </trkpt>
      <trkpt lat="45.93591" lon="4.72252">
        <ele>173</ele>
        <time>2016-11-28T11:42:30Z</time>
      </trkpt>
      <trkpt lat="45.93588" lon="4.72248">
        <ele>173</ele>
        <time>2016-11-28T11:42:31Z</time>
      </trkpt>
      <trkpt lat="45.93584" lon="4.72244">
        <ele>173</ele>
        <time>2016-11-28T11:42:32Z</time>
      </trkpt>
      <trkpt lat="45.93581" lon="4.72239">
        <ele>173</ele>
        <time>2016-11-28T11:42:33Z</time>
      </trkpt>
      <trkpt lat="45.93579" lon="4.72233">
        <ele>173</ele>
        <time>2016-11-28T11:42:34Z</time>
      </trkpt>
      <trkpt lat="45.93575" lon="4.72222">
        <ele>173</ele>
        <time>2016-11-28T11:42:36Z</time>
      </trkpt>
      <trkpt lat="45.93574" lon="4.72216">
        <ele>173</ele>
        <time>2016-11-28T11:42:37Z</time>
      </trkpt>
      <trkpt lat="45.9357" lon="4.72206">
        <ele>173</ele>
        <time>2016-11-28T11:42:39Z</time>
      </trkpt>
      <trkpt lat="45.93566" lon="4.72202">
        <ele>173</ele>
        <time>2016-11-28T11:42:40Z</time>
      </trkpt>
      <trkpt lat="45.93558" lon="4.72204">
        <ele>173</ele>
        <time>2016-11-28T11:42:42Z</time>
      </trkpt>
      <trkpt lat="45.93555" lon="4.72209">
        <ele>173</ele>
        <time>2016-11-28T11:42:43Z</time>
      </trkpt>
      <trkpt lat="45.93552" lon="4.72215">
        <ele>173</ele>
        <time>2016-11-28T11:42:44Z</time>
      </trkpt>
      <trkpt lat="45.9355" lon="4.72221">
        <ele>173</ele>
        <time>2016-11-28T11:42:45Z</time>
      </trkpt>
      <trkpt lat="45.93548" lon="4.72227">
        <ele>172</ele>
        <time>2016-11-28T11:42:46Z</time>
      </trkpt>
      <trkpt lat="45.93546" lon="4.72232">
        <ele>172</ele>
        <time>2016-11-28T11:42:47Z</time>
      </trkpt>
      <trkpt lat="45.93544" lon="4.72238">
        <ele>172</ele>
        <time>2016-11-28T11:42:48Z</time>
      </trkpt>
      <trkpt lat="45.93541" lon="4.72244">
        <ele>172</ele>
        <time>2016-11-28T11:42:49Z</time>
      </trkpt>
      <trkpt lat="45.93538" lon="4.7225">
        <ele>172</ele>
        <time>2016-11-28T11:42:50Z</time>
      </trkpt>
      <trkpt lat="45.93536" lon="4.72256">
        <ele>172</ele>
        <time>2016-11-28T11:42:51Z</time>
      </trkpt>
      <trkpt lat="45.93533" lon="4.72262">
        <ele>172</ele>
        <time>2016-11-28T11:42:52Z</time>
      </trkpt>
      <trkpt lat="45.93531" lon="4.72267">
        <ele>172</ele>
        <time>2016-11-28T11:42:53Z</time>
      </trkpt>
      <trkpt lat="45.93529" lon="4.72273">
        <ele>172</ele>
        <time>2016-11-28T11:42:54Z</time>
      </trkpt>
      <trkpt lat="45.93526" lon="4.72278">
        <ele>172</ele>
        <time>2016-11-28T11:42:55Z</time>
      </trkpt>
      <trkpt lat="45.93524" lon="4.72284">
        <ele>172</ele>
        <time>2016-11-28T11:42:56Z</time>
      </trkpt>
      <trkpt lat="45.93521" lon="4.7229">
        <ele>172</ele>
        <time>2016-11-28T11:42:57Z</time>
      </trkpt>
      <trkpt lat="45.93518" lon="4.72296">
        <ele>172</ele>
        <time>2016-11-28T11:42:58Z</time>
      </trkpt>
      <trkpt lat="45.93515" lon="4.72302">
        <ele>172</ele>
        <time>2016-11-28T11:42:59Z</time>
      </trkpt>
      <trkpt lat="45.93511" lon="4.72308">
        <ele>173</ele>
        <time>2016-11-28T11:43:00Z</time>
      </trkpt>
      <trkpt lat="45.93506" lon="4.72314">
        <ele>173</ele>
        <time>2016-11-28T11:43:01Z</time>
      </trkpt>
      <trkpt lat="45.93502" lon="4.7232">
        <ele>173</ele>
        <time>2016-11-28T11:43:02Z</time>
      </trkpt>
      <trkpt lat="45.93498" lon="4.72325">
        <ele>173</ele>
        <time>2016-11-28T11:43:03Z</time>
      </trkpt>
      <trkpt lat="45.93494" lon="4.72331">
        <ele>173</ele>
        <time>2016-11-28T11:43:04Z</time>
      </trkpt>
      <trkpt lat="45.93489" lon="4.72337">
        <ele>173</ele>
        <time>2016-11-28T11:43:05Z</time>
      </trkpt>
      <trkpt lat="45.93485" lon="4.72342">
        <ele>173</ele>
        <time>2016-11-28T11:43:06Z</time>
      </trkpt>
      <trkpt lat="45.93481" lon="4.72348">
        <ele>173</ele>
        <time>2016-11-28T11:43:07Z</time>
      </trkpt>
      <trkpt lat="45.93477" lon="4.72353">
        <ele>173</ele>
        <time>2016-11-28T11:43:08Z</time>
      </trkpt>
      <trkpt lat="45.93473" lon="4.72359">
        <ele>173</ele>
        <time>2016-11-28T11:43:09Z</time>
      </trkpt>
      <trkpt lat="45.93468" lon="4.72365">
        <ele>173</ele>
        <time>2016-11-28T11:43:10Z</time>
      </trkpt>
      <trkpt lat="45.93464" lon="4.7237">
        <ele>173</ele>
        <time>2016-11-28T11:43:11Z</time>
      </trkpt>
      <trkpt lat="45.93459" lon="4.72375">
        <ele>173</ele>
        <time>2016-11-28T11:43:12Z</time>
      </trkpt>
      <trkpt lat="45.93453" lon="4.72381">
        <ele>173</ele>
        <time>2016-11-28T11:43:13Z</time>
      </trkpt>
      <trkpt lat="45.93448" lon="4.72386">
        <ele>173</ele>
        <time>2016-11-28T11:43:14Z</time>
      </trkpt>
      <trkpt lat="45.93443" lon="4.72391">
        <ele>173</ele>
        <time>2016-11-28T11:43:15Z</time>
      </trkpt>
      <trkpt lat="45.93438" lon="4.72396">
        <ele>173</ele>
        <time>2016-11-28T11:43:16Z</time>
      </trkpt>
      <trkpt lat="45.93433" lon="4.72401">
        <ele>174</ele>
        <time>2016-11-28T11:43:17Z</time>
      </trkpt>
      <trkpt lat="45.93428" lon="4.72403">
        <ele>174</ele>
        <time>2016-11-28T11:43:18Z</time>
      </trkpt>
      <trkpt lat="45.93422" lon="4.72406">
        <ele>174</ele>
        <time>2016-11-28T11:43:19Z</time>
      </trkpt>
      <trkpt lat="45.93417" lon="4.72407">
        <ele>174</ele>
        <time>2016-11-28T11:43:20Z</time>
      </trkpt>
      <trkpt lat="45.93412" lon="4.72409">
        <ele>174</ele>
        <time>2016-11-28T11:43:21Z</time>
      </trkpt>
      <trkpt lat="45.93406" lon="4.72409">
        <ele>174</ele>
        <time>2016-11-28T11:43:22Z</time>
      </trkpt>
      <trkpt lat="45.93401" lon="4.72408">
        <ele>174</ele>
        <time>2016-11-28T11:43:23Z</time>
      </trkpt>
      <trkpt lat="45.93397" lon="4.72407">
        <ele>174</ele>
        <time>2016-11-28T11:43:24Z</time>
      </trkpt>
      <trkpt lat="45.93392" lon="4.72409">
        <ele>174</ele>
        <time>2016-11-28T11:43:25Z</time>
      </trkpt>
      <trkpt lat="45.93388" lon="4.72412">
        <ele>174</ele>
        <time>2016-11-28T11:43:26Z</time>
      </trkpt>
      <trkpt lat="45.93385" lon="4.72418">
        <ele>173</ele>
        <time>2016-11-28T11:43:27Z</time>
      </trkpt>
      <trkpt lat="45.93384" lon="4.72424">
        <ele>173</ele>
        <time>2016-11-28T11:43:28Z</time>
      </trkpt>
      <trkpt lat="45.93386" lon="4.72431">
        <ele>173</ele>
        <time>2016-11-28T11:43:29Z</time>
      </trkpt>
      <trkpt lat="45.93388" lon="4.72438">
        <ele>173</ele>
        <time>2016-11-28T11:43:30Z</time>
      </trkpt>
      <trkpt lat="45.9339" lon="4.72445">
        <ele>173</ele>
        <time>2016-11-28T11:43:31Z</time>
      </trkpt>
      <trkpt lat="45.93392" lon="4.72452">
        <ele>173</ele>
        <time>2016-11-28T11:43:32Z</time>
      </trkpt>
      <trkpt lat="45.93391" lon="4.72459">
        <ele>173</ele>
        <time>2016-11-28T11:43:33Z</time>
      </trkpt>
      <trkpt lat="45.93389" lon="4.72466">
        <ele>173</ele>
        <time>2016-11-28T11:43:34Z</time>
      </trkpt>
      <trkpt lat="45.93386" lon="4.72472">
        <ele>173</ele>
        <time>2016-11-28T11:43:35Z</time>
      </trkpt>
      <trkpt lat="45.93381" lon="4.72478">
        <ele>173</ele>
        <time>2016-11-28T11:43:36Z</time>
      </trkpt>
      <trkpt lat="45.93376" lon="4.72483">
        <ele>173</ele>
        <time>2016-11-28T11:43:37Z</time>
      </trkpt>
      <trkpt lat="45.93371" lon="4.72488">
        <ele>173</ele>
        <time>2016-11-28T11:43:38Z</time>
      </trkpt>
      <trkpt lat="45.93366" lon="4.72493">
        <ele>173</ele>
        <time>2016-11-28T11:43:39Z</time>
      </trkpt>
      <trkpt lat="45.93361" lon="4.72499">
        <ele>173</ele>
        <time>2016-11-28T11:43:40Z</time>
      </trkpt>
      <trkpt lat="45.93356" lon="4.72504">
        <ele>172</ele>
        <time>2016-11-28T11:43:41Z</time>
      </trkpt>
      <trkpt lat="45.9335" lon="4.72509">
        <ele>172</ele>
        <time>2016-11-28T11:43:42Z</time>
      </trkpt>
      <trkpt lat="45.93345" lon="4.72515">
        <ele>172</ele>
        <time>2016-11-28T11:43:43Z</time>
      </trkpt>
      <trkpt lat="45.9334" lon="4.7252">
        <ele>172</ele>
        <time>2016-11-28T11:43:44Z</time>
      </trkpt>
      <trkpt lat="45.93335" lon="4.72525">
        <ele>172</ele>
        <time>2016-11-28T11:43:45Z</time>
      </trkpt>
      <trkpt lat="45.93331" lon="4.7253">
        <ele>172</ele>
        <time>2016-11-28T11:43:46Z</time>
      </trkpt>
      <trkpt lat="45.93327" lon="4.72535">
        <ele>172</ele>
        <time>2016-11-28T11:43:47Z</time>
      </trkpt>
      <trkpt lat="45.93322" lon="4.7254">
        <ele>172</ele>
        <time>2016-11-28T11:43:48Z</time>
      </trkpt>
      <trkpt lat="45.93319" lon="4.72545">
        <ele>172</ele>
        <time>2016-11-28T11:43:49Z</time>
      </trkpt>
      <trkpt lat="45.93315" lon="4.7255">
        <ele>172</ele>
        <time>2016-11-28T11:43:50Z</time>
      </trkpt>
      <trkpt lat="45.93311" lon="4.72554">
        <ele>172</ele>
        <time>2016-11-28T11:43:51Z</time>
      </trkpt>
      <trkpt lat="45.93306" lon="4.7256">
        <ele>172</ele>
        <time>2016-11-28T11:43:52Z</time>
      </trkpt>
      <trkpt lat="45.93301" lon="4.72565">
        <ele>172</ele>
        <time>2016-11-28T11:43:53Z</time>
      </trkpt>
      <trkpt lat="45.93297" lon="4.7257">
        <ele>172</ele>
        <time>2016-11-28T11:43:54Z</time>
      </trkpt>
      <trkpt lat="45.93292" lon="4.72575">
        <ele>171</ele>
        <time>2016-11-28T11:43:55Z</time>
      </trkpt>
      <trkpt lat="45.93287" lon="4.72581">
        <ele>171</ele>
        <time>2016-11-28T11:43:56Z</time>
      </trkpt>
      <trkpt lat="45.93283" lon="4.72586">
        <ele>170</ele>
        <time>2016-11-28T11:43:57Z</time>
      </trkpt>
      <trkpt lat="45.93278" lon="4.72592">
        <ele>170</ele>
        <time>2016-11-28T11:43:58Z</time>
      </trkpt>
      <trkpt lat="45.93274" lon="4.72596">
        <ele>170</ele>
        <time>2016-11-28T11:43:59Z</time>
      </trkpt>
      <trkpt lat="45.93269" lon="4.72601">
        <ele>170</ele>
        <time>2016-11-28T11:44:00Z</time>
      </trkpt>
      <trkpt lat="45.93264" lon="4.72606">
        <ele>170</ele>
        <time>2016-11-28T11:44:01Z</time>
      </trkpt>
      <trkpt lat="45.9326" lon="4.72611">
        <ele>170</ele>
        <time>2016-11-28T11:44:02Z</time>
      </trkpt>
      <trkpt lat="45.93256" lon="4.72616">
        <ele>170</ele>
        <time>2016-11-28T11:44:03Z</time>
      </trkpt>
      <trkpt lat="45.93252" lon="4.72621">
        <ele>170</ele>
        <time>2016-11-28T11:44:04Z</time>
      </trkpt>
      <trkpt lat="45.93248" lon="4.72626">
        <ele>170</ele>
        <time>2016-11-28T11:44:05Z</time>
      </trkpt>
      <trkpt lat="45.93243" lon="4.72631">
        <ele>170</ele>
        <time>2016-11-28T11:44:06Z</time>
      </trkpt>
      <trkpt lat="45.93239" lon="4.72636">
        <ele>170</ele>
        <time>2016-11-28T11:44:07Z</time>
      </trkpt>
      <trkpt lat="45.93235" lon="4.72641">
        <ele>170</ele>
        <time>2016-11-28T11:44:08Z</time>
      </trkpt>
      <trkpt lat="45.93231" lon="4.72646">
        <ele>170</ele>
        <time>2016-11-28T11:44:09Z</time>
      </trkpt>
      <trkpt lat="45.93226" lon="4.72652">
        <ele>170</ele>
        <time>2016-11-28T11:44:10Z</time>
      </trkpt>
      <trkpt lat="45.93222" lon="4.72658">
        <ele>170</ele>
        <time>2016-11-28T11:44:11Z</time>
      </trkpt>
      <trkpt lat="45.93217" lon="4.72663">
        <ele>170</ele>
        <time>2016-11-28T11:44:12Z</time>
      </trkpt>
      <trkpt lat="45.93213" lon="4.72668">
        <ele>169</ele>
        <time>2016-11-28T11:44:13Z</time>
      </trkpt>
      <trkpt lat="45.93208" lon="4.72674">
        <ele>169</ele>
        <time>2016-11-28T11:44:14Z</time>
      </trkpt>
      <trkpt lat="45.93204" lon="4.72679">
        <ele>169</ele>
        <time>2016-11-28T11:44:15Z</time>
      </trkpt>
      <trkpt lat="45.93199" lon="4.72684">
        <ele>169</ele>
        <time>2016-11-28T11:44:16Z</time>
      </trkpt>
      <trkpt lat="45.93194" lon="4.7269">
        <ele>169</ele>
        <time>2016-11-28T11:44:17Z</time>
      </trkpt>
      <trkpt lat="45.93189" lon="4.72695">
        <ele>169</ele>
        <time>2016-11-28T11:44:18Z</time>
      </trkpt>
      <trkpt lat="45.93185" lon="4.72701">
        <ele>169</ele>
        <time>2016-11-28T11:44:19Z</time>
      </trkpt>
      <trkpt lat="45.93181" lon="4.72707">
        <ele>169</ele>
        <time>2016-11-28T11:44:20Z</time>
      </trkpt>
      <trkpt lat="45.93176" lon="4.72712">
        <ele>169</ele>
        <time>2016-11-28T11:44:21Z</time>
      </trkpt>
      <trkpt lat="45.93172" lon="4.72718">
        <ele>170</ele>
        <time>2016-11-28T11:44:22Z</time>
      </trkpt>
      <trkpt lat="45.93168" lon="4.72723">
        <ele>170</ele>
        <time>2016-11-28T11:44:23Z</time>
      </trkpt>
      <trkpt lat="45.93163" lon="4.72727">
        <ele>170</ele>
        <time>2016-11-28T11:44:24Z</time>
      </trkpt>
      <trkpt lat="45.93159" lon="4.72732">
        <ele>170</ele>
        <time>2016-11-28T11:44:25Z</time>
      </trkpt>
      <trkpt lat="45.93155" lon="4.72737">
        <ele>170</ele>
        <time>2016-11-28T11:44:26Z</time>
      </trkpt>
      <trkpt lat="45.93151" lon="4.72741">
        <ele>170</ele>
        <time>2016-11-28T11:44:27Z</time>
      </trkpt>
      <trkpt lat="45.93147" lon="4.72746">
        <ele>170</ele>
        <time>2016-11-28T11:44:28Z</time>
      </trkpt>
      <trkpt lat="45.93143" lon="4.7275">
        <ele>171</ele>
        <time>2016-11-28T11:44:29Z</time>
      </trkpt>
      <trkpt lat="45.93139" lon="4.72755">
        <ele>171</ele>
        <time>2016-11-28T11:44:30Z</time>
      </trkpt>
      <trkpt lat="45.93135" lon="4.72759">
        <ele>171</ele>
        <time>2016-11-28T11:44:31Z</time>
      </trkpt>
      <trkpt lat="45.93132" lon="4.72764">
        <ele>171</ele>
        <time>2016-11-28T11:44:32Z</time>
      </trkpt>
      <trkpt lat="45.93128" lon="4.72768">
        <ele>171</ele>
        <time>2016-11-28T11:44:33Z</time>
      </trkpt>
      <trkpt lat="45.93121" lon="4.72775">
        <ele>171</ele>
        <time>2016-11-28T11:44:35Z</time>
      </trkpt>
      <trkpt lat="45.93118" lon="4.72779">
        <ele>171</ele>
        <time>2016-11-28T11:44:36Z</time>
      </trkpt>
      <trkpt lat="45.93112" lon="4.72786">
        <ele>171</ele>
        <time>2016-11-28T11:44:38Z</time>
      </trkpt>
      <trkpt lat="45.93109" lon="4.7279">
        <ele>171</ele>
        <time>2016-11-28T11:44:39Z</time>
      </trkpt>
      <trkpt lat="45.93106" lon="4.72794">
        <ele>171</ele>
        <time>2016-11-28T11:44:40Z</time>
      </trkpt>
      <trkpt lat="45.93102" lon="4.72799">
        <ele>171</ele>
        <time>2016-11-28T11:44:41Z</time>
      </trkpt>
      <trkpt lat="45.93098" lon="4.72804">
        <ele>171</ele>
        <time>2016-11-28T11:44:42Z</time>
      </trkpt>
      <trkpt lat="45.93094" lon="4.72809">
        <ele>172</ele>
        <time>2016-11-28T11:44:43Z</time>
      </trkpt>
      <trkpt lat="45.9309" lon="4.72814">
        <ele>172</ele>
        <time>2016-11-28T11:44:44Z</time>
      </trkpt>
      <trkpt lat="45.93086" lon="4.72818">
        <ele>172</ele>
        <time>2016-11-28T11:44:45Z</time>
      </trkpt>
      <trkpt lat="45.93082" lon="4.72822">
        <ele>173</ele>
        <time>2016-11-28T11:44:46Z</time>
      </trkpt>
      <trkpt lat="45.93079" lon="4.72826">
        <ele>173</ele>
        <time>2016-11-28T11:44:47Z</time>
      </trkpt>
      <trkpt lat="45.93073" lon="4.72833">
        <ele>173</ele>
        <time>2016-11-28T11:44:49Z</time>
      </trkpt>
      <trkpt lat="45.9307" lon="4.72837">
        <ele>173</ele>
        <time>2016-11-28T11:44:50Z</time>
      </trkpt>
      <trkpt lat="45.93065" lon="4.72839">
        <ele>173</ele>
        <time>2016-11-28T11:44:51Z</time>
      </trkpt>
      <trkpt lat="45.9306" lon="4.72846">
        <ele>172</ele>
        <time>2016-11-28T11:44:52Z</time>
      </trkpt>
      <trkpt lat="45.93057" lon="4.72856">
        <ele>172</ele>
        <time>2016-11-28T11:44:53Z</time>
      </trkpt>
      <trkpt lat="45.93052" lon="4.7286">
        <ele>172</ele>
        <time>2016-11-28T11:44:54Z</time>
      </trkpt>
      <trkpt lat="45.93047" lon="4.72863">
        <ele>172</ele>
        <time>2016-11-28T11:44:55Z</time>
      </trkpt>
      <trkpt lat="45.93043" lon="4.72868">
        <ele>172</ele>
        <time>2016-11-28T11:44:56Z</time>
      </trkpt>
      <trkpt lat="45.93039" lon="4.72873">
        <ele>172</ele>
        <time>2016-11-28T11:44:57Z</time>
      </trkpt>
      <trkpt lat="45.93034" lon="4.72878">
        <ele>172</ele>
        <time>2016-11-28T11:44:58Z</time>
      </trkpt>
      <trkpt lat="45.93029" lon="4.72883">
        <ele>172</ele>
        <time>2016-11-28T11:44:59Z</time>
      </trkpt>
      <trkpt lat="45.93024" lon="4.72889">
        <ele>172</ele>
        <time>2016-11-28T11:45:00Z</time>
      </trkpt>
      <trkpt lat="45.9302" lon="4.72893">
        <ele>172</ele>
        <time>2016-11-28T11:45:01Z</time>
      </trkpt>
      <trkpt lat="45.93015" lon="4.72899">
        <ele>172</ele>
        <time>2016-11-28T11:45:02Z</time>
      </trkpt>
      <trkpt lat="45.93011" lon="4.72905">
        <ele>171</ele>
        <time>2016-11-28T11:45:03Z</time>
      </trkpt>
      <trkpt lat="45.93006" lon="4.7291">
        <ele>171</ele>
        <time>2016-11-28T11:45:04Z</time>
      </trkpt>
      <trkpt lat="45.93002" lon="4.72916">
        <ele>171</ele>
        <time>2016-11-28T11:45:05Z</time>
      </trkpt>
      <trkpt lat="45.92997" lon="4.72922">
        <ele>171</ele>
        <time>2016-11-28T11:45:06Z</time>
      </trkpt>
      <trkpt lat="45.92992" lon="4.72927">
        <ele>171</ele>
        <time>2016-11-28T11:45:07Z</time>
      </trkpt>
      <trkpt lat="45.92988" lon="4.72932">
        <ele>171</ele>
        <time>2016-11-28T11:45:08Z</time>
      </trkpt>
      <trkpt lat="45.92983" lon="4.72938">
        <ele>171</ele>
        <time>2016-11-28T11:45:09Z</time>
      </trkpt>
      <trkpt lat="45.92978" lon="4.72944">
        <ele>171</ele>
        <time>2016-11-28T11:45:10Z</time>
      </trkpt>
      <trkpt lat="45.92973" lon="4.7295">
        <ele>171</ele>
        <time>2016-11-28T11:45:11Z</time>
      </trkpt>
      <trkpt lat="45.92968" lon="4.72955">
        <ele>171</ele>
        <time>2016-11-28T11:45:12Z</time>
      </trkpt>
      <trkpt lat="45.92964" lon="4.72961">
        <ele>171</ele>
        <time>2016-11-28T11:45:13Z</time>
      </trkpt>
      <trkpt lat="45.92959" lon="4.72966">
        <ele>171</ele>
        <time>2016-11-28T11:45:14Z</time>
      </trkpt>
      <trkpt lat="45.92955" lon="4.72972">
        <ele>171</ele>
        <time>2016-11-28T11:45:15Z</time>
      </trkpt>
      <trkpt lat="45.92951" lon="4.72977">
        <ele>171</ele>
        <time>2016-11-28T11:45:16Z</time>
      </trkpt>
      <trkpt lat="45.92947" lon="4.72982">
        <ele>171</ele>
        <time>2016-11-28T11:45:17Z</time>
      </trkpt>
      <trkpt lat="45.92943" lon="4.72987">
        <ele>171</ele>
        <time>2016-11-28T11:45:18Z</time>
      </trkpt>
      <trkpt lat="45.92939" lon="4.72991">
        <ele>171</ele>
        <time>2016-11-28T11:45:19Z</time>
      </trkpt>
      <trkpt lat="45.92935" lon="4.72996">
        <ele>172</ele>
        <time>2016-11-28T11:45:20Z</time>
      </trkpt>
      <trkpt lat="45.9293" lon="4.73002">
        <ele>172</ele>
        <time>2016-11-28T11:45:21Z</time>
      </trkpt>
      <trkpt lat="45.92926" lon="4.73007">
        <ele>172</ele>
        <time>2016-11-28T11:45:22Z</time>
      </trkpt>
      <trkpt lat="45.92922" lon="4.73012">
        <ele>172</ele>
        <time>2016-11-28T11:45:23Z</time>
      </trkpt>
      <trkpt lat="45.92918" lon="4.73017">
        <ele>172</ele>
        <time>2016-11-28T11:45:24Z</time>
      </trkpt>
      <trkpt lat="45.92914" lon="4.73022">
        <ele>172</ele>
        <time>2016-11-28T11:45:25Z</time>
      </trkpt>
      <trkpt lat="45.9291" lon="4.73027">
        <ele>172</ele>
        <time>2016-11-28T11:45:26Z</time>
      </trkpt>
      <trkpt lat="45.92906" lon="4.73032">
        <ele>172</ele>
        <time>2016-11-28T11:45:27Z</time>
      </trkpt>
      <trkpt lat="45.92902" lon="4.73038">
        <ele>172</ele>
        <time>2016-11-28T11:45:28Z</time>
      </trkpt>
      <trkpt lat="45.92898" lon="4.73044">
        <ele>172</ele>
        <time>2016-11-28T11:45:29Z</time>
      </trkpt>
      <trkpt lat="45.92895" lon="4.7305">
        <ele>172</ele>
        <time>2016-11-28T11:45:30Z</time>
      </trkpt>
      <trkpt lat="45.92891" lon="4.73056">
        <ele>172</ele>
        <time>2016-11-28T11:45:31Z</time>
      </trkpt>
      <trkpt lat="45.92887" lon="4.73063">
        <ele>172</ele>
        <time>2016-11-28T11:45:32Z</time>
      </trkpt>
      <trkpt lat="45.92884" lon="4.73069">
        <ele>172</ele>
        <time>2016-11-28T11:45:33Z</time>
      </trkpt>
      <trkpt lat="45.9288" lon="4.73076">
        <ele>172</ele>
        <time>2016-11-28T11:45:34Z</time>
      </trkpt>
      <trkpt lat="45.92877" lon="4.73083">
        <ele>172</ele>
        <time>2016-11-28T11:45:35Z</time>
      </trkpt>
      <trkpt lat="45.92874" lon="4.73091">
        <ele>172</ele>
        <time>2016-11-28T11:45:36Z</time>
      </trkpt>
      <trkpt lat="45.92872" lon="4.73099">
        <ele>172</ele>
        <time>2016-11-28T11:45:37Z</time>
      </trkpt>
      <trkpt lat="45.9287" lon="4.73106">
        <ele>172</ele>
        <time>2016-11-28T11:45:38Z</time>
      </trkpt>
      <trkpt lat="45.92868" lon="4.73114">
        <ele>171</ele>
        <time>2016-11-28T11:45:39Z</time>
      </trkpt>
      <trkpt lat="45.92866" lon="4.73121">
        <ele>171</ele>
        <time>2016-11-28T11:45:40Z</time>
      </trkpt>
      <trkpt lat="45.92865" lon="4.73129">
        <ele>171</ele>
        <time>2016-11-28T11:45:41Z</time>
      </trkpt>
      <trkpt lat="45.92863" lon="4.73137">
        <ele>171</ele>
        <time>2016-11-28T11:45:42Z</time>
      </trkpt>
      <trkpt lat="45.92862" lon="4.73145">
        <ele>171</ele>
        <time>2016-11-28T11:45:43Z</time>
      </trkpt>
      <trkpt lat="45.92861" lon="4.73153">
        <ele>171</ele>
        <time>2016-11-28T11:45:44Z</time>
      </trkpt>
      <trkpt lat="45.92861" lon="4.73162">
        <ele>171</ele>
        <time>2016-11-28T11:45:45Z</time>
      </trkpt>
      <trkpt lat="45.9286" lon="4.7317">
        <ele>171</ele>
        <time>2016-11-28T11:45:46Z</time>
      </trkpt>
      <trkpt lat="45.92859" lon="4.73178">
        <ele>171</ele>
        <time>2016-11-28T11:45:47Z</time>
      </trkpt>
      <trkpt lat="45.92858" lon="4.73186">
        <ele>171</ele>
        <time>2016-11-28T11:45:48Z</time>
      </trkpt>
      <trkpt lat="45.92856" lon="4.73194">
        <ele>171</ele>
        <time>2016-11-28T11:45:49Z</time>
      </trkpt>
      <trkpt lat="45.92856" lon="4.73203">
        <ele>171</ele>
        <time>2016-11-28T11:45:50Z</time>
      </trkpt>
      <trkpt lat="45.92855" lon="4.73211">
        <ele>171</ele>
        <time>2016-11-28T11:45:51Z</time>
      </trkpt>
      <trkpt lat="45.92855" lon="4.7322">
        <ele>171</ele>
        <time>2016-11-28T11:45:52Z</time>
      </trkpt>
      <trkpt lat="45.92854" lon="4.73228">
        <ele>171</ele>
        <time>2016-11-28T11:45:53Z</time>
      </trkpt>
      <trkpt lat="45.92852" lon="4.73235">
        <ele>171</ele>
        <time>2016-11-28T11:45:54Z</time>
      </trkpt>
      <trkpt lat="45.92851" lon="4.73243">
        <ele>171</ele>
        <time>2016-11-28T11:45:55Z</time>
      </trkpt>
      <trkpt lat="45.9285" lon="4.73251">
        <ele>171</ele>
        <time>2016-11-28T11:45:56Z</time>
      </trkpt>
      <trkpt lat="45.9285" lon="4.73258">
        <ele>171</ele>
        <time>2016-11-28T11:45:57Z</time>
      </trkpt>
      <trkpt lat="45.92849" lon="4.73266">
        <ele>171</ele>
        <time>2016-11-28T11:45:58Z</time>
      </trkpt>
      <trkpt lat="45.92848" lon="4.73274">
        <ele>171</ele>
        <time>2016-11-28T11:45:59Z</time>
      </trkpt>
      <trkpt lat="45.92847" lon="4.73281">
        <ele>171</ele>
        <time>2016-11-28T11:46:00Z</time>
      </trkpt>
      <trkpt lat="45.92847" lon="4.73289">
        <ele>171</ele>
        <time>2016-11-28T11:46:01Z</time>
      </trkpt>
      <trkpt lat="45.92846" lon="4.73297">
        <ele>171</ele>
        <time>2016-11-28T11:46:02Z</time>
      </trkpt>
      <trkpt lat="45.92845" lon="4.73305">
        <ele>171</ele>
        <time>2016-11-28T11:46:03Z</time>
      </trkpt>
      <trkpt lat="45.92844" lon="4.73313">
        <ele>171</ele>
        <time>2016-11-28T11:46:04Z</time>
      </trkpt>
      <trkpt lat="45.92843" lon="4.73322">
        <ele>171</ele>
        <time>2016-11-28T11:46:05Z</time>
      </trkpt>
      <trkpt lat="45.92842" lon="4.7333">
        <ele>171</ele>
        <time>2016-11-28T11:46:06Z</time>
      </trkpt>
      <trkpt lat="45.92841" lon="4.73338">
        <ele>171</ele>
        <time>2016-11-28T11:46:07Z</time>
      </trkpt>
      <trkpt lat="45.9284" lon="4.73347">
        <ele>171</ele>
        <time>2016-11-28T11:46:08Z</time>
      </trkpt>
      <trkpt lat="45.92839" lon="4.73355">
        <ele>171</ele>
        <time>2016-11-28T11:46:09Z</time>
      </trkpt>
      <trkpt lat="45.92838" lon="4.73363">
        <ele>171</ele>
        <time>2016-11-28T11:46:10Z</time>
      </trkpt>
      <trkpt lat="45.92837" lon="4.73371">
        <ele>171</ele>
        <time>2016-11-28T11:46:11Z</time>
      </trkpt>
      <trkpt lat="45.92836" lon="4.73379">
        <ele>172</ele>
        <time>2016-11-28T11:46:12Z</time>
      </trkpt>
      <trkpt lat="45.92835" lon="4.73386">
        <ele>172</ele>
        <time>2016-11-28T11:46:13Z</time>
      </trkpt>
      <trkpt lat="45.92834" lon="4.73393">
        <ele>172</ele>
        <time>2016-11-28T11:46:14Z</time>
      </trkpt>
      <trkpt lat="45.92833" lon="4.73401">
        <ele>172</ele>
        <time>2016-11-28T11:46:15Z</time>
      </trkpt>
      <trkpt lat="45.92833" lon="4.73408">
        <ele>172</ele>
        <time>2016-11-28T11:46:16Z</time>
      </trkpt>
      <trkpt lat="45.92832" lon="4.73416">
        <ele>172</ele>
        <time>2016-11-28T11:46:17Z</time>
      </trkpt>
      <trkpt lat="45.92832" lon="4.73424">
        <ele>172</ele>
        <time>2016-11-28T11:46:18Z</time>
      </trkpt>
      <trkpt lat="45.92831" lon="4.73432">
        <ele>172</ele>
        <time>2016-11-28T11:46:19Z</time>
      </trkpt>
      <trkpt lat="45.9283" lon="4.7344">
        <ele>172</ele>
        <time>2016-11-28T11:46:20Z</time>
      </trkpt>
      <trkpt lat="45.92829" lon="4.73448">
        <ele>172</ele>
        <time>2016-11-28T11:46:21Z</time>
      </trkpt>
      <trkpt lat="45.92828" lon="4.73456">
        <ele>172</ele>
        <time>2016-11-28T11:46:22Z</time>
      </trkpt>
      <trkpt lat="45.92828" lon="4.73464">
        <ele>172</ele>
        <time>2016-11-28T11:46:23Z</time>
      </trkpt>
      <trkpt lat="45.92827" lon="4.73472">
        <ele>172</ele>
        <time>2016-11-28T11:46:24Z</time>
      </trkpt>
      <trkpt lat="45.92826" lon="4.73479">
        <ele>172</ele>
        <time>2016-11-28T11:46:25Z</time>
      </trkpt>
      <trkpt lat="45.92825" lon="4.73487">
        <ele>172</ele>
        <time>2016-11-28T11:46:26Z</time>
      </trkpt>
      <trkpt lat="45.92823" lon="4.73495">
        <ele>172</ele>
        <time>2016-11-28T11:46:27Z</time>
      </trkpt>
      <trkpt lat="45.92822" lon="4.73502">
        <ele>172</ele>
        <time>2016-11-28T11:46:28Z</time>
      </trkpt>
      <trkpt lat="45.92821" lon="4.7351">
        <ele>172</ele>
        <time>2016-11-28T11:46:29Z</time>
      </trkpt>
      <trkpt lat="45.9282" lon="4.73518">
        <ele>172</ele>
        <time>2016-11-28T11:46:30Z</time>
      </trkpt>
      <trkpt lat="45.92819" lon="4.73525">
        <ele>172</ele>
        <time>2016-11-28T11:46:31Z</time>
      </trkpt>
      <trkpt lat="45.92819" lon="4.73533">
        <ele>172</ele>
        <time>2016-11-28T11:46:32Z</time>
      </trkpt>
      <trkpt lat="45.92818" lon="4.73541">
        <ele>172</ele>
        <time>2016-11-28T11:46:33Z</time>
      </trkpt>
      <trkpt lat="45.92817" lon="4.73548">
        <ele>171</ele>
        <time>2016-11-28T11:46:34Z</time>
      </trkpt>
      <trkpt lat="45.92817" lon="4.73556">
        <ele>171</ele>
        <time>2016-11-28T11:46:35Z</time>
      </trkpt>
      <trkpt lat="45.92817" lon="4.73563">
        <ele>171</ele>
        <time>2016-11-28T11:46:36Z</time>
      </trkpt>
      <trkpt lat="45.92816" lon="4.73571">
        <ele>171</ele>
        <time>2016-11-28T11:46:37Z</time>
      </trkpt>
      <trkpt lat="45.92816" lon="4.73579">
        <ele>171</ele>
        <time>2016-11-28T11:46:38Z</time>
      </trkpt>
      <trkpt lat="45.92815" lon="4.73587">
        <ele>171</ele>
        <time>2016-11-28T11:46:39Z</time>
      </trkpt>
      <trkpt lat="45.92815" lon="4.73595">
        <ele>171</ele>
        <time>2016-11-28T11:46:40Z</time>
      </trkpt>
      <trkpt lat="45.92815" lon="4.73603">
        <ele>172</ele>
        <time>2016-11-28T11:46:41Z</time>
      </trkpt>
      <trkpt lat="45.92815" lon="4.73611">
        <ele>172</ele>
        <time>2016-11-28T11:46:42Z</time>
      </trkpt>
      <trkpt lat="45.92813" lon="4.73619">
        <ele>172</ele>
        <time>2016-11-28T11:46:43Z</time>
      </trkpt>
      <trkpt lat="45.92811" lon="4.73626">
        <ele>172</ele>
        <time>2016-11-28T11:46:44Z</time>
      </trkpt>
      <trkpt lat="45.92808" lon="4.73632">
        <ele>172</ele>
        <time>2016-11-28T11:46:45Z</time>
      </trkpt>
      <trkpt lat="45.92804" lon="4.73638">
        <ele>172</ele>
        <time>2016-11-28T11:46:46Z</time>
      </trkpt>
      <trkpt lat="45.92801" lon="4.73645">
        <ele>172</ele>
        <time>2016-11-28T11:46:47Z</time>
      </trkpt>
      <trkpt lat="45.92799" lon="4.73651">
        <ele>172</ele>
        <time>2016-11-28T11:46:48Z</time>
      </trkpt>
      <trkpt lat="45.92798" lon="4.73658">
        <ele>172</ele>
        <time>2016-11-28T11:46:49Z</time>
      </trkpt>
      <trkpt lat="45.92796" lon="4.73665">
        <ele>172</ele>
        <time>2016-11-28T11:46:50Z</time>
      </trkpt>
      <trkpt lat="45.92795" lon="4.73673">
        <ele>172</ele>
        <time>2016-11-28T11:46:51Z</time>
      </trkpt>
      <trkpt lat="45.92793" lon="4.7368">
        <ele>172</ele>
        <time>2016-11-28T11:46:52Z</time>
      </trkpt>
      <trkpt lat="45.92791" lon="4.73687">
        <ele>172</ele>
        <time>2016-11-28T11:46:53Z</time>
      </trkpt>
      <trkpt lat="45.92789" lon="4.73694">
        <ele>172</ele>
        <time>2016-11-28T11:46:54Z</time>
      </trkpt>
      <trkpt lat="45.92787" lon="4.73701">
        <ele>172</ele>
        <time>2016-11-28T11:46:55Z</time>
      </trkpt>
      <trkpt lat="45.92785" lon="4.73708">
        <ele>172</ele>
        <time>2016-11-28T11:46:56Z</time>
      </trkpt>
      <trkpt lat="45.92784" lon="4.73715">
        <ele>172</ele>
        <time>2016-11-28T11:46:57Z</time>
      </trkpt>
      <trkpt lat="45.92783" lon="4.73722">
        <ele>172</ele>
        <time>2016-11-28T11:46:58Z</time>
      </trkpt>
      <trkpt lat="45.92777" lon="4.7373">
        <ele>172</ele>
        <time>2016-11-28T11:47:00Z</time>
      </trkpt>
      <trkpt lat="45.92773" lon="4.73729">
        <ele>172</ele>
        <time>2016-11-28T11:47:01Z</time>
      </trkpt>
      <trkpt lat="45.92765" lon="4.73725">
        <ele>172</ele>
        <time>2016-11-28T11:47:03Z</time>
      </trkpt>
      <trkpt lat="45.9276" lon="4.73724">
        <ele>172</ele>
        <time>2016-11-28T11:47:04Z</time>
      </trkpt>
      <trkpt lat="45.92755" lon="4.73722">
        <ele>172</ele>
        <time>2016-11-28T11:47:05Z</time>
      </trkpt>
      <trkpt lat="45.9275" lon="4.7372">
        <ele>172</ele>
        <time>2016-11-28T11:47:06Z</time>
      </trkpt>
      <trkpt lat="45.92745" lon="4.73719">
        <ele>173</ele>
        <time>2016-11-28T11:47:07Z</time>
      </trkpt>
      <trkpt lat="45.9274" lon="4.73718">
        <ele>173</ele>
        <time>2016-11-28T11:47:08Z</time>
      </trkpt>
      <trkpt lat="45.92735" lon="4.73717">
        <ele>173</ele>
        <time>2016-11-28T11:47:09Z</time>
      </trkpt>
      <trkpt lat="45.92729" lon="4.73716">
        <ele>173</ele>
        <time>2016-11-28T11:47:10Z</time>
      </trkpt>
      <trkpt lat="45.92723" lon="4.73715">
        <ele>173</ele>
        <time>2016-11-28T11:47:11Z</time>
      </trkpt>
      <trkpt lat="45.92718" lon="4.73714">
        <ele>173</ele>
        <time>2016-11-28T11:47:12Z</time>
      </trkpt>
      <trkpt lat="45.92712" lon="4.73713">
        <ele>173</ele>
        <time>2016-11-28T11:47:13Z</time>
      </trkpt>
      <trkpt lat="45.92706" lon="4.73712">
        <ele>173</ele>
        <time>2016-11-28T11:47:14Z</time>
      </trkpt>
      <trkpt lat="45.92701" lon="4.73711">
        <ele>173</ele>
        <time>2016-11-28T11:47:15Z</time>
      </trkpt>
      <trkpt lat="45.92696" lon="4.7371">
        <ele>173</ele>
        <time>2016-11-28T11:47:16Z</time>
      </trkpt>
      <trkpt lat="45.92691" lon="4.73709">
        <ele>173</ele>
        <time>2016-11-28T11:47:17Z</time>
      </trkpt>
      <trkpt lat="45.92686" lon="4.73707">
        <ele>173</ele>
        <time>2016-11-28T11:47:18Z</time>
      </trkpt>
      <trkpt lat="45.92682" lon="4.73706">
        <ele>173</ele>
        <time>2016-11-28T11:47:19Z</time>
      </trkpt>
      <trkpt lat="45.92677" lon="4.73704">
        <ele>173</ele>
        <time>2016-11-28T11:47:20Z</time>
      </trkpt>
      <trkpt lat="45.92673" lon="4.73702">
        <ele>174</ele>
        <time>2016-11-28T11:47:21Z</time>
      </trkpt>
      <trkpt lat="45.92668" lon="4.73699">
        <ele>174</ele>
        <time>2016-11-28T11:47:22Z</time>
      </trkpt>
      <trkpt lat="45.92663" lon="4.73696">
        <ele>173</ele>
        <time>2016-11-28T11:47:23Z</time>
      </trkpt>
      <trkpt lat="45.92658" lon="4.73692">
        <ele>173</ele>
        <time>2016-11-28T11:47:24Z</time>
      </trkpt>
      <trkpt lat="45.92653" lon="4.73687">
        <ele>173</ele>
        <time>2016-11-28T11:47:25Z</time>
      </trkpt>
      <trkpt lat="45.92648" lon="4.73682">
        <ele>173</ele>
        <time>2016-11-28T11:47:26Z</time>
      </trkpt>
      <trkpt lat="45.92644" lon="4.73677">
        <ele>173</ele>
        <time>2016-11-28T11:47:27Z</time>
      </trkpt>
      <trkpt lat="45.9264" lon="4.7367">
        <ele>173</ele>
        <time>2016-11-28T11:47:28Z</time>
      </trkpt>
      <trkpt lat="45.92637" lon="4.73664">
        <ele>173</ele>
        <time>2016-11-28T11:47:29Z</time>
      </trkpt>
      <trkpt lat="45.92634" lon="4.73656">
        <ele>173</ele>
        <time>2016-11-28T11:47:30Z</time>
      </trkpt>
      <trkpt lat="45.92631" lon="4.73649">
        <ele>173</ele>
        <time>2016-11-28T11:47:31Z</time>
      </trkpt>
      <trkpt lat="45.92627" lon="4.73641">
        <ele>173</ele>
        <time>2016-11-28T11:47:32Z</time>
      </trkpt>
      <trkpt lat="45.92623" lon="4.73635">
        <ele>173</ele>
        <time>2016-11-28T11:47:33Z</time>
      </trkpt>
      <trkpt lat="45.92618" lon="4.73629">
        <ele>173</ele>
        <time>2016-11-28T11:47:34Z</time>
      </trkpt>
      <trkpt lat="45.92612" lon="4.73625">
        <ele>173</ele>
        <time>2016-11-28T11:47:35Z</time>
      </trkpt>
      <trkpt lat="45.92607" lon="4.73623">
        <ele>173</ele>
        <time>2016-11-28T11:47:36Z</time>
      </trkpt>
      <trkpt lat="45.92601" lon="4.73622">
        <ele>173</ele>
        <time>2016-11-28T11:47:37Z</time>
      </trkpt>
      <trkpt lat="45.92596" lon="4.73622">
        <ele>173</ele>
        <time>2016-11-28T11:47:38Z</time>
      </trkpt>
      <trkpt lat="45.92591" lon="4.73622">
        <ele>173</ele>
        <time>2016-11-28T11:47:39Z</time>
      </trkpt>
      <trkpt lat="45.92586" lon="4.73624">
        <ele>172</ele>
        <time>2016-11-28T11:47:40Z</time>
      </trkpt>
      <trkpt lat="45.92582" lon="4.73625">
        <ele>173</ele>
        <time>2016-11-28T11:47:41Z</time>
      </trkpt>
      <trkpt lat="45.92577" lon="4.73625">
        <ele>173</ele>
        <time>2016-11-28T11:47:42Z</time>
      </trkpt>
      <trkpt lat="45.92573" lon="4.73627">
        <ele>173</ele>
        <time>2016-11-28T11:47:43Z</time>
      </trkpt>
      <trkpt lat="45.92568" lon="4.73628">
        <ele>173</ele>
        <time>2016-11-28T11:47:44Z</time>
      </trkpt>
      <trkpt lat="45.92563" lon="4.73629">
        <ele>173</ele>
        <time>2016-11-28T11:47:45Z</time>
      </trkpt>
      <trkpt lat="45.92558" lon="4.73631">
        <ele>173</ele>
        <time>2016-11-28T11:47:46Z</time>
      </trkpt>
      <trkpt lat="45.92553" lon="4.73631">
        <ele>173</ele>
        <time>2016-11-28T11:47:47Z</time>
      </trkpt>
      <trkpt lat="45.92548" lon="4.73632">
        <ele>173</ele>
        <time>2016-11-28T11:47:48Z</time>
      </trkpt>
      <trkpt lat="45.92543" lon="4.73634">
        <ele>173</ele>
        <time>2016-11-28T11:47:49Z</time>
      </trkpt>
      <trkpt lat="45.92537" lon="4.73635">
        <ele>173</ele>
        <time>2016-11-28T11:47:50Z</time>
      </trkpt>
      <trkpt lat="45.92531" lon="4.73636">
        <ele>173</ele>
        <time>2016-11-28T11:47:51Z</time>
      </trkpt>
      <trkpt lat="45.92526" lon="4.73636">
        <ele>173</ele>
        <time>2016-11-28T11:47:52Z</time>
      </trkpt>
      <trkpt lat="45.92522" lon="4.73637">
        <ele>173</ele>
        <time>2016-11-28T11:47:53Z</time>
      </trkpt>
      <trkpt lat="45.92517" lon="4.73637">
        <ele>173</ele>
        <time>2016-11-28T11:47:54Z</time>
      </trkpt>
      <trkpt lat="45.92508" lon="4.73638">
        <ele>174</ele>
        <time>2016-11-28T11:47:56Z</time>
      </trkpt>
      <trkpt lat="45.92504" lon="4.73639">
        <ele>174</ele>
        <time>2016-11-28T11:47:57Z</time>
      </trkpt>
      <trkpt lat="45.92496" lon="4.73638">
        <ele>174</ele>
        <time>2016-11-28T11:47:59Z</time>
      </trkpt>
      <trkpt lat="45.92493" lon="4.73637">
        <ele>174</ele>
        <time>2016-11-28T11:48:00Z</time>
      </trkpt>
      <trkpt lat="45.92485" lon="4.73637">
        <ele>174</ele>
        <time>2016-11-28T11:48:02Z</time>
      </trkpt>
      <trkpt lat="45.92481" lon="4.73638">
        <ele>174</ele>
        <time>2016-11-28T11:48:03Z</time>
      </trkpt>
      <trkpt lat="45.92474" lon="4.7364">
        <ele>174</ele>
        <time>2016-11-28T11:48:05Z</time>
      </trkpt>
      <trkpt lat="45.92471" lon="4.73644">
        <ele>174</ele>
        <time>2016-11-28T11:48:06Z</time>
      </trkpt>
      <trkpt lat="45.92468" lon="4.73654">
        <ele>174</ele>
        <time>2016-11-28T11:48:08Z</time>
      </trkpt>
      <trkpt lat="45.92468" lon="4.7366">
        <ele>174</ele>
        <time>2016-11-28T11:48:09Z</time>
      </trkpt>
      <trkpt lat="45.92468" lon="4.7367">
        <ele>174</ele>
        <time>2016-11-28T11:48:11Z</time>
      </trkpt>
      <trkpt lat="45.92468" lon="4.73675">
        <ele>174</ele>
        <time>2016-11-28T11:48:12Z</time>
      </trkpt>
      <trkpt lat="45.92466" lon="4.73685">
        <ele>174</ele>
        <time>2016-11-28T11:48:14Z</time>
      </trkpt>
      <trkpt lat="45.92465" lon="4.7369">
        <ele>174</ele>
        <time>2016-11-28T11:48:15Z</time>
      </trkpt>
      <trkpt lat="45.92464" lon="4.73699">
        <ele>174</ele>
        <time>2016-11-28T11:48:17Z</time>
      </trkpt>
      <trkpt lat="45.92464" lon="4.73703">
        <ele>174</ele>
        <time>2016-11-28T11:48:18Z</time>
      </trkpt>
      <trkpt lat="45.92463" lon="4.73708">
        <ele>174</ele>
        <time>2016-11-28T11:48:59.71Z</time>
      </trkpt>
    </trkseg>
  </trk>
</gpx>